<?xml version="1.0" encoding="UTF-8" standalone="no" ?>
<gpx xmlns="http://www.topografix.com/GPX/1/1" xmlns:xsi="http://www.w3.org/2001/XMLSchema-instance" xsi:schemaLocation="http://www.topografix.com/GPX/1/1 http://www.topografix.com/GPX/1/1/gpx.xsd" version="1.1" creator="VisuGPX - https://www.visugpx.com">
  <metadata>
    <name>Els 3 Montsecs</name>
    <desc><![CDATA[travessia dels 3 Montsecs a la Comarca de la Noguera.]]></desc>
  </metadata>
  <trk>
    <name><![CDATA[ELS 3 MONTSECS]]></name>
    <trkseg>
      <trkpt lat="42.09577" lon="0.62558">
        <ele>1074.996</ele>
        <time>2017-11-26T09:16:53Z</time>
      </trkpt>
      <trkpt lat="42.09572" lon="0.62569">
        <ele>1075.331</ele>
        <time>2017-11-26T09:17:10Z</time>
      </trkpt>
      <trkpt lat="42.09569" lon="0.6258">
        <ele>1075.824</ele>
        <time>2017-11-26T09:17:18Z</time>
      </trkpt>
      <trkpt lat="42.09567" lon="0.62594">
        <ele>1076.408</ele>
        <time>2017-11-26T09:17:26Z</time>
      </trkpt>
      <trkpt lat="42.09565" lon="0.62605">
        <ele>1077.121</ele>
        <time>2017-11-26T09:17:34Z</time>
      </trkpt>
      <trkpt lat="42.09558" lon="0.62614">
        <ele>1077.89</ele>
        <time>2017-11-26T09:17:42Z</time>
      </trkpt>
      <trkpt lat="42.09553" lon="0.62625">
        <ele>1077.711</ele>
        <time>2017-11-26T09:17:50Z</time>
      </trkpt>
      <trkpt lat="42.09548" lon="0.62638">
        <ele>1077.563</ele>
        <time>2017-11-26T09:17:58Z</time>
      </trkpt>
      <trkpt lat="42.09543" lon="0.6265">
        <ele>1077.246</ele>
        <time>2017-11-26T09:18:06Z</time>
      </trkpt>
      <trkpt lat="42.09538" lon="0.62661">
        <ele>1077.537</ele>
        <time>2017-11-26T09:18:14Z</time>
      </trkpt>
      <trkpt lat="42.09532" lon="0.62672">
        <ele>1077.894</ele>
        <time>2017-11-26T09:18:23Z</time>
      </trkpt>
      <trkpt lat="42.09526" lon="0.62687">
        <ele>1077.778</ele>
        <time>2017-11-26T09:18:32Z</time>
      </trkpt>
      <trkpt lat="42.09526" lon="0.62703">
        <ele>1077.463</ele>
        <time>2017-11-26T09:18:40Z</time>
      </trkpt>
      <trkpt lat="42.09527" lon="0.6272">
        <ele>1077.044</ele>
        <time>2017-11-26T09:18:48Z</time>
      </trkpt>
      <trkpt lat="42.09529" lon="0.62735">
        <ele>1075.918</ele>
        <time>2017-11-26T09:18:56Z</time>
      </trkpt>
      <trkpt lat="42.09531" lon="0.62749">
        <ele>1074.708</ele>
        <time>2017-11-26T09:19:04Z</time>
      </trkpt>
      <trkpt lat="42.09533" lon="0.62763">
        <ele>1073.238</ele>
        <time>2017-11-26T09:19:12Z</time>
      </trkpt>
      <trkpt lat="42.09535" lon="0.62778">
        <ele>1071.757</ele>
        <time>2017-11-26T09:19:21Z</time>
      </trkpt>
      <trkpt lat="42.09538" lon="0.62793">
        <ele>1071.658</ele>
        <time>2017-11-26T09:19:31Z</time>
      </trkpt>
      <trkpt lat="42.0954" lon="0.62807">
        <ele>1071.62</ele>
        <time>2017-11-26T09:19:38Z</time>
      </trkpt>
      <trkpt lat="42.09542" lon="0.62824">
        <ele>1072.283</ele>
        <time>2017-11-26T09:19:47Z</time>
      </trkpt>
      <trkpt lat="42.09542" lon="0.62838">
        <ele>1072.914</ele>
        <time>2017-11-26T09:19:56Z</time>
      </trkpt>
      <trkpt lat="42.09541" lon="0.62853">
        <ele>1074.311</ele>
        <time>2017-11-26T09:20:12Z</time>
      </trkpt>
      <trkpt lat="42.09542" lon="0.62868">
        <ele>1075.825</ele>
        <time>2017-11-26T09:20:24Z</time>
      </trkpt>
      <trkpt lat="42.09546" lon="0.62881">
        <ele>1077.116</ele>
        <time>2017-11-26T09:20:35Z</time>
      </trkpt>
      <trkpt lat="42.09545" lon="0.62907">
        <ele>1079.776</ele>
        <time>2017-11-26T09:21:00Z</time>
      </trkpt>
      <trkpt lat="42.09541" lon="0.6292">
        <ele>1081.513</ele>
        <time>2017-11-26T09:21:14Z</time>
      </trkpt>
      <trkpt lat="42.09531" lon="0.62933">
        <ele>1084.308</ele>
        <time>2017-11-26T09:21:34Z</time>
      </trkpt>
      <trkpt lat="42.09523" lon="0.62943">
        <ele>1086.273</ele>
        <time>2017-11-26T09:21:47Z</time>
      </trkpt>
      <trkpt lat="42.09514" lon="0.62954">
        <ele>1087.712</ele>
        <time>2017-11-26T09:22:01Z</time>
      </trkpt>
      <trkpt lat="42.09498" lon="0.62966">
        <ele>1090.623</ele>
        <time>2017-11-26T09:22:19Z</time>
      </trkpt>
      <trkpt lat="42.09485" lon="0.62971">
        <ele>1092.535</ele>
        <time>2017-11-26T09:22:35Z</time>
      </trkpt>
      <trkpt lat="42.09471" lon="0.62974">
        <ele>1094.078</ele>
        <time>2017-11-26T09:22:46Z</time>
      </trkpt>
      <trkpt lat="42.09461" lon="0.62975">
        <ele>1095.149</ele>
        <time>2017-11-26T09:22:56Z</time>
      </trkpt>
      <trkpt lat="42.09448" lon="0.62971">
        <ele>1096.596</ele>
        <time>2017-11-26T09:23:19Z</time>
      </trkpt>
      <trkpt lat="42.09438" lon="0.62968">
        <ele>1097.83</ele>
        <time>2017-11-26T09:23:39Z</time>
      </trkpt>
      <trkpt lat="42.09412" lon="0.62958">
        <ele>1101.435</ele>
        <time>2017-11-26T09:24:08Z</time>
      </trkpt>
      <trkpt lat="42.09394" lon="0.62952">
        <ele>1103.886</ele>
        <time>2017-11-26T09:24:23Z</time>
      </trkpt>
      <trkpt lat="42.09381" lon="0.62949">
        <ele>1105.414</ele>
        <time>2017-11-26T09:24:33Z</time>
      </trkpt>
      <trkpt lat="42.09369" lon="0.62947">
        <ele>1106.608</ele>
        <time>2017-11-26T09:24:44Z</time>
      </trkpt>
      <trkpt lat="42.09357" lon="0.62946">
        <ele>1107.795</ele>
        <time>2017-11-26T09:24:55Z</time>
      </trkpt>
      <trkpt lat="42.09345" lon="0.62946">
        <ele>1108.944</ele>
        <time>2017-11-26T09:25:06Z</time>
      </trkpt>
      <trkpt lat="42.09333" lon="0.62949">
        <ele>1110.685</ele>
        <time>2017-11-26T09:25:17Z</time>
      </trkpt>
      <trkpt lat="42.09324" lon="0.62956">
        <ele>1110.957</ele>
        <time>2017-11-26T09:25:28Z</time>
      </trkpt>
      <trkpt lat="42.09318" lon="0.62968">
        <ele>1111.82</ele>
        <time>2017-11-26T09:25:38Z</time>
      </trkpt>
      <trkpt lat="42.09312" lon="0.6298">
        <ele>1112.421</ele>
        <time>2017-11-26T09:25:48Z</time>
      </trkpt>
      <trkpt lat="42.09307" lon="0.62992">
        <ele>1112.658</ele>
        <time>2017-11-26T09:25:57Z</time>
      </trkpt>
      <trkpt lat="42.09301" lon="0.63002">
        <ele>1112.152</ele>
        <time>2017-11-26T09:26:06Z</time>
      </trkpt>
      <trkpt lat="42.09296" lon="0.63013">
        <ele>1112.077</ele>
        <time>2017-11-26T09:26:15Z</time>
      </trkpt>
      <trkpt lat="42.09291" lon="0.63025">
        <ele>1111.961</ele>
        <time>2017-11-26T09:26:24Z</time>
      </trkpt>
      <trkpt lat="42.09286" lon="0.63036">
        <ele>1112.027</ele>
        <time>2017-11-26T09:26:32Z</time>
      </trkpt>
      <trkpt lat="42.09283" lon="0.63049">
        <ele>1112.508</ele>
        <time>2017-11-26T09:26:41Z</time>
      </trkpt>
      <trkpt lat="42.09279" lon="0.63062">
        <ele>1113.079</ele>
        <time>2017-11-26T09:26:51Z</time>
      </trkpt>
      <trkpt lat="42.09274" lon="0.63075">
        <ele>1113.578</ele>
        <time>2017-11-26T09:27:01Z</time>
      </trkpt>
      <trkpt lat="42.09271" lon="0.63089">
        <ele>1114.599</ele>
        <time>2017-11-26T09:27:11Z</time>
      </trkpt>
      <trkpt lat="42.09269" lon="0.63105">
        <ele>1115.281</ele>
        <time>2017-11-26T09:27:21Z</time>
      </trkpt>
      <trkpt lat="42.09267" lon="0.63119">
        <ele>1115.914</ele>
        <time>2017-11-26T09:27:31Z</time>
      </trkpt>
      <trkpt lat="42.09264" lon="0.63132">
        <ele>1116.575</ele>
        <time>2017-11-26T09:27:42Z</time>
      </trkpt>
      <trkpt lat="42.09257" lon="0.63144">
        <ele>1117.062</ele>
        <time>2017-11-26T09:27:52Z</time>
      </trkpt>
      <trkpt lat="42.09251" lon="0.63157">
        <ele>1118.026</ele>
        <time>2017-11-26T09:28:03Z</time>
      </trkpt>
      <trkpt lat="42.09242" lon="0.63167">
        <ele>1118.697</ele>
        <time>2017-11-26T09:28:13Z</time>
      </trkpt>
      <trkpt lat="42.09236" lon="0.63177">
        <ele>1119.223</ele>
        <time>2017-11-26T09:28:21Z</time>
      </trkpt>
      <trkpt lat="42.09233" lon="0.6319">
        <ele>1120.225</ele>
        <time>2017-11-26T09:28:29Z</time>
      </trkpt>
      <trkpt lat="42.09227" lon="0.632">
        <ele>1120.708</ele>
        <time>2017-11-26T09:28:37Z</time>
      </trkpt>
      <trkpt lat="42.09222" lon="0.63211">
        <ele>1121.231</ele>
        <time>2017-11-26T09:28:45Z</time>
      </trkpt>
      <trkpt lat="42.09218" lon="0.63222">
        <ele>1121.25</ele>
        <time>2017-11-26T09:28:53Z</time>
      </trkpt>
      <trkpt lat="42.09212" lon="0.63233">
        <ele>1120.771</ele>
        <time>2017-11-26T09:29:03Z</time>
      </trkpt>
      <trkpt lat="42.09208" lon="0.63246">
        <ele>1120.753</ele>
        <time>2017-11-26T09:29:11Z</time>
      </trkpt>
      <trkpt lat="42.09204" lon="0.63257">
        <ele>1120.436</ele>
        <time>2017-11-26T09:29:19Z</time>
      </trkpt>
      <trkpt lat="42.09199" lon="0.63268">
        <ele>1120.427</ele>
        <time>2017-11-26T09:29:29Z</time>
      </trkpt>
      <trkpt lat="42.09192" lon="0.6328">
        <ele>1120.834</ele>
        <time>2017-11-26T09:29:38Z</time>
      </trkpt>
      <trkpt lat="42.09187" lon="0.6329">
        <ele>1120.628</ele>
        <time>2017-11-26T09:29:46Z</time>
      </trkpt>
      <trkpt lat="42.09181" lon="0.633">
        <ele>1120.678</ele>
        <time>2017-11-26T09:29:54Z</time>
      </trkpt>
      <trkpt lat="42.09174" lon="0.63311">
        <ele>1121.033</ele>
        <time>2017-11-26T09:30:02Z</time>
      </trkpt>
      <trkpt lat="42.09169" lon="0.63321">
        <ele>1121.726</ele>
        <time>2017-11-26T09:30:11Z</time>
      </trkpt>
      <trkpt lat="42.09164" lon="0.63332">
        <ele>1122.808</ele>
        <time>2017-11-26T09:30:21Z</time>
      </trkpt>
      <trkpt lat="42.09158" lon="0.63344">
        <ele>1124.899</ele>
        <time>2017-11-26T09:30:33Z</time>
      </trkpt>
      <trkpt lat="42.09152" lon="0.63355">
        <ele>1126.578</ele>
        <time>2017-11-26T09:30:44Z</time>
      </trkpt>
      <trkpt lat="42.09149" lon="0.63366">
        <ele>1128.029</ele>
        <time>2017-11-26T09:31:08Z</time>
      </trkpt>
      <trkpt lat="42.09143" lon="0.63377">
        <ele>1129.041</ele>
        <time>2017-11-26T09:31:21Z</time>
      </trkpt>
      <trkpt lat="42.09135" lon="0.63385">
        <ele>1129.634</ele>
        <time>2017-11-26T09:31:32Z</time>
      </trkpt>
      <trkpt lat="42.09127" lon="0.63394">
        <ele>1130.475</ele>
        <time>2017-11-26T09:31:43Z</time>
      </trkpt>
      <trkpt lat="42.09119" lon="0.63402">
        <ele>1130.952</ele>
        <time>2017-11-26T09:31:53Z</time>
      </trkpt>
      <trkpt lat="42.09112" lon="0.63409">
        <ele>1131.546</ele>
        <time>2017-11-26T09:32:02Z</time>
      </trkpt>
      <trkpt lat="42.09103" lon="0.63415">
        <ele>1132.174</ele>
        <time>2017-11-26T09:32:12Z</time>
      </trkpt>
      <trkpt lat="42.09094" lon="0.63421">
        <ele>1132.656</ele>
        <time>2017-11-26T09:32:22Z</time>
      </trkpt>
      <trkpt lat="42.09087" lon="0.63429">
        <ele>1133.221</ele>
        <time>2017-11-26T09:32:32Z</time>
      </trkpt>
      <trkpt lat="42.09079" lon="0.63437">
        <ele>1133.808</ele>
        <time>2017-11-26T09:32:41Z</time>
      </trkpt>
      <trkpt lat="42.09071" lon="0.63445">
        <ele>1134.489</ele>
        <time>2017-11-26T09:32:50Z</time>
      </trkpt>
      <trkpt lat="42.09063" lon="0.63453">
        <ele>1134.588</ele>
        <time>2017-11-26T09:32:59Z</time>
      </trkpt>
      <trkpt lat="42.09056" lon="0.63462">
        <ele>1135.059</ele>
        <time>2017-11-26T09:33:08Z</time>
      </trkpt>
      <trkpt lat="42.09049" lon="0.63471">
        <ele>1134.711</ele>
        <time>2017-11-26T09:33:16Z</time>
      </trkpt>
      <trkpt lat="42.09041" lon="0.63479">
        <ele>1134.324</ele>
        <time>2017-11-26T09:33:24Z</time>
      </trkpt>
      <trkpt lat="42.09033" lon="0.63488">
        <ele>1134.345</ele>
        <time>2017-11-26T09:33:33Z</time>
      </trkpt>
      <trkpt lat="42.09025" lon="0.63497">
        <ele>1134.752</ele>
        <time>2017-11-26T09:33:42Z</time>
      </trkpt>
      <trkpt lat="42.09018" lon="0.63502">
        <ele>1134.786</ele>
        <time>2017-11-26T09:34:00Z</time>
      </trkpt>
      <trkpt lat="42.09009" lon="0.63512">
        <ele>1135.196</ele>
        <time>2017-11-26T09:34:09Z</time>
      </trkpt>
      <trkpt lat="42.09002" lon="0.63522">
        <ele>1136.231</ele>
        <time>2017-11-26T09:34:18Z</time>
      </trkpt>
      <trkpt lat="42.08993" lon="0.63528">
        <ele>1136.824</ele>
        <time>2017-11-26T09:34:26Z</time>
      </trkpt>
      <trkpt lat="42.08986" lon="0.63536">
        <ele>1136.808</ele>
        <time>2017-11-26T09:34:34Z</time>
      </trkpt>
      <trkpt lat="42.08977" lon="0.63541">
        <ele>1137.281</ele>
        <time>2017-11-26T09:34:42Z</time>
      </trkpt>
      <trkpt lat="42.08969" lon="0.63549">
        <ele>1138.36</ele>
        <time>2017-11-26T09:34:51Z</time>
      </trkpt>
      <trkpt lat="42.08961" lon="0.63556">
        <ele>1139.071</ele>
        <time>2017-11-26T09:35:00Z</time>
      </trkpt>
      <trkpt lat="42.08952" lon="0.6356">
        <ele>1139.443</ele>
        <time>2017-11-26T09:35:09Z</time>
      </trkpt>
      <trkpt lat="42.08945" lon="0.63565">
        <ele>1140.176</ele>
        <time>2017-11-26T09:35:18Z</time>
      </trkpt>
      <trkpt lat="42.08938" lon="0.63573">
        <ele>1141.227</ele>
        <time>2017-11-26T09:35:28Z</time>
      </trkpt>
      <trkpt lat="42.08931" lon="0.63583">
        <ele>1142.914</ele>
        <time>2017-11-26T09:35:39Z</time>
      </trkpt>
      <trkpt lat="42.08924" lon="0.63593">
        <ele>1144.068</ele>
        <time>2017-11-26T09:35:50Z</time>
      </trkpt>
      <trkpt lat="42.08917" lon="0.63603">
        <ele>1145.475</ele>
        <time>2017-11-26T09:36:00Z</time>
      </trkpt>
      <trkpt lat="42.0891" lon="0.63612">
        <ele>1146.828</ele>
        <time>2017-11-26T09:36:10Z</time>
      </trkpt>
      <trkpt lat="42.08903" lon="0.63619">
        <ele>1148.12</ele>
        <time>2017-11-26T09:36:22Z</time>
      </trkpt>
      <trkpt lat="42.08894" lon="0.63625">
        <ele>1149.708</ele>
        <time>2017-11-26T09:36:33Z</time>
      </trkpt>
      <trkpt lat="42.08884" lon="0.63627">
        <ele>1151.319</ele>
        <time>2017-11-26T09:36:44Z</time>
      </trkpt>
      <trkpt lat="42.08877" lon="0.63632">
        <ele>1152.958</ele>
        <time>2017-11-26T09:37:11Z</time>
      </trkpt>
      <trkpt lat="42.08869" lon="0.63639">
        <ele>1154.979</ele>
        <time>2017-11-26T09:37:23Z</time>
      </trkpt>
      <trkpt lat="42.08862" lon="0.63643">
        <ele>1156.381</ele>
        <time>2017-11-26T09:37:37Z</time>
      </trkpt>
      <trkpt lat="42.08853" lon="0.63648">
        <ele>1158.224</ele>
        <time>2017-11-26T09:37:49Z</time>
      </trkpt>
      <trkpt lat="42.08843" lon="0.63652">
        <ele>1160.045</ele>
        <time>2017-11-26T09:38:01Z</time>
      </trkpt>
      <trkpt lat="42.08835" lon="0.63658">
        <ele>1161.812</ele>
        <time>2017-11-26T09:38:13Z</time>
      </trkpt>
      <trkpt lat="42.08828" lon="0.63672">
        <ele>1164.046</ele>
        <time>2017-11-26T09:39:46Z</time>
      </trkpt>
      <trkpt lat="42.08823" lon="0.63674">
        <ele>1164.651</ele>
        <time>2017-11-26T09:41:05Z</time>
      </trkpt>
      <trkpt lat="42.08814" lon="0.63681">
        <ele>1166.101</ele>
        <time>2017-11-26T09:41:18Z</time>
      </trkpt>
      <trkpt lat="42.08806" lon="0.63684">
        <ele>1167.311</ele>
        <time>2017-11-26T09:41:30Z</time>
      </trkpt>
      <trkpt lat="42.08797" lon="0.63692">
        <ele>1168.708</ele>
        <time>2017-11-26T09:41:42Z</time>
      </trkpt>
      <trkpt lat="42.08789" lon="0.637">
        <ele>1170.257</ele>
        <time>2017-11-26T09:41:53Z</time>
      </trkpt>
      <trkpt lat="42.08781" lon="0.63707">
        <ele>1171.676</ele>
        <time>2017-11-26T09:42:04Z</time>
      </trkpt>
      <trkpt lat="42.08773" lon="0.63715">
        <ele>1172.647</ele>
        <time>2017-11-26T09:42:15Z</time>
      </trkpt>
      <trkpt lat="42.08767" lon="0.63724">
        <ele>1173.529</ele>
        <time>2017-11-26T09:42:27Z</time>
      </trkpt>
      <trkpt lat="42.08761" lon="0.63732">
        <ele>1174.372</ele>
        <time>2017-11-26T09:42:39Z</time>
      </trkpt>
      <trkpt lat="42.08754" lon="0.63741">
        <ele>1175.243</ele>
        <time>2017-11-26T09:42:49Z</time>
      </trkpt>
      <trkpt lat="42.08746" lon="0.63748">
        <ele>1175.83</ele>
        <time>2017-11-26T09:42:59Z</time>
      </trkpt>
      <trkpt lat="42.08739" lon="0.63755">
        <ele>1176.534</ele>
        <time>2017-11-26T09:43:09Z</time>
      </trkpt>
      <trkpt lat="42.08731" lon="0.63762">
        <ele>1177.586</ele>
        <time>2017-11-26T09:43:18Z</time>
      </trkpt>
      <trkpt lat="42.08723" lon="0.63769">
        <ele>1178.76</ele>
        <time>2017-11-26T09:43:28Z</time>
      </trkpt>
      <trkpt lat="42.08715" lon="0.63778">
        <ele>1180.326</ele>
        <time>2017-11-26T09:43:38Z</time>
      </trkpt>
      <trkpt lat="42.08708" lon="0.63786">
        <ele>1181.208</ele>
        <time>2017-11-26T09:43:49Z</time>
      </trkpt>
      <trkpt lat="42.087" lon="0.63793">
        <ele>1182.43</ele>
        <time>2017-11-26T09:44:01Z</time>
      </trkpt>
      <trkpt lat="42.08693" lon="0.63802">
        <ele>1183.839</ele>
        <time>2017-11-26T09:44:11Z</time>
      </trkpt>
      <trkpt lat="42.08685" lon="0.6381">
        <ele>1185.27</ele>
        <time>2017-11-26T09:44:22Z</time>
      </trkpt>
      <trkpt lat="42.08678" lon="0.63819">
        <ele>1186.352</ele>
        <time>2017-11-26T09:44:33Z</time>
      </trkpt>
      <trkpt lat="42.08669" lon="0.63822">
        <ele>1187.445</ele>
        <time>2017-11-26T09:44:47Z</time>
      </trkpt>
      <trkpt lat="42.0866" lon="0.63828">
        <ele>1188.566</ele>
        <time>2017-11-26T09:44:59Z</time>
      </trkpt>
      <trkpt lat="42.08651" lon="0.63833">
        <ele>1189.773</ele>
        <time>2017-11-26T09:45:10Z</time>
      </trkpt>
      <trkpt lat="42.08642" lon="0.63837">
        <ele>1190.827</ele>
        <time>2017-11-26T09:45:22Z</time>
      </trkpt>
      <trkpt lat="42.08631" lon="0.63842">
        <ele>1192.572</ele>
        <time>2017-11-26T09:45:38Z</time>
      </trkpt>
      <trkpt lat="42.0862" lon="0.63848">
        <ele>1194.213</ele>
        <time>2017-11-26T09:45:52Z</time>
      </trkpt>
      <trkpt lat="42.08612" lon="0.63852">
        <ele>1195.614</ele>
        <time>2017-11-26T09:46:25Z</time>
      </trkpt>
      <trkpt lat="42.08603" lon="0.6386">
        <ele>1197.108</ele>
        <time>2017-11-26T09:46:37Z</time>
      </trkpt>
      <trkpt lat="42.08598" lon="0.63865">
        <ele>1198.189</ele>
        <time>2017-11-26T09:47:00Z</time>
      </trkpt>
      <trkpt lat="42.08591" lon="0.63875">
        <ele>1199.468</ele>
        <time>2017-11-26T09:47:11Z</time>
      </trkpt>
      <trkpt lat="42.08584" lon="0.63885">
        <ele>1200.799</ele>
        <time>2017-11-26T09:47:21Z</time>
      </trkpt>
      <trkpt lat="42.08579" lon="0.63896">
        <ele>1201.531</ele>
        <time>2017-11-26T09:47:31Z</time>
      </trkpt>
      <trkpt lat="42.08575" lon="0.63907">
        <ele>1201.984</ele>
        <time>2017-11-26T09:47:43Z</time>
      </trkpt>
      <trkpt lat="42.08571" lon="0.63919">
        <ele>1202.365</ele>
        <time>2017-11-26T09:47:53Z</time>
      </trkpt>
      <trkpt lat="42.08569" lon="0.63931">
        <ele>1202.822</ele>
        <time>2017-11-26T09:48:02Z</time>
      </trkpt>
      <trkpt lat="42.08566" lon="0.63945">
        <ele>1203.256</ele>
        <time>2017-11-26T09:48:11Z</time>
      </trkpt>
      <trkpt lat="42.08564" lon="0.63957">
        <ele>1203.364</ele>
        <time>2017-11-26T09:48:20Z</time>
      </trkpt>
      <trkpt lat="42.0856" lon="0.63968">
        <ele>1203.506</ele>
        <time>2017-11-26T09:48:28Z</time>
      </trkpt>
      <trkpt lat="42.08556" lon="0.63979">
        <ele>1203.716</ele>
        <time>2017-11-26T09:48:36Z</time>
      </trkpt>
      <trkpt lat="42.08553" lon="0.63992">
        <ele>1203.408</ele>
        <time>2017-11-26T09:48:45Z</time>
      </trkpt>
      <trkpt lat="42.0855" lon="0.64004">
        <ele>1203.178</ele>
        <time>2017-11-26T09:48:53Z</time>
      </trkpt>
      <trkpt lat="42.08545" lon="0.64016">
        <ele>1202.837</ele>
        <time>2017-11-26T09:49:02Z</time>
      </trkpt>
      <trkpt lat="42.08541" lon="0.64027">
        <ele>1202.538</ele>
        <time>2017-11-26T09:49:10Z</time>
      </trkpt>
      <trkpt lat="42.08537" lon="0.64039">
        <ele>1202.74</ele>
        <time>2017-11-26T09:49:18Z</time>
      </trkpt>
      <trkpt lat="42.08533" lon="0.6405">
        <ele>1202.883</ele>
        <time>2017-11-26T09:49:26Z</time>
      </trkpt>
      <trkpt lat="42.08525" lon="0.64059">
        <ele>1202.964</ele>
        <time>2017-11-26T09:49:36Z</time>
      </trkpt>
      <trkpt lat="42.08517" lon="0.64067">
        <ele>1202.571</ele>
        <time>2017-11-26T09:49:44Z</time>
      </trkpt>
      <trkpt lat="42.08511" lon="0.64079">
        <ele>1201.925</ele>
        <time>2017-11-26T09:49:53Z</time>
      </trkpt>
      <trkpt lat="42.08506" lon="0.6409">
        <ele>1201.414</ele>
        <time>2017-11-26T09:50:01Z</time>
      </trkpt>
      <trkpt lat="42.08501" lon="0.64099">
        <ele>1201.054</ele>
        <time>2017-11-26T09:50:08Z</time>
      </trkpt>
      <trkpt lat="42.08496" lon="0.6411">
        <ele>1200.709</ele>
        <time>2017-11-26T09:50:15Z</time>
      </trkpt>
      <trkpt lat="42.08492" lon="0.64121">
        <ele>1200.408</ele>
        <time>2017-11-26T09:50:24Z</time>
      </trkpt>
      <trkpt lat="42.08487" lon="0.64131">
        <ele>1200.083</ele>
        <time>2017-11-26T09:50:33Z</time>
      </trkpt>
      <trkpt lat="42.08481" lon="0.64141">
        <ele>1199.632</ele>
        <time>2017-11-26T09:50:39Z</time>
      </trkpt>
      <trkpt lat="42.08475" lon="0.6415">
        <ele>1199.293</ele>
        <time>2017-11-26T09:50:48Z</time>
      </trkpt>
      <trkpt lat="42.0847" lon="0.64161">
        <ele>1198.975</ele>
        <time>2017-11-26T09:50:55Z</time>
      </trkpt>
      <trkpt lat="42.08465" lon="0.64172">
        <ele>1198.838</ele>
        <time>2017-11-26T09:51:04Z</time>
      </trkpt>
      <trkpt lat="42.0846" lon="0.64183">
        <ele>1198.899</ele>
        <time>2017-11-26T09:51:11Z</time>
      </trkpt>
      <trkpt lat="42.08456" lon="0.64194">
        <ele>1199.096</ele>
        <time>2017-11-26T09:51:19Z</time>
      </trkpt>
      <trkpt lat="42.0845" lon="0.64206">
        <ele>1199.09</ele>
        <time>2017-11-26T09:51:28Z</time>
      </trkpt>
      <trkpt lat="42.08444" lon="0.64216">
        <ele>1199.012</ele>
        <time>2017-11-26T09:51:36Z</time>
      </trkpt>
      <trkpt lat="42.08438" lon="0.64225">
        <ele>1199.232</ele>
        <time>2017-11-26T09:51:43Z</time>
      </trkpt>
      <trkpt lat="42.08432" lon="0.64236">
        <ele>1199.505</ele>
        <time>2017-11-26T09:51:53Z</time>
      </trkpt>
      <trkpt lat="42.08425" lon="0.64246">
        <ele>1199.708</ele>
        <time>2017-11-26T09:52:02Z</time>
      </trkpt>
      <trkpt lat="42.08418" lon="0.64255">
        <ele>1200.123</ele>
        <time>2017-11-26T09:52:10Z</time>
      </trkpt>
      <trkpt lat="42.08413" lon="0.64267">
        <ele>1200.882</ele>
        <time>2017-11-26T09:52:17Z</time>
      </trkpt>
      <trkpt lat="42.08407" lon="0.64278">
        <ele>1201.453</ele>
        <time>2017-11-26T09:52:25Z</time>
      </trkpt>
      <trkpt lat="42.08401" lon="0.64288">
        <ele>1201.495</ele>
        <time>2017-11-26T09:52:34Z</time>
      </trkpt>
      <trkpt lat="42.08394" lon="0.64299">
        <ele>1201.798</ele>
        <time>2017-11-26T09:52:43Z</time>
      </trkpt>
      <trkpt lat="42.08388" lon="0.6431">
        <ele>1202.179</ele>
        <time>2017-11-26T09:52:53Z</time>
      </trkpt>
      <trkpt lat="42.08383" lon="0.6432">
        <ele>1202.456</ele>
        <time>2017-11-26T09:53:01Z</time>
      </trkpt>
      <trkpt lat="42.08377" lon="0.6433">
        <ele>1202.94</ele>
        <time>2017-11-26T09:53:10Z</time>
      </trkpt>
      <trkpt lat="42.08372" lon="0.64341">
        <ele>1203.188</ele>
        <time>2017-11-26T09:53:20Z</time>
      </trkpt>
      <trkpt lat="42.08366" lon="0.64352">
        <ele>1203.624</ele>
        <time>2017-11-26T09:53:29Z</time>
      </trkpt>
      <trkpt lat="42.08359" lon="0.64363">
        <ele>1204.026</ele>
        <time>2017-11-26T09:53:38Z</time>
      </trkpt>
      <trkpt lat="42.08353" lon="0.64374">
        <ele>1204.008</ele>
        <time>2017-11-26T09:53:47Z</time>
      </trkpt>
      <trkpt lat="42.08348" lon="0.64386">
        <ele>1204.08</ele>
        <time>2017-11-26T09:53:55Z</time>
      </trkpt>
      <trkpt lat="42.08345" lon="0.64397">
        <ele>1203.799</ele>
        <time>2017-11-26T09:54:03Z</time>
      </trkpt>
      <trkpt lat="42.08341" lon="0.6441">
        <ele>1203.52</ele>
        <time>2017-11-26T09:54:12Z</time>
      </trkpt>
      <trkpt lat="42.08336" lon="0.64421">
        <ele>1203.622</ele>
        <time>2017-11-26T09:54:20Z</time>
      </trkpt>
      <trkpt lat="42.0833" lon="0.64432">
        <ele>1203.695</ele>
        <time>2017-11-26T09:54:28Z</time>
      </trkpt>
      <trkpt lat="42.08324" lon="0.64443">
        <ele>1203.736</ele>
        <time>2017-11-26T09:54:36Z</time>
      </trkpt>
      <trkpt lat="42.08319" lon="0.64453">
        <ele>1203.753</ele>
        <time>2017-11-26T09:54:44Z</time>
      </trkpt>
      <trkpt lat="42.08312" lon="0.64465">
        <ele>1203.837</ele>
        <time>2017-11-26T09:54:53Z</time>
      </trkpt>
      <trkpt lat="42.08306" lon="0.64475">
        <ele>1203.938</ele>
        <time>2017-11-26T09:55:01Z</time>
      </trkpt>
      <trkpt lat="42.083" lon="0.64485">
        <ele>1204.27</ele>
        <time>2017-11-26T09:55:09Z</time>
      </trkpt>
      <trkpt lat="42.08294" lon="0.64494">
        <ele>1204.417</ele>
        <time>2017-11-26T09:55:17Z</time>
      </trkpt>
      <trkpt lat="42.08288" lon="0.64505">
        <ele>1204.608</ele>
        <time>2017-11-26T09:55:26Z</time>
      </trkpt>
      <trkpt lat="42.08282" lon="0.64517">
        <ele>1204.825</ele>
        <time>2017-11-26T09:55:35Z</time>
      </trkpt>
      <trkpt lat="42.08276" lon="0.64528">
        <ele>1205.194</ele>
        <time>2017-11-26T09:55:44Z</time>
      </trkpt>
      <trkpt lat="42.0827" lon="0.6454">
        <ele>1205.655</ele>
        <time>2017-11-26T09:55:53Z</time>
      </trkpt>
      <trkpt lat="42.08263" lon="0.6455">
        <ele>1205.937</ele>
        <time>2017-11-26T09:56:02Z</time>
      </trkpt>
      <trkpt lat="42.08259" lon="0.64563">
        <ele>1206.16</ele>
        <time>2017-11-26T09:56:11Z</time>
      </trkpt>
      <trkpt lat="42.08255" lon="0.64575">
        <ele>1206.571</ele>
        <time>2017-11-26T09:56:19Z</time>
      </trkpt>
      <trkpt lat="42.0825" lon="0.64585">
        <ele>1207.018</ele>
        <time>2017-11-26T09:56:27Z</time>
      </trkpt>
      <trkpt lat="42.08244" lon="0.64596">
        <ele>1207.342</ele>
        <time>2017-11-26T09:56:36Z</time>
      </trkpt>
      <trkpt lat="42.08239" lon="0.64607">
        <ele>1207.741</ele>
        <time>2017-11-26T09:56:44Z</time>
      </trkpt>
      <trkpt lat="42.08232" lon="0.64618">
        <ele>1208.381</ele>
        <time>2017-11-26T09:56:53Z</time>
      </trkpt>
      <trkpt lat="42.08226" lon="0.64626">
        <ele>1208.809</ele>
        <time>2017-11-26T09:57:01Z</time>
      </trkpt>
      <trkpt lat="42.08219" lon="0.64637">
        <ele>1209.208</ele>
        <time>2017-11-26T09:57:10Z</time>
      </trkpt>
      <trkpt lat="42.08212" lon="0.64646">
        <ele>1209.636</ele>
        <time>2017-11-26T09:57:19Z</time>
      </trkpt>
      <trkpt lat="42.08203" lon="0.6465">
        <ele>1210.245</ele>
        <time>2017-11-26T09:57:28Z</time>
      </trkpt>
      <trkpt lat="42.08194" lon="0.6465">
        <ele>1211.156</ele>
        <time>2017-11-26T09:57:37Z</time>
      </trkpt>
      <trkpt lat="42.08184" lon="0.6465">
        <ele>1211.888</ele>
        <time>2017-11-26T09:57:46Z</time>
      </trkpt>
      <trkpt lat="42.08173" lon="0.64648">
        <ele>1212.591</ele>
        <time>2017-11-26T09:57:56Z</time>
      </trkpt>
      <trkpt lat="42.08164" lon="0.64648">
        <ele>1213.212</ele>
        <time>2017-11-26T09:58:05Z</time>
      </trkpt>
      <trkpt lat="42.08155" lon="0.64651">
        <ele>1214.049</ele>
        <time>2017-11-26T09:58:15Z</time>
      </trkpt>
      <trkpt lat="42.08146" lon="0.64653">
        <ele>1214.993</ele>
        <time>2017-11-26T09:58:27Z</time>
      </trkpt>
      <trkpt lat="42.08137" lon="0.64656">
        <ele>1215.925</ele>
        <time>2017-11-26T09:58:36Z</time>
      </trkpt>
      <trkpt lat="42.08129" lon="0.64662">
        <ele>1217.026</ele>
        <time>2017-11-26T09:58:45Z</time>
      </trkpt>
      <trkpt lat="42.08123" lon="0.64673">
        <ele>1217.708</ele>
        <time>2017-11-26T09:58:55Z</time>
      </trkpt>
      <trkpt lat="42.08118" lon="0.64684">
        <ele>1218.308</ele>
        <time>2017-11-26T09:59:04Z</time>
      </trkpt>
      <trkpt lat="42.08114" lon="0.64697">
        <ele>1218.784</ele>
        <time>2017-11-26T09:59:13Z</time>
      </trkpt>
      <trkpt lat="42.0811" lon="0.6471">
        <ele>1219.243</ele>
        <time>2017-11-26T09:59:22Z</time>
      </trkpt>
      <trkpt lat="42.08106" lon="0.64722">
        <ele>1219.794</ele>
        <time>2017-11-26T09:59:31Z</time>
      </trkpt>
      <trkpt lat="42.08102" lon="0.64734">
        <ele>1219.936</ele>
        <time>2017-11-26T09:59:39Z</time>
      </trkpt>
      <trkpt lat="42.08097" lon="0.64744">
        <ele>1220.329</ele>
        <time>2017-11-26T09:59:48Z</time>
      </trkpt>
      <trkpt lat="42.08092" lon="0.64755">
        <ele>1220.74</ele>
        <time>2017-11-26T09:59:56Z</time>
      </trkpt>
      <trkpt lat="42.08087" lon="0.64765">
        <ele>1221.347</ele>
        <time>2017-11-26T10:00:04Z</time>
      </trkpt>
      <trkpt lat="42.08081" lon="0.64776">
        <ele>1222.481</ele>
        <time>2017-11-26T10:00:13Z</time>
      </trkpt>
      <trkpt lat="42.08075" lon="0.64787">
        <ele>1222.879</ele>
        <time>2017-11-26T10:00:21Z</time>
      </trkpt>
      <trkpt lat="42.08071" lon="0.64796">
        <ele>1223.105</ele>
        <time>2017-11-26T10:00:29Z</time>
      </trkpt>
      <trkpt lat="42.08066" lon="0.64809">
        <ele>1223.325</ele>
        <time>2017-11-26T10:00:38Z</time>
      </trkpt>
      <trkpt lat="42.08062" lon="0.6482">
        <ele>1223.508</ele>
        <time>2017-11-26T10:00:46Z</time>
      </trkpt>
      <trkpt lat="42.08056" lon="0.64831">
        <ele>1223.929</ele>
        <time>2017-11-26T10:00:54Z</time>
      </trkpt>
      <trkpt lat="42.08051" lon="0.64842">
        <ele>1224.248</ele>
        <time>2017-11-26T10:01:04Z</time>
      </trkpt>
      <trkpt lat="42.08044" lon="0.64853">
        <ele>1224.599</ele>
        <time>2017-11-26T10:01:12Z</time>
      </trkpt>
      <trkpt lat="42.08039" lon="0.64864">
        <ele>1224.711</ele>
        <time>2017-11-26T10:01:21Z</time>
      </trkpt>
      <trkpt lat="42.08034" lon="0.64875">
        <ele>1225.114</ele>
        <time>2017-11-26T10:01:31Z</time>
      </trkpt>
      <trkpt lat="42.08029" lon="0.64887">
        <ele>1225.825</ele>
        <time>2017-11-26T10:01:40Z</time>
      </trkpt>
      <trkpt lat="42.08022" lon="0.64898">
        <ele>1226.442</ele>
        <time>2017-11-26T10:01:49Z</time>
      </trkpt>
      <trkpt lat="42.08015" lon="0.64906">
        <ele>1227.136</ele>
        <time>2017-11-26T10:01:58Z</time>
      </trkpt>
      <trkpt lat="42.08007" lon="0.64915">
        <ele>1228.088</ele>
        <time>2017-11-26T10:02:07Z</time>
      </trkpt>
      <trkpt lat="42.07999" lon="0.64923">
        <ele>1228.724</ele>
        <time>2017-11-26T10:02:16Z</time>
      </trkpt>
      <trkpt lat="42.07991" lon="0.64929">
        <ele>1229.326</ele>
        <time>2017-11-26T10:02:24Z</time>
      </trkpt>
      <trkpt lat="42.07983" lon="0.64936">
        <ele>1229.908</ele>
        <time>2017-11-26T10:02:33Z</time>
      </trkpt>
      <trkpt lat="42.07975" lon="0.64942">
        <ele>1230.77</ele>
        <time>2017-11-26T10:02:43Z</time>
      </trkpt>
      <trkpt lat="42.07968" lon="0.6495">
        <ele>1231.329</ele>
        <time>2017-11-26T10:02:52Z</time>
      </trkpt>
      <trkpt lat="42.07959" lon="0.64958">
        <ele>1232.07</ele>
        <time>2017-11-26T10:03:03Z</time>
      </trkpt>
      <trkpt lat="42.07952" lon="0.64964">
        <ele>1232.652</ele>
        <time>2017-11-26T10:03:15Z</time>
      </trkpt>
      <trkpt lat="42.07944" lon="0.6497">
        <ele>1233.275</ele>
        <time>2017-11-26T10:03:24Z</time>
      </trkpt>
      <trkpt lat="42.07936" lon="0.64976">
        <ele>1234.226</ele>
        <time>2017-11-26T10:03:35Z</time>
      </trkpt>
      <trkpt lat="42.0793" lon="0.64981">
        <ele>1235.023</ele>
        <time>2017-11-26T10:03:52Z</time>
      </trkpt>
      <trkpt lat="42.07923" lon="0.64985">
        <ele>1236.057</ele>
        <time>2017-11-26T10:05:07Z</time>
      </trkpt>
      <trkpt lat="42.07914" lon="0.64988">
        <ele>1237.331</ele>
        <time>2017-11-26T10:05:24Z</time>
      </trkpt>
      <trkpt lat="42.07905" lon="0.64988">
        <ele>1239.061</ele>
        <time>2017-11-26T10:05:34Z</time>
      </trkpt>
      <trkpt lat="42.07897" lon="0.64988">
        <ele>1240.507</ele>
        <time>2017-11-26T10:05:43Z</time>
      </trkpt>
      <trkpt lat="42.07889" lon="0.64995">
        <ele>1241.408</ele>
        <time>2017-11-26T10:06:02Z</time>
      </trkpt>
      <trkpt lat="42.07882" lon="0.65006">
        <ele>1241.775</ele>
        <time>2017-11-26T10:06:12Z</time>
      </trkpt>
      <trkpt lat="42.07876" lon="0.65015">
        <ele>1241.974</ele>
        <time>2017-11-26T10:06:21Z</time>
      </trkpt>
      <trkpt lat="42.07868" lon="0.65024">
        <ele>1242.795</ele>
        <time>2017-11-26T10:06:32Z</time>
      </trkpt>
      <trkpt lat="42.07862" lon="0.65034">
        <ele>1243.377</ele>
        <time>2017-11-26T10:06:42Z</time>
      </trkpt>
      <trkpt lat="42.07856" lon="0.65044">
        <ele>1244.28</ele>
        <time>2017-11-26T10:06:52Z</time>
      </trkpt>
      <trkpt lat="42.0785" lon="0.65054">
        <ele>1244.961</ele>
        <time>2017-11-26T10:07:06Z</time>
      </trkpt>
      <trkpt lat="42.07843" lon="0.65065">
        <ele>1245.918</ele>
        <time>2017-11-26T10:07:17Z</time>
      </trkpt>
      <trkpt lat="42.07836" lon="0.65076">
        <ele>1246.922</ele>
        <time>2017-11-26T10:07:27Z</time>
      </trkpt>
      <trkpt lat="42.07829" lon="0.65087">
        <ele>1247.992</ele>
        <time>2017-11-26T10:07:38Z</time>
      </trkpt>
      <trkpt lat="42.07822" lon="0.65096">
        <ele>1249.073</ele>
        <time>2017-11-26T10:07:49Z</time>
      </trkpt>
      <trkpt lat="42.07813" lon="0.65104">
        <ele>1250.52</ele>
        <time>2017-11-26T10:07:59Z</time>
      </trkpt>
      <trkpt lat="42.07807" lon="0.65113">
        <ele>1251.308</ele>
        <time>2017-11-26T10:08:12Z</time>
      </trkpt>
      <trkpt lat="42.07801" lon="0.65124">
        <ele>1251.921</ele>
        <time>2017-11-26T10:08:25Z</time>
      </trkpt>
      <trkpt lat="42.07794" lon="0.65135">
        <ele>1252.62</ele>
        <time>2017-11-26T10:08:34Z</time>
      </trkpt>
      <trkpt lat="42.07789" lon="0.65145">
        <ele>1253.761</ele>
        <time>2017-11-26T10:08:50Z</time>
      </trkpt>
      <trkpt lat="42.07785" lon="0.65157">
        <ele>1254.533</ele>
        <time>2017-11-26T10:08:58Z</time>
      </trkpt>
      <trkpt lat="42.07783" lon="0.6517">
        <ele>1255.236</ele>
        <time>2017-11-26T10:09:08Z</time>
      </trkpt>
      <trkpt lat="42.07784" lon="0.65181">
        <ele>1256.617</ele>
        <time>2017-11-26T10:09:18Z</time>
      </trkpt>
      <trkpt lat="42.07787" lon="0.65193">
        <ele>1257.874</ele>
        <time>2017-11-26T10:09:27Z</time>
      </trkpt>
      <trkpt lat="42.07789" lon="0.65204">
        <ele>1258.628</ele>
        <time>2017-11-26T10:09:39Z</time>
      </trkpt>
      <trkpt lat="42.07792" lon="0.65215">
        <ele>1259.274</ele>
        <time>2017-11-26T10:09:49Z</time>
      </trkpt>
      <trkpt lat="42.07796" lon="0.65227">
        <ele>1259.556</ele>
        <time>2017-11-26T10:10:00Z</time>
      </trkpt>
      <trkpt lat="42.07799" lon="0.65239">
        <ele>1260.021</ele>
        <time>2017-11-26T10:10:09Z</time>
      </trkpt>
      <trkpt lat="42.07802" lon="0.65251">
        <ele>1260.708</ele>
        <time>2017-11-26T10:10:18Z</time>
      </trkpt>
      <trkpt lat="42.07804" lon="0.65263">
        <ele>1260.959</ele>
        <time>2017-11-26T10:10:27Z</time>
      </trkpt>
      <trkpt lat="42.07805" lon="0.65276">
        <ele>1261.158</ele>
        <time>2017-11-26T10:10:36Z</time>
      </trkpt>
      <trkpt lat="42.07806" lon="0.65289">
        <ele>1261.359</ele>
        <time>2017-11-26T10:10:45Z</time>
      </trkpt>
      <trkpt lat="42.07808" lon="0.65301">
        <ele>1261.491</ele>
        <time>2017-11-26T10:10:54Z</time>
      </trkpt>
      <trkpt lat="42.0781" lon="0.65314">
        <ele>1261.264</ele>
        <time>2017-11-26T10:11:03Z</time>
      </trkpt>
      <trkpt lat="42.07812" lon="0.65328">
        <ele>1261.045</ele>
        <time>2017-11-26T10:11:12Z</time>
      </trkpt>
      <trkpt lat="42.07814" lon="0.6534">
        <ele>1260.632</ele>
        <time>2017-11-26T10:11:19Z</time>
      </trkpt>
      <trkpt lat="42.07815" lon="0.65353">
        <ele>1260.356</ele>
        <time>2017-11-26T10:11:27Z</time>
      </trkpt>
      <trkpt lat="42.07816" lon="0.65366">
        <ele>1260.185</ele>
        <time>2017-11-26T10:11:35Z</time>
      </trkpt>
      <trkpt lat="42.07817" lon="0.65379">
        <ele>1260.089</ele>
        <time>2017-11-26T10:11:43Z</time>
      </trkpt>
      <trkpt lat="42.07818" lon="0.65392">
        <ele>1259.817</ele>
        <time>2017-11-26T10:11:51Z</time>
      </trkpt>
      <trkpt lat="42.07821" lon="0.65405">
        <ele>1259.508</ele>
        <time>2017-11-26T10:11:59Z</time>
      </trkpt>
      <trkpt lat="42.07821" lon="0.65418">
        <ele>1259.69</ele>
        <time>2017-11-26T10:12:07Z</time>
      </trkpt>
      <trkpt lat="42.07821" lon="0.6543">
        <ele>1260.069</ele>
        <time>2017-11-26T10:12:15Z</time>
      </trkpt>
      <trkpt lat="42.0782" lon="0.6544">
        <ele>1260.47</ele>
        <time>2017-11-26T10:12:57Z</time>
      </trkpt>
      <trkpt lat="42.07818" lon="0.65452">
        <ele>1260.622</ele>
        <time>2017-11-26T10:13:06Z</time>
      </trkpt>
      <trkpt lat="42.07816" lon="0.65464">
        <ele>1260.935</ele>
        <time>2017-11-26T10:13:14Z</time>
      </trkpt>
      <trkpt lat="42.07814" lon="0.65476">
        <ele>1261.076</ele>
        <time>2017-11-26T10:13:22Z</time>
      </trkpt>
      <trkpt lat="42.07811" lon="0.65487">
        <ele>1261.273</ele>
        <time>2017-11-26T10:13:30Z</time>
      </trkpt>
      <trkpt lat="42.07807" lon="0.655">
        <ele>1261.617</ele>
        <time>2017-11-26T10:13:39Z</time>
      </trkpt>
      <trkpt lat="42.07803" lon="0.65512">
        <ele>1261.784</ele>
        <time>2017-11-26T10:13:48Z</time>
      </trkpt>
      <trkpt lat="42.07798" lon="0.65526">
        <ele>1261.507</ele>
        <time>2017-11-26T10:13:57Z</time>
      </trkpt>
      <trkpt lat="42.07795" lon="0.65538">
        <ele>1260.917</ele>
        <time>2017-11-26T10:14:06Z</time>
      </trkpt>
      <trkpt lat="42.07791" lon="0.65548">
        <ele>1260.908</ele>
        <time>2017-11-26T10:14:15Z</time>
      </trkpt>
      <trkpt lat="42.07786" lon="0.65559">
        <ele>1260.73</ele>
        <time>2017-11-26T10:14:23Z</time>
      </trkpt>
      <trkpt lat="42.07781" lon="0.65571">
        <ele>1260.219</ele>
        <time>2017-11-26T10:14:32Z</time>
      </trkpt>
      <trkpt lat="42.07773" lon="0.65579">
        <ele>1260.35</ele>
        <time>2017-11-26T10:14:41Z</time>
      </trkpt>
      <trkpt lat="42.07765" lon="0.65593">
        <ele>1259.652</ele>
        <time>2017-11-26T10:15:28Z</time>
      </trkpt>
      <trkpt lat="42.07759" lon="0.65603">
        <ele>1259.515</ele>
        <time>2017-11-26T10:15:40Z</time>
      </trkpt>
      <trkpt lat="42.0775" lon="0.65609">
        <ele>1260.266</ele>
        <time>2017-11-26T10:15:49Z</time>
      </trkpt>
      <trkpt lat="42.07742" lon="0.65613">
        <ele>1260.593</ele>
        <time>2017-11-26T10:15:57Z</time>
      </trkpt>
      <trkpt lat="42.07733" lon="0.65618">
        <ele>1260.827</ele>
        <time>2017-11-26T10:16:05Z</time>
      </trkpt>
      <trkpt lat="42.07724" lon="0.65623">
        <ele>1261.135</ele>
        <time>2017-11-26T10:16:13Z</time>
      </trkpt>
      <trkpt lat="42.07715" lon="0.65626">
        <ele>1261.186</ele>
        <time>2017-11-26T10:16:21Z</time>
      </trkpt>
      <trkpt lat="42.07705" lon="0.65629">
        <ele>1261.014</ele>
        <time>2017-11-26T10:16:29Z</time>
      </trkpt>
      <trkpt lat="42.07696" lon="0.65628">
        <ele>1261.608</ele>
        <time>2017-11-26T10:16:37Z</time>
      </trkpt>
      <trkpt lat="42.07687" lon="0.65623">
        <ele>1261.935</ele>
        <time>2017-11-26T10:16:45Z</time>
      </trkpt>
      <trkpt lat="42.07677" lon="0.65617">
        <ele>1262.654</ele>
        <time>2017-11-26T10:16:55Z</time>
      </trkpt>
      <trkpt lat="42.0767" lon="0.65609">
        <ele>1263.535</ele>
        <time>2017-11-26T10:17:03Z</time>
      </trkpt>
      <trkpt lat="42.07663" lon="0.65602">
        <ele>1264.337</ele>
        <time>2017-11-26T10:17:11Z</time>
      </trkpt>
      <trkpt lat="42.07656" lon="0.65594">
        <ele>1265.04</ele>
        <time>2017-11-26T10:17:20Z</time>
      </trkpt>
      <trkpt lat="42.07649" lon="0.65585">
        <ele>1265.891</ele>
        <time>2017-11-26T10:17:30Z</time>
      </trkpt>
      <trkpt lat="42.07642" lon="0.65576">
        <ele>1266.728</ele>
        <time>2017-11-26T10:17:39Z</time>
      </trkpt>
      <trkpt lat="42.07637" lon="0.65565">
        <ele>1268.072</ele>
        <time>2017-11-26T10:17:53Z</time>
      </trkpt>
      <trkpt lat="42.0763" lon="0.65557">
        <ele>1268.664</ele>
        <time>2017-11-26T10:18:03Z</time>
      </trkpt>
      <trkpt lat="42.07623" lon="0.65547">
        <ele>1269.006</ele>
        <time>2017-11-26T10:18:13Z</time>
      </trkpt>
      <trkpt lat="42.07617" lon="0.65538">
        <ele>1269.816</ele>
        <time>2017-11-26T10:18:22Z</time>
      </trkpt>
      <trkpt lat="42.0761" lon="0.65528">
        <ele>1270.708</ele>
        <time>2017-11-26T10:18:32Z</time>
      </trkpt>
      <trkpt lat="42.07604" lon="0.6552">
        <ele>1271.498</ele>
        <time>2017-11-26T10:18:41Z</time>
      </trkpt>
      <trkpt lat="42.07597" lon="0.65511">
        <ele>1272.387</ele>
        <time>2017-11-26T10:18:51Z</time>
      </trkpt>
      <trkpt lat="42.0759" lon="0.65503">
        <ele>1273.018</ele>
        <time>2017-11-26T10:19:00Z</time>
      </trkpt>
      <trkpt lat="42.07581" lon="0.65497">
        <ele>1273.86</ele>
        <time>2017-11-26T10:19:10Z</time>
      </trkpt>
      <trkpt lat="42.07571" lon="0.65493">
        <ele>1275.233</ele>
        <time>2017-11-26T10:19:19Z</time>
      </trkpt>
      <trkpt lat="42.07558" lon="0.65495">
        <ele>1275.734</ele>
        <time>2017-11-26T10:19:33Z</time>
      </trkpt>
      <trkpt lat="42.07547" lon="0.65499">
        <ele>1277.391</ele>
        <time>2017-11-26T10:19:44Z</time>
      </trkpt>
      <trkpt lat="42.07538" lon="0.65505">
        <ele>1278.655</ele>
        <time>2017-11-26T10:19:54Z</time>
      </trkpt>
      <trkpt lat="42.0753" lon="0.65514">
        <ele>1279.559</ele>
        <time>2017-11-26T10:20:06Z</time>
      </trkpt>
      <trkpt lat="42.07521" lon="0.65521">
        <ele>1280.503</ele>
        <time>2017-11-26T10:20:17Z</time>
      </trkpt>
      <trkpt lat="42.07512" lon="0.65528">
        <ele>1281.323</ele>
        <time>2017-11-26T10:20:28Z</time>
      </trkpt>
      <trkpt lat="42.07506" lon="0.65539">
        <ele>1281.108</ele>
        <time>2017-11-26T10:20:38Z</time>
      </trkpt>
      <trkpt lat="42.07499" lon="0.65548">
        <ele>1281.447</ele>
        <time>2017-11-26T10:20:48Z</time>
      </trkpt>
      <trkpt lat="42.0749" lon="0.65556">
        <ele>1282.166</ele>
        <time>2017-11-26T10:20:58Z</time>
      </trkpt>
      <trkpt lat="42.07482" lon="0.65565">
        <ele>1282.327</ele>
        <time>2017-11-26T10:21:08Z</time>
      </trkpt>
      <trkpt lat="42.07473" lon="0.65575">
        <ele>1282.379</ele>
        <time>2017-11-26T10:21:17Z</time>
      </trkpt>
      <trkpt lat="42.07466" lon="0.65585">
        <ele>1282.132</ele>
        <time>2017-11-26T10:21:26Z</time>
      </trkpt>
      <trkpt lat="42.07461" lon="0.656">
        <ele>1281.333</ele>
        <time>2017-11-26T10:21:35Z</time>
      </trkpt>
      <trkpt lat="42.07453" lon="0.65602">
        <ele>1283.02</ele>
        <time>2017-11-26T10:22:25Z</time>
      </trkpt>
      <trkpt lat="42.07444" lon="0.65607">
        <ele>1284.724</ele>
        <time>2017-11-26T10:22:38Z</time>
      </trkpt>
      <trkpt lat="42.07435" lon="0.65607">
        <ele>1287.357</ele>
        <time>2017-11-26T10:22:53Z</time>
      </trkpt>
      <trkpt lat="42.07426" lon="0.65606">
        <ele>1290.1</ele>
        <time>2017-11-26T10:23:08Z</time>
      </trkpt>
      <trkpt lat="42.07417" lon="0.65604">
        <ele>1292.72</ele>
        <time>2017-11-26T10:23:26Z</time>
      </trkpt>
      <trkpt lat="42.07412" lon="0.65613">
        <ele>1292.608</ele>
        <time>2017-11-26T10:23:50Z</time>
      </trkpt>
      <trkpt lat="42.07407" lon="0.65623">
        <ele>1293.097</ele>
        <time>2017-11-26T10:24:00Z</time>
      </trkpt>
      <trkpt lat="42.07403" lon="0.65634">
        <ele>1294.946</ele>
        <time>2017-11-26T10:24:10Z</time>
      </trkpt>
      <trkpt lat="42.07398" lon="0.65646">
        <ele>1297.157</ele>
        <time>2017-11-26T10:24:20Z</time>
      </trkpt>
      <trkpt lat="42.07393" lon="0.65656">
        <ele>1299.689</ele>
        <time>2017-11-26T10:24:32Z</time>
      </trkpt>
      <trkpt lat="42.07385" lon="0.65667">
        <ele>1302.332</ele>
        <time>2017-11-26T10:24:44Z</time>
      </trkpt>
      <trkpt lat="42.0738" lon="0.65677">
        <ele>1303.643</ele>
        <time>2017-11-26T10:24:56Z</time>
      </trkpt>
      <trkpt lat="42.07376" lon="0.65689">
        <ele>1305.95</ele>
        <time>2017-11-26T10:25:10Z</time>
      </trkpt>
      <trkpt lat="42.07372" lon="0.65701">
        <ele>1308.614</ele>
        <time>2017-11-26T10:25:34Z</time>
      </trkpt>
      <trkpt lat="42.07371" lon="0.65716">
        <ele>1309.697</ele>
        <time>2017-11-26T10:25:47Z</time>
      </trkpt>
      <trkpt lat="42.07371" lon="0.6573">
        <ele>1310.223</ele>
        <time>2017-11-26T10:25:57Z</time>
      </trkpt>
      <trkpt lat="42.0737" lon="0.65744">
        <ele>1311.225</ele>
        <time>2017-11-26T10:26:09Z</time>
      </trkpt>
      <trkpt lat="42.07369" lon="0.65757">
        <ele>1312.108</ele>
        <time>2017-11-26T10:26:20Z</time>
      </trkpt>
      <trkpt lat="42.07369" lon="0.6577">
        <ele>1313.161</ele>
        <time>2017-11-26T10:26:30Z</time>
      </trkpt>
      <trkpt lat="42.0737" lon="0.65783">
        <ele>1313.53</ele>
        <time>2017-11-26T10:26:39Z</time>
      </trkpt>
      <trkpt lat="42.07371" lon="0.65796">
        <ele>1314.041</ele>
        <time>2017-11-26T10:26:48Z</time>
      </trkpt>
      <trkpt lat="42.07368" lon="0.65807">
        <ele>1315.973</ele>
        <time>2017-11-26T10:27:00Z</time>
      </trkpt>
      <trkpt lat="42.07363" lon="0.65818">
        <ele>1318.026</ele>
        <time>2017-11-26T10:27:12Z</time>
      </trkpt>
      <trkpt lat="42.07363" lon="0.65832">
        <ele>1318.557</ele>
        <time>2017-11-26T10:27:29Z</time>
      </trkpt>
      <trkpt lat="42.07354" lon="0.65839">
        <ele>1319.074</ele>
        <time>2017-11-26T10:27:43Z</time>
      </trkpt>
      <trkpt lat="42.07345" lon="0.65847">
        <ele>1320.288</ele>
        <time>2017-11-26T10:27:56Z</time>
      </trkpt>
      <trkpt lat="42.07338" lon="0.65856">
        <ele>1322.994</ele>
        <time>2017-11-26T10:28:08Z</time>
      </trkpt>
      <trkpt lat="42.07331" lon="0.65864">
        <ele>1316.657</ele>
        <time>2017-11-26T10:28:20Z</time>
      </trkpt>
      <trkpt lat="42.07327" lon="0.65869">
        <ele>1298.922</ele>
        <time>2017-11-26T10:28:44Z</time>
      </trkpt>
      <trkpt lat="42.07325" lon="0.65873">
        <ele>1292.408</ele>
        <time>2017-11-26T10:29:06Z</time>
      </trkpt>
      <trkpt lat="42.07326" lon="0.65874">
        <ele>1298.751</ele>
        <time>2017-11-26T10:30:49Z</time>
      </trkpt>
      <trkpt lat="42.07329" lon="0.65879">
        <ele>1307.94</ele>
        <time>2017-11-26T10:36:31Z</time>
      </trkpt>
      <trkpt lat="42.07327" lon="0.6588">
        <ele>1301.751</ele>
        <time>2017-11-26T10:39:37Z</time>
      </trkpt>
      <trkpt lat="42.07321" lon="0.6589">
        <ele>1279.613</ele>
        <time>2017-11-26T10:40:10Z</time>
      </trkpt>
      <trkpt lat="42.07319" lon="0.65899">
        <ele>1270.626</ele>
        <time>2017-11-26T10:41:03Z</time>
      </trkpt>
      <trkpt lat="42.07318" lon="0.6591">
        <ele>1267.717</ele>
        <time>2017-11-26T10:41:43Z</time>
      </trkpt>
      <trkpt lat="42.07322" lon="0.659">
        <ele>1283.334</ele>
        <time>2017-11-26T10:41:57Z</time>
      </trkpt>
      <trkpt lat="42.07325" lon="0.65888">
        <ele>1296.278</ele>
        <time>2017-11-26T10:42:10Z</time>
      </trkpt>
      <trkpt lat="42.07326" lon="0.65876">
        <ele>1298.262</ele>
        <time>2017-11-26T10:43:10Z</time>
      </trkpt>
      <trkpt lat="42.07325" lon="0.65884">
        <ele>1297.083</ele>
        <time>2017-11-26T10:44:21Z</time>
      </trkpt>
      <trkpt lat="42.07331" lon="0.65878">
        <ele>1316.011</ele>
        <time>2017-11-26T10:48:12Z</time>
      </trkpt>
      <trkpt lat="42.07333" lon="0.65874">
        <ele>1323.408</ele>
        <time>2017-11-26T10:50:18Z</time>
      </trkpt>
      <trkpt lat="42.07339" lon="0.65866">
        <ele>1324.728</ele>
        <time>2017-11-26T10:50:33Z</time>
      </trkpt>
      <trkpt lat="42.07347" lon="0.65858">
        <ele>1322.597</ele>
        <time>2017-11-26T10:50:47Z</time>
      </trkpt>
      <trkpt lat="42.07352" lon="0.6585">
        <ele>1320.538</ele>
        <time>2017-11-26T10:51:03Z</time>
      </trkpt>
      <trkpt lat="42.0736" lon="0.65841">
        <ele>1319.55</ele>
        <time>2017-11-26T10:51:20Z</time>
      </trkpt>
      <trkpt lat="42.07363" lon="0.6583">
        <ele>1318.273</ele>
        <time>2017-11-26T10:51:35Z</time>
      </trkpt>
      <trkpt lat="42.07364" lon="0.65819">
        <ele>1317.534</ele>
        <time>2017-11-26T10:51:49Z</time>
      </trkpt>
      <trkpt lat="42.07371" lon="0.65809">
        <ele>1315.021</ele>
        <time>2017-11-26T10:52:03Z</time>
      </trkpt>
      <trkpt lat="42.07371" lon="0.65796">
        <ele>1314.165</ele>
        <time>2017-11-26T10:52:13Z</time>
      </trkpt>
      <trkpt lat="42.07371" lon="0.65783">
        <ele>1313.053</ele>
        <time>2017-11-26T10:52:23Z</time>
      </trkpt>
      <trkpt lat="42.07371" lon="0.6577">
        <ele>1312.404</ele>
        <time>2017-11-26T10:52:39Z</time>
      </trkpt>
      <trkpt lat="42.0737" lon="0.65756">
        <ele>1311.814</ele>
        <time>2017-11-26T10:52:48Z</time>
      </trkpt>
      <trkpt lat="42.07374" lon="0.65743">
        <ele>1309.908</ele>
        <time>2017-11-26T10:52:58Z</time>
      </trkpt>
      <trkpt lat="42.07376" lon="0.65732">
        <ele>1308.747</ele>
        <time>2017-11-26T10:53:15Z</time>
      </trkpt>
      <trkpt lat="42.07376" lon="0.6572">
        <ele>1308.126</ele>
        <time>2017-11-26T10:53:24Z</time>
      </trkpt>
      <trkpt lat="42.07376" lon="0.65707">
        <ele>1307.277</ele>
        <time>2017-11-26T10:53:35Z</time>
      </trkpt>
      <trkpt lat="42.07379" lon="0.65694">
        <ele>1305.459</ele>
        <time>2017-11-26T10:53:46Z</time>
      </trkpt>
      <trkpt lat="42.07381" lon="0.65683">
        <ele>1303.822</ele>
        <time>2017-11-26T10:54:05Z</time>
      </trkpt>
      <trkpt lat="42.07387" lon="0.65673">
        <ele>1302.283</ele>
        <time>2017-11-26T10:54:19Z</time>
      </trkpt>
      <trkpt lat="42.07393" lon="0.65662">
        <ele>1299.99</ele>
        <time>2017-11-26T10:54:33Z</time>
      </trkpt>
      <trkpt lat="42.07398" lon="0.65651">
        <ele>1297.554</ele>
        <time>2017-11-26T10:54:49Z</time>
      </trkpt>
      <trkpt lat="42.07402" lon="0.65641">
        <ele>1295.748</ele>
        <time>2017-11-26T10:54:58Z</time>
      </trkpt>
      <trkpt lat="42.07406" lon="0.65631">
        <ele>1293.961</ele>
        <time>2017-11-26T10:55:07Z</time>
      </trkpt>
      <trkpt lat="42.0741" lon="0.6562">
        <ele>1292.717</ele>
        <time>2017-11-26T10:55:17Z</time>
      </trkpt>
      <trkpt lat="42.07414" lon="0.6561">
        <ele>1292.708</ele>
        <time>2017-11-26T10:55:27Z</time>
      </trkpt>
      <trkpt lat="42.07416" lon="0.65598">
        <ele>1292.346</ele>
        <time>2017-11-26T10:55:38Z</time>
      </trkpt>
      <trkpt lat="42.07421" lon="0.65587">
        <ele>1291.385</ele>
        <time>2017-11-26T10:55:47Z</time>
      </trkpt>
      <trkpt lat="42.07423" lon="0.65576">
        <ele>1290.746</ele>
        <time>2017-11-26T10:55:57Z</time>
      </trkpt>
      <trkpt lat="42.07423" lon="0.65563">
        <ele>1290.678</ele>
        <time>2017-11-26T10:56:11Z</time>
      </trkpt>
      <trkpt lat="42.07424" lon="0.6555">
        <ele>1291.991</ele>
        <time>2017-11-26T10:56:22Z</time>
      </trkpt>
      <trkpt lat="42.07427" lon="0.65539">
        <ele>1294.962</ele>
        <time>2017-11-26T10:56:33Z</time>
      </trkpt>
      <trkpt lat="42.07428" lon="0.65526">
        <ele>1298.029</ele>
        <time>2017-11-26T10:56:50Z</time>
      </trkpt>
      <trkpt lat="42.07431" lon="0.65514">
        <ele>1299.583</ele>
        <time>2017-11-26T10:57:00Z</time>
      </trkpt>
      <trkpt lat="42.07435" lon="0.65503">
        <ele>1300.764</ele>
        <time>2017-11-26T10:57:09Z</time>
      </trkpt>
      <trkpt lat="42.0744" lon="0.65492">
        <ele>1300.506</ele>
        <time>2017-11-26T10:57:19Z</time>
      </trkpt>
      <trkpt lat="42.07444" lon="0.6548">
        <ele>1302.816</ele>
        <time>2017-11-26T10:57:29Z</time>
      </trkpt>
      <trkpt lat="42.07449" lon="0.6547">
        <ele>1302.208</ele>
        <time>2017-11-26T10:57:39Z</time>
      </trkpt>
      <trkpt lat="42.07455" lon="0.6546">
        <ele>1299.738</ele>
        <time>2017-11-26T10:57:51Z</time>
      </trkpt>
      <trkpt lat="42.0746" lon="0.65451">
        <ele>1299.217</ele>
        <time>2017-11-26T10:58:00Z</time>
      </trkpt>
      <trkpt lat="42.07466" lon="0.65441">
        <ele>1299.928</ele>
        <time>2017-11-26T10:58:09Z</time>
      </trkpt>
      <trkpt lat="42.07472" lon="0.65431">
        <ele>1302.74</ele>
        <time>2017-11-26T10:58:19Z</time>
      </trkpt>
      <trkpt lat="42.0748" lon="0.65424">
        <ele>1302.293</ele>
        <time>2017-11-26T10:58:29Z</time>
      </trkpt>
      <trkpt lat="42.07488" lon="0.65418">
        <ele>1301.664</ele>
        <time>2017-11-26T10:58:44Z</time>
      </trkpt>
      <trkpt lat="42.07494" lon="0.65409">
        <ele>1301.021</ele>
        <time>2017-11-26T10:58:53Z</time>
      </trkpt>
      <trkpt lat="42.07501" lon="0.65398">
        <ele>1302.695</ele>
        <time>2017-11-26T10:59:02Z</time>
      </trkpt>
      <trkpt lat="42.07505" lon="0.65388">
        <ele>1303.442</ele>
        <time>2017-11-26T10:59:13Z</time>
      </trkpt>
      <trkpt lat="42.07507" lon="0.65374">
        <ele>1305.122</ele>
        <time>2017-11-26T10:59:25Z</time>
      </trkpt>
      <trkpt lat="42.07509" lon="0.65363">
        <ele>1306.414</ele>
        <time>2017-11-26T10:59:52Z</time>
      </trkpt>
      <trkpt lat="42.07515" lon="0.65354">
        <ele>1305.908</ele>
        <time>2017-11-26T11:00:04Z</time>
      </trkpt>
      <trkpt lat="42.0752" lon="0.65342">
        <ele>1306.356</ele>
        <time>2017-11-26T11:00:16Z</time>
      </trkpt>
      <trkpt lat="42.07523" lon="0.65332">
        <ele>1307.235</ele>
        <time>2017-11-26T11:00:30Z</time>
      </trkpt>
      <trkpt lat="42.07526" lon="0.6532">
        <ele>1308.226</ele>
        <time>2017-11-26T11:00:46Z</time>
      </trkpt>
      <trkpt lat="42.07531" lon="0.65308">
        <ele>1309.518</ele>
        <time>2017-11-26T11:00:57Z</time>
      </trkpt>
      <trkpt lat="42.07535" lon="0.65295">
        <ele>1309.561</ele>
        <time>2017-11-26T11:01:07Z</time>
      </trkpt>
      <trkpt lat="42.07539" lon="0.65283">
        <ele>1309.422</ele>
        <time>2017-11-26T11:01:16Z</time>
      </trkpt>
      <trkpt lat="42.07544" lon="0.65272">
        <ele>1308.899</ele>
        <time>2017-11-26T11:01:25Z</time>
      </trkpt>
      <trkpt lat="42.07547" lon="0.6526">
        <ele>1307.713</ele>
        <time>2017-11-26T11:01:39Z</time>
      </trkpt>
      <trkpt lat="42.07553" lon="0.6525">
        <ele>1308.483</ele>
        <time>2017-11-26T11:01:49Z</time>
      </trkpt>
      <trkpt lat="42.07561" lon="0.65241">
        <ele>1308.125</ele>
        <time>2017-11-26T11:01:59Z</time>
      </trkpt>
      <trkpt lat="42.07568" lon="0.65233">
        <ele>1306.817</ele>
        <time>2017-11-26T11:02:09Z</time>
      </trkpt>
      <trkpt lat="42.07574" lon="0.65224">
        <ele>1305.708</ele>
        <time>2017-11-26T11:02:19Z</time>
      </trkpt>
      <trkpt lat="42.07581" lon="0.65215">
        <ele>1303.51</ele>
        <time>2017-11-26T11:02:29Z</time>
      </trkpt>
      <trkpt lat="42.07587" lon="0.65204">
        <ele>1302.199</ele>
        <time>2017-11-26T11:02:40Z</time>
      </trkpt>
      <trkpt lat="42.07593" lon="0.65195">
        <ele>1300.72</ele>
        <time>2017-11-26T11:02:55Z</time>
      </trkpt>
      <trkpt lat="42.07602" lon="0.6519">
        <ele>1298.612</ele>
        <time>2017-11-26T11:03:05Z</time>
      </trkpt>
      <trkpt lat="42.0761" lon="0.65181">
        <ele>1297.985</ele>
        <time>2017-11-26T11:03:15Z</time>
      </trkpt>
      <trkpt lat="42.07615" lon="0.6517">
        <ele>1297.396</ele>
        <time>2017-11-26T11:03:24Z</time>
      </trkpt>
      <trkpt lat="42.07618" lon="0.65156">
        <ele>1296.173</ele>
        <time>2017-11-26T11:03:35Z</time>
      </trkpt>
      <trkpt lat="42.07624" lon="0.65145">
        <ele>1294.927</ele>
        <time>2017-11-26T11:03:45Z</time>
      </trkpt>
      <trkpt lat="42.07631" lon="0.65134">
        <ele>1293.472</ele>
        <time>2017-11-26T11:03:55Z</time>
      </trkpt>
      <trkpt lat="42.07638" lon="0.65126">
        <ele>1293.013</ele>
        <time>2017-11-26T11:04:05Z</time>
      </trkpt>
      <trkpt lat="42.07646" lon="0.65117">
        <ele>1291.714</ele>
        <time>2017-11-26T11:04:16Z</time>
      </trkpt>
      <trkpt lat="42.0765" lon="0.65104">
        <ele>1290.608</ele>
        <time>2017-11-26T11:04:26Z</time>
      </trkpt>
      <trkpt lat="42.07651" lon="0.6509">
        <ele>1289.919</ele>
        <time>2017-11-26T11:04:35Z</time>
      </trkpt>
      <trkpt lat="42.07653" lon="0.65077">
        <ele>1289.598</ele>
        <time>2017-11-26T11:04:46Z</time>
      </trkpt>
      <trkpt lat="42.07657" lon="0.65065">
        <ele>1289.539</ele>
        <time>2017-11-26T11:04:56Z</time>
      </trkpt>
      <trkpt lat="42.07661" lon="0.65054">
        <ele>1289.781</ele>
        <time>2017-11-26T11:05:09Z</time>
      </trkpt>
      <trkpt lat="42.07661" lon="0.65037">
        <ele>1289.184</ele>
        <time>2017-11-26T11:05:21Z</time>
      </trkpt>
      <trkpt lat="42.07662" lon="0.65025">
        <ele>1288.765</ele>
        <time>2017-11-26T11:05:39Z</time>
      </trkpt>
      <trkpt lat="42.07664" lon="0.65014">
        <ele>1290.432</ele>
        <time>2017-11-26T11:05:50Z</time>
      </trkpt>
      <trkpt lat="42.07669" lon="0.65003">
        <ele>1293.496</ele>
        <time>2017-11-26T11:06:01Z</time>
      </trkpt>
      <trkpt lat="42.07673" lon="0.64992">
        <ele>1291.476</ele>
        <time>2017-11-26T11:06:10Z</time>
      </trkpt>
      <trkpt lat="42.07678" lon="0.64982">
        <ele>1289.69</ele>
        <time>2017-11-26T11:06:19Z</time>
      </trkpt>
      <trkpt lat="42.07683" lon="0.64971">
        <ele>1288.319</ele>
        <time>2017-11-26T11:06:28Z</time>
      </trkpt>
      <trkpt lat="42.07687" lon="0.6496">
        <ele>1285.008</ele>
        <time>2017-11-26T11:06:38Z</time>
      </trkpt>
      <trkpt lat="42.07693" lon="0.64951">
        <ele>1286.549</ele>
        <time>2017-11-26T11:06:48Z</time>
      </trkpt>
      <trkpt lat="42.077" lon="0.64942">
        <ele>1285.618</ele>
        <time>2017-11-26T11:06:59Z</time>
      </trkpt>
      <trkpt lat="42.07707" lon="0.64933">
        <ele>1283.259</ele>
        <time>2017-11-26T11:07:10Z</time>
      </trkpt>
      <trkpt lat="42.07713" lon="0.64922">
        <ele>1282.231</ele>
        <time>2017-11-26T11:07:20Z</time>
      </trkpt>
      <trkpt lat="42.07718" lon="0.6491">
        <ele>1282.664</ele>
        <time>2017-11-26T11:07:30Z</time>
      </trkpt>
      <trkpt lat="42.07724" lon="0.64899">
        <ele>1283.695</ele>
        <time>2017-11-26T11:07:40Z</time>
      </trkpt>
      <trkpt lat="42.0773" lon="0.64889">
        <ele>1282.292</ele>
        <time>2017-11-26T11:07:48Z</time>
      </trkpt>
      <trkpt lat="42.07736" lon="0.64878">
        <ele>1278.366</ele>
        <time>2017-11-26T11:07:57Z</time>
      </trkpt>
      <trkpt lat="42.07742" lon="0.64868">
        <ele>1277.031</ele>
        <time>2017-11-26T11:08:07Z</time>
      </trkpt>
      <trkpt lat="42.07749" lon="0.64858">
        <ele>1278.461</ele>
        <time>2017-11-26T11:08:16Z</time>
      </trkpt>
      <trkpt lat="42.07756" lon="0.6485">
        <ele>1276.807</ele>
        <time>2017-11-26T11:08:25Z</time>
      </trkpt>
      <trkpt lat="42.07762" lon="0.64839">
        <ele>1275.008</ele>
        <time>2017-11-26T11:08:34Z</time>
      </trkpt>
      <trkpt lat="42.07768" lon="0.64831">
        <ele>1273.265</ele>
        <time>2017-11-26T11:08:45Z</time>
      </trkpt>
      <trkpt lat="42.07774" lon="0.64824">
        <ele>1271.864</ele>
        <time>2017-11-26T11:09:01Z</time>
      </trkpt>
      <trkpt lat="42.07782" lon="0.64816">
        <ele>1271.185</ele>
        <time>2017-11-26T11:09:11Z</time>
      </trkpt>
      <trkpt lat="42.07788" lon="0.64805">
        <ele>1269.317</ele>
        <time>2017-11-26T11:09:22Z</time>
      </trkpt>
      <trkpt lat="42.07794" lon="0.64794">
        <ele>1266.52</ele>
        <time>2017-11-26T11:09:32Z</time>
      </trkpt>
      <trkpt lat="42.07799" lon="0.64782">
        <ele>1265.071</ele>
        <time>2017-11-26T11:09:43Z</time>
      </trkpt>
      <trkpt lat="42.07807" lon="0.64772">
        <ele>1264.088</ele>
        <time>2017-11-26T11:09:53Z</time>
      </trkpt>
      <trkpt lat="42.07814" lon="0.64762">
        <ele>1261.692</ele>
        <time>2017-11-26T11:10:05Z</time>
      </trkpt>
      <trkpt lat="42.0782" lon="0.64753">
        <ele>1259.681</ele>
        <time>2017-11-26T11:10:14Z</time>
      </trkpt>
      <trkpt lat="42.07826" lon="0.64743">
        <ele>1257.261</ele>
        <time>2017-11-26T11:10:24Z</time>
      </trkpt>
      <trkpt lat="42.07832" lon="0.64733">
        <ele>1255.217</ele>
        <time>2017-11-26T11:10:34Z</time>
      </trkpt>
      <trkpt lat="42.07838" lon="0.64725">
        <ele>1253.608</ele>
        <time>2017-11-26T11:10:44Z</time>
      </trkpt>
      <trkpt lat="42.07847" lon="0.64721">
        <ele>1251.69</ele>
        <time>2017-11-26T11:10:55Z</time>
      </trkpt>
      <trkpt lat="42.07856" lon="0.64715">
        <ele>1249.659</ele>
        <time>2017-11-26T11:11:04Z</time>
      </trkpt>
      <trkpt lat="42.07864" lon="0.64709">
        <ele>1248.54</ele>
        <time>2017-11-26T11:11:12Z</time>
      </trkpt>
      <trkpt lat="42.07871" lon="0.64699">
        <ele>1247.722</ele>
        <time>2017-11-26T11:11:23Z</time>
      </trkpt>
      <trkpt lat="42.07876" lon="0.64689">
        <ele>1246.975</ele>
        <time>2017-11-26T11:11:36Z</time>
      </trkpt>
      <trkpt lat="42.07879" lon="0.64677">
        <ele>1246.036</ele>
        <time>2017-11-26T11:11:48Z</time>
      </trkpt>
      <trkpt lat="42.07885" lon="0.64667">
        <ele>1246.233</ele>
        <time>2017-11-26T11:11:58Z</time>
      </trkpt>
      <trkpt lat="42.07889" lon="0.64656">
        <ele>1246.327</ele>
        <time>2017-11-26T11:12:07Z</time>
      </trkpt>
      <trkpt lat="42.07894" lon="0.64645">
        <ele>1245.664</ele>
        <time>2017-11-26T11:12:16Z</time>
      </trkpt>
      <trkpt lat="42.07893" lon="0.64632">
        <ele>1245.006</ele>
        <time>2017-11-26T11:12:24Z</time>
      </trkpt>
      <trkpt lat="42.07896" lon="0.6462">
        <ele>1244.716</ele>
        <time>2017-11-26T11:12:34Z</time>
      </trkpt>
      <trkpt lat="42.079" lon="0.64608">
        <ele>1245.008</ele>
        <time>2017-11-26T11:12:44Z</time>
      </trkpt>
      <trkpt lat="42.07905" lon="0.64596">
        <ele>1245.878</ele>
        <time>2017-11-26T11:12:52Z</time>
      </trkpt>
      <trkpt lat="42.07909" lon="0.64586">
        <ele>1247.217</ele>
        <time>2017-11-26T11:13:01Z</time>
      </trkpt>
      <trkpt lat="42.07913" lon="0.64575">
        <ele>1248.768</ele>
        <time>2017-11-26T11:13:10Z</time>
      </trkpt>
      <trkpt lat="42.07919" lon="0.64564">
        <ele>1249.73</ele>
        <time>2017-11-26T11:13:19Z</time>
      </trkpt>
      <trkpt lat="42.07924" lon="0.64554">
        <ele>1249.163</ele>
        <time>2017-11-26T11:13:28Z</time>
      </trkpt>
      <trkpt lat="42.07929" lon="0.64544">
        <ele>1248.414</ele>
        <time>2017-11-26T11:13:37Z</time>
      </trkpt>
      <trkpt lat="42.07936" lon="0.64533">
        <ele>1247.751</ele>
        <time>2017-11-26T11:13:47Z</time>
      </trkpt>
      <trkpt lat="42.07942" lon="0.64524">
        <ele>1247.395</ele>
        <time>2017-11-26T11:13:55Z</time>
      </trkpt>
      <trkpt lat="42.07949" lon="0.64513">
        <ele>1246.644</ele>
        <time>2017-11-26T11:14:05Z</time>
      </trkpt>
      <trkpt lat="42.07957" lon="0.64505">
        <ele>1245.605</ele>
        <time>2017-11-26T11:14:13Z</time>
      </trkpt>
      <trkpt lat="42.07961" lon="0.64494">
        <ele>1245.015</ele>
        <time>2017-11-26T11:14:21Z</time>
      </trkpt>
      <trkpt lat="42.07967" lon="0.64485">
        <ele>1243.908</ele>
        <time>2017-11-26T11:14:30Z</time>
      </trkpt>
      <trkpt lat="42.07973" lon="0.64476">
        <ele>1242.886</ele>
        <time>2017-11-26T11:14:39Z</time>
      </trkpt>
      <trkpt lat="42.0798" lon="0.64466">
        <ele>1240.885</ele>
        <time>2017-11-26T11:14:49Z</time>
      </trkpt>
      <trkpt lat="42.07986" lon="0.64456">
        <ele>1239.186</ele>
        <time>2017-11-26T11:14:58Z</time>
      </trkpt>
      <trkpt lat="42.07992" lon="0.64447">
        <ele>1237.978</ele>
        <time>2017-11-26T11:15:07Z</time>
      </trkpt>
      <trkpt lat="42.07999" lon="0.64439">
        <ele>1236.591</ele>
        <time>2017-11-26T11:15:17Z</time>
      </trkpt>
      <trkpt lat="42.07999" lon="0.64426">
        <ele>1234.882</ele>
        <time>2017-11-26T11:15:26Z</time>
      </trkpt>
      <trkpt lat="42.08002" lon="0.64416">
        <ele>1233.859</ele>
        <time>2017-11-26T11:15:37Z</time>
      </trkpt>
      <trkpt lat="42.08002" lon="0.64406">
        <ele>1232.883</ele>
        <time>2017-11-26T11:15:53Z</time>
      </trkpt>
      <trkpt lat="42.08005" lon="0.64404">
        <ele>1232.588</ele>
        <time>2014-11-16T11:01:00Z</time>
      </trkpt>
      <trkpt lat="42.08006" lon="0.64402">
        <ele>1232.324</ele>
        <time>2014-11-16T11:00:59Z</time>
      </trkpt>
      <trkpt lat="42.08005" lon="0.64401">
        <ele>1232.226</ele>
        <time>2014-11-16T11:00:57Z</time>
      </trkpt>
      <trkpt lat="42.08003" lon="0.64398">
        <ele>1232.008</ele>
        <time>2014-11-16T11:00:55Z</time>
      </trkpt>
      <trkpt lat="42.08002" lon="0.64396">
        <ele>1231.81</ele>
        <time>2014-11-16T11:00:54Z</time>
      </trkpt>
      <trkpt lat="42.08002" lon="0.64395">
        <ele>1231.779</ele>
        <time>2014-11-16T11:00:53Z</time>
      </trkpt>
      <trkpt lat="42.08001" lon="0.64393">
        <ele>1231.57</ele>
        <time>2014-11-16T11:00:51Z</time>
      </trkpt>
      <trkpt lat="42.08" lon="0.64392">
        <ele>1231.442</ele>
        <time>2014-11-16T11:00:50Z</time>
      </trkpt>
      <trkpt lat="42.07999" lon="0.64391">
        <ele>1231.015</ele>
        <time>2014-11-16T11:00:47Z</time>
      </trkpt>
      <trkpt lat="42.08" lon="0.64393">
        <ele>1231.496</ele>
        <time>2014-11-16T11:00:45Z</time>
      </trkpt>
      <trkpt lat="42.08001" lon="0.64394">
        <ele>1231.693</ele>
        <time>2014-11-16T11:00:44Z</time>
      </trkpt>
      <trkpt lat="42.08001" lon="0.64396">
        <ele>1231.857</ele>
        <time>2014-11-16T11:00:42Z</time>
      </trkpt>
      <trkpt lat="42.08002" lon="0.64397">
        <ele>1231.997</ele>
        <time>2014-11-16T11:00:40Z</time>
      </trkpt>
      <trkpt lat="42.08003" lon="0.64398">
        <ele>1232.023</ele>
        <time>2014-11-16T11:00:39Z</time>
      </trkpt>
      <trkpt lat="42.08004" lon="0.64399">
        <ele>1232.125</ele>
        <time>2014-11-16T11:00:38Z</time>
      </trkpt>
      <trkpt lat="42.08004" lon="0.644">
        <ele>1232.208</ele>
        <time>2014-11-16T11:00:33Z</time>
      </trkpt>
      <trkpt lat="42.08003" lon="0.64399">
        <ele>1232.171</ele>
        <time>2014-11-16T11:00:30Z</time>
      </trkpt>
      <trkpt lat="42.08002" lon="0.64397">
        <ele>1231.94</ele>
        <time>2014-11-16T11:00:28Z</time>
      </trkpt>
      <trkpt lat="42.08001" lon="0.64396">
        <ele>1231.711</ele>
        <time>2014-11-16T11:00:27Z</time>
      </trkpt>
      <trkpt lat="42.07999" lon="0.64395">
        <ele>1231.463</ele>
        <time>2014-11-16T11:00:18Z</time>
      </trkpt>
      <trkpt lat="42.07999" lon="0.64394">
        <ele>1231.116</ele>
        <time>2014-11-16T11:00:17Z</time>
      </trkpt>
      <trkpt lat="42.07998" lon="0.64393">
        <ele>1230.697</ele>
        <time>2014-11-16T11:00:15Z</time>
      </trkpt>
      <trkpt lat="42.07996" lon="0.64393">
        <ele>1230.114</ele>
        <time>2014-11-16T11:00:13Z</time>
      </trkpt>
      <trkpt lat="42.07995" lon="0.64392">
        <ele>1229.618</ele>
        <time>2014-11-16T11:00:12Z</time>
      </trkpt>
      <trkpt lat="42.07993" lon="0.64392">
        <ele>1229.074</ele>
        <time>2014-11-16T11:00:09Z</time>
      </trkpt>
      <trkpt lat="42.07992" lon="0.64393">
        <ele>1228.956</ele>
        <time>2014-11-16T11:00:08Z</time>
      </trkpt>
      <trkpt lat="42.0799" lon="0.64394">
        <ele>1228.421</ele>
        <time>2014-11-16T11:00:07Z</time>
      </trkpt>
      <trkpt lat="42.07988" lon="0.64396">
        <ele>1228.108</ele>
        <time>2014-11-16T11:00:03Z</time>
      </trkpt>
      <trkpt lat="42.07987" lon="0.64397">
        <ele>1227.889</ele>
        <time>2014-11-16T11:00:02Z</time>
      </trkpt>
      <trkpt lat="42.07986" lon="0.64397">
        <ele>1227.358</ele>
        <time>2014-11-16T11:00:01Z</time>
      </trkpt>
      <trkpt lat="42.07983" lon="0.64398">
        <ele>1226.729</ele>
        <time>2014-11-16T10:59:58Z</time>
      </trkpt>
      <trkpt lat="42.07982" lon="0.64397">
        <ele>1226.371</ele>
        <time>2014-11-16T10:59:56Z</time>
      </trkpt>
      <trkpt lat="42.07982" lon="0.64394">
        <ele>1225.844</ele>
        <time>2014-11-16T10:59:55Z</time>
      </trkpt>
      <trkpt lat="42.07982" lon="0.64391">
        <ele>1225.065</ele>
        <time>2014-11-16T10:59:50Z</time>
      </trkpt>
      <trkpt lat="42.07982" lon="0.64389">
        <ele>1224.752</ele>
        <time>2014-11-16T10:59:49Z</time>
      </trkpt>
      <trkpt lat="42.07982" lon="0.64385">
        <ele>1224.146</ele>
        <time>2014-11-16T10:59:47Z</time>
      </trkpt>
      <trkpt lat="42.07982" lon="0.64384">
        <ele>1223.793</ele>
        <time>2014-11-16T10:59:45Z</time>
      </trkpt>
      <trkpt lat="42.07982" lon="0.64383">
        <ele>1223.565</ele>
        <time>2014-11-16T10:59:43Z</time>
      </trkpt>
      <trkpt lat="42.07983" lon="0.64382">
        <ele>1223.821</ele>
        <time>2014-11-16T10:59:40Z</time>
      </trkpt>
      <trkpt lat="42.07982" lon="0.64384">
        <ele>1223.808</ele>
        <time>2014-11-16T10:59:35Z</time>
      </trkpt>
      <trkpt lat="42.07984" lon="0.64385">
        <ele>1224.631</ele>
        <time>2014-11-16T10:59:29Z</time>
      </trkpt>
      <trkpt lat="42.07985" lon="0.64384">
        <ele>1224.84</ele>
        <time>2014-11-16T10:59:25Z</time>
      </trkpt>
      <trkpt lat="42.07985" lon="0.64385">
        <ele>1225.041</ele>
        <time>2014-11-16T10:59:22Z</time>
      </trkpt>
      <trkpt lat="42.07984" lon="0.64385">
        <ele>1224.663</ele>
        <time>2014-11-16T10:59:02Z</time>
      </trkpt>
      <trkpt lat="42.07983" lon="0.64384">
        <ele>1224.036</ele>
        <time>2014-11-16T10:59:00Z</time>
      </trkpt>
      <trkpt lat="42.07983" lon="0.64382">
        <ele>1223.767</ele>
        <time>2014-11-16T10:58:59Z</time>
      </trkpt>
      <trkpt lat="42.07983" lon="0.64379">
        <ele>1223.444</ele>
        <time>2014-11-16T10:58:58Z</time>
      </trkpt>
      <trkpt lat="42.07983" lon="0.64378">
        <ele>1223.318</ele>
        <time>2014-11-16T10:58:57Z</time>
      </trkpt>
      <trkpt lat="42.07984" lon="0.64376">
        <ele>1223.337</ele>
        <time>2014-11-16T10:58:55Z</time>
      </trkpt>
      <trkpt lat="42.07983" lon="0.64375">
        <ele>1222.849</ele>
        <time>2014-11-16T10:58:53Z</time>
      </trkpt>
      <trkpt lat="42.07982" lon="0.64375">
        <ele>1222.413</ele>
        <time>2014-11-16T10:58:51Z</time>
      </trkpt>
      <trkpt lat="42.07981" lon="0.64375">
        <ele>1222.008</ele>
        <time>2014-11-16T10:58:50Z</time>
      </trkpt>
      <trkpt lat="42.07979" lon="0.64375">
        <ele>1221.265</ele>
        <time>2014-11-16T10:58:47Z</time>
      </trkpt>
      <trkpt lat="42.07978" lon="0.64376">
        <ele>1221.064</ele>
        <time>2014-11-16T10:58:46Z</time>
      </trkpt>
      <trkpt lat="42.07976" lon="0.64377">
        <ele>1220.495</ele>
        <time>2014-11-16T10:58:45Z</time>
      </trkpt>
      <trkpt lat="42.07974" lon="0.64378">
        <ele>1219.787</ele>
        <time>2014-11-16T10:58:43Z</time>
      </trkpt>
      <trkpt lat="42.07973" lon="0.64378">
        <ele>1219.34</ele>
        <time>2014-11-16T10:58:41Z</time>
      </trkpt>
      <trkpt lat="42.07972" lon="0.64377">
        <ele>1218.671</ele>
        <time>2014-11-16T10:58:38Z</time>
      </trkpt>
      <trkpt lat="42.0797" lon="0.64376">
        <ele>1217.848</ele>
        <time>2014-11-16T10:58:36Z</time>
      </trkpt>
      <trkpt lat="42.07969" lon="0.64377">
        <ele>1217.262</ele>
        <time>2014-11-16T10:58:33Z</time>
      </trkpt>
      <trkpt lat="42.07968" lon="0.64375">
        <ele>1216.662</ele>
        <time>2014-11-16T10:58:31Z</time>
      </trkpt>
      <trkpt lat="42.07967" lon="0.64375">
        <ele>1216.183</ele>
        <time>2014-11-16T10:58:29Z</time>
      </trkpt>
      <trkpt lat="42.07966" lon="0.64375">
        <ele>1215.511</ele>
        <time>2014-11-16T10:58:28Z</time>
      </trkpt>
      <trkpt lat="42.07965" lon="0.64374">
        <ele>1215.008</ele>
        <time>2014-11-16T10:58:27Z</time>
      </trkpt>
      <trkpt lat="42.07964" lon="0.64374">
        <ele>1214.498</ele>
        <time>2014-11-16T10:58:24Z</time>
      </trkpt>
      <trkpt lat="42.07965" lon="0.64372">
        <ele>1214.487</ele>
        <time>2014-11-16T10:58:23Z</time>
      </trkpt>
      <trkpt lat="42.07965" lon="0.6437">
        <ele>1214.138</ele>
        <time>2014-11-16T10:58:20Z</time>
      </trkpt>
      <trkpt lat="42.07964" lon="0.64371">
        <ele>1213.47</ele>
        <time>2014-11-16T10:58:18Z</time>
      </trkpt>
      <trkpt lat="42.07962" lon="0.64371">
        <ele>1212.783</ele>
        <time>2014-11-16T10:58:17Z</time>
      </trkpt>
      <trkpt lat="42.07961" lon="0.6437">
        <ele>1211.974</ele>
        <time>2014-11-16T10:58:16Z</time>
      </trkpt>
      <trkpt lat="42.07959" lon="0.6437">
        <ele>1211.011</ele>
        <time>2014-11-16T10:58:15Z</time>
      </trkpt>
      <trkpt lat="42.07958" lon="0.64371">
        <ele>1210.645</ele>
        <time>2014-11-16T10:58:13Z</time>
      </trkpt>
      <trkpt lat="42.07957" lon="0.64372">
        <ele>1210.564</ele>
        <time>2014-11-16T10:58:12Z</time>
      </trkpt>
      <trkpt lat="42.07956" lon="0.64373">
        <ele>1210.206</ele>
        <time>2014-11-16T10:58:11Z</time>
      </trkpt>
      <trkpt lat="42.07955" lon="0.64374">
        <ele>1209.816</ele>
        <time>2014-11-16T10:58:10Z</time>
      </trkpt>
      <trkpt lat="42.07953" lon="0.64374">
        <ele>1208.808</ele>
        <time>2014-11-16T10:58:08Z</time>
      </trkpt>
      <trkpt lat="42.07952" lon="0.64374">
        <ele>1208.188</ele>
        <time>2014-11-16T10:58:06Z</time>
      </trkpt>
      <trkpt lat="42.0795" lon="0.64374">
        <ele>1207.727</ele>
        <time>2014-11-16T10:58:05Z</time>
      </trkpt>
      <trkpt lat="42.07949" lon="0.64375">
        <ele>1207.218</ele>
        <time>2014-11-16T10:58:03Z</time>
      </trkpt>
      <trkpt lat="42.07948" lon="0.64375">
        <ele>1206.85</ele>
        <time>2014-11-16T10:58:02Z</time>
      </trkpt>
      <trkpt lat="42.07946" lon="0.64375">
        <ele>1205.833</ele>
        <time>2014-11-16T10:58:00Z</time>
      </trkpt>
      <trkpt lat="42.07945" lon="0.64375">
        <ele>1205.294</ele>
        <time>2014-11-16T10:57:59Z</time>
      </trkpt>
      <trkpt lat="42.07943" lon="0.64376">
        <ele>1204.371</ele>
        <time>2014-11-16T10:57:58Z</time>
      </trkpt>
      <trkpt lat="42.07942" lon="0.64376">
        <ele>1203.255</ele>
        <time>2014-11-16T10:57:56Z</time>
      </trkpt>
      <trkpt lat="42.0794" lon="0.64375">
        <ele>1202.387</ele>
        <time>2014-11-16T10:57:54Z</time>
      </trkpt>
      <trkpt lat="42.07939" lon="0.64376">
        <ele>1201.942</ele>
        <time>2014-11-16T10:57:52Z</time>
      </trkpt>
      <trkpt lat="42.07938" lon="0.64377">
        <ele>1201.326</ele>
        <time>2014-11-16T10:57:51Z</time>
      </trkpt>
      <trkpt lat="42.07937" lon="0.64377">
        <ele>1200.408</ele>
        <time>2014-11-16T10:57:48Z</time>
      </trkpt>
      <trkpt lat="42.07936" lon="0.64379">
        <ele>1200.46</ele>
        <time>2014-11-16T10:57:46Z</time>
      </trkpt>
      <trkpt lat="42.07936" lon="0.64378">
        <ele>1199.749</ele>
        <time>2014-11-16T10:57:45Z</time>
      </trkpt>
      <trkpt lat="42.07935" lon="0.64376">
        <ele>1199.29</ele>
        <time>2014-11-16T10:57:44Z</time>
      </trkpt>
      <trkpt lat="42.07936" lon="0.64374">
        <ele>1198.762</ele>
        <time>2014-11-16T10:57:43Z</time>
      </trkpt>
      <trkpt lat="42.07936" lon="0.64372">
        <ele>1198.125</ele>
        <time>2014-11-16T10:57:42Z</time>
      </trkpt>
      <trkpt lat="42.07935" lon="0.64371">
        <ele>1197.336</ele>
        <time>2014-11-16T10:57:40Z</time>
      </trkpt>
      <trkpt lat="42.07935" lon="0.64369">
        <ele>1196.923</ele>
        <time>2014-11-16T10:57:39Z</time>
      </trkpt>
      <trkpt lat="42.07936" lon="0.64367">
        <ele>1196.627</ele>
        <time>2014-11-16T10:57:38Z</time>
      </trkpt>
      <trkpt lat="42.07936" lon="0.64364">
        <ele>1195.955</ele>
        <time>2014-11-16T10:57:34Z</time>
      </trkpt>
      <trkpt lat="42.07935" lon="0.64364">
        <ele>1195.107</ele>
        <time>2014-11-16T10:57:33Z</time>
      </trkpt>
      <trkpt lat="42.07933" lon="0.64365">
        <ele>1193.617</ele>
        <time>2014-11-16T10:57:31Z</time>
      </trkpt>
      <trkpt lat="42.07932" lon="0.64365">
        <ele>1193.208</ele>
        <time>2014-11-16T10:57:29Z</time>
      </trkpt>
      <trkpt lat="42.0793" lon="0.64366">
        <ele>1192.427</ele>
        <time>2014-11-16T10:57:28Z</time>
      </trkpt>
      <trkpt lat="42.07928" lon="0.64367">
        <ele>1191.056</ele>
        <time>2014-11-16T10:57:26Z</time>
      </trkpt>
      <trkpt lat="42.07927" lon="0.64368">
        <ele>1190.777</ele>
        <time>2014-11-16T10:57:20Z</time>
      </trkpt>
      <trkpt lat="42.07927" lon="0.6437">
        <ele>1191.349</ele>
        <time>2014-11-16T10:57:18Z</time>
      </trkpt>
      <trkpt lat="42.07928" lon="0.64371">
        <ele>1192.282</ele>
        <time>2014-11-16T10:57:17Z</time>
      </trkpt>
      <trkpt lat="42.07927" lon="0.64373">
        <ele>1192.353</ele>
        <time>2014-11-16T10:57:16Z</time>
      </trkpt>
      <trkpt lat="42.07926" lon="0.64375">
        <ele>1192.33</ele>
        <time>2014-11-16T10:57:15Z</time>
      </trkpt>
      <trkpt lat="42.07925" lon="0.64376">
        <ele>1192.364</ele>
        <time>2014-11-16T10:57:14Z</time>
      </trkpt>
      <trkpt lat="42.07925" lon="0.64378">
        <ele>1192.679</ele>
        <time>2014-11-16T10:57:12Z</time>
      </trkpt>
      <trkpt lat="42.07926" lon="0.6438">
        <ele>1193.705</ele>
        <time>2014-11-16T10:57:10Z</time>
      </trkpt>
      <trkpt lat="42.07924" lon="0.64381">
        <ele>1193.225</ele>
        <time>2014-11-16T10:57:08Z</time>
      </trkpt>
      <trkpt lat="42.07924" lon="0.64382">
        <ele>1193.708</ele>
        <time>2014-11-16T10:57:07Z</time>
      </trkpt>
      <trkpt lat="42.07924" lon="0.64386">
        <ele>1194.619</ele>
        <time>2014-11-16T10:57:05Z</time>
      </trkpt>
      <trkpt lat="42.07923" lon="0.64388">
        <ele>1195.148</ele>
        <time>2014-11-16T10:57:04Z</time>
      </trkpt>
      <trkpt lat="42.07923" lon="0.64391">
        <ele>1196.029</ele>
        <time>2014-11-16T10:57:01Z</time>
      </trkpt>
      <trkpt lat="42.07922" lon="0.64393">
        <ele>1196.621</ele>
        <time>2014-11-16T10:57:00Z</time>
      </trkpt>
      <trkpt lat="42.0792" lon="0.64395">
        <ele>1196.974</ele>
        <time>2014-11-16T10:56:59Z</time>
      </trkpt>
      <trkpt lat="42.07919" lon="0.64397">
        <ele>1197.415</ele>
        <time>2014-11-16T10:56:58Z</time>
      </trkpt>
      <trkpt lat="42.07917" lon="0.64399">
        <ele>1197.532</ele>
        <time>2014-11-16T10:56:56Z</time>
      </trkpt>
      <trkpt lat="42.07916" lon="0.64401">
        <ele>1198.466</ele>
        <time>2014-11-16T10:56:54Z</time>
      </trkpt>
      <trkpt lat="42.07916" lon="0.64403">
        <ele>1198.891</ele>
        <time>2014-11-16T10:56:52Z</time>
      </trkpt>
      <trkpt lat="42.07915" lon="0.64402">
        <ele>1197.981</ele>
        <time>2014-11-16T10:56:50Z</time>
      </trkpt>
      <trkpt lat="42.07914" lon="0.64402">
        <ele>1197.319</ele>
        <time>2014-11-16T10:56:47Z</time>
      </trkpt>
      <trkpt lat="42.07912" lon="0.64403">
        <ele>1196.808</ele>
        <time>2014-11-16T10:56:44Z</time>
      </trkpt>
      <trkpt lat="42.07911" lon="0.64404">
        <ele>1196.881</ele>
        <time>2014-11-16T10:56:43Z</time>
      </trkpt>
      <trkpt lat="42.0791" lon="0.64404">
        <ele>1196.54</ele>
        <time>2014-11-16T10:56:41Z</time>
      </trkpt>
      <trkpt lat="42.0791" lon="0.64406">
        <ele>1197.021</ele>
        <time>2014-11-16T10:56:40Z</time>
      </trkpt>
      <trkpt lat="42.07909" lon="0.64407">
        <ele>1196.963</ele>
        <time>2014-11-16T10:56:39Z</time>
      </trkpt>
      <trkpt lat="42.07907" lon="0.64408">
        <ele>1196.676</ele>
        <time>2014-11-16T10:56:38Z</time>
      </trkpt>
      <trkpt lat="42.07906" lon="0.64409">
        <ele>1196.547</ele>
        <time>2014-11-16T10:56:37Z</time>
      </trkpt>
      <trkpt lat="42.07906" lon="0.6441">
        <ele>1196.844</ele>
        <time>2014-11-16T10:56:35Z</time>
      </trkpt>
      <trkpt lat="42.07904" lon="0.64413">
        <ele>1197.638</ele>
        <time>2014-11-16T10:56:33Z</time>
      </trkpt>
      <trkpt lat="42.07903" lon="0.64415">
        <ele>1197.355</ele>
        <time>2014-11-16T10:56:32Z</time>
      </trkpt>
      <trkpt lat="42.07902" lon="0.64417">
        <ele>1197.607</ele>
        <time>2014-11-16T10:56:31Z</time>
      </trkpt>
      <trkpt lat="42.07902" lon="0.64418">
        <ele>1198.517</ele>
        <time>2014-11-16T10:56:26Z</time>
      </trkpt>
      <trkpt lat="42.079" lon="0.64418">
        <ele>1197.408</ele>
        <time>2014-11-16T10:56:25Z</time>
      </trkpt>
      <trkpt lat="42.07898" lon="0.64418">
        <ele>1196.067</ele>
        <time>2014-11-16T10:56:23Z</time>
      </trkpt>
      <trkpt lat="42.07896" lon="0.64419">
        <ele>1194.776</ele>
        <time>2014-11-16T10:56:21Z</time>
      </trkpt>
      <trkpt lat="42.07894" lon="0.64419">
        <ele>1193.657</ele>
        <time>2014-11-16T10:56:19Z</time>
      </trkpt>
      <trkpt lat="42.07893" lon="0.64418">
        <ele>1192.359</ele>
        <time>2014-11-16T10:56:13Z</time>
      </trkpt>
      <trkpt lat="42.07894" lon="0.64419">
        <ele>1193.612</ele>
        <time>2014-11-16T10:56:11Z</time>
      </trkpt>
      <trkpt lat="42.07895" lon="0.64419">
        <ele>1194.613</ele>
        <time>2014-11-16T10:56:00Z</time>
      </trkpt>
      <trkpt lat="42.07895" lon="0.6442">
        <ele>1195.02</ele>
        <time>2014-11-16T10:55:59Z</time>
      </trkpt>
      <trkpt lat="42.07896" lon="0.64419">
        <ele>1195.624</ele>
        <time>2014-11-16T10:55:55Z</time>
      </trkpt>
      <trkpt lat="42.07896" lon="0.64418">
        <ele>1194.379</ele>
        <time>2014-11-16T10:55:51Z</time>
      </trkpt>
      <trkpt lat="42.07895" lon="0.64417">
        <ele>1193.305</ele>
        <time>2014-11-16T10:55:49Z</time>
      </trkpt>
      <trkpt lat="42.07894" lon="0.64417">
        <ele>1191.925</ele>
        <time>2014-11-16T10:55:44Z</time>
      </trkpt>
      <trkpt lat="42.07893" lon="0.64417">
        <ele>1191.008</ele>
        <time>2014-11-16T10:55:42Z</time>
      </trkpt>
      <trkpt lat="42.07892" lon="0.64416">
        <ele>1190.259</ele>
        <time>2014-11-16T10:55:41Z</time>
      </trkpt>
      <trkpt lat="42.07891" lon="0.64416">
        <ele>1189.548</ele>
        <time>2014-11-16T10:55:40Z</time>
      </trkpt>
      <trkpt lat="42.07891" lon="0.64417">
        <ele>1189.839</ele>
        <time>2014-11-16T10:55:39Z</time>
      </trkpt>
      <trkpt lat="42.0789" lon="0.64418">
        <ele>1189.331</ele>
        <time>2014-11-16T10:55:38Z</time>
      </trkpt>
      <trkpt lat="42.07889" lon="0.64417">
        <ele>1188.144</ele>
        <time>2014-11-16T10:55:37Z</time>
      </trkpt>
      <trkpt lat="42.07888" lon="0.64416">
        <ele>1187.295</ele>
        <time>2014-11-16T10:55:35Z</time>
      </trkpt>
      <trkpt lat="42.07887" lon="0.64416">
        <ele>1186.652</ele>
        <time>2014-11-16T10:55:34Z</time>
      </trkpt>
      <trkpt lat="42.07886" lon="0.64416">
        <ele>1185.936</ele>
        <time>2014-11-16T10:55:33Z</time>
      </trkpt>
      <trkpt lat="42.07884" lon="0.64417">
        <ele>1185.864</ele>
        <time>2014-11-16T10:55:31Z</time>
      </trkpt>
      <trkpt lat="42.07883" lon="0.64418">
        <ele>1185.206</ele>
        <time>2014-11-16T10:55:29Z</time>
      </trkpt>
      <trkpt lat="42.07882" lon="0.64419">
        <ele>1185.616</ele>
        <time>2014-11-16T10:55:28Z</time>
      </trkpt>
      <trkpt lat="42.0788" lon="0.64421">
        <ele>1185.508</ele>
        <time>2014-11-16T10:55:27Z</time>
      </trkpt>
      <trkpt lat="42.07879" lon="0.6442">
        <ele>1184.288</ele>
        <time>2014-11-16T10:55:22Z</time>
      </trkpt>
      <trkpt lat="42.07879" lon="0.64418">
        <ele>1183.377</ele>
        <time>2014-11-16T10:55:21Z</time>
      </trkpt>
      <trkpt lat="42.07879" lon="0.64417">
        <ele>1182.378</ele>
        <time>2014-11-16T10:55:20Z</time>
      </trkpt>
      <trkpt lat="42.07879" lon="0.64415">
        <ele>1181.74</ele>
        <time>2014-11-16T10:55:19Z</time>
      </trkpt>
      <trkpt lat="42.07878" lon="0.64412">
        <ele>1180.273</ele>
        <time>2014-11-16T10:55:17Z</time>
      </trkpt>
      <trkpt lat="42.07877" lon="0.64411">
        <ele>1179.314</ele>
        <time>2014-11-16T10:55:16Z</time>
      </trkpt>
      <trkpt lat="42.07877" lon="0.64409">
        <ele>1178.761</ele>
        <time>2014-11-16T10:55:10Z</time>
      </trkpt>
      <trkpt lat="42.07877" lon="0.6441">
        <ele>1178.725</ele>
        <time>2014-11-16T10:55:09Z</time>
      </trkpt>
      <trkpt lat="42.07877" lon="0.64411">
        <ele>1179.333</ele>
        <time>2014-11-16T10:55:08Z</time>
      </trkpt>
      <trkpt lat="42.07876" lon="0.64413">
        <ele>1179.423</ele>
        <time>2014-11-16T10:55:06Z</time>
      </trkpt>
      <trkpt lat="42.07876" lon="0.64414">
        <ele>1179.515</ele>
        <time>2014-11-16T10:55:05Z</time>
      </trkpt>
      <trkpt lat="42.07875" lon="0.64416">
        <ele>1179.608</ele>
        <time>2014-11-16T10:55:04Z</time>
      </trkpt>
      <trkpt lat="42.07874" lon="0.64418">
        <ele>1179.935</ele>
        <time>2014-11-16T10:55:02Z</time>
      </trkpt>
      <trkpt lat="42.07873" lon="0.6442">
        <ele>1180.224</ele>
        <time>2014-11-16T10:55:00Z</time>
      </trkpt>
      <trkpt lat="42.07873" lon="0.6442">
        <ele>1180.425</ele>
        <time>2014-11-16T10:54:59Z</time>
      </trkpt>
      <trkpt lat="42.07874" lon="0.6442">
        <ele>1181.167</ele>
        <time>2014-11-16T10:54:40Z</time>
      </trkpt>
      <trkpt lat="42.07874" lon="0.64419">
        <ele>1180.44</ele>
        <time>2014-11-16T10:54:37Z</time>
      </trkpt>
      <trkpt lat="42.07873" lon="0.64421">
        <ele>1181.141</ele>
        <time>2014-11-16T10:54:33Z</time>
      </trkpt>
      <trkpt lat="42.07874" lon="0.64423">
        <ele>1182.578</ele>
        <time>2014-11-16T10:54:28Z</time>
      </trkpt>
      <trkpt lat="42.07874" lon="0.64424">
        <ele>1182.942</ele>
        <time>2014-11-16T10:54:26Z</time>
      </trkpt>
      <trkpt lat="42.07872" lon="0.64423">
        <ele>1181.644</ele>
        <time>2014-11-16T10:54:24Z</time>
      </trkpt>
      <trkpt lat="42.07871" lon="0.64423">
        <ele>1180.505</ele>
        <time>2014-11-16T10:54:23Z</time>
      </trkpt>
      <trkpt lat="42.07869" lon="0.64423">
        <ele>1179.415</ele>
        <time>2014-11-16T10:54:21Z</time>
      </trkpt>
      <trkpt lat="42.07868" lon="0.64424">
        <ele>1178.708</ele>
        <time>2014-11-16T10:54:19Z</time>
      </trkpt>
      <trkpt lat="42.07867" lon="0.64425">
        <ele>1178.196</ele>
        <time>2014-11-16T10:54:18Z</time>
      </trkpt>
      <trkpt lat="42.07865" lon="0.64426">
        <ele>1177.285</ele>
        <time>2014-11-16T10:54:17Z</time>
      </trkpt>
      <trkpt lat="42.07863" lon="0.64427">
        <ele>1176.656</ele>
        <time>2014-11-16T10:54:15Z</time>
      </trkpt>
      <trkpt lat="42.07862" lon="0.64427">
        <ele>1175.858</ele>
        <time>2014-11-16T10:54:10Z</time>
      </trkpt>
      <trkpt lat="42.07863" lon="0.64425">
        <ele>1175.681</ele>
        <time>2014-11-16T10:54:09Z</time>
      </trkpt>
      <trkpt lat="42.07864" lon="0.64423">
        <ele>1175.542</ele>
        <time>2014-11-16T10:54:08Z</time>
      </trkpt>
      <trkpt lat="42.07864" lon="0.64421">
        <ele>1175.099</ele>
        <time>2014-11-16T10:54:07Z</time>
      </trkpt>
      <trkpt lat="42.07863" lon="0.6442">
        <ele>1174.253</ele>
        <time>2014-11-16T10:54:04Z</time>
      </trkpt>
      <trkpt lat="42.07862" lon="0.64421">
        <ele>1173.777</ele>
        <time>2014-11-16T10:54:02Z</time>
      </trkpt>
      <trkpt lat="42.07861" lon="0.64419">
        <ele>1172.861</ele>
        <time>2014-11-16T10:54:01Z</time>
      </trkpt>
      <trkpt lat="42.07861" lon="0.64417">
        <ele>1172.127</ele>
        <time>2014-11-16T10:54:00Z</time>
      </trkpt>
      <trkpt lat="42.07861" lon="0.64416">
        <ele>1172.008</ele>
        <time>2014-11-16T10:53:59Z</time>
      </trkpt>
      <trkpt lat="42.07862" lon="0.64415">
        <ele>1172.129</ele>
        <time>2014-11-16T10:53:56Z</time>
      </trkpt>
      <trkpt lat="42.07863" lon="0.64414">
        <ele>1172.088</ele>
        <time>2014-11-16T10:53:55Z</time>
      </trkpt>
      <trkpt lat="42.07864" lon="0.64411">
        <ele>1171.849</ele>
        <time>2014-11-16T10:53:54Z</time>
      </trkpt>
      <trkpt lat="42.07864" lon="0.64409">
        <ele>1171.641</ele>
        <time>2014-11-16T10:53:53Z</time>
      </trkpt>
      <trkpt lat="42.07866" lon="0.64403">
        <ele>1170.684</ele>
        <time>2014-11-16T10:53:51Z</time>
      </trkpt>
      <trkpt lat="42.07866" lon="0.644">
        <ele>1169.855</ele>
        <time>2014-11-16T10:53:50Z</time>
      </trkpt>
      <trkpt lat="42.07867" lon="0.64397">
        <ele>1169.542</ele>
        <time>2014-11-16T10:53:48Z</time>
      </trkpt>
      <trkpt lat="42.07868" lon="0.64397">
        <ele>1170.296</ele>
        <time>2014-11-16T10:53:44Z</time>
      </trkpt>
      <trkpt lat="42.07867" lon="0.64396">
        <ele>1169.344</ele>
        <time>2014-11-16T10:53:42Z</time>
      </trkpt>
      <trkpt lat="42.07867" lon="0.64394">
        <ele>1168.905</ele>
        <time>2014-11-16T10:53:40Z</time>
      </trkpt>
      <trkpt lat="42.0787" lon="0.64391">
        <ele>1169.215</ele>
        <time>2014-11-16T10:53:38Z</time>
      </trkpt>
      <trkpt lat="42.07872" lon="0.64389">
        <ele>1169.408</ele>
        <time>2014-11-16T10:53:35Z</time>
      </trkpt>
      <trkpt lat="42.07872" lon="0.64387">
        <ele>1168.886</ele>
        <time>2014-11-16T10:53:32Z</time>
      </trkpt>
      <trkpt lat="42.07874" lon="0.64385">
        <ele>1168.945</ele>
        <time>2014-11-16T10:53:31Z</time>
      </trkpt>
      <trkpt lat="42.07875" lon="0.64384">
        <ele>1169.456</ele>
        <time>2014-11-16T10:53:30Z</time>
      </trkpt>
      <trkpt lat="42.07877" lon="0.64384">
        <ele>1169.898</ele>
        <time>2014-11-16T10:53:28Z</time>
      </trkpt>
      <trkpt lat="42.07877" lon="0.64382">
        <ele>1169.241</ele>
        <time>2014-11-16T10:53:26Z</time>
      </trkpt>
      <trkpt lat="42.07877" lon="0.64381">
        <ele>1168.932</ele>
        <time>2014-11-16T10:53:25Z</time>
      </trkpt>
      <trkpt lat="42.07878" lon="0.64378">
        <ele>1168.779</ele>
        <time>2014-11-16T10:53:24Z</time>
      </trkpt>
      <trkpt lat="42.0788" lon="0.64376">
        <ele>1168.543</ele>
        <time>2014-11-16T10:53:23Z</time>
      </trkpt>
      <trkpt lat="42.07882" lon="0.64371">
        <ele>1168.097</ele>
        <time>2014-11-16T10:53:21Z</time>
      </trkpt>
      <trkpt lat="42.07883" lon="0.6437">
        <ele>1167.923</ele>
        <time>2014-11-16T10:53:20Z</time>
      </trkpt>
      <trkpt lat="42.07884" lon="0.64369">
        <ele>1168.025</ele>
        <time>2014-11-16T10:53:18Z</time>
      </trkpt>
      <trkpt lat="42.07885" lon="0.64368">
        <ele>1168.108</ele>
        <time>2014-11-16T10:53:16Z</time>
      </trkpt>
      <trkpt lat="42.07885" lon="0.64366">
        <ele>1167.971</ele>
        <time>2014-11-16T10:53:14Z</time>
      </trkpt>
      <trkpt lat="42.07886" lon="0.64365">
        <ele>1167.96</ele>
        <time>2014-11-16T10:53:13Z</time>
      </trkpt>
      <trkpt lat="42.07887" lon="0.64364">
        <ele>1168.181</ele>
        <time>2014-11-16T10:53:12Z</time>
      </trkpt>
      <trkpt lat="42.07888" lon="0.64363">
        <ele>1168.263</ele>
        <time>2014-11-16T10:53:11Z</time>
      </trkpt>
      <trkpt lat="42.07889" lon="0.64362">
        <ele>1168.556</ele>
        <time>2014-11-16T10:53:09Z</time>
      </trkpt>
      <trkpt lat="42.0789" lon="0.64361">
        <ele>1168.537</ele>
        <time>2014-11-16T10:53:08Z</time>
      </trkpt>
      <trkpt lat="42.07891" lon="0.6436">
        <ele>1168.194</ele>
        <time>2014-11-16T10:53:07Z</time>
      </trkpt>
      <trkpt lat="42.07892" lon="0.64357">
        <ele>1167.618</ele>
        <time>2014-11-16T10:53:06Z</time>
      </trkpt>
      <trkpt lat="42.07892" lon="0.64355">
        <ele>1166.858</ele>
        <time>2014-11-16T10:53:04Z</time>
      </trkpt>
      <trkpt lat="42.07892" lon="0.64353">
        <ele>1166.252</ele>
        <time>2014-11-16T10:53:02Z</time>
      </trkpt>
      <trkpt lat="42.0789" lon="0.6435">
        <ele>1164.017</ele>
        <time>2014-11-16T10:53:00Z</time>
      </trkpt>
      <trkpt lat="42.0789" lon="0.64351">
        <ele>1163.708</ele>
        <time>2014-11-16T10:52:59Z</time>
      </trkpt>
      <trkpt lat="42.07889" lon="0.64353">
        <ele>1164.557</ele>
        <time>2014-11-16T10:52:57Z</time>
      </trkpt>
      <trkpt lat="42.07888" lon="0.64354">
        <ele>1164.416</ele>
        <time>2014-11-16T10:52:56Z</time>
      </trkpt>
      <trkpt lat="42.07886" lon="0.64354">
        <ele>1163.697</ele>
        <time>2014-11-16T10:52:54Z</time>
      </trkpt>
      <trkpt lat="42.07885" lon="0.64354">
        <ele>1163.219</ele>
        <time>2014-11-16T10:52:53Z</time>
      </trkpt>
      <trkpt lat="42.07884" lon="0.64355">
        <ele>1162.892</ele>
        <time>2014-11-16T10:52:52Z</time>
      </trkpt>
      <trkpt lat="42.07883" lon="0.64355">
        <ele>1162.453</ele>
        <time>2014-11-16T10:52:51Z</time>
      </trkpt>
      <trkpt lat="42.07882" lon="0.64356">
        <ele>1162.29</ele>
        <time>2014-11-16T10:52:49Z</time>
      </trkpt>
      <trkpt lat="42.07881" lon="0.64354">
        <ele>1161.174</ele>
        <time>2014-11-16T10:52:48Z</time>
      </trkpt>
      <trkpt lat="42.07881" lon="0.64351">
        <ele>1159.715</ele>
        <time>2014-11-16T10:52:47Z</time>
      </trkpt>
      <trkpt lat="42.07881" lon="0.6435">
        <ele>1159.565</ele>
        <time>2014-11-16T10:52:44Z</time>
      </trkpt>
      <trkpt lat="42.07881" lon="0.64349">
        <ele>1158.911</ele>
        <time>2014-11-16T10:52:43Z</time>
      </trkpt>
      <trkpt lat="42.07882" lon="0.64347">
        <ele>1158.208</ele>
        <time>2014-11-16T10:52:42Z</time>
      </trkpt>
      <trkpt lat="42.07882" lon="0.64345">
        <ele>1157.883</ele>
        <time>2014-11-16T10:52:41Z</time>
      </trkpt>
      <trkpt lat="42.07882" lon="0.64343">
        <ele>1157.212</ele>
        <time>2014-11-16T10:52:40Z</time>
      </trkpt>
      <trkpt lat="42.07881" lon="0.64343">
        <ele>1156.633</ele>
        <time>2014-11-16T10:52:39Z</time>
      </trkpt>
      <trkpt lat="42.0788" lon="0.64343">
        <ele>1155.825</ele>
        <time>2014-11-16T10:52:36Z</time>
      </trkpt>
      <trkpt lat="42.07879" lon="0.64345">
        <ele>1156.338</ele>
        <time>2014-11-16T10:52:34Z</time>
      </trkpt>
      <trkpt lat="42.07877" lon="0.64345">
        <ele>1155.479</ele>
        <time>2014-11-16T10:52:32Z</time>
      </trkpt>
      <trkpt lat="42.07876" lon="0.64346">
        <ele>1155.486</ele>
        <time>2014-11-16T10:52:30Z</time>
      </trkpt>
      <trkpt lat="42.07875" lon="0.64347">
        <ele>1155.45</ele>
        <time>2014-11-16T10:52:28Z</time>
      </trkpt>
      <trkpt lat="42.07874" lon="0.64348">
        <ele>1154.974</ele>
        <time>2014-11-16T10:52:26Z</time>
      </trkpt>
      <trkpt lat="42.07873" lon="0.64348">
        <ele>1154.456</ele>
        <time>2014-11-16T10:52:25Z</time>
      </trkpt>
      <trkpt lat="42.07871" lon="0.64348">
        <ele>1153.621</ele>
        <time>2014-11-16T10:52:24Z</time>
      </trkpt>
      <trkpt lat="42.0787" lon="0.64348">
        <ele>1153.008</ele>
        <time>2014-11-16T10:52:22Z</time>
      </trkpt>
      <trkpt lat="42.07869" lon="0.6435">
        <ele>1153.239</ele>
        <time>2014-11-16T10:52:21Z</time>
      </trkpt>
      <trkpt lat="42.07868" lon="0.64353">
        <ele>1153.678</ele>
        <time>2014-11-16T10:52:20Z</time>
      </trkpt>
      <trkpt lat="42.07867" lon="0.64354">
        <ele>1153.759</ele>
        <time>2014-11-16T10:52:19Z</time>
      </trkpt>
      <trkpt lat="42.07866" lon="0.64355">
        <ele>1153.321</ele>
        <time>2014-11-16T10:52:17Z</time>
      </trkpt>
      <trkpt lat="42.07866" lon="0.64356">
        <ele>1153.644</ele>
        <time>2014-11-16T10:52:00Z</time>
      </trkpt>
      <trkpt lat="42.07866" lon="0.64355">
        <ele>1153.875</ele>
        <time>2014-11-16T10:51:32Z</time>
      </trkpt>
      <trkpt lat="42.07867" lon="0.64354">
        <ele>1153.632</ele>
        <time>2014-11-16T10:51:03Z</time>
      </trkpt>
      <trkpt lat="42.07867" lon="0.64353">
        <ele>1153.436</ele>
        <time>2014-11-16T10:51:00Z</time>
      </trkpt>
      <trkpt lat="42.07867" lon="0.64353">
        <ele>1153.451</ele>
        <time>2014-11-16T10:50:59Z</time>
      </trkpt>
      <trkpt lat="42.07866" lon="0.64354">
        <ele>1153.401</ele>
        <time>2014-11-16T10:50:37Z</time>
      </trkpt>
      <trkpt lat="42.07866" lon="0.64352">
        <ele>1152.811</ele>
        <time>2014-11-16T10:50:35Z</time>
      </trkpt>
      <trkpt lat="42.07865" lon="0.64353">
        <ele>1152.508</ele>
        <time>2014-11-16T10:50:33Z</time>
      </trkpt>
      <trkpt lat="42.07865" lon="0.64355">
        <ele>1152.947</ele>
        <time>2014-11-16T10:50:32Z</time>
      </trkpt>
      <trkpt lat="42.07865" lon="0.64356">
        <ele>1153.566</ele>
        <time>2014-11-16T10:50:30Z</time>
      </trkpt>
      <trkpt lat="42.07864" lon="0.64358">
        <ele>1153.127</ele>
        <time>2014-11-16T10:50:29Z</time>
      </trkpt>
      <trkpt lat="42.07861" lon="0.64358">
        <ele>1152.149</ele>
        <time>2014-11-16T10:50:27Z</time>
      </trkpt>
      <trkpt lat="42.07861" lon="0.6436">
        <ele>1152.642</ele>
        <time>2014-11-16T10:50:25Z</time>
      </trkpt>
      <trkpt lat="42.0786" lon="0.64362">
        <ele>1153.093</ele>
        <time>2014-11-16T10:50:24Z</time>
      </trkpt>
      <trkpt lat="42.07859" lon="0.64364">
        <ele>1153.03</ele>
        <time>2014-11-16T10:50:23Z</time>
      </trkpt>
      <trkpt lat="42.07858" lon="0.64364">
        <ele>1152.634</ele>
        <time>2014-11-16T10:50:22Z</time>
      </trkpt>
      <trkpt lat="42.07856" lon="0.64365">
        <ele>1151.914</ele>
        <time>2014-11-16T10:50:19Z</time>
      </trkpt>
      <trkpt lat="42.07855" lon="0.64366">
        <ele>1151.854</ele>
        <time>2014-11-16T10:50:18Z</time>
      </trkpt>
      <trkpt lat="42.07854" lon="0.64367">
        <ele>1151.409</ele>
        <time>2014-11-16T10:50:17Z</time>
      </trkpt>
      <trkpt lat="42.07852" lon="0.64366">
        <ele>1150.508</ele>
        <time>2014-11-16T10:50:14Z</time>
      </trkpt>
      <trkpt lat="42.07851" lon="0.64367">
        <ele>1149.993</ele>
        <time>2014-11-16T10:50:13Z</time>
      </trkpt>
      <trkpt lat="42.0785" lon="0.64367">
        <ele>1149.192</ele>
        <time>2014-11-16T10:50:12Z</time>
      </trkpt>
      <trkpt lat="42.07848" lon="0.64368">
        <ele>1148.523</ele>
        <time>2014-11-16T10:50:10Z</time>
      </trkpt>
      <trkpt lat="42.07847" lon="0.64367">
        <ele>1147.735</ele>
        <time>2014-11-16T10:50:08Z</time>
      </trkpt>
      <trkpt lat="42.07846" lon="0.64368">
        <ele>1147.748</ele>
        <time>2014-11-16T10:50:07Z</time>
      </trkpt>
      <trkpt lat="42.07845" lon="0.6437">
        <ele>1147.349</ele>
        <time>2014-11-16T10:50:04Z</time>
      </trkpt>
      <trkpt lat="42.07844" lon="0.6437">
        <ele>1147.136</ele>
        <time>2014-11-16T10:50:00Z</time>
      </trkpt>
      <trkpt lat="42.07844" lon="0.64371">
        <ele>1147.16</ele>
        <time>2014-11-16T10:49:59Z</time>
      </trkpt>
      <trkpt lat="42.07844" lon="0.64369">
        <ele>1147.179</ele>
        <time>2014-11-16T10:49:55Z</time>
      </trkpt>
      <trkpt lat="42.07845" lon="0.64368">
        <ele>1146.905</ele>
        <time>2014-11-16T10:49:54Z</time>
      </trkpt>
      <trkpt lat="42.07845" lon="0.64366">
        <ele>1146.425</ele>
        <time>2014-11-16T10:49:53Z</time>
      </trkpt>
      <trkpt lat="42.07845" lon="0.64365">
        <ele>1146.008</ele>
        <time>2014-11-16T10:49:51Z</time>
      </trkpt>
      <trkpt lat="42.07846" lon="0.64362">
        <ele>1145.729</ele>
        <time>2014-11-16T10:49:49Z</time>
      </trkpt>
      <trkpt lat="42.07847" lon="0.64361">
        <ele>1146.168</ele>
        <time>2014-11-16T10:49:45Z</time>
      </trkpt>
      <trkpt lat="42.07848" lon="0.64362">
        <ele>1146.919</ele>
        <time>2014-11-16T10:49:40Z</time>
      </trkpt>
      <trkpt lat="42.0785" lon="0.64361">
        <ele>1147.381</ele>
        <time>2014-11-16T10:49:37Z</time>
      </trkpt>
      <trkpt lat="42.0785" lon="0.6436">
        <ele>1147.214</ele>
        <time>2014-11-16T10:49:36Z</time>
      </trkpt>
      <trkpt lat="42.0785" lon="0.64357">
        <ele>1146.585</ele>
        <time>2014-11-16T10:49:34Z</time>
      </trkpt>
      <trkpt lat="42.07849" lon="0.64357">
        <ele>1145.432</ele>
        <time>2014-11-16T10:49:33Z</time>
      </trkpt>
      <trkpt lat="42.07847" lon="0.64356">
        <ele>1144.396</ele>
        <time>2014-11-16T10:49:32Z</time>
      </trkpt>
      <trkpt lat="42.07845" lon="0.64356">
        <ele>1143.327</ele>
        <time>2014-11-16T10:49:30Z</time>
      </trkpt>
      <trkpt lat="42.07844" lon="0.64359">
        <ele>1143.768</ele>
        <time>2014-11-16T10:49:27Z</time>
      </trkpt>
      <trkpt lat="42.07843" lon="0.6436">
        <ele>1143.614</ele>
        <time>2014-11-16T10:49:25Z</time>
      </trkpt>
      <trkpt lat="42.07842" lon="0.64361">
        <ele>1143.108</ele>
        <time>2014-11-16T10:49:24Z</time>
      </trkpt>
      <trkpt lat="42.07841" lon="0.64361">
        <ele>1142.794</ele>
        <time>2014-11-16T10:49:23Z</time>
      </trkpt>
      <trkpt lat="42.07839" lon="0.64361">
        <ele>1141.833</ele>
        <time>2014-11-16T10:49:17Z</time>
      </trkpt>
      <trkpt lat="42.07838" lon="0.64362">
        <ele>1141.324</ele>
        <time>2014-11-16T10:49:15Z</time>
      </trkpt>
      <trkpt lat="42.07837" lon="0.64362">
        <ele>1140.966</ele>
        <time>2014-11-16T10:49:13Z</time>
      </trkpt>
      <trkpt lat="42.07835" lon="0.64364">
        <ele>1140.459</ele>
        <time>2014-11-16T10:49:11Z</time>
      </trkpt>
      <trkpt lat="42.07833" lon="0.64365">
        <ele>1139.69</ele>
        <time>2014-11-16T10:49:10Z</time>
      </trkpt>
      <trkpt lat="42.07831" lon="0.64365">
        <ele>1138.987</ele>
        <time>2014-11-16T10:49:09Z</time>
      </trkpt>
      <trkpt lat="42.0783" lon="0.64366">
        <ele>1138.681</ele>
        <time>2014-11-16T10:49:08Z</time>
      </trkpt>
      <trkpt lat="42.07829" lon="0.64366">
        <ele>1138.121</ele>
        <time>2014-11-16T10:49:06Z</time>
      </trkpt>
      <trkpt lat="42.07828" lon="0.64366">
        <ele>1137.641</ele>
        <time>2014-11-16T10:49:05Z</time>
      </trkpt>
      <trkpt lat="42.07827" lon="0.64368">
        <ele>1137.205</ele>
        <time>2014-11-16T10:49:03Z</time>
      </trkpt>
      <trkpt lat="42.07826" lon="0.64369">
        <ele>1137.108</ele>
        <time>2014-11-16T10:49:01Z</time>
      </trkpt>
      <trkpt lat="42.07825" lon="0.64369">
        <ele>1136.994</ele>
        <time>2014-11-16T10:48:57Z</time>
      </trkpt>
      <trkpt lat="42.07824" lon="0.6437">
        <ele>1136.613</ele>
        <time>2014-11-16T10:48:56Z</time>
      </trkpt>
      <trkpt lat="42.07823" lon="0.64369">
        <ele>1135.844</ele>
        <time>2014-11-16T10:48:53Z</time>
      </trkpt>
      <trkpt lat="42.07822" lon="0.6437">
        <ele>1135.576</ele>
        <time>2014-11-16T10:48:51Z</time>
      </trkpt>
      <trkpt lat="42.07821" lon="0.6437">
        <ele>1134.979</ele>
        <time>2014-11-16T10:48:50Z</time>
      </trkpt>
      <trkpt lat="42.0782" lon="0.64369">
        <ele>1133.85</ele>
        <time>2014-11-16T10:48:46Z</time>
      </trkpt>
      <trkpt lat="42.0782" lon="0.64367">
        <ele>1133.737</ele>
        <time>2014-11-16T10:48:45Z</time>
      </trkpt>
      <trkpt lat="42.07821" lon="0.64365">
        <ele>1133.811</ele>
        <time>2014-11-16T10:48:44Z</time>
      </trkpt>
      <trkpt lat="42.07822" lon="0.64362">
        <ele>1133.737</ele>
        <time>2014-11-16T10:48:41Z</time>
      </trkpt>
      <trkpt lat="42.07822" lon="0.64361">
        <ele>1133.349</ele>
        <time>2014-11-16T10:48:39Z</time>
      </trkpt>
      <trkpt lat="42.07823" lon="0.64361">
        <ele>1133.913</ele>
        <time>2014-11-16T10:48:36Z</time>
      </trkpt>
      <trkpt lat="42.07823" lon="0.6436">
        <ele>1133.308</ele>
        <time>2014-11-16T10:48:34Z</time>
      </trkpt>
      <trkpt lat="42.07822" lon="0.64358">
        <ele>1132.875</ele>
        <time>2014-11-16T10:48:33Z</time>
      </trkpt>
      <trkpt lat="42.07822" lon="0.64356">
        <ele>1132.064</ele>
        <time>2014-11-16T10:48:31Z</time>
      </trkpt>
      <trkpt lat="42.07822" lon="0.64355">
        <ele>1131.625</ele>
        <time>2014-11-16T10:48:29Z</time>
      </trkpt>
      <trkpt lat="42.07823" lon="0.64352">
        <ele>1131.527</ele>
        <time>2014-11-16T10:48:28Z</time>
      </trkpt>
      <trkpt lat="42.07825" lon="0.6435">
        <ele>1131.65</ele>
        <time>2014-11-16T10:48:24Z</time>
      </trkpt>
      <trkpt lat="42.07825" lon="0.64348">
        <ele>1131.361</ele>
        <time>2014-11-16T10:48:23Z</time>
      </trkpt>
      <trkpt lat="42.07825" lon="0.64347">
        <ele>1131.028</ele>
        <time>2014-11-16T10:48:21Z</time>
      </trkpt>
      <trkpt lat="42.07825" lon="0.64348">
        <ele>1131.572</ele>
        <time>2014-11-16T10:48:19Z</time>
      </trkpt>
      <trkpt lat="42.07823" lon="0.64349">
        <ele>1130.445</ele>
        <time>2014-11-16T10:48:17Z</time>
      </trkpt>
      <trkpt lat="42.07822" lon="0.64349">
        <ele>1129.947</ele>
        <time>2014-11-16T10:48:16Z</time>
      </trkpt>
      <trkpt lat="42.07821" lon="0.64349">
        <ele>1129.311</ele>
        <time>2014-11-16T10:48:14Z</time>
      </trkpt>
      <trkpt lat="42.0782" lon="0.64348">
        <ele>1128.608</ele>
        <time>2014-11-16T10:48:07Z</time>
      </trkpt>
      <trkpt lat="42.07818" lon="0.64348">
        <ele>1128.066</ele>
        <time>2014-11-16T10:48:05Z</time>
      </trkpt>
      <trkpt lat="42.07818" lon="0.64347">
        <ele>1127.415</ele>
        <time>2014-11-16T10:48:00Z</time>
      </trkpt>
      <trkpt lat="42.07818" lon="0.64347">
        <ele>1127.866</ele>
        <time>2014-11-16T10:47:57Z</time>
      </trkpt>
      <trkpt lat="42.07819" lon="0.64346">
        <ele>1127.518</ele>
        <time>2014-11-16T10:47:55Z</time>
      </trkpt>
      <trkpt lat="42.07818" lon="0.64345">
        <ele>1127.141</ele>
        <time>2014-11-16T10:47:52Z</time>
      </trkpt>
      <trkpt lat="42.07817" lon="0.64345">
        <ele>1126.572</ele>
        <time>2014-11-16T10:47:48Z</time>
      </trkpt>
      <trkpt lat="42.07817" lon="0.64344">
        <ele>1125.919</ele>
        <time>2014-11-16T10:47:44Z</time>
      </trkpt>
      <trkpt lat="42.07816" lon="0.64342">
        <ele>1125.243</ele>
        <time>2014-11-16T10:47:42Z</time>
      </trkpt>
      <trkpt lat="42.07816" lon="0.6434">
        <ele>1124.993</ele>
        <time>2014-11-16T10:47:40Z</time>
      </trkpt>
      <trkpt lat="42.07818" lon="0.6434">
        <ele>1125.465</ele>
        <time>2014-11-16T10:47:38Z</time>
      </trkpt>
      <trkpt lat="42.07817" lon="0.64338">
        <ele>1124.721</ele>
        <time>2014-11-16T10:47:36Z</time>
      </trkpt>
      <trkpt lat="42.07818" lon="0.64336">
        <ele>1124.408</ele>
        <time>2014-11-16T10:47:35Z</time>
      </trkpt>
      <trkpt lat="42.07818" lon="0.64334">
        <ele>1123.741</ele>
        <time>2014-11-16T10:47:32Z</time>
      </trkpt>
      <trkpt lat="42.07817" lon="0.64332">
        <ele>1123.39</ele>
        <time>2014-11-16T10:47:31Z</time>
      </trkpt>
      <trkpt lat="42.07817" lon="0.6433">
        <ele>1122.831</ele>
        <time>2014-11-16T10:47:30Z</time>
      </trkpt>
      <trkpt lat="42.07818" lon="0.64328">
        <ele>1122.723</ele>
        <time>2014-11-16T10:47:29Z</time>
      </trkpt>
      <trkpt lat="42.07819" lon="0.64327">
        <ele>1123.096</ele>
        <time>2014-11-16T10:47:26Z</time>
      </trkpt>
      <trkpt lat="42.0782" lon="0.64325">
        <ele>1122.857</ele>
        <time>2014-11-16T10:47:25Z</time>
      </trkpt>
      <trkpt lat="42.0782" lon="0.64323">
        <ele>1122.344</ele>
        <time>2014-11-16T10:47:24Z</time>
      </trkpt>
      <trkpt lat="42.0782" lon="0.64321">
        <ele>1121.938</ele>
        <time>2014-11-16T10:47:21Z</time>
      </trkpt>
      <trkpt lat="42.07821" lon="0.6432">
        <ele>1121.631</ele>
        <time>2014-11-16T10:47:20Z</time>
      </trkpt>
      <trkpt lat="42.07822" lon="0.64317">
        <ele>1121.461</ele>
        <time>2014-11-16T10:47:17Z</time>
      </trkpt>
      <trkpt lat="42.07823" lon="0.64316">
        <ele>1121.807</ele>
        <time>2014-11-16T10:47:16Z</time>
      </trkpt>
      <trkpt lat="42.07825" lon="0.64313">
        <ele>1121.708</ele>
        <time>2014-11-16T10:47:13Z</time>
      </trkpt>
      <trkpt lat="42.07824" lon="0.64312">
        <ele>1121.215</ele>
        <time>2014-11-16T10:47:12Z</time>
      </trkpt>
      <trkpt lat="42.07823" lon="0.6431">
        <ele>1120.294</ele>
        <time>2014-11-16T10:47:11Z</time>
      </trkpt>
      <trkpt lat="42.07822" lon="0.64309">
        <ele>1119.225</ele>
        <time>2014-11-16T10:47:10Z</time>
      </trkpt>
      <trkpt lat="42.0782" lon="0.64309">
        <ele>1118.537</ele>
        <time>2014-11-16T10:47:08Z</time>
      </trkpt>
      <trkpt lat="42.07819" lon="0.64311">
        <ele>1118.81</ele>
        <time>2014-11-16T10:47:06Z</time>
      </trkpt>
      <trkpt lat="42.07818" lon="0.64311">
        <ele>1118.161</ele>
        <time>2014-11-16T10:47:05Z</time>
      </trkpt>
      <trkpt lat="42.07816" lon="0.64311">
        <ele>1117.398</ele>
        <time>2014-11-16T10:47:04Z</time>
      </trkpt>
      <trkpt lat="42.07814" lon="0.64311">
        <ele>1116.952</ele>
        <time>2014-11-16T10:47:02Z</time>
      </trkpt>
      <trkpt lat="42.07812" lon="0.64313">
        <ele>1116.485</ele>
        <time>2014-11-16T10:47:00Z</time>
      </trkpt>
      <trkpt lat="42.0781" lon="0.64314">
        <ele>1115.889</ele>
        <time>2014-11-16T10:46:59Z</time>
      </trkpt>
      <trkpt lat="42.0781" lon="0.64315">
        <ele>1115.617</ele>
        <time>2014-11-16T10:46:58Z</time>
      </trkpt>
      <trkpt lat="42.07809" lon="0.64316">
        <ele>1115.908</ele>
        <time>2014-11-16T10:46:52Z</time>
      </trkpt>
      <trkpt lat="42.07809" lon="0.64315">
        <ele>1115.61</ele>
        <time>2014-11-16T10:46:49Z</time>
      </trkpt>
      <trkpt lat="42.07808" lon="0.64315">
        <ele>1114.929</ele>
        <time>2014-11-16T10:46:47Z</time>
      </trkpt>
      <trkpt lat="42.07807" lon="0.64316">
        <ele>1115.09</ele>
        <time>2014-11-16T10:46:45Z</time>
      </trkpt>
      <trkpt lat="42.07805" lon="0.64317">
        <ele>1114.312</ele>
        <time>2014-11-16T10:46:44Z</time>
      </trkpt>
      <trkpt lat="42.07803" lon="0.64317">
        <ele>1113.695</ele>
        <time>2014-11-16T10:46:43Z</time>
      </trkpt>
      <trkpt lat="42.07802" lon="0.64317">
        <ele>1113.176</ele>
        <time>2014-11-16T10:46:41Z</time>
      </trkpt>
      <trkpt lat="42.07801" lon="0.64317">
        <ele>1112.843</ele>
        <time>2014-11-16T10:46:40Z</time>
      </trkpt>
      <trkpt lat="42.07799" lon="0.64317">
        <ele>1112.167</ele>
        <time>2014-11-16T10:46:39Z</time>
      </trkpt>
      <trkpt lat="42.07798" lon="0.64317">
        <ele>1111.592</ele>
        <time>2014-11-16T10:46:38Z</time>
      </trkpt>
      <trkpt lat="42.07797" lon="0.64318">
        <ele>1111.173</ele>
        <time>2014-11-16T10:46:36Z</time>
      </trkpt>
      <trkpt lat="42.07796" lon="0.64319">
        <ele>1111.22</ele>
        <time>2014-11-16T10:46:35Z</time>
      </trkpt>
      <trkpt lat="42.07795" lon="0.64321">
        <ele>1111.208</ele>
        <time>2014-11-16T10:46:34Z</time>
      </trkpt>
      <trkpt lat="42.07794" lon="0.64322">
        <ele>1110.951</ele>
        <time>2014-11-16T10:46:32Z</time>
      </trkpt>
      <trkpt lat="42.07792" lon="0.64323">
        <ele>1110.61</ele>
        <time>2014-11-16T10:46:30Z</time>
      </trkpt>
      <trkpt lat="42.07792" lon="0.64323">
        <ele>1110.391</ele>
        <time>2014-11-16T10:46:29Z</time>
      </trkpt>
      <trkpt lat="42.0779" lon="0.64324">
        <ele>1110.023</ele>
        <time>2014-11-16T10:46:27Z</time>
      </trkpt>
      <trkpt lat="42.0779" lon="0.64325">
        <ele>1110.136</ele>
        <time>2014-11-16T10:46:24Z</time>
      </trkpt>
      <trkpt lat="42.07789" lon="0.64324">
        <ele>1109.617</ele>
        <time>2014-11-16T10:46:17Z</time>
      </trkpt>
      <trkpt lat="42.07788" lon="0.64325">
        <ele>1109.384</ele>
        <time>2014-11-16T10:46:16Z</time>
      </trkpt>
      <trkpt lat="42.07787" lon="0.64326">
        <ele>1109.158</ele>
        <time>2014-11-16T10:46:14Z</time>
      </trkpt>
      <trkpt lat="42.07786" lon="0.64326">
        <ele>1108.837</ele>
        <time>2014-11-16T10:46:13Z</time>
      </trkpt>
      <trkpt lat="42.07785" lon="0.64328">
        <ele>1108.749</ele>
        <time>2014-11-16T10:46:12Z</time>
      </trkpt>
      <trkpt lat="42.07784" lon="0.64329">
        <ele>1108.613</ele>
        <time>2014-11-16T10:46:11Z</time>
      </trkpt>
      <trkpt lat="42.07783" lon="0.6433">
        <ele>1108.408</ele>
        <time>2014-11-16T10:46:08Z</time>
      </trkpt>
      <trkpt lat="42.07782" lon="0.6433">
        <ele>1108.015</ele>
        <time>2014-11-16T10:46:07Z</time>
      </trkpt>
      <trkpt lat="42.07781" lon="0.64331">
        <ele>1107.754</ele>
        <time>2014-11-16T10:46:06Z</time>
      </trkpt>
      <trkpt lat="42.0778" lon="0.64331">
        <ele>1107.535</ele>
        <time>2014-11-16T10:46:02Z</time>
      </trkpt>
      <trkpt lat="42.07778" lon="0.64332">
        <ele>1106.857</ele>
        <time>2014-11-16T10:46:00Z</time>
      </trkpt>
      <trkpt lat="42.07777" lon="0.64332">
        <ele>1106.42</ele>
        <time>2014-11-16T10:45:58Z</time>
      </trkpt>
      <trkpt lat="42.07777" lon="0.64331">
        <ele>1106.041</ele>
        <time>2014-11-16T10:45:57Z</time>
      </trkpt>
      <trkpt lat="42.07776" lon="0.64329">
        <ele>1105.298</ele>
        <time>2014-11-16T10:45:54Z</time>
      </trkpt>
      <trkpt lat="42.07776" lon="0.64327">
        <ele>1104.752</ele>
        <time>2014-11-16T10:45:53Z</time>
      </trkpt>
      <trkpt lat="42.07775" lon="0.64325">
        <ele>1104.071</ele>
        <time>2014-11-16T10:45:52Z</time>
      </trkpt>
      <trkpt lat="42.07775" lon="0.64323">
        <ele>1103.541</ele>
        <time>2014-11-16T10:45:50Z</time>
      </trkpt>
      <trkpt lat="42.07774" lon="0.64321">
        <ele>1102.715</ele>
        <time>2014-11-16T10:45:46Z</time>
      </trkpt>
      <trkpt lat="42.07774" lon="0.64319">
        <ele>1102.208</ele>
        <time>2014-11-16T10:45:44Z</time>
      </trkpt>
      <trkpt lat="42.07774" lon="0.64318">
        <ele>1101.619</ele>
        <time>2014-11-16T10:45:42Z</time>
      </trkpt>
      <trkpt lat="42.07773" lon="0.64316">
        <ele>1101.128</ele>
        <time>2014-11-16T10:45:40Z</time>
      </trkpt>
      <trkpt lat="42.07773" lon="0.64313">
        <ele>1100.349</ele>
        <time>2014-11-16T10:45:38Z</time>
      </trkpt>
      <trkpt lat="42.07773" lon="0.64312">
        <ele>1100.021</ele>
        <time>2014-11-16T10:45:36Z</time>
      </trkpt>
      <trkpt lat="42.07772" lon="0.64313">
        <ele>1100.044</ele>
        <time>2014-11-16T10:45:34Z</time>
      </trkpt>
      <trkpt lat="42.07771" lon="0.64314">
        <ele>1099.455</ele>
        <time>2014-11-16T10:45:32Z</time>
      </trkpt>
      <trkpt lat="42.0777" lon="0.64314">
        <ele>1099.112</ele>
        <time>2014-11-16T10:45:26Z</time>
      </trkpt>
      <trkpt lat="42.07768" lon="0.64315">
        <ele>1098.796</ele>
        <time>2014-11-16T10:45:25Z</time>
      </trkpt>
      <trkpt lat="42.07767" lon="0.64316">
        <ele>1098.076</ele>
        <time>2014-11-16T10:45:24Z</time>
      </trkpt>
      <trkpt lat="42.07765" lon="0.64317">
        <ele>1097.69</ele>
        <time>2014-11-16T10:45:17Z</time>
      </trkpt>
      <trkpt lat="42.07765" lon="0.64316">
        <ele>1097.119</ele>
        <time>2014-11-16T10:45:15Z</time>
      </trkpt>
      <trkpt lat="42.07764" lon="0.64317">
        <ele>1096.908</ele>
        <time>2014-11-16T10:45:14Z</time>
      </trkpt>
      <trkpt lat="42.07762" lon="0.64319">
        <ele>1096.739</ele>
        <time>2014-11-16T10:45:11Z</time>
      </trkpt>
      <trkpt lat="42.07761" lon="0.6432">
        <ele>1096.428</ele>
        <time>2014-11-16T10:45:10Z</time>
      </trkpt>
      <trkpt lat="42.0776" lon="0.64322">
        <ele>1096.249</ele>
        <time>2014-11-16T10:45:09Z</time>
      </trkpt>
      <trkpt lat="42.07759" lon="0.64323">
        <ele>1096.251</ele>
        <time>2014-11-16T10:45:06Z</time>
      </trkpt>
      <trkpt lat="42.07758" lon="0.64325">
        <ele>1096.114</ele>
        <time>2014-11-16T10:45:05Z</time>
      </trkpt>
      <trkpt lat="42.07757" lon="0.64326">
        <ele>1095.885</ele>
        <time>2014-11-16T10:45:03Z</time>
      </trkpt>
      <trkpt lat="42.07756" lon="0.64329">
        <ele>1095.672</ele>
        <time>2014-11-16T10:45:01Z</time>
      </trkpt>
      <trkpt lat="42.07754" lon="0.6433">
        <ele>1095.316</ele>
        <time>2014-11-16T10:45:00Z</time>
      </trkpt>
      <trkpt lat="42.07753" lon="0.64332">
        <ele>1095.257</ele>
        <time>2014-11-16T10:44:58Z</time>
      </trkpt>
      <trkpt lat="42.07752" lon="0.64334">
        <ele>1095.2</ele>
        <time>2014-11-16T10:44:57Z</time>
      </trkpt>
      <trkpt lat="42.07751" lon="0.64335">
        <ele>1094.72</ele>
        <time>2014-11-16T10:44:56Z</time>
      </trkpt>
      <trkpt lat="42.0775" lon="0.64335">
        <ele>1094.208</ele>
        <time>2014-11-16T10:44:55Z</time>
      </trkpt>
      <trkpt lat="42.07749" lon="0.64336">
        <ele>1093.747</ele>
        <time>2014-11-16T10:44:53Z</time>
      </trkpt>
      <trkpt lat="42.07747" lon="0.64336">
        <ele>1093.026</ele>
        <time>2014-11-16T10:44:52Z</time>
      </trkpt>
      <trkpt lat="42.07745" lon="0.64338">
        <ele>1092.337</ele>
        <time>2014-11-16T10:44:51Z</time>
      </trkpt>
      <trkpt lat="42.07744" lon="0.6434">
        <ele>1092.299</ele>
        <time>2014-11-16T10:44:50Z</time>
      </trkpt>
      <trkpt lat="42.07744" lon="0.64341">
        <ele>1092.482</ele>
        <time>2014-11-16T10:44:49Z</time>
      </trkpt>
      <trkpt lat="42.07744" lon="0.64343">
        <ele>1092.533</ele>
        <time>2014-11-16T10:44:48Z</time>
      </trkpt>
      <trkpt lat="42.07743" lon="0.64344">
        <ele>1092.42</ele>
        <time>2014-11-16T10:44:47Z</time>
      </trkpt>
      <trkpt lat="42.07742" lon="0.64344">
        <ele>1092.014</ele>
        <time>2014-11-16T10:44:43Z</time>
      </trkpt>
      <trkpt lat="42.0774" lon="0.64347">
        <ele>1091.282</ele>
        <time>2014-11-16T10:44:41Z</time>
      </trkpt>
      <trkpt lat="42.07739" lon="0.64348">
        <ele>1091.143</ele>
        <time>2014-11-16T10:44:39Z</time>
      </trkpt>
      <trkpt lat="42.07739" lon="0.6435">
        <ele>1091.317</ele>
        <time>2014-11-16T10:44:37Z</time>
      </trkpt>
      <trkpt lat="42.0774" lon="0.64352">
        <ele>1092.108</ele>
        <time>2014-11-16T10:44:31Z</time>
      </trkpt>
      <trkpt lat="42.07739" lon="0.64354">
        <ele>1092.23</ele>
        <time>2014-11-16T10:44:29Z</time>
      </trkpt>
      <trkpt lat="42.07739" lon="0.64355">
        <ele>1092.229</ele>
        <time>2014-11-16T10:44:28Z</time>
      </trkpt>
      <trkpt lat="42.07737" lon="0.64355">
        <ele>1091.58</ele>
        <time>2014-11-16T10:44:26Z</time>
      </trkpt>
      <trkpt lat="42.07737" lon="0.64356">
        <ele>1091.582</ele>
        <time>2014-11-16T10:44:25Z</time>
      </trkpt>
      <trkpt lat="42.07736" lon="0.64357">
        <ele>1091.225</ele>
        <time>2014-11-16T10:44:21Z</time>
      </trkpt>
      <trkpt lat="42.07735" lon="0.64355">
        <ele>1090.686</ele>
        <time>2014-11-16T10:44:20Z</time>
      </trkpt>
      <trkpt lat="42.07735" lon="0.64353">
        <ele>1089.913</ele>
        <time>2014-11-16T10:44:19Z</time>
      </trkpt>
      <trkpt lat="42.07735" lon="0.64349">
        <ele>1089.127</ele>
        <time>2014-11-16T10:44:18Z</time>
      </trkpt>
      <trkpt lat="42.07734" lon="0.64348">
        <ele>1088.755</ele>
        <time>2014-11-16T10:44:17Z</time>
      </trkpt>
      <trkpt lat="42.07734" lon="0.64346">
        <ele>1088.207</ele>
        <time>2014-11-16T10:44:14Z</time>
      </trkpt>
      <trkpt lat="42.07735" lon="0.64344">
        <ele>1088.117</ele>
        <time>2014-11-16T10:44:13Z</time>
      </trkpt>
      <trkpt lat="42.07736" lon="0.64342">
        <ele>1088.208</ele>
        <time>2014-11-16T10:44:12Z</time>
      </trkpt>
      <trkpt lat="42.07736" lon="0.6434">
        <ele>1088.317</ele>
        <time>2014-11-16T10:44:11Z</time>
      </trkpt>
      <trkpt lat="42.07737" lon="0.64338">
        <ele>1088.356</ele>
        <time>2014-11-16T10:44:09Z</time>
      </trkpt>
      <trkpt lat="42.07737" lon="0.64337">
        <ele>1088.017</ele>
        <time>2014-11-16T10:44:05Z</time>
      </trkpt>
      <trkpt lat="42.07737" lon="0.64335">
        <ele>1087.889</ele>
        <time>2014-11-16T10:44:03Z</time>
      </trkpt>
      <trkpt lat="42.07738" lon="0.64333">
        <ele>1087.892</ele>
        <time>2014-11-16T10:44:02Z</time>
      </trkpt>
      <trkpt lat="42.07738" lon="0.64331">
        <ele>1087.693</ele>
        <time>2014-11-16T10:44:00Z</time>
      </trkpt>
      <trkpt lat="42.07738" lon="0.64331">
        <ele>1087.31</ele>
        <time>2014-11-16T10:43:59Z</time>
      </trkpt>
      <trkpt lat="42.07738" lon="0.64327">
        <ele>1086.944</ele>
        <time>2014-11-16T10:43:57Z</time>
      </trkpt>
      <trkpt lat="42.07738" lon="0.64325">
        <ele>1086.665</ele>
        <time>2014-11-16T10:43:46Z</time>
      </trkpt>
      <trkpt lat="42.07738" lon="0.64323">
        <ele>1086.068</ele>
        <time>2014-11-16T10:43:39Z</time>
      </trkpt>
      <trkpt lat="42.07737" lon="0.64323">
        <ele>1085.714</ele>
        <time>2014-11-16T10:43:25Z</time>
      </trkpt>
      <trkpt lat="42.07736" lon="0.64324">
        <ele>1085.408</ele>
        <time>2014-11-16T10:43:14Z</time>
      </trkpt>
      <trkpt lat="42.07734" lon="0.64325">
        <ele>1084.438</ele>
        <time>2014-11-16T10:43:10Z</time>
      </trkpt>
      <trkpt lat="42.07733" lon="0.64324">
        <ele>1083.527</ele>
        <time>2014-11-16T10:43:08Z</time>
      </trkpt>
      <trkpt lat="42.07731" lon="0.64323">
        <ele>1082.698</ele>
        <time>2014-11-16T10:43:07Z</time>
      </trkpt>
      <trkpt lat="42.07731" lon="0.6432">
        <ele>1081.86</ele>
        <time>2014-11-16T10:43:06Z</time>
      </trkpt>
      <trkpt lat="42.0773" lon="0.64319">
        <ele>1081.223</ele>
        <time>2014-11-16T10:43:05Z</time>
      </trkpt>
      <trkpt lat="42.07729" lon="0.64318">
        <ele>1080.794</ele>
        <time>2014-11-16T10:43:04Z</time>
      </trkpt>
      <trkpt lat="42.07728" lon="0.64318">
        <ele>1080.031</ele>
        <time>2014-11-16T10:43:03Z</time>
      </trkpt>
      <trkpt lat="42.07727" lon="0.64317">
        <ele>1079.415</ele>
        <time>2014-11-16T10:43:00Z</time>
      </trkpt>
      <trkpt lat="42.07726" lon="0.64316">
        <ele>1079.099</ele>
        <time>2014-11-16T10:42:59Z</time>
      </trkpt>
      <trkpt lat="42.07727" lon="0.64314">
        <ele>1078.807</ele>
        <time>2014-11-16T10:42:58Z</time>
      </trkpt>
      <trkpt lat="42.07727" lon="0.64313">
        <ele>1078.627</ele>
        <time>2014-11-16T10:42:57Z</time>
      </trkpt>
      <trkpt lat="42.07726" lon="0.64312">
        <ele>1078.108</ele>
        <time>2014-11-16T10:42:55Z</time>
      </trkpt>
      <trkpt lat="42.07725" lon="0.64311">
        <ele>1077.431</ele>
        <time>2014-11-16T10:42:53Z</time>
      </trkpt>
      <trkpt lat="42.07724" lon="0.64312">
        <ele>1077.11</ele>
        <time>2014-11-16T10:42:52Z</time>
      </trkpt>
      <trkpt lat="42.07722" lon="0.64312">
        <ele>1076.311</ele>
        <time>2014-11-16T10:42:50Z</time>
      </trkpt>
      <trkpt lat="42.07721" lon="0.64314">
        <ele>1076.123</ele>
        <time>2014-11-16T10:42:48Z</time>
      </trkpt>
      <trkpt lat="42.0772" lon="0.64315">
        <ele>1075.646</ele>
        <time>2014-11-16T10:42:46Z</time>
      </trkpt>
      <trkpt lat="42.07719" lon="0.64315">
        <ele>1075.537</ele>
        <time>2014-11-16T10:42:45Z</time>
      </trkpt>
      <trkpt lat="42.07719" lon="0.64317">
        <ele>1075.724</ele>
        <time>2014-11-16T10:42:43Z</time>
      </trkpt>
      <trkpt lat="42.07719" lon="0.64319">
        <ele>1076.168</ele>
        <time>2014-11-16T10:42:41Z</time>
      </trkpt>
      <trkpt lat="42.07718" lon="0.64318">
        <ele>1075.655</ele>
        <time>2014-11-16T10:42:39Z</time>
      </trkpt>
      <trkpt lat="42.07718" lon="0.64315">
        <ele>1074.807</ele>
        <time>2014-11-16T10:42:37Z</time>
      </trkpt>
      <trkpt lat="42.07717" lon="0.64315">
        <ele>1074.517</ele>
        <time>2014-11-16T10:42:35Z</time>
      </trkpt>
      <trkpt lat="42.07715" lon="0.64314">
        <ele>1073.708</ele>
        <time>2014-11-16T10:42:33Z</time>
      </trkpt>
      <trkpt lat="42.07715" lon="0.64312">
        <ele>1073.147</ele>
        <time>2014-11-16T10:42:32Z</time>
      </trkpt>
      <trkpt lat="42.07714" lon="0.64311">
        <ele>1072.676</ele>
        <time>2014-11-16T10:42:31Z</time>
      </trkpt>
      <trkpt lat="42.07714" lon="0.64309">
        <ele>1072.487</ele>
        <time>2014-11-16T10:42:29Z</time>
      </trkpt>
      <trkpt lat="42.07714" lon="0.64308">
        <ele>1072.379</ele>
        <time>2014-11-16T10:42:28Z</time>
      </trkpt>
      <trkpt lat="42.07714" lon="0.64306">
        <ele>1071.962</ele>
        <time>2014-11-16T10:42:26Z</time>
      </trkpt>
      <trkpt lat="42.07715" lon="0.64305">
        <ele>1071.883</ele>
        <time>2014-11-16T10:42:25Z</time>
      </trkpt>
      <trkpt lat="42.07715" lon="0.64303">
        <ele>1071.61</ele>
        <time>2014-11-16T10:42:23Z</time>
      </trkpt>
      <trkpt lat="42.07715" lon="0.64302">
        <ele>1071.644</ele>
        <time>2014-11-16T10:42:21Z</time>
      </trkpt>
      <trkpt lat="42.07714" lon="0.64303">
        <ele>1071.188</ele>
        <time>2014-11-16T10:42:19Z</time>
      </trkpt>
      <trkpt lat="42.07713" lon="0.64304">
        <ele>1070.924</ele>
        <time>2014-11-16T10:42:13Z</time>
      </trkpt>
      <trkpt lat="42.07712" lon="0.64303">
        <ele>1070.526</ele>
        <time>2014-11-16T10:42:11Z</time>
      </trkpt>
      <trkpt lat="42.07711" lon="0.64302">
        <ele>1069.908</ele>
        <time>2014-11-16T10:42:09Z</time>
      </trkpt>
      <trkpt lat="42.0771" lon="0.64304">
        <ele>1069.89</ele>
        <time>2014-11-16T10:42:02Z</time>
      </trkpt>
      <trkpt lat="42.07709" lon="0.64305">
        <ele>1069.759</ele>
        <time>2014-11-16T10:42:00Z</time>
      </trkpt>
      <trkpt lat="42.0771" lon="0.64306">
        <ele>1070.19</ele>
        <time>2014-11-16T10:41:55Z</time>
      </trkpt>
      <trkpt lat="42.07709" lon="0.64305">
        <ele>1069.612</ele>
        <time>2014-11-16T10:41:48Z</time>
      </trkpt>
      <trkpt lat="42.0771" lon="0.64303">
        <ele>1069.615</ele>
        <time>2014-11-16T10:41:30Z</time>
      </trkpt>
      <trkpt lat="42.0771" lon="0.64302">
        <ele>1069.786</ele>
        <time>2014-11-16T10:41:22Z</time>
      </trkpt>
      <trkpt lat="42.07709" lon="0.64302">
        <ele>1069.093</ele>
        <time>2014-11-16T10:41:13Z</time>
      </trkpt>
      <trkpt lat="42.07708" lon="0.64301">
        <ele>1068.477</ele>
        <time>2014-11-16T10:41:04Z</time>
      </trkpt>
      <trkpt lat="42.07709" lon="0.64301">
        <ele>1068.861</ele>
        <time>2014-11-16T10:41:00Z</time>
      </trkpt>
      <trkpt lat="42.07709" lon="0.64301">
        <ele>1068.921</ele>
        <time>2014-11-16T10:40:59Z</time>
      </trkpt>
      <trkpt lat="42.0771" lon="0.64302">
        <ele>1069.513</ele>
        <time>2014-11-16T10:40:46Z</time>
      </trkpt>
      <trkpt lat="42.07709" lon="0.64302">
        <ele>1069.208</ele>
        <time>2014-11-16T10:40:14Z</time>
      </trkpt>
      <trkpt lat="42.07709" lon="0.64304">
        <ele>1069.568</ele>
        <time>2014-11-16T10:40:04Z</time>
      </trkpt>
      <trkpt lat="42.0771" lon="0.64303">
        <ele>1069.817</ele>
        <time>2014-11-16T10:40:01Z</time>
      </trkpt>
      <trkpt lat="42.0771" lon="0.64304">
        <ele>1070.038</ele>
        <time>2014-11-16T10:39:49Z</time>
      </trkpt>
      <trkpt lat="42.07711" lon="0.64302">
        <ele>1069.85</ele>
        <time>2014-11-16T10:39:41Z</time>
      </trkpt>
      <trkpt lat="42.07712" lon="0.64302">
        <ele>1070.343</ele>
        <time>2014-11-16T10:39:24Z</time>
      </trkpt>
      <trkpt lat="42.0771" lon="0.64302">
        <ele>1069.734</ele>
        <time>2014-11-16T10:39:21Z</time>
      </trkpt>
      <trkpt lat="42.07709" lon="0.64303">
        <ele>1069.261</ele>
        <time>2014-11-16T10:39:20Z</time>
      </trkpt>
      <trkpt lat="42.07708" lon="0.64302">
        <ele>1068.655</ele>
        <time>2014-11-16T10:39:19Z</time>
      </trkpt>
      <trkpt lat="42.07706" lon="0.64303">
        <ele>1068.261</ele>
        <time>2014-11-16T10:39:17Z</time>
      </trkpt>
      <trkpt lat="42.07705" lon="0.64303">
        <ele>1067.721</ele>
        <time>2014-11-16T10:39:13Z</time>
      </trkpt>
      <trkpt lat="42.07704" lon="0.64302">
        <ele>1067.113</ele>
        <time>2014-11-16T10:39:11Z</time>
      </trkpt>
      <trkpt lat="42.07703" lon="0.64302">
        <ele>1066.608</ele>
        <time>2014-11-16T10:39:10Z</time>
      </trkpt>
      <trkpt lat="42.077" lon="0.64303">
        <ele>1065.628</ele>
        <time>2014-11-16T10:39:08Z</time>
      </trkpt>
      <trkpt lat="42.07699" lon="0.64302">
        <ele>1065.147</ele>
        <time>2014-11-16T10:39:06Z</time>
      </trkpt>
      <trkpt lat="42.07698" lon="0.64301">
        <ele>1064.618</ele>
        <time>2014-11-16T10:39:00Z</time>
      </trkpt>
      <trkpt lat="42.07698" lon="0.643">
        <ele>1064.51</ele>
        <time>2014-11-16T10:38:59Z</time>
      </trkpt>
      <trkpt lat="42.07698" lon="0.64298">
        <ele>1064.233</ele>
        <time>2014-11-16T10:38:56Z</time>
      </trkpt>
      <trkpt lat="42.07697" lon="0.64299">
        <ele>1064.054</ele>
        <time>2014-11-16T10:38:54Z</time>
      </trkpt>
      <trkpt lat="42.07696" lon="0.64299">
        <ele>1063.781</ele>
        <time>2014-11-16T10:38:53Z</time>
      </trkpt>
      <trkpt lat="42.07695" lon="0.64298">
        <ele>1062.795</ele>
        <time>2014-11-16T10:38:50Z</time>
      </trkpt>
      <trkpt lat="42.07694" lon="0.64297">
        <ele>1062.111</ele>
        <time>2014-11-16T10:38:49Z</time>
      </trkpt>
      <trkpt lat="42.07693" lon="0.64296">
        <ele>1061.521</ele>
        <time>2014-11-16T10:38:48Z</time>
      </trkpt>
      <trkpt lat="42.07692" lon="0.64294">
        <ele>1061.003</ele>
        <time>2014-11-16T10:38:47Z</time>
      </trkpt>
      <trkpt lat="42.07691" lon="0.64291">
        <ele>1060.308</ele>
        <time>2014-11-16T10:38:45Z</time>
      </trkpt>
      <trkpt lat="42.0769" lon="0.6429">
        <ele>1059.793</ele>
        <time>2014-11-16T10:38:43Z</time>
      </trkpt>
      <trkpt lat="42.0769" lon="0.64288">
        <ele>1059.442</ele>
        <time>2014-11-16T10:38:41Z</time>
      </trkpt>
      <trkpt lat="42.0769" lon="0.64287">
        <ele>1059.053</ele>
        <time>2014-11-16T10:38:40Z</time>
      </trkpt>
      <trkpt lat="42.07689" lon="0.64285">
        <ele>1058.575</ele>
        <time>2014-11-16T10:38:39Z</time>
      </trkpt>
      <trkpt lat="42.07688" lon="0.64284">
        <ele>1057.958</ele>
        <time>2014-11-16T10:38:37Z</time>
      </trkpt>
      <trkpt lat="42.07687" lon="0.64283">
        <ele>1057.419</ele>
        <time>2014-11-16T10:38:36Z</time>
      </trkpt>
      <trkpt lat="42.07686" lon="0.64282">
        <ele>1056.946</ele>
        <time>2014-11-16T10:38:35Z</time>
      </trkpt>
      <trkpt lat="42.07684" lon="0.64283">
        <ele>1056.56</ele>
        <time>2014-11-16T10:38:33Z</time>
      </trkpt>
      <trkpt lat="42.07683" lon="0.64282">
        <ele>1056.076</ele>
        <time>2014-11-16T10:38:31Z</time>
      </trkpt>
      <trkpt lat="42.07683" lon="0.6428">
        <ele>1055.89</ele>
        <time>2014-11-16T10:38:29Z</time>
      </trkpt>
      <trkpt lat="42.07683" lon="0.64278">
        <ele>1055.219</ele>
        <time>2014-11-16T10:38:19Z</time>
      </trkpt>
      <trkpt lat="42.07682" lon="0.64276">
        <ele>1054.708</ele>
        <time>2014-11-16T10:38:18Z</time>
      </trkpt>
      <trkpt lat="42.07681" lon="0.64274">
        <ele>1054.149</ele>
        <time>2014-11-16T10:38:17Z</time>
      </trkpt>
      <trkpt lat="42.0768" lon="0.64274">
        <ele>1053.588</ele>
        <time>2014-11-16T10:38:15Z</time>
      </trkpt>
      <trkpt lat="42.07678" lon="0.64273">
        <ele>1052.869</ele>
        <time>2014-11-16T10:38:13Z</time>
      </trkpt>
      <trkpt lat="42.07677" lon="0.64272">
        <ele>1052.361</ele>
        <time>2014-11-16T10:38:12Z</time>
      </trkpt>
      <trkpt lat="42.07676" lon="0.64269">
        <ele>1051.514</ele>
        <time>2014-11-16T10:38:10Z</time>
      </trkpt>
      <trkpt lat="42.07675" lon="0.64268">
        <ele>1051.095</ele>
        <time>2014-11-16T10:38:05Z</time>
      </trkpt>
      <trkpt lat="42.07674" lon="0.64267">
        <ele>1050.412</ele>
        <time>2014-11-16T10:38:03Z</time>
      </trkpt>
      <trkpt lat="42.07673" lon="0.64266">
        <ele>1050.066</ele>
        <time>2014-11-16T10:38:01Z</time>
      </trkpt>
      <trkpt lat="42.07673" lon="0.64266">
        <ele>1049.659</ele>
        <time>2014-11-16T10:38:00Z</time>
      </trkpt>
      <trkpt lat="42.07672" lon="0.64265">
        <ele>1049.403</ele>
        <time>2014-11-16T10:37:59Z</time>
      </trkpt>
      <trkpt lat="42.07672" lon="0.64264">
        <ele>1049.023</ele>
        <time>2014-11-16T10:37:58Z</time>
      </trkpt>
      <trkpt lat="42.0767" lon="0.64263">
        <ele>1048.508</ele>
        <time>2014-11-16T10:37:56Z</time>
      </trkpt>
      <trkpt lat="42.07669" lon="0.64264">
        <ele>1048.397</ele>
        <time>2014-11-16T10:37:54Z</time>
      </trkpt>
      <trkpt lat="42.07669" lon="0.64266">
        <ele>1048.456</ele>
        <time>2014-11-16T10:37:52Z</time>
      </trkpt>
      <trkpt lat="42.07668" lon="0.64267">
        <ele>1048.447</ele>
        <time>2014-11-16T10:37:46Z</time>
      </trkpt>
      <trkpt lat="42.07666" lon="0.64267">
        <ele>1047.849</ele>
        <time>2014-11-16T10:37:44Z</time>
      </trkpt>
      <trkpt lat="42.07664" lon="0.64266">
        <ele>1047.242</ele>
        <time>2014-11-16T10:37:42Z</time>
      </trkpt>
      <trkpt lat="42.07664" lon="0.64266">
        <ele>1046.893</ele>
        <time>2014-11-16T10:37:40Z</time>
      </trkpt>
      <trkpt lat="42.07663" lon="0.64264">
        <ele>1046.22</ele>
        <time>2014-11-16T10:37:38Z</time>
      </trkpt>
      <trkpt lat="42.07662" lon="0.64264">
        <ele>1045.824</ele>
        <time>2014-11-16T10:37:35Z</time>
      </trkpt>
      <trkpt lat="42.07662" lon="0.64262">
        <ele>1045.581</ele>
        <time>2014-11-16T10:37:32Z</time>
      </trkpt>
      <trkpt lat="42.07662" lon="0.64261">
        <ele>1045.361</ele>
        <time>2014-11-16T10:37:30Z</time>
      </trkpt>
      <trkpt lat="42.07661" lon="0.6426">
        <ele>1044.717</ele>
        <time>2014-11-16T10:37:28Z</time>
      </trkpt>
      <trkpt lat="42.07659" lon="0.64259">
        <ele>1044.108</ele>
        <time>2014-11-16T10:37:26Z</time>
      </trkpt>
      <trkpt lat="42.07659" lon="0.64257">
        <ele>1043.65</ele>
        <time>2014-11-16T10:37:25Z</time>
      </trkpt>
      <trkpt lat="42.07658" lon="0.64256">
        <ele>1043.299</ele>
        <time>2014-11-16T10:37:24Z</time>
      </trkpt>
      <trkpt lat="42.07657" lon="0.64254">
        <ele>1042.87</ele>
        <time>2014-11-16T10:37:21Z</time>
      </trkpt>
      <trkpt lat="42.07656" lon="0.64253">
        <ele>1042.322</ele>
        <time>2014-11-16T10:37:19Z</time>
      </trkpt>
      <trkpt lat="42.07655" lon="0.64253">
        <ele>1041.725</ele>
        <time>2014-11-16T10:37:18Z</time>
      </trkpt>
      <trkpt lat="42.07654" lon="0.64253">
        <ele>1041.376</ele>
        <time>2014-11-16T10:37:17Z</time>
      </trkpt>
      <trkpt lat="42.07652" lon="0.64253">
        <ele>1040.943</ele>
        <time>2014-11-16T10:37:13Z</time>
      </trkpt>
      <trkpt lat="42.07652" lon="0.64252">
        <ele>1040.667</ele>
        <time>2014-11-16T10:37:11Z</time>
      </trkpt>
      <trkpt lat="42.07651" lon="0.64253">
        <ele>1040.369</ele>
        <time>2014-11-16T10:37:09Z</time>
      </trkpt>
      <trkpt lat="42.07648" lon="0.64253">
        <ele>1039.604</ele>
        <time>2014-11-16T10:37:07Z</time>
      </trkpt>
      <trkpt lat="42.07647" lon="0.64253">
        <ele>1039.124</ele>
        <time>2014-11-16T10:37:05Z</time>
      </trkpt>
      <trkpt lat="42.07646" lon="0.64253">
        <ele>1038.808</ele>
        <time>2014-11-16T10:37:04Z</time>
      </trkpt>
      <trkpt lat="42.07644" lon="0.64254">
        <ele>1038.138</ele>
        <time>2014-11-16T10:37:02Z</time>
      </trkpt>
      <trkpt lat="42.07642" lon="0.64254">
        <ele>1037.857</ele>
        <time>2014-11-16T10:37:01Z</time>
      </trkpt>
      <trkpt lat="42.07641" lon="0.64254">
        <ele>1037.468</ele>
        <time>2014-11-16T10:37:00Z</time>
      </trkpt>
      <trkpt lat="42.0764" lon="0.64254">
        <ele>1036.97</ele>
        <time>2014-11-16T10:36:58Z</time>
      </trkpt>
      <trkpt lat="42.07639" lon="0.64252">
        <ele>1036.313</ele>
        <time>2014-11-16T10:36:55Z</time>
      </trkpt>
      <trkpt lat="42.07638" lon="0.64251">
        <ele>1036.044</ele>
        <time>2014-11-16T10:36:53Z</time>
      </trkpt>
      <trkpt lat="42.07638" lon="0.6425">
        <ele>1035.661</ele>
        <time>2014-11-16T10:36:52Z</time>
      </trkpt>
      <trkpt lat="42.07638" lon="0.64248">
        <ele>1035.455</ele>
        <time>2014-11-16T10:36:38Z</time>
      </trkpt>
      <trkpt lat="42.07637" lon="0.64247">
        <ele>1035.042</ele>
        <time>2014-11-16T10:36:36Z</time>
      </trkpt>
      <trkpt lat="42.07636" lon="0.64247">
        <ele>1034.622</ele>
        <time>2014-11-16T10:36:34Z</time>
      </trkpt>
      <trkpt lat="42.07634" lon="0.64248">
        <ele>1033.914</ele>
        <time>2014-11-16T10:36:31Z</time>
      </trkpt>
      <trkpt lat="42.07633" lon="0.64247">
        <ele>1033.408</ele>
        <time>2014-11-16T10:36:30Z</time>
      </trkpt>
      <trkpt lat="42.07631" lon="0.64247">
        <ele>1032.816</ele>
        <time>2014-11-16T10:36:29Z</time>
      </trkpt>
      <trkpt lat="42.0763" lon="0.64248">
        <ele>1032.585</ele>
        <time>2014-11-16T10:36:28Z</time>
      </trkpt>
      <trkpt lat="42.07629" lon="0.64248">
        <ele>1032.036</ele>
        <time>2014-11-16T10:36:26Z</time>
      </trkpt>
      <trkpt lat="42.07628" lon="0.64248">
        <ele>1031.748</ele>
        <time>2014-11-16T10:36:25Z</time>
      </trkpt>
      <trkpt lat="42.07627" lon="0.64249">
        <ele>1031.481</ele>
        <time>2014-11-16T10:36:24Z</time>
      </trkpt>
      <trkpt lat="42.07625" lon="0.64249">
        <ele>1030.932</ele>
        <time>2014-11-16T10:36:22Z</time>
      </trkpt>
      <trkpt lat="42.07623" lon="0.64249">
        <ele>1030.239</ele>
        <time>2014-11-16T10:36:20Z</time>
      </trkpt>
      <trkpt lat="42.07622" lon="0.64249">
        <ele>1029.973</ele>
        <time>2014-11-16T10:36:19Z</time>
      </trkpt>
      <trkpt lat="42.07621" lon="0.64249">
        <ele>1029.385</ele>
        <time>2014-11-16T10:36:17Z</time>
      </trkpt>
      <trkpt lat="42.07619" lon="0.6425">
        <ele>1028.889</ele>
        <time>2014-11-16T10:36:15Z</time>
      </trkpt>
      <trkpt lat="42.07617" lon="0.64249">
        <ele>1028.117</ele>
        <time>2014-11-16T10:36:13Z</time>
      </trkpt>
      <trkpt lat="42.07616" lon="0.64249">
        <ele>1027.508</ele>
        <time>2014-11-16T10:36:11Z</time>
      </trkpt>
      <trkpt lat="42.07615" lon="0.64247">
        <ele>1027.03</ele>
        <time>2014-11-16T10:36:09Z</time>
      </trkpt>
      <trkpt lat="42.07613" lon="0.64246">
        <ele>1026.249</ele>
        <time>2014-11-16T10:36:07Z</time>
      </trkpt>
      <trkpt lat="42.07612" lon="0.64245">
        <ele>1025.65</ele>
        <time>2014-11-16T10:36:05Z</time>
      </trkpt>
      <trkpt lat="42.07611" lon="0.64245">
        <ele>1025.212</ele>
        <time>2014-11-16T10:36:04Z</time>
      </trkpt>
      <trkpt lat="42.0761" lon="0.64246">
        <ele>1025.135</ele>
        <time>2014-11-16T10:36:00Z</time>
      </trkpt>
      <trkpt lat="42.07609" lon="0.64246">
        <ele>1024.946</ele>
        <time>2014-11-16T10:35:56Z</time>
      </trkpt>
      <trkpt lat="42.07609" lon="0.64243">
        <ele>1024.673</ele>
        <time>2014-11-16T10:35:54Z</time>
      </trkpt>
      <trkpt lat="42.0761" lon="0.64241">
        <ele>1024.547</ele>
        <time>2014-11-16T10:35:40Z</time>
      </trkpt>
      <trkpt lat="42.0761" lon="0.6424">
        <ele>1024.251</ele>
        <time>2014-11-16T10:35:39Z</time>
      </trkpt>
      <trkpt lat="42.07609" lon="0.64238">
        <ele>1023.901</ele>
        <time>2014-11-16T10:35:38Z</time>
      </trkpt>
      <trkpt lat="42.07608" lon="0.64238">
        <ele>1023.411</ele>
        <time>2014-11-16T10:35:36Z</time>
      </trkpt>
      <trkpt lat="42.07606" lon="0.64237">
        <ele>1023.008</ele>
        <time>2014-11-16T10:35:35Z</time>
      </trkpt>
      <trkpt lat="42.07605" lon="0.64236">
        <ele>1022.677</ele>
        <time>2014-11-16T10:35:34Z</time>
      </trkpt>
      <trkpt lat="42.07604" lon="0.64235">
        <ele>1022.156</ele>
        <time>2014-11-16T10:35:32Z</time>
      </trkpt>
      <trkpt lat="42.07603" lon="0.64234">
        <ele>1021.847</ele>
        <time>2014-11-16T10:35:31Z</time>
      </trkpt>
      <trkpt lat="42.07603" lon="0.64232">
        <ele>1021.439</ele>
        <time>2014-11-16T10:35:29Z</time>
      </trkpt>
      <trkpt lat="42.07602" lon="0.64231">
        <ele>1021.142</ele>
        <time>2014-11-16T10:35:28Z</time>
      </trkpt>
      <trkpt lat="42.07602" lon="0.64229">
        <ele>1020.763</ele>
        <time>2014-11-16T10:35:27Z</time>
      </trkpt>
      <trkpt lat="42.07602" lon="0.64228">
        <ele>1020.51</ele>
        <time>2014-11-16T10:35:24Z</time>
      </trkpt>
      <trkpt lat="42.07601" lon="0.64226">
        <ele>1020.054</ele>
        <time>2014-11-16T10:35:23Z</time>
      </trkpt>
      <trkpt lat="42.07601" lon="0.64224">
        <ele>1019.775</ele>
        <time>2014-11-16T10:35:20Z</time>
      </trkpt>
      <trkpt lat="42.076" lon="0.64223">
        <ele>1019.328</ele>
        <time>2014-11-16T10:35:19Z</time>
      </trkpt>
      <trkpt lat="42.07599" lon="0.64223">
        <ele>1018.92</ele>
        <time>2014-11-16T10:35:18Z</time>
      </trkpt>
      <trkpt lat="42.07598" lon="0.64221">
        <ele>1018.408</ele>
        <time>2014-11-16T10:35:16Z</time>
      </trkpt>
      <trkpt lat="42.07597" lon="0.6422">
        <ele>1018.159</ele>
        <time>2014-11-16T10:35:15Z</time>
      </trkpt>
      <trkpt lat="42.07597" lon="0.64218">
        <ele>1017.728</ele>
        <time>2014-11-16T10:35:14Z</time>
      </trkpt>
      <trkpt lat="42.07596" lon="0.64217">
        <ele>1017.389</ele>
        <time>2014-11-16T10:35:11Z</time>
      </trkpt>
      <trkpt lat="42.07595" lon="0.64214">
        <ele>1016.581</ele>
        <time>2014-11-16T10:35:09Z</time>
      </trkpt>
      <trkpt lat="42.07595" lon="0.64212">
        <ele>1016.244</ele>
        <time>2014-11-16T10:35:07Z</time>
      </trkpt>
      <trkpt lat="42.07595" lon="0.64211">
        <ele>1015.945</ele>
        <time>2014-11-16T10:35:06Z</time>
      </trkpt>
      <trkpt lat="42.07594" lon="0.64209">
        <ele>1015.492</ele>
        <time>2014-11-16T10:35:04Z</time>
      </trkpt>
      <trkpt lat="42.07593" lon="0.64208">
        <ele>1015.066</ele>
        <time>2014-11-16T10:35:02Z</time>
      </trkpt>
      <trkpt lat="42.07593" lon="0.64207">
        <ele>1014.652</ele>
        <time>2014-11-16T10:35:01Z</time>
      </trkpt>
      <trkpt lat="42.07591" lon="0.64207">
        <ele>1014.153</ele>
        <time>2014-11-16T10:34:59Z</time>
      </trkpt>
      <trkpt lat="42.0759" lon="0.64205">
        <ele>1013.508</ele>
        <time>2014-11-16T10:34:58Z</time>
      </trkpt>
      <trkpt lat="42.07589" lon="0.64204">
        <ele>1013.108</ele>
        <time>2014-11-16T10:34:57Z</time>
      </trkpt>
      <trkpt lat="42.07587" lon="0.64203">
        <ele>1012.687</ele>
        <time>2014-11-16T10:34:54Z</time>
      </trkpt>
      <trkpt lat="42.07588" lon="0.64202">
        <ele>1012.616</ele>
        <time>2014-11-16T10:34:53Z</time>
      </trkpt>
      <trkpt lat="42.07589" lon="0.64201">
        <ele>1012.657</ele>
        <time>2014-11-16T10:34:52Z</time>
      </trkpt>
      <trkpt lat="42.07588" lon="0.64202">
        <ele>1012.519</ele>
        <time>2014-11-16T10:34:48Z</time>
      </trkpt>
      <trkpt lat="42.07587" lon="0.64201">
        <ele>1012.152</ele>
        <time>2014-11-16T10:34:47Z</time>
      </trkpt>
      <trkpt lat="42.07586" lon="0.642">
        <ele>1011.623</ele>
        <time>2014-11-16T10:34:46Z</time>
      </trkpt>
      <trkpt lat="42.07585" lon="0.64199">
        <ele>1011.29</ele>
        <time>2014-11-16T10:34:44Z</time>
      </trkpt>
      <trkpt lat="42.07583" lon="0.64199">
        <ele>1010.884</ele>
        <time>2014-11-16T10:34:43Z</time>
      </trkpt>
      <trkpt lat="42.07582" lon="0.64199">
        <ele>1010.548</ele>
        <time>2014-11-16T10:34:42Z</time>
      </trkpt>
      <trkpt lat="42.0758" lon="0.64199">
        <ele>1010.161</ele>
        <time>2014-11-16T10:34:41Z</time>
      </trkpt>
      <trkpt lat="42.07579" lon="0.64198">
        <ele>1009.717</ele>
        <time>2014-11-16T10:34:38Z</time>
      </trkpt>
      <trkpt lat="42.07579" lon="0.64197">
        <ele>1009.408</ele>
        <time>2014-11-16T10:34:37Z</time>
      </trkpt>
      <trkpt lat="42.07579" lon="0.64195">
        <ele>1009.176</ele>
        <time>2014-11-16T10:34:35Z</time>
      </trkpt>
      <trkpt lat="42.07578" lon="0.64194">
        <ele>1008.895</ele>
        <time>2014-11-16T10:34:33Z</time>
      </trkpt>
      <trkpt lat="42.07577" lon="0.64192">
        <ele>1008.576</ele>
        <time>2014-11-16T10:34:30Z</time>
      </trkpt>
      <trkpt lat="42.07577" lon="0.64191">
        <ele>1008.288</ele>
        <time>2014-11-16T10:34:28Z</time>
      </trkpt>
      <trkpt lat="42.07577" lon="0.6419">
        <ele>1008.061</ele>
        <time>2014-11-16T10:34:26Z</time>
      </trkpt>
      <trkpt lat="42.07577" lon="0.64189">
        <ele>1007.852</ele>
        <time>2014-11-16T10:34:25Z</time>
      </trkpt>
      <trkpt lat="42.07577" lon="0.64187">
        <ele>1007.649</ele>
        <time>2014-11-16T10:34:24Z</time>
      </trkpt>
      <trkpt lat="42.07576" lon="0.64185">
        <ele>1007.333</ele>
        <time>2014-11-16T10:34:23Z</time>
      </trkpt>
      <trkpt lat="42.07575" lon="0.64184">
        <ele>1007.047</ele>
        <time>2014-11-16T10:34:21Z</time>
      </trkpt>
      <trkpt lat="42.07576" lon="0.64182">
        <ele>1006.729</ele>
        <time>2014-11-16T10:34:18Z</time>
      </trkpt>
      <trkpt lat="42.07575" lon="0.64181">
        <ele>1006.421</ele>
        <time>2014-11-16T10:34:17Z</time>
      </trkpt>
      <trkpt lat="42.07574" lon="0.64179">
        <ele>1006.008</ele>
        <time>2014-11-16T10:34:16Z</time>
      </trkpt>
      <trkpt lat="42.07572" lon="0.64178">
        <ele>1005.426</ele>
        <time>2014-11-16T10:34:14Z</time>
      </trkpt>
      <trkpt lat="42.07571" lon="0.64178">
        <ele>1005.115</ele>
        <time>2014-11-16T10:34:13Z</time>
      </trkpt>
      <trkpt lat="42.0757" lon="0.64177">
        <ele>1004.756</ele>
        <time>2014-11-16T10:34:12Z</time>
      </trkpt>
      <trkpt lat="42.07569" lon="0.64178">
        <ele>1004.628</ele>
        <time>2014-11-16T10:34:09Z</time>
      </trkpt>
      <trkpt lat="42.07568" lon="0.64178">
        <ele>1004.361</ele>
        <time>2014-11-16T10:34:07Z</time>
      </trkpt>
      <trkpt lat="42.07566" lon="0.64178">
        <ele>1003.892</ele>
        <time>2014-11-16T10:34:04Z</time>
      </trkpt>
      <trkpt lat="42.07566" lon="0.64177">
        <ele>1003.529</ele>
        <time>2014-11-16T10:34:03Z</time>
      </trkpt>
      <trkpt lat="42.07565" lon="0.64175">
        <ele>1002.983</ele>
        <time>2014-11-16T10:34:02Z</time>
      </trkpt>
      <trkpt lat="42.07562" lon="0.64174">
        <ele>1002.264</ele>
        <time>2014-11-16T10:34:00Z</time>
      </trkpt>
      <trkpt lat="42.07561" lon="0.64174">
        <ele>1001.906</ele>
        <time>2014-11-16T10:33:59Z</time>
      </trkpt>
      <trkpt lat="42.0756" lon="0.64175">
        <ele>1001.616</ele>
        <time>2014-11-16T10:33:58Z</time>
      </trkpt>
      <trkpt lat="42.07559" lon="0.64175">
        <ele>1001.408</ele>
        <time>2014-11-16T10:33:55Z</time>
      </trkpt>
      <trkpt lat="42.07558" lon="0.64173">
        <ele>1000.948</ele>
        <time>2014-11-16T10:33:54Z</time>
      </trkpt>
      <trkpt lat="42.07558" lon="0.64171">
        <ele>1000.497</ele>
        <time>2014-11-16T10:33:53Z</time>
      </trkpt>
      <trkpt lat="42.07556" lon="0.6417">
        <ele>999.878</ele>
        <time>2014-11-16T10:33:51Z</time>
      </trkpt>
      <trkpt lat="42.07555" lon="0.6417">
        <ele>999.46</ele>
        <time>2014-11-16T10:33:50Z</time>
      </trkpt>
      <trkpt lat="42.07553" lon="0.6417">
        <ele>999.383</ele>
        <time>2014-11-16T10:33:48Z</time>
      </trkpt>
      <trkpt lat="42.07552" lon="0.6417">
        <ele>999.164</ele>
        <time>2014-11-16T10:33:47Z</time>
      </trkpt>
      <trkpt lat="42.07551" lon="0.64169">
        <ele>998.911</ele>
        <time>2014-11-16T10:33:46Z</time>
      </trkpt>
      <trkpt lat="42.0755" lon="0.64168">
        <ele>998.695</ele>
        <time>2014-11-16T10:33:45Z</time>
      </trkpt>
      <trkpt lat="42.07549" lon="0.64166">
        <ele>998.317</ele>
        <time>2014-11-16T10:33:44Z</time>
      </trkpt>
      <trkpt lat="42.07548" lon="0.64164">
        <ele>997.987</ele>
        <time>2014-11-16T10:33:41Z</time>
      </trkpt>
      <trkpt lat="42.07547" lon="0.64163">
        <ele>997.715</ele>
        <time>2014-11-16T10:33:39Z</time>
      </trkpt>
      <trkpt lat="42.07545" lon="0.64163">
        <ele>997.508</ele>
        <time>2014-11-16T10:33:36Z</time>
      </trkpt>
      <trkpt lat="42.07544" lon="0.64163">
        <ele>997.353</ele>
        <time>2014-11-16T10:33:33Z</time>
      </trkpt>
      <trkpt lat="42.07543" lon="0.64163">
        <ele>997.142</ele>
        <time>2014-11-16T10:33:32Z</time>
      </trkpt>
      <trkpt lat="42.07542" lon="0.64162">
        <ele>996.923</ele>
        <time>2014-11-16T10:33:30Z</time>
      </trkpt>
      <trkpt lat="42.07541" lon="0.64161">
        <ele>996.775</ele>
        <time>2014-11-16T10:33:29Z</time>
      </trkpt>
      <trkpt lat="42.0754" lon="0.6416">
        <ele>996.518</ele>
        <time>2014-11-16T10:33:28Z</time>
      </trkpt>
      <trkpt lat="42.07539" lon="0.64161">
        <ele>996.449</ele>
        <time>2014-11-16T10:33:26Z</time>
      </trkpt>
      <trkpt lat="42.07538" lon="0.6416">
        <ele>996.276</ele>
        <time>2014-11-16T10:33:25Z</time>
      </trkpt>
      <trkpt lat="42.07537" lon="0.64159">
        <ele>995.94</ele>
        <time>2014-11-16T10:33:22Z</time>
      </trkpt>
      <trkpt lat="42.07537" lon="0.64158">
        <ele>995.775</ele>
        <time>2014-11-16T10:33:19Z</time>
      </trkpt>
      <trkpt lat="42.07536" lon="0.64157">
        <ele>995.528</ele>
        <time>2014-11-16T10:33:18Z</time>
      </trkpt>
      <trkpt lat="42.07535" lon="0.64156">
        <ele>995.22</ele>
        <time>2014-11-16T10:33:15Z</time>
      </trkpt>
      <trkpt lat="42.07534" lon="0.64156">
        <ele>994.908</ele>
        <time>2014-11-16T10:33:14Z</time>
      </trkpt>
      <trkpt lat="42.07533" lon="0.64154">
        <ele>994.559</ele>
        <time>2014-11-16T10:33:12Z</time>
      </trkpt>
      <trkpt lat="42.07532" lon="0.64154">
        <ele>994.328</ele>
        <time>2014-11-16T10:33:11Z</time>
      </trkpt>
      <trkpt lat="42.07531" lon="0.64153">
        <ele>994.049</ele>
        <time>2014-11-16T10:33:10Z</time>
      </trkpt>
      <trkpt lat="42.0753" lon="0.64152">
        <ele>993.781</ele>
        <time>2014-11-16T10:33:09Z</time>
      </trkpt>
      <trkpt lat="42.07529" lon="0.6415">
        <ele>993.324</ele>
        <time>2014-11-16T10:33:08Z</time>
      </trkpt>
      <trkpt lat="42.07529" lon="0.64149">
        <ele>993.075</ele>
        <time>2014-11-16T10:33:07Z</time>
      </trkpt>
      <trkpt lat="42.07529" lon="0.64147">
        <ele>992.642</ele>
        <time>2014-11-16T10:33:05Z</time>
      </trkpt>
      <trkpt lat="42.07529" lon="0.64145">
        <ele>992.416</ele>
        <time>2014-11-16T10:33:04Z</time>
      </trkpt>
      <trkpt lat="42.07529" lon="0.64143">
        <ele>992.063</ele>
        <time>2014-11-16T10:33:03Z</time>
      </trkpt>
      <trkpt lat="42.07529" lon="0.64141">
        <ele>991.744</ele>
        <time>2014-11-16T10:33:00Z</time>
      </trkpt>
      <trkpt lat="42.07528" lon="0.6414">
        <ele>991.318</ele>
        <time>2014-11-16T10:32:59Z</time>
      </trkpt>
      <trkpt lat="42.07526" lon="0.64139">
        <ele>990.908</ele>
        <time>2014-11-16T10:32:58Z</time>
      </trkpt>
      <trkpt lat="42.07525" lon="0.64139">
        <ele>990.728</ele>
        <time>2014-11-16T10:32:57Z</time>
      </trkpt>
      <trkpt lat="42.07524" lon="0.64139">
        <ele>990.567</ele>
        <time>2014-11-16T10:32:55Z</time>
      </trkpt>
      <trkpt lat="42.07522" lon="0.64139">
        <ele>990.468</ele>
        <time>2014-11-16T10:32:54Z</time>
      </trkpt>
      <trkpt lat="42.07521" lon="0.64141">
        <ele>990.62</ele>
        <time>2014-11-16T10:32:49Z</time>
      </trkpt>
      <trkpt lat="42.07521" lon="0.6414">
        <ele>990.483</ele>
        <time>2014-11-16T10:32:45Z</time>
      </trkpt>
      <trkpt lat="42.07519" lon="0.64141">
        <ele>990.444</ele>
        <time>2014-11-16T10:32:43Z</time>
      </trkpt>
      <trkpt lat="42.07517" lon="0.64141">
        <ele>990.241</ele>
        <time>2014-11-16T10:32:42Z</time>
      </trkpt>
      <trkpt lat="42.07516" lon="0.6414">
        <ele>989.985</ele>
        <time>2014-11-16T10:32:41Z</time>
      </trkpt>
      <trkpt lat="42.07514" lon="0.6414">
        <ele>989.881</ele>
        <time>2014-11-16T10:32:40Z</time>
      </trkpt>
      <trkpt lat="42.07513" lon="0.6414">
        <ele>989.661</ele>
        <time>2014-11-16T10:32:38Z</time>
      </trkpt>
      <trkpt lat="42.07513" lon="0.64138">
        <ele>989.317</ele>
        <time>2014-11-16T10:32:36Z</time>
      </trkpt>
      <trkpt lat="42.07512" lon="0.64138">
        <ele>989.208</ele>
        <time>2014-11-16T10:32:34Z</time>
      </trkpt>
      <trkpt lat="42.07511" lon="0.64137">
        <ele>989.01</ele>
        <time>2014-11-16T10:32:33Z</time>
      </trkpt>
      <trkpt lat="42.0751" lon="0.64136">
        <ele>988.829</ele>
        <time>2014-11-16T10:32:32Z</time>
      </trkpt>
      <trkpt lat="42.07509" lon="0.64134">
        <ele>988.45</ele>
        <time>2014-11-16T10:32:30Z</time>
      </trkpt>
      <trkpt lat="42.07509" lon="0.64132">
        <ele>988.192</ele>
        <time>2014-11-16T10:32:26Z</time>
      </trkpt>
      <trkpt lat="42.0751" lon="0.64132">
        <ele>988.355</ele>
        <time>2014-11-16T10:32:20Z</time>
      </trkpt>
      <trkpt lat="42.07509" lon="0.64131">
        <ele>988.046</ele>
        <time>2014-11-16T10:32:18Z</time>
      </trkpt>
      <trkpt lat="42.07508" lon="0.64129">
        <ele>987.783</ele>
        <time>2014-11-16T10:32:16Z</time>
      </trkpt>
      <trkpt lat="42.07506" lon="0.64128">
        <ele>987.367</ele>
        <time>2014-11-16T10:32:14Z</time>
      </trkpt>
      <trkpt lat="42.07506" lon="0.64127">
        <ele>987.116</ele>
        <time>2014-11-16T10:32:12Z</time>
      </trkpt>
      <trkpt lat="42.07506" lon="0.64125">
        <ele>986.976</ele>
        <time>2014-11-16T10:32:10Z</time>
      </trkpt>
      <trkpt lat="42.07507" lon="0.64124">
        <ele>986.913</ele>
        <time>2014-11-16T10:32:07Z</time>
      </trkpt>
      <trkpt lat="42.07506" lon="0.64122">
        <ele>986.608</ele>
        <time>2014-11-16T10:32:05Z</time>
      </trkpt>
      <trkpt lat="42.07505" lon="0.64119">
        <ele>986.023</ele>
        <time>2014-11-16T10:32:03Z</time>
      </trkpt>
      <trkpt lat="42.07506" lon="0.64118">
        <ele>986.082</ele>
        <time>2014-11-16T10:32:00Z</time>
      </trkpt>
      <trkpt lat="42.07506" lon="0.64118">
        <ele>985.953</ele>
        <time>2014-11-16T10:31:57Z</time>
      </trkpt>
      <trkpt lat="42.07505" lon="0.64117">
        <ele>985.785</ele>
        <time>2014-11-16T10:31:55Z</time>
      </trkpt>
      <trkpt lat="42.07504" lon="0.64116">
        <ele>985.398</ele>
        <time>2014-11-16T10:31:54Z</time>
      </trkpt>
      <trkpt lat="42.07502" lon="0.64114">
        <ele>984.819</ele>
        <time>2014-11-16T10:31:53Z</time>
      </trkpt>
      <trkpt lat="42.07501" lon="0.64112">
        <ele>984.386</ele>
        <time>2014-11-16T10:31:52Z</time>
      </trkpt>
      <trkpt lat="42.075" lon="0.64111">
        <ele>983.99</ele>
        <time>2014-11-16T10:31:51Z</time>
      </trkpt>
      <trkpt lat="42.07499" lon="0.6411">
        <ele>983.849</ele>
        <time>2014-11-16T10:31:50Z</time>
      </trkpt>
      <trkpt lat="42.07497" lon="0.64109">
        <ele>983.502</ele>
        <time>2014-11-16T10:31:48Z</time>
      </trkpt>
      <trkpt lat="42.07496" lon="0.64108">
        <ele>983.422</ele>
        <time>2014-11-16T10:31:47Z</time>
      </trkpt>
      <trkpt lat="42.07495" lon="0.64109">
        <ele>983.208</ele>
        <time>2014-11-16T10:31:46Z</time>
      </trkpt>
      <trkpt lat="42.07493" lon="0.64109">
        <ele>983.186</ele>
        <time>2014-11-16T10:31:45Z</time>
      </trkpt>
      <trkpt lat="42.07492" lon="0.64108">
        <ele>982.875</ele>
        <time>2014-11-16T10:31:44Z</time>
      </trkpt>
      <trkpt lat="42.0749" lon="0.64107">
        <ele>982.566</ele>
        <time>2014-11-16T10:31:43Z</time>
      </trkpt>
      <trkpt lat="42.07489" lon="0.64105">
        <ele>982.268</ele>
        <time>2014-11-16T10:31:42Z</time>
      </trkpt>
      <trkpt lat="42.07488" lon="0.64104">
        <ele>981.911</ele>
        <time>2014-11-16T10:31:39Z</time>
      </trkpt>
      <trkpt lat="42.07486" lon="0.64102">
        <ele>981.612</ele>
        <time>2014-11-16T10:31:37Z</time>
      </trkpt>
      <trkpt lat="42.07484" lon="0.641">
        <ele>981.149</ele>
        <time>2014-11-16T10:31:36Z</time>
      </trkpt>
      <trkpt lat="42.07483" lon="0.64098">
        <ele>980.783</ele>
        <time>2014-11-16T10:31:35Z</time>
      </trkpt>
      <trkpt lat="42.07483" lon="0.64097">
        <ele>980.575</ele>
        <time>2014-11-16T10:31:33Z</time>
      </trkpt>
      <trkpt lat="42.07483" lon="0.64095">
        <ele>980.228</ele>
        <time>2014-11-16T10:31:31Z</time>
      </trkpt>
      <trkpt lat="42.07483" lon="0.64093">
        <ele>980.12</ele>
        <time>2014-11-16T10:31:30Z</time>
      </trkpt>
      <trkpt lat="42.07483" lon="0.64091">
        <ele>979.908</ele>
        <time>2014-11-16T10:31:28Z</time>
      </trkpt>
      <trkpt lat="42.07483" lon="0.6409">
        <ele>979.719</ele>
        <time>2014-11-16T10:31:27Z</time>
      </trkpt>
      <trkpt lat="42.07482" lon="0.64088">
        <ele>979.378</ele>
        <time>2014-11-16T10:31:26Z</time>
      </trkpt>
      <trkpt lat="42.07481" lon="0.64088">
        <ele>979.189</ele>
        <time>2014-11-16T10:31:23Z</time>
      </trkpt>
      <trkpt lat="42.0748" lon="0.64089">
        <ele>979.091</ele>
        <time>2014-11-16T10:31:22Z</time>
      </trkpt>
      <trkpt lat="42.07478" lon="0.6409">
        <ele>978.884</ele>
        <time>2014-11-16T10:31:21Z</time>
      </trkpt>
      <trkpt lat="42.07476" lon="0.6409">
        <ele>978.735</ele>
        <time>2014-11-16T10:31:20Z</time>
      </trkpt>
      <trkpt lat="42.07474" lon="0.6409">
        <ele>978.482</ele>
        <time>2014-11-16T10:31:18Z</time>
      </trkpt>
      <trkpt lat="42.07473" lon="0.6409">
        <ele>978.236</ele>
        <time>2014-11-16T10:31:16Z</time>
      </trkpt>
      <trkpt lat="42.07472" lon="0.6409">
        <ele>977.983</ele>
        <time>2014-11-16T10:31:15Z</time>
      </trkpt>
      <trkpt lat="42.07471" lon="0.64089">
        <ele>977.625</ele>
        <time>2014-11-16T10:31:14Z</time>
      </trkpt>
      <trkpt lat="42.07469" lon="0.64088">
        <ele>977.417</ele>
        <time>2014-11-16T10:31:13Z</time>
      </trkpt>
      <trkpt lat="42.07468" lon="0.64087">
        <ele>977.108</ele>
        <time>2014-11-16T10:31:12Z</time>
      </trkpt>
      <trkpt lat="42.07467" lon="0.64085">
        <ele>976.72</ele>
        <time>2014-11-16T10:31:11Z</time>
      </trkpt>
      <trkpt lat="42.07466" lon="0.64083">
        <ele>976.329</ele>
        <time>2014-11-16T10:31:10Z</time>
      </trkpt>
      <trkpt lat="42.07464" lon="0.64082">
        <ele>976.13</ele>
        <time>2014-11-16T10:31:09Z</time>
      </trkpt>
      <trkpt lat="42.07463" lon="0.64082">
        <ele>975.972</ele>
        <time>2014-11-16T10:31:07Z</time>
      </trkpt>
      <trkpt lat="42.07461" lon="0.64081">
        <ele>975.775</ele>
        <time>2014-11-16T10:31:05Z</time>
      </trkpt>
      <trkpt lat="42.0746" lon="0.6408">
        <ele>975.656</ele>
        <time>2014-11-16T10:31:04Z</time>
      </trkpt>
      <trkpt lat="42.0746" lon="0.64079">
        <ele>975.423</ele>
        <time>2014-11-16T10:31:03Z</time>
      </trkpt>
      <trkpt lat="42.07458" lon="0.64079">
        <ele>975.237</ele>
        <time>2014-11-16T10:31:00Z</time>
      </trkpt>
      <trkpt lat="42.07457" lon="0.64079">
        <ele>975.119</ele>
        <time>2014-11-16T10:30:59Z</time>
      </trkpt>
      <trkpt lat="42.07456" lon="0.64078">
        <ele>974.909</ele>
        <time>2014-11-16T10:30:58Z</time>
      </trkpt>
      <trkpt lat="42.07455" lon="0.64077">
        <ele>974.819</ele>
        <time>2014-11-16T10:30:57Z</time>
      </trkpt>
      <trkpt lat="42.07454" lon="0.64075">
        <ele>974.608</ele>
        <time>2014-11-16T10:30:55Z</time>
      </trkpt>
      <trkpt lat="42.07453" lon="0.64073">
        <ele>974.313</ele>
        <time>2014-11-16T10:30:54Z</time>
      </trkpt>
      <trkpt lat="42.07451" lon="0.6407">
        <ele>973.962</ele>
        <time>2014-11-16T10:30:53Z</time>
      </trkpt>
      <trkpt lat="42.07451" lon="0.64068">
        <ele>973.783</ele>
        <time>2014-11-16T10:30:52Z</time>
      </trkpt>
      <trkpt lat="42.0745" lon="0.64066">
        <ele>973.585</ele>
        <time>2014-11-16T10:30:51Z</time>
      </trkpt>
      <trkpt lat="42.07449" lon="0.64067">
        <ele>973.398</ele>
        <time>2014-11-16T10:30:48Z</time>
      </trkpt>
      <trkpt lat="42.07447" lon="0.64067">
        <ele>973.269</ele>
        <time>2014-11-16T10:30:47Z</time>
      </trkpt>
      <trkpt lat="42.07446" lon="0.64067">
        <ele>973.026</ele>
        <time>2014-11-16T10:30:46Z</time>
      </trkpt>
      <trkpt lat="42.07444" lon="0.64066">
        <ele>972.86</ele>
        <time>2014-11-16T10:30:45Z</time>
      </trkpt>
      <trkpt lat="42.07443" lon="0.64066">
        <ele>972.638</ele>
        <time>2014-11-16T10:30:44Z</time>
      </trkpt>
      <trkpt lat="42.07443" lon="0.64065">
        <ele>972.47</ele>
        <time>2014-11-16T10:30:43Z</time>
      </trkpt>
      <trkpt lat="42.07441" lon="0.64064">
        <ele>972.317</ele>
        <time>2014-11-16T10:30:42Z</time>
      </trkpt>
      <trkpt lat="42.0744" lon="0.64064">
        <ele>972.108</ele>
        <time>2014-11-16T10:30:41Z</time>
      </trkpt>
      <trkpt lat="42.07439" lon="0.64063">
        <ele>971.855</ele>
        <time>2014-11-16T10:30:40Z</time>
      </trkpt>
      <trkpt lat="42.07437" lon="0.64062">
        <ele>971.534</ele>
        <time>2014-11-16T10:30:39Z</time>
      </trkpt>
      <trkpt lat="42.07436" lon="0.64061">
        <ele>971.355</ele>
        <time>2014-11-16T10:30:38Z</time>
      </trkpt>
      <trkpt lat="42.07435" lon="0.64061">
        <ele>971.177</ele>
        <time>2014-11-16T10:30:37Z</time>
      </trkpt>
      <trkpt lat="42.07434" lon="0.64062">
        <ele>971.24</ele>
        <time>2014-11-16T10:30:34Z</time>
      </trkpt>
      <trkpt lat="42.07434" lon="0.64063">
        <ele>971.291</ele>
        <time>2014-11-16T10:30:32Z</time>
      </trkpt>
      <trkpt lat="42.07433" lon="0.64065">
        <ele>971.368</ele>
        <time>2014-11-16T10:30:31Z</time>
      </trkpt>
      <trkpt lat="42.07431" lon="0.64067">
        <ele>971.342</ele>
        <time>2014-11-16T10:30:30Z</time>
      </trkpt>
      <trkpt lat="42.07429" lon="0.64069">
        <ele>971.385</ele>
        <time>2014-11-16T10:30:29Z</time>
      </trkpt>
      <trkpt lat="42.07427" lon="0.6407">
        <ele>971.289</ele>
        <time>2014-11-16T10:30:28Z</time>
      </trkpt>
      <trkpt lat="42.07425" lon="0.64071">
        <ele>971.117</ele>
        <time>2014-11-16T10:30:27Z</time>
      </trkpt>
      <trkpt lat="42.07423" lon="0.64072">
        <ele>971.108</ele>
        <time>2014-11-16T10:30:23Z</time>
      </trkpt>
      <trkpt lat="42.07422" lon="0.64072">
        <ele>971.05</ele>
        <time>2014-11-16T10:30:22Z</time>
      </trkpt>
      <trkpt lat="42.07421" lon="0.64071">
        <ele>970.749</ele>
        <time>2014-11-16T10:30:21Z</time>
      </trkpt>
      <trkpt lat="42.0742" lon="0.6407">
        <ele>970.59</ele>
        <time>2014-11-16T10:30:20Z</time>
      </trkpt>
      <trkpt lat="42.0742" lon="0.64069">
        <ele>970.282</ele>
        <time>2014-11-16T10:30:18Z</time>
      </trkpt>
      <trkpt lat="42.07418" lon="0.64066">
        <ele>969.785</ele>
        <time>2014-11-16T10:30:16Z</time>
      </trkpt>
      <trkpt lat="42.07418" lon="0.64065">
        <ele>969.456</ele>
        <time>2014-11-16T10:30:15Z</time>
      </trkpt>
      <trkpt lat="42.07417" lon="0.64063">
        <ele>969.163</ele>
        <time>2014-11-16T10:30:14Z</time>
      </trkpt>
      <trkpt lat="42.07417" lon="0.64062">
        <ele>968.957</ele>
        <time>2014-11-16T10:30:13Z</time>
      </trkpt>
      <trkpt lat="42.07417" lon="0.6406">
        <ele>968.712</ele>
        <time>2014-11-16T10:30:12Z</time>
      </trkpt>
      <trkpt lat="42.07416" lon="0.6406">
        <ele>968.632</ele>
        <time>2014-11-16T10:30:11Z</time>
      </trkpt>
      <trkpt lat="42.07414" lon="0.64059">
        <ele>968.305</ele>
        <time>2014-11-16T10:30:10Z</time>
      </trkpt>
      <trkpt lat="42.07413" lon="0.64057">
        <ele>968.008</ele>
        <time>2014-11-16T10:30:09Z</time>
      </trkpt>
      <trkpt lat="42.07412" lon="0.64055">
        <ele>967.693</ele>
        <time>2014-11-16T10:30:08Z</time>
      </trkpt>
      <trkpt lat="42.07411" lon="0.64054">
        <ele>967.552</ele>
        <time>2014-11-16T10:30:07Z</time>
      </trkpt>
      <trkpt lat="42.0741" lon="0.64053">
        <ele>967.463</ele>
        <time>2014-11-16T10:30:06Z</time>
      </trkpt>
      <trkpt lat="42.07409" lon="0.64053">
        <ele>967.235</ele>
        <time>2014-11-16T10:30:02Z</time>
      </trkpt>
      <trkpt lat="42.07407" lon="0.64052">
        <ele>967.098</ele>
        <time>2014-11-16T10:30:00Z</time>
      </trkpt>
      <trkpt lat="42.07407" lon="0.64051">
        <ele>966.919</ele>
        <time>2014-11-16T10:29:52Z</time>
      </trkpt>
      <trkpt lat="42.07406" lon="0.64049">
        <ele>966.626</ele>
        <time>2014-11-16T10:29:50Z</time>
      </trkpt>
      <trkpt lat="42.07405" lon="0.64048">
        <ele>966.49</ele>
        <time>2014-11-16T10:29:49Z</time>
      </trkpt>
      <trkpt lat="42.07404" lon="0.64048">
        <ele>966.355</ele>
        <time>2014-11-16T10:29:47Z</time>
      </trkpt>
      <trkpt lat="42.07403" lon="0.64048">
        <ele>966.107</ele>
        <time>2014-11-16T10:29:46Z</time>
      </trkpt>
      <trkpt lat="42.07401" lon="0.64046">
        <ele>965.817</ele>
        <time>2014-11-16T10:29:45Z</time>
      </trkpt>
      <trkpt lat="42.07399" lon="0.64045">
        <ele>965.308</ele>
        <time>2014-11-16T10:29:44Z</time>
      </trkpt>
      <trkpt lat="42.07398" lon="0.64043">
        <ele>964.917</ele>
        <time>2014-11-16T10:29:43Z</time>
      </trkpt>
      <trkpt lat="42.07397" lon="0.64041">
        <ele>964.656</ele>
        <time>2014-11-16T10:29:42Z</time>
      </trkpt>
      <trkpt lat="42.07396" lon="0.6404">
        <ele>964.227</ele>
        <time>2014-11-16T10:29:40Z</time>
      </trkpt>
      <trkpt lat="42.07395" lon="0.6404">
        <ele>964.219</ele>
        <time>2014-11-16T10:29:39Z</time>
      </trkpt>
      <trkpt lat="42.07394" lon="0.64041">
        <ele>964.232</ele>
        <time>2014-11-16T10:29:38Z</time>
      </trkpt>
      <trkpt lat="42.07392" lon="0.64043">
        <ele>964.223</ele>
        <time>2014-11-16T10:29:36Z</time>
      </trkpt>
      <trkpt lat="42.07392" lon="0.64045">
        <ele>964.53</ele>
        <time>2014-11-16T10:29:33Z</time>
      </trkpt>
      <trkpt lat="42.07392" lon="0.64042">
        <ele>964.024</ele>
        <time>2014-11-16T10:29:31Z</time>
      </trkpt>
      <trkpt lat="42.07392" lon="0.64038">
        <ele>963.537</ele>
        <time>2014-11-16T10:29:30Z</time>
      </trkpt>
      <trkpt lat="42.07393" lon="0.64036">
        <ele>963.149</ele>
        <time>2014-11-16T10:29:29Z</time>
      </trkpt>
      <trkpt lat="42.07393" lon="0.64034">
        <ele>962.813</ele>
        <time>2014-11-16T10:29:28Z</time>
      </trkpt>
      <trkpt lat="42.07392" lon="0.64033">
        <ele>962.608</ele>
        <time>2014-11-16T10:29:26Z</time>
      </trkpt>
      <trkpt lat="42.07391" lon="0.64033">
        <ele>962.335</ele>
        <time>2014-11-16T10:29:25Z</time>
      </trkpt>
      <trkpt lat="42.0739" lon="0.64033">
        <ele>962.214</ele>
        <time>2014-11-16T10:29:23Z</time>
      </trkpt>
      <trkpt lat="42.07389" lon="0.64032">
        <ele>961.925</ele>
        <time>2014-11-16T10:29:22Z</time>
      </trkpt>
      <trkpt lat="42.07388" lon="0.6403">
        <ele>961.387</ele>
        <time>2014-11-16T10:29:21Z</time>
      </trkpt>
      <trkpt lat="42.07386" lon="0.64029">
        <ele>960.87</ele>
        <time>2014-11-16T10:29:20Z</time>
      </trkpt>
      <trkpt lat="42.07385" lon="0.64028">
        <ele>960.561</ele>
        <time>2014-11-16T10:29:19Z</time>
      </trkpt>
      <trkpt lat="42.07384" lon="0.64027">
        <ele>960.258</ele>
        <time>2014-11-16T10:29:18Z</time>
      </trkpt>
      <trkpt lat="42.07382" lon="0.64026">
        <ele>959.912</ele>
        <time>2014-11-16T10:29:15Z</time>
      </trkpt>
      <trkpt lat="42.07381" lon="0.64025">
        <ele>959.767</ele>
        <time>2014-11-16T10:29:14Z</time>
      </trkpt>
      <trkpt lat="42.0738" lon="0.64024">
        <ele>959.481</ele>
        <time>2014-11-16T10:29:13Z</time>
      </trkpt>
      <trkpt lat="42.07378" lon="0.64024">
        <ele>959.119</ele>
        <time>2014-11-16T10:29:12Z</time>
      </trkpt>
      <trkpt lat="42.07376" lon="0.64023">
        <ele>958.608</ele>
        <time>2014-11-16T10:29:11Z</time>
      </trkpt>
      <trkpt lat="42.07375" lon="0.64022">
        <ele>958.478</ele>
        <time>2014-11-16T10:29:10Z</time>
      </trkpt>
      <trkpt lat="42.07373" lon="0.64022">
        <ele>958.127</ele>
        <time>2014-11-16T10:29:06Z</time>
      </trkpt>
      <trkpt lat="42.07372" lon="0.6402">
        <ele>957.748</ele>
        <time>2014-11-16T10:29:04Z</time>
      </trkpt>
      <trkpt lat="42.07371" lon="0.64019">
        <ele>957.43</ele>
        <time>2014-11-16T10:29:02Z</time>
      </trkpt>
      <trkpt lat="42.07369" lon="0.64018">
        <ele>957.073</ele>
        <time>2014-11-16T10:29:00Z</time>
      </trkpt>
      <trkpt lat="42.07368" lon="0.64018">
        <ele>956.864</ele>
        <time>2014-11-16T10:28:59Z</time>
      </trkpt>
      <trkpt lat="42.07366" lon="0.64016">
        <ele>956.291</ele>
        <time>2014-11-16T10:28:58Z</time>
      </trkpt>
      <trkpt lat="42.07365" lon="0.64014">
        <ele>955.725</ele>
        <time>2014-11-16T10:28:57Z</time>
      </trkpt>
      <trkpt lat="42.07364" lon="0.64012">
        <ele>955.266</ele>
        <time>2014-11-16T10:28:56Z</time>
      </trkpt>
      <trkpt lat="42.07362" lon="0.6401">
        <ele>954.729</ele>
        <time>2014-11-16T10:28:54Z</time>
      </trkpt>
      <trkpt lat="42.07362" lon="0.64009">
        <ele>954.421</ele>
        <time>2014-11-16T10:28:52Z</time>
      </trkpt>
      <trkpt lat="42.0736" lon="0.64008">
        <ele>954.108</ele>
        <time>2014-11-16T10:28:51Z</time>
      </trkpt>
      <trkpt lat="42.07358" lon="0.64008">
        <ele>953.938</ele>
        <time>2014-11-16T10:28:50Z</time>
      </trkpt>
      <trkpt lat="42.07355" lon="0.64009">
        <ele>953.877</ele>
        <time>2014-11-16T10:28:49Z</time>
      </trkpt>
      <trkpt lat="42.07354" lon="0.64009">
        <ele>953.678</ele>
        <time>2014-11-16T10:28:48Z</time>
      </trkpt>
      <trkpt lat="42.07352" lon="0.64009">
        <ele>953.56</ele>
        <time>2014-11-16T10:28:46Z</time>
      </trkpt>
      <trkpt lat="42.07353" lon="0.6401">
        <ele>953.863</ele>
        <time>2014-11-16T10:28:44Z</time>
      </trkpt>
      <trkpt lat="42.07353" lon="0.64012">
        <ele>954.054</ele>
        <time>2014-11-16T10:28:42Z</time>
      </trkpt>
      <trkpt lat="42.07352" lon="0.64014">
        <ele>954.211</ele>
        <time>2014-11-16T10:28:41Z</time>
      </trkpt>
      <trkpt lat="42.07351" lon="0.64016">
        <ele>954.465</ele>
        <time>2014-11-16T10:28:40Z</time>
      </trkpt>
      <trkpt lat="42.07349" lon="0.64018">
        <ele>954.476</ele>
        <time>2014-11-16T10:28:39Z</time>
      </trkpt>
      <trkpt lat="42.07347" lon="0.64018">
        <ele>954.39</ele>
        <time>2014-11-16T10:28:38Z</time>
      </trkpt>
      <trkpt lat="42.07345" lon="0.64018">
        <ele>954.119</ele>
        <time>2014-11-16T10:28:37Z</time>
      </trkpt>
      <trkpt lat="42.07345" lon="0.6402">
        <ele>954.308</ele>
        <time>2014-11-16T10:28:34Z</time>
      </trkpt>
      <trkpt lat="42.07343" lon="0.64022">
        <ele>954.389</ele>
        <time>2014-11-16T10:28:32Z</time>
      </trkpt>
      <trkpt lat="42.07341" lon="0.64023">
        <ele>954.368</ele>
        <time>2014-11-16T10:28:31Z</time>
      </trkpt>
      <trkpt lat="42.07338" lon="0.64025">
        <ele>954.239</ele>
        <time>2014-11-16T10:28:30Z</time>
      </trkpt>
      <trkpt lat="42.07337" lon="0.64026">
        <ele>954.221</ele>
        <time>2014-11-16T10:28:29Z</time>
      </trkpt>
      <trkpt lat="42.07337" lon="0.64028">
        <ele>954.414</ele>
        <time>2014-11-16T10:28:27Z</time>
      </trkpt>
      <trkpt lat="42.07335" lon="0.64029">
        <ele>954.415</ele>
        <time>2014-11-16T10:28:26Z</time>
      </trkpt>
      <trkpt lat="42.07333" lon="0.6403">
        <ele>954.372</ele>
        <time>2014-11-16T10:28:25Z</time>
      </trkpt>
      <trkpt lat="42.07331" lon="0.64031">
        <ele>954.296</ele>
        <time>2014-11-16T10:28:24Z</time>
      </trkpt>
      <trkpt lat="42.07331" lon="0.64032">
        <ele>954.374</ele>
        <time>2014-11-16T10:28:23Z</time>
      </trkpt>
      <trkpt lat="42.0733" lon="0.64033">
        <ele>954.556</ele>
        <time>2014-11-16T10:28:21Z</time>
      </trkpt>
      <trkpt lat="42.0733" lon="0.64034">
        <ele>954.621</ele>
        <time>2014-11-16T10:28:20Z</time>
      </trkpt>
      <trkpt lat="42.07328" lon="0.64035">
        <ele>954.608</ele>
        <time>2014-11-16T10:28:19Z</time>
      </trkpt>
      <trkpt lat="42.07326" lon="0.64036">
        <ele>954.439</ele>
        <time>2014-11-16T10:28:18Z</time>
      </trkpt>
      <trkpt lat="42.07325" lon="0.64037">
        <ele>954.588</ele>
        <time>2014-11-16T10:28:16Z</time>
      </trkpt>
      <trkpt lat="42.07324" lon="0.64038">
        <ele>954.599</ele>
        <time>2014-11-16T10:28:15Z</time>
      </trkpt>
      <trkpt lat="42.07323" lon="0.6404">
        <ele>954.581</ele>
        <time>2014-11-16T10:28:14Z</time>
      </trkpt>
      <trkpt lat="42.07322" lon="0.64041">
        <ele>954.534</ele>
        <time>2014-11-16T10:28:12Z</time>
      </trkpt>
      <trkpt lat="42.07321" lon="0.64042">
        <ele>954.525</ele>
        <time>2014-11-16T10:28:11Z</time>
      </trkpt>
      <trkpt lat="42.0732" lon="0.64043">
        <ele>954.532</ele>
        <time>2014-11-16T10:28:09Z</time>
      </trkpt>
      <trkpt lat="42.0732" lon="0.64044">
        <ele>954.516</ele>
        <time>2014-11-16T10:28:08Z</time>
      </trkpt>
      <trkpt lat="42.07319" lon="0.64046">
        <ele>954.575</ele>
        <time>2014-11-16T10:28:06Z</time>
      </trkpt>
      <trkpt lat="42.07318" lon="0.64047">
        <ele>954.528</ele>
        <time>2014-11-16T10:28:05Z</time>
      </trkpt>
      <trkpt lat="42.07317" lon="0.64047">
        <ele>954.32</ele>
        <time>2014-11-16T10:28:04Z</time>
      </trkpt>
      <trkpt lat="42.07316" lon="0.64048">
        <ele>954.308</ele>
        <time>2014-11-16T10:28:01Z</time>
      </trkpt>
      <trkpt lat="42.07313" lon="0.64051">
        <ele>954.149</ele>
        <time>2014-11-16T10:27:59Z</time>
      </trkpt>
      <trkpt lat="42.07312" lon="0.64053">
        <ele>954.048</ele>
        <time>2014-11-16T10:27:58Z</time>
      </trkpt>
      <trkpt lat="42.07311" lon="0.64055">
        <ele>954.099</ele>
        <time>2014-11-16T10:27:55Z</time>
      </trkpt>
      <trkpt lat="42.07311" lon="0.64056">
        <ele>954.081</ele>
        <time>2014-11-16T10:27:54Z</time>
      </trkpt>
      <trkpt lat="42.07309" lon="0.64058">
        <ele>953.934</ele>
        <time>2014-11-16T10:27:53Z</time>
      </trkpt>
      <trkpt lat="42.07308" lon="0.6406">
        <ele>953.995</ele>
        <time>2014-11-16T10:27:52Z</time>
      </trkpt>
      <trkpt lat="42.07306" lon="0.64062">
        <ele>953.992</ele>
        <time>2014-11-16T10:27:51Z</time>
      </trkpt>
      <trkpt lat="42.07305" lon="0.64064">
        <ele>953.986</ele>
        <time>2014-11-16T10:27:50Z</time>
      </trkpt>
      <trkpt lat="42.07305" lon="0.64066">
        <ele>954.039</ele>
        <time>2014-11-16T10:27:49Z</time>
      </trkpt>
      <trkpt lat="42.07305" lon="0.64067">
        <ele>954.101</ele>
        <time>2014-11-16T10:27:47Z</time>
      </trkpt>
      <trkpt lat="42.07303" lon="0.64071">
        <ele>954.321</ele>
        <time>2014-11-16T10:27:45Z</time>
      </trkpt>
      <trkpt lat="42.07301" lon="0.64073">
        <ele>954.208</ele>
        <time>2014-11-16T10:27:43Z</time>
      </trkpt>
      <trkpt lat="42.07301" lon="0.64074">
        <ele>954.355</ele>
        <time>2014-11-16T10:27:41Z</time>
      </trkpt>
      <trkpt lat="42.073" lon="0.64076">
        <ele>954.394</ele>
        <time>2014-11-16T10:27:40Z</time>
      </trkpt>
      <trkpt lat="42.07299" lon="0.64077">
        <ele>954.215</ele>
        <time>2014-11-16T10:27:39Z</time>
      </trkpt>
      <trkpt lat="42.07298" lon="0.64078">
        <ele>954.187</ele>
        <time>2014-11-16T10:27:38Z</time>
      </trkpt>
      <trkpt lat="42.07297" lon="0.6408">
        <ele>954.25</ele>
        <time>2014-11-16T10:27:35Z</time>
      </trkpt>
      <trkpt lat="42.07297" lon="0.64083">
        <ele>954.441</ele>
        <time>2014-11-16T10:27:33Z</time>
      </trkpt>
      <trkpt lat="42.07295" lon="0.64085">
        <ele>954.318</ele>
        <time>2014-11-16T10:27:32Z</time>
      </trkpt>
      <trkpt lat="42.07294" lon="0.64087">
        <ele>954.212</ele>
        <time>2014-11-16T10:27:31Z</time>
      </trkpt>
      <trkpt lat="42.07293" lon="0.64088">
        <ele>954.162</ele>
        <time>2014-11-16T10:27:30Z</time>
      </trkpt>
      <trkpt lat="42.07293" lon="0.64089">
        <ele>954.183</ele>
        <time>2014-11-16T10:27:27Z</time>
      </trkpt>
      <trkpt lat="42.07292" lon="0.64091">
        <ele>954.111</ele>
        <time>2014-11-16T10:27:26Z</time>
      </trkpt>
      <trkpt lat="42.0729" lon="0.64093">
        <ele>953.908</ele>
        <time>2014-11-16T10:27:25Z</time>
      </trkpt>
      <trkpt lat="42.07289" lon="0.64095">
        <ele>953.758</ele>
        <time>2014-11-16T10:27:24Z</time>
      </trkpt>
      <trkpt lat="42.07287" lon="0.64096">
        <ele>953.497</ele>
        <time>2014-11-16T10:27:23Z</time>
      </trkpt>
      <trkpt lat="42.07285" lon="0.64099">
        <ele>953.258</ele>
        <time>2014-11-16T10:27:21Z</time>
      </trkpt>
      <trkpt lat="42.07286" lon="0.641">
        <ele>953.56</ele>
        <time>2014-11-16T10:27:19Z</time>
      </trkpt>
      <trkpt lat="42.07285" lon="0.64102">
        <ele>953.473</ele>
        <time>2014-11-16T10:27:17Z</time>
      </trkpt>
      <trkpt lat="42.07284" lon="0.64103">
        <ele>953.364</ele>
        <time>2014-11-16T10:27:16Z</time>
      </trkpt>
      <trkpt lat="42.07283" lon="0.64105">
        <ele>953.021</ele>
        <time>2014-11-16T10:27:15Z</time>
      </trkpt>
      <trkpt lat="42.07282" lon="0.64106">
        <ele>952.865</ele>
        <time>2014-11-16T10:27:14Z</time>
      </trkpt>
      <trkpt lat="42.0728" lon="0.64107">
        <ele>952.335</ele>
        <time>2014-11-16T10:27:12Z</time>
      </trkpt>
      <trkpt lat="42.07279" lon="0.64109">
        <ele>952.386</ele>
        <time>2014-11-16T10:27:10Z</time>
      </trkpt>
      <trkpt lat="42.07278" lon="0.6411">
        <ele>951.914</ele>
        <time>2014-11-16T10:27:09Z</time>
      </trkpt>
      <trkpt lat="42.07275" lon="0.64112">
        <ele>951.608</ele>
        <time>2014-11-16T10:27:08Z</time>
      </trkpt>
      <trkpt lat="42.07272" lon="0.64116">
        <ele>951.175</ele>
        <time>2014-11-16T10:27:06Z</time>
      </trkpt>
      <trkpt lat="42.0727" lon="0.64118">
        <ele>950.914</ele>
        <time>2014-11-16T10:27:05Z</time>
      </trkpt>
      <trkpt lat="42.07269" lon="0.6412">
        <ele>950.835</ele>
        <time>2014-11-16T10:27:04Z</time>
      </trkpt>
      <trkpt lat="42.07268" lon="0.64122">
        <ele>950.717</ele>
        <time>2014-11-16T10:27:02Z</time>
      </trkpt>
      <trkpt lat="42.07267" lon="0.64122">
        <ele>950.54</ele>
        <time>2014-11-16T10:27:00Z</time>
      </trkpt>
      <trkpt lat="42.07267" lon="0.64123">
        <ele>950.541</ele>
        <time>2014-11-16T10:26:59Z</time>
      </trkpt>
      <trkpt lat="42.07267" lon="0.64125">
        <ele>950.568</ele>
        <time>2014-11-16T10:26:56Z</time>
      </trkpt>
      <trkpt lat="42.07267" lon="0.64126">
        <ele>950.582</ele>
        <time>2014-11-16T10:26:54Z</time>
      </trkpt>
      <trkpt lat="42.07266" lon="0.64128">
        <ele>950.519</ele>
        <time>2014-11-16T10:26:52Z</time>
      </trkpt>
      <trkpt lat="42.07266" lon="0.64129">
        <ele>950.609</ele>
        <time>2014-11-16T10:26:50Z</time>
      </trkpt>
      <trkpt lat="42.07266" lon="0.64131">
        <ele>950.619</ele>
        <time>2014-11-16T10:26:49Z</time>
      </trkpt>
      <trkpt lat="42.07266" lon="0.64132">
        <ele>950.608</ele>
        <time>2014-11-16T10:26:48Z</time>
      </trkpt>
      <trkpt lat="42.07265" lon="0.64134">
        <ele>950.633</ele>
        <time>2014-11-16T10:26:47Z</time>
      </trkpt>
      <trkpt lat="42.07264" lon="0.64136">
        <ele>950.412</ele>
        <time>2014-11-16T10:26:46Z</time>
      </trkpt>
      <trkpt lat="42.07263" lon="0.64138">
        <ele>950.393</ele>
        <time>2014-11-16T10:26:45Z</time>
      </trkpt>
      <trkpt lat="42.07263" lon="0.6414">
        <ele>950.335</ele>
        <time>2014-11-16T10:26:42Z</time>
      </trkpt>
      <trkpt lat="42.07263" lon="0.64141">
        <ele>950.268</ele>
        <time>2014-11-16T10:26:40Z</time>
      </trkpt>
      <trkpt lat="42.07263" lon="0.64142">
        <ele>950.369</ele>
        <time>2014-11-16T10:26:39Z</time>
      </trkpt>
      <trkpt lat="42.07262" lon="0.64144">
        <ele>950.176</ele>
        <time>2014-11-16T10:26:38Z</time>
      </trkpt>
      <trkpt lat="42.0726" lon="0.64146">
        <ele>949.93</ele>
        <time>2014-11-16T10:26:37Z</time>
      </trkpt>
      <trkpt lat="42.07259" lon="0.64148">
        <ele>949.539</ele>
        <time>2014-11-16T10:26:36Z</time>
      </trkpt>
      <trkpt lat="42.07257" lon="0.6415">
        <ele>949.201</ele>
        <time>2014-11-16T10:26:35Z</time>
      </trkpt>
      <trkpt lat="42.07254" lon="0.64154">
        <ele>948.821</ele>
        <time>2014-11-16T10:26:33Z</time>
      </trkpt>
      <trkpt lat="42.07254" lon="0.64156">
        <ele>948.708</ele>
        <time>2014-11-16T10:26:29Z</time>
      </trkpt>
      <trkpt lat="42.07254" lon="0.64157">
        <ele>948.785</ele>
        <time>2014-11-16T10:26:28Z</time>
      </trkpt>
      <trkpt lat="42.07253" lon="0.6416">
        <ele>948.694</ele>
        <time>2014-11-16T10:26:27Z</time>
      </trkpt>
      <trkpt lat="42.07252" lon="0.64162">
        <ele>948.395</ele>
        <time>2014-11-16T10:26:26Z</time>
      </trkpt>
      <trkpt lat="42.0725" lon="0.64165">
        <ele>948.147</ele>
        <time>2014-11-16T10:26:25Z</time>
      </trkpt>
      <trkpt lat="42.0725" lon="0.64167">
        <ele>947.95</ele>
        <time>2014-11-16T10:26:24Z</time>
      </trkpt>
      <trkpt lat="42.07249" lon="0.6417">
        <ele>947.641</ele>
        <time>2014-11-16T10:26:22Z</time>
      </trkpt>
      <trkpt lat="42.07249" lon="0.64171">
        <ele>947.578</ele>
        <time>2014-11-16T10:26:21Z</time>
      </trkpt>
      <trkpt lat="42.07248" lon="0.64172">
        <ele>947.492</ele>
        <time>2014-11-16T10:26:20Z</time>
      </trkpt>
      <trkpt lat="42.07247" lon="0.64174">
        <ele>947.071</ele>
        <time>2014-11-16T10:26:19Z</time>
      </trkpt>
      <trkpt lat="42.07246" lon="0.64177">
        <ele>946.541</ele>
        <time>2014-11-16T10:26:18Z</time>
      </trkpt>
      <trkpt lat="42.07244" lon="0.64178">
        <ele>946.115</ele>
        <time>2014-11-16T10:26:17Z</time>
      </trkpt>
      <trkpt lat="42.07243" lon="0.64178">
        <ele>945.908</ele>
        <time>2014-11-16T10:26:15Z</time>
      </trkpt>
      <trkpt lat="42.07243" lon="0.64181">
        <ele>945.629</ele>
        <time>2014-11-16T10:26:13Z</time>
      </trkpt>
      <trkpt lat="42.07242" lon="0.64183">
        <ele>945.458</ele>
        <time>2014-11-16T10:26:12Z</time>
      </trkpt>
      <trkpt lat="42.07241" lon="0.64184">
        <ele>945.229</ele>
        <time>2014-11-16T10:26:11Z</time>
      </trkpt>
      <trkpt lat="42.07241" lon="0.64185">
        <ele>945.271</ele>
        <time>2014-11-16T10:26:06Z</time>
      </trkpt>
      <trkpt lat="42.07241" lon="0.64187">
        <ele>945.264</ele>
        <time>2014-11-16T10:26:00Z</time>
      </trkpt>
      <trkpt lat="42.07241" lon="0.64188">
        <ele>945.265</ele>
        <time>2014-11-16T10:25:56Z</time>
      </trkpt>
      <trkpt lat="42.07243" lon="0.64187">
        <ele>945.532</ele>
        <time>2014-11-16T10:25:55Z</time>
      </trkpt>
      <trkpt lat="42.07243" lon="0.64185">
        <ele>945.896</ele>
        <time>2014-11-16T10:25:54Z</time>
      </trkpt>
      <trkpt lat="42.07244" lon="0.64183">
        <ele>946.092</ele>
        <time>2014-11-16T10:25:52Z</time>
      </trkpt>
      <trkpt lat="42.07246" lon="0.64182">
        <ele>946.573</ele>
        <time>2014-11-16T10:25:50Z</time>
      </trkpt>
      <trkpt lat="42.07246" lon="0.64179">
        <ele>946.52</ele>
        <time>2014-11-16T10:25:48Z</time>
      </trkpt>
      <trkpt lat="42.07245" lon="0.64178">
        <ele>946.408</ele>
        <time>2014-11-16T10:25:46Z</time>
      </trkpt>
      <trkpt lat="42.07244" lon="0.64178">
        <ele>946.181</ele>
        <time>2014-11-16T10:25:44Z</time>
      </trkpt>
      <trkpt lat="42.07243" lon="0.64179">
        <ele>945.95</ele>
        <time>2014-11-16T10:25:43Z</time>
      </trkpt>
      <trkpt lat="42.07243" lon="0.64181">
        <ele>945.661</ele>
        <time>2014-11-16T10:25:41Z</time>
      </trkpt>
      <trkpt lat="42.07241" lon="0.64184">
        <ele>945.363</ele>
        <time>2014-11-16T10:25:39Z</time>
      </trkpt>
      <trkpt lat="42.07241" lon="0.64185">
        <ele>945.286</ele>
        <time>2014-11-16T10:25:38Z</time>
      </trkpt>
      <trkpt lat="42.0724" lon="0.64187">
        <ele>945.017</ele>
        <time>2014-11-16T10:25:37Z</time>
      </trkpt>
      <trkpt lat="42.07239" lon="0.64189">
        <ele>944.854</ele>
        <time>2014-11-16T10:25:36Z</time>
      </trkpt>
      <trkpt lat="42.07238" lon="0.64192">
        <ele>944.418</ele>
        <time>2014-11-16T10:25:35Z</time>
      </trkpt>
      <trkpt lat="42.07237" lon="0.64194">
        <ele>944.292</ele>
        <time>2014-11-16T10:25:34Z</time>
      </trkpt>
      <trkpt lat="42.07237" lon="0.64196">
        <ele>944.173</ele>
        <time>2014-11-16T10:25:33Z</time>
      </trkpt>
      <trkpt lat="42.07238" lon="0.64197">
        <ele>944.32</ele>
        <time>2014-11-16T10:25:32Z</time>
      </trkpt>
      <trkpt lat="42.07239" lon="0.64197">
        <ele>944.508</ele>
        <time>2014-11-16T10:25:31Z</time>
      </trkpt>
      <trkpt lat="42.0724" lon="0.64198">
        <ele>944.671</ele>
        <time>2014-11-16T10:25:29Z</time>
      </trkpt>
      <trkpt lat="42.0724" lon="0.642">
        <ele>944.66</ele>
        <time>2014-11-16T10:25:28Z</time>
      </trkpt>
      <trkpt lat="42.0724" lon="0.64202">
        <ele>944.411</ele>
        <time>2014-11-16T10:25:27Z</time>
      </trkpt>
      <trkpt lat="42.07239" lon="0.64206">
        <ele>944.193</ele>
        <time>2014-11-16T10:25:26Z</time>
      </trkpt>
      <trkpt lat="42.07239" lon="0.64209">
        <ele>944.086</ele>
        <time>2014-11-16T10:25:25Z</time>
      </trkpt>
      <trkpt lat="42.07239" lon="0.64211">
        <ele>943.987</ele>
        <time>2014-11-16T10:25:24Z</time>
      </trkpt>
      <trkpt lat="42.07239" lon="0.64213">
        <ele>943.914</ele>
        <time>2014-11-16T10:25:21Z</time>
      </trkpt>
      <trkpt lat="42.0724" lon="0.64214">
        <ele>943.938</ele>
        <time>2014-11-16T10:25:19Z</time>
      </trkpt>
      <trkpt lat="42.07241" lon="0.64218">
        <ele>943.967</ele>
        <time>2014-11-16T10:25:17Z</time>
      </trkpt>
      <trkpt lat="42.07242" lon="0.64221">
        <ele>943.981</ele>
        <time>2014-11-16T10:25:16Z</time>
      </trkpt>
      <trkpt lat="42.07242" lon="0.64223">
        <ele>943.819</ele>
        <time>2014-11-16T10:25:15Z</time>
      </trkpt>
      <trkpt lat="42.07243" lon="0.64226">
        <ele>943.808</ele>
        <time>2014-11-16T10:25:14Z</time>
      </trkpt>
      <trkpt lat="42.07243" lon="0.64229">
        <ele>943.638</ele>
        <time>2014-11-16T10:25:13Z</time>
      </trkpt>
      <trkpt lat="42.07243" lon="0.6423">
        <ele>943.717</ele>
        <time>2014-11-16T10:25:12Z</time>
      </trkpt>
      <trkpt lat="42.07244" lon="0.64231">
        <ele>943.868</ele>
        <time>2014-11-16T10:25:10Z</time>
      </trkpt>
      <trkpt lat="42.07244" lon="0.64232">
        <ele>943.72</ele>
        <time>2014-11-16T10:25:09Z</time>
      </trkpt>
      <trkpt lat="42.07244" lon="0.64233">
        <ele>943.693</ele>
        <time>2014-11-16T10:25:08Z</time>
      </trkpt>
      <trkpt lat="42.07242" lon="0.64234">
        <ele>943.374</ele>
        <time>2014-11-16T10:25:03Z</time>
      </trkpt>
      <trkpt lat="42.07242" lon="0.64236">
        <ele>943.271</ele>
        <time>2014-11-16T10:25:00Z</time>
      </trkpt>
      <trkpt lat="42.07241" lon="0.64237">
        <ele>943.045</ele>
        <time>2014-11-16T10:24:59Z</time>
      </trkpt>
      <trkpt lat="42.0724" lon="0.64238">
        <ele>942.765</ele>
        <time>2014-11-16T10:24:58Z</time>
      </trkpt>
      <trkpt lat="42.07239" lon="0.64239">
        <ele>942.568</ele>
        <time>2014-11-16T10:24:57Z</time>
      </trkpt>
      <trkpt lat="42.07238" lon="0.64241">
        <ele>942.314</ele>
        <time>2014-11-16T10:24:56Z</time>
      </trkpt>
      <trkpt lat="42.07238" lon="0.64244">
        <ele>942.108</ele>
        <time>2014-11-16T10:24:53Z</time>
      </trkpt>
      <trkpt lat="42.07237" lon="0.64245">
        <ele>942.018</ele>
        <time>2014-11-16T10:24:52Z</time>
      </trkpt>
      <trkpt lat="42.07236" lon="0.64248">
        <ele>941.647</ele>
        <time>2014-11-16T10:24:51Z</time>
      </trkpt>
      <trkpt lat="42.07234" lon="0.64249">
        <ele>941.298</ele>
        <time>2014-11-16T10:24:50Z</time>
      </trkpt>
      <trkpt lat="42.07233" lon="0.64251">
        <ele>941.02</ele>
        <time>2014-11-16T10:24:49Z</time>
      </trkpt>
      <trkpt lat="42.07233" lon="0.64252">
        <ele>941.083</ele>
        <time>2014-11-16T10:24:46Z</time>
      </trkpt>
      <trkpt lat="42.07233" lon="0.64254">
        <ele>941.134</ele>
        <time>2014-11-16T10:24:45Z</time>
      </trkpt>
      <trkpt lat="42.07232" lon="0.64256">
        <ele>941.091</ele>
        <time>2014-11-16T10:24:44Z</time>
      </trkpt>
      <trkpt lat="42.07231" lon="0.64258">
        <ele>940.815</ele>
        <time>2014-11-16T10:24:43Z</time>
      </trkpt>
      <trkpt lat="42.0723" lon="0.6426">
        <ele>940.743</ele>
        <time>2014-11-16T10:24:40Z</time>
      </trkpt>
      <trkpt lat="42.0723" lon="0.64261">
        <ele>940.664</ele>
        <time>2014-11-16T10:24:39Z</time>
      </trkpt>
      <trkpt lat="42.07228" lon="0.64263">
        <ele>940.41</ele>
        <time>2014-11-16T10:24:38Z</time>
      </trkpt>
      <trkpt lat="42.07226" lon="0.64266">
        <ele>940.208</ele>
        <time>2014-11-16T10:24:37Z</time>
      </trkpt>
      <trkpt lat="42.07224" lon="0.64268">
        <ele>940.096</ele>
        <time>2014-11-16T10:24:36Z</time>
      </trkpt>
      <trkpt lat="42.07222" lon="0.6427">
        <ele>939.895</ele>
        <time>2014-11-16T10:24:35Z</time>
      </trkpt>
      <trkpt lat="42.07221" lon="0.64272">
        <ele>939.616</ele>
        <time>2014-11-16T10:24:34Z</time>
      </trkpt>
      <trkpt lat="42.07219" lon="0.64274">
        <ele>939.538</ele>
        <time>2014-11-16T10:24:33Z</time>
      </trkpt>
      <trkpt lat="42.07217" lon="0.64277">
        <ele>939.411</ele>
        <time>2014-11-16T10:24:32Z</time>
      </trkpt>
      <trkpt lat="42.07216" lon="0.64279">
        <ele>939.462</ele>
        <time>2014-11-16T10:24:31Z</time>
      </trkpt>
      <trkpt lat="42.07214" lon="0.6428">
        <ele>939.339</ele>
        <time>2014-11-16T10:24:30Z</time>
      </trkpt>
      <trkpt lat="42.07214" lon="0.64281">
        <ele>939.473</ele>
        <time>2014-11-16T10:24:29Z</time>
      </trkpt>
      <trkpt lat="42.07214" lon="0.64282">
        <ele>939.538</ele>
        <time>2014-11-16T10:24:27Z</time>
      </trkpt>
      <trkpt lat="42.07213" lon="0.64285">
        <ele>939.77</ele>
        <time>2014-11-16T10:24:25Z</time>
      </trkpt>
      <trkpt lat="42.07212" lon="0.64286">
        <ele>939.817</ele>
        <time>2014-11-16T10:24:24Z</time>
      </trkpt>
      <trkpt lat="42.07211" lon="0.64289">
        <ele>939.908</ele>
        <time>2014-11-16T10:24:23Z</time>
      </trkpt>
      <trkpt lat="42.0721" lon="0.64292">
        <ele>940.265</ele>
        <time>2014-11-16T10:24:22Z</time>
      </trkpt>
      <trkpt lat="42.0721" lon="0.64294">
        <ele>940.484</ele>
        <time>2014-11-16T10:24:21Z</time>
      </trkpt>
      <trkpt lat="42.07208" lon="0.64297">
        <ele>940.515</ele>
        <time>2014-11-16T10:24:20Z</time>
      </trkpt>
      <trkpt lat="42.07207" lon="0.64299">
        <ele>940.777</ele>
        <time>2014-11-16T10:24:19Z</time>
      </trkpt>
      <trkpt lat="42.07206" lon="0.64302">
        <ele>941.06</ele>
        <time>2014-11-16T10:24:18Z</time>
      </trkpt>
      <trkpt lat="42.07204" lon="0.64305">
        <ele>941.281</ele>
        <time>2014-11-16T10:24:17Z</time>
      </trkpt>
      <trkpt lat="42.07203" lon="0.64307">
        <ele>941.428</ele>
        <time>2014-11-16T10:24:16Z</time>
      </trkpt>
      <trkpt lat="42.07202" lon="0.64309">
        <ele>941.592</ele>
        <time>2014-11-16T10:24:15Z</time>
      </trkpt>
      <trkpt lat="42.07201" lon="0.64312">
        <ele>941.656</ele>
        <time>2014-11-16T10:24:13Z</time>
      </trkpt>
      <trkpt lat="42.072" lon="0.64315">
        <ele>941.759</ele>
        <time>2014-11-16T10:24:12Z</time>
      </trkpt>
      <trkpt lat="42.072" lon="0.64316">
        <ele>941.814</ele>
        <time>2014-11-16T10:24:11Z</time>
      </trkpt>
      <trkpt lat="42.07199" lon="0.64318">
        <ele>941.908</ele>
        <time>2014-11-16T10:24:10Z</time>
      </trkpt>
      <trkpt lat="42.07198" lon="0.64321">
        <ele>941.977</ele>
        <time>2014-11-16T10:24:09Z</time>
      </trkpt>
      <trkpt lat="42.07196" lon="0.64325">
        <ele>941.936</ele>
        <time>2014-11-16T10:24:08Z</time>
      </trkpt>
      <trkpt lat="42.07194" lon="0.64327">
        <ele>941.877</ele>
        <time>2014-11-16T10:24:07Z</time>
      </trkpt>
      <trkpt lat="42.07192" lon="0.6433">
        <ele>941.759</ele>
        <time>2014-11-16T10:24:06Z</time>
      </trkpt>
      <trkpt lat="42.07191" lon="0.64333">
        <ele>941.732</ele>
        <time>2014-11-16T10:24:05Z</time>
      </trkpt>
      <trkpt lat="42.07189" lon="0.64335">
        <ele>941.793</ele>
        <time>2014-11-16T10:24:04Z</time>
      </trkpt>
      <trkpt lat="42.07185" lon="0.64342">
        <ele>942.05</ele>
        <time>2014-11-16T10:24:02Z</time>
      </trkpt>
      <trkpt lat="42.07183" lon="0.64346">
        <ele>942.274</ele>
        <time>2014-11-16T10:24:01Z</time>
      </trkpt>
      <trkpt lat="42.07182" lon="0.6435">
        <ele>942.326</ele>
        <time>2014-11-16T10:24:00Z</time>
      </trkpt>
      <trkpt lat="42.07182" lon="0.64353">
        <ele>942.647</ele>
        <time>2014-11-16T10:23:59Z</time>
      </trkpt>
      <trkpt lat="42.0718" lon="0.64361">
        <ele>942.911</ele>
        <time>2014-11-16T10:23:57Z</time>
      </trkpt>
      <trkpt lat="42.07179" lon="0.64365">
        <ele>943.108</ele>
        <time>2014-11-16T10:23:56Z</time>
      </trkpt>
      <trkpt lat="42.07178" lon="0.64369">
        <ele>943.234</ele>
        <time>2014-11-16T10:23:55Z</time>
      </trkpt>
      <trkpt lat="42.07176" lon="0.64372">
        <ele>943.423</ele>
        <time>2014-11-16T10:23:54Z</time>
      </trkpt>
      <trkpt lat="42.07176" lon="0.64375">
        <ele>943.564</ele>
        <time>2014-11-16T10:23:53Z</time>
      </trkpt>
      <trkpt lat="42.07175" lon="0.64379">
        <ele>943.736</ele>
        <time>2014-11-16T10:23:52Z</time>
      </trkpt>
      <trkpt lat="42.07176" lon="0.64382">
        <ele>944.019</ele>
        <time>2014-11-16T10:23:51Z</time>
      </trkpt>
      <trkpt lat="42.07177" lon="0.64383">
        <ele>944.36</ele>
        <time>2014-11-16T10:23:50Z</time>
      </trkpt>
      <trkpt lat="42.07178" lon="0.64385">
        <ele>944.677</ele>
        <time>2014-11-16T10:23:49Z</time>
      </trkpt>
      <trkpt lat="42.07178" lon="0.64388">
        <ele>945.071</ele>
        <time>2014-11-16T10:23:48Z</time>
      </trkpt>
      <trkpt lat="42.0718" lon="0.64393">
        <ele>945.814</ele>
        <time>2014-11-16T10:23:46Z</time>
      </trkpt>
      <trkpt lat="42.07181" lon="0.64395">
        <ele>946.254</ele>
        <time>2014-11-16T10:23:44Z</time>
      </trkpt>
      <trkpt lat="42.07182" lon="0.64396">
        <ele>946.509</ele>
        <time>2014-11-16T10:23:43Z</time>
      </trkpt>
      <trkpt lat="42.07183" lon="0.64398">
        <ele>946.708</ele>
        <time>2014-11-16T10:23:42Z</time>
      </trkpt>
      <trkpt lat="42.07183" lon="0.644">
        <ele>947.033</ele>
        <time>2014-11-16T10:23:40Z</time>
      </trkpt>
      <trkpt lat="42.07183" lon="0.64402">
        <ele>947.292</ele>
        <time>2014-11-16T10:23:38Z</time>
      </trkpt>
      <trkpt lat="42.07183" lon="0.64404">
        <ele>947.373</ele>
        <time>2014-11-16T10:23:37Z</time>
      </trkpt>
      <trkpt lat="42.07182" lon="0.64407">
        <ele>947.415</ele>
        <time>2014-11-16T10:23:36Z</time>
      </trkpt>
      <trkpt lat="42.07181" lon="0.64409">
        <ele>947.468</ele>
        <time>2014-11-16T10:23:35Z</time>
      </trkpt>
      <trkpt lat="42.07179" lon="0.64411">
        <ele>947.129</ele>
        <time>2014-11-16T10:23:34Z</time>
      </trkpt>
      <trkpt lat="42.07176" lon="0.64413">
        <ele>946.656</ele>
        <time>2014-11-16T10:23:33Z</time>
      </trkpt>
      <trkpt lat="42.07173" lon="0.64414">
        <ele>946.34</ele>
        <time>2014-11-16T10:23:32Z</time>
      </trkpt>
      <trkpt lat="42.07173" lon="0.64416">
        <ele>946.236</ele>
        <time>2014-11-16T10:23:31Z</time>
      </trkpt>
      <trkpt lat="42.07172" lon="0.64417">
        <ele>946.217</ele>
        <time>2014-11-16T10:23:26Z</time>
      </trkpt>
      <trkpt lat="42.07171" lon="0.64418">
        <ele>946.118</ele>
        <time>2014-11-16T10:23:25Z</time>
      </trkpt>
      <trkpt lat="42.07169" lon="0.6442">
        <ele>946.008</ele>
        <time>2014-11-16T10:23:24Z</time>
      </trkpt>
      <trkpt lat="42.07167" lon="0.64421">
        <ele>945.895</ele>
        <time>2014-11-16T10:23:23Z</time>
      </trkpt>
      <trkpt lat="42.07166" lon="0.64421">
        <ele>945.964</ele>
        <time>2014-11-16T10:23:22Z</time>
      </trkpt>
      <trkpt lat="42.07165" lon="0.64422">
        <ele>946.075</ele>
        <time>2014-11-16T10:23:21Z</time>
      </trkpt>
      <trkpt lat="42.07163" lon="0.64423">
        <ele>946.177</ele>
        <time>2014-11-16T10:23:20Z</time>
      </trkpt>
      <trkpt lat="42.0716" lon="0.64424">
        <ele>946.31</ele>
        <time>2014-11-16T10:23:19Z</time>
      </trkpt>
      <trkpt lat="42.07158" lon="0.64426">
        <ele>946.541</ele>
        <time>2014-11-16T10:23:18Z</time>
      </trkpt>
      <trkpt lat="42.07156" lon="0.64428">
        <ele>946.978</ele>
        <time>2014-11-16T10:23:16Z</time>
      </trkpt>
      <trkpt lat="42.07156" lon="0.6443">
        <ele>947.132</ele>
        <time>2014-11-16T10:23:14Z</time>
      </trkpt>
      <trkpt lat="42.07156" lon="0.64431">
        <ele>947.443</ele>
        <time>2014-11-16T10:23:12Z</time>
      </trkpt>
      <trkpt lat="42.07155" lon="0.64433">
        <ele>947.764</ele>
        <time>2014-11-16T10:23:11Z</time>
      </trkpt>
      <trkpt lat="42.07153" lon="0.64435">
        <ele>947.91</ele>
        <time>2014-11-16T10:23:10Z</time>
      </trkpt>
      <trkpt lat="42.07151" lon="0.64437">
        <ele>948.208</ele>
        <time>2014-11-16T10:23:09Z</time>
      </trkpt>
      <trkpt lat="42.07149" lon="0.64438">
        <ele>948.456</ele>
        <time>2014-11-16T10:23:08Z</time>
      </trkpt>
      <trkpt lat="42.07148" lon="0.6444">
        <ele>948.775</ele>
        <time>2014-11-16T10:23:07Z</time>
      </trkpt>
      <trkpt lat="42.07145" lon="0.64442">
        <ele>948.836</ele>
        <time>2014-11-16T10:23:06Z</time>
      </trkpt>
      <trkpt lat="42.0714" lon="0.64446">
        <ele>949.388</ele>
        <time>2014-11-16T10:23:04Z</time>
      </trkpt>
      <trkpt lat="42.07138" lon="0.64448">
        <ele>949.741</ele>
        <time>2014-11-16T10:23:03Z</time>
      </trkpt>
      <trkpt lat="42.07137" lon="0.6445">
        <ele>950.032</ele>
        <time>2014-11-16T10:23:02Z</time>
      </trkpt>
      <trkpt lat="42.07135" lon="0.64452">
        <ele>950.229</ele>
        <time>2014-11-16T10:23:01Z</time>
      </trkpt>
      <trkpt lat="42.07133" lon="0.64454">
        <ele>950.243</ele>
        <time>2014-11-16T10:23:00Z</time>
      </trkpt>
      <trkpt lat="42.07131" lon="0.64456">
        <ele>950.379</ele>
        <time>2014-11-16T10:22:59Z</time>
      </trkpt>
      <trkpt lat="42.07128" lon="0.64457">
        <ele>950.305</ele>
        <time>2014-11-16T10:22:58Z</time>
      </trkpt>
      <trkpt lat="42.07126" lon="0.64459">
        <ele>950.325</ele>
        <time>2014-11-16T10:22:57Z</time>
      </trkpt>
      <trkpt lat="42.07124" lon="0.64461">
        <ele>950.308</ele>
        <time>2014-11-16T10:22:56Z</time>
      </trkpt>
      <trkpt lat="42.07118" lon="0.64466">
        <ele>950.339</ele>
        <time>2014-11-16T10:22:54Z</time>
      </trkpt>
      <trkpt lat="42.07116" lon="0.64469">
        <ele>950.398</ele>
        <time>2014-11-16T10:22:53Z</time>
      </trkpt>
      <trkpt lat="42.07113" lon="0.64472">
        <ele>950.449</ele>
        <time>2014-11-16T10:22:52Z</time>
      </trkpt>
      <trkpt lat="42.07111" lon="0.64474">
        <ele>950.611</ele>
        <time>2014-11-16T10:22:51Z</time>
      </trkpt>
      <trkpt lat="42.07108" lon="0.64477">
        <ele>951.034</ele>
        <time>2014-11-16T10:22:50Z</time>
      </trkpt>
      <trkpt lat="42.07106" lon="0.64479">
        <ele>951.575</ele>
        <time>2014-11-16T10:22:49Z</time>
      </trkpt>
      <trkpt lat="42.07104" lon="0.64482">
        <ele>951.982</ele>
        <time>2014-11-16T10:22:48Z</time>
      </trkpt>
      <trkpt lat="42.07103" lon="0.64484">
        <ele>952.396</ele>
        <time>2014-11-16T10:22:47Z</time>
      </trkpt>
      <trkpt lat="42.07101" lon="0.64487">
        <ele>952.855</ele>
        <time>2014-11-16T10:22:46Z</time>
      </trkpt>
      <trkpt lat="42.07099" lon="0.64489">
        <ele>953.107</ele>
        <time>2014-11-16T10:22:45Z</time>
      </trkpt>
      <trkpt lat="42.07095" lon="0.64494">
        <ele>953.617</ele>
        <time>2014-11-16T10:22:43Z</time>
      </trkpt>
      <trkpt lat="42.07093" lon="0.64496">
        <ele>953.808</ele>
        <time>2014-11-16T10:22:42Z</time>
      </trkpt>
      <trkpt lat="42.07091" lon="0.64498">
        <ele>953.897</ele>
        <time>2014-11-16T10:22:41Z</time>
      </trkpt>
      <trkpt lat="42.07089" lon="0.64499">
        <ele>953.796</ele>
        <time>2014-11-16T10:22:40Z</time>
      </trkpt>
      <trkpt lat="42.07087" lon="0.64501">
        <ele>953.947</ele>
        <time>2014-11-16T10:22:39Z</time>
      </trkpt>
      <trkpt lat="42.07085" lon="0.64503">
        <ele>954.279</ele>
        <time>2014-11-16T10:22:38Z</time>
      </trkpt>
      <trkpt lat="42.07082" lon="0.64506">
        <ele>954.612</ele>
        <time>2014-11-16T10:22:37Z</time>
      </trkpt>
      <trkpt lat="42.0708" lon="0.64507">
        <ele>955.013</ele>
        <time>2014-11-16T10:22:36Z</time>
      </trkpt>
      <trkpt lat="42.07077" lon="0.64508">
        <ele>955.33</ele>
        <time>2014-11-16T10:22:35Z</time>
      </trkpt>
      <trkpt lat="42.07075" lon="0.6451">
        <ele>955.544</ele>
        <time>2014-11-16T10:22:34Z</time>
      </trkpt>
      <trkpt lat="42.07072" lon="0.64511">
        <ele>955.879</ele>
        <time>2014-11-16T10:22:33Z</time>
      </trkpt>
      <trkpt lat="42.07071" lon="0.64513">
        <ele>956.105</ele>
        <time>2014-11-16T10:22:32Z</time>
      </trkpt>
      <trkpt lat="42.07069" lon="0.64514">
        <ele>956.325</ele>
        <time>2014-11-16T10:22:31Z</time>
      </trkpt>
      <trkpt lat="42.07066" lon="0.64516">
        <ele>956.508</ele>
        <time>2014-11-16T10:22:30Z</time>
      </trkpt>
      <trkpt lat="42.07065" lon="0.64518">
        <ele>956.769</ele>
        <time>2014-11-16T10:22:29Z</time>
      </trkpt>
      <trkpt lat="42.07063" lon="0.6452">
        <ele>956.858</ele>
        <time>2014-11-16T10:22:28Z</time>
      </trkpt>
      <trkpt lat="42.07061" lon="0.64521">
        <ele>956.859</ele>
        <time>2014-11-16T10:22:27Z</time>
      </trkpt>
      <trkpt lat="42.07059" lon="0.64523">
        <ele>956.991</ele>
        <time>2014-11-16T10:22:26Z</time>
      </trkpt>
      <trkpt lat="42.07055" lon="0.64527">
        <ele>956.934</ele>
        <time>2014-11-16T10:22:24Z</time>
      </trkpt>
      <trkpt lat="42.07053" lon="0.64529">
        <ele>957.225</ele>
        <time>2014-11-16T10:22:23Z</time>
      </trkpt>
      <trkpt lat="42.07052" lon="0.64531">
        <ele>957.692</ele>
        <time>2014-11-16T10:22:22Z</time>
      </trkpt>
      <trkpt lat="42.0705" lon="0.64532">
        <ele>957.846</ele>
        <time>2014-11-16T10:22:21Z</time>
      </trkpt>
      <trkpt lat="42.07049" lon="0.64533">
        <ele>957.997</ele>
        <time>2014-11-16T10:22:20Z</time>
      </trkpt>
      <trkpt lat="42.07048" lon="0.64534">
        <ele>958.123</ele>
        <time>2014-11-16T10:22:16Z</time>
      </trkpt>
      <trkpt lat="42.07046" lon="0.64535">
        <ele>958.325</ele>
        <time>2014-11-16T10:22:15Z</time>
      </trkpt>
      <trkpt lat="42.07045" lon="0.64537">
        <ele>958.508</ele>
        <time>2014-11-16T10:22:14Z</time>
      </trkpt>
      <trkpt lat="42.07043" lon="0.64539">
        <ele>958.741</ele>
        <time>2014-11-16T10:22:13Z</time>
      </trkpt>
      <trkpt lat="42.07041" lon="0.6454">
        <ele>958.97</ele>
        <time>2014-11-16T10:22:12Z</time>
      </trkpt>
      <trkpt lat="42.07038" lon="0.64541">
        <ele>958.971</ele>
        <time>2014-11-16T10:22:11Z</time>
      </trkpt>
      <trkpt lat="42.07035" lon="0.64542">
        <ele>958.783</ele>
        <time>2014-11-16T10:22:10Z</time>
      </trkpt>
      <trkpt lat="42.07033" lon="0.64542">
        <ele>958.556</ele>
        <time>2014-11-16T10:22:09Z</time>
      </trkpt>
      <trkpt lat="42.0703" lon="0.64542">
        <ele>958.367</ele>
        <time>2014-11-16T10:22:08Z</time>
      </trkpt>
      <trkpt lat="42.07027" lon="0.64545">
        <ele>958.334</ele>
        <time>2014-11-16T10:22:06Z</time>
      </trkpt>
      <trkpt lat="42.07025" lon="0.64545">
        <ele>958.378</ele>
        <time>2014-11-16T10:22:05Z</time>
      </trkpt>
      <trkpt lat="42.07025" lon="0.64546">
        <ele>958.373</ele>
        <time>2014-11-16T10:22:04Z</time>
      </trkpt>
      <trkpt lat="42.07024" lon="0.64547">
        <ele>958.385</ele>
        <time>2014-11-16T10:22:02Z</time>
      </trkpt>
      <trkpt lat="42.07023" lon="0.64548">
        <ele>958.313</ele>
        <time>2014-11-16T10:22:00Z</time>
      </trkpt>
      <trkpt lat="42.07022" lon="0.64548">
        <ele>958.308</ele>
        <time>2014-11-16T10:21:58Z</time>
      </trkpt>
      <trkpt lat="42.07022" lon="0.64549">
        <ele>958.579</ele>
        <time>2014-11-16T10:21:57Z</time>
      </trkpt>
      <trkpt lat="42.07022" lon="0.64552">
        <ele>958.738</ele>
        <time>2014-11-16T10:21:56Z</time>
      </trkpt>
      <trkpt lat="42.0702" lon="0.64556">
        <ele>958.969</ele>
        <time>2014-11-16T10:21:54Z</time>
      </trkpt>
      <trkpt lat="42.07018" lon="0.64558">
        <ele>958.991</ele>
        <time>2014-11-16T10:21:53Z</time>
      </trkpt>
      <trkpt lat="42.07017" lon="0.6456">
        <ele>959.074</ele>
        <time>2014-11-16T10:21:52Z</time>
      </trkpt>
      <trkpt lat="42.07016" lon="0.64562">
        <ele>959.065</ele>
        <time>2014-11-16T10:21:51Z</time>
      </trkpt>
      <trkpt lat="42.07014" lon="0.64564">
        <ele>959.042</ele>
        <time>2014-11-16T10:21:50Z</time>
      </trkpt>
      <trkpt lat="42.07013" lon="0.64566">
        <ele>959.056</ele>
        <time>2014-11-16T10:21:49Z</time>
      </trkpt>
      <trkpt lat="42.07012" lon="0.64569">
        <ele>959.252</ele>
        <time>2014-11-16T10:21:48Z</time>
      </trkpt>
      <trkpt lat="42.07012" lon="0.64572">
        <ele>959.553</ele>
        <time>2014-11-16T10:21:47Z</time>
      </trkpt>
      <trkpt lat="42.07013" lon="0.64575">
        <ele>959.808</ele>
        <time>2014-11-16T10:21:46Z</time>
      </trkpt>
      <trkpt lat="42.07014" lon="0.64578">
        <ele>960.508</ele>
        <time>2014-11-16T10:21:44Z</time>
      </trkpt>
      <trkpt lat="42.07015" lon="0.64579">
        <ele>960.787</ele>
        <time>2014-11-16T10:21:43Z</time>
      </trkpt>
      <trkpt lat="42.07016" lon="0.64578">
        <ele>960.826</ele>
        <time>2014-11-16T10:21:41Z</time>
      </trkpt>
      <trkpt lat="42.07017" lon="0.64579">
        <ele>961.167</ele>
        <time>2014-11-16T10:21:38Z</time>
      </trkpt>
      <trkpt lat="42.07017" lon="0.6458">
        <ele>961.349</ele>
        <time>2014-11-16T10:21:37Z</time>
      </trkpt>
      <trkpt lat="42.07017" lon="0.64582">
        <ele>961.442</ele>
        <time>2014-11-16T10:21:36Z</time>
      </trkpt>
      <trkpt lat="42.07016" lon="0.64584">
        <ele>961.423</ele>
        <time>2014-11-16T10:21:35Z</time>
      </trkpt>
      <trkpt lat="42.07015" lon="0.64586">
        <ele>961.54</ele>
        <time>2014-11-16T10:21:34Z</time>
      </trkpt>
      <trkpt lat="42.07015" lon="0.64588">
        <ele>961.614</ele>
        <time>2014-11-16T10:21:33Z</time>
      </trkpt>
      <trkpt lat="42.07014" lon="0.64591">
        <ele>961.567</ele>
        <time>2014-11-16T10:21:31Z</time>
      </trkpt>
      <trkpt lat="42.07014" lon="0.64592">
        <ele>961.581</ele>
        <time>2014-11-16T10:21:28Z</time>
      </trkpt>
      <trkpt lat="42.07013" lon="0.64593">
        <ele>961.319</ele>
        <time>2014-11-16T10:21:27Z</time>
      </trkpt>
      <trkpt lat="42.07013" lon="0.64595">
        <ele>961.408</ele>
        <time>2014-11-16T10:21:25Z</time>
      </trkpt>
      <trkpt lat="42.07014" lon="0.64597">
        <ele>961.948</ele>
        <time>2014-11-16T10:21:23Z</time>
      </trkpt>
      <trkpt lat="42.07014" lon="0.64599">
        <ele>961.977</ele>
        <time>2014-11-16T10:21:22Z</time>
      </trkpt>
      <trkpt lat="42.07013" lon="0.64601">
        <ele>961.828</ele>
        <time>2014-11-16T10:21:21Z</time>
      </trkpt>
      <trkpt lat="42.0701" lon="0.64608">
        <ele>961.38</ele>
        <time>2014-11-16T10:21:19Z</time>
      </trkpt>
      <trkpt lat="42.07008" lon="0.64611">
        <ele>961.193</ele>
        <time>2014-11-16T10:21:18Z</time>
      </trkpt>
      <trkpt lat="42.07008" lon="0.64614">
        <ele>961.274</ele>
        <time>2014-11-16T10:21:14Z</time>
      </trkpt>
      <trkpt lat="42.07008" lon="0.64615">
        <ele>961.171</ele>
        <time>2014-11-16T10:21:12Z</time>
      </trkpt>
      <trkpt lat="42.07008" lon="0.64617">
        <ele>961.195</ele>
        <time>2014-11-16T10:21:11Z</time>
      </trkpt>
      <trkpt lat="42.07007" lon="0.64621">
        <ele>961.127</ele>
        <time>2014-11-16T10:21:09Z</time>
      </trkpt>
      <trkpt lat="42.07006" lon="0.64623">
        <ele>960.968</ele>
        <time>2014-11-16T10:21:03Z</time>
      </trkpt>
      <trkpt lat="42.07005" lon="0.64626">
        <ele>960.914</ele>
        <time>2014-11-16T10:21:01Z</time>
      </trkpt>
      <trkpt lat="42.07005" lon="0.64628">
        <ele>960.808</ele>
        <time>2014-11-16T10:21:00Z</time>
      </trkpt>
      <trkpt lat="42.07002" lon="0.64633">
        <ele>960.494</ele>
        <time>2014-11-16T10:20:59Z</time>
      </trkpt>
      <trkpt lat="42.07001" lon="0.64636">
        <ele>960.393</ele>
        <time>2014-11-16T10:20:57Z</time>
      </trkpt>
      <trkpt lat="42.07" lon="0.64641">
        <ele>960.024</ele>
        <time>2014-11-16T10:20:55Z</time>
      </trkpt>
      <trkpt lat="42.07001" lon="0.64644">
        <ele>960.186</ele>
        <time>2014-11-16T10:20:53Z</time>
      </trkpt>
      <trkpt lat="42.07002" lon="0.64645">
        <ele>960.349</ele>
        <time>2014-11-16T10:20:51Z</time>
      </trkpt>
      <trkpt lat="42.07002" lon="0.64647">
        <ele>960.24</ele>
        <time>2014-11-16T10:20:49Z</time>
      </trkpt>
      <trkpt lat="42.07002" lon="0.64649">
        <ele>960.257</ele>
        <time>2014-11-16T10:20:48Z</time>
      </trkpt>
      <trkpt lat="42.07002" lon="0.64653">
        <ele>960.021</ele>
        <time>2014-11-16T10:20:47Z</time>
      </trkpt>
      <trkpt lat="42.07001" lon="0.64656">
        <ele>959.771</ele>
        <time>2014-11-16T10:20:46Z</time>
      </trkpt>
      <trkpt lat="42.07001" lon="0.64659">
        <ele>959.441</ele>
        <time>2014-11-16T10:20:45Z</time>
      </trkpt>
      <trkpt lat="42.07" lon="0.64662">
        <ele>959.215</ele>
        <time>2014-11-16T10:20:44Z</time>
      </trkpt>
      <trkpt lat="42.06999" lon="0.64664">
        <ele>959.008</ele>
        <time>2014-11-16T10:20:43Z</time>
      </trkpt>
      <trkpt lat="42.07" lon="0.64666">
        <ele>959.059</ele>
        <time>2014-11-16T10:20:40Z</time>
      </trkpt>
      <trkpt lat="42.07" lon="0.64667">
        <ele>959.028</ele>
        <time>2014-11-16T10:20:38Z</time>
      </trkpt>
      <trkpt lat="42.07" lon="0.64669">
        <ele>958.989</ele>
        <time>2014-11-16T10:20:37Z</time>
      </trkpt>
      <trkpt lat="42.06999" lon="0.64675">
        <ele>958.681</ele>
        <time>2014-11-16T10:20:35Z</time>
      </trkpt>
      <trkpt lat="42.06999" lon="0.64679">
        <ele>958.444</ele>
        <time>2014-11-16T10:20:34Z</time>
      </trkpt>
      <trkpt lat="42.06999" lon="0.64682">
        <ele>958.315</ele>
        <time>2014-11-16T10:20:33Z</time>
      </trkpt>
      <trkpt lat="42.06999" lon="0.64684">
        <ele>958.232</ele>
        <time>2014-11-16T10:20:32Z</time>
      </trkpt>
      <trkpt lat="42.06998" lon="0.64686">
        <ele>958.196</ele>
        <time>2014-11-16T10:20:31Z</time>
      </trkpt>
      <trkpt lat="42.06998" lon="0.64688">
        <ele>958.053</ele>
        <time>2014-11-16T10:20:29Z</time>
      </trkpt>
      <trkpt lat="42.06998" lon="0.64689">
        <ele>958.004</ele>
        <time>2014-11-16T10:20:28Z</time>
      </trkpt>
      <trkpt lat="42.06998" lon="0.64691">
        <ele>957.914</ele>
        <time>2014-11-16T10:20:27Z</time>
      </trkpt>
      <trkpt lat="42.06999" lon="0.64694">
        <ele>957.908</ele>
        <time>2014-11-16T10:20:26Z</time>
      </trkpt>
      <trkpt lat="42.06999" lon="0.64696">
        <ele>957.927</ele>
        <time>2014-11-16T10:20:25Z</time>
      </trkpt>
      <trkpt lat="42.06999" lon="0.64697">
        <ele>957.966</ele>
        <time>2014-11-16T10:20:24Z</time>
      </trkpt>
      <trkpt lat="42.06999" lon="0.64699">
        <ele>958.057</ele>
        <time>2014-11-16T10:20:19Z</time>
      </trkpt>
      <trkpt lat="42.07" lon="0.64699">
        <ele>958.149</ele>
        <time>2014-11-16T10:20:18Z</time>
      </trkpt>
      <trkpt lat="42.07" lon="0.64701">
        <ele>958.342</ele>
        <time>2014-11-16T10:20:17Z</time>
      </trkpt>
      <trkpt lat="42.07001" lon="0.64706">
        <ele>958.773</ele>
        <time>2014-11-16T10:20:15Z</time>
      </trkpt>
      <trkpt lat="42.07001" lon="0.64708">
        <ele>958.71</ele>
        <time>2014-11-16T10:20:14Z</time>
      </trkpt>
      <trkpt lat="42.07" lon="0.6471">
        <ele>958.724</ele>
        <time>2014-11-16T10:20:13Z</time>
      </trkpt>
      <trkpt lat="42.07" lon="0.64712">
        <ele>958.619</ele>
        <time>2014-11-16T10:20:12Z</time>
      </trkpt>
      <trkpt lat="42.07" lon="0.64714">
        <ele>958.709</ele>
        <time>2014-11-16T10:20:09Z</time>
      </trkpt>
      <trkpt lat="42.07" lon="0.64715">
        <ele>958.719</ele>
        <time>2014-11-16T10:20:07Z</time>
      </trkpt>
      <trkpt lat="42.06999" lon="0.64717">
        <ele>958.608</ele>
        <time>2014-11-16T10:20:06Z</time>
      </trkpt>
      <trkpt lat="42.06997" lon="0.64719">
        <ele>958.423</ele>
        <time>2014-11-16T10:20:05Z</time>
      </trkpt>
      <trkpt lat="42.06996" lon="0.6472">
        <ele>958.282</ele>
        <time>2014-11-16T10:20:04Z</time>
      </trkpt>
      <trkpt lat="42.06993" lon="0.64722">
        <ele>957.793</ele>
        <time>2014-11-16T10:20:02Z</time>
      </trkpt>
      <trkpt lat="42.06992" lon="0.64723">
        <ele>957.735</ele>
        <time>2014-11-16T10:20:00Z</time>
      </trkpt>
      <trkpt lat="42.06993" lon="0.64724">
        <ele>957.948</ele>
        <time>2014-11-16T10:19:59Z</time>
      </trkpt>
      <trkpt lat="42.06994" lon="0.64725">
        <ele>958.379</ele>
        <time>2014-11-16T10:19:55Z</time>
      </trkpt>
      <trkpt lat="42.06995" lon="0.64726">
        <ele>958.626</ele>
        <time>2014-11-16T10:19:54Z</time>
      </trkpt>
      <trkpt lat="42.06994" lon="0.64729">
        <ele>958.88</ele>
        <time>2014-11-16T10:19:52Z</time>
      </trkpt>
      <trkpt lat="42.06992" lon="0.64734">
        <ele>958.954</ele>
        <time>2014-11-16T10:19:50Z</time>
      </trkpt>
      <trkpt lat="42.06991" lon="0.64736">
        <ele>958.956</ele>
        <time>2014-11-16T10:19:49Z</time>
      </trkpt>
      <trkpt lat="42.06989" lon="0.64738">
        <ele>958.811</ele>
        <time>2014-11-16T10:19:48Z</time>
      </trkpt>
      <trkpt lat="42.06987" lon="0.6474">
        <ele>958.608</ele>
        <time>2014-11-16T10:19:47Z</time>
      </trkpt>
      <trkpt lat="42.06985" lon="0.64742">
        <ele>958.437</ele>
        <time>2014-11-16T10:19:46Z</time>
      </trkpt>
      <trkpt lat="42.06983" lon="0.64745">
        <ele>958.336</ele>
        <time>2014-11-16T10:19:45Z</time>
      </trkpt>
      <trkpt lat="42.0698" lon="0.64751">
        <ele>958.127</ele>
        <time>2014-11-16T10:19:43Z</time>
      </trkpt>
      <trkpt lat="42.06979" lon="0.64753">
        <ele>957.959</ele>
        <time>2014-11-16T10:19:42Z</time>
      </trkpt>
      <trkpt lat="42.06978" lon="0.64756">
        <ele>957.862</ele>
        <time>2014-11-16T10:19:41Z</time>
      </trkpt>
      <trkpt lat="42.06976" lon="0.64759">
        <ele>957.783</ele>
        <time>2014-11-16T10:19:40Z</time>
      </trkpt>
      <trkpt lat="42.06975" lon="0.64762">
        <ele>957.75</ele>
        <time>2014-11-16T10:19:37Z</time>
      </trkpt>
      <trkpt lat="42.06976" lon="0.64764">
        <ele>957.934</ele>
        <time>2014-11-16T10:19:35Z</time>
      </trkpt>
      <trkpt lat="42.06976" lon="0.64765">
        <ele>958.057</ele>
        <time>2014-11-16T10:19:34Z</time>
      </trkpt>
      <trkpt lat="42.06975" lon="0.64767">
        <ele>957.9</ele>
        <time>2014-11-16T10:19:33Z</time>
      </trkpt>
      <trkpt lat="42.06974" lon="0.64769">
        <ele>957.82</ele>
        <time>2014-11-16T10:19:32Z</time>
      </trkpt>
      <trkpt lat="42.0697" lon="0.64775">
        <ele>957.608</ele>
        <time>2014-11-16T10:19:30Z</time>
      </trkpt>
      <trkpt lat="42.06968" lon="0.64779">
        <ele>957.797</ele>
        <time>2014-11-16T10:19:29Z</time>
      </trkpt>
      <trkpt lat="42.06967" lon="0.64783">
        <ele>957.956</ele>
        <time>2014-11-16T10:19:28Z</time>
      </trkpt>
      <trkpt lat="42.06964" lon="0.64786">
        <ele>958.017</ele>
        <time>2014-11-16T10:19:27Z</time>
      </trkpt>
      <trkpt lat="42.06962" lon="0.64788">
        <ele>957.989</ele>
        <time>2014-11-16T10:19:26Z</time>
      </trkpt>
      <trkpt lat="42.06961" lon="0.64789">
        <ele>957.832</ele>
        <time>2014-11-16T10:19:25Z</time>
      </trkpt>
      <trkpt lat="42.06958" lon="0.64789">
        <ele>957.473</ele>
        <time>2014-11-16T10:19:24Z</time>
      </trkpt>
      <trkpt lat="42.06954" lon="0.64788">
        <ele>956.93</ele>
        <time>2014-11-16T10:19:23Z</time>
      </trkpt>
      <trkpt lat="42.06948" lon="0.64791">
        <ele>956.344</ele>
        <time>2014-11-16T10:19:21Z</time>
      </trkpt>
      <trkpt lat="42.06945" lon="0.64794">
        <ele>956.336</ele>
        <time>2014-11-16T10:19:20Z</time>
      </trkpt>
      <trkpt lat="42.06945" lon="0.64797">
        <ele>956.417</ele>
        <time>2014-11-16T10:19:19Z</time>
      </trkpt>
      <trkpt lat="42.06945" lon="0.648">
        <ele>956.718</ele>
        <time>2014-11-16T10:19:17Z</time>
      </trkpt>
      <trkpt lat="42.06945" lon="0.64801">
        <ele>956.808</ele>
        <time>2014-11-16T10:19:14Z</time>
      </trkpt>
      <trkpt lat="42.06945" lon="0.64804">
        <ele>956.985</ele>
        <time>2014-11-16T10:19:12Z</time>
      </trkpt>
      <trkpt lat="42.06944" lon="0.64805">
        <ele>957.064</ele>
        <time>2014-11-16T10:19:11Z</time>
      </trkpt>
      <trkpt lat="42.06943" lon="0.64806">
        <ele>957.065</ele>
        <time>2014-11-16T10:19:10Z</time>
      </trkpt>
      <trkpt lat="42.06942" lon="0.64808">
        <ele>957.147</ele>
        <time>2014-11-16T10:19:09Z</time>
      </trkpt>
      <trkpt lat="42.06941" lon="0.64808">
        <ele>957.17</ele>
        <time>2014-11-16T10:19:08Z</time>
      </trkpt>
      <trkpt lat="42.06939" lon="0.64809">
        <ele>957.191</ele>
        <time>2014-11-16T10:19:07Z</time>
      </trkpt>
      <trkpt lat="42.06938" lon="0.64811">
        <ele>957.248</ele>
        <time>2014-11-16T10:19:06Z</time>
      </trkpt>
      <trkpt lat="42.06935" lon="0.64814">
        <ele>957.382</ele>
        <time>2014-11-16T10:19:04Z</time>
      </trkpt>
      <trkpt lat="42.06932" lon="0.64816">
        <ele>957.342</ele>
        <time>2014-11-16T10:19:03Z</time>
      </trkpt>
      <trkpt lat="42.06931" lon="0.64817">
        <ele>957.222</ele>
        <time>2014-11-16T10:19:02Z</time>
      </trkpt>
      <trkpt lat="42.0693" lon="0.64819">
        <ele>957.314</ele>
        <time>2014-11-16T10:19:00Z</time>
      </trkpt>
      <trkpt lat="42.0693" lon="0.64819">
        <ele>957.408</ele>
        <time>2014-11-16T10:18:59Z</time>
      </trkpt>
      <trkpt lat="42.06929" lon="0.6482">
        <ele>957.596</ele>
        <time>2014-11-16T10:18:58Z</time>
      </trkpt>
      <trkpt lat="42.06929" lon="0.64822">
        <ele>957.665</ele>
        <time>2014-11-16T10:18:57Z</time>
      </trkpt>
      <trkpt lat="42.06928" lon="0.64822">
        <ele>957.426</ele>
        <time>2014-11-16T10:18:56Z</time>
      </trkpt>
      <trkpt lat="42.06926" lon="0.64822">
        <ele>957.238</ele>
        <time>2014-11-16T10:18:55Z</time>
      </trkpt>
      <trkpt lat="42.06925" lon="0.64821">
        <ele>957.081</ele>
        <time>2014-11-16T10:18:54Z</time>
      </trkpt>
      <trkpt lat="42.06924" lon="0.64822">
        <ele>957.092</ele>
        <time>2014-11-16T10:18:51Z</time>
      </trkpt>
      <trkpt lat="42.06921" lon="0.64821">
        <ele>956.649</ele>
        <time>2014-11-16T10:18:49Z</time>
      </trkpt>
      <trkpt lat="42.0692" lon="0.6482">
        <ele>956.413</ele>
        <time>2014-11-16T10:18:48Z</time>
      </trkpt>
      <trkpt lat="42.06918" lon="0.64818">
        <ele>956.174</ele>
        <time>2014-11-16T10:18:47Z</time>
      </trkpt>
      <trkpt lat="42.06916" lon="0.64816">
        <ele>955.856</ele>
        <time>2014-11-16T10:18:46Z</time>
      </trkpt>
      <trkpt lat="42.06914" lon="0.64815">
        <ele>955.621</ele>
        <time>2014-11-16T10:18:45Z</time>
      </trkpt>
      <trkpt lat="42.06911" lon="0.64813">
        <ele>955.508</ele>
        <time>2014-11-16T10:18:44Z</time>
      </trkpt>
      <trkpt lat="42.0691" lon="0.64811">
        <ele>955.389</ele>
        <time>2014-11-16T10:18:43Z</time>
      </trkpt>
      <trkpt lat="42.06906" lon="0.64808">
        <ele>955.158</ele>
        <time>2014-11-16T10:18:41Z</time>
      </trkpt>
      <trkpt lat="42.06904" lon="0.64807">
        <ele>955.199</ele>
        <time>2014-11-16T10:18:39Z</time>
      </trkpt>
      <trkpt lat="42.06903" lon="0.64808">
        <ele>955.181</ele>
        <time>2014-11-16T10:18:38Z</time>
      </trkpt>
      <trkpt lat="42.06901" lon="0.64809">
        <ele>955.254</ele>
        <time>2014-11-16T10:18:36Z</time>
      </trkpt>
      <trkpt lat="42.069" lon="0.6481">
        <ele>955.265</ele>
        <time>2014-11-16T10:18:35Z</time>
      </trkpt>
      <trkpt lat="42.06899" lon="0.64811">
        <ele>955.232</ele>
        <time>2014-11-16T10:18:34Z</time>
      </trkpt>
      <trkpt lat="42.06898" lon="0.64812">
        <ele>955.326</ele>
        <time>2014-11-16T10:18:32Z</time>
      </trkpt>
      <trkpt lat="42.06896" lon="0.64813">
        <ele>955.374</ele>
        <time>2014-11-16T10:18:31Z</time>
      </trkpt>
      <trkpt lat="42.06894" lon="0.64813">
        <ele>955.356</ele>
        <time>2014-11-16T10:18:30Z</time>
      </trkpt>
      <trkpt lat="42.06892" lon="0.64813">
        <ele>955.321</ele>
        <time>2014-11-16T10:18:29Z</time>
      </trkpt>
      <trkpt lat="42.0689" lon="0.64813">
        <ele>955.308</ele>
        <time>2014-11-16T10:18:27Z</time>
      </trkpt>
      <trkpt lat="42.06889" lon="0.64811">
        <ele>955.299</ele>
        <time>2014-11-16T10:18:26Z</time>
      </trkpt>
      <trkpt lat="42.06888" lon="0.64811">
        <ele>955.248</ele>
        <time>2014-11-16T10:18:25Z</time>
      </trkpt>
      <trkpt lat="42.06886" lon="0.64812">
        <ele>955.289</ele>
        <time>2014-11-16T10:18:23Z</time>
      </trkpt>
      <trkpt lat="42.06885" lon="0.64812">
        <ele>955.291</ele>
        <time>2014-11-16T10:18:19Z</time>
      </trkpt>
      <trkpt lat="42.06885" lon="0.6481">
        <ele>955.234</ele>
        <time>2014-11-16T10:18:18Z</time>
      </trkpt>
      <trkpt lat="42.06884" lon="0.64807">
        <ele>955.175</ele>
        <time>2014-11-16T10:18:17Z</time>
      </trkpt>
      <trkpt lat="42.06883" lon="0.64804">
        <ele>954.972</ele>
        <time>2014-11-16T10:18:16Z</time>
      </trkpt>
      <trkpt lat="42.06882" lon="0.64802">
        <ele>954.836</ele>
        <time>2014-11-16T10:18:15Z</time>
      </trkpt>
      <trkpt lat="42.06881" lon="0.64799">
        <ele>954.758</ele>
        <time>2014-11-16T10:18:12Z</time>
      </trkpt>
      <trkpt lat="42.06881" lon="0.64798">
        <ele>954.652</ele>
        <time>2014-11-16T10:18:11Z</time>
      </trkpt>
      <trkpt lat="42.0688" lon="0.64798">
        <ele>954.617</ele>
        <time>2014-11-16T10:18:10Z</time>
      </trkpt>
      <trkpt lat="42.06879" lon="0.64797">
        <ele>954.608</ele>
        <time>2014-11-16T10:18:09Z</time>
      </trkpt>
      <trkpt lat="42.06876" lon="0.64796">
        <ele>954.697</ele>
        <time>2014-11-16T10:18:08Z</time>
      </trkpt>
      <trkpt lat="42.06873" lon="0.64794">
        <ele>954.636</ele>
        <time>2014-11-16T10:18:07Z</time>
      </trkpt>
      <trkpt lat="42.06871" lon="0.64793">
        <ele>954.767</ele>
        <time>2014-11-16T10:18:06Z</time>
      </trkpt>
      <trkpt lat="42.06869" lon="0.64793">
        <ele>954.859</ele>
        <time>2014-11-16T10:18:05Z</time>
      </trkpt>
      <trkpt lat="42.06867" lon="0.64794">
        <ele>954.822</ele>
        <time>2014-11-16T10:18:04Z</time>
      </trkpt>
      <trkpt lat="42.06866" lon="0.64794">
        <ele>954.943</ele>
        <time>2014-11-16T10:18:03Z</time>
      </trkpt>
      <trkpt lat="42.06866" lon="0.64796">
        <ele>954.94</ele>
        <time>2014-11-16T10:18:01Z</time>
      </trkpt>
      <trkpt lat="42.06868" lon="0.64797">
        <ele>954.984</ele>
        <time>2014-11-16T10:17:58Z</time>
      </trkpt>
      <trkpt lat="42.06867" lon="0.64799">
        <ele>954.959</ele>
        <time>2014-11-16T10:17:57Z</time>
      </trkpt>
      <trkpt lat="42.06866" lon="0.64802">
        <ele>955.003</ele>
        <time>2014-11-16T10:17:56Z</time>
      </trkpt>
      <trkpt lat="42.06864" lon="0.64804">
        <ele>955.023</ele>
        <time>2014-11-16T10:17:55Z</time>
      </trkpt>
      <trkpt lat="42.06862" lon="0.64807">
        <ele>955.008</ele>
        <time>2014-11-16T10:17:54Z</time>
      </trkpt>
      <trkpt lat="42.0686" lon="0.64809">
        <ele>955.217</ele>
        <time>2014-11-16T10:17:53Z</time>
      </trkpt>
      <trkpt lat="42.06859" lon="0.64812">
        <ele>955.386</ele>
        <time>2014-11-16T10:17:52Z</time>
      </trkpt>
      <trkpt lat="42.06857" lon="0.64815">
        <ele>955.587</ele>
        <time>2014-11-16T10:17:51Z</time>
      </trkpt>
      <trkpt lat="42.06855" lon="0.6482">
        <ele>955.999</ele>
        <time>2014-11-16T10:17:49Z</time>
      </trkpt>
      <trkpt lat="42.06853" lon="0.64823">
        <ele>956.132</ele>
        <time>2014-11-16T10:17:48Z</time>
      </trkpt>
      <trkpt lat="42.06853" lon="0.64825">
        <ele>956.293</ele>
        <time>2014-11-16T10:17:47Z</time>
      </trkpt>
      <trkpt lat="42.06854" lon="0.64826">
        <ele>956.27</ele>
        <time>2014-11-16T10:17:45Z</time>
      </trkpt>
      <trkpt lat="42.06854" lon="0.64828">
        <ele>956.344</ele>
        <time>2014-11-16T10:17:43Z</time>
      </trkpt>
      <trkpt lat="42.06854" lon="0.6483">
        <ele>956.474</ele>
        <time>2014-11-16T10:17:41Z</time>
      </trkpt>
      <trkpt lat="42.06853" lon="0.64831">
        <ele>956.556</ele>
        <time>2014-11-16T10:17:39Z</time>
      </trkpt>
      <trkpt lat="42.06852" lon="0.64831">
        <ele>956.521</ele>
        <time>2014-11-16T10:17:37Z</time>
      </trkpt>
      <trkpt lat="42.0685" lon="0.6483">
        <ele>956.608</ele>
        <time>2014-11-16T10:17:36Z</time>
      </trkpt>
      <trkpt lat="42.06849" lon="0.64829">
        <ele>956.719</ele>
        <time>2014-11-16T10:17:35Z</time>
      </trkpt>
      <trkpt lat="42.06847" lon="0.64828">
        <ele>956.888</ele>
        <time>2014-11-16T10:17:34Z</time>
      </trkpt>
      <trkpt lat="42.06844" lon="0.6483">
        <ele>957.099</ele>
        <time>2014-11-16T10:17:32Z</time>
      </trkpt>
      <trkpt lat="42.06843" lon="0.64831">
        <ele>957.221</ele>
        <time>2014-11-16T10:17:31Z</time>
      </trkpt>
      <trkpt lat="42.06842" lon="0.64832">
        <ele>957.314</ele>
        <time>2014-11-16T10:17:30Z</time>
      </trkpt>
      <trkpt lat="42.0684" lon="0.64833">
        <ele>957.515</ele>
        <time>2014-11-16T10:17:29Z</time>
      </trkpt>
      <trkpt lat="42.06838" lon="0.64835">
        <ele>957.782</ele>
        <time>2014-11-16T10:17:28Z</time>
      </trkpt>
      <trkpt lat="42.06836" lon="0.64837">
        <ele>957.846</ele>
        <time>2014-11-16T10:17:27Z</time>
      </trkpt>
      <trkpt lat="42.06834" lon="0.64839">
        <ele>957.992</ele>
        <time>2014-11-16T10:17:26Z</time>
      </trkpt>
      <trkpt lat="42.06832" lon="0.64841">
        <ele>958.073</ele>
        <time>2014-11-16T10:17:25Z</time>
      </trkpt>
      <trkpt lat="42.06831" lon="0.64841">
        <ele>958.02</ele>
        <time>2014-11-16T10:17:24Z</time>
      </trkpt>
      <trkpt lat="42.0683" lon="0.64842">
        <ele>958.008</ele>
        <time>2014-11-16T10:17:23Z</time>
      </trkpt>
      <trkpt lat="42.06828" lon="0.64843">
        <ele>958.071</ele>
        <time>2014-11-16T10:17:22Z</time>
      </trkpt>
      <trkpt lat="42.06824" lon="0.64847">
        <ele>958.27</ele>
        <time>2014-11-16T10:17:20Z</time>
      </trkpt>
      <trkpt lat="42.06823" lon="0.64849">
        <ele>958.211</ele>
        <time>2014-11-16T10:17:19Z</time>
      </trkpt>
      <trkpt lat="42.06822" lon="0.6485">
        <ele>958.323</ele>
        <time>2014-11-16T10:17:17Z</time>
      </trkpt>
      <trkpt lat="42.06821" lon="0.64852">
        <ele>958.436</ele>
        <time>2014-11-16T10:17:16Z</time>
      </trkpt>
      <trkpt lat="42.06817" lon="0.64856">
        <ele>958.887</ele>
        <time>2014-11-16T10:17:14Z</time>
      </trkpt>
      <trkpt lat="42.06816" lon="0.64858">
        <ele>959.074</ele>
        <time>2014-11-16T10:17:13Z</time>
      </trkpt>
      <trkpt lat="42.06815" lon="0.6486">
        <ele>959.288</ele>
        <time>2014-11-16T10:17:12Z</time>
      </trkpt>
      <trkpt lat="42.06811" lon="0.64864">
        <ele>959.742</ele>
        <time>2014-11-16T10:17:11Z</time>
      </trkpt>
      <trkpt lat="42.0681" lon="0.64866">
        <ele>959.922</ele>
        <time>2014-11-16T10:17:09Z</time>
      </trkpt>
      <trkpt lat="42.06809" lon="0.64868">
        <ele>960.214</ele>
        <time>2014-11-16T10:17:08Z</time>
      </trkpt>
      <trkpt lat="42.06805" lon="0.64874">
        <ele>960.908</ele>
        <time>2014-11-16T10:17:06Z</time>
      </trkpt>
      <trkpt lat="42.06803" lon="0.64877">
        <ele>960.936</ele>
        <time>2014-11-16T10:17:05Z</time>
      </trkpt>
      <trkpt lat="42.06801" lon="0.64879">
        <ele>960.945</ele>
        <time>2014-11-16T10:17:04Z</time>
      </trkpt>
      <trkpt lat="42.068" lon="0.64881">
        <ele>960.966</ele>
        <time>2014-11-16T10:17:03Z</time>
      </trkpt>
      <trkpt lat="42.06796" lon="0.64886">
        <ele>961.038</ele>
        <time>2014-11-16T10:17:01Z</time>
      </trkpt>
      <trkpt lat="42.06795" lon="0.64889">
        <ele>961.271</ele>
        <time>2014-11-16T10:17:00Z</time>
      </trkpt>
      <trkpt lat="42.06793" lon="0.64892">
        <ele>961.212</ele>
        <time>2014-11-16T10:16:59Z</time>
      </trkpt>
      <trkpt lat="42.06791" lon="0.64894">
        <ele>961.299</ele>
        <time>2014-11-16T10:16:58Z</time>
      </trkpt>
      <trkpt lat="42.06789" lon="0.649">
        <ele>961.433</ele>
        <time>2014-11-16T10:16:56Z</time>
      </trkpt>
      <trkpt lat="42.06787" lon="0.64903">
        <ele>961.531</ele>
        <time>2014-11-16T10:16:55Z</time>
      </trkpt>
      <trkpt lat="42.06787" lon="0.64906">
        <ele>961.761</ele>
        <time>2014-11-16T10:16:54Z</time>
      </trkpt>
      <trkpt lat="42.06786" lon="0.64909">
        <ele>961.907</ele>
        <time>2014-11-16T10:16:53Z</time>
      </trkpt>
      <trkpt lat="42.06789" lon="0.64916">
        <ele>962.208</ele>
        <time>2014-11-16T10:16:51Z</time>
      </trkpt>
      <trkpt lat="42.0679" lon="0.64918">
        <ele>962.135</ele>
        <time>2014-11-16T10:16:50Z</time>
      </trkpt>
      <trkpt lat="42.06791" lon="0.64919">
        <ele>962.074</ele>
        <time>2014-11-16T10:16:48Z</time>
      </trkpt>
      <trkpt lat="42.06791" lon="0.6492">
        <ele>961.995</ele>
        <time>2014-11-16T10:16:47Z</time>
      </trkpt>
      <trkpt lat="42.06791" lon="0.64922">
        <ele>961.957</ele>
        <time>2014-11-16T10:16:46Z</time>
      </trkpt>
      <trkpt lat="42.0679" lon="0.64925">
        <ele>961.85</ele>
        <time>2014-11-16T10:16:45Z</time>
      </trkpt>
      <trkpt lat="42.0679" lon="0.64926">
        <ele>961.971</ele>
        <time>2014-11-16T10:16:44Z</time>
      </trkpt>
      <trkpt lat="42.06789" lon="0.64928">
        <ele>961.968</ele>
        <time>2014-11-16T10:16:41Z</time>
      </trkpt>
      <trkpt lat="42.06789" lon="0.64929">
        <ele>961.942</ele>
        <time>2014-11-16T10:16:39Z</time>
      </trkpt>
      <trkpt lat="42.0679" lon="0.64931">
        <ele>961.872</ele>
        <time>2014-11-16T10:16:38Z</time>
      </trkpt>
      <trkpt lat="42.06789" lon="0.64936">
        <ele>961.713</ele>
        <time>2014-11-16T10:16:36Z</time>
      </trkpt>
      <trkpt lat="42.06788" lon="0.64938">
        <ele>962.014</ele>
        <time>2014-11-16T10:16:35Z</time>
      </trkpt>
      <trkpt lat="42.06785" lon="0.6494">
        <ele>962.408</ele>
        <time>2014-11-16T10:16:34Z</time>
      </trkpt>
      <trkpt lat="42.06783" lon="0.64942">
        <ele>962.999</ele>
        <time>2014-11-16T10:16:33Z</time>
      </trkpt>
      <trkpt lat="42.0678" lon="0.64944">
        <ele>963.438</ele>
        <time>2014-11-16T10:16:32Z</time>
      </trkpt>
      <trkpt lat="42.06775" lon="0.64945">
        <ele>963.879</ele>
        <time>2014-11-16T10:16:30Z</time>
      </trkpt>
      <trkpt lat="42.06773" lon="0.64946">
        <ele>963.681</ele>
        <time>2014-11-16T10:16:29Z</time>
      </trkpt>
      <trkpt lat="42.0677" lon="0.64949">
        <ele>963.584</ele>
        <time>2014-11-16T10:16:27Z</time>
      </trkpt>
      <trkpt lat="42.06769" lon="0.64951">
        <ele>963.415</ele>
        <time>2014-11-16T10:16:25Z</time>
      </trkpt>
      <trkpt lat="42.06769" lon="0.64953">
        <ele>963.532</ele>
        <time>2014-11-16T10:16:22Z</time>
      </trkpt>
      <trkpt lat="42.0677" lon="0.64955">
        <ele>963.546</ele>
        <time>2014-11-16T10:16:21Z</time>
      </trkpt>
      <trkpt lat="42.06769" lon="0.64958">
        <ele>963.521</ele>
        <time>2014-11-16T10:16:19Z</time>
      </trkpt>
      <trkpt lat="42.06768" lon="0.6496">
        <ele>963.541</ele>
        <time>2014-11-16T10:16:18Z</time>
      </trkpt>
      <trkpt lat="42.06766" lon="0.64962">
        <ele>963.605</ele>
        <time>2014-11-16T10:16:17Z</time>
      </trkpt>
      <trkpt lat="42.06765" lon="0.64963">
        <ele>963.608</ele>
        <time>2014-11-16T10:16:16Z</time>
      </trkpt>
      <trkpt lat="42.06764" lon="0.64964">
        <ele>963.774</ele>
        <time>2014-11-16T10:16:15Z</time>
      </trkpt>
      <trkpt lat="42.06763" lon="0.64965">
        <ele>963.863</ele>
        <time>2014-11-16T10:16:14Z</time>
      </trkpt>
      <trkpt lat="42.06763" lon="0.64966">
        <ele>963.874</ele>
        <time>2014-11-16T10:16:13Z</time>
      </trkpt>
      <trkpt lat="42.06762" lon="0.64967">
        <ele>963.926</ele>
        <time>2014-11-16T10:16:11Z</time>
      </trkpt>
      <trkpt lat="42.0676" lon="0.64968">
        <ele>964.069</ele>
        <time>2014-11-16T10:16:10Z</time>
      </trkpt>
      <trkpt lat="42.06758" lon="0.64969">
        <ele>964.21</ele>
        <time>2014-11-16T10:16:09Z</time>
      </trkpt>
      <trkpt lat="42.06754" lon="0.6497">
        <ele>964.637</ele>
        <time>2014-11-16T10:16:07Z</time>
      </trkpt>
      <trkpt lat="42.06748" lon="0.64969">
        <ele>964.471</ele>
        <time>2014-11-16T10:16:05Z</time>
      </trkpt>
      <trkpt lat="42.06746" lon="0.64969">
        <ele>964.257</ele>
        <time>2014-11-16T10:16:04Z</time>
      </trkpt>
      <trkpt lat="42.06744" lon="0.64971">
        <ele>964.1</ele>
        <time>2014-11-16T10:16:02Z</time>
      </trkpt>
      <trkpt lat="42.06744" lon="0.64972">
        <ele>964.32</ele>
        <time>2014-11-16T10:16:01Z</time>
      </trkpt>
      <trkpt lat="42.06744" lon="0.64974">
        <ele>964.408</ele>
        <time>2014-11-16T10:16:00Z</time>
      </trkpt>
      <trkpt lat="42.06743" lon="0.64976">
        <ele>964.597</ele>
        <time>2014-11-16T10:15:59Z</time>
      </trkpt>
      <trkpt lat="42.06739" lon="0.64978">
        <ele>964.356</ele>
        <time>2014-11-16T10:15:57Z</time>
      </trkpt>
      <trkpt lat="42.06737" lon="0.64979">
        <ele>964.257</ele>
        <time>2014-11-16T10:15:56Z</time>
      </trkpt>
      <trkpt lat="42.06735" lon="0.6498">
        <ele>964.169</ele>
        <time>2014-11-16T10:15:55Z</time>
      </trkpt>
      <trkpt lat="42.06732" lon="0.64981">
        <ele>964.042</ele>
        <time>2014-11-16T10:15:53Z</time>
      </trkpt>
      <trkpt lat="42.0673" lon="0.64983">
        <ele>964.133</ele>
        <time>2014-11-16T10:15:52Z</time>
      </trkpt>
      <trkpt lat="42.06728" lon="0.64985">
        <ele>964.22</ele>
        <time>2014-11-16T10:15:51Z</time>
      </trkpt>
      <trkpt lat="42.06726" lon="0.64988">
        <ele>964.524</ele>
        <time>2014-11-16T10:15:50Z</time>
      </trkpt>
      <trkpt lat="42.06724" lon="0.64992">
        <ele>964.913</ele>
        <time>2014-11-16T10:15:48Z</time>
      </trkpt>
      <trkpt lat="42.06723" lon="0.64993">
        <ele>965.043</ele>
        <time>2014-11-16T10:15:45Z</time>
      </trkpt>
      <trkpt lat="42.06722" lon="0.64994">
        <ele>965.107</ele>
        <time>2014-11-16T10:15:44Z</time>
      </trkpt>
      <trkpt lat="42.06721" lon="0.64996">
        <ele>965.308</ele>
        <time>2014-11-16T10:15:43Z</time>
      </trkpt>
      <trkpt lat="42.0672" lon="0.64997">
        <ele>965.323</ele>
        <time>2014-11-16T10:15:42Z</time>
      </trkpt>
      <trkpt lat="42.06719" lon="0.64998">
        <ele>965.342</ele>
        <time>2014-11-16T10:15:41Z</time>
      </trkpt>
      <trkpt lat="42.06718" lon="0.64999">
        <ele>965.343</ele>
        <time>2014-11-16T10:15:39Z</time>
      </trkpt>
      <trkpt lat="42.06717" lon="0.64998">
        <ele>965.095</ele>
        <time>2014-11-16T10:15:32Z</time>
      </trkpt>
      <trkpt lat="42.06716" lon="0.64999">
        <ele>965.068</ele>
        <time>2014-11-16T10:15:29Z</time>
      </trkpt>
      <trkpt lat="42.06717" lon="0.65">
        <ele>965.219</ele>
        <time>2014-11-16T10:15:27Z</time>
      </trkpt>
      <trkpt lat="42.06718" lon="0.65001">
        <ele>965.476</ele>
        <time>2014-11-16T10:15:07Z</time>
      </trkpt>
      <trkpt lat="42.06718" lon="0.65001">
        <ele>965.65</ele>
        <time>2014-11-16T10:15:00Z</time>
      </trkpt>
      <trkpt lat="42.06719" lon="0.65001">
        <ele>965.696</ele>
        <time>2014-11-16T10:14:40Z</time>
      </trkpt>
      <trkpt lat="42.06719" lon="0.65002">
        <ele>965.831</ele>
        <time>2014-11-16T10:14:39Z</time>
      </trkpt>
      <trkpt lat="42.06719" lon="0.65004">
        <ele>965.924</ele>
        <time>2014-11-16T10:14:37Z</time>
      </trkpt>
      <trkpt lat="42.0672" lon="0.65005">
        <ele>966.108</ele>
        <time>2014-11-16T10:14:36Z</time>
      </trkpt>
      <trkpt lat="42.0672" lon="0.65006">
        <ele>966.241</ele>
        <time>2014-11-16T10:14:33Z</time>
      </trkpt>
      <trkpt lat="42.06721" lon="0.65008">
        <ele>966.43</ele>
        <time>2014-11-16T10:14:32Z</time>
      </trkpt>
      <trkpt lat="42.06722" lon="0.65009">
        <ele>966.681</ele>
        <time>2014-11-16T10:14:31Z</time>
      </trkpt>
      <trkpt lat="42.06723" lon="0.65013">
        <ele>966.943</ele>
        <time>2014-11-16T10:14:29Z</time>
      </trkpt>
      <trkpt lat="42.06724" lon="0.65015">
        <ele>967.016</ele>
        <time>2014-11-16T10:14:28Z</time>
      </trkpt>
      <trkpt lat="42.06723" lon="0.65017">
        <ele>967.277</ele>
        <time>2014-11-16T10:14:27Z</time>
      </trkpt>
      <trkpt lat="42.06723" lon="0.6502">
        <ele>967.484</ele>
        <time>2014-11-16T10:14:26Z</time>
      </trkpt>
      <trkpt lat="42.06723" lon="0.65025">
        <ele>967.878</ele>
        <time>2014-11-16T10:14:24Z</time>
      </trkpt>
      <trkpt lat="42.06723" lon="0.65027">
        <ele>967.969</ele>
        <time>2014-11-16T10:14:23Z</time>
      </trkpt>
      <trkpt lat="42.06723" lon="0.65031">
        <ele>968.104</ele>
        <time>2014-11-16T10:14:21Z</time>
      </trkpt>
      <trkpt lat="42.06722" lon="0.65032">
        <ele>968.124</ele>
        <time>2014-11-16T10:14:20Z</time>
      </trkpt>
      <trkpt lat="42.06722" lon="0.65034">
        <ele>968.208</ele>
        <time>2014-11-16T10:14:19Z</time>
      </trkpt>
      <trkpt lat="42.06721" lon="0.65035">
        <ele>968.238</ele>
        <time>2014-11-16T10:14:18Z</time>
      </trkpt>
      <trkpt lat="42.06721" lon="0.65037">
        <ele>968.337</ele>
        <time>2014-11-16T10:14:16Z</time>
      </trkpt>
      <trkpt lat="42.0672" lon="0.65038">
        <ele>968.338</ele>
        <time>2014-11-16T10:14:15Z</time>
      </trkpt>
      <trkpt lat="42.06719" lon="0.6504">
        <ele>968.39</ele>
        <time>2014-11-16T10:14:14Z</time>
      </trkpt>
      <trkpt lat="42.06719" lon="0.65042">
        <ele>968.413</ele>
        <time>2014-11-16T10:14:13Z</time>
      </trkpt>
      <trkpt lat="42.06718" lon="0.65044">
        <ele>968.584</ele>
        <time>2014-11-16T10:14:12Z</time>
      </trkpt>
      <trkpt lat="42.06718" lon="0.65045">
        <ele>968.511</ele>
        <time>2014-11-16T10:14:11Z</time>
      </trkpt>
      <trkpt lat="42.06717" lon="0.65047">
        <ele>968.685</ele>
        <time>2014-11-16T10:14:10Z</time>
      </trkpt>
      <trkpt lat="42.06717" lon="0.65048">
        <ele>968.649</ele>
        <time>2014-11-16T10:14:09Z</time>
      </trkpt>
      <trkpt lat="42.06716" lon="0.6505">
        <ele>968.702</ele>
        <time>2014-11-16T10:14:08Z</time>
      </trkpt>
      <trkpt lat="42.06716" lon="0.65052">
        <ele>968.822</ele>
        <time>2014-11-16T10:14:07Z</time>
      </trkpt>
      <trkpt lat="42.06715" lon="0.65054">
        <ele>968.908</ele>
        <time>2014-11-16T10:14:06Z</time>
      </trkpt>
      <trkpt lat="42.06715" lon="0.65056">
        <ele>969.046</ele>
        <time>2014-11-16T10:14:05Z</time>
      </trkpt>
      <trkpt lat="42.06714" lon="0.65059">
        <ele>968.825</ele>
        <time>2014-11-16T10:14:03Z</time>
      </trkpt>
      <trkpt lat="42.06713" lon="0.65061">
        <ele>968.756</ele>
        <time>2014-11-16T10:14:02Z</time>
      </trkpt>
      <trkpt lat="42.06713" lon="0.65063">
        <ele>968.798</ele>
        <time>2014-11-16T10:14:01Z</time>
      </trkpt>
      <trkpt lat="42.06712" lon="0.65065">
        <ele>968.671</ele>
        <time>2014-11-16T10:14:00Z</time>
      </trkpt>
      <trkpt lat="42.06712" lon="0.65067">
        <ele>968.542</ele>
        <time>2014-11-16T10:13:59Z</time>
      </trkpt>
      <trkpt lat="42.06711" lon="0.65069">
        <ele>968.439</ele>
        <time>2014-11-16T10:13:58Z</time>
      </trkpt>
      <trkpt lat="42.0671" lon="0.6507">
        <ele>968.423</ele>
        <time>2014-11-16T10:13:57Z</time>
      </trkpt>
      <trkpt lat="42.06708" lon="0.65075">
        <ele>968.314</ele>
        <time>2014-11-16T10:13:55Z</time>
      </trkpt>
      <trkpt lat="42.06707" lon="0.65077">
        <ele>968.354</ele>
        <time>2014-11-16T10:13:54Z</time>
      </trkpt>
      <trkpt lat="42.06706" lon="0.65079">
        <ele>968.309</ele>
        <time>2014-11-16T10:13:53Z</time>
      </trkpt>
      <trkpt lat="42.06705" lon="0.65081">
        <ele>968.308</ele>
        <time>2014-11-16T10:13:52Z</time>
      </trkpt>
      <trkpt lat="42.06704" lon="0.65083">
        <ele>968.343</ele>
        <time>2014-11-16T10:13:50Z</time>
      </trkpt>
      <trkpt lat="42.06702" lon="0.65085">
        <ele>968.362</ele>
        <time>2014-11-16T10:13:48Z</time>
      </trkpt>
      <trkpt lat="42.06701" lon="0.65087">
        <ele>968.363</ele>
        <time>2014-11-16T10:13:46Z</time>
      </trkpt>
      <trkpt lat="42.06701" lon="0.65088">
        <ele>968.335</ele>
        <time>2014-11-16T10:13:45Z</time>
      </trkpt>
      <trkpt lat="42.067" lon="0.6509">
        <ele>968.348</ele>
        <time>2014-11-16T10:13:44Z</time>
      </trkpt>
      <trkpt lat="42.06699" lon="0.65091">
        <ele>968.239</ele>
        <time>2014-11-16T10:13:40Z</time>
      </trkpt>
      <trkpt lat="42.06699" lon="0.65093">
        <ele>968.166</ele>
        <time>2014-11-16T10:13:38Z</time>
      </trkpt>
      <trkpt lat="42.06698" lon="0.65096">
        <ele>968.13</ele>
        <time>2014-11-16T10:13:36Z</time>
      </trkpt>
      <trkpt lat="42.06697" lon="0.65097">
        <ele>968.228</ele>
        <time>2014-11-16T10:13:35Z</time>
      </trkpt>
      <trkpt lat="42.06696" lon="0.65099">
        <ele>968.289</ele>
        <time>2014-11-16T10:13:34Z</time>
      </trkpt>
      <trkpt lat="42.06695" lon="0.65101">
        <ele>968.317</ele>
        <time>2014-11-16T10:13:33Z</time>
      </trkpt>
      <trkpt lat="42.06694" lon="0.65107">
        <ele>968.108</ele>
        <time>2014-11-16T10:13:31Z</time>
      </trkpt>
      <trkpt lat="42.06693" lon="0.65109">
        <ele>967.974</ele>
        <time>2014-11-16T10:13:30Z</time>
      </trkpt>
      <trkpt lat="42.06691" lon="0.65111">
        <ele>967.873</ele>
        <time>2014-11-16T10:13:29Z</time>
      </trkpt>
      <trkpt lat="42.06687" lon="0.65117">
        <ele>966.874</ele>
        <time>2014-11-16T10:13:27Z</time>
      </trkpt>
      <trkpt lat="42.06686" lon="0.6512">
        <ele>966.376</ele>
        <time>2014-11-16T10:13:26Z</time>
      </trkpt>
      <trkpt lat="42.06684" lon="0.65123">
        <ele>965.969</ele>
        <time>2014-11-16T10:13:25Z</time>
      </trkpt>
      <trkpt lat="42.06682" lon="0.65128">
        <ele>965.34</ele>
        <time>2014-11-16T10:13:23Z</time>
      </trkpt>
      <trkpt lat="42.06682" lon="0.65129">
        <ele>965.187</ele>
        <time>2014-11-16T10:13:22Z</time>
      </trkpt>
      <trkpt lat="42.06681" lon="0.65131">
        <ele>964.931</ele>
        <time>2014-11-16T10:13:20Z</time>
      </trkpt>
      <trkpt lat="42.0668" lon="0.65133">
        <ele>964.671</ele>
        <time>2014-11-16T10:13:18Z</time>
      </trkpt>
      <trkpt lat="42.06679" lon="0.65135">
        <ele>964.441</ele>
        <time>2014-11-16T10:13:17Z</time>
      </trkpt>
      <trkpt lat="42.06679" lon="0.65137">
        <ele>964.215</ele>
        <time>2014-11-16T10:13:16Z</time>
      </trkpt>
      <trkpt lat="42.06678" lon="0.65139">
        <ele>964.008</ele>
        <time>2014-11-16T10:13:15Z</time>
      </trkpt>
      <trkpt lat="42.06678" lon="0.65141">
        <ele>963.799</ele>
        <time>2014-11-16T10:13:14Z</time>
      </trkpt>
      <trkpt lat="42.06677" lon="0.65142">
        <ele>963.628</ele>
        <time>2014-11-16T10:13:13Z</time>
      </trkpt>
      <trkpt lat="42.06677" lon="0.65144">
        <ele>963.449</ele>
        <time>2014-11-16T10:13:11Z</time>
      </trkpt>
      <trkpt lat="42.06678" lon="0.65146">
        <ele>963.231</ele>
        <time>2014-11-16T10:13:09Z</time>
      </trkpt>
      <trkpt lat="42.06678" lon="0.65148">
        <ele>962.984</ele>
        <time>2014-11-16T10:13:08Z</time>
      </trkpt>
      <trkpt lat="42.06677" lon="0.6515">
        <ele>962.645</ele>
        <time>2014-11-16T10:13:07Z</time>
      </trkpt>
      <trkpt lat="42.06676" lon="0.65154">
        <ele>962.142</ele>
        <time>2014-11-16T10:13:05Z</time>
      </trkpt>
      <trkpt lat="42.06676" lon="0.65156">
        <ele>962.046</ele>
        <time>2014-11-16T10:13:04Z</time>
      </trkpt>
      <trkpt lat="42.06676" lon="0.65157">
        <ele>961.833</ele>
        <time>2014-11-16T10:13:03Z</time>
      </trkpt>
      <trkpt lat="42.06676" lon="0.65159">
        <ele>961.623</ele>
        <time>2014-11-16T10:13:01Z</time>
      </trkpt>
      <trkpt lat="42.06676" lon="0.65161">
        <ele>961.315</ele>
        <time>2014-11-16T10:12:59Z</time>
      </trkpt>
      <trkpt lat="42.06676" lon="0.65163">
        <ele>961.008</ele>
        <time>2014-11-16T10:12:58Z</time>
      </trkpt>
      <trkpt lat="42.06675" lon="0.65166">
        <ele>960.835</ele>
        <time>2014-11-16T10:12:57Z</time>
      </trkpt>
      <trkpt lat="42.06673" lon="0.65173">
        <ele>960.224</ele>
        <time>2014-11-16T10:12:55Z</time>
      </trkpt>
      <trkpt lat="42.06672" lon="0.65176">
        <ele>960.055</ele>
        <time>2014-11-16T10:12:54Z</time>
      </trkpt>
      <trkpt lat="42.06672" lon="0.65179">
        <ele>959.897</ele>
        <time>2014-11-16T10:12:53Z</time>
      </trkpt>
      <trkpt lat="42.06671" lon="0.65182">
        <ele>959.61</ele>
        <time>2014-11-16T10:12:52Z</time>
      </trkpt>
      <trkpt lat="42.06671" lon="0.65184">
        <ele>959.441</ele>
        <time>2014-11-16T10:12:50Z</time>
      </trkpt>
      <trkpt lat="42.06671" lon="0.65186">
        <ele>959.248</ele>
        <time>2014-11-16T10:12:47Z</time>
      </trkpt>
      <trkpt lat="42.06672" lon="0.65187">
        <ele>959.112</ele>
        <time>2014-11-16T10:12:46Z</time>
      </trkpt>
      <trkpt lat="42.06672" lon="0.65189">
        <ele>958.987</ele>
        <time>2014-11-16T10:12:45Z</time>
      </trkpt>
      <trkpt lat="42.06671" lon="0.65192">
        <ele>958.742</ele>
        <time>2014-11-16T10:12:44Z</time>
      </trkpt>
      <trkpt lat="42.0667" lon="0.65195">
        <ele>958.526</ele>
        <time>2014-11-16T10:12:43Z</time>
      </trkpt>
      <trkpt lat="42.06669" lon="0.65201">
        <ele>957.908</ele>
        <time>2014-11-16T10:12:41Z</time>
      </trkpt>
      <trkpt lat="42.06669" lon="0.65203">
        <ele>957.55</ele>
        <time>2014-11-16T10:12:40Z</time>
      </trkpt>
      <trkpt lat="42.06668" lon="0.65206">
        <ele>957.359</ele>
        <time>2014-11-16T10:12:39Z</time>
      </trkpt>
      <trkpt lat="42.06667" lon="0.65207">
        <ele>957.18</ele>
        <time>2014-11-16T10:12:38Z</time>
      </trkpt>
      <trkpt lat="42.06666" lon="0.65209">
        <ele>956.972</ele>
        <time>2014-11-16T10:12:35Z</time>
      </trkpt>
      <trkpt lat="42.06667" lon="0.65211">
        <ele>956.625</ele>
        <time>2014-11-16T10:12:33Z</time>
      </trkpt>
      <trkpt lat="42.06667" lon="0.65214">
        <ele>956.096</ele>
        <time>2014-11-16T10:12:32Z</time>
      </trkpt>
      <trkpt lat="42.06667" lon="0.65217">
        <ele>955.843</ele>
        <time>2014-11-16T10:12:30Z</time>
      </trkpt>
      <trkpt lat="42.06666" lon="0.65223">
        <ele>954.957</ele>
        <time>2014-11-16T10:12:28Z</time>
      </trkpt>
      <trkpt lat="42.06665" lon="0.65226">
        <ele>954.493</ele>
        <time>2014-11-16T10:12:27Z</time>
      </trkpt>
      <trkpt lat="42.06664" lon="0.65229">
        <ele>954.165</ele>
        <time>2014-11-16T10:12:26Z</time>
      </trkpt>
      <trkpt lat="42.06662" lon="0.65234">
        <ele>953.621</ele>
        <time>2014-11-16T10:12:24Z</time>
      </trkpt>
      <trkpt lat="42.06663" lon="0.65235">
        <ele>953.608</ele>
        <time>2014-11-16T10:12:21Z</time>
      </trkpt>
      <trkpt lat="42.06664" lon="0.65236">
        <ele>953.431</ele>
        <time>2014-11-16T10:12:19Z</time>
      </trkpt>
      <trkpt lat="42.06664" lon="0.65238">
        <ele>953.21</ele>
        <time>2014-11-16T10:12:17Z</time>
      </trkpt>
      <trkpt lat="42.06664" lon="0.65241">
        <ele>952.951</ele>
        <time>2014-11-16T10:12:15Z</time>
      </trkpt>
      <trkpt lat="42.06662" lon="0.65243">
        <ele>952.853</ele>
        <time>2014-11-16T10:12:14Z</time>
      </trkpt>
      <trkpt lat="42.06661" lon="0.65246">
        <ele>952.686</ele>
        <time>2014-11-16T10:12:13Z</time>
      </trkpt>
      <trkpt lat="42.06659" lon="0.65252">
        <ele>952.157</ele>
        <time>2014-11-16T10:12:12Z</time>
      </trkpt>
      <trkpt lat="42.06659" lon="0.65254">
        <ele>951.974</ele>
        <time>2014-11-16T10:12:10Z</time>
      </trkpt>
      <trkpt lat="42.06658" lon="0.65256">
        <ele>951.778</ele>
        <time>2014-11-16T10:12:09Z</time>
      </trkpt>
      <trkpt lat="42.06658" lon="0.65258">
        <ele>951.683</ele>
        <time>2014-11-16T10:12:08Z</time>
      </trkpt>
      <trkpt lat="42.06659" lon="0.6526">
        <ele>951.325</ele>
        <time>2014-11-16T10:12:06Z</time>
      </trkpt>
      <trkpt lat="42.06658" lon="0.65261">
        <ele>951.217</ele>
        <time>2014-11-16T10:12:04Z</time>
      </trkpt>
      <trkpt lat="42.06659" lon="0.65263">
        <ele>951.008</ele>
        <time>2014-11-16T10:12:02Z</time>
      </trkpt>
      <trkpt lat="42.06659" lon="0.65266">
        <ele>950.78</ele>
        <time>2014-11-16T10:12:00Z</time>
      </trkpt>
      <trkpt lat="42.06658" lon="0.65269">
        <ele>950.579</ele>
        <time>2014-11-16T10:11:59Z</time>
      </trkpt>
      <trkpt lat="42.06656" lon="0.65275">
        <ele>950.03</ele>
        <time>2014-11-16T10:11:57Z</time>
      </trkpt>
      <trkpt lat="42.06656" lon="0.65277">
        <ele>949.982</ele>
        <time>2014-11-16T10:11:56Z</time>
      </trkpt>
      <trkpt lat="42.06655" lon="0.65279">
        <ele>949.615</ele>
        <time>2014-11-16T10:11:54Z</time>
      </trkpt>
      <trkpt lat="42.06655" lon="0.65281">
        <ele>949.576</ele>
        <time>2014-11-16T10:11:52Z</time>
      </trkpt>
      <trkpt lat="42.06654" lon="0.65284">
        <ele>949.223</ele>
        <time>2014-11-16T10:11:51Z</time>
      </trkpt>
      <trkpt lat="42.06654" lon="0.65286">
        <ele>949.047</ele>
        <time>2014-11-16T10:11:50Z</time>
      </trkpt>
      <trkpt lat="42.06652" lon="0.65292">
        <ele>948.615</ele>
        <time>2014-11-16T10:11:48Z</time>
      </trkpt>
      <trkpt lat="42.06652" lon="0.65293">
        <ele>948.565</ele>
        <time>2014-11-16T10:11:47Z</time>
      </trkpt>
      <trkpt lat="42.06653" lon="0.65294">
        <ele>948.211</ele>
        <time>2014-11-16T10:11:45Z</time>
      </trkpt>
      <trkpt lat="42.06654" lon="0.65295">
        <ele>948.008</ele>
        <time>2014-11-16T10:11:43Z</time>
      </trkpt>
      <trkpt lat="42.06653" lon="0.65297">
        <ele>947.933</ele>
        <time>2014-11-16T10:11:42Z</time>
      </trkpt>
      <trkpt lat="42.06652" lon="0.65302">
        <ele>947.462</ele>
        <time>2014-11-16T10:11:40Z</time>
      </trkpt>
      <trkpt lat="42.06652" lon="0.65305">
        <ele>947.293</ele>
        <time>2014-11-16T10:11:39Z</time>
      </trkpt>
      <trkpt lat="42.06652" lon="0.65307">
        <ele>946.925</ele>
        <time>2014-11-16T10:11:38Z</time>
      </trkpt>
      <trkpt lat="42.06652" lon="0.6531">
        <ele>946.778</ele>
        <time>2014-11-16T10:11:34Z</time>
      </trkpt>
      <trkpt lat="42.06652" lon="0.65311">
        <ele>946.539</ele>
        <time>2014-11-16T10:11:33Z</time>
      </trkpt>
      <trkpt lat="42.0665" lon="0.65317">
        <ele>946.246</ele>
        <time>2014-11-16T10:11:31Z</time>
      </trkpt>
      <trkpt lat="42.06649" lon="0.65319">
        <ele>946.04</ele>
        <time>2014-11-16T10:11:30Z</time>
      </trkpt>
      <trkpt lat="42.06649" lon="0.65321">
        <ele>945.847</ele>
        <time>2014-11-16T10:11:26Z</time>
      </trkpt>
      <trkpt lat="42.06649" lon="0.65323">
        <ele>945.629</ele>
        <time>2014-11-16T10:11:25Z</time>
      </trkpt>
      <trkpt lat="42.06648" lon="0.65328">
        <ele>945.321</ele>
        <time>2014-11-16T10:11:23Z</time>
      </trkpt>
      <trkpt lat="42.06647" lon="0.65331">
        <ele>945.108</ele>
        <time>2014-11-16T10:11:22Z</time>
      </trkpt>
      <trkpt lat="42.06646" lon="0.65333">
        <ele>945.056</ele>
        <time>2014-11-16T10:11:21Z</time>
      </trkpt>
      <trkpt lat="42.06646" lon="0.65335">
        <ele>944.785</ele>
        <time>2014-11-16T10:11:20Z</time>
      </trkpt>
      <trkpt lat="42.06646" lon="0.65337">
        <ele>944.556</ele>
        <time>2014-11-16T10:11:18Z</time>
      </trkpt>
      <trkpt lat="42.06646" lon="0.65339">
        <ele>944.418</ele>
        <time>2014-11-16T10:11:16Z</time>
      </trkpt>
      <trkpt lat="42.06646" lon="0.6534">
        <ele>944.381</ele>
        <time>2014-11-16T10:11:15Z</time>
      </trkpt>
      <trkpt lat="42.06644" lon="0.65345">
        <ele>943.912</ele>
        <time>2014-11-16T10:11:13Z</time>
      </trkpt>
      <trkpt lat="42.06643" lon="0.65348">
        <ele>943.899</ele>
        <time>2014-11-16T10:11:12Z</time>
      </trkpt>
      <trkpt lat="42.06642" lon="0.6535">
        <ele>943.713</ele>
        <time>2014-11-16T10:11:11Z</time>
      </trkpt>
      <trkpt lat="42.06642" lon="0.65352">
        <ele>943.696</ele>
        <time>2014-11-16T10:11:10Z</time>
      </trkpt>
      <trkpt lat="42.06642" lon="0.65353">
        <ele>943.531</ele>
        <time>2014-11-16T10:11:07Z</time>
      </trkpt>
      <trkpt lat="42.06642" lon="0.65354">
        <ele>943.324</ele>
        <time>2014-11-16T10:11:05Z</time>
      </trkpt>
      <trkpt lat="42.06641" lon="0.65358">
        <ele>943.008</ele>
        <time>2014-11-16T10:11:03Z</time>
      </trkpt>
      <trkpt lat="42.06641" lon="0.6536">
        <ele>942.971</ele>
        <time>2014-11-16T10:11:02Z</time>
      </trkpt>
      <trkpt lat="42.0664" lon="0.65363">
        <ele>942.73</ele>
        <time>2014-11-16T10:11:01Z</time>
      </trkpt>
      <trkpt lat="42.06639" lon="0.65365">
        <ele>942.561</ele>
        <time>2014-11-16T10:11:00Z</time>
      </trkpt>
      <trkpt lat="42.06639" lon="0.65367">
        <ele>942.473</ele>
        <time>2014-11-16T10:10:58Z</time>
      </trkpt>
      <trkpt lat="42.06639" lon="0.65369">
        <ele>942.266</ele>
        <time>2014-11-16T10:10:56Z</time>
      </trkpt>
      <trkpt lat="42.06639" lon="0.6537">
        <ele>941.967</ele>
        <time>2014-11-16T10:10:55Z</time>
      </trkpt>
      <trkpt lat="42.06639" lon="0.65375">
        <ele>941.544</ele>
        <time>2014-11-16T10:10:53Z</time>
      </trkpt>
      <trkpt lat="42.06638" lon="0.65378">
        <ele>941.298</ele>
        <time>2014-11-16T10:10:52Z</time>
      </trkpt>
      <trkpt lat="42.06638" lon="0.6538">
        <ele>941.091</ele>
        <time>2014-11-16T10:10:51Z</time>
      </trkpt>
      <trkpt lat="42.06637" lon="0.65382">
        <ele>940.881</ele>
        <time>2014-11-16T10:10:49Z</time>
      </trkpt>
      <trkpt lat="42.06637" lon="0.65383">
        <ele>940.619</ele>
        <time>2014-11-16T10:10:47Z</time>
      </trkpt>
      <trkpt lat="42.06636" lon="0.65387">
        <ele>940.308</ele>
        <time>2014-11-16T10:10:45Z</time>
      </trkpt>
      <trkpt lat="42.06636" lon="0.65389">
        <ele>940.161</ele>
        <time>2014-11-16T10:10:44Z</time>
      </trkpt>
      <trkpt lat="42.06636" lon="0.65391">
        <ele>939.88</ele>
        <time>2014-11-16T10:10:42Z</time>
      </trkpt>
      <trkpt lat="42.06636" lon="0.65392">
        <ele>939.681</ele>
        <time>2014-11-16T10:10:41Z</time>
      </trkpt>
      <trkpt lat="42.06636" lon="0.65395">
        <ele>939.363</ele>
        <time>2014-11-16T10:10:40Z</time>
      </trkpt>
      <trkpt lat="42.06636" lon="0.65397">
        <ele>938.996</ele>
        <time>2014-11-16T10:10:39Z</time>
      </trkpt>
      <trkpt lat="42.06635" lon="0.654">
        <ele>938.647</ele>
        <time>2014-11-16T10:10:38Z</time>
      </trkpt>
      <trkpt lat="42.06635" lon="0.65402">
        <ele>938.354</ele>
        <time>2014-11-16T10:10:36Z</time>
      </trkpt>
      <trkpt lat="42.06634" lon="0.65403">
        <ele>938.168</ele>
        <time>2014-11-16T10:10:34Z</time>
      </trkpt>
      <trkpt lat="42.06634" lon="0.65405">
        <ele>937.815</ele>
        <time>2014-11-16T10:10:33Z</time>
      </trkpt>
      <trkpt lat="42.06633" lon="0.65408">
        <ele>937.565</ele>
        <time>2014-11-16T10:10:30Z</time>
      </trkpt>
      <trkpt lat="42.06634" lon="0.65408">
        <ele>937.411</ele>
        <time>2014-11-16T10:10:26Z</time>
      </trkpt>
      <trkpt lat="42.06631" lon="0.65411">
        <ele>937.008</ele>
        <time>2014-11-16T10:10:24Z</time>
      </trkpt>
      <trkpt lat="42.0663" lon="0.65413">
        <ele>936.973</ele>
        <time>2014-11-16T10:10:23Z</time>
      </trkpt>
      <trkpt lat="42.06629" lon="0.65414">
        <ele>936.822</ele>
        <time>2014-11-16T10:10:21Z</time>
      </trkpt>
      <trkpt lat="42.06628" lon="0.65415">
        <ele>936.763</ele>
        <time>2014-11-16T10:10:20Z</time>
      </trkpt>
      <trkpt lat="42.06625" lon="0.65415">
        <ele>936.865</ele>
        <time>2014-11-16T10:10:18Z</time>
      </trkpt>
      <trkpt lat="42.06625" lon="0.65416">
        <ele>936.618</ele>
        <time>2014-11-16T10:10:16Z</time>
      </trkpt>
      <trkpt lat="42.06625" lon="0.65418">
        <ele>936.459</ele>
        <time>2014-11-16T10:10:15Z</time>
      </trkpt>
      <trkpt lat="42.06625" lon="0.6542">
        <ele>936.056</ele>
        <time>2014-11-16T10:10:14Z</time>
      </trkpt>
      <trkpt lat="42.06625" lon="0.65422">
        <ele>935.71</ele>
        <time>2014-11-16T10:10:13Z</time>
      </trkpt>
      <trkpt lat="42.06626" lon="0.65424">
        <ele>935.438</ele>
        <time>2014-11-16T10:10:10Z</time>
      </trkpt>
      <trkpt lat="42.06625" lon="0.65425">
        <ele>935.37</ele>
        <time>2014-11-16T10:10:09Z</time>
      </trkpt>
      <trkpt lat="42.06625" lon="0.65426">
        <ele>935.217</ele>
        <time>2014-11-16T10:10:08Z</time>
      </trkpt>
      <trkpt lat="42.06624" lon="0.65427">
        <ele>935.008</ele>
        <time>2014-11-16T10:10:07Z</time>
      </trkpt>
      <trkpt lat="42.06626" lon="0.65428">
        <ele>934.965</ele>
        <time>2014-11-16T10:10:05Z</time>
      </trkpt>
      <trkpt lat="42.06626" lon="0.65429">
        <ele>934.614</ele>
        <time>2014-11-16T10:10:04Z</time>
      </trkpt>
      <trkpt lat="42.06627" lon="0.65432">
        <ele>934.235</ele>
        <time>2014-11-16T10:10:01Z</time>
      </trkpt>
      <trkpt lat="42.06626" lon="0.65434">
        <ele>934.067</ele>
        <time>2014-11-16T10:10:00Z</time>
      </trkpt>
      <trkpt lat="42.06625" lon="0.65436">
        <ele>933.74</ele>
        <time>2014-11-16T10:09:56Z</time>
      </trkpt>
      <trkpt lat="42.06625" lon="0.65438">
        <ele>933.591</ele>
        <time>2014-11-16T10:09:55Z</time>
      </trkpt>
      <trkpt lat="42.06625" lon="0.65439">
        <ele>933.238</ele>
        <time>2014-11-16T10:09:54Z</time>
      </trkpt>
      <trkpt lat="42.06625" lon="0.65441">
        <ele>932.932</ele>
        <time>2014-11-16T10:09:52Z</time>
      </trkpt>
      <trkpt lat="42.06624" lon="0.65443">
        <ele>932.767</ele>
        <time>2014-11-16T10:09:51Z</time>
      </trkpt>
      <trkpt lat="42.06624" lon="0.65445">
        <ele>932.481</ele>
        <time>2014-11-16T10:09:50Z</time>
      </trkpt>
      <trkpt lat="42.06624" lon="0.65447">
        <ele>932.019</ele>
        <time>2014-11-16T10:09:48Z</time>
      </trkpt>
      <trkpt lat="42.06625" lon="0.65449">
        <ele>931.508</ele>
        <time>2014-11-16T10:09:47Z</time>
      </trkpt>
      <trkpt lat="42.06625" lon="0.65452">
        <ele>931.198</ele>
        <time>2014-11-16T10:09:46Z</time>
      </trkpt>
      <trkpt lat="42.06626" lon="0.65454">
        <ele>930.657</ele>
        <time>2014-11-16T10:09:43Z</time>
      </trkpt>
      <trkpt lat="42.06626" lon="0.65456">
        <ele>930.218</ele>
        <time>2014-11-16T10:09:41Z</time>
      </trkpt>
      <trkpt lat="42.06627" lon="0.65457">
        <ele>930.06</ele>
        <time>2014-11-16T10:09:39Z</time>
      </trkpt>
      <trkpt lat="42.06626" lon="0.65459">
        <ele>929.633</ele>
        <time>2014-11-16T10:09:37Z</time>
      </trkpt>
      <trkpt lat="42.06626" lon="0.65461">
        <ele>929.254</ele>
        <time>2014-11-16T10:09:36Z</time>
      </trkpt>
      <trkpt lat="42.06626" lon="0.65463">
        <ele>928.841</ele>
        <time>2014-11-16T10:09:33Z</time>
      </trkpt>
      <trkpt lat="42.06625" lon="0.65464">
        <ele>928.625</ele>
        <time>2014-11-16T10:09:32Z</time>
      </trkpt>
      <trkpt lat="42.06624" lon="0.65466">
        <ele>928.298</ele>
        <time>2014-11-16T10:09:31Z</time>
      </trkpt>
      <trkpt lat="42.06625" lon="0.65468">
        <ele>927.915</ele>
        <time>2014-11-16T10:09:30Z</time>
      </trkpt>
      <trkpt lat="42.06625" lon="0.65469">
        <ele>927.526</ele>
        <time>2014-11-16T10:09:29Z</time>
      </trkpt>
      <trkpt lat="42.06625" lon="0.65471">
        <ele>927.208</ele>
        <time>2014-11-16T10:09:27Z</time>
      </trkpt>
      <trkpt lat="42.06625" lon="0.65473">
        <ele>926.921</ele>
        <time>2014-11-16T10:09:23Z</time>
      </trkpt>
      <trkpt lat="42.06625" lon="0.65474">
        <ele>926.72</ele>
        <time>2014-11-16T10:09:17Z</time>
      </trkpt>
      <trkpt lat="42.06624" lon="0.65475">
        <ele>926.441</ele>
        <time>2014-11-16T10:09:16Z</time>
      </trkpt>
      <trkpt lat="42.06624" lon="0.65478">
        <ele>925.933</ele>
        <time>2014-11-16T10:09:14Z</time>
      </trkpt>
      <trkpt lat="42.06624" lon="0.65479">
        <ele>925.676</ele>
        <time>2014-11-16T10:09:12Z</time>
      </trkpt>
      <trkpt lat="42.06623" lon="0.65481">
        <ele>925.297</ele>
        <time>2014-11-16T10:09:10Z</time>
      </trkpt>
      <trkpt lat="42.06623" lon="0.65483">
        <ele>924.944</ele>
        <time>2014-11-16T10:09:08Z</time>
      </trkpt>
      <trkpt lat="42.06623" lon="0.65487">
        <ele>924.028</ele>
        <time>2014-11-16T10:09:04Z</time>
      </trkpt>
      <trkpt lat="42.06623" lon="0.65488">
        <ele>923.677</ele>
        <time>2014-11-16T10:09:03Z</time>
      </trkpt>
      <trkpt lat="42.06623" lon="0.65491">
        <ele>923.261</ele>
        <time>2014-11-16T10:09:00Z</time>
      </trkpt>
      <trkpt lat="42.06622" lon="0.65493">
        <ele>922.827</ele>
        <time>2014-11-16T10:08:59Z</time>
      </trkpt>
      <trkpt lat="42.06621" lon="0.65495">
        <ele>922.308</ele>
        <time>2014-11-16T10:08:57Z</time>
      </trkpt>
      <trkpt lat="42.06621" lon="0.65497">
        <ele>922.049</ele>
        <time>2014-11-16T10:08:55Z</time>
      </trkpt>
      <trkpt lat="42.06621" lon="0.65498">
        <ele>921.728</ele>
        <time>2014-11-16T10:08:54Z</time>
      </trkpt>
      <trkpt lat="42.06622" lon="0.65499">
        <ele>921.479</ele>
        <time>2014-11-16T10:08:53Z</time>
      </trkpt>
      <trkpt lat="42.06622" lon="0.655">
        <ele>921.261</ele>
        <time>2014-11-16T10:08:44Z</time>
      </trkpt>
      <trkpt lat="42.06621" lon="0.65502">
        <ele>920.934</ele>
        <time>2014-11-16T10:08:43Z</time>
      </trkpt>
      <trkpt lat="42.06621" lon="0.65503">
        <ele>920.615</ele>
        <time>2014-11-16T10:08:42Z</time>
      </trkpt>
      <trkpt lat="42.0662" lon="0.65505">
        <ele>920.262</ele>
        <time>2014-11-16T10:08:40Z</time>
      </trkpt>
      <trkpt lat="42.0662" lon="0.65506">
        <ele>920.066</ele>
        <time>2014-11-16T10:08:39Z</time>
      </trkpt>
      <trkpt lat="42.06619" lon="0.65508">
        <ele>919.651</ele>
        <time>2014-11-16T10:08:36Z</time>
      </trkpt>
      <trkpt lat="42.06619" lon="0.65509">
        <ele>919.301</ele>
        <time>2014-11-16T10:08:35Z</time>
      </trkpt>
      <trkpt lat="42.06619" lon="0.6551">
        <ele>919.111</ele>
        <time>2014-11-16T10:08:34Z</time>
      </trkpt>
      <trkpt lat="42.06618" lon="0.65512">
        <ele>918.808</ele>
        <time>2014-11-16T10:08:32Z</time>
      </trkpt>
      <trkpt lat="42.06617" lon="0.65516">
        <ele>918.157</ele>
        <time>2014-11-16T10:08:30Z</time>
      </trkpt>
      <trkpt lat="42.06617" lon="0.65517">
        <ele>917.796</ele>
        <time>2014-11-16T10:08:27Z</time>
      </trkpt>
      <trkpt lat="42.06617" lon="0.65519">
        <ele>917.337</ele>
        <time>2014-11-16T10:08:26Z</time>
      </trkpt>
      <trkpt lat="42.06617" lon="0.65521">
        <ele>916.829</ele>
        <time>2014-11-16T10:08:24Z</time>
      </trkpt>
      <trkpt lat="42.06617" lon="0.65522">
        <ele>916.652</ele>
        <time>2014-11-16T10:08:23Z</time>
      </trkpt>
      <trkpt lat="42.06616" lon="0.65524">
        <ele>916.283</ele>
        <time>2014-11-16T10:08:22Z</time>
      </trkpt>
      <trkpt lat="42.06616" lon="0.65527">
        <ele>915.87</ele>
        <time>2014-11-16T10:08:19Z</time>
      </trkpt>
      <trkpt lat="42.06616" lon="0.65528">
        <ele>915.554</ele>
        <time>2014-11-16T10:08:18Z</time>
      </trkpt>
      <trkpt lat="42.06615" lon="0.65529">
        <ele>915.468</ele>
        <time>2014-11-16T10:08:16Z</time>
      </trkpt>
      <trkpt lat="42.06614" lon="0.65532">
        <ele>914.842</ele>
        <time>2014-11-16T10:08:14Z</time>
      </trkpt>
      <trkpt lat="42.06613" lon="0.65534">
        <ele>914.526</ele>
        <time>2014-11-16T10:08:13Z</time>
      </trkpt>
      <trkpt lat="42.06613" lon="0.65536">
        <ele>914.108</ele>
        <time>2014-11-16T10:08:11Z</time>
      </trkpt>
      <trkpt lat="42.06613" lon="0.65538">
        <ele>913.628</ele>
        <time>2014-11-16T10:08:08Z</time>
      </trkpt>
      <trkpt lat="42.06613" lon="0.6554">
        <ele>913.337</ele>
        <time>2014-11-16T10:08:06Z</time>
      </trkpt>
      <trkpt lat="42.06613" lon="0.65541">
        <ele>912.998</ele>
        <time>2014-11-16T10:08:03Z</time>
      </trkpt>
      <trkpt lat="42.06613" lon="0.65543">
        <ele>912.51</ele>
        <time>2014-11-16T10:08:02Z</time>
      </trkpt>
      <trkpt lat="42.06612" lon="0.65544">
        <ele>912.323</ele>
        <time>2014-11-16T10:08:00Z</time>
      </trkpt>
      <trkpt lat="42.06612" lon="0.65547">
        <ele>911.644</ele>
        <time>2014-11-16T10:07:58Z</time>
      </trkpt>
      <trkpt lat="42.06612" lon="0.65549">
        <ele>911.311</ele>
        <time>2014-11-16T10:07:57Z</time>
      </trkpt>
      <trkpt lat="42.06612" lon="0.65551">
        <ele>910.935</ele>
        <time>2014-11-16T10:07:55Z</time>
      </trkpt>
      <trkpt lat="42.06612" lon="0.65552">
        <ele>910.895</ele>
        <time>2014-11-16T10:07:54Z</time>
      </trkpt>
      <trkpt lat="42.0661" lon="0.65553">
        <ele>910.649</ele>
        <time>2014-11-16T10:07:53Z</time>
      </trkpt>
      <trkpt lat="42.0661" lon="0.65556">
        <ele>910.323</ele>
        <time>2014-11-16T10:07:51Z</time>
      </trkpt>
      <trkpt lat="42.06609" lon="0.65558">
        <ele>910.008</ele>
        <time>2014-11-16T10:07:49Z</time>
      </trkpt>
      <trkpt lat="42.06608" lon="0.65559">
        <ele>909.981</ele>
        <time>2014-11-16T10:07:48Z</time>
      </trkpt>
      <trkpt lat="42.06607" lon="0.6556">
        <ele>909.82</ele>
        <time>2014-11-16T10:07:46Z</time>
      </trkpt>
      <trkpt lat="42.06606" lon="0.65563">
        <ele>909.431</ele>
        <time>2014-11-16T10:07:44Z</time>
      </trkpt>
      <trkpt lat="42.06605" lon="0.65566">
        <ele>909.253</ele>
        <time>2014-11-16T10:07:43Z</time>
      </trkpt>
      <trkpt lat="42.06604" lon="0.65567">
        <ele>909.016</ele>
        <time>2014-11-16T10:07:41Z</time>
      </trkpt>
      <trkpt lat="42.06603" lon="0.6557">
        <ele>908.517</ele>
        <time>2014-11-16T10:07:39Z</time>
      </trkpt>
      <trkpt lat="42.06603" lon="0.65572">
        <ele>908.284</ele>
        <time>2014-11-16T10:07:38Z</time>
      </trkpt>
      <trkpt lat="42.06602" lon="0.65574">
        <ele>908.078</ele>
        <time>2014-11-16T10:07:37Z</time>
      </trkpt>
      <trkpt lat="42.06602" lon="0.65576">
        <ele>907.654</ele>
        <time>2014-11-16T10:07:35Z</time>
      </trkpt>
      <trkpt lat="42.066" lon="0.65578">
        <ele>907.556</ele>
        <time>2014-11-16T10:07:34Z</time>
      </trkpt>
      <trkpt lat="42.066" lon="0.65579">
        <ele>907.311</ele>
        <time>2014-11-16T10:07:33Z</time>
      </trkpt>
      <trkpt lat="42.06599" lon="0.65581">
        <ele>907.108</ele>
        <time>2014-11-16T10:07:31Z</time>
      </trkpt>
      <trkpt lat="42.06599" lon="0.65582">
        <ele>906.837</ele>
        <time>2014-11-16T10:07:29Z</time>
      </trkpt>
      <trkpt lat="42.06599" lon="0.65584">
        <ele>906.586</ele>
        <time>2014-11-16T10:07:28Z</time>
      </trkpt>
      <trkpt lat="42.066" lon="0.65587">
        <ele>905.747</ele>
        <time>2014-11-16T10:07:24Z</time>
      </trkpt>
      <trkpt lat="42.066" lon="0.65589">
        <ele>905.379</ele>
        <time>2014-11-16T10:07:23Z</time>
      </trkpt>
      <trkpt lat="42.06599" lon="0.65591">
        <ele>904.812</ele>
        <time>2014-11-16T10:07:20Z</time>
      </trkpt>
      <trkpt lat="42.06599" lon="0.65592">
        <ele>904.673</ele>
        <time>2014-11-16T10:07:19Z</time>
      </trkpt>
      <trkpt lat="42.06599" lon="0.65594">
        <ele>904.48</ele>
        <time>2014-11-16T10:07:18Z</time>
      </trkpt>
      <trkpt lat="42.06597" lon="0.65596">
        <ele>904.354</ele>
        <time>2014-11-16T10:07:16Z</time>
      </trkpt>
      <trkpt lat="42.06597" lon="0.65597">
        <ele>904.059</ele>
        <time>2014-11-16T10:07:14Z</time>
      </trkpt>
      <trkpt lat="42.06597" lon="0.65599">
        <ele>903.703</ele>
        <time>2014-11-16T10:07:13Z</time>
      </trkpt>
      <trkpt lat="42.06597" lon="0.656">
        <ele>903.523</ele>
        <time>2014-11-16T10:07:12Z</time>
      </trkpt>
      <trkpt lat="42.06597" lon="0.65601">
        <ele>903.208</ele>
        <time>2014-11-16T10:07:10Z</time>
      </trkpt>
      <trkpt lat="42.06597" lon="0.65603">
        <ele>902.947</ele>
        <time>2014-11-16T10:07:09Z</time>
      </trkpt>
      <trkpt lat="42.06596" lon="0.65604">
        <ele>902.836</ele>
        <time>2014-11-16T10:07:08Z</time>
      </trkpt>
      <trkpt lat="42.06595" lon="0.65605">
        <ele>902.947</ele>
        <time>2014-11-16T10:07:07Z</time>
      </trkpt>
      <trkpt lat="42.06594" lon="0.65606">
        <ele>902.729</ele>
        <time>2014-11-16T10:07:05Z</time>
      </trkpt>
      <trkpt lat="42.06593" lon="0.65609">
        <ele>902.442</ele>
        <time>2014-11-16T10:07:04Z</time>
      </trkpt>
      <trkpt lat="42.06593" lon="0.65611">
        <ele>902.013</ele>
        <time>2014-11-16T10:07:03Z</time>
      </trkpt>
      <trkpt lat="42.06592" lon="0.65612">
        <ele>901.82</ele>
        <time>2014-11-16T10:07:00Z</time>
      </trkpt>
      <trkpt lat="42.06593" lon="0.65614">
        <ele>901.314</ele>
        <time>2014-11-16T10:06:58Z</time>
      </trkpt>
      <trkpt lat="42.06593" lon="0.65616">
        <ele>901.052</ele>
        <time>2014-11-16T10:06:56Z</time>
      </trkpt>
      <trkpt lat="42.06592" lon="0.65618">
        <ele>900.753</ele>
        <time>2014-11-16T10:06:55Z</time>
      </trkpt>
      <trkpt lat="42.06591" lon="0.65621">
        <ele>900.308</ele>
        <time>2014-11-16T10:06:53Z</time>
      </trkpt>
      <trkpt lat="42.06591" lon="0.65622">
        <ele>900.108</ele>
        <time>2014-11-16T10:06:51Z</time>
      </trkpt>
      <trkpt lat="42.06591" lon="0.65624">
        <ele>899.827</ele>
        <time>2014-11-16T10:06:50Z</time>
      </trkpt>
      <trkpt lat="42.06591" lon="0.65627">
        <ele>899.326</ele>
        <time>2014-11-16T10:06:48Z</time>
      </trkpt>
      <trkpt lat="42.06592" lon="0.65629">
        <ele>898.717</ele>
        <time>2014-11-16T10:06:46Z</time>
      </trkpt>
      <trkpt lat="42.06593" lon="0.65631">
        <ele>898.119</ele>
        <time>2014-11-16T10:06:45Z</time>
      </trkpt>
      <trkpt lat="42.06595" lon="0.65632">
        <ele>897.552</ele>
        <time>2014-11-16T10:06:44Z</time>
      </trkpt>
      <trkpt lat="42.06595" lon="0.65634">
        <ele>897.093</ele>
        <time>2014-11-16T10:06:42Z</time>
      </trkpt>
      <trkpt lat="42.06595" lon="0.65635">
        <ele>897.05</ele>
        <time>2014-11-16T10:06:41Z</time>
      </trkpt>
      <trkpt lat="42.06594" lon="0.65636">
        <ele>896.834</ele>
        <time>2014-11-16T10:06:38Z</time>
      </trkpt>
      <trkpt lat="42.06594" lon="0.65638">
        <ele>896.554</ele>
        <time>2014-11-16T10:06:36Z</time>
      </trkpt>
      <trkpt lat="42.06594" lon="0.65639">
        <ele>896.356</ele>
        <time>2014-11-16T10:06:35Z</time>
      </trkpt>
      <trkpt lat="42.06592" lon="0.65641">
        <ele>896.211</ele>
        <time>2014-11-16T10:06:34Z</time>
      </trkpt>
      <trkpt lat="42.06591" lon="0.65643">
        <ele>896.008</ele>
        <time>2014-11-16T10:06:32Z</time>
      </trkpt>
      <trkpt lat="42.06591" lon="0.65644">
        <ele>895.987</ele>
        <time>2014-11-16T10:06:31Z</time>
      </trkpt>
      <trkpt lat="42.0659" lon="0.65645">
        <ele>895.726</ele>
        <time>2014-11-16T10:06:30Z</time>
      </trkpt>
      <trkpt lat="42.06588" lon="0.65647">
        <ele>895.667</ele>
        <time>2014-11-16T10:06:29Z</time>
      </trkpt>
      <trkpt lat="42.06585" lon="0.6565">
        <ele>895.799</ele>
        <time>2014-11-16T10:06:25Z</time>
      </trkpt>
      <trkpt lat="42.06585" lon="0.65652">
        <ele>895.492</ele>
        <time>2014-11-16T10:06:24Z</time>
      </trkpt>
      <trkpt lat="42.06584" lon="0.65655">
        <ele>894.713</ele>
        <time>2014-11-16T10:06:22Z</time>
      </trkpt>
      <trkpt lat="42.06583" lon="0.65657">
        <ele>894.32</ele>
        <time>2014-11-16T10:06:20Z</time>
      </trkpt>
      <trkpt lat="42.06583" lon="0.65658">
        <ele>894.284</ele>
        <time>2014-11-16T10:06:19Z</time>
      </trkpt>
      <trkpt lat="42.06582" lon="0.6566">
        <ele>893.989</ele>
        <time>2014-11-16T10:06:18Z</time>
      </trkpt>
      <trkpt lat="42.06581" lon="0.65661">
        <ele>893.706</ele>
        <time>2014-11-16T10:06:17Z</time>
      </trkpt>
      <trkpt lat="42.0658" lon="0.65663">
        <ele>893.326</ele>
        <time>2014-11-16T10:06:15Z</time>
      </trkpt>
      <trkpt lat="42.06579" lon="0.65666">
        <ele>892.908</ele>
        <time>2014-11-16T10:06:13Z</time>
      </trkpt>
      <trkpt lat="42.06578" lon="0.65668">
        <ele>892.77</ele>
        <time>2014-11-16T10:06:12Z</time>
      </trkpt>
      <trkpt lat="42.06578" lon="0.65669">
        <ele>892.339</ele>
        <time>2014-11-16T10:06:10Z</time>
      </trkpt>
      <trkpt lat="42.06578" lon="0.65672">
        <ele>891.72</ele>
        <time>2014-11-16T10:06:08Z</time>
      </trkpt>
      <trkpt lat="42.06578" lon="0.65674">
        <ele>891.262</ele>
        <time>2014-11-16T10:06:05Z</time>
      </trkpt>
      <trkpt lat="42.06578" lon="0.65675">
        <ele>891.035</ele>
        <time>2014-11-16T10:06:03Z</time>
      </trkpt>
      <trkpt lat="42.06577" lon="0.65676">
        <ele>891.096</ele>
        <time>2014-11-16T10:06:02Z</time>
      </trkpt>
      <trkpt lat="42.06577" lon="0.65678">
        <ele>890.773</ele>
        <time>2014-11-16T10:06:01Z</time>
      </trkpt>
      <trkpt lat="42.06577" lon="0.65679">
        <ele>890.327</ele>
        <time>2014-11-16T10:06:00Z</time>
      </trkpt>
      <trkpt lat="42.06576" lon="0.65682">
        <ele>889.826</ele>
        <time>2014-11-16T10:05:57Z</time>
      </trkpt>
      <trkpt lat="42.06576" lon="0.65684">
        <ele>889.547</ele>
        <time>2014-11-16T10:05:55Z</time>
      </trkpt>
      <trkpt lat="42.06575" lon="0.65686">
        <ele>889.311</ele>
        <time>2014-11-16T10:05:53Z</time>
      </trkpt>
      <trkpt lat="42.06575" lon="0.65687">
        <ele>889.008</ele>
        <time>2014-11-16T10:05:51Z</time>
      </trkpt>
      <trkpt lat="42.06575" lon="0.65689">
        <ele>888.724</ele>
        <time>2014-11-16T10:05:49Z</time>
      </trkpt>
      <trkpt lat="42.06573" lon="0.65691">
        <ele>888.663</ele>
        <time>2014-11-16T10:05:47Z</time>
      </trkpt>
      <trkpt lat="42.06572" lon="0.65693">
        <ele>888.654</ele>
        <time>2014-11-16T10:05:45Z</time>
      </trkpt>
      <trkpt lat="42.06571" lon="0.65696">
        <ele>888.436</ele>
        <time>2014-11-16T10:05:43Z</time>
      </trkpt>
      <trkpt lat="42.0657" lon="0.65697">
        <ele>888.379</ele>
        <time>2014-11-16T10:05:42Z</time>
      </trkpt>
      <trkpt lat="42.0657" lon="0.65699">
        <ele>888.29</ele>
        <time>2014-11-16T10:05:40Z</time>
      </trkpt>
      <trkpt lat="42.06569" lon="0.65701">
        <ele>887.997</ele>
        <time>2014-11-16T10:05:39Z</time>
      </trkpt>
      <trkpt lat="42.06569" lon="0.65702">
        <ele>887.891</ele>
        <time>2014-11-16T10:05:36Z</time>
      </trkpt>
      <trkpt lat="42.06568" lon="0.65703">
        <ele>887.845</ele>
        <time>2014-11-16T10:05:35Z</time>
      </trkpt>
      <trkpt lat="42.06566" lon="0.65705">
        <ele>888.047</ele>
        <time>2014-11-16T10:05:34Z</time>
      </trkpt>
      <trkpt lat="42.06565" lon="0.65706">
        <ele>888.311</ele>
        <time>2014-11-16T10:05:32Z</time>
      </trkpt>
      <trkpt lat="42.06566" lon="0.65707">
        <ele>887.808</ele>
        <time>2014-11-16T10:05:30Z</time>
      </trkpt>
      <trkpt lat="42.06565" lon="0.65709">
        <ele>887.716</ele>
        <time>2014-11-16T10:05:28Z</time>
      </trkpt>
      <trkpt lat="42.06564" lon="0.6571">
        <ele>887.665</ele>
        <time>2014-11-16T10:05:27Z</time>
      </trkpt>
      <trkpt lat="42.06564" lon="0.65712">
        <ele>887.436</ele>
        <time>2014-11-16T10:05:26Z</time>
      </trkpt>
      <trkpt lat="42.06564" lon="0.65714">
        <ele>887.218</ele>
        <time>2014-11-16T10:05:25Z</time>
      </trkpt>
      <trkpt lat="42.06564" lon="0.65716">
        <ele>886.511</ele>
        <time>2014-11-16T10:05:23Z</time>
      </trkpt>
      <trkpt lat="42.06565" lon="0.65717">
        <ele>886.152</ele>
        <time>2014-11-16T10:05:21Z</time>
      </trkpt>
      <trkpt lat="42.06564" lon="0.6572">
        <ele>885.979</ele>
        <time>2014-11-16T10:05:19Z</time>
      </trkpt>
      <trkpt lat="42.06565" lon="0.65721">
        <ele>885.633</ele>
        <time>2014-11-16T10:05:17Z</time>
      </trkpt>
      <trkpt lat="42.06565" lon="0.65722">
        <ele>885.285</ele>
        <time>2014-11-16T10:05:16Z</time>
      </trkpt>
      <trkpt lat="42.06565" lon="0.65724">
        <ele>884.889</ele>
        <time>2014-11-16T10:05:15Z</time>
      </trkpt>
      <trkpt lat="42.06566" lon="0.65726">
        <ele>884.117</ele>
        <time>2014-11-16T10:05:12Z</time>
      </trkpt>
      <trkpt lat="42.06566" lon="0.65728">
        <ele>883.808</ele>
        <time>2014-11-16T10:05:11Z</time>
      </trkpt>
      <trkpt lat="42.06566" lon="0.6573">
        <ele>883.55</ele>
        <time>2014-11-16T10:05:10Z</time>
      </trkpt>
      <trkpt lat="42.06566" lon="0.65731">
        <ele>883.149</ele>
        <time>2014-11-16T10:05:08Z</time>
      </trkpt>
      <trkpt lat="42.06566" lon="0.65733">
        <ele>882.68</ele>
        <time>2014-11-16T10:05:07Z</time>
      </trkpt>
      <trkpt lat="42.06566" lon="0.65737">
        <ele>882.032</ele>
        <time>2014-11-16T10:05:05Z</time>
      </trkpt>
      <trkpt lat="42.06566" lon="0.65738">
        <ele>881.625</ele>
        <time>2014-11-16T10:05:03Z</time>
      </trkpt>
      <trkpt lat="42.06566" lon="0.65739">
        <ele>881.336</ele>
        <time>2014-11-16T10:05:02Z</time>
      </trkpt>
      <trkpt lat="42.06565" lon="0.65741">
        <ele>881.283</ele>
        <time>2014-11-16T10:05:00Z</time>
      </trkpt>
      <trkpt lat="42.06565" lon="0.65741">
        <ele>881.177</ele>
        <time>2014-11-16T10:04:59Z</time>
      </trkpt>
      <trkpt lat="42.06565" lon="0.65743">
        <ele>880.976</ele>
        <time>2014-11-16T10:04:58Z</time>
      </trkpt>
      <trkpt lat="42.06565" lon="0.65744">
        <ele>880.59</ele>
        <time>2014-11-16T10:04:56Z</time>
      </trkpt>
      <trkpt lat="42.06565" lon="0.65746">
        <ele>880.019</ele>
        <time>2014-11-16T10:04:55Z</time>
      </trkpt>
      <trkpt lat="42.06565" lon="0.65749">
        <ele>879.608</ele>
        <time>2014-11-16T10:04:51Z</time>
      </trkpt>
      <trkpt lat="42.06564" lon="0.65752">
        <ele>879.389</ele>
        <time>2014-11-16T10:04:49Z</time>
      </trkpt>
      <trkpt lat="42.06563" lon="0.65753">
        <ele>879.268</ele>
        <time>2014-11-16T10:04:48Z</time>
      </trkpt>
      <trkpt lat="42.06563" lon="0.65755">
        <ele>878.979</ele>
        <time>2014-11-16T10:04:46Z</time>
      </trkpt>
      <trkpt lat="42.06563" lon="0.65757">
        <ele>878.471</ele>
        <time>2014-11-16T10:04:44Z</time>
      </trkpt>
      <trkpt lat="42.06564" lon="0.65759">
        <ele>878.144</ele>
        <time>2014-11-16T10:04:42Z</time>
      </trkpt>
      <trkpt lat="42.06563" lon="0.6576">
        <ele>878.045</ele>
        <time>2014-11-16T10:04:41Z</time>
      </trkpt>
      <trkpt lat="42.06563" lon="0.65762">
        <ele>877.862</ele>
        <time>2014-11-16T10:04:40Z</time>
      </trkpt>
      <trkpt lat="42.06562" lon="0.65763">
        <ele>877.686</ele>
        <time>2014-11-16T10:04:38Z</time>
      </trkpt>
      <trkpt lat="42.06562" lon="0.65765">
        <ele>877.628</ele>
        <time>2014-11-16T10:04:35Z</time>
      </trkpt>
      <trkpt lat="42.06562" lon="0.65768">
        <ele>876.989</ele>
        <time>2014-11-16T10:04:33Z</time>
      </trkpt>
      <trkpt lat="42.06562" lon="0.6577">
        <ele>876.517</ele>
        <time>2014-11-16T10:04:32Z</time>
      </trkpt>
      <trkpt lat="42.06563" lon="0.65771">
        <ele>876.108</ele>
        <time>2014-11-16T10:04:30Z</time>
      </trkpt>
      <trkpt lat="42.06563" lon="0.65773">
        <ele>875.794</ele>
        <time>2014-11-16T10:04:29Z</time>
      </trkpt>
      <trkpt lat="42.06563" lon="0.65775">
        <ele>875.393</ele>
        <time>2014-11-16T10:04:27Z</time>
      </trkpt>
      <trkpt lat="42.06563" lon="0.65777">
        <ele>874.984</ele>
        <time>2014-11-16T10:04:25Z</time>
      </trkpt>
      <trkpt lat="42.06563" lon="0.65778">
        <ele>874.996</ele>
        <time>2014-11-16T10:04:24Z</time>
      </trkpt>
      <trkpt lat="42.06562" lon="0.65779">
        <ele>874.829</ele>
        <time>2014-11-16T10:04:22Z</time>
      </trkpt>
      <trkpt lat="42.06563" lon="0.65782">
        <ele>874.09</ele>
        <time>2014-11-16T10:04:21Z</time>
      </trkpt>
      <trkpt lat="42.06564" lon="0.65783">
        <ele>873.727</ele>
        <time>2014-11-16T10:04:19Z</time>
      </trkpt>
      <trkpt lat="42.06564" lon="0.65785">
        <ele>873.231</ele>
        <time>2014-11-16T10:04:17Z</time>
      </trkpt>
      <trkpt lat="42.06563" lon="0.65789">
        <ele>873.036</ele>
        <time>2014-11-16T10:04:15Z</time>
      </trkpt>
      <trkpt lat="42.06563" lon="0.65792">
        <ele>872.317</ele>
        <time>2014-11-16T10:04:12Z</time>
      </trkpt>
      <trkpt lat="42.06562" lon="0.65794">
        <ele>872.118</ele>
        <time>2014-11-16T10:04:11Z</time>
      </trkpt>
      <trkpt lat="42.06561" lon="0.65796">
        <ele>872.108</ele>
        <time>2014-11-16T10:04:09Z</time>
      </trkpt>
      <trkpt lat="42.06562" lon="0.65797">
        <ele>871.865</ele>
        <time>2014-11-16T10:04:08Z</time>
      </trkpt>
      <trkpt lat="42.06561" lon="0.65799">
        <ele>871.454</ele>
        <time>2014-11-16T10:04:07Z</time>
      </trkpt>
      <trkpt lat="42.06561" lon="0.65801">
        <ele>871.035</ele>
        <time>2014-11-16T10:04:05Z</time>
      </trkpt>
      <trkpt lat="42.06562" lon="0.65803">
        <ele>870.797</ele>
        <time>2014-11-16T10:04:01Z</time>
      </trkpt>
      <trkpt lat="42.06561" lon="0.65804">
        <ele>870.77</ele>
        <time>2014-11-16T10:04:00Z</time>
      </trkpt>
      <trkpt lat="42.0656" lon="0.65805">
        <ele>870.861</ele>
        <time>2014-11-16T10:03:59Z</time>
      </trkpt>
      <trkpt lat="42.06559" lon="0.65807">
        <ele>870.718</ele>
        <time>2014-11-16T10:03:57Z</time>
      </trkpt>
      <trkpt lat="42.06557" lon="0.6581">
        <ele>870.852</ele>
        <time>2014-11-16T10:03:55Z</time>
      </trkpt>
      <trkpt lat="42.06557" lon="0.65811">
        <ele>870.681</ele>
        <time>2014-11-16T10:03:53Z</time>
      </trkpt>
      <trkpt lat="42.06557" lon="0.65813">
        <ele>870.261</ele>
        <time>2014-11-16T10:03:52Z</time>
      </trkpt>
      <trkpt lat="42.06557" lon="0.65816">
        <ele>869.617</ele>
        <time>2014-11-16T10:03:49Z</time>
      </trkpt>
      <trkpt lat="42.06557" lon="0.65818">
        <ele>869.408</ele>
        <time>2014-11-16T10:03:48Z</time>
      </trkpt>
      <trkpt lat="42.06557" lon="0.6582">
        <ele>869.05</ele>
        <time>2014-11-16T10:03:46Z</time>
      </trkpt>
      <trkpt lat="42.06557" lon="0.65822">
        <ele>868.659</ele>
        <time>2014-11-16T10:03:44Z</time>
      </trkpt>
      <trkpt lat="42.06557" lon="0.65823">
        <ele>868.47</ele>
        <time>2014-11-16T10:03:43Z</time>
      </trkpt>
      <trkpt lat="42.06557" lon="0.65825">
        <ele>868.212</ele>
        <time>2014-11-16T10:03:41Z</time>
      </trkpt>
      <trkpt lat="42.06556" lon="0.65827">
        <ele>868.165</ele>
        <time>2014-11-16T10:03:39Z</time>
      </trkpt>
      <trkpt lat="42.06555" lon="0.65828">
        <ele>867.946</ele>
        <time>2014-11-16T10:03:37Z</time>
      </trkpt>
      <trkpt lat="42.06555" lon="0.6583">
        <ele>867.713</ele>
        <time>2014-11-16T10:03:36Z</time>
      </trkpt>
      <trkpt lat="42.06555" lon="0.65832">
        <ele>867.457</ele>
        <time>2014-11-16T10:03:34Z</time>
      </trkpt>
      <trkpt lat="42.06555" lon="0.65834">
        <ele>867.067</ele>
        <time>2014-11-16T10:03:32Z</time>
      </trkpt>
      <trkpt lat="42.06555" lon="0.65835">
        <ele>866.681</ele>
        <time>2014-11-16T10:03:29Z</time>
      </trkpt>
      <trkpt lat="42.06554" lon="0.65836">
        <ele>866.319</ele>
        <time>2014-11-16T10:03:28Z</time>
      </trkpt>
      <trkpt lat="42.06553" lon="0.65838">
        <ele>866.008</ele>
        <time>2014-11-16T10:03:27Z</time>
      </trkpt>
      <trkpt lat="42.06553" lon="0.65838">
        <ele>866.068</ele>
        <time>2014-11-16T10:03:26Z</time>
      </trkpt>
      <trkpt lat="42.06551" lon="0.6584">
        <ele>865.757</ele>
        <time>2014-11-16T10:03:21Z</time>
      </trkpt>
      <trkpt lat="42.06552" lon="0.65841">
        <ele>865.228</ele>
        <time>2014-11-16T10:03:20Z</time>
      </trkpt>
      <trkpt lat="42.06552" lon="0.65844">
        <ele>864.45</ele>
        <time>2014-11-16T10:03:18Z</time>
      </trkpt>
      <trkpt lat="42.06553" lon="0.65845">
        <ele>863.993</ele>
        <time>2014-11-16T10:03:15Z</time>
      </trkpt>
      <trkpt lat="42.06552" lon="0.65846">
        <ele>863.854</ele>
        <time>2014-11-16T10:03:12Z</time>
      </trkpt>
      <trkpt lat="42.06551" lon="0.65847">
        <ele>863.741</ele>
        <time>2014-11-16T10:03:09Z</time>
      </trkpt>
      <trkpt lat="42.06552" lon="0.65848">
        <ele>863.275</ele>
        <time>2014-11-16T10:03:06Z</time>
      </trkpt>
      <trkpt lat="42.06553" lon="0.65849">
        <ele>862.958</ele>
        <time>2014-11-16T10:03:04Z</time>
      </trkpt>
      <trkpt lat="42.06555" lon="0.65849">
        <ele>862.552</ele>
        <time>2014-11-16T10:03:00Z</time>
      </trkpt>
      <trkpt lat="42.06555" lon="0.65851">
        <ele>862.217</ele>
        <time>2014-11-16T10:02:49Z</time>
      </trkpt>
      <trkpt lat="42.06555" lon="0.65852">
        <ele>861.808</ele>
        <time>2014-11-16T10:02:47Z</time>
      </trkpt>
      <trkpt lat="42.06554" lon="0.65854">
        <ele>861.497</ele>
        <time>2014-11-16T10:02:45Z</time>
      </trkpt>
      <trkpt lat="42.06555" lon="0.65855">
        <ele>860.846</ele>
        <time>2014-11-16T10:02:43Z</time>
      </trkpt>
      <trkpt lat="42.06556" lon="0.65857">
        <ele>860.187</ele>
        <time>2014-11-16T10:02:41Z</time>
      </trkpt>
      <trkpt lat="42.06556" lon="0.65858">
        <ele>859.899</ele>
        <time>2014-11-16T10:02:39Z</time>
      </trkpt>
      <trkpt lat="42.06556" lon="0.65859">
        <ele>859.552</ele>
        <time>2014-11-16T10:02:38Z</time>
      </trkpt>
      <trkpt lat="42.06557" lon="0.65861">
        <ele>858.973</ele>
        <time>2014-11-16T10:02:36Z</time>
      </trkpt>
      <trkpt lat="42.06557" lon="0.65862">
        <ele>858.47</ele>
        <time>2014-11-16T10:02:34Z</time>
      </trkpt>
      <trkpt lat="42.06557" lon="0.65864">
        <ele>857.914</ele>
        <time>2014-11-16T10:02:32Z</time>
      </trkpt>
      <trkpt lat="42.06557" lon="0.65866">
        <ele>857.469</ele>
        <time>2014-11-16T10:02:31Z</time>
      </trkpt>
      <trkpt lat="42.06558" lon="0.65867">
        <ele>857.104</ele>
        <time>2014-11-16T10:02:30Z</time>
      </trkpt>
      <trkpt lat="42.06558" lon="0.65869">
        <ele>856.424</ele>
        <time>2014-11-16T10:02:27Z</time>
      </trkpt>
      <trkpt lat="42.06558" lon="0.65871">
        <ele>856.108</ele>
        <time>2014-11-16T10:02:25Z</time>
      </trkpt>
      <trkpt lat="42.06557" lon="0.65873">
        <ele>855.758</ele>
        <time>2014-11-16T10:02:19Z</time>
      </trkpt>
      <trkpt lat="42.06558" lon="0.65874">
        <ele>855.297</ele>
        <time>2014-11-16T10:02:18Z</time>
      </trkpt>
      <trkpt lat="42.06559" lon="0.65876">
        <ele>854.688</ele>
        <time>2014-11-16T10:02:12Z</time>
      </trkpt>
      <trkpt lat="42.0656" lon="0.65875">
        <ele>854.88</ele>
        <time>2014-11-16T10:02:00Z</time>
      </trkpt>
      <trkpt lat="42.06559" lon="0.65875">
        <ele>854.773</ele>
        <time>2014-11-16T10:01:59Z</time>
      </trkpt>
      <trkpt lat="42.0656" lon="0.65878">
        <ele>853.934</ele>
        <time>2014-11-16T10:01:56Z</time>
      </trkpt>
      <trkpt lat="42.0656" lon="0.6588">
        <ele>853.371</ele>
        <time>2014-11-16T10:01:54Z</time>
      </trkpt>
      <trkpt lat="42.0656" lon="0.65882">
        <ele>853.075</ele>
        <time>2014-11-16T10:01:53Z</time>
      </trkpt>
      <trkpt lat="42.0656" lon="0.65882">
        <ele>852.713</ele>
        <time>2014-11-16T10:01:51Z</time>
      </trkpt>
      <trkpt lat="42.0656" lon="0.65884">
        <ele>852.443</ele>
        <time>2014-11-16T10:01:49Z</time>
      </trkpt>
      <trkpt lat="42.06561" lon="0.65886">
        <ele>851.807</ele>
        <time>2014-11-16T10:01:47Z</time>
      </trkpt>
      <trkpt lat="42.06561" lon="0.65887">
        <ele>851.508</ele>
        <time>2014-11-16T10:01:46Z</time>
      </trkpt>
      <trkpt lat="42.06561" lon="0.65889">
        <ele>851.073</ele>
        <time>2014-11-16T10:01:45Z</time>
      </trkpt>
      <trkpt lat="42.06561" lon="0.65891">
        <ele>850.532</ele>
        <time>2014-11-16T10:01:43Z</time>
      </trkpt>
      <trkpt lat="42.06561" lon="0.65893">
        <ele>849.933</ele>
        <time>2014-11-16T10:01:41Z</time>
      </trkpt>
      <trkpt lat="42.06561" lon="0.65894">
        <ele>849.565</ele>
        <time>2014-11-16T10:01:38Z</time>
      </trkpt>
      <trkpt lat="42.06561" lon="0.65896">
        <ele>849.088</ele>
        <time>2014-11-16T10:01:37Z</time>
      </trkpt>
      <trkpt lat="42.06561" lon="0.65898">
        <ele>848.439</ele>
        <time>2014-11-16T10:01:36Z</time>
      </trkpt>
      <trkpt lat="42.06561" lon="0.659">
        <ele>847.926</ele>
        <time>2014-11-16T10:01:33Z</time>
      </trkpt>
      <trkpt lat="42.06562" lon="0.65902">
        <ele>847.24</ele>
        <time>2014-11-16T10:01:31Z</time>
      </trkpt>
      <trkpt lat="42.06561" lon="0.65904">
        <ele>846.859</ele>
        <time>2014-11-16T10:01:28Z</time>
      </trkpt>
      <trkpt lat="42.0656" lon="0.65907">
        <ele>846.203</ele>
        <time>2014-11-16T10:01:26Z</time>
      </trkpt>
      <trkpt lat="42.0656" lon="0.65908">
        <ele>845.923</ele>
        <time>2014-11-16T10:01:24Z</time>
      </trkpt>
      <trkpt lat="42.06559" lon="0.6591">
        <ele>845.508</ele>
        <time>2014-11-16T10:01:22Z</time>
      </trkpt>
      <trkpt lat="42.06558" lon="0.65911">
        <ele>845.477</ele>
        <time>2014-11-16T10:01:01Z</time>
      </trkpt>
      <trkpt lat="42.06559" lon="0.65912">
        <ele>844.966</ele>
        <time>2014-11-16T10:00:46Z</time>
      </trkpt>
      <trkpt lat="42.06559" lon="0.65911">
        <ele>845.287</ele>
        <time>2014-11-16T10:00:23Z</time>
      </trkpt>
      <trkpt lat="42.06559" lon="0.65912">
        <ele>844.899</ele>
        <time>2014-11-16T10:00:21Z</time>
      </trkpt>
      <trkpt lat="42.0656" lon="0.65912">
        <ele>844.832</ele>
        <time>2014-11-16T10:00:12Z</time>
      </trkpt>
      <trkpt lat="42.06557" lon="0.65913">
        <ele>844.833</ele>
        <time>2014-11-16T10:00:11Z</time>
      </trkpt>
      <trkpt lat="42.06557" lon="0.65914">
        <ele>844.48</ele>
        <time>2014-11-16T10:00:08Z</time>
      </trkpt>
      <trkpt lat="42.06556" lon="0.65916">
        <ele>844.264</ele>
        <time>2014-11-16T10:00:07Z</time>
      </trkpt>
      <trkpt lat="42.06554" lon="0.65918">
        <ele>843.949</ele>
        <time>2014-11-16T10:00:03Z</time>
      </trkpt>
      <trkpt lat="42.06553" lon="0.65919">
        <ele>843.502</ele>
        <time>2014-11-16T10:00:01Z</time>
      </trkpt>
      <trkpt lat="42.06553" lon="0.6592">
        <ele>843.322</ele>
        <time>2014-11-16T09:59:59Z</time>
      </trkpt>
      <trkpt lat="42.06553" lon="0.65922">
        <ele>842.908</ele>
        <time>2014-11-16T09:59:58Z</time>
      </trkpt>
      <trkpt lat="42.06553" lon="0.65924">
        <ele>842.296</ele>
        <time>2014-11-16T09:59:56Z</time>
      </trkpt>
      <trkpt lat="42.06552" lon="0.65926">
        <ele>841.915</ele>
        <time>2014-11-16T09:59:53Z</time>
      </trkpt>
      <trkpt lat="42.06551" lon="0.65926">
        <ele>842.186</ele>
        <time>2014-11-16T09:59:40Z</time>
      </trkpt>
      <trkpt lat="42.0655" lon="0.65927">
        <ele>841.868</ele>
        <time>2014-11-16T09:59:38Z</time>
      </trkpt>
      <trkpt lat="42.0655" lon="0.65929">
        <ele>841.271</ele>
        <time>2014-11-16T09:59:36Z</time>
      </trkpt>
      <trkpt lat="42.06549" lon="0.6593">
        <ele>840.932</ele>
        <time>2014-11-16T09:59:34Z</time>
      </trkpt>
      <trkpt lat="42.06549" lon="0.65931">
        <ele>840.539</ele>
        <time>2014-11-16T09:59:31Z</time>
      </trkpt>
      <trkpt lat="42.06549" lon="0.65933">
        <ele>840.173</ele>
        <time>2014-11-16T09:59:30Z</time>
      </trkpt>
      <trkpt lat="42.0655" lon="0.65934">
        <ele>839.612</ele>
        <time>2014-11-16T09:59:27Z</time>
      </trkpt>
      <trkpt lat="42.06551" lon="0.65935">
        <ele>839.132</ele>
        <time>2014-11-16T09:59:25Z</time>
      </trkpt>
      <trkpt lat="42.06552" lon="0.65936">
        <ele>838.605</ele>
        <time>2014-11-16T09:59:24Z</time>
      </trkpt>
      <trkpt lat="42.06553" lon="0.65938">
        <ele>837.708</ele>
        <time>2014-11-16T09:59:22Z</time>
      </trkpt>
      <trkpt lat="42.06554" lon="0.65939">
        <ele>837.063</ele>
        <time>2014-11-16T09:59:20Z</time>
      </trkpt>
      <trkpt lat="42.06555" lon="0.65941">
        <ele>836.342</ele>
        <time>2014-11-16T09:59:18Z</time>
      </trkpt>
      <trkpt lat="42.06555" lon="0.65942">
        <ele>835.883</ele>
        <time>2014-11-16T09:59:17Z</time>
      </trkpt>
      <trkpt lat="42.06554" lon="0.65946">
        <ele>834.925</ele>
        <time>2014-11-16T09:59:14Z</time>
      </trkpt>
      <trkpt lat="42.06554" lon="0.65947">
        <ele>834.658</ele>
        <time>2014-11-16T09:59:12Z</time>
      </trkpt>
      <trkpt lat="42.06555" lon="0.65949">
        <ele>834.139</ele>
        <time>2014-11-16T09:59:10Z</time>
      </trkpt>
      <trkpt lat="42.06555" lon="0.65951">
        <ele>833.556</ele>
        <time>2014-11-16T09:59:07Z</time>
      </trkpt>
      <trkpt lat="42.06555" lon="0.65953">
        <ele>833.03</ele>
        <time>2014-11-16T09:59:05Z</time>
      </trkpt>
      <trkpt lat="42.06554" lon="0.65955">
        <ele>832.765</ele>
        <time>2014-11-16T09:59:04Z</time>
      </trkpt>
      <trkpt lat="42.06554" lon="0.65957">
        <ele>832.368</ele>
        <time>2014-11-16T09:59:02Z</time>
      </trkpt>
      <trkpt lat="42.06554" lon="0.65958">
        <ele>831.814</ele>
        <time>2014-11-16T09:59:01Z</time>
      </trkpt>
      <trkpt lat="42.06554" lon="0.6596">
        <ele>831.208</ele>
        <time>2014-11-16T09:59:00Z</time>
      </trkpt>
      <trkpt lat="42.06554" lon="0.65962">
        <ele>830.918</ele>
        <time>2014-11-16T09:58:59Z</time>
      </trkpt>
      <trkpt lat="42.06555" lon="0.65964">
        <ele>830.357</ele>
        <time>2014-11-16T09:58:57Z</time>
      </trkpt>
      <trkpt lat="42.06554" lon="0.65967">
        <ele>829.648</ele>
        <time>2014-11-16T09:58:54Z</time>
      </trkpt>
      <trkpt lat="42.06553" lon="0.65969">
        <ele>829.33</ele>
        <time>2014-11-16T09:58:52Z</time>
      </trkpt>
      <trkpt lat="42.06552" lon="0.65972">
        <ele>829.083</ele>
        <time>2014-11-16T09:58:50Z</time>
      </trkpt>
      <trkpt lat="42.06551" lon="0.65973">
        <ele>828.764</ele>
        <time>2014-11-16T09:58:48Z</time>
      </trkpt>
      <trkpt lat="42.06552" lon="0.65975">
        <ele>828.091</ele>
        <time>2014-11-16T09:58:46Z</time>
      </trkpt>
      <trkpt lat="42.06554" lon="0.65976">
        <ele>827.375</ele>
        <time>2014-11-16T09:58:42Z</time>
      </trkpt>
      <trkpt lat="42.06551" lon="0.6598">
        <ele>826.952</ele>
        <time>2014-11-16T09:58:40Z</time>
      </trkpt>
      <trkpt lat="42.06551" lon="0.65981">
        <ele>826.553</ele>
        <time>2014-11-16T09:58:39Z</time>
      </trkpt>
      <trkpt lat="42.06551" lon="0.65983">
        <ele>825.808</ele>
        <time>2014-11-16T09:58:37Z</time>
      </trkpt>
      <trkpt lat="42.06552" lon="0.65984">
        <ele>825.408</ele>
        <time>2014-11-16T09:58:35Z</time>
      </trkpt>
      <trkpt lat="42.06553" lon="0.65985">
        <ele>824.897</ele>
        <time>2014-11-16T09:58:34Z</time>
      </trkpt>
      <trkpt lat="42.06553" lon="0.65988">
        <ele>824.016</ele>
        <time>2014-11-16T09:58:31Z</time>
      </trkpt>
      <trkpt lat="42.06554" lon="0.6599">
        <ele>823.277</ele>
        <time>2014-11-16T09:58:29Z</time>
      </trkpt>
      <trkpt lat="42.06554" lon="0.65992">
        <ele>822.949</ele>
        <time>2014-11-16T09:58:27Z</time>
      </trkpt>
      <trkpt lat="42.06554" lon="0.65994">
        <ele>822.272</ele>
        <time>2014-11-16T09:58:25Z</time>
      </trkpt>
      <trkpt lat="42.06554" lon="0.65995">
        <ele>821.823</ele>
        <time>2014-11-16T09:58:22Z</time>
      </trkpt>
      <trkpt lat="42.06553" lon="0.65997">
        <ele>821.43</ele>
        <time>2014-11-16T09:58:21Z</time>
      </trkpt>
      <trkpt lat="42.06553" lon="0.65999">
        <ele>820.864</ele>
        <time>2014-11-16T09:58:20Z</time>
      </trkpt>
      <trkpt lat="42.06553" lon="0.66001">
        <ele>820.367</ele>
        <time>2014-11-16T09:58:19Z</time>
      </trkpt>
      <trkpt lat="42.06553" lon="0.66003">
        <ele>819.981</ele>
        <time>2014-11-16T09:58:16Z</time>
      </trkpt>
      <trkpt lat="42.06552" lon="0.66006">
        <ele>819.419</ele>
        <time>2014-11-16T09:58:14Z</time>
      </trkpt>
      <trkpt lat="42.06552" lon="0.66007">
        <ele>819.108</ele>
        <time>2014-11-16T09:58:13Z</time>
      </trkpt>
      <trkpt lat="42.06551" lon="0.6601">
        <ele>818.748</ele>
        <time>2014-11-16T09:58:11Z</time>
      </trkpt>
      <trkpt lat="42.06551" lon="0.66011">
        <ele>818.387</ele>
        <time>2014-11-16T09:58:09Z</time>
      </trkpt>
      <trkpt lat="42.06551" lon="0.66012">
        <ele>817.928</ele>
        <time>2014-11-16T09:58:08Z</time>
      </trkpt>
      <trkpt lat="42.06552" lon="0.66014">
        <ele>817.53</ele>
        <time>2014-11-16T09:58:07Z</time>
      </trkpt>
      <trkpt lat="42.06552" lon="0.66016">
        <ele>817.173</ele>
        <time>2014-11-16T09:58:06Z</time>
      </trkpt>
      <trkpt lat="42.06551" lon="0.66018">
        <ele>816.664</ele>
        <time>2014-11-16T09:58:03Z</time>
      </trkpt>
      <trkpt lat="42.06552" lon="0.6602">
        <ele>816.281</ele>
        <time>2014-11-16T09:58:01Z</time>
      </trkpt>
      <trkpt lat="42.06552" lon="0.66022">
        <ele>815.555</ele>
        <time>2014-11-16T09:58:00Z</time>
      </trkpt>
      <trkpt lat="42.06553" lon="0.66024">
        <ele>814.915</ele>
        <time>2014-11-16T09:57:59Z</time>
      </trkpt>
      <trkpt lat="42.06553" lon="0.66025">
        <ele>814.365</ele>
        <time>2014-11-16T09:57:58Z</time>
      </trkpt>
      <trkpt lat="42.06554" lon="0.66027">
        <ele>813.811</ele>
        <time>2014-11-16T09:57:57Z</time>
      </trkpt>
      <trkpt lat="42.06553" lon="0.6603">
        <ele>813.408</ele>
        <time>2014-11-16T09:57:55Z</time>
      </trkpt>
      <trkpt lat="42.06552" lon="0.66031">
        <ele>813.383</ele>
        <time>2014-11-16T09:57:54Z</time>
      </trkpt>
      <trkpt lat="42.06552" lon="0.66033">
        <ele>812.972</ele>
        <time>2014-11-16T09:57:50Z</time>
      </trkpt>
      <trkpt lat="42.06553" lon="0.66038">
        <ele>811.823</ele>
        <time>2014-11-16T09:57:48Z</time>
      </trkpt>
      <trkpt lat="42.06553" lon="0.6604">
        <ele>811.215</ele>
        <time>2014-11-16T09:57:46Z</time>
      </trkpt>
      <trkpt lat="42.06553" lon="0.66043">
        <ele>810.378</ele>
        <time>2014-11-16T09:57:44Z</time>
      </trkpt>
      <trkpt lat="42.06553" lon="0.66046">
        <ele>809.999</ele>
        <time>2014-11-16T09:57:43Z</time>
      </trkpt>
      <trkpt lat="42.06553" lon="0.66048">
        <ele>809.366</ele>
        <time>2014-11-16T09:57:41Z</time>
      </trkpt>
      <trkpt lat="42.06553" lon="0.66052">
        <ele>808.71</ele>
        <time>2014-11-16T09:57:39Z</time>
      </trkpt>
      <trkpt lat="42.06553" lon="0.66053">
        <ele>808.439</ele>
        <time>2014-11-16T09:57:38Z</time>
      </trkpt>
      <trkpt lat="42.06553" lon="0.66055">
        <ele>807.801</ele>
        <time>2014-11-16T09:57:35Z</time>
      </trkpt>
      <trkpt lat="42.06554" lon="0.66057">
        <ele>807.121</ele>
        <time>2014-11-16T09:57:33Z</time>
      </trkpt>
      <trkpt lat="42.06554" lon="0.66059">
        <ele>806.708</ele>
        <time>2014-11-16T09:57:32Z</time>
      </trkpt>
      <trkpt lat="42.06554" lon="0.6606">
        <ele>806.355</ele>
        <time>2014-11-16T09:57:31Z</time>
      </trkpt>
      <trkpt lat="42.06553" lon="0.66062">
        <ele>806.154</ele>
        <time>2014-11-16T09:57:29Z</time>
      </trkpt>
      <trkpt lat="42.06552" lon="0.66064">
        <ele>806.075</ele>
        <time>2014-11-16T09:57:27Z</time>
      </trkpt>
      <trkpt lat="42.06552" lon="0.66066">
        <ele>805.797</ele>
        <time>2014-11-16T09:57:25Z</time>
      </trkpt>
      <trkpt lat="42.06551" lon="0.66068">
        <ele>805.63</ele>
        <time>2014-11-16T09:57:24Z</time>
      </trkpt>
      <trkpt lat="42.06549" lon="0.66069">
        <ele>805.971</ele>
        <time>2014-11-16T09:57:23Z</time>
      </trkpt>
      <trkpt lat="42.06547" lon="0.66071">
        <ele>806.178</ele>
        <time>2014-11-16T09:57:22Z</time>
      </trkpt>
      <trkpt lat="42.06545" lon="0.66073">
        <ele>806.242</ele>
        <time>2014-11-16T09:57:21Z</time>
      </trkpt>
      <trkpt lat="42.06544" lon="0.66074">
        <ele>806.284</ele>
        <time>2014-11-16T09:57:19Z</time>
      </trkpt>
      <trkpt lat="42.06545" lon="0.66075">
        <ele>805.807</ele>
        <time>2014-11-16T09:57:17Z</time>
      </trkpt>
      <trkpt lat="42.06545" lon="0.66077">
        <ele>805.317</ele>
        <time>2014-11-16T09:57:16Z</time>
      </trkpt>
      <trkpt lat="42.06545" lon="0.66079">
        <ele>804.808</ele>
        <time>2014-11-16T09:57:14Z</time>
      </trkpt>
      <trkpt lat="42.06545" lon="0.66081">
        <ele>804.31</ele>
        <time>2014-11-16T09:57:13Z</time>
      </trkpt>
      <trkpt lat="42.06545" lon="0.66082">
        <ele>803.989</ele>
        <time>2014-11-16T09:57:12Z</time>
      </trkpt>
      <trkpt lat="42.06545" lon="0.66084">
        <ele>803.71</ele>
        <time>2014-11-16T09:57:11Z</time>
      </trkpt>
      <trkpt lat="42.06544" lon="0.66087">
        <ele>803.322</ele>
        <time>2014-11-16T09:57:10Z</time>
      </trkpt>
      <trkpt lat="42.06543" lon="0.66089">
        <ele>803.325</ele>
        <time>2014-11-16T09:57:09Z</time>
      </trkpt>
      <trkpt lat="42.06542" lon="0.66091">
        <ele>803.366</ele>
        <time>2014-11-16T09:57:08Z</time>
      </trkpt>
      <trkpt lat="42.0654" lon="0.66094">
        <ele>803.663</ele>
        <time>2014-11-16T09:57:06Z</time>
      </trkpt>
      <trkpt lat="42.0654" lon="0.66095">
        <ele>803.277</ele>
        <time>2014-11-16T09:57:04Z</time>
      </trkpt>
      <trkpt lat="42.0654" lon="0.66097">
        <ele>802.715</ele>
        <time>2014-11-16T09:57:03Z</time>
      </trkpt>
      <trkpt lat="42.06539" lon="0.66101">
        <ele>802.465</ele>
        <time>2014-11-16T09:57:01Z</time>
      </trkpt>
      <trkpt lat="42.06538" lon="0.66103">
        <ele>802.511</ele>
        <time>2014-11-16T09:57:00Z</time>
      </trkpt>
      <trkpt lat="42.06537" lon="0.66105">
        <ele>802.708</ele>
        <time>2014-11-16T09:56:59Z</time>
      </trkpt>
      <trkpt lat="42.06535" lon="0.66108">
        <ele>802.883</ele>
        <time>2014-11-16T09:56:57Z</time>
      </trkpt>
      <trkpt lat="42.06535" lon="0.66109">
        <ele>802.412</ele>
        <time>2014-11-16T09:56:55Z</time>
      </trkpt>
      <trkpt lat="42.06535" lon="0.66111">
        <ele>802.253</ele>
        <time>2014-11-16T09:56:54Z</time>
      </trkpt>
      <trkpt lat="42.06534" lon="0.66115">
        <ele>802.065</ele>
        <time>2014-11-16T09:56:52Z</time>
      </trkpt>
      <trkpt lat="42.06534" lon="0.66117">
        <ele>801.518</ele>
        <time>2014-11-16T09:56:50Z</time>
      </trkpt>
      <trkpt lat="42.06534" lon="0.66118">
        <ele>801.489</ele>
        <time>2014-11-16T09:56:49Z</time>
      </trkpt>
      <trkpt lat="42.06533" lon="0.66121">
        <ele>801.656</ele>
        <time>2014-11-16T09:56:48Z</time>
      </trkpt>
      <trkpt lat="42.06529" lon="0.66125">
        <ele>802.36</ele>
        <time>2014-11-16T09:56:46Z</time>
      </trkpt>
      <trkpt lat="42.06529" lon="0.66127">
        <ele>802.178</ele>
        <time>2014-11-16T09:56:45Z</time>
      </trkpt>
      <trkpt lat="42.06528" lon="0.66128">
        <ele>802.333</ele>
        <time>2014-11-16T09:56:43Z</time>
      </trkpt>
      <trkpt lat="42.06528" lon="0.66134">
        <ele>801.726</ele>
        <time>2014-11-16T09:56:41Z</time>
      </trkpt>
      <trkpt lat="42.06527" lon="0.66137">
        <ele>801.908</ele>
        <time>2014-11-16T09:56:40Z</time>
      </trkpt>
      <trkpt lat="42.06525" lon="0.66139">
        <ele>802.189</ele>
        <time>2014-11-16T09:56:37Z</time>
      </trkpt>
      <trkpt lat="42.06527" lon="0.6614">
        <ele>801.418</ele>
        <time>2014-11-16T09:56:35Z</time>
      </trkpt>
      <trkpt lat="42.06527" lon="0.66141">
        <ele>801.029</ele>
        <time>2014-11-16T09:56:33Z</time>
      </trkpt>
      <trkpt lat="42.06527" lon="0.66143">
        <ele>801.031</ele>
        <time>2014-11-16T09:56:31Z</time>
      </trkpt>
      <trkpt lat="42.06526" lon="0.66145">
        <ele>801.024</ele>
        <time>2014-11-16T09:56:29Z</time>
      </trkpt>
      <trkpt lat="42.06526" lon="0.66147">
        <ele>800.535</ele>
        <time>2014-11-16T09:56:27Z</time>
      </trkpt>
      <trkpt lat="42.06527" lon="0.66148">
        <ele>800.212</ele>
        <time>2014-11-16T09:56:26Z</time>
      </trkpt>
      <trkpt lat="42.06527" lon="0.6615">
        <ele>799.856</ele>
        <time>2014-11-16T09:56:24Z</time>
      </trkpt>
      <trkpt lat="42.06528" lon="0.66151">
        <ele>799.373</ele>
        <time>2014-11-16T09:56:22Z</time>
      </trkpt>
      <trkpt lat="42.06527" lon="0.66152">
        <ele>799.385</ele>
        <time>2014-11-16T09:56:20Z</time>
      </trkpt>
      <trkpt lat="42.06526" lon="0.66156">
        <ele>799.213</ele>
        <time>2014-11-16T09:56:19Z</time>
      </trkpt>
      <trkpt lat="42.06526" lon="0.66157">
        <ele>799.108</ele>
        <time>2014-11-16T09:56:17Z</time>
      </trkpt>
      <trkpt lat="42.06526" lon="0.66159">
        <ele>798.899</ele>
        <time>2014-11-16T09:56:15Z</time>
      </trkpt>
      <trkpt lat="42.06525" lon="0.66161">
        <ele>798.938</ele>
        <time>2014-11-16T09:56:13Z</time>
      </trkpt>
      <trkpt lat="42.06524" lon="0.66164">
        <ele>798.939</ele>
        <time>2014-11-16T09:56:12Z</time>
      </trkpt>
      <trkpt lat="42.06523" lon="0.66166">
        <ele>799.071</ele>
        <time>2014-11-16T09:56:08Z</time>
      </trkpt>
      <trkpt lat="42.06523" lon="0.66168">
        <ele>798.884</ele>
        <time>2014-11-16T09:56:07Z</time>
      </trkpt>
      <trkpt lat="42.06522" lon="0.6617">
        <ele>798.745</ele>
        <time>2014-11-16T09:56:06Z</time>
      </trkpt>
      <trkpt lat="42.06523" lon="0.66172">
        <ele>798.212</ele>
        <time>2014-11-16T09:56:05Z</time>
      </trkpt>
      <trkpt lat="42.06522" lon="0.66174">
        <ele>798.176</ele>
        <time>2014-11-16T09:56:04Z</time>
      </trkpt>
      <trkpt lat="42.06523" lon="0.66176">
        <ele>797.687</ele>
        <time>2014-11-16T09:56:03Z</time>
      </trkpt>
      <trkpt lat="42.06524" lon="0.66177">
        <ele>796.842</ele>
        <time>2014-11-16T09:56:00Z</time>
      </trkpt>
      <trkpt lat="42.06524" lon="0.66177">
        <ele>796.726</ele>
        <time>2014-11-16T09:55:58Z</time>
      </trkpt>
      <trkpt lat="42.06524" lon="0.66179">
        <ele>796.508</ele>
        <time>2014-11-16T09:55:57Z</time>
      </trkpt>
      <trkpt lat="42.06522" lon="0.66181">
        <ele>796.97</ele>
        <time>2014-11-16T09:55:56Z</time>
      </trkpt>
      <trkpt lat="42.06522" lon="0.66183">
        <ele>796.699</ele>
        <time>2014-11-16T09:55:54Z</time>
      </trkpt>
      <trkpt lat="42.06523" lon="0.66184">
        <ele>796.01</ele>
        <time>2014-11-16T09:55:53Z</time>
      </trkpt>
      <trkpt lat="42.06523" lon="0.66186">
        <ele>795.542</ele>
        <time>2014-11-16T09:55:52Z</time>
      </trkpt>
      <trkpt lat="42.06524" lon="0.66189">
        <ele>794.845</ele>
        <time>2014-11-16T09:55:47Z</time>
      </trkpt>
      <trkpt lat="42.06523" lon="0.6619">
        <ele>794.816</ele>
        <time>2014-11-16T09:55:46Z</time>
      </trkpt>
      <trkpt lat="42.06523" lon="0.66192">
        <ele>794.873</ele>
        <time>2014-11-16T09:55:45Z</time>
      </trkpt>
      <trkpt lat="42.06522" lon="0.66193">
        <ele>794.797</ele>
        <time>2014-11-16T09:55:44Z</time>
      </trkpt>
      <trkpt lat="42.06523" lon="0.66195">
        <ele>794.227</ele>
        <time>2014-11-16T09:55:42Z</time>
      </trkpt>
      <trkpt lat="42.06523" lon="0.66196">
        <ele>793.868</ele>
        <time>2014-11-16T09:55:40Z</time>
      </trkpt>
      <trkpt lat="42.06523" lon="0.66198">
        <ele>793.514</ele>
        <time>2014-11-16T09:55:38Z</time>
      </trkpt>
      <trkpt lat="42.06523" lon="0.66199">
        <ele>793.008</ele>
        <time>2014-11-16T09:55:36Z</time>
      </trkpt>
      <trkpt lat="42.06523" lon="0.66202">
        <ele>792.674</ele>
        <time>2014-11-16T09:55:33Z</time>
      </trkpt>
      <trkpt lat="42.06523" lon="0.66204">
        <ele>792.433</ele>
        <time>2014-11-16T09:55:30Z</time>
      </trkpt>
      <trkpt lat="42.06522" lon="0.66205">
        <ele>792.344</ele>
        <time>2014-11-16T09:55:29Z</time>
      </trkpt>
      <trkpt lat="42.06521" lon="0.66208">
        <ele>792.036</ele>
        <time>2014-11-16T09:55:26Z</time>
      </trkpt>
      <trkpt lat="42.06522" lon="0.66209">
        <ele>791.769</ele>
        <time>2014-11-16T09:55:24Z</time>
      </trkpt>
      <trkpt lat="42.06522" lon="0.66212">
        <ele>790.97</ele>
        <time>2014-11-16T09:55:21Z</time>
      </trkpt>
      <trkpt lat="42.06522" lon="0.66214">
        <ele>790.537</ele>
        <time>2014-11-16T09:55:20Z</time>
      </trkpt>
      <trkpt lat="42.06523" lon="0.66217">
        <ele>789.481</ele>
        <time>2014-11-16T09:55:18Z</time>
      </trkpt>
      <trkpt lat="42.06525" lon="0.66218">
        <ele>788.339</ele>
        <time>2014-11-16T09:55:16Z</time>
      </trkpt>
      <trkpt lat="42.06525" lon="0.66219">
        <ele>788.101</ele>
        <time>2014-11-16T09:55:15Z</time>
      </trkpt>
      <trkpt lat="42.06524" lon="0.66222">
        <ele>787.721</ele>
        <time>2014-11-16T09:55:09Z</time>
      </trkpt>
      <trkpt lat="42.06523" lon="0.66222">
        <ele>788.308</ele>
        <time>2014-11-16T09:55:05Z</time>
      </trkpt>
      <trkpt lat="42.06523" lon="0.66225">
        <ele>787.635</ele>
        <time>2014-11-16T09:55:03Z</time>
      </trkpt>
      <trkpt lat="42.06524" lon="0.66227">
        <ele>787.164</ele>
        <time>2014-11-16T09:55:01Z</time>
      </trkpt>
      <trkpt lat="42.06523" lon="0.6623">
        <ele>786.735</ele>
        <time>2014-11-16T09:54:59Z</time>
      </trkpt>
      <trkpt lat="42.06523" lon="0.66233">
        <ele>786.347</ele>
        <time>2014-11-16T09:54:57Z</time>
      </trkpt>
      <trkpt lat="42.06523" lon="0.66234">
        <ele>785.89</ele>
        <time>2014-11-16T09:54:55Z</time>
      </trkpt>
      <trkpt lat="42.06522" lon="0.66236">
        <ele>785.781</ele>
        <time>2014-11-16T09:54:53Z</time>
      </trkpt>
      <trkpt lat="42.06521" lon="0.66238">
        <ele>786.058</ele>
        <time>2014-11-16T09:54:51Z</time>
      </trkpt>
      <trkpt lat="42.06521" lon="0.66239">
        <ele>786.012</ele>
        <time>2014-11-16T09:54:50Z</time>
      </trkpt>
      <trkpt lat="42.0652" lon="0.66241">
        <ele>786.012</ele>
        <time>2014-11-16T09:54:48Z</time>
      </trkpt>
      <trkpt lat="42.0652" lon="0.66242">
        <ele>785.832</ele>
        <time>2014-11-16T09:54:46Z</time>
      </trkpt>
      <trkpt lat="42.06519" lon="0.66244">
        <ele>785.405</ele>
        <time>2014-11-16T09:54:43Z</time>
      </trkpt>
      <trkpt lat="42.06518" lon="0.66248">
        <ele>785.208</ele>
        <time>2014-11-16T09:54:41Z</time>
      </trkpt>
      <trkpt lat="42.06518" lon="0.66249">
        <ele>784.963</ele>
        <time>2014-11-16T09:54:37Z</time>
      </trkpt>
      <trkpt lat="42.06517" lon="0.66251">
        <ele>785.052</ele>
        <time>2014-11-16T09:54:36Z</time>
      </trkpt>
      <trkpt lat="42.06518" lon="0.66252">
        <ele>784.713</ele>
        <time>2014-11-16T09:54:35Z</time>
      </trkpt>
      <trkpt lat="42.06519" lon="0.66254">
        <ele>783.515</ele>
        <time>2014-11-16T09:54:33Z</time>
      </trkpt>
      <trkpt lat="42.0652" lon="0.66255">
        <ele>782.828</ele>
        <time>2014-11-16T09:54:32Z</time>
      </trkpt>
      <trkpt lat="42.0652" lon="0.66257">
        <ele>782.289</ele>
        <time>2014-11-16T09:54:31Z</time>
      </trkpt>
      <trkpt lat="42.0652" lon="0.66258">
        <ele>781.716</ele>
        <time>2014-11-16T09:54:30Z</time>
      </trkpt>
      <trkpt lat="42.06521" lon="0.66258">
        <ele>781.44</ele>
        <time>2014-11-16T09:54:28Z</time>
      </trkpt>
      <trkpt lat="42.06522" lon="0.66258">
        <ele>780.848</ele>
        <time>2014-11-16T09:54:26Z</time>
      </trkpt>
      <trkpt lat="42.06522" lon="0.6626">
        <ele>780.261</ele>
        <time>2014-11-16T09:54:24Z</time>
      </trkpt>
      <trkpt lat="42.06523" lon="0.66263">
        <ele>779.317</ele>
        <time>2014-11-16T09:54:22Z</time>
      </trkpt>
      <trkpt lat="42.06523" lon="0.66265">
        <ele>778.508</ele>
        <time>2014-11-16T09:54:19Z</time>
      </trkpt>
      <trkpt lat="42.06524" lon="0.66266">
        <ele>777.856</ele>
        <time>2014-11-16T09:54:18Z</time>
      </trkpt>
      <trkpt lat="42.06525" lon="0.66267">
        <ele>777.145</ele>
        <time>2014-11-16T09:54:16Z</time>
      </trkpt>
      <trkpt lat="42.06525" lon="0.66268">
        <ele>777.016</ele>
        <time>2014-11-16T09:54:14Z</time>
      </trkpt>
      <trkpt lat="42.06524" lon="0.66271">
        <ele>776.658</ele>
        <time>2014-11-16T09:54:12Z</time>
      </trkpt>
      <trkpt lat="42.06523" lon="0.66272">
        <ele>777.061</ele>
        <time>2014-11-16T09:54:10Z</time>
      </trkpt>
      <trkpt lat="42.06522" lon="0.66271">
        <ele>777.872</ele>
        <time>2014-11-16T09:54:08Z</time>
      </trkpt>
      <trkpt lat="42.06523" lon="0.66272">
        <ele>776.869</ele>
        <time>2014-11-16T09:54:05Z</time>
      </trkpt>
      <trkpt lat="42.06524" lon="0.66275">
        <ele>775.723</ele>
        <time>2014-11-16T09:54:02Z</time>
      </trkpt>
      <trkpt lat="42.06524" lon="0.66278">
        <ele>775.191</ele>
        <time>2014-11-16T09:54:00Z</time>
      </trkpt>
      <trkpt lat="42.06524" lon="0.66279">
        <ele>774.981</ele>
        <time>2014-11-16T09:53:59Z</time>
      </trkpt>
      <trkpt lat="42.06524" lon="0.66281">
        <ele>774.819</ele>
        <time>2014-11-16T09:53:57Z</time>
      </trkpt>
      <trkpt lat="42.06523" lon="0.66282">
        <ele>774.808</ele>
        <time>2014-11-16T09:53:56Z</time>
      </trkpt>
      <trkpt lat="42.06524" lon="0.66283">
        <ele>774.131</ele>
        <time>2014-11-16T09:53:54Z</time>
      </trkpt>
      <trkpt lat="42.06526" lon="0.66284">
        <ele>772.82</ele>
        <time>2014-11-16T09:53:51Z</time>
      </trkpt>
      <trkpt lat="42.06527" lon="0.66285">
        <ele>772.151</ele>
        <time>2014-11-16T09:53:49Z</time>
      </trkpt>
      <trkpt lat="42.06526" lon="0.66287">
        <ele>772.153</ele>
        <time>2014-11-16T09:53:47Z</time>
      </trkpt>
      <trkpt lat="42.06526" lon="0.66288">
        <ele>771.826</ele>
        <time>2014-11-16T09:53:46Z</time>
      </trkpt>
      <trkpt lat="42.06526" lon="0.6629">
        <ele>771.627</ele>
        <time>2014-11-16T09:53:45Z</time>
      </trkpt>
      <trkpt lat="42.06526" lon="0.66292">
        <ele>771.454</ele>
        <time>2014-11-16T09:53:43Z</time>
      </trkpt>
      <trkpt lat="42.06526" lon="0.66293">
        <ele>771.228</ele>
        <time>2014-11-16T09:53:42Z</time>
      </trkpt>
      <trkpt lat="42.06526" lon="0.66295">
        <ele>770.654</ele>
        <time>2014-11-16T09:53:40Z</time>
      </trkpt>
      <trkpt lat="42.06526" lon="0.66297">
        <ele>770.356</ele>
        <time>2014-11-16T09:53:38Z</time>
      </trkpt>
      <trkpt lat="42.06526" lon="0.66299">
        <ele>770.111</ele>
        <time>2014-11-16T09:53:36Z</time>
      </trkpt>
      <trkpt lat="42.06526" lon="0.66301">
        <ele>769.608</ele>
        <time>2014-11-16T09:53:34Z</time>
      </trkpt>
      <trkpt lat="42.06526" lon="0.66303">
        <ele>769.357</ele>
        <time>2014-11-16T09:53:30Z</time>
      </trkpt>
      <trkpt lat="42.06526" lon="0.66304">
        <ele>769.076</ele>
        <time>2014-11-16T09:53:29Z</time>
      </trkpt>
      <trkpt lat="42.06526" lon="0.66307">
        <ele>768.767</ele>
        <time>2014-11-16T09:53:28Z</time>
      </trkpt>
      <trkpt lat="42.06526" lon="0.66309">
        <ele>768.259</ele>
        <time>2014-11-16T09:53:24Z</time>
      </trkpt>
      <trkpt lat="42.06526" lon="0.6631">
        <ele>768.122</ele>
        <time>2014-11-16T09:53:23Z</time>
      </trkpt>
      <trkpt lat="42.06526" lon="0.66312">
        <ele>767.753</ele>
        <time>2014-11-16T09:53:22Z</time>
      </trkpt>
      <trkpt lat="42.06526" lon="0.66315">
        <ele>767.08</ele>
        <time>2014-11-16T09:53:20Z</time>
      </trkpt>
      <trkpt lat="42.06526" lon="0.66318">
        <ele>766.694</ele>
        <time>2014-11-16T09:53:17Z</time>
      </trkpt>
      <trkpt lat="42.06526" lon="0.6632">
        <ele>766.053</ele>
        <time>2014-11-16T09:53:15Z</time>
      </trkpt>
      <trkpt lat="42.06527" lon="0.66323">
        <ele>765.204</ele>
        <time>2014-11-16T09:53:13Z</time>
      </trkpt>
      <trkpt lat="42.06527" lon="0.66324">
        <ele>765.014</ele>
        <time>2014-11-16T09:53:12Z</time>
      </trkpt>
      <trkpt lat="42.06527" lon="0.66326">
        <ele>764.708</ele>
        <time>2014-11-16T09:53:11Z</time>
      </trkpt>
      <trkpt lat="42.06527" lon="0.66327">
        <ele>764.417</ele>
        <time>2014-11-16T09:53:10Z</time>
      </trkpt>
      <trkpt lat="42.06527" lon="0.66329">
        <ele>764.166</ele>
        <time>2014-11-16T09:53:08Z</time>
      </trkpt>
      <trkpt lat="42.06528" lon="0.66331">
        <ele>763.537</ele>
        <time>2014-11-16T09:53:07Z</time>
      </trkpt>
      <trkpt lat="42.06528" lon="0.66333">
        <ele>762.939</ele>
        <time>2014-11-16T09:53:05Z</time>
      </trkpt>
      <trkpt lat="42.06529" lon="0.66334">
        <ele>762.582</ele>
        <time>2014-11-16T09:53:04Z</time>
      </trkpt>
      <trkpt lat="42.0653" lon="0.66336">
        <ele>761.533</ele>
        <time>2014-11-16T09:53:02Z</time>
      </trkpt>
      <trkpt lat="42.0653" lon="0.66338">
        <ele>761.28</ele>
        <time>2014-11-16T09:53:00Z</time>
      </trkpt>
      <trkpt lat="42.0653" lon="0.6634">
        <ele>760.984</ele>
        <time>2014-11-16T09:52:59Z</time>
      </trkpt>
      <trkpt lat="42.06531" lon="0.66342">
        <ele>760.231</ele>
        <time>2014-11-16T09:52:57Z</time>
      </trkpt>
      <trkpt lat="42.06532" lon="0.66343">
        <ele>759.861</ele>
        <time>2014-11-16T09:52:56Z</time>
      </trkpt>
      <trkpt lat="42.06532" lon="0.66345">
        <ele>759.207</ele>
        <time>2014-11-16T09:52:54Z</time>
      </trkpt>
      <trkpt lat="42.06533" lon="0.66348">
        <ele>758.608</ele>
        <time>2014-11-16T09:52:52Z</time>
      </trkpt>
      <trkpt lat="42.06533" lon="0.6635">
        <ele>758.275</ele>
        <time>2014-11-16T09:52:51Z</time>
      </trkpt>
      <trkpt lat="42.06532" lon="0.66352">
        <ele>757.984</ele>
        <time>2014-11-16T09:52:50Z</time>
      </trkpt>
      <trkpt lat="42.06532" lon="0.66354">
        <ele>757.645</ele>
        <time>2014-11-16T09:52:48Z</time>
      </trkpt>
      <trkpt lat="42.06532" lon="0.66357">
        <ele>757.247</ele>
        <time>2014-11-16T09:52:46Z</time>
      </trkpt>
      <trkpt lat="42.06533" lon="0.66359">
        <ele>756.62</ele>
        <time>2014-11-16T09:52:45Z</time>
      </trkpt>
      <trkpt lat="42.06533" lon="0.66363">
        <ele>756.071</ele>
        <time>2014-11-16T09:52:43Z</time>
      </trkpt>
      <trkpt lat="42.06532" lon="0.66366">
        <ele>755.928</ele>
        <time>2014-11-16T09:52:42Z</time>
      </trkpt>
      <trkpt lat="42.06532" lon="0.66368">
        <ele>755.972</ele>
        <time>2014-11-16T09:52:40Z</time>
      </trkpt>
      <trkpt lat="42.06531" lon="0.6637">
        <ele>755.925</ele>
        <time>2014-11-16T09:52:38Z</time>
      </trkpt>
      <trkpt lat="42.06531" lon="0.66371">
        <ele>755.726</ele>
        <time>2014-11-16T09:52:37Z</time>
      </trkpt>
      <trkpt lat="42.06531" lon="0.66374">
        <ele>755.608</ele>
        <time>2014-11-16T09:52:36Z</time>
      </trkpt>
      <trkpt lat="42.06531" lon="0.66377">
        <ele>755.208</ele>
        <time>2014-11-16T09:52:33Z</time>
      </trkpt>
      <trkpt lat="42.06531" lon="0.6638">
        <ele>755.134</ele>
        <time>2014-11-16T09:52:31Z</time>
      </trkpt>
      <trkpt lat="42.0653" lon="0.66383">
        <ele>755.133</ele>
        <time>2014-11-16T09:52:29Z</time>
      </trkpt>
      <trkpt lat="42.06529" lon="0.66384">
        <ele>755.184</ele>
        <time>2014-11-16T09:52:28Z</time>
      </trkpt>
      <trkpt lat="42.06529" lon="0.66386">
        <ele>754.946</ele>
        <time>2014-11-16T09:52:27Z</time>
      </trkpt>
      <trkpt lat="42.06529" lon="0.66387">
        <ele>754.799</ele>
        <time>2014-11-16T09:52:26Z</time>
      </trkpt>
      <trkpt lat="42.06529" lon="0.6639">
        <ele>754.54</ele>
        <time>2014-11-16T09:52:23Z</time>
      </trkpt>
      <trkpt lat="42.0653" lon="0.66391">
        <ele>754.317</ele>
        <time>2014-11-16T09:52:22Z</time>
      </trkpt>
      <trkpt lat="42.0653" lon="0.66394">
        <ele>754.031</ele>
        <time>2014-11-16T09:52:20Z</time>
      </trkpt>
      <trkpt lat="42.0653" lon="0.66397">
        <ele>753.713</ele>
        <time>2014-11-16T09:52:18Z</time>
      </trkpt>
      <trkpt lat="42.06531" lon="0.66398">
        <ele>753.343</ele>
        <time>2014-11-16T09:52:17Z</time>
      </trkpt>
      <trkpt lat="42.06531" lon="0.66399">
        <ele>753.207</ele>
        <time>2014-11-16T09:52:16Z</time>
      </trkpt>
      <trkpt lat="42.06531" lon="0.66401">
        <ele>753.208</ele>
        <time>2014-11-16T09:52:15Z</time>
      </trkpt>
      <trkpt lat="42.06531" lon="0.66403">
        <ele>753.213</ele>
        <time>2014-11-16T09:52:14Z</time>
      </trkpt>
      <trkpt lat="42.06531" lon="0.66405">
        <ele>753.062</ele>
        <time>2014-11-16T09:52:12Z</time>
      </trkpt>
      <trkpt lat="42.06531" lon="0.66407">
        <ele>752.773</ele>
        <time>2014-11-16T09:52:10Z</time>
      </trkpt>
      <trkpt lat="42.06531" lon="0.66409">
        <ele>752.665</ele>
        <time>2014-11-16T09:52:09Z</time>
      </trkpt>
      <trkpt lat="42.06531" lon="0.6641">
        <ele>752.528</ele>
        <time>2014-11-16T09:52:08Z</time>
      </trkpt>
      <trkpt lat="42.0653" lon="0.66414">
        <ele>752.439</ele>
        <time>2014-11-16T09:52:06Z</time>
      </trkpt>
      <trkpt lat="42.0653" lon="0.66417">
        <ele>752.256</ele>
        <time>2014-11-16T09:52:03Z</time>
      </trkpt>
      <trkpt lat="42.0653" lon="0.66421">
        <ele>751.39</ele>
        <time>2014-11-16T09:52:01Z</time>
      </trkpt>
      <trkpt lat="42.0653" lon="0.66424">
        <ele>751.097</ele>
        <time>2014-11-16T09:52:00Z</time>
      </trkpt>
      <trkpt lat="42.06529" lon="0.66426">
        <ele>751.023</ele>
        <time>2014-11-16T09:51:59Z</time>
      </trkpt>
      <trkpt lat="42.06528" lon="0.66427">
        <ele>750.925</ele>
        <time>2014-11-16T09:51:56Z</time>
      </trkpt>
      <trkpt lat="42.06528" lon="0.66429">
        <ele>750.808</ele>
        <time>2014-11-16T09:51:55Z</time>
      </trkpt>
      <trkpt lat="42.06527" lon="0.66431">
        <ele>750.861</ele>
        <time>2014-11-16T09:51:54Z</time>
      </trkpt>
      <trkpt lat="42.06525" lon="0.66434">
        <ele>750.68</ele>
        <time>2014-11-16T09:51:52Z</time>
      </trkpt>
      <trkpt lat="42.06524" lon="0.66436">
        <ele>750.491</ele>
        <time>2014-11-16T09:51:51Z</time>
      </trkpt>
      <trkpt lat="42.06525" lon="0.66438">
        <ele>749.913</ele>
        <time>2014-11-16T09:51:49Z</time>
      </trkpt>
      <trkpt lat="42.06526" lon="0.66439">
        <ele>749.556</ele>
        <time>2014-11-16T09:51:47Z</time>
      </trkpt>
      <trkpt lat="42.06526" lon="0.66443">
        <ele>748.757</ele>
        <time>2014-11-16T09:51:45Z</time>
      </trkpt>
      <trkpt lat="42.06527" lon="0.66445">
        <ele>748.224</ele>
        <time>2014-11-16T09:51:43Z</time>
      </trkpt>
      <trkpt lat="42.06527" lon="0.66446">
        <ele>747.968</ele>
        <time>2014-11-16T09:51:42Z</time>
      </trkpt>
      <trkpt lat="42.06527" lon="0.66451">
        <ele>747.269</ele>
        <time>2014-11-16T09:51:40Z</time>
      </trkpt>
      <trkpt lat="42.06527" lon="0.66453">
        <ele>746.904</ele>
        <time>2014-11-16T09:51:39Z</time>
      </trkpt>
      <trkpt lat="42.06529" lon="0.66456">
        <ele>746.224</ele>
        <time>2014-11-16T09:51:36Z</time>
      </trkpt>
      <trkpt lat="42.06529" lon="0.66457">
        <ele>745.908</ele>
        <time>2014-11-16T09:51:35Z</time>
      </trkpt>
      <trkpt lat="42.06529" lon="0.66458">
        <ele>745.688</ele>
        <time>2014-11-16T09:51:33Z</time>
      </trkpt>
      <trkpt lat="42.0653" lon="0.6646">
        <ele>745.137</ele>
        <time>2014-11-16T09:51:31Z</time>
      </trkpt>
      <trkpt lat="42.06531" lon="0.66461">
        <ele>744.888</ele>
        <time>2014-11-16T09:51:30Z</time>
      </trkpt>
      <trkpt lat="42.06531" lon="0.66462">
        <ele>744.64</ele>
        <time>2014-11-16T09:51:29Z</time>
      </trkpt>
      <trkpt lat="42.06531" lon="0.66465">
        <ele>744.013</ele>
        <time>2014-11-16T09:51:27Z</time>
      </trkpt>
      <trkpt lat="42.06531" lon="0.66466">
        <ele>743.994</ele>
        <time>2014-11-16T09:51:26Z</time>
      </trkpt>
      <trkpt lat="42.06531" lon="0.66468">
        <ele>743.611</ele>
        <time>2014-11-16T09:51:25Z</time>
      </trkpt>
      <trkpt lat="42.06531" lon="0.66472">
        <ele>743.045</ele>
        <time>2014-11-16T09:51:23Z</time>
      </trkpt>
      <trkpt lat="42.06531" lon="0.66475">
        <ele>742.651</ele>
        <time>2014-11-16T09:51:21Z</time>
      </trkpt>
      <trkpt lat="42.06531" lon="0.66477">
        <ele>742.401</ele>
        <time>2014-11-16T09:51:19Z</time>
      </trkpt>
      <trkpt lat="42.06531" lon="0.66478">
        <ele>742.111</ele>
        <time>2014-11-16T09:51:17Z</time>
      </trkpt>
      <trkpt lat="42.06531" lon="0.66479">
        <ele>742.108</ele>
        <time>2014-11-16T09:51:15Z</time>
      </trkpt>
      <trkpt lat="42.06528" lon="0.66481">
        <ele>742.757</ele>
        <time>2014-11-16T09:51:13Z</time>
      </trkpt>
      <trkpt lat="42.06526" lon="0.66484">
        <ele>742.746</ele>
        <time>2014-11-16T09:51:12Z</time>
      </trkpt>
      <trkpt lat="42.06525" lon="0.66487">
        <ele>742.557</ele>
        <time>2014-11-16T09:51:08Z</time>
      </trkpt>
      <trkpt lat="42.06524" lon="0.66491">
        <ele>742.279</ele>
        <time>2014-11-16T09:51:06Z</time>
      </trkpt>
      <trkpt lat="42.06523" lon="0.66492">
        <ele>742.242</ele>
        <time>2014-11-16T09:51:05Z</time>
      </trkpt>
      <trkpt lat="42.06523" lon="0.66493">
        <ele>742.223</ele>
        <time>2014-11-16T09:51:04Z</time>
      </trkpt>
      <trkpt lat="42.06523" lon="0.66495">
        <ele>741.81</ele>
        <time>2014-11-16T09:51:02Z</time>
      </trkpt>
      <trkpt lat="42.06523" lon="0.66497">
        <ele>741.644</ele>
        <time>2014-11-16T09:51:01Z</time>
      </trkpt>
      <trkpt lat="42.06523" lon="0.66499">
        <ele>741.235</ele>
        <time>2014-11-16T09:51:00Z</time>
      </trkpt>
      <trkpt lat="42.06522" lon="0.66501">
        <ele>741.186</ele>
        <time>2014-11-16T09:50:59Z</time>
      </trkpt>
      <trkpt lat="42.06521" lon="0.66503">
        <ele>741.014</ele>
        <time>2014-11-16T09:50:58Z</time>
      </trkpt>
      <trkpt lat="42.06521" lon="0.66504">
        <ele>741.008</ele>
        <time>2014-11-16T09:50:56Z</time>
      </trkpt>
      <trkpt lat="42.06522" lon="0.66505">
        <ele>740.725</ele>
        <time>2014-11-16T09:50:55Z</time>
      </trkpt>
      <trkpt lat="42.06522" lon="0.66506">
        <ele>740.564</ele>
        <time>2014-11-16T09:50:54Z</time>
      </trkpt>
      <trkpt lat="42.06522" lon="0.66508">
        <ele>740.345</ele>
        <time>2014-11-16T09:50:53Z</time>
      </trkpt>
      <trkpt lat="42.06522" lon="0.66511">
        <ele>740.147</ele>
        <time>2014-11-16T09:50:52Z</time>
      </trkpt>
      <trkpt lat="42.06521" lon="0.66514">
        <ele>739.81</ele>
        <time>2014-11-16T09:50:51Z</time>
      </trkpt>
      <trkpt lat="42.06522" lon="0.66515">
        <ele>739.631</ele>
        <time>2014-11-16T09:50:49Z</time>
      </trkpt>
      <trkpt lat="42.06522" lon="0.66516">
        <ele>739.368</ele>
        <time>2014-11-16T09:50:47Z</time>
      </trkpt>
      <trkpt lat="42.06523" lon="0.6652">
        <ele>738.872</ele>
        <time>2014-11-16T09:50:45Z</time>
      </trkpt>
      <trkpt lat="42.06523" lon="0.66525">
        <ele>738.216</ele>
        <time>2014-11-16T09:50:42Z</time>
      </trkpt>
      <trkpt lat="42.06524" lon="0.66526">
        <ele>737.976</ele>
        <time>2014-11-16T09:50:41Z</time>
      </trkpt>
      <trkpt lat="42.06525" lon="0.66529">
        <ele>737.413</ele>
        <time>2014-11-16T09:50:39Z</time>
      </trkpt>
      <trkpt lat="42.06525" lon="0.66531">
        <ele>737.208</ele>
        <time>2014-11-16T09:50:38Z</time>
      </trkpt>
      <trkpt lat="42.06525" lon="0.66533">
        <ele>736.983</ele>
        <time>2014-11-16T09:50:37Z</time>
      </trkpt>
      <trkpt lat="42.06524" lon="0.66535">
        <ele>736.882</ele>
        <time>2014-11-16T09:50:36Z</time>
      </trkpt>
      <trkpt lat="42.06524" lon="0.66537">
        <ele>736.683</ele>
        <time>2014-11-16T09:50:35Z</time>
      </trkpt>
      <trkpt lat="42.06523" lon="0.6654">
        <ele>736.465</ele>
        <time>2014-11-16T09:50:34Z</time>
      </trkpt>
      <trkpt lat="42.06523" lon="0.66541">
        <ele>736.398</ele>
        <time>2014-11-16T09:50:33Z</time>
      </trkpt>
      <trkpt lat="42.06522" lon="0.66544">
        <ele>736.159</ele>
        <time>2014-11-16T09:50:31Z</time>
      </trkpt>
      <trkpt lat="42.06523" lon="0.66545">
        <ele>735.916</ele>
        <time>2014-11-16T09:50:30Z</time>
      </trkpt>
      <trkpt lat="42.06522" lon="0.66547">
        <ele>735.68</ele>
        <time>2014-11-16T09:50:29Z</time>
      </trkpt>
      <trkpt lat="42.06522" lon="0.66551">
        <ele>735.241</ele>
        <time>2014-11-16T09:50:27Z</time>
      </trkpt>
      <trkpt lat="42.06521" lon="0.66553">
        <ele>735.081</ele>
        <time>2014-11-16T09:50:24Z</time>
      </trkpt>
      <trkpt lat="42.06521" lon="0.66555">
        <ele>734.809</ele>
        <time>2014-11-16T09:50:23Z</time>
      </trkpt>
      <trkpt lat="42.06521" lon="0.66557">
        <ele>734.508</ele>
        <time>2014-11-16T09:50:22Z</time>
      </trkpt>
      <trkpt lat="42.06521" lon="0.66559">
        <ele>734.396</ele>
        <time>2014-11-16T09:50:21Z</time>
      </trkpt>
      <trkpt lat="42.06521" lon="0.66561">
        <ele>734.015</ele>
        <time>2014-11-16T09:50:20Z</time>
      </trkpt>
      <trkpt lat="42.06521" lon="0.66562">
        <ele>733.826</ele>
        <time>2014-11-16T09:50:15Z</time>
      </trkpt>
      <trkpt lat="42.0652" lon="0.66563">
        <ele>733.738</ele>
        <time>2014-11-16T09:50:14Z</time>
      </trkpt>
      <trkpt lat="42.06521" lon="0.66564">
        <ele>733.571</ele>
        <time>2014-11-16T09:50:11Z</time>
      </trkpt>
      <trkpt lat="42.06521" lon="0.66566">
        <ele>733.242</ele>
        <time>2014-11-16T09:50:10Z</time>
      </trkpt>
      <trkpt lat="42.06522" lon="0.66568">
        <ele>732.859</ele>
        <time>2014-11-16T09:50:09Z</time>
      </trkpt>
      <trkpt lat="42.06524" lon="0.6657">
        <ele>732.663</ele>
        <time>2014-11-16T09:50:06Z</time>
      </trkpt>
      <trkpt lat="42.06524" lon="0.66571">
        <ele>732.441</ele>
        <time>2014-11-16T09:50:05Z</time>
      </trkpt>
      <trkpt lat="42.06525" lon="0.66575">
        <ele>731.981</ele>
        <time>2014-11-16T09:50:03Z</time>
      </trkpt>
      <trkpt lat="42.06526" lon="0.66577">
        <ele>731.709</ele>
        <time>2014-11-16T09:50:02Z</time>
      </trkpt>
      <trkpt lat="42.06526" lon="0.66578">
        <ele>731.508</ele>
        <time>2014-11-16T09:50:01Z</time>
      </trkpt>
      <trkpt lat="42.06526" lon="0.6658">
        <ele>731.486</ele>
        <time>2014-11-16T09:50:00Z</time>
      </trkpt>
      <trkpt lat="42.06528" lon="0.6658">
        <ele>731.425</ele>
        <time>2014-11-16T09:49:57Z</time>
      </trkpt>
      <trkpt lat="42.06529" lon="0.6658">
        <ele>730.976</ele>
        <time>2014-11-16T09:49:54Z</time>
      </trkpt>
      <trkpt lat="42.0653" lon="0.6658">
        <ele>730.478</ele>
        <time>2014-11-16T09:49:53Z</time>
      </trkpt>
      <trkpt lat="42.06531" lon="0.66581">
        <ele>730.081</ele>
        <time>2014-11-16T09:49:52Z</time>
      </trkpt>
      <trkpt lat="42.06533" lon="0.66583">
        <ele>729.192</ele>
        <time>2014-11-16T09:49:50Z</time>
      </trkpt>
      <trkpt lat="42.06533" lon="0.66587">
        <ele>728.959</ele>
        <time>2014-11-16T09:49:48Z</time>
      </trkpt>
      <trkpt lat="42.06533" lon="0.66588">
        <ele>728.763</ele>
        <time>2014-11-16T09:49:46Z</time>
      </trkpt>
      <trkpt lat="42.06535" lon="0.66591">
        <ele>728.078</ele>
        <time>2014-11-16T09:49:41Z</time>
      </trkpt>
      <trkpt lat="42.06534" lon="0.66594">
        <ele>727.933</ele>
        <time>2014-11-16T09:49:39Z</time>
      </trkpt>
      <trkpt lat="42.06534" lon="0.66596">
        <ele>727.926</ele>
        <time>2014-11-16T09:49:38Z</time>
      </trkpt>
      <trkpt lat="42.06533" lon="0.66598">
        <ele>728.008</ele>
        <time>2014-11-16T09:49:36Z</time>
      </trkpt>
      <trkpt lat="42.06534" lon="0.666">
        <ele>727.719</ele>
        <time>2014-11-16T09:49:34Z</time>
      </trkpt>
      <trkpt lat="42.06535" lon="0.66601">
        <ele>727.228</ele>
        <time>2014-11-16T09:49:32Z</time>
      </trkpt>
      <trkpt lat="42.06537" lon="0.66602">
        <ele>726.699</ele>
        <time>2014-11-16T09:49:30Z</time>
      </trkpt>
      <trkpt lat="42.06538" lon="0.66603">
        <ele>726.371</ele>
        <time>2014-11-16T09:49:29Z</time>
      </trkpt>
      <trkpt lat="42.06539" lon="0.66604">
        <ele>725.824</ele>
        <time>2014-11-16T09:49:28Z</time>
      </trkpt>
      <trkpt lat="42.0654" lon="0.66605">
        <ele>725.535</ele>
        <time>2014-11-16T09:49:27Z</time>
      </trkpt>
      <trkpt lat="42.0654" lon="0.66606">
        <ele>725.332</ele>
        <time>2014-11-16T09:49:26Z</time>
      </trkpt>
      <trkpt lat="42.06539" lon="0.66609">
        <ele>725.476</ele>
        <time>2014-11-16T09:49:25Z</time>
      </trkpt>
      <trkpt lat="42.06539" lon="0.66611">
        <ele>725.459</ele>
        <time>2014-11-16T09:49:24Z</time>
      </trkpt>
      <trkpt lat="42.06539" lon="0.66613">
        <ele>725.003</ele>
        <time>2014-11-16T09:49:21Z</time>
      </trkpt>
      <trkpt lat="42.06539" lon="0.66614">
        <ele>724.723</ele>
        <time>2014-11-16T09:49:20Z</time>
      </trkpt>
      <trkpt lat="42.06539" lon="0.66617">
        <ele>724.308</ele>
        <time>2014-11-16T09:49:19Z</time>
      </trkpt>
      <trkpt lat="42.06539" lon="0.6662">
        <ele>723.917</ele>
        <time>2014-11-16T09:49:18Z</time>
      </trkpt>
      <trkpt lat="42.06539" lon="0.66622">
        <ele>723.556</ele>
        <time>2014-11-16T09:49:15Z</time>
      </trkpt>
      <trkpt lat="42.0654" lon="0.66625">
        <ele>722.747</ele>
        <time>2014-11-16T09:49:13Z</time>
      </trkpt>
      <trkpt lat="42.0654" lon="0.66628">
        <ele>722.349</ele>
        <time>2014-11-16T09:49:12Z</time>
      </trkpt>
      <trkpt lat="42.06541" lon="0.66629">
        <ele>721.852</ele>
        <time>2014-11-16T09:49:09Z</time>
      </trkpt>
      <trkpt lat="42.06541" lon="0.66633">
        <ele>721.093</ele>
        <time>2014-11-16T09:49:07Z</time>
      </trkpt>
      <trkpt lat="42.06541" lon="0.66634">
        <ele>720.87</ele>
        <time>2014-11-16T09:49:06Z</time>
      </trkpt>
      <trkpt lat="42.06542" lon="0.66636">
        <ele>720.574</ele>
        <time>2014-11-16T09:49:04Z</time>
      </trkpt>
      <trkpt lat="42.06542" lon="0.66637">
        <ele>720.393</ele>
        <time>2014-11-16T09:49:01Z</time>
      </trkpt>
      <trkpt lat="42.0654" lon="0.66638">
        <ele>720.465</ele>
        <time>2014-11-16T09:49:00Z</time>
      </trkpt>
      <trkpt lat="42.0654" lon="0.66639">
        <ele>720.221</ele>
        <time>2014-11-16T09:48:58Z</time>
      </trkpt>
      <trkpt lat="42.06541" lon="0.6664">
        <ele>720.008</ele>
        <time>2014-11-16T09:48:57Z</time>
      </trkpt>
      <trkpt lat="42.06542" lon="0.66642">
        <ele>719.521</ele>
        <time>2014-11-16T09:48:55Z</time>
      </trkpt>
      <trkpt lat="42.06543" lon="0.66643">
        <ele>719.26</ele>
        <time>2014-11-16T09:48:53Z</time>
      </trkpt>
      <trkpt lat="42.06545" lon="0.66644">
        <ele>718.841</ele>
        <time>2014-11-16T09:48:51Z</time>
      </trkpt>
      <trkpt lat="42.06545" lon="0.66645">
        <ele>718.653</ele>
        <time>2014-11-16T09:48:50Z</time>
      </trkpt>
      <trkpt lat="42.06545" lon="0.66647">
        <ele>718.466</ele>
        <time>2014-11-16T09:48:49Z</time>
      </trkpt>
      <trkpt lat="42.06545" lon="0.66648">
        <ele>718.187</ele>
        <time>2014-11-16T09:48:48Z</time>
      </trkpt>
      <trkpt lat="42.06547" lon="0.66649">
        <ele>717.834</ele>
        <time>2014-11-16T09:48:45Z</time>
      </trkpt>
      <trkpt lat="42.06547" lon="0.66651">
        <ele>717.568</ele>
        <time>2014-11-16T09:48:44Z</time>
      </trkpt>
      <trkpt lat="42.06547" lon="0.66652">
        <ele>717.292</ele>
        <time>2014-11-16T09:48:43Z</time>
      </trkpt>
      <trkpt lat="42.06548" lon="0.66654">
        <ele>717.073</ele>
        <time>2014-11-16T09:48:41Z</time>
      </trkpt>
      <trkpt lat="42.06548" lon="0.66655">
        <ele>716.72</ele>
        <time>2014-11-16T09:48:40Z</time>
      </trkpt>
      <trkpt lat="42.06548" lon="0.66657">
        <ele>716.508</ele>
        <time>2014-11-16T09:48:39Z</time>
      </trkpt>
      <trkpt lat="42.06548" lon="0.66658">
        <ele>716.451</ele>
        <time>2014-11-16T09:48:36Z</time>
      </trkpt>
      <trkpt lat="42.06549" lon="0.6666">
        <ele>716.06</ele>
        <time>2014-11-16T09:48:34Z</time>
      </trkpt>
      <trkpt lat="42.06549" lon="0.66661">
        <ele>715.771</ele>
        <time>2014-11-16T09:48:33Z</time>
      </trkpt>
      <trkpt lat="42.0655" lon="0.66664">
        <ele>715.243</ele>
        <time>2014-11-16T09:48:31Z</time>
      </trkpt>
      <trkpt lat="42.06551" lon="0.66665">
        <ele>714.946</ele>
        <time>2014-11-16T09:48:30Z</time>
      </trkpt>
      <trkpt lat="42.06552" lon="0.66666">
        <ele>714.617</ele>
        <time>2014-11-16T09:48:29Z</time>
      </trkpt>
      <trkpt lat="42.06553" lon="0.66667">
        <ele>714.414</ele>
        <time>2014-11-16T09:48:22Z</time>
      </trkpt>
      <trkpt lat="42.06554" lon="0.66669">
        <ele>714.178</ele>
        <time>2014-11-16T09:48:21Z</time>
      </trkpt>
      <trkpt lat="42.06554" lon="0.66671">
        <ele>713.741</ele>
        <time>2014-11-16T09:48:20Z</time>
      </trkpt>
      <trkpt lat="42.06555" lon="0.66672">
        <ele>713.581</ele>
        <time>2014-11-16T09:48:19Z</time>
      </trkpt>
      <trkpt lat="42.06556" lon="0.66674">
        <ele>713.109</ele>
        <time>2014-11-16T09:48:17Z</time>
      </trkpt>
      <trkpt lat="42.06557" lon="0.66674">
        <ele>712.908</ele>
        <time>2014-11-16T09:48:16Z</time>
      </trkpt>
      <trkpt lat="42.06558" lon="0.66676">
        <ele>712.446</ele>
        <time>2014-11-16T09:48:11Z</time>
      </trkpt>
      <trkpt lat="42.06557" lon="0.6668">
        <ele>712.045</ele>
        <time>2014-11-16T09:48:09Z</time>
      </trkpt>
      <trkpt lat="42.06559" lon="0.66681">
        <ele>711.566</ele>
        <time>2014-11-16T09:48:06Z</time>
      </trkpt>
      <trkpt lat="42.06559" lon="0.66685">
        <ele>711.098</ele>
        <time>2014-11-16T09:48:04Z</time>
      </trkpt>
      <trkpt lat="42.0656" lon="0.66688">
        <ele>710.451</ele>
        <time>2014-11-16T09:48:02Z</time>
      </trkpt>
      <trkpt lat="42.06562" lon="0.66688">
        <ele>710.032</ele>
        <time>2014-11-16T09:48:00Z</time>
      </trkpt>
      <trkpt lat="42.06562" lon="0.66689">
        <ele>709.879</ele>
        <time>2014-11-16T09:47:59Z</time>
      </trkpt>
      <trkpt lat="42.06563" lon="0.6669">
        <ele>709.553</ele>
        <time>2014-11-16T09:47:58Z</time>
      </trkpt>
      <trkpt lat="42.06563" lon="0.66692">
        <ele>709.189</ele>
        <time>2014-11-16T09:47:56Z</time>
      </trkpt>
      <trkpt lat="42.06564" lon="0.66693">
        <ele>708.806</ele>
        <time>2014-11-16T09:47:52Z</time>
      </trkpt>
      <trkpt lat="42.06565" lon="0.66694">
        <ele>708.526</ele>
        <time>2014-11-16T09:47:50Z</time>
      </trkpt>
      <trkpt lat="42.06565" lon="0.66696">
        <ele>708.208</ele>
        <time>2014-11-16T09:47:47Z</time>
      </trkpt>
      <trkpt lat="42.06565" lon="0.66698">
        <ele>708.09</ele>
        <time>2014-11-16T09:47:46Z</time>
      </trkpt>
      <trkpt lat="42.06565" lon="0.66703">
        <ele>707.459</ele>
        <time>2014-11-16T09:47:44Z</time>
      </trkpt>
      <trkpt lat="42.06565" lon="0.66705">
        <ele>707.13</ele>
        <time>2014-11-16T09:47:42Z</time>
      </trkpt>
      <trkpt lat="42.06566" lon="0.66706">
        <ele>706.862</ele>
        <time>2014-11-16T09:47:41Z</time>
      </trkpt>
      <trkpt lat="42.06566" lon="0.66708">
        <ele>706.535</ele>
        <time>2014-11-16T09:47:40Z</time>
      </trkpt>
      <trkpt lat="42.06566" lon="0.6671">
        <ele>706.346</ele>
        <time>2014-11-16T09:47:39Z</time>
      </trkpt>
      <trkpt lat="42.06565" lon="0.66712">
        <ele>706.313</ele>
        <time>2014-11-16T09:47:37Z</time>
      </trkpt>
      <trkpt lat="42.06566" lon="0.66714">
        <ele>705.847</ele>
        <time>2014-11-16T09:47:35Z</time>
      </trkpt>
      <trkpt lat="42.06566" lon="0.66716">
        <ele>705.843</ele>
        <time>2014-11-16T09:47:34Z</time>
      </trkpt>
      <trkpt lat="42.06565" lon="0.66719">
        <ele>705.764</ele>
        <time>2014-11-16T09:47:33Z</time>
      </trkpt>
      <trkpt lat="42.06565" lon="0.6672">
        <ele>705.61</ele>
        <time>2014-11-16T09:47:32Z</time>
      </trkpt>
      <trkpt lat="42.06565" lon="0.66721">
        <ele>705.408</ele>
        <time>2014-11-16T09:47:30Z</time>
      </trkpt>
      <trkpt lat="42.06566" lon="0.66723">
        <ele>705.076</ele>
        <time>2014-11-16T09:47:28Z</time>
      </trkpt>
      <trkpt lat="42.06566" lon="0.66722">
        <ele>705.225</ele>
        <time>2014-11-16T09:47:25Z</time>
      </trkpt>
      <trkpt lat="42.06567" lon="0.66724">
        <ele>704.766</ele>
        <time>2014-11-16T09:47:23Z</time>
      </trkpt>
      <trkpt lat="42.06569" lon="0.66728">
        <ele>703.738</ele>
        <time>2014-11-16T09:47:19Z</time>
      </trkpt>
      <trkpt lat="42.06569" lon="0.66729">
        <ele>703.471</ele>
        <time>2014-11-16T09:47:18Z</time>
      </trkpt>
      <trkpt lat="42.0657" lon="0.66731">
        <ele>703.082</ele>
        <time>2014-11-16T09:47:17Z</time>
      </trkpt>
      <trkpt lat="42.06571" lon="0.66732">
        <ele>702.629</ele>
        <time>2014-11-16T09:47:14Z</time>
      </trkpt>
      <trkpt lat="42.06572" lon="0.66734">
        <ele>702.313</ele>
        <time>2014-11-16T09:47:13Z</time>
      </trkpt>
      <trkpt lat="42.06572" lon="0.66737">
        <ele>701.942</ele>
        <time>2014-11-16T09:47:12Z</time>
      </trkpt>
      <trkpt lat="42.06571" lon="0.66739">
        <ele>701.922</ele>
        <time>2014-11-16T09:47:10Z</time>
      </trkpt>
      <trkpt lat="42.06571" lon="0.66741">
        <ele>701.814</ele>
        <time>2014-11-16T09:47:08Z</time>
      </trkpt>
      <trkpt lat="42.06571" lon="0.66742">
        <ele>701.708</ele>
        <time>2014-11-16T09:47:07Z</time>
      </trkpt>
      <trkpt lat="42.06571" lon="0.66744">
        <ele>701.656</ele>
        <time>2014-11-16T09:47:00Z</time>
      </trkpt>
      <trkpt lat="42.0657" lon="0.66745">
        <ele>701.775</ele>
        <time>2014-11-16T09:46:58Z</time>
      </trkpt>
      <trkpt lat="42.0657" lon="0.66747">
        <ele>701.576</ele>
        <time>2014-11-16T09:46:56Z</time>
      </trkpt>
      <trkpt lat="42.06572" lon="0.66753">
        <ele>700.168</ele>
        <time>2014-11-16T09:46:52Z</time>
      </trkpt>
      <trkpt lat="42.06573" lon="0.66754">
        <ele>699.771</ele>
        <time>2014-11-16T09:46:50Z</time>
      </trkpt>
      <trkpt lat="42.06573" lon="0.66756">
        <ele>699.472</ele>
        <time>2014-11-16T09:46:49Z</time>
      </trkpt>
      <trkpt lat="42.06574" lon="0.66758">
        <ele>698.949</ele>
        <time>2014-11-16T09:46:48Z</time>
      </trkpt>
      <trkpt lat="42.06574" lon="0.6676">
        <ele>698.753</ele>
        <time>2014-11-16T09:46:47Z</time>
      </trkpt>
      <trkpt lat="42.06574" lon="0.66761">
        <ele>698.337</ele>
        <time>2014-11-16T09:46:45Z</time>
      </trkpt>
      <trkpt lat="42.06575" lon="0.66763">
        <ele>697.949</ele>
        <time>2014-11-16T09:46:44Z</time>
      </trkpt>
      <trkpt lat="42.06575" lon="0.66766">
        <ele>697.313</ele>
        <time>2014-11-16T09:46:43Z</time>
      </trkpt>
      <trkpt lat="42.06575" lon="0.66769">
        <ele>697.008</ele>
        <time>2014-11-16T09:46:40Z</time>
      </trkpt>
      <trkpt lat="42.06576" lon="0.6677">
        <ele>696.475</ele>
        <time>2014-11-16T09:46:38Z</time>
      </trkpt>
      <trkpt lat="42.06577" lon="0.66772">
        <ele>695.734</ele>
        <time>2014-11-16T09:46:37Z</time>
      </trkpt>
      <trkpt lat="42.06578" lon="0.66775">
        <ele>695.225</ele>
        <time>2014-11-16T09:46:36Z</time>
      </trkpt>
      <trkpt lat="42.06579" lon="0.66776">
        <ele>694.617</ele>
        <time>2014-11-16T09:46:34Z</time>
      </trkpt>
      <trkpt lat="42.06579" lon="0.66777">
        <ele>694.41</ele>
        <time>2014-11-16T09:46:32Z</time>
      </trkpt>
      <trkpt lat="42.0658" lon="0.66779">
        <ele>694.181</ele>
        <time>2014-11-16T09:46:31Z</time>
      </trkpt>
      <trkpt lat="42.0658" lon="0.66781">
        <ele>693.918</ele>
        <time>2014-11-16T09:46:30Z</time>
      </trkpt>
      <trkpt lat="42.0658" lon="0.66782">
        <ele>693.562</ele>
        <time>2014-11-16T09:46:27Z</time>
      </trkpt>
      <trkpt lat="42.0658" lon="0.66784">
        <ele>693.518</ele>
        <time>2014-11-16T09:46:26Z</time>
      </trkpt>
      <trkpt lat="42.0658" lon="0.66786">
        <ele>693.398</ele>
        <time>2014-11-16T09:46:25Z</time>
      </trkpt>
      <trkpt lat="42.06579" lon="0.66789">
        <ele>693.317</ele>
        <time>2014-11-16T09:46:23Z</time>
      </trkpt>
      <trkpt lat="42.0658" lon="0.66789">
        <ele>692.908</ele>
        <time>2014-11-16T09:46:22Z</time>
      </trkpt>
      <trkpt lat="42.06581" lon="0.66791">
        <ele>692.553</ele>
        <time>2014-11-16T09:46:20Z</time>
      </trkpt>
      <trkpt lat="42.06581" lon="0.66793">
        <ele>692.212</ele>
        <time>2014-11-16T09:46:19Z</time>
      </trkpt>
      <trkpt lat="42.06581" lon="0.66794">
        <ele>692.123</ele>
        <time>2014-11-16T09:46:18Z</time>
      </trkpt>
      <trkpt lat="42.06581" lon="0.66796">
        <ele>691.795</ele>
        <time>2014-11-16T09:46:03Z</time>
      </trkpt>
      <trkpt lat="42.06582" lon="0.66799">
        <ele>691.218</ele>
        <time>2014-11-16T09:46:01Z</time>
      </trkpt>
      <trkpt lat="42.06582" lon="0.66802">
        <ele>690.989</ele>
        <time>2014-11-16T09:46:00Z</time>
      </trkpt>
      <trkpt lat="42.06582" lon="0.66803">
        <ele>690.736</ele>
        <time>2014-11-16T09:45:59Z</time>
      </trkpt>
      <trkpt lat="42.06583" lon="0.66805">
        <ele>690.45</ele>
        <time>2014-11-16T09:45:57Z</time>
      </trkpt>
      <trkpt lat="42.06582" lon="0.66807">
        <ele>690.292</ele>
        <time>2014-11-16T09:45:56Z</time>
      </trkpt>
      <trkpt lat="42.06583" lon="0.66809">
        <ele>689.973</ele>
        <time>2014-11-16T09:45:55Z</time>
      </trkpt>
      <trkpt lat="42.06583" lon="0.66811">
        <ele>689.72</ele>
        <time>2014-11-16T09:45:54Z</time>
      </trkpt>
      <trkpt lat="42.06583" lon="0.66814">
        <ele>689.308</ele>
        <time>2014-11-16T09:45:52Z</time>
      </trkpt>
      <trkpt lat="42.06582" lon="0.66815">
        <ele>689.471</ele>
        <time>2014-11-16T09:45:51Z</time>
      </trkpt>
      <trkpt lat="42.06583" lon="0.66817">
        <ele>689.16</ele>
        <time>2014-11-16T09:45:48Z</time>
      </trkpt>
      <trkpt lat="42.06583" lon="0.66815">
        <ele>689.161</ele>
        <time>2014-11-16T09:45:46Z</time>
      </trkpt>
      <trkpt lat="42.06585" lon="0.66818">
        <ele>688.243</ele>
        <time>2014-11-16T09:45:44Z</time>
      </trkpt>
      <trkpt lat="42.06587" lon="0.6682">
        <ele>687.566</ele>
        <time>2014-11-16T09:45:43Z</time>
      </trkpt>
      <trkpt lat="42.06589" lon="0.66821">
        <ele>686.777</ele>
        <time>2014-11-16T09:45:40Z</time>
      </trkpt>
      <trkpt lat="42.0659" lon="0.66823">
        <ele>686.434</ele>
        <time>2014-11-16T09:45:38Z</time>
      </trkpt>
      <trkpt lat="42.0659" lon="0.66825">
        <ele>686.228</ele>
        <time>2014-11-16T09:45:37Z</time>
      </trkpt>
      <trkpt lat="42.0659" lon="0.66827">
        <ele>685.982</ele>
        <time>2014-11-16T09:45:36Z</time>
      </trkpt>
      <trkpt lat="42.0659" lon="0.66828">
        <ele>685.743</ele>
        <time>2014-11-16T09:45:35Z</time>
      </trkpt>
      <trkpt lat="42.06591" lon="0.66829">
        <ele>685.317</ele>
        <time>2014-11-16T09:45:34Z</time>
      </trkpt>
      <trkpt lat="42.06591" lon="0.66831">
        <ele>685.008</ele>
        <time>2014-11-16T09:45:33Z</time>
      </trkpt>
      <trkpt lat="42.06592" lon="0.66833">
        <ele>684.75</ele>
        <time>2014-11-16T09:45:32Z</time>
      </trkpt>
      <trkpt lat="42.06591" lon="0.66837">
        <ele>684.129</ele>
        <time>2014-11-16T09:45:30Z</time>
      </trkpt>
      <trkpt lat="42.06591" lon="0.66838">
        <ele>684.06</ele>
        <time>2014-11-16T09:45:29Z</time>
      </trkpt>
      <trkpt lat="42.06592" lon="0.6684">
        <ele>683.412</ele>
        <time>2014-11-16T09:45:27Z</time>
      </trkpt>
      <trkpt lat="42.06592" lon="0.66842">
        <ele>683.115</ele>
        <time>2014-11-16T09:45:24Z</time>
      </trkpt>
      <trkpt lat="42.06592" lon="0.66843">
        <ele>682.966</ele>
        <time>2014-11-16T09:45:23Z</time>
      </trkpt>
      <trkpt lat="42.06593" lon="0.66844">
        <ele>682.633</ele>
        <time>2014-11-16T09:45:22Z</time>
      </trkpt>
      <trkpt lat="42.06593" lon="0.66846">
        <ele>682.167</ele>
        <time>2014-11-16T09:45:20Z</time>
      </trkpt>
      <trkpt lat="42.06594" lon="0.66845">
        <ele>682.087</ele>
        <time>2014-11-16T09:45:18Z</time>
      </trkpt>
      <trkpt lat="42.06595" lon="0.66843">
        <ele>682.042</ele>
        <time>2014-11-16T09:45:16Z</time>
      </trkpt>
      <trkpt lat="42.06597" lon="0.66843">
        <ele>681.726</ele>
        <time>2014-11-16T09:45:14Z</time>
      </trkpt>
      <trkpt lat="42.06598" lon="0.66842">
        <ele>681.408</ele>
        <time>2014-11-16T09:45:12Z</time>
      </trkpt>
      <trkpt lat="42.066" lon="0.66843">
        <ele>680.76</ele>
        <time>2014-11-16T09:45:10Z</time>
      </trkpt>
      <trkpt lat="42.066" lon="0.66844">
        <ele>680.329</ele>
        <time>2014-11-16T09:45:08Z</time>
      </trkpt>
      <trkpt lat="42.06601" lon="0.66846">
        <ele>679.85</ele>
        <time>2014-11-16T09:45:05Z</time>
      </trkpt>
      <trkpt lat="42.06601" lon="0.66847">
        <ele>679.492</ele>
        <time>2014-11-16T09:45:04Z</time>
      </trkpt>
      <trkpt lat="42.06602" lon="0.6685">
        <ele>678.825</ele>
        <time>2014-11-16T09:45:02Z</time>
      </trkpt>
      <trkpt lat="42.06602" lon="0.66854">
        <ele>678.346</ele>
        <time>2014-11-16T09:45:00Z</time>
      </trkpt>
      <trkpt lat="42.06601" lon="0.66856">
        <ele>678.193</ele>
        <time>2014-11-16T09:44:58Z</time>
      </trkpt>
      <trkpt lat="42.06602" lon="0.66857">
        <ele>677.837</ele>
        <time>2014-11-16T09:44:57Z</time>
      </trkpt>
      <trkpt lat="42.06602" lon="0.66859">
        <ele>677.457</ele>
        <time>2014-11-16T09:44:56Z</time>
      </trkpt>
      <trkpt lat="42.06601" lon="0.6686">
        <ele>677.3</ele>
        <time>2014-11-16T09:44:55Z</time>
      </trkpt>
      <trkpt lat="42.06602" lon="0.66862">
        <ele>676.82</ele>
        <time>2014-11-16T09:44:53Z</time>
      </trkpt>
      <trkpt lat="42.06603" lon="0.66866">
        <ele>675.908</ele>
        <time>2014-11-16T09:44:49Z</time>
      </trkpt>
      <trkpt lat="42.06603" lon="0.66867">
        <ele>675.717</ele>
        <time>2014-11-16T09:44:48Z</time>
      </trkpt>
      <trkpt lat="42.06602" lon="0.66869">
        <ele>675.666</ele>
        <time>2014-11-16T09:44:47Z</time>
      </trkpt>
      <trkpt lat="42.066" lon="0.66871">
        <ele>676.097</ele>
        <time>2014-11-16T09:44:44Z</time>
      </trkpt>
      <trkpt lat="42.066" lon="0.66872">
        <ele>675.689</ele>
        <time>2014-11-16T09:44:43Z</time>
      </trkpt>
      <trkpt lat="42.06602" lon="0.66874">
        <ele>674.852</ele>
        <time>2014-11-16T09:44:42Z</time>
      </trkpt>
      <trkpt lat="42.06604" lon="0.66876">
        <ele>673.823</ele>
        <time>2014-11-16T09:44:41Z</time>
      </trkpt>
      <trkpt lat="42.06606" lon="0.66876">
        <ele>673.19</ele>
        <time>2014-11-16T09:44:40Z</time>
      </trkpt>
      <trkpt lat="42.06607" lon="0.66877">
        <ele>672.744</ele>
        <time>2014-11-16T09:44:37Z</time>
      </trkpt>
      <trkpt lat="42.06608" lon="0.66878">
        <ele>672.298</ele>
        <time>2014-11-16T09:44:36Z</time>
      </trkpt>
      <trkpt lat="42.06609" lon="0.66878">
        <ele>671.715</ele>
        <time>2014-11-16T09:44:35Z</time>
      </trkpt>
      <trkpt lat="42.0661" lon="0.66878">
        <ele>671.426</ele>
        <time>2014-11-16T09:44:34Z</time>
      </trkpt>
      <trkpt lat="42.06611" lon="0.66877">
        <ele>671.208</ele>
        <time>2014-11-16T09:44:32Z</time>
      </trkpt>
      <trkpt lat="42.06613" lon="0.66878">
        <ele>670.331</ele>
        <time>2014-11-16T09:44:27Z</time>
      </trkpt>
      <trkpt lat="42.06613" lon="0.66881">
        <ele>669.93</ele>
        <time>2014-11-16T09:44:26Z</time>
      </trkpt>
      <trkpt lat="42.06614" lon="0.66882">
        <ele>669.511</ele>
        <time>2014-11-16T09:44:25Z</time>
      </trkpt>
      <trkpt lat="42.06614" lon="0.66884">
        <ele>669.153</ele>
        <time>2014-11-16T09:44:24Z</time>
      </trkpt>
      <trkpt lat="42.06614" lon="0.66886">
        <ele>668.896</ele>
        <time>2014-11-16T09:44:22Z</time>
      </trkpt>
      <trkpt lat="42.06614" lon="0.66888">
        <ele>668.457</ele>
        <time>2014-11-16T09:44:21Z</time>
      </trkpt>
      <trkpt lat="42.06614" lon="0.66889">
        <ele>668.194</ele>
        <time>2014-11-16T09:44:20Z</time>
      </trkpt>
      <trkpt lat="42.06614" lon="0.66891">
        <ele>667.718</ele>
        <time>2014-11-16T09:44:18Z</time>
      </trkpt>
      <trkpt lat="42.06615" lon="0.66894">
        <ele>667.197</ele>
        <time>2014-11-16T09:44:16Z</time>
      </trkpt>
      <trkpt lat="42.06616" lon="0.66895">
        <ele>666.723</ele>
        <time>2014-11-16T09:44:14Z</time>
      </trkpt>
      <trkpt lat="42.06617" lon="0.66896">
        <ele>666.325</ele>
        <time>2014-11-16T09:44:12Z</time>
      </trkpt>
      <trkpt lat="42.06617" lon="0.66898">
        <ele>665.908</ele>
        <time>2014-11-16T09:44:09Z</time>
      </trkpt>
      <trkpt lat="42.06615" lon="0.66901">
        <ele>665.811</ele>
        <time>2014-11-16T09:44:02Z</time>
      </trkpt>
      <trkpt lat="42.06614" lon="0.66902">
        <ele>666.09</ele>
        <time>2014-11-16T09:44:00Z</time>
      </trkpt>
      <trkpt lat="42.06613" lon="0.66903">
        <ele>665.981</ele>
        <time>2014-11-16T09:43:58Z</time>
      </trkpt>
      <trkpt lat="42.06614" lon="0.66904">
        <ele>665.393</ele>
        <time>2014-11-16T09:43:55Z</time>
      </trkpt>
      <trkpt lat="42.06616" lon="0.66905">
        <ele>664.876</ele>
        <time>2014-11-16T09:43:53Z</time>
      </trkpt>
      <trkpt lat="42.06617" lon="0.66906">
        <ele>664.287</ele>
        <time>2014-11-16T09:43:49Z</time>
      </trkpt>
      <trkpt lat="42.06618" lon="0.66907">
        <ele>663.744</ele>
        <time>2014-11-16T09:43:47Z</time>
      </trkpt>
      <trkpt lat="42.0662" lon="0.66907">
        <ele>663.498</ele>
        <time>2014-11-16T09:43:46Z</time>
      </trkpt>
      <trkpt lat="42.06621" lon="0.66908">
        <ele>662.961</ele>
        <time>2014-11-16T09:43:45Z</time>
      </trkpt>
      <trkpt lat="42.06621" lon="0.66909">
        <ele>662.521</ele>
        <time>2014-11-16T09:43:44Z</time>
      </trkpt>
      <trkpt lat="42.06622" lon="0.6691">
        <ele>662.113</ele>
        <time>2014-11-16T09:43:42Z</time>
      </trkpt>
      <trkpt lat="42.06623" lon="0.66913">
        <ele>661.208</ele>
        <time>2014-11-16T09:43:40Z</time>
      </trkpt>
      <trkpt lat="42.06624" lon="0.66914">
        <ele>660.818</ele>
        <time>2014-11-16T09:43:39Z</time>
      </trkpt>
      <trkpt lat="42.06625" lon="0.66915">
        <ele>660.257</ele>
        <time>2014-11-16T09:43:37Z</time>
      </trkpt>
      <trkpt lat="42.06624" lon="0.66919">
        <ele>659.918</ele>
        <time>2014-11-16T09:43:35Z</time>
      </trkpt>
      <trkpt lat="42.06622" lon="0.66921">
        <ele>660.06</ele>
        <time>2014-11-16T09:43:34Z</time>
      </trkpt>
      <trkpt lat="42.06621" lon="0.66922">
        <ele>660.123</ele>
        <time>2014-11-16T09:43:33Z</time>
      </trkpt>
      <trkpt lat="42.06621" lon="0.66924">
        <ele>660.144</ele>
        <time>2014-11-16T09:43:31Z</time>
      </trkpt>
      <trkpt lat="42.06621" lon="0.66925">
        <ele>659.841</ele>
        <time>2014-11-16T09:43:30Z</time>
      </trkpt>
      <trkpt lat="42.06621" lon="0.66927">
        <ele>659.425</ele>
        <time>2014-11-16T09:43:29Z</time>
      </trkpt>
      <trkpt lat="42.06621" lon="0.66928">
        <ele>659.141</ele>
        <time>2014-11-16T09:43:28Z</time>
      </trkpt>
      <trkpt lat="42.06622" lon="0.66929">
        <ele>658.781</ele>
        <time>2014-11-16T09:43:26Z</time>
      </trkpt>
      <trkpt lat="42.06623" lon="0.6693">
        <ele>658.209</ele>
        <time>2014-11-16T09:43:24Z</time>
      </trkpt>
      <trkpt lat="42.06624" lon="0.66931">
        <ele>657.708</ele>
        <time>2014-11-16T09:43:22Z</time>
      </trkpt>
      <trkpt lat="42.06625" lon="0.66931">
        <ele>657.576</ele>
        <time>2014-11-16T09:43:20Z</time>
      </trkpt>
      <trkpt lat="42.06626" lon="0.66931">
        <ele>657.015</ele>
        <time>2014-11-16T09:43:18Z</time>
      </trkpt>
      <trkpt lat="42.06627" lon="0.66933">
        <ele>656.656</ele>
        <time>2014-11-16T09:43:17Z</time>
      </trkpt>
      <trkpt lat="42.06627" lon="0.66935">
        <ele>656.218</ele>
        <time>2014-11-16T09:43:16Z</time>
      </trkpt>
      <trkpt lat="42.06627" lon="0.66936">
        <ele>655.761</ele>
        <time>2014-11-16T09:43:15Z</time>
      </trkpt>
      <trkpt lat="42.06628" lon="0.66938">
        <ele>654.962</ele>
        <time>2014-11-16T09:43:12Z</time>
      </trkpt>
      <trkpt lat="42.06629" lon="0.6694">
        <ele>654.589</ele>
        <time>2014-11-16T09:43:11Z</time>
      </trkpt>
      <trkpt lat="42.06629" lon="0.66942">
        <ele>654.083</ele>
        <time>2014-11-16T09:43:10Z</time>
      </trkpt>
      <trkpt lat="42.06629" lon="0.66943">
        <ele>653.886</ele>
        <time>2014-11-16T09:43:09Z</time>
      </trkpt>
      <trkpt lat="42.06629" lon="0.66946">
        <ele>653.36</ele>
        <time>2014-11-16T09:43:07Z</time>
      </trkpt>
      <trkpt lat="42.0663" lon="0.66947">
        <ele>652.926</ele>
        <time>2014-11-16T09:43:05Z</time>
      </trkpt>
      <trkpt lat="42.0663" lon="0.66948">
        <ele>652.408</ele>
        <time>2014-11-16T09:43:04Z</time>
      </trkpt>
      <trkpt lat="42.06631" lon="0.6695">
        <ele>651.81</ele>
        <time>2014-11-16T09:43:03Z</time>
      </trkpt>
      <trkpt lat="42.06633" lon="0.66952">
        <ele>651.279</ele>
        <time>2014-11-16T09:43:01Z</time>
      </trkpt>
      <trkpt lat="42.06633" lon="0.66954">
        <ele>650.65</ele>
        <time>2014-11-16T09:42:59Z</time>
      </trkpt>
      <trkpt lat="42.06633" lon="0.66956">
        <ele>650.432</ele>
        <time>2014-11-16T09:42:58Z</time>
      </trkpt>
      <trkpt lat="42.06633" lon="0.66958">
        <ele>650.025</ele>
        <time>2014-11-16T09:42:57Z</time>
      </trkpt>
      <trkpt lat="42.06633" lon="0.66961">
        <ele>649.866</ele>
        <time>2014-11-16T09:42:55Z</time>
      </trkpt>
      <trkpt lat="42.06633" lon="0.66961">
        <ele>649.433</ele>
        <time>2014-11-16T09:42:54Z</time>
      </trkpt>
      <trkpt lat="42.06634" lon="0.66963">
        <ele>648.967</ele>
        <time>2014-11-16T09:42:53Z</time>
      </trkpt>
      <trkpt lat="42.06634" lon="0.66965">
        <ele>648.618</ele>
        <time>2014-11-16T09:42:51Z</time>
      </trkpt>
      <trkpt lat="42.06634" lon="0.66967">
        <ele>648.398</ele>
        <time>2014-11-16T09:42:50Z</time>
      </trkpt>
      <trkpt lat="42.06634" lon="0.66971">
        <ele>647.617</ele>
        <time>2014-11-16T09:42:47Z</time>
      </trkpt>
      <trkpt lat="42.06636" lon="0.66973">
        <ele>646.708</ele>
        <time>2014-11-16T09:42:43Z</time>
      </trkpt>
      <trkpt lat="42.06636" lon="0.66974">
        <ele>646.743</ele>
        <time>2014-11-16T09:42:41Z</time>
      </trkpt>
      <trkpt lat="42.06636" lon="0.66976">
        <ele>646.562</ele>
        <time>2014-11-16T09:42:40Z</time>
      </trkpt>
      <trkpt lat="42.06637" lon="0.6698">
        <ele>645.413</ele>
        <time>2014-11-16T09:42:38Z</time>
      </trkpt>
      <trkpt lat="42.06638" lon="0.66981">
        <ele>645.135</ele>
        <time>2014-11-16T09:42:36Z</time>
      </trkpt>
      <trkpt lat="42.06639" lon="0.66981">
        <ele>644.748</ele>
        <time>2014-11-16T09:42:35Z</time>
      </trkpt>
      <trkpt lat="42.0664" lon="0.66983">
        <ele>644.289</ele>
        <time>2014-11-16T09:42:34Z</time>
      </trkpt>
      <trkpt lat="42.06642" lon="0.66984">
        <ele>643.766</ele>
        <time>2014-11-16T09:42:33Z</time>
      </trkpt>
      <trkpt lat="42.06643" lon="0.66984">
        <ele>643.65</ele>
        <time>2014-11-16T09:42:31Z</time>
      </trkpt>
      <trkpt lat="42.06643" lon="0.66986">
        <ele>643.391</ele>
        <time>2014-11-16T09:42:27Z</time>
      </trkpt>
      <trkpt lat="42.06643" lon="0.66989">
        <ele>642.881</ele>
        <time>2014-11-16T09:42:25Z</time>
      </trkpt>
      <trkpt lat="42.06643" lon="0.66991">
        <ele>642.419</ele>
        <time>2014-11-16T09:42:23Z</time>
      </trkpt>
      <trkpt lat="42.06643" lon="0.66993">
        <ele>642.208</ele>
        <time>2014-11-16T09:42:22Z</time>
      </trkpt>
      <trkpt lat="42.06643" lon="0.66994">
        <ele>642.091</ele>
        <time>2014-11-16T09:42:21Z</time>
      </trkpt>
      <trkpt lat="42.06643" lon="0.66996">
        <ele>641.76</ele>
        <time>2014-11-16T09:42:19Z</time>
      </trkpt>
      <trkpt lat="42.06642" lon="0.66998">
        <ele>641.641</ele>
        <time>2014-11-16T09:42:17Z</time>
      </trkpt>
      <trkpt lat="42.06642" lon="0.67001">
        <ele>641.213</ele>
        <time>2014-11-16T09:42:14Z</time>
      </trkpt>
      <trkpt lat="42.06642" lon="0.67003">
        <ele>640.966</ele>
        <time>2014-11-16T09:42:11Z</time>
      </trkpt>
      <trkpt lat="42.06642" lon="0.67004">
        <ele>640.787</ele>
        <time>2014-11-16T09:42:10Z</time>
      </trkpt>
      <trkpt lat="42.06642" lon="0.67006">
        <ele>640.474</ele>
        <time>2014-11-16T09:42:09Z</time>
      </trkpt>
      <trkpt lat="42.06642" lon="0.67008">
        <ele>640.248</ele>
        <time>2014-11-16T09:42:08Z</time>
      </trkpt>
      <trkpt lat="42.06642" lon="0.67009">
        <ele>640.016</ele>
        <time>2014-11-16T09:42:06Z</time>
      </trkpt>
      <trkpt lat="42.06643" lon="0.67013">
        <ele>639.276</ele>
        <time>2014-11-16T09:42:04Z</time>
      </trkpt>
      <trkpt lat="42.06643" lon="0.67016">
        <ele>638.713</ele>
        <time>2014-11-16T09:42:02Z</time>
      </trkpt>
      <trkpt lat="42.06644" lon="0.67017">
        <ele>638.408</ele>
        <time>2014-11-16T09:42:01Z</time>
      </trkpt>
      <trkpt lat="42.06644" lon="0.67019">
        <ele>638.133</ele>
        <time>2014-11-16T09:42:00Z</time>
      </trkpt>
      <trkpt lat="42.06646" lon="0.67022">
        <ele>637.392</ele>
        <time>2014-11-16T09:41:57Z</time>
      </trkpt>
      <trkpt lat="42.06647" lon="0.67023">
        <ele>637.063</ele>
        <time>2014-11-16T09:41:56Z</time>
      </trkpt>
      <trkpt lat="42.06648" lon="0.67023">
        <ele>636.795</ele>
        <time>2014-11-16T09:41:55Z</time>
      </trkpt>
      <trkpt lat="42.06649" lon="0.67024">
        <ele>636.468</ele>
        <time>2014-11-16T09:41:54Z</time>
      </trkpt>
      <trkpt lat="42.0665" lon="0.67025">
        <ele>636.089</ele>
        <time>2014-11-16T09:41:53Z</time>
      </trkpt>
      <trkpt lat="42.06651" lon="0.67025">
        <ele>635.786</ele>
        <time>2014-11-16T09:41:51Z</time>
      </trkpt>
      <trkpt lat="42.06653" lon="0.67025">
        <ele>635.43</ele>
        <time>2014-11-16T09:41:49Z</time>
      </trkpt>
      <trkpt lat="42.06654" lon="0.67027">
        <ele>634.939</ele>
        <time>2014-11-16T09:41:47Z</time>
      </trkpt>
      <trkpt lat="42.06654" lon="0.67029">
        <ele>634.501</ele>
        <time>2014-11-16T09:41:46Z</time>
      </trkpt>
      <trkpt lat="42.06655" lon="0.67031">
        <ele>634.121</ele>
        <time>2014-11-16T09:41:45Z</time>
      </trkpt>
      <trkpt lat="42.06655" lon="0.67033">
        <ele>633.808</ele>
        <time>2014-11-16T09:41:44Z</time>
      </trkpt>
      <trkpt lat="42.06655" lon="0.67035">
        <ele>633.565</ele>
        <time>2014-11-16T09:41:43Z</time>
      </trkpt>
      <trkpt lat="42.06655" lon="0.67036">
        <ele>633.354</ele>
        <time>2014-11-16T09:41:42Z</time>
      </trkpt>
      <trkpt lat="42.06654" lon="0.67037">
        <ele>633.345</ele>
        <time>2014-11-16T09:41:41Z</time>
      </trkpt>
      <trkpt lat="42.06653" lon="0.67038">
        <ele>633.317</ele>
        <time>2014-11-16T09:41:40Z</time>
      </trkpt>
      <trkpt lat="42.06653" lon="0.67039">
        <ele>633.36</ele>
        <time>2014-11-16T09:41:39Z</time>
      </trkpt>
      <trkpt lat="42.06653" lon="0.67041">
        <ele>633.261</ele>
        <time>2014-11-16T09:41:38Z</time>
      </trkpt>
      <trkpt lat="42.06652" lon="0.67042">
        <ele>633.198</ele>
        <time>2014-11-16T09:41:37Z</time>
      </trkpt>
      <trkpt lat="42.06653" lon="0.67045">
        <ele>632.662</ele>
        <time>2014-11-16T09:41:35Z</time>
      </trkpt>
      <trkpt lat="42.06653" lon="0.67046">
        <ele>632.395</ele>
        <time>2014-11-16T09:41:32Z</time>
      </trkpt>
      <trkpt lat="42.06653" lon="0.67048">
        <ele>632.249</ele>
        <time>2014-11-16T09:41:26Z</time>
      </trkpt>
      <trkpt lat="42.06654" lon="0.67049">
        <ele>631.623</ele>
        <time>2014-11-16T09:41:24Z</time>
      </trkpt>
      <trkpt lat="42.06653" lon="0.67051">
        <ele>631.508</ele>
        <time>2014-11-16T09:41:23Z</time>
      </trkpt>
      <trkpt lat="42.06652" lon="0.67054">
        <ele>631.511</ele>
        <time>2014-11-16T09:41:21Z</time>
      </trkpt>
      <trkpt lat="42.0665" lon="0.67057">
        <ele>630.23</ele>
        <time>2014-11-16T09:41:19Z</time>
      </trkpt>
      <trkpt lat="42.06649" lon="0.67059">
        <ele>629.141</ele>
        <time>2014-11-16T09:41:18Z</time>
      </trkpt>
      <trkpt lat="42.06648" lon="0.6706">
        <ele>627.853</ele>
        <time>2014-11-16T09:41:17Z</time>
      </trkpt>
      <trkpt lat="42.06648" lon="0.67062">
        <ele>626.376</ele>
        <time>2014-11-16T09:41:16Z</time>
      </trkpt>
      <trkpt lat="42.06649" lon="0.67065">
        <ele>623.957</ele>
        <time>2014-11-16T09:41:14Z</time>
      </trkpt>
      <trkpt lat="42.06649" lon="0.67066">
        <ele>622.284</ele>
        <time>2014-11-16T09:41:12Z</time>
      </trkpt>
      <trkpt lat="42.0665" lon="0.67068">
        <ele>621.138</ele>
        <time>2014-11-16T09:41:10Z</time>
      </trkpt>
      <trkpt lat="42.0665" lon="0.67071">
        <ele>618.278</ele>
        <time>2014-11-16T09:41:08Z</time>
      </trkpt>
      <trkpt lat="42.0665" lon="0.67073">
        <ele>616.333</ele>
        <time>2014-11-16T09:41:07Z</time>
      </trkpt>
      <trkpt lat="42.06649" lon="0.67075">
        <ele>614.526</ele>
        <time>2014-11-16T09:41:06Z</time>
      </trkpt>
      <trkpt lat="42.06648" lon="0.67076">
        <ele>612.808</ele>
        <time>2014-11-16T09:41:05Z</time>
      </trkpt>
      <trkpt lat="42.06647" lon="0.67078">
        <ele>610.919</ele>
        <time>2014-11-16T09:41:04Z</time>
      </trkpt>
      <trkpt lat="42.06645" lon="0.67079">
        <ele>608.198</ele>
        <time>2014-11-16T09:41:02Z</time>
      </trkpt>
      <trkpt lat="42.06644" lon="0.6708">
        <ele>606.989</ele>
        <time>2014-11-16T09:41:01Z</time>
      </trkpt>
      <trkpt lat="42.06643" lon="0.6708">
        <ele>605.751</ele>
        <time>2014-11-16T09:41:00Z</time>
      </trkpt>
      <trkpt lat="42.06641" lon="0.67082">
        <ele>603.264</ele>
        <time>2014-11-16T09:40:57Z</time>
      </trkpt>
      <trkpt lat="42.0664" lon="0.67083">
        <ele>601.615</ele>
        <time>2014-11-16T09:40:44Z</time>
      </trkpt>
      <trkpt lat="42.06641" lon="0.67082">
        <ele>603.342</ele>
        <time>2014-11-16T09:40:38Z</time>
      </trkpt>
      <trkpt lat="42.06641" lon="0.67083">
        <ele>601.466</ele>
        <time>2014-11-16T09:40:35Z</time>
      </trkpt>
      <trkpt lat="42.0664" lon="0.67084">
        <ele>600.159</ele>
        <time>2014-11-16T09:40:33Z</time>
      </trkpt>
      <trkpt lat="42.0664" lon="0.67082">
        <ele>602.203</ele>
        <time>2014-11-16T09:40:28Z</time>
      </trkpt>
      <trkpt lat="42.06639" lon="0.67084">
        <ele>599.523</ele>
        <time>2014-11-16T09:40:25Z</time>
      </trkpt>
      <trkpt lat="42.06638" lon="0.67083">
        <ele>599.908</ele>
        <time>2014-11-16T09:40:22Z</time>
      </trkpt>
      <trkpt lat="42.06636" lon="0.67084">
        <ele>598.357</ele>
        <time>2014-11-16T09:40:20Z</time>
      </trkpt>
      <trkpt lat="42.06635" lon="0.67086">
        <ele>596.636</ele>
        <time>2014-11-16T09:40:09Z</time>
      </trkpt>
      <trkpt lat="42.06636" lon="0.67085">
        <ele>597.997</ele>
        <time>2014-11-16T09:40:04Z</time>
      </trkpt>
      <trkpt lat="42.06637" lon="0.67085">
        <ele>598.359</ele>
        <time>2014-11-16T09:40:03Z</time>
      </trkpt>
      <trkpt lat="42.06638" lon="0.67084">
        <ele>599.362</ele>
        <time>2014-11-16T09:40:02Z</time>
      </trkpt>
      <trkpt lat="42.06639" lon="0.67083">
        <ele>600.833</ele>
        <time>2014-11-16T09:40:00Z</time>
      </trkpt>
      <trkpt lat="42.06641" lon="0.67082">
        <ele>602.44</ele>
        <time>2014-11-16T09:39:57Z</time>
      </trkpt>
      <trkpt lat="42.06642" lon="0.6708">
        <ele>606.164</ele>
        <time>2014-11-16T09:39:55Z</time>
      </trkpt>
      <trkpt lat="42.06644" lon="0.67079">
        <ele>608.168</ele>
        <time>2014-11-16T09:39:52Z</time>
      </trkpt>
      <trkpt lat="42.06645" lon="0.67078">
        <ele>610.042</ele>
        <time>2014-11-16T09:39:51Z</time>
      </trkpt>
      <trkpt lat="42.06649" lon="0.67076">
        <ele>612.926</ele>
        <time>2014-11-16T09:39:49Z</time>
      </trkpt>
      <trkpt lat="42.0665" lon="0.67076">
        <ele>613.808</ele>
        <time>2014-11-16T09:39:47Z</time>
      </trkpt>
      <trkpt lat="42.0665" lon="0.67075">
        <ele>614.818</ele>
        <time>2014-11-16T09:39:46Z</time>
      </trkpt>
      <trkpt lat="42.06652" lon="0.67074">
        <ele>616.327</ele>
        <time>2014-11-16T09:39:45Z</time>
      </trkpt>
      <trkpt lat="42.06653" lon="0.67073">
        <ele>617.718</ele>
        <time>2014-11-16T09:39:44Z</time>
      </trkpt>
      <trkpt lat="42.06654" lon="0.67071">
        <ele>618.97</ele>
        <time>2014-11-16T09:39:41Z</time>
      </trkpt>
      <trkpt lat="42.06656" lon="0.67069">
        <ele>620.563</ele>
        <time>2014-11-16T09:39:36Z</time>
      </trkpt>
      <trkpt lat="42.06657" lon="0.67069">
        <ele>620.844</ele>
        <time>2014-11-16T09:39:32Z</time>
      </trkpt>
      <trkpt lat="42.06658" lon="0.67069">
        <ele>621.011</ele>
        <time>2014-11-16T09:39:30Z</time>
      </trkpt>
      <trkpt lat="42.06657" lon="0.6707">
        <ele>620.255</ele>
        <time>2014-11-16T09:39:28Z</time>
      </trkpt>
      <trkpt lat="42.06656" lon="0.67072">
        <ele>619.265</ele>
        <time>2014-11-16T09:39:27Z</time>
      </trkpt>
      <trkpt lat="42.06657" lon="0.67072">
        <ele>618.968</ele>
        <time>2014-11-16T09:39:25Z</time>
      </trkpt>
      <trkpt lat="42.06658" lon="0.67074">
        <ele>618.114</ele>
        <time>2014-11-16T09:39:24Z</time>
      </trkpt>
      <trkpt lat="42.06659" lon="0.67076">
        <ele>617.108</ele>
        <time>2014-11-16T09:39:23Z</time>
      </trkpt>
      <trkpt lat="42.06659" lon="0.67077">
        <ele>616.988</ele>
        <time>2014-11-16T09:39:21Z</time>
      </trkpt>
      <trkpt lat="42.0666" lon="0.67077">
        <ele>617.267</ele>
        <time>2014-11-16T09:39:19Z</time>
      </trkpt>
      <trkpt lat="42.06663" lon="0.67078">
        <ele>617.778</ele>
        <time>2014-11-16T09:39:15Z</time>
      </trkpt>
      <trkpt lat="42.06664" lon="0.67078">
        <ele>618.45</ele>
        <time>2014-11-16T09:39:12Z</time>
      </trkpt>
      <trkpt lat="42.06664" lon="0.6708">
        <ele>618.023</ele>
        <time>2014-11-16T09:39:10Z</time>
      </trkpt>
      <trkpt lat="42.06665" lon="0.67082">
        <ele>617.514</ele>
        <time>2014-11-16T09:39:08Z</time>
      </trkpt>
      <trkpt lat="42.06666" lon="0.67084">
        <ele>617.211</ele>
        <time>2014-11-16T09:39:04Z</time>
      </trkpt>
      <trkpt lat="42.06666" lon="0.67086">
        <ele>615.425</ele>
        <time>2014-11-16T09:39:01Z</time>
      </trkpt>
      <trkpt lat="42.06666" lon="0.67087">
        <ele>613.932</ele>
        <time>2014-11-16T09:39:00Z</time>
      </trkpt>
      <trkpt lat="42.06666" lon="0.67088">
        <ele>613.092</ele>
        <time>2014-11-16T09:38:59Z</time>
      </trkpt>
      <trkpt lat="42.06667" lon="0.6709">
        <ele>610.711</ele>
        <time>2014-11-16T09:38:56Z</time>
      </trkpt>
      <trkpt lat="42.06668" lon="0.6709">
        <ele>610.408</ele>
        <time>2014-11-16T09:38:55Z</time>
      </trkpt>
      <trkpt lat="42.06669" lon="0.67093">
        <ele>608.445</ele>
        <time>2014-11-16T09:38:53Z</time>
      </trkpt>
      <trkpt lat="42.06669" lon="0.67094">
        <ele>607.174</ele>
        <time>2014-11-16T09:38:52Z</time>
      </trkpt>
      <trkpt lat="42.06669" lon="0.67095">
        <ele>606.015</ele>
        <time>2014-11-16T09:38:51Z</time>
      </trkpt>
      <trkpt lat="42.0667" lon="0.67096">
        <ele>605.157</ele>
        <time>2014-11-16T09:38:50Z</time>
      </trkpt>
      <trkpt lat="42.06672" lon="0.67098">
        <ele>604.23</ele>
        <time>2014-11-16T09:38:47Z</time>
      </trkpt>
      <trkpt lat="42.06673" lon="0.671">
        <ele>603.261</ele>
        <time>2014-11-16T09:38:45Z</time>
      </trkpt>
      <trkpt lat="42.06673" lon="0.67101">
        <ele>602.098</ele>
        <time>2014-11-16T09:38:44Z</time>
      </trkpt>
      <trkpt lat="42.06673" lon="0.67104">
        <ele>599.812</ele>
        <time>2014-11-16T09:38:42Z</time>
      </trkpt>
      <trkpt lat="42.06674" lon="0.67103">
        <ele>600.769</ele>
        <time>2014-11-16T09:38:40Z</time>
      </trkpt>
      <trkpt lat="42.06676" lon="0.67104">
        <ele>600.704</ele>
        <time>2014-11-16T09:38:37Z</time>
      </trkpt>
      <trkpt lat="42.06677" lon="0.67104">
        <ele>601.524</ele>
        <time>2014-11-16T09:38:36Z</time>
      </trkpt>
      <trkpt lat="42.06678" lon="0.67104">
        <ele>602.408</ele>
        <time>2014-11-16T09:38:35Z</time>
      </trkpt>
      <trkpt lat="42.06679" lon="0.67104">
        <ele>602.868</ele>
        <time>2014-11-16T09:38:34Z</time>
      </trkpt>
      <trkpt lat="42.0668" lon="0.67104">
        <ele>603.357</ele>
        <time>2014-11-16T09:38:33Z</time>
      </trkpt>
      <trkpt lat="42.06682" lon="0.67106">
        <ele>603.538</ele>
        <time>2014-11-16T09:38:32Z</time>
      </trkpt>
      <trkpt lat="42.06683" lon="0.67107">
        <ele>603.81</ele>
        <time>2014-11-16T09:38:30Z</time>
      </trkpt>
      <trkpt lat="42.06684" lon="0.67108">
        <ele>603.833</ele>
        <time>2014-11-16T09:38:29Z</time>
      </trkpt>
      <trkpt lat="42.06685" lon="0.6711">
        <ele>603.864</ele>
        <time>2014-11-16T09:38:27Z</time>
      </trkpt>
      <trkpt lat="42.06686" lon="0.6711">
        <ele>604.691</ele>
        <time>2014-11-16T09:38:25Z</time>
      </trkpt>
      <trkpt lat="42.06688" lon="0.67111">
        <ele>605.875</ele>
        <time>2014-11-16T09:38:23Z</time>
      </trkpt>
      <trkpt lat="42.06689" lon="0.67112">
        <ele>606.034</ele>
        <time>2014-11-16T09:38:21Z</time>
      </trkpt>
      <trkpt lat="42.06689" lon="0.67114">
        <ele>605.355</ele>
        <time>2014-11-16T09:38:19Z</time>
      </trkpt>
      <trkpt lat="42.0669" lon="0.67116">
        <ele>604.41</ele>
        <time>2014-11-16T09:38:17Z</time>
      </trkpt>
      <trkpt lat="42.06689" lon="0.67118">
        <ele>602.908</ele>
        <time>2014-11-16T09:38:16Z</time>
      </trkpt>
      <trkpt lat="42.06689" lon="0.67121">
        <ele>600.755</ele>
        <time>2014-11-16T09:38:13Z</time>
      </trkpt>
      <trkpt lat="42.06691" lon="0.67121">
        <ele>602.564</ele>
        <time>2014-11-16T09:38:11Z</time>
      </trkpt>
      <trkpt lat="42.06693" lon="0.6712">
        <ele>605.285</ele>
        <time>2014-11-16T09:38:10Z</time>
      </trkpt>
      <trkpt lat="42.06695" lon="0.6712">
        <ele>607.177</ele>
        <time>2014-11-16T09:38:09Z</time>
      </trkpt>
      <trkpt lat="42.06696" lon="0.6712">
        <ele>606.72</ele>
        <time>2014-11-16T09:38:08Z</time>
      </trkpt>
      <trkpt lat="42.06697" lon="0.67118">
        <ele>606.981</ele>
        <time>2014-11-16T09:38:03Z</time>
      </trkpt>
      <trkpt lat="42.06698" lon="0.67119">
        <ele>606.388</ele>
        <time>2014-11-16T09:38:02Z</time>
      </trkpt>
      <trkpt lat="42.06699" lon="0.67119">
        <ele>605.262</ele>
        <time>2014-11-16T09:38:00Z</time>
      </trkpt>
      <trkpt lat="42.06699" lon="0.67119">
        <ele>605.327</ele>
        <time>2014-11-16T09:37:59Z</time>
      </trkpt>
      <trkpt lat="42.06698" lon="0.67118">
        <ele>606.068</ele>
        <time>2014-11-16T09:37:56Z</time>
      </trkpt>
      <trkpt lat="42.06698" lon="0.6712">
        <ele>605.514</ele>
        <time>2014-11-16T09:37:54Z</time>
      </trkpt>
      <trkpt lat="42.06699" lon="0.67121">
        <ele>604.808</ele>
        <time>2014-11-16T09:37:52Z</time>
      </trkpt>
      <trkpt lat="42.06699" lon="0.67124">
        <ele>603.764</ele>
        <time>2014-11-16T09:37:50Z</time>
      </trkpt>
      <trkpt lat="42.06699" lon="0.67127">
        <ele>602.483</ele>
        <time>2014-11-16T09:37:48Z</time>
      </trkpt>
      <trkpt lat="42.067" lon="0.67128">
        <ele>601.854</ele>
        <time>2014-11-16T09:37:47Z</time>
      </trkpt>
      <trkpt lat="42.067" lon="0.67129">
        <ele>601.366</ele>
        <time>2014-11-16T09:37:44Z</time>
      </trkpt>
      <trkpt lat="42.06701" lon="0.6713">
        <ele>600.629</ele>
        <time>2014-11-16T09:37:42Z</time>
      </trkpt>
      <trkpt lat="42.06703" lon="0.67131">
        <ele>599.79</ele>
        <time>2014-11-16T09:37:35Z</time>
      </trkpt>
      <trkpt lat="42.06704" lon="0.67132">
        <ele>599.197</ele>
        <time>2014-11-16T09:37:34Z</time>
      </trkpt>
      <trkpt lat="42.06704" lon="0.67134">
        <ele>598.341</ele>
        <time>2014-11-16T09:37:32Z</time>
      </trkpt>
      <trkpt lat="42.06705" lon="0.67136">
        <ele>597.424</ele>
        <time>2014-11-16T09:37:30Z</time>
      </trkpt>
      <trkpt lat="42.06706" lon="0.67136">
        <ele>596.904</ele>
        <time>2014-11-16T09:37:27Z</time>
      </trkpt>
      <trkpt lat="42.06706" lon="0.67138">
        <ele>596.514</ele>
        <time>2014-11-16T09:37:23Z</time>
      </trkpt>
      <trkpt lat="42.06705" lon="0.67137">
        <ele>597.008</ele>
        <time>2014-11-16T09:37:20Z</time>
      </trkpt>
      <trkpt lat="42.06704" lon="0.67138">
        <ele>596.764</ele>
        <time>2014-11-16T09:37:18Z</time>
      </trkpt>
      <trkpt lat="42.06704" lon="0.67141">
        <ele>595.043</ele>
        <time>2014-11-16T09:37:15Z</time>
      </trkpt>
      <trkpt lat="42.06705" lon="0.67143">
        <ele>594.044</ele>
        <time>2014-11-16T09:37:13Z</time>
      </trkpt>
      <trkpt lat="42.06705" lon="0.67145">
        <ele>592.456</ele>
        <time>2014-11-16T09:37:11Z</time>
      </trkpt>
      <trkpt lat="42.06705" lon="0.67147">
        <ele>591.449</ele>
        <time>2014-11-16T09:37:10Z</time>
      </trkpt>
      <trkpt lat="42.06705" lon="0.67148">
        <ele>590.48</ele>
        <time>2014-11-16T09:37:08Z</time>
      </trkpt>
      <trkpt lat="42.06706" lon="0.6715">
        <ele>589.477</ele>
        <time>2014-11-16T09:37:06Z</time>
      </trkpt>
      <trkpt lat="42.06707" lon="0.67151">
        <ele>588.811</ele>
        <time>2014-11-16T09:37:04Z</time>
      </trkpt>
      <trkpt lat="42.06707" lon="0.67153">
        <ele>587.644</ele>
        <time>2014-11-16T09:37:02Z</time>
      </trkpt>
      <trkpt lat="42.06708" lon="0.67155">
        <ele>587.105</ele>
        <time>2014-11-16T09:37:00Z</time>
      </trkpt>
      <trkpt lat="42.06708" lon="0.67155">
        <ele>587.415</ele>
        <time>2014-11-16T09:36:56Z</time>
      </trkpt>
      <trkpt lat="42.06709" lon="0.67156">
        <ele>586.908</ele>
        <time>2014-11-16T09:36:53Z</time>
      </trkpt>
      <trkpt lat="42.0671" lon="0.67157">
        <ele>586.456</ele>
        <time>2014-11-16T09:36:51Z</time>
      </trkpt>
      <trkpt lat="42.0671" lon="0.67158">
        <ele>585.985</ele>
        <time>2014-11-16T09:36:49Z</time>
      </trkpt>
      <trkpt lat="42.06711" lon="0.6716">
        <ele>585.746</ele>
        <time>2014-11-16T09:36:46Z</time>
      </trkpt>
      <trkpt lat="42.06712" lon="0.67162">
        <ele>585.148</ele>
        <time>2014-11-16T09:36:43Z</time>
      </trkpt>
      <trkpt lat="42.06712" lon="0.67161">
        <ele>585.621</ele>
        <time>2014-11-16T09:36:41Z</time>
      </trkpt>
      <trkpt lat="42.06714" lon="0.6716">
        <ele>586.762</ele>
        <time>2014-11-16T09:36:39Z</time>
      </trkpt>
      <trkpt lat="42.06715" lon="0.67158">
        <ele>587.599</ele>
        <time>2014-11-16T09:36:37Z</time>
      </trkpt>
      <trkpt lat="42.06716" lon="0.67157">
        <ele>588.113</ele>
        <time>2014-11-16T09:36:35Z</time>
      </trkpt>
      <trkpt lat="42.06718" lon="0.67158">
        <ele>588.535</ele>
        <time>2014-11-16T09:36:32Z</time>
      </trkpt>
      <trkpt lat="42.06718" lon="0.67159">
        <ele>588.286</ele>
        <time>2014-11-16T09:36:30Z</time>
      </trkpt>
      <trkpt lat="42.06718" lon="0.67162">
        <ele>587.814</ele>
        <time>2014-11-16T09:36:28Z</time>
      </trkpt>
      <trkpt lat="42.06718" lon="0.67163">
        <ele>587.608</ele>
        <time>2014-11-16T09:36:27Z</time>
      </trkpt>
      <trkpt lat="42.06719" lon="0.67165">
        <ele>587.685</ele>
        <time>2014-11-16T09:36:26Z</time>
      </trkpt>
      <trkpt lat="42.0672" lon="0.67167">
        <ele>587.494</ele>
        <time>2014-11-16T09:36:24Z</time>
      </trkpt>
      <trkpt lat="42.0672" lon="0.67168">
        <ele>587.115</ele>
        <time>2014-11-16T09:36:22Z</time>
      </trkpt>
      <trkpt lat="42.0672" lon="0.6717">
        <ele>586.647</ele>
        <time>2014-11-16T09:36:20Z</time>
      </trkpt>
      <trkpt lat="42.0672" lon="0.67171">
        <ele>586.73</ele>
        <time>2014-11-16T09:36:18Z</time>
      </trkpt>
      <trkpt lat="42.06721" lon="0.67173">
        <ele>586.781</ele>
        <time>2014-11-16T09:36:17Z</time>
      </trkpt>
      <trkpt lat="42.06721" lon="0.67174">
        <ele>586.348</ele>
        <time>2014-11-16T09:36:15Z</time>
      </trkpt>
      <trkpt lat="42.06721" lon="0.67175">
        <ele>586.332</ele>
        <time>2014-11-16T09:36:14Z</time>
      </trkpt>
      <trkpt lat="42.06721" lon="0.67178">
        <ele>585.562</ele>
        <time>2014-11-16T09:36:12Z</time>
      </trkpt>
      <trkpt lat="42.0672" lon="0.67179">
        <ele>584.883</ele>
        <time>2014-11-16T09:36:11Z</time>
      </trkpt>
      <trkpt lat="42.0672" lon="0.67181">
        <ele>584.211</ele>
        <time>2014-11-16T09:36:10Z</time>
      </trkpt>
      <trkpt lat="42.06721" lon="0.67183">
        <ele>585.008</ele>
        <time>2014-11-16T09:36:08Z</time>
      </trkpt>
      <trkpt lat="42.06721" lon="0.67184">
        <ele>584.058</ele>
        <time>2014-11-16T09:36:07Z</time>
      </trkpt>
      <trkpt lat="42.0672" lon="0.67187">
        <ele>582.637</ele>
        <time>2014-11-16T09:36:06Z</time>
      </trkpt>
      <trkpt lat="42.06719" lon="0.6719">
        <ele>580.128</ele>
        <time>2014-11-16T09:36:04Z</time>
      </trkpt>
      <trkpt lat="42.06719" lon="0.67192">
        <ele>579.97</ele>
        <time>2014-11-16T09:36:02Z</time>
      </trkpt>
      <trkpt lat="42.06719" lon="0.67194">
        <ele>580.083</ele>
        <time>2014-11-16T09:36:01Z</time>
      </trkpt>
      <trkpt lat="42.06719" lon="0.67195">
        <ele>579.434</ele>
        <time>2014-11-16T09:36:00Z</time>
      </trkpt>
      <trkpt lat="42.0672" lon="0.67196">
        <ele>578.911</ele>
        <time>2014-11-16T09:35:59Z</time>
      </trkpt>
      <trkpt lat="42.0672" lon="0.67197">
        <ele>577.655</ele>
        <time>2014-11-16T09:35:57Z</time>
      </trkpt>
      <trkpt lat="42.06721" lon="0.67199">
        <ele>577.127</ele>
        <time>2014-11-16T09:35:55Z</time>
      </trkpt>
      <trkpt lat="42.06721" lon="0.672">
        <ele>574.868</ele>
        <time>2014-11-16T09:35:54Z</time>
      </trkpt>
      <trkpt lat="42.06721" lon="0.67202">
        <ele>572.614</ele>
        <time>2014-11-16T09:35:53Z</time>
      </trkpt>
      <trkpt lat="42.0672" lon="0.67204">
        <ele>569.308</ele>
        <time>2014-11-16T09:35:51Z</time>
      </trkpt>
      <trkpt lat="42.06721" lon="0.67205">
        <ele>568.934</ele>
        <time>2014-11-16T09:35:48Z</time>
      </trkpt>
      <trkpt lat="42.06721" lon="0.67207">
        <ele>566.963</ele>
        <time>2014-11-16T09:35:45Z</time>
      </trkpt>
      <trkpt lat="42.06721" lon="0.67208">
        <ele>565.184</ele>
        <time>2014-11-16T09:35:43Z</time>
      </trkpt>
      <trkpt lat="42.06722" lon="0.6721">
        <ele>563.356</ele>
        <time>2014-11-16T09:35:41Z</time>
      </trkpt>
      <trkpt lat="42.06721" lon="0.67212">
        <ele>560.499</ele>
        <time>2014-11-16T09:35:38Z</time>
      </trkpt>
      <trkpt lat="42.06722" lon="0.67213">
        <ele>560.63</ele>
        <time>2014-11-16T09:35:37Z</time>
      </trkpt>
      <trkpt lat="42.06723" lon="0.67214">
        <ele>559.587</ele>
        <time>2014-11-16T09:35:34Z</time>
      </trkpt>
      <trkpt lat="42.06725" lon="0.67213">
        <ele>560.621</ele>
        <time>2014-11-16T09:35:32Z</time>
      </trkpt>
      <trkpt lat="42.06728" lon="0.67215">
        <ele>559.453</ele>
        <time>2014-11-16T09:35:29Z</time>
      </trkpt>
      <trkpt lat="42.06729" lon="0.67215">
        <ele>559.404</ele>
        <time>2014-11-16T09:35:26Z</time>
      </trkpt>
      <trkpt lat="42.06731" lon="0.67216">
        <ele>559.614</ele>
        <time>2014-11-16T09:35:24Z</time>
      </trkpt>
      <trkpt lat="42.06733" lon="0.67216">
        <ele>559.808</ele>
        <time>2014-11-16T09:35:22Z</time>
      </trkpt>
      <trkpt lat="42.06734" lon="0.67216">
        <ele>560.417</ele>
        <time>2014-11-16T09:35:20Z</time>
      </trkpt>
      <trkpt lat="42.06735" lon="0.67216">
        <ele>560.916</ele>
        <time>2014-11-16T09:35:18Z</time>
      </trkpt>
      <trkpt lat="42.06736" lon="0.67213">
        <ele>563.587</ele>
        <time>2014-11-16T09:35:16Z</time>
      </trkpt>
      <trkpt lat="42.06737" lon="0.67212">
        <ele>564.339</ele>
        <time>2014-11-16T09:35:15Z</time>
      </trkpt>
      <trkpt lat="42.06737" lon="0.67211">
        <ele>565.492</ele>
        <time>2014-11-16T09:35:14Z</time>
      </trkpt>
      <trkpt lat="42.06738" lon="0.67209">
        <ele>566.263</ele>
        <time>2014-11-16T09:35:12Z</time>
      </trkpt>
      <trkpt lat="42.0674" lon="0.67208">
        <ele>567.49</ele>
        <time>2014-11-16T09:35:10Z</time>
      </trkpt>
      <trkpt lat="42.06742" lon="0.67207">
        <ele>567.894</ele>
        <time>2014-11-16T09:35:08Z</time>
      </trkpt>
      <trkpt lat="42.06743" lon="0.67208">
        <ele>567.148</ele>
        <time>2014-11-16T09:35:06Z</time>
      </trkpt>
      <trkpt lat="42.06743" lon="0.6721">
        <ele>566.461</ele>
        <time>2014-11-16T09:35:05Z</time>
      </trkpt>
      <trkpt lat="42.06744" lon="0.67211">
        <ele>566.117</ele>
        <time>2014-11-16T09:35:03Z</time>
      </trkpt>
      <trkpt lat="42.06744" lon="0.67213">
        <ele>565.608</ele>
        <time>2014-11-16T09:35:00Z</time>
      </trkpt>
      <trkpt lat="42.06744" lon="0.67214">
        <ele>565.456</ele>
        <time>2014-11-16T09:34:59Z</time>
      </trkpt>
      <trkpt lat="42.06745" lon="0.67216">
        <ele>565.025</ele>
        <time>2014-11-16T09:34:58Z</time>
      </trkpt>
      <trkpt lat="42.06746" lon="0.67219">
        <ele>564.186</ele>
        <time>2014-11-16T09:34:56Z</time>
      </trkpt>
      <trkpt lat="42.06747" lon="0.67221">
        <ele>564.458</ele>
        <time>2014-11-16T09:34:54Z</time>
      </trkpt>
      <trkpt lat="42.06747" lon="0.67223">
        <ele>563.431</ele>
        <time>2014-11-16T09:34:53Z</time>
      </trkpt>
      <trkpt lat="42.06747" lon="0.67224">
        <ele>561.032</ele>
        <time>2014-11-16T09:34:52Z</time>
      </trkpt>
      <trkpt lat="42.06747" lon="0.67226">
        <ele>558.629</ele>
        <time>2014-11-16T09:34:50Z</time>
      </trkpt>
      <trkpt lat="42.06748" lon="0.67227">
        <ele>558.383</ele>
        <time>2014-11-16T09:34:46Z</time>
      </trkpt>
      <trkpt lat="42.06748" lon="0.67224">
        <ele>563.122</ele>
        <time>2014-11-16T09:34:44Z</time>
      </trkpt>
      <trkpt lat="42.0675" lon="0.67223">
        <ele>565.062</ele>
        <time>2014-11-16T09:34:42Z</time>
      </trkpt>
      <trkpt lat="42.0675" lon="0.67225">
        <ele>562.408</ele>
        <time>2014-11-16T09:34:40Z</time>
      </trkpt>
      <trkpt lat="42.06751" lon="0.67226">
        <ele>559.908</ele>
        <time>2014-11-16T09:34:38Z</time>
      </trkpt>
      <trkpt lat="42.06752" lon="0.67227">
        <ele>558.184</ele>
        <time>2014-11-16T09:34:36Z</time>
      </trkpt>
      <trkpt lat="42.06754" lon="0.6723">
        <ele>554.583</ele>
        <time>2014-11-16T09:34:32Z</time>
      </trkpt>
      <trkpt lat="42.06755" lon="0.67233">
        <ele>551.014</ele>
        <time>2014-11-16T09:34:30Z</time>
      </trkpt>
      <trkpt lat="42.06756" lon="0.67235">
        <ele>548.776</ele>
        <time>2014-11-16T09:34:29Z</time>
      </trkpt>
      <trkpt lat="42.06756" lon="0.67236">
        <ele>547.949</ele>
        <time>2014-11-16T09:34:27Z</time>
      </trkpt>
      <trkpt lat="42.06758" lon="0.67237">
        <ele>546.73</ele>
        <time>2014-11-16T09:34:24Z</time>
      </trkpt>
      <trkpt lat="42.06759" lon="0.67237">
        <ele>546.847</ele>
        <time>2014-11-16T09:34:21Z</time>
      </trkpt>
      <trkpt lat="42.0676" lon="0.67239">
        <ele>545.681</ele>
        <time>2014-11-16T09:34:19Z</time>
      </trkpt>
      <trkpt lat="42.0676" lon="0.6724">
        <ele>544.178</ele>
        <time>2014-11-16T09:34:18Z</time>
      </trkpt>
      <trkpt lat="42.06761" lon="0.67242">
        <ele>542.433</ele>
        <time>2014-11-16T09:34:15Z</time>
      </trkpt>
      <trkpt lat="42.06762" lon="0.67242">
        <ele>543.126</ele>
        <time>2014-11-16T09:34:14Z</time>
      </trkpt>
      <trkpt lat="42.06763" lon="0.67243">
        <ele>542.308</ele>
        <time>2014-11-16T09:34:12Z</time>
      </trkpt>
      <trkpt lat="42.06763" lon="0.67242">
        <ele>543.699</ele>
        <time>2014-11-16T09:34:10Z</time>
      </trkpt>
      <trkpt lat="42.06763" lon="0.6724">
        <ele>545.238</ele>
        <time>2014-11-16T09:34:08Z</time>
      </trkpt>
      <trkpt lat="42.06764" lon="0.67239">
        <ele>546.269</ele>
        <time>2014-11-16T09:34:07Z</time>
      </trkpt>
      <trkpt lat="42.06765" lon="0.67237">
        <ele>548.041</ele>
        <time>2014-11-16T09:34:04Z</time>
      </trkpt>
      <trkpt lat="42.06764" lon="0.67238">
        <ele>547.624</ele>
        <time>2014-11-16T09:34:02Z</time>
      </trkpt>
      <trkpt lat="42.06765" lon="0.67238">
        <ele>547.515</ele>
        <time>2014-11-16T09:34:00Z</time>
      </trkpt>
      <trkpt lat="42.06765" lon="0.67238">
        <ele>547.482</ele>
        <time>2014-11-16T09:33:59Z</time>
      </trkpt>
      <trkpt lat="42.06767" lon="0.6724">
        <ele>546.656</ele>
        <time>2014-11-16T09:33:57Z</time>
      </trkpt>
      <trkpt lat="42.06767" lon="0.67242">
        <ele>545.256</ele>
        <time>2014-11-16T09:33:54Z</time>
      </trkpt>
      <trkpt lat="42.06767" lon="0.67243">
        <ele>544.859</ele>
        <time>2014-11-16T09:33:53Z</time>
      </trkpt>
      <trkpt lat="42.06768" lon="0.67245">
        <ele>544.014</ele>
        <time>2014-11-16T09:33:52Z</time>
      </trkpt>
      <trkpt lat="42.06769" lon="0.67247">
        <ele>543.208</ele>
        <time>2014-11-16T09:33:50Z</time>
      </trkpt>
      <trkpt lat="42.06769" lon="0.67249">
        <ele>542.597</ele>
        <time>2014-11-16T09:33:49Z</time>
      </trkpt>
      <trkpt lat="42.0677" lon="0.67251">
        <ele>541.726</ele>
        <time>2014-11-16T09:33:47Z</time>
      </trkpt>
      <trkpt lat="42.06771" lon="0.67251">
        <ele>542.597</ele>
        <time>2014-11-16T09:33:45Z</time>
      </trkpt>
      <trkpt lat="42.06772" lon="0.67253">
        <ele>541.819</ele>
        <time>2014-11-16T09:33:44Z</time>
      </trkpt>
      <trkpt lat="42.06773" lon="0.67254">
        <ele>541.572</ele>
        <time>2014-11-16T09:33:42Z</time>
      </trkpt>
      <trkpt lat="42.06773" lon="0.67256">
        <ele>540.763</ele>
        <time>2014-11-16T09:33:41Z</time>
      </trkpt>
      <trkpt lat="42.06775" lon="0.67258">
        <ele>540.53</ele>
        <time>2014-11-16T09:33:39Z</time>
      </trkpt>
      <trkpt lat="42.06775" lon="0.67259">
        <ele>540.294</ele>
        <time>2014-11-16T09:33:37Z</time>
      </trkpt>
      <trkpt lat="42.06776" lon="0.6726">
        <ele>539.859</ele>
        <time>2014-11-16T09:33:36Z</time>
      </trkpt>
      <trkpt lat="42.06777" lon="0.67261">
        <ele>540.103</ele>
        <time>2014-11-16T09:33:33Z</time>
      </trkpt>
      <trkpt lat="42.06778" lon="0.67263">
        <ele>539.823</ele>
        <time>2014-11-16T09:33:26Z</time>
      </trkpt>
      <trkpt lat="42.06779" lon="0.67264">
        <ele>538.908</ele>
        <time>2014-11-16T09:33:19Z</time>
      </trkpt>
      <trkpt lat="42.0678" lon="0.67267">
        <ele>536.987</ele>
        <time>2014-11-16T09:33:17Z</time>
      </trkpt>
      <trkpt lat="42.0678" lon="0.67268">
        <ele>536.186</ele>
        <time>2014-11-16T09:33:16Z</time>
      </trkpt>
      <trkpt lat="42.06782" lon="0.67268">
        <ele>535.857</ele>
        <time>2014-11-16T09:33:14Z</time>
      </trkpt>
      <trkpt lat="42.06783" lon="0.67269">
        <ele>535.199</ele>
        <time>2014-11-16T09:33:13Z</time>
      </trkpt>
      <trkpt lat="42.06784" lon="0.67271">
        <ele>533.822</ele>
        <time>2014-11-16T09:33:09Z</time>
      </trkpt>
      <trkpt lat="42.06784" lon="0.67273">
        <ele>532.553</ele>
        <time>2014-11-16T09:33:07Z</time>
      </trkpt>
      <trkpt lat="42.06785" lon="0.67274">
        <ele>532.11</ele>
        <time>2014-11-16T09:33:05Z</time>
      </trkpt>
      <trkpt lat="42.06786" lon="0.67275">
        <ele>531.364</ele>
        <time>2014-11-16T09:33:03Z</time>
      </trkpt>
      <trkpt lat="42.06786" lon="0.67277">
        <ele>530.373</ele>
        <time>2014-11-16T09:33:01Z</time>
      </trkpt>
      <trkpt lat="42.06787" lon="0.67278">
        <ele>529.585</ele>
        <time>2014-11-16T09:32:54Z</time>
      </trkpt>
      <trkpt lat="42.06787" lon="0.67279">
        <ele>528.713</ele>
        <time>2014-11-16T09:32:53Z</time>
      </trkpt>
      <trkpt lat="42.06787" lon="0.67282">
        <ele>527.308</ele>
        <time>2014-11-16T09:32:52Z</time>
      </trkpt>
      <trkpt lat="42.06786" lon="0.67283">
        <ele>526.149</ele>
        <time>2014-11-16T09:32:51Z</time>
      </trkpt>
      <trkpt lat="42.06787" lon="0.67284">
        <ele>526.148</ele>
        <time>2014-11-16T09:32:49Z</time>
      </trkpt>
      <trkpt lat="42.0679" lon="0.67285">
        <ele>525.929</ele>
        <time>2014-11-16T09:32:47Z</time>
      </trkpt>
      <trkpt lat="42.0679" lon="0.67286">
        <ele>525.341</ele>
        <time>2014-11-16T09:32:45Z</time>
      </trkpt>
      <trkpt lat="42.06791" lon="0.67287">
        <ele>524.864</ele>
        <time>2014-11-16T09:32:44Z</time>
      </trkpt>
      <trkpt lat="42.06792" lon="0.67289">
        <ele>524.195</ele>
        <time>2014-11-16T09:32:31Z</time>
      </trkpt>
      <trkpt lat="42.06793" lon="0.6729">
        <ele>523.742</ele>
        <time>2014-11-16T09:32:23Z</time>
      </trkpt>
      <trkpt lat="42.06792" lon="0.67291">
        <ele>523.056</ele>
        <time>2014-11-16T09:32:21Z</time>
      </trkpt>
      <trkpt lat="42.06791" lon="0.67293">
        <ele>522.095</ele>
        <time>2014-11-16T09:32:19Z</time>
      </trkpt>
      <trkpt lat="42.06792" lon="0.67295">
        <ele>521.449</ele>
        <time>2014-11-16T09:32:16Z</time>
      </trkpt>
      <trkpt lat="42.06793" lon="0.67296">
        <ele>521.423</ele>
        <time>2014-11-16T09:32:13Z</time>
      </trkpt>
      <trkpt lat="42.06793" lon="0.67296">
        <ele>521.308</ele>
        <time>2014-11-16T09:32:11Z</time>
      </trkpt>
      <trkpt lat="42.06795" lon="0.67297">
        <ele>521.871</ele>
        <time>2014-11-16T09:32:09Z</time>
      </trkpt>
      <trkpt lat="42.06796" lon="0.67301">
        <ele>521.06</ele>
        <time>2014-11-16T09:32:06Z</time>
      </trkpt>
      <trkpt lat="42.06797" lon="0.67302">
        <ele>521.281</ele>
        <time>2014-11-16T09:32:04Z</time>
      </trkpt>
      <trkpt lat="42.06799" lon="0.67304">
        <ele>521.823</ele>
        <time>2014-11-16T09:32:01Z</time>
      </trkpt>
      <trkpt lat="42.06798" lon="0.67306">
        <ele>521.356</ele>
        <time>2014-11-16T09:32:00Z</time>
      </trkpt>
      <trkpt lat="42.06799" lon="0.67305">
        <ele>522.037</ele>
        <time>2014-11-16T09:31:58Z</time>
      </trkpt>
      <trkpt lat="42.068" lon="0.67305">
        <ele>523.084</ele>
        <time>2014-11-16T09:31:56Z</time>
      </trkpt>
      <trkpt lat="42.06802" lon="0.67305">
        <ele>524.098</ele>
        <time>2014-11-16T09:31:54Z</time>
      </trkpt>
      <trkpt lat="42.06803" lon="0.67305">
        <ele>525.045</ele>
        <time>2014-11-16T09:31:52Z</time>
      </trkpt>
      <trkpt lat="42.06803" lon="0.67306">
        <ele>525.047</ele>
        <time>2014-11-16T09:31:51Z</time>
      </trkpt>
      <trkpt lat="42.06804" lon="0.67308">
        <ele>524.911</ele>
        <time>2014-11-16T09:31:49Z</time>
      </trkpt>
      <trkpt lat="42.06804" lon="0.6731">
        <ele>524.708</ele>
        <time>2014-11-16T09:31:48Z</time>
      </trkpt>
      <trkpt lat="42.06805" lon="0.67312">
        <ele>525.186</ele>
        <time>2014-11-16T09:31:46Z</time>
      </trkpt>
      <trkpt lat="42.06806" lon="0.67314">
        <ele>525.275</ele>
        <time>2014-11-16T09:31:45Z</time>
      </trkpt>
      <trkpt lat="42.06806" lon="0.67316">
        <ele>524.586</ele>
        <time>2014-11-16T09:31:44Z</time>
      </trkpt>
      <trkpt lat="42.06807" lon="0.67318">
        <ele>523.628</ele>
        <time>2014-11-16T09:31:42Z</time>
      </trkpt>
      <trkpt lat="42.06807" lon="0.67319">
        <ele>523.531</ele>
        <time>2014-11-16T09:31:40Z</time>
      </trkpt>
      <trkpt lat="42.06807" lon="0.67321">
        <ele>523.112</ele>
        <time>2014-11-16T09:31:38Z</time>
      </trkpt>
      <trkpt lat="42.06807" lon="0.67323">
        <ele>522.689</ele>
        <time>2014-11-16T09:31:37Z</time>
      </trkpt>
      <trkpt lat="42.06808" lon="0.67324">
        <ele>521.723</ele>
        <time>2014-11-16T09:31:35Z</time>
      </trkpt>
      <trkpt lat="42.0681" lon="0.67326">
        <ele>520.213</ele>
        <time>2014-11-16T09:31:31Z</time>
      </trkpt>
      <trkpt lat="42.06809" lon="0.67327">
        <ele>520.843</ele>
        <time>2014-11-16T09:31:27Z</time>
      </trkpt>
      <trkpt lat="42.06809" lon="0.67328">
        <ele>520.307</ele>
        <time>2014-11-16T09:31:25Z</time>
      </trkpt>
      <trkpt lat="42.0681" lon="0.67329">
        <ele>519.708</ele>
        <time>2014-11-16T09:31:24Z</time>
      </trkpt>
      <trkpt lat="42.0681" lon="0.67331">
        <ele>519.223</ele>
        <time>2014-11-16T09:31:23Z</time>
      </trkpt>
      <trkpt lat="42.0681" lon="0.67332">
        <ele>518.872</ele>
        <time>2014-11-16T09:31:22Z</time>
      </trkpt>
      <trkpt lat="42.06811" lon="0.67334">
        <ele>517.773</ele>
        <time>2014-11-16T09:31:21Z</time>
      </trkpt>
      <trkpt lat="42.06811" lon="0.67337">
        <ele>515.845</ele>
        <time>2014-11-16T09:31:19Z</time>
      </trkpt>
      <trkpt lat="42.06811" lon="0.67339">
        <ele>514.948</ele>
        <time>2014-11-16T09:31:18Z</time>
      </trkpt>
      <trkpt lat="42.06811" lon="0.6734">
        <ele>513.929</ele>
        <time>2014-11-16T09:31:17Z</time>
      </trkpt>
      <trkpt lat="42.06813" lon="0.67343">
        <ele>511.796</ele>
        <time>2014-11-16T09:31:14Z</time>
      </trkpt>
      <trkpt lat="42.06814" lon="0.67344">
        <ele>510.56</ele>
        <time>2014-11-16T09:31:12Z</time>
      </trkpt>
      <trkpt lat="42.06814" lon="0.67346">
        <ele>509.765</ele>
        <time>2014-11-16T09:31:10Z</time>
      </trkpt>
      <trkpt lat="42.06814" lon="0.67347">
        <ele>508.868</ele>
        <time>2014-11-16T09:31:08Z</time>
      </trkpt>
      <trkpt lat="42.06815" lon="0.67351">
        <ele>506.714</ele>
        <time>2014-11-16T09:31:05Z</time>
      </trkpt>
      <trkpt lat="42.06816" lon="0.67352">
        <ele>505.708</ele>
        <time>2014-11-16T09:31:04Z</time>
      </trkpt>
      <trkpt lat="42.06817" lon="0.67352">
        <ele>505.248</ele>
        <time>2014-11-16T09:31:02Z</time>
      </trkpt>
      <trkpt lat="42.06817" lon="0.67353">
        <ele>504.657</ele>
        <time>2014-11-16T09:31:00Z</time>
      </trkpt>
      <trkpt lat="42.06817" lon="0.67353">
        <ele>504.728</ele>
        <time>2014-11-16T09:30:59Z</time>
      </trkpt>
      <trkpt lat="42.06817" lon="0.67354">
        <ele>504.14</ele>
        <time>2014-11-16T09:30:56Z</time>
      </trkpt>
      <trkpt lat="42.06819" lon="0.67354">
        <ele>503.943</ele>
        <time>2014-11-16T09:30:49Z</time>
      </trkpt>
      <trkpt lat="42.06819" lon="0.67356">
        <ele>503.214</ele>
        <time>2014-11-16T09:30:47Z</time>
      </trkpt>
      <trkpt lat="42.06822" lon="0.67357">
        <ele>502.361</ele>
        <time>2014-11-16T09:30:45Z</time>
      </trkpt>
      <trkpt lat="42.06822" lon="0.67357">
        <ele>502.075</ele>
        <time>2014-11-16T09:30:43Z</time>
      </trkpt>
      <trkpt lat="42.06823" lon="0.67359">
        <ele>501.325</ele>
        <time>2014-11-16T09:30:41Z</time>
      </trkpt>
      <trkpt lat="42.06823" lon="0.6736">
        <ele>500.726</ele>
        <time>2014-11-16T09:30:40Z</time>
      </trkpt>
      <trkpt lat="42.06821" lon="0.67361">
        <ele>500.608</ele>
        <time>2014-11-16T09:30:39Z</time>
      </trkpt>
      <trkpt lat="42.06821" lon="0.67362">
        <ele>500.108</ele>
        <time>2014-11-16T09:30:38Z</time>
      </trkpt>
      <trkpt lat="42.06821" lon="0.67364">
        <ele>499.564</ele>
        <time>2014-11-16T09:30:36Z</time>
      </trkpt>
      <trkpt lat="42.0682" lon="0.67365">
        <ele>499.193</ele>
        <time>2014-11-16T09:30:33Z</time>
      </trkpt>
      <trkpt lat="42.0682" lon="0.67367">
        <ele>498.334</ele>
        <time>2014-11-16T09:30:32Z</time>
      </trkpt>
      <trkpt lat="42.06819" lon="0.6737">
        <ele>497.576</ele>
        <time>2014-11-16T09:30:31Z</time>
      </trkpt>
      <trkpt lat="42.06818" lon="0.67372">
        <ele>496.979</ele>
        <time>2014-11-16T09:30:28Z</time>
      </trkpt>
      <trkpt lat="42.06817" lon="0.67374">
        <ele>496.42</ele>
        <time>2014-11-16T09:30:27Z</time>
      </trkpt>
      <trkpt lat="42.06817" lon="0.67376">
        <ele>495.717</ele>
        <time>2014-11-16T09:30:25Z</time>
      </trkpt>
      <trkpt lat="42.06816" lon="0.67378">
        <ele>495.371</ele>
        <time>2014-11-16T09:30:23Z</time>
      </trkpt>
      <trkpt lat="42.06816" lon="0.67379">
        <ele>494.932</ele>
        <time>2014-11-16T09:30:22Z</time>
      </trkpt>
      <trkpt lat="42.06815" lon="0.67381">
        <ele>494.592</ele>
        <time>2014-11-16T09:30:21Z</time>
      </trkpt>
      <trkpt lat="42.06814" lon="0.67384">
        <ele>493.811</ele>
        <time>2014-11-16T09:30:19Z</time>
      </trkpt>
      <trkpt lat="42.06813" lon="0.67385">
        <ele>493.508</ele>
        <time>2014-11-16T09:30:18Z</time>
      </trkpt>
      <trkpt lat="42.06811" lon="0.67386">
        <ele>493.555</ele>
        <time>2014-11-16T09:30:17Z</time>
      </trkpt>
      <trkpt lat="42.0681" lon="0.67389">
        <ele>493.074</ele>
        <time>2014-11-16T09:30:15Z</time>
      </trkpt>
      <trkpt lat="42.06809" lon="0.67391">
        <ele>494.975</ele>
        <time>2014-11-16T09:30:12Z</time>
      </trkpt>
      <trkpt lat="42.06809" lon="0.67393">
        <ele>495.927</ele>
        <time>2014-11-16T09:30:11Z</time>
      </trkpt>
      <trkpt lat="42.06809" lon="0.67394">
        <ele>496.97</ele>
        <time>2014-11-16T09:30:10Z</time>
      </trkpt>
      <trkpt lat="42.06809" lon="0.67395">
        <ele>498.061</ele>
        <time>2014-11-16T09:30:08Z</time>
      </trkpt>
      <trkpt lat="42.0681" lon="0.67397">
        <ele>498.878</ele>
        <time>2014-11-16T09:30:02Z</time>
      </trkpt>
      <trkpt lat="42.0681" lon="0.67398">
        <ele>499.922</ele>
        <time>2014-11-16T09:30:00Z</time>
      </trkpt>
      <trkpt lat="42.06808" lon="0.67401">
        <ele>502.727</ele>
        <time>2014-11-16T09:29:58Z</time>
      </trkpt>
      <trkpt lat="42.06807" lon="0.67403">
        <ele>504.068</ele>
        <time>2014-11-16T09:29:57Z</time>
      </trkpt>
      <trkpt lat="42.06807" lon="0.67403">
        <ele>505.014</ele>
        <time>2014-11-16T09:29:56Z</time>
      </trkpt>
      <trkpt lat="42.06806" lon="0.67404">
        <ele>506.008</ele>
        <time>2014-11-16T09:29:55Z</time>
      </trkpt>
      <trkpt lat="42.06805" lon="0.67406">
        <ele>507.114</ele>
        <time>2014-11-16T09:29:53Z</time>
      </trkpt>
      <trkpt lat="42.06803" lon="0.67406">
        <ele>507.283</ele>
        <time>2014-11-16T09:29:50Z</time>
      </trkpt>
      <trkpt lat="42.06804" lon="0.67408">
        <ele>508.624</ele>
        <time>2014-11-16T09:29:49Z</time>
      </trkpt>
      <trkpt lat="42.06804" lon="0.6741">
        <ele>510.256</ele>
        <time>2014-11-16T09:29:48Z</time>
      </trkpt>
      <trkpt lat="42.06803" lon="0.67411">
        <ele>511.069</ele>
        <time>2014-11-16T09:29:47Z</time>
      </trkpt>
      <trkpt lat="42.06801" lon="0.67413">
        <ele>512.06</ele>
        <time>2014-11-16T09:29:45Z</time>
      </trkpt>
      <trkpt lat="42.06801" lon="0.67414">
        <ele>512.887</ele>
        <time>2014-11-16T09:29:43Z</time>
      </trkpt>
      <trkpt lat="42.068" lon="0.67415">
        <ele>514.081</ele>
        <time>2014-11-16T09:29:41Z</time>
      </trkpt>
      <trkpt lat="42.06801" lon="0.67417">
        <ele>515.149</ele>
        <time>2014-11-16T09:29:25Z</time>
      </trkpt>
      <trkpt lat="42.06802" lon="0.67416">
        <ele>514.802</ele>
        <time>2014-11-16T09:29:23Z</time>
      </trkpt>
      <trkpt lat="42.06801" lon="0.67414">
        <ele>512.922</ele>
        <time>2014-11-16T09:29:21Z</time>
      </trkpt>
      <trkpt lat="42.06801" lon="0.67413">
        <ele>511.708</ele>
        <time>2014-11-16T09:29:20Z</time>
      </trkpt>
      <trkpt lat="42.068" lon="0.67412">
        <ele>510.916</ele>
        <time>2014-11-16T09:29:19Z</time>
      </trkpt>
      <trkpt lat="42.06798" lon="0.67409">
        <ele>508.675</ele>
        <time>2014-11-16T09:29:17Z</time>
      </trkpt>
      <trkpt lat="42.06797" lon="0.67407">
        <ele>506.376</ele>
        <time>2014-11-16T09:29:15Z</time>
      </trkpt>
      <trkpt lat="42.06797" lon="0.67406">
        <ele>505.798</ele>
        <time>2014-11-16T09:29:13Z</time>
      </trkpt>
      <trkpt lat="42.06795" lon="0.67407">
        <ele>506.431</ele>
        <time>2014-11-16T09:29:10Z</time>
      </trkpt>
      <trkpt lat="42.06794" lon="0.67409">
        <ele>507.382</ele>
        <time>2014-11-16T09:29:09Z</time>
      </trkpt>
      <trkpt lat="42.06794" lon="0.6741">
        <ele>508.389</ele>
        <time>2014-11-16T09:29:08Z</time>
      </trkpt>
      <trkpt lat="42.06794" lon="0.67411">
        <ele>509.523</ele>
        <time>2014-11-16T09:29:07Z</time>
      </trkpt>
      <trkpt lat="42.06794" lon="0.67413">
        <ele>510.579</ele>
        <time>2014-11-16T09:29:06Z</time>
      </trkpt>
      <trkpt lat="42.06793" lon="0.67415">
        <ele>512.305</ele>
        <time>2014-11-16T09:29:04Z</time>
      </trkpt>
      <trkpt lat="42.06793" lon="0.67416">
        <ele>513.425</ele>
        <time>2014-11-16T09:29:03Z</time>
      </trkpt>
      <trkpt lat="42.06793" lon="0.67418">
        <ele>514.008</ele>
        <time>2014-11-16T09:29:01Z</time>
      </trkpt>
      <trkpt lat="42.06792" lon="0.67419">
        <ele>514.319</ele>
        <time>2014-11-16T09:29:00Z</time>
      </trkpt>
      <trkpt lat="42.06792" lon="0.67421">
        <ele>514.718</ele>
        <time>2014-11-16T09:28:58Z</time>
      </trkpt>
      <trkpt lat="42.06791" lon="0.67421">
        <ele>514.839</ele>
        <time>2014-11-16T09:28:57Z</time>
      </trkpt>
      <trkpt lat="42.0679" lon="0.67422">
        <ele>514.981</ele>
        <time>2014-11-16T09:28:55Z</time>
      </trkpt>
      <trkpt lat="42.06789" lon="0.67424">
        <ele>515.564</ele>
        <time>2014-11-16T09:28:53Z</time>
      </trkpt>
      <trkpt lat="42.06788" lon="0.67425">
        <ele>516.285</ele>
        <time>2014-11-16T09:28:50Z</time>
      </trkpt>
      <trkpt lat="42.06787" lon="0.67428">
        <ele>517.042</ele>
        <time>2014-11-16T09:28:48Z</time>
      </trkpt>
      <trkpt lat="42.06787" lon="0.67429">
        <ele>517.516</ele>
        <time>2014-11-16T09:28:47Z</time>
      </trkpt>
      <trkpt lat="42.06788" lon="0.67432">
        <ele>518.743</ele>
        <time>2014-11-16T09:28:44Z</time>
      </trkpt>
      <trkpt lat="42.06788" lon="0.67434">
        <ele>519.464</ele>
        <time>2014-11-16T09:28:43Z</time>
      </trkpt>
      <trkpt lat="42.06788" lon="0.67436">
        <ele>520.31</ele>
        <time>2014-11-16T09:28:42Z</time>
      </trkpt>
      <trkpt lat="42.06787" lon="0.67438">
        <ele>521.208</ele>
        <time>2014-11-16T09:28:41Z</time>
      </trkpt>
      <trkpt lat="42.06787" lon="0.67441">
        <ele>522.486</ele>
        <time>2014-11-16T09:28:39Z</time>
      </trkpt>
      <trkpt lat="42.06788" lon="0.67443">
        <ele>522.875</ele>
        <time>2014-11-16T09:28:37Z</time>
      </trkpt>
      <trkpt lat="42.06787" lon="0.67444">
        <ele>523.426</ele>
        <time>2014-11-16T09:28:36Z</time>
      </trkpt>
      <trkpt lat="42.06787" lon="0.67446">
        <ele>523.538</ele>
        <time>2014-11-16T09:28:35Z</time>
      </trkpt>
      <trkpt lat="42.06786" lon="0.67452">
        <ele>523.981</ele>
        <time>2014-11-16T09:28:33Z</time>
      </trkpt>
      <trkpt lat="42.06786" lon="0.67455">
        <ele>523.952</ele>
        <time>2014-11-16T09:28:31Z</time>
      </trkpt>
      <trkpt lat="42.06786" lon="0.67457">
        <ele>523.829</ele>
        <time>2014-11-16T09:28:29Z</time>
      </trkpt>
      <trkpt lat="42.06786" lon="0.67458">
        <ele>523.653</ele>
        <time>2014-11-16T09:28:28Z</time>
      </trkpt>
      <trkpt lat="42.06786" lon="0.6746">
        <ele>523.663</ele>
        <time>2014-11-16T09:28:27Z</time>
      </trkpt>
      <trkpt lat="42.06786" lon="0.67462">
        <ele>523.644</ele>
        <time>2014-11-16T09:28:26Z</time>
      </trkpt>
      <trkpt lat="42.06786" lon="0.67463">
        <ele>523.518</ele>
        <time>2014-11-16T09:28:25Z</time>
      </trkpt>
      <trkpt lat="42.06787" lon="0.67463">
        <ele>523.308</ele>
        <time>2014-11-16T09:28:22Z</time>
      </trkpt>
      <trkpt lat="42.06787" lon="0.67461">
        <ele>523.298</ele>
        <time>2014-11-16T09:28:19Z</time>
      </trkpt>
      <trkpt lat="42.06788" lon="0.67459">
        <ele>523.147</ele>
        <time>2014-11-16T09:28:17Z</time>
      </trkpt>
      <trkpt lat="42.06787" lon="0.6746">
        <ele>523.418</ele>
        <time>2014-11-16T09:28:16Z</time>
      </trkpt>
      <trkpt lat="42.06786" lon="0.67463">
        <ele>523.67</ele>
        <time>2014-11-16T09:28:13Z</time>
      </trkpt>
      <trkpt lat="42.06785" lon="0.67464">
        <ele>523.853</ele>
        <time>2014-11-16T09:28:09Z</time>
      </trkpt>
      <trkpt lat="42.06784" lon="0.67465">
        <ele>524.054</ele>
        <time>2014-11-16T09:28:00Z</time>
      </trkpt>
      <trkpt lat="42.06784" lon="0.67465">
        <ele>523.921</ele>
        <time>2014-11-16T09:27:59Z</time>
      </trkpt>
      <trkpt lat="42.06786" lon="0.67463">
        <ele>523.515</ele>
        <time>2014-11-16T09:27:54Z</time>
      </trkpt>
      <trkpt lat="42.06786" lon="0.67461">
        <ele>523.653</ele>
        <time>2014-11-16T09:27:52Z</time>
      </trkpt>
      <trkpt lat="42.06785" lon="0.67461">
        <ele>523.904</ele>
        <time>2014-11-16T09:27:51Z</time>
      </trkpt>
      <trkpt lat="42.06785" lon="0.67459">
        <ele>524.014</ele>
        <time>2014-11-16T09:27:50Z</time>
      </trkpt>
      <trkpt lat="42.06785" lon="0.67456">
        <ele>524.108</ele>
        <time>2014-11-16T09:27:48Z</time>
      </trkpt>
      <trkpt lat="42.06785" lon="0.67454">
        <ele>524.067</ele>
        <time>2014-11-16T09:27:45Z</time>
      </trkpt>
      <trkpt lat="42.06784" lon="0.67455">
        <ele>524.426</ele>
        <time>2014-11-16T09:27:40Z</time>
      </trkpt>
      <trkpt lat="42.06784" lon="0.67453">
        <ele>524.347</ele>
        <time>2014-11-16T09:27:35Z</time>
      </trkpt>
      <trkpt lat="42.06785" lon="0.67458">
        <ele>524.039</ele>
        <time>2014-11-16T09:27:33Z</time>
      </trkpt>
      <trkpt lat="42.06785" lon="0.6746">
        <ele>523.832</ele>
        <time>2014-11-16T09:27:32Z</time>
      </trkpt>
      <trkpt lat="42.06785" lon="0.67463">
        <ele>523.823</ele>
        <time>2014-11-16T09:27:31Z</time>
      </trkpt>
      <trkpt lat="42.06785" lon="0.67468">
        <ele>523.68</ele>
        <time>2014-11-16T09:27:29Z</time>
      </trkpt>
      <trkpt lat="42.06785" lon="0.67471">
        <ele>523.574</ele>
        <time>2014-11-16T09:27:28Z</time>
      </trkpt>
      <trkpt lat="42.06785" lon="0.67472">
        <ele>523.587</ele>
        <time>2014-11-16T09:27:27Z</time>
      </trkpt>
      <trkpt lat="42.06784" lon="0.67473">
        <ele>523.942</ele>
        <time>2014-11-16T09:27:26Z</time>
      </trkpt>
      <trkpt lat="42.06785" lon="0.67475">
        <ele>524.226</ele>
        <time>2014-11-16T09:27:24Z</time>
      </trkpt>
      <trkpt lat="42.06785" lon="0.67476">
        <ele>524.408</ele>
        <time>2014-11-16T09:27:23Z</time>
      </trkpt>
      <trkpt lat="42.06787" lon="0.67477">
        <ele>524.37</ele>
        <time>2014-11-16T09:27:22Z</time>
      </trkpt>
      <trkpt lat="42.06788" lon="0.67478">
        <ele>524.229</ele>
        <time>2014-11-16T09:27:20Z</time>
      </trkpt>
      <trkpt lat="42.06789" lon="0.67479">
        <ele>524.29</ele>
        <time>2014-11-16T09:27:19Z</time>
      </trkpt>
      <trkpt lat="42.0679" lon="0.67481">
        <ele>524.562</ele>
        <time>2014-11-16T09:27:18Z</time>
      </trkpt>
      <trkpt lat="42.0679" lon="0.67483">
        <ele>525.055</ele>
        <time>2014-11-16T09:27:17Z</time>
      </trkpt>
      <trkpt lat="42.0679" lon="0.67486">
        <ele>525.616</ele>
        <time>2014-11-16T09:27:16Z</time>
      </trkpt>
      <trkpt lat="42.0679" lon="0.67489">
        <ele>526.583</ele>
        <time>2014-11-16T09:27:15Z</time>
      </trkpt>
      <trkpt lat="42.0679" lon="0.67492">
        <ele>526.927</ele>
        <time>2014-11-16T09:27:14Z</time>
      </trkpt>
      <trkpt lat="42.06791" lon="0.67494">
        <ele>527.268</ele>
        <time>2014-11-16T09:27:13Z</time>
      </trkpt>
      <trkpt lat="42.06793" lon="0.67498">
        <ele>527.742</ele>
        <time>2014-11-16T09:27:11Z</time>
      </trkpt>
      <trkpt lat="42.06794" lon="0.675">
        <ele>527.926</ele>
        <time>2014-11-16T09:27:10Z</time>
      </trkpt>
      <trkpt lat="42.06794" lon="0.67502">
        <ele>528.308</ele>
        <time>2014-11-16T09:27:09Z</time>
      </trkpt>
      <trkpt lat="42.06795" lon="0.67503">
        <ele>528.688</ele>
        <time>2014-11-16T09:27:08Z</time>
      </trkpt>
      <trkpt lat="42.06795" lon="0.67505">
        <ele>529.087</ele>
        <time>2014-11-16T09:27:07Z</time>
      </trkpt>
      <trkpt lat="42.06796" lon="0.67507">
        <ele>529.398</ele>
        <time>2014-11-16T09:27:06Z</time>
      </trkpt>
      <trkpt lat="42.06796" lon="0.67508">
        <ele>529.73</ele>
        <time>2014-11-16T09:27:05Z</time>
      </trkpt>
      <trkpt lat="42.06799" lon="0.67513">
        <ele>530.773</ele>
        <time>2014-11-16T09:27:02Z</time>
      </trkpt>
      <trkpt lat="42.068" lon="0.67515">
        <ele>530.994</ele>
        <time>2014-11-16T09:27:00Z</time>
      </trkpt>
      <trkpt lat="42.068" lon="0.67516">
        <ele>531.111</ele>
        <time>2014-11-16T09:26:59Z</time>
      </trkpt>
      <trkpt lat="42.06802" lon="0.67521">
        <ele>532.035</ele>
        <time>2014-11-16T09:26:57Z</time>
      </trkpt>
      <trkpt lat="42.06803" lon="0.67523">
        <ele>532.551</ele>
        <time>2014-11-16T09:26:56Z</time>
      </trkpt>
      <trkpt lat="42.06803" lon="0.67527">
        <ele>533.601</ele>
        <time>2014-11-16T09:26:52Z</time>
      </trkpt>
      <trkpt lat="42.06803" lon="0.67528">
        <ele>534.111</ele>
        <time>2014-11-16T09:26:51Z</time>
      </trkpt>
      <trkpt lat="42.06803" lon="0.6753">
        <ele>534.608</ele>
        <time>2014-11-16T09:26:50Z</time>
      </trkpt>
      <trkpt lat="42.06806" lon="0.67533">
        <ele>535.057</ele>
        <time>2014-11-16T09:26:48Z</time>
      </trkpt>
      <trkpt lat="42.06807" lon="0.67533">
        <ele>534.656</ele>
        <time>2014-11-16T09:26:45Z</time>
      </trkpt>
      <trkpt lat="42.06807" lon="0.67535">
        <ele>535.247</ele>
        <time>2014-11-16T09:26:43Z</time>
      </trkpt>
      <trkpt lat="42.06809" lon="0.67536">
        <ele>534.849</ele>
        <time>2014-11-16T09:26:42Z</time>
      </trkpt>
      <trkpt lat="42.06812" lon="0.67538">
        <ele>534.032</ele>
        <time>2014-11-16T09:26:40Z</time>
      </trkpt>
      <trkpt lat="42.06813" lon="0.67539">
        <ele>534.093</ele>
        <time>2014-11-16T09:26:39Z</time>
      </trkpt>
      <trkpt lat="42.06814" lon="0.67542">
        <ele>534.81</ele>
        <time>2014-11-16T09:26:38Z</time>
      </trkpt>
      <trkpt lat="42.06815" lon="0.67544">
        <ele>535.284</ele>
        <time>2014-11-16T09:26:37Z</time>
      </trkpt>
      <trkpt lat="42.06817" lon="0.67547">
        <ele>535.512</ele>
        <time>2014-11-16T09:26:36Z</time>
      </trkpt>
      <trkpt lat="42.06818" lon="0.67549">
        <ele>535.632</ele>
        <time>2014-11-16T09:26:35Z</time>
      </trkpt>
      <trkpt lat="42.0682" lon="0.67551">
        <ele>535.905</ele>
        <time>2014-11-16T09:26:34Z</time>
      </trkpt>
      <trkpt lat="42.06821" lon="0.67553">
        <ele>536.108</ele>
        <time>2014-11-16T09:26:33Z</time>
      </trkpt>
      <trkpt lat="42.06823" lon="0.67558">
        <ele>537.513</ele>
        <time>2014-11-16T09:26:32Z</time>
      </trkpt>
      <trkpt lat="42.06823" lon="0.67559">
        <ele>538.182</ele>
        <time>2014-11-16T09:26:30Z</time>
      </trkpt>
      <trkpt lat="42.06824" lon="0.67561">
        <ele>538.563</ele>
        <time>2014-11-16T09:26:29Z</time>
      </trkpt>
      <trkpt lat="42.06825" lon="0.67562">
        <ele>538.675</ele>
        <time>2014-11-16T09:26:28Z</time>
      </trkpt>
      <trkpt lat="42.06826" lon="0.67563">
        <ele>538.898</ele>
        <time>2014-11-16T09:26:27Z</time>
      </trkpt>
      <trkpt lat="42.06827" lon="0.67564">
        <ele>538.779</ele>
        <time>2014-11-16T09:26:26Z</time>
      </trkpt>
      <trkpt lat="42.06829" lon="0.67565">
        <ele>538.616</ele>
        <time>2014-11-16T09:26:25Z</time>
      </trkpt>
      <trkpt lat="42.06831" lon="0.67568">
        <ele>538.94</ele>
        <time>2014-11-16T09:26:23Z</time>
      </trkpt>
      <trkpt lat="42.06833" lon="0.67569">
        <ele>538.428</ele>
        <time>2014-11-16T09:26:21Z</time>
      </trkpt>
      <trkpt lat="42.06834" lon="0.6757">
        <ele>538.389</ele>
        <time>2014-11-16T09:26:20Z</time>
      </trkpt>
      <trkpt lat="42.06835" lon="0.67572">
        <ele>538.317</ele>
        <time>2014-11-16T09:26:14Z</time>
      </trkpt>
      <trkpt lat="42.06834" lon="0.67572">
        <ele>539.208</ele>
        <time>2014-11-16T09:26:12Z</time>
      </trkpt>
      <trkpt lat="42.06833" lon="0.67572">
        <ele>540.124</ele>
        <time>2014-11-16T09:26:10Z</time>
      </trkpt>
      <trkpt lat="42.06832" lon="0.67574">
        <ele>541.153</ele>
        <time>2014-11-16T09:26:09Z</time>
      </trkpt>
      <trkpt lat="42.06832" lon="0.67575">
        <ele>541.754</ele>
        <time>2014-11-16T09:26:07Z</time>
      </trkpt>
      <trkpt lat="42.06832" lon="0.67577">
        <ele>542.426</ele>
        <time>2014-11-16T09:26:06Z</time>
      </trkpt>
      <trkpt lat="42.06832" lon="0.67579">
        <ele>543.459</ele>
        <time>2014-11-16T09:26:05Z</time>
      </trkpt>
      <trkpt lat="42.06832" lon="0.67581">
        <ele>544.34</ele>
        <time>2014-11-16T09:26:04Z</time>
      </trkpt>
      <trkpt lat="42.06831" lon="0.67583">
        <ele>545.757</ele>
        <time>2014-11-16T09:26:03Z</time>
      </trkpt>
      <trkpt lat="42.06831" lon="0.67585">
        <ele>546.361</ele>
        <time>2014-11-16T09:26:02Z</time>
      </trkpt>
      <trkpt lat="42.06831" lon="0.67586">
        <ele>546.842</ele>
        <time>2014-11-16T09:26:01Z</time>
      </trkpt>
      <trkpt lat="42.0683" lon="0.67589">
        <ele>547.722</ele>
        <time>2014-11-16T09:25:59Z</time>
      </trkpt>
      <trkpt lat="42.06829" lon="0.67591">
        <ele>548.614</ele>
        <time>2014-11-16T09:25:57Z</time>
      </trkpt>
      <trkpt lat="42.06828" lon="0.67592">
        <ele>549.208</ele>
        <time>2014-11-16T09:25:56Z</time>
      </trkpt>
      <trkpt lat="42.06826" lon="0.67593">
        <ele>550.646</ele>
        <time>2014-11-16T09:25:53Z</time>
      </trkpt>
      <trkpt lat="42.06826" lon="0.67595">
        <ele>550.945</ele>
        <time>2014-11-16T09:25:52Z</time>
      </trkpt>
      <trkpt lat="42.06827" lon="0.67597">
        <ele>551.536</ele>
        <time>2014-11-16T09:25:50Z</time>
      </trkpt>
      <trkpt lat="42.06826" lon="0.67599">
        <ele>552.428</ele>
        <time>2014-11-16T09:25:48Z</time>
      </trkpt>
      <trkpt lat="42.06825" lon="0.67602">
        <ele>553.961</ele>
        <time>2014-11-16T09:25:46Z</time>
      </trkpt>
      <trkpt lat="42.06825" lon="0.67604">
        <ele>554.492</ele>
        <time>2014-11-16T09:25:45Z</time>
      </trkpt>
      <trkpt lat="42.06824" lon="0.67606">
        <ele>555.329</ele>
        <time>2014-11-16T09:25:43Z</time>
      </trkpt>
      <trkpt lat="42.06824" lon="0.67608">
        <ele>556.033</ele>
        <time>2014-11-16T09:25:42Z</time>
      </trkpt>
      <trkpt lat="42.06823" lon="0.67609">
        <ele>556.725</ele>
        <time>2014-11-16T09:25:41Z</time>
      </trkpt>
      <trkpt lat="42.06824" lon="0.67612">
        <ele>556.726</ele>
        <time>2014-11-16T09:25:39Z</time>
      </trkpt>
      <trkpt lat="42.06825" lon="0.67614">
        <ele>556.908</ele>
        <time>2014-11-16T09:25:38Z</time>
      </trkpt>
      <trkpt lat="42.06826" lon="0.67616">
        <ele>556.808</ele>
        <time>2014-11-16T09:25:36Z</time>
      </trkpt>
      <trkpt lat="42.06826" lon="0.67618">
        <ele>556.914</ele>
        <time>2014-11-16T09:25:34Z</time>
      </trkpt>
      <trkpt lat="42.06826" lon="0.6762">
        <ele>557.363</ele>
        <time>2014-11-16T09:25:33Z</time>
      </trkpt>
      <trkpt lat="42.06826" lon="0.67623">
        <ele>557.984</ele>
        <time>2014-11-16T09:25:32Z</time>
      </trkpt>
      <trkpt lat="42.06827" lon="0.67625">
        <ele>558.026</ele>
        <time>2014-11-16T09:25:30Z</time>
      </trkpt>
      <trkpt lat="42.06827" lon="0.67626">
        <ele>558.689</ele>
        <time>2014-11-16T09:25:29Z</time>
      </trkpt>
      <trkpt lat="42.06828" lon="0.6763">
        <ele>558.71</ele>
        <time>2014-11-16T09:25:27Z</time>
      </trkpt>
      <trkpt lat="42.06829" lon="0.67631">
        <ele>558.447</ele>
        <time>2014-11-16T09:25:25Z</time>
      </trkpt>
      <trkpt lat="42.06828" lon="0.67632">
        <ele>558.971</ele>
        <time>2014-11-16T09:25:24Z</time>
      </trkpt>
      <trkpt lat="42.06829" lon="0.67634">
        <ele>559.494</ele>
        <time>2014-11-16T09:25:23Z</time>
      </trkpt>
      <trkpt lat="42.0683" lon="0.67636">
        <ele>558.957</ele>
        <time>2014-11-16T09:25:22Z</time>
      </trkpt>
      <trkpt lat="42.06831" lon="0.67638">
        <ele>558.522</ele>
        <time>2014-11-16T09:25:21Z</time>
      </trkpt>
      <trkpt lat="42.06832" lon="0.67639">
        <ele>558.308</ele>
        <time>2014-11-16T09:25:20Z</time>
      </trkpt>
      <trkpt lat="42.06832" lon="0.67641">
        <ele>558.651</ele>
        <time>2014-11-16T09:25:19Z</time>
      </trkpt>
      <trkpt lat="42.06834" lon="0.67642">
        <ele>558.24</ele>
        <time>2014-11-16T09:25:18Z</time>
      </trkpt>
      <trkpt lat="42.06836" lon="0.67644">
        <ele>558.421</ele>
        <time>2014-11-16T09:25:16Z</time>
      </trkpt>
      <trkpt lat="42.06836" lon="0.67646">
        <ele>558.613</ele>
        <time>2014-11-16T09:25:15Z</time>
      </trkpt>
      <trkpt lat="42.06837" lon="0.67647">
        <ele>558.996</ele>
        <time>2014-11-16T09:25:14Z</time>
      </trkpt>
      <trkpt lat="42.06838" lon="0.67649">
        <ele>559.377</ele>
        <time>2014-11-16T09:25:13Z</time>
      </trkpt>
      <trkpt lat="42.06839" lon="0.67651">
        <ele>559.974</ele>
        <time>2014-11-16T09:25:12Z</time>
      </trkpt>
      <trkpt lat="42.06839" lon="0.67654">
        <ele>560.568</ele>
        <time>2014-11-16T09:25:11Z</time>
      </trkpt>
      <trkpt lat="42.06841" lon="0.67658">
        <ele>561.695</ele>
        <time>2014-11-16T09:25:09Z</time>
      </trkpt>
      <trkpt lat="42.06842" lon="0.67661">
        <ele>562.649</ele>
        <time>2014-11-16T09:25:06Z</time>
      </trkpt>
      <trkpt lat="42.06842" lon="0.67663">
        <ele>563.623</ele>
        <time>2014-11-16T09:25:04Z</time>
      </trkpt>
      <trkpt lat="42.06842" lon="0.67666">
        <ele>565.208</ele>
        <time>2014-11-16T09:25:02Z</time>
      </trkpt>
      <trkpt lat="42.06841" lon="0.6767">
        <ele>567.481</ele>
        <time>2014-11-16T09:25:00Z</time>
      </trkpt>
      <trkpt lat="42.06842" lon="0.67672">
        <ele>568.04</ele>
        <time>2014-11-16T09:24:59Z</time>
      </trkpt>
      <trkpt lat="42.06843" lon="0.67673">
        <ele>567.461</ele>
        <time>2014-11-16T09:24:58Z</time>
      </trkpt>
      <trkpt lat="42.06845" lon="0.67674">
        <ele>567.813</ele>
        <time>2014-11-16T09:24:56Z</time>
      </trkpt>
      <trkpt lat="42.06846" lon="0.67674">
        <ele>567.336</ele>
        <time>2014-11-16T09:24:54Z</time>
      </trkpt>
      <trkpt lat="42.06847" lon="0.67676">
        <ele>567.517</ele>
        <time>2014-11-16T09:24:53Z</time>
      </trkpt>
      <trkpt lat="42.0685" lon="0.67681">
        <ele>568.714</ele>
        <time>2014-11-16T09:24:51Z</time>
      </trkpt>
      <trkpt lat="42.06851" lon="0.67683">
        <ele>569.358</ele>
        <time>2014-11-16T09:24:50Z</time>
      </trkpt>
      <trkpt lat="42.06853" lon="0.67686">
        <ele>570.248</ele>
        <time>2014-11-16T09:24:48Z</time>
      </trkpt>
      <trkpt lat="42.06854" lon="0.67689">
        <ele>570.761</ele>
        <time>2014-11-16T09:24:47Z</time>
      </trkpt>
      <trkpt lat="42.06856" lon="0.67693">
        <ele>572.517</ele>
        <time>2014-11-16T09:24:45Z</time>
      </trkpt>
      <trkpt lat="42.06857" lon="0.67696">
        <ele>573.408</ele>
        <time>2014-11-16T09:24:44Z</time>
      </trkpt>
      <trkpt lat="42.06857" lon="0.67699">
        <ele>574.416</ele>
        <time>2014-11-16T09:24:43Z</time>
      </trkpt>
      <trkpt lat="42.06859" lon="0.67704">
        <ele>576.055</ele>
        <time>2014-11-16T09:24:41Z</time>
      </trkpt>
      <trkpt lat="42.0686" lon="0.67706">
        <ele>576.536</ele>
        <time>2014-11-16T09:24:40Z</time>
      </trkpt>
      <trkpt lat="42.06862" lon="0.67712">
        <ele>577.918</ele>
        <time>2014-11-16T09:24:38Z</time>
      </trkpt>
      <trkpt lat="42.06865" lon="0.67717">
        <ele>578.871</ele>
        <time>2014-11-16T09:24:36Z</time>
      </trkpt>
      <trkpt lat="42.06866" lon="0.6772">
        <ele>579.252</ele>
        <time>2014-11-16T09:24:35Z</time>
      </trkpt>
      <trkpt lat="42.06868" lon="0.67725">
        <ele>580.519</ele>
        <time>2014-11-16T09:24:33Z</time>
      </trkpt>
      <trkpt lat="42.06869" lon="0.67727">
        <ele>580.813</ele>
        <time>2014-11-16T09:24:32Z</time>
      </trkpt>
      <trkpt lat="42.0687" lon="0.67729">
        <ele>581.254</ele>
        <time>2014-11-16T09:24:31Z</time>
      </trkpt>
      <trkpt lat="42.0687" lon="0.67732">
        <ele>581.956</ele>
        <time>2014-11-16T09:24:30Z</time>
      </trkpt>
      <trkpt lat="42.06872" lon="0.67735">
        <ele>582.511</ele>
        <time>2014-11-16T09:24:29Z</time>
      </trkpt>
      <trkpt lat="42.06873" lon="0.67741">
        <ele>584.308</ele>
        <time>2014-11-16T09:24:27Z</time>
      </trkpt>
      <trkpt lat="42.06873" lon="0.67744">
        <ele>585.347</ele>
        <time>2014-11-16T09:24:26Z</time>
      </trkpt>
      <trkpt lat="42.06873" lon="0.67745">
        <ele>585.796</ele>
        <time>2014-11-16T09:24:25Z</time>
      </trkpt>
      <trkpt lat="42.06874" lon="0.67747">
        <ele>586.127</ele>
        <time>2014-11-16T09:24:24Z</time>
      </trkpt>
      <trkpt lat="42.06874" lon="0.67749">
        <ele>586.629</ele>
        <time>2014-11-16T09:24:23Z</time>
      </trkpt>
      <trkpt lat="42.06874" lon="0.6775">
        <ele>587.192</ele>
        <time>2014-11-16T09:24:22Z</time>
      </trkpt>
      <trkpt lat="42.06875" lon="0.67752">
        <ele>587.163</ele>
        <time>2014-11-16T09:24:21Z</time>
      </trkpt>
      <trkpt lat="42.06876" lon="0.67753">
        <ele>586.87</ele>
        <time>2014-11-16T09:24:20Z</time>
      </trkpt>
      <trkpt lat="42.06877" lon="0.67754">
        <ele>586.494</ele>
        <time>2014-11-16T09:24:19Z</time>
      </trkpt>
      <trkpt lat="42.06877" lon="0.67757">
        <ele>587.589</ele>
        <time>2014-11-16T09:24:18Z</time>
      </trkpt>
      <trkpt lat="42.06878" lon="0.6776">
        <ele>587.606</ele>
        <time>2014-11-16T09:24:16Z</time>
      </trkpt>
      <trkpt lat="42.06878" lon="0.67762">
        <ele>587.826</ele>
        <time>2014-11-16T09:24:15Z</time>
      </trkpt>
      <trkpt lat="42.0688" lon="0.67763">
        <ele>587.208</ele>
        <time>2014-11-16T09:24:13Z</time>
      </trkpt>
      <trkpt lat="42.06881" lon="0.67764">
        <ele>586.84</ele>
        <time>2014-11-16T09:24:12Z</time>
      </trkpt>
      <trkpt lat="42.06882" lon="0.67765">
        <ele>586.879</ele>
        <time>2014-11-16T09:24:10Z</time>
      </trkpt>
      <trkpt lat="42.06882" lon="0.67767">
        <ele>587.29</ele>
        <time>2014-11-16T09:24:09Z</time>
      </trkpt>
      <trkpt lat="42.06882" lon="0.67769">
        <ele>587.782</ele>
        <time>2014-11-16T09:24:08Z</time>
      </trkpt>
      <trkpt lat="42.06882" lon="0.67771">
        <ele>588.385</ele>
        <time>2014-11-16T09:24:07Z</time>
      </trkpt>
      <trkpt lat="42.06882" lon="0.67773">
        <ele>588.856</ele>
        <time>2014-11-16T09:24:05Z</time>
      </trkpt>
      <trkpt lat="42.06884" lon="0.67774">
        <ele>588.153</ele>
        <time>2014-11-16T09:24:03Z</time>
      </trkpt>
      <trkpt lat="42.06884" lon="0.67775">
        <ele>588.277</ele>
        <time>2014-11-16T09:24:02Z</time>
      </trkpt>
      <trkpt lat="42.06885" lon="0.67776">
        <ele>587.842</ele>
        <time>2014-11-16T09:24:00Z</time>
      </trkpt>
      <trkpt lat="42.06885" lon="0.67777">
        <ele>588.222</ele>
        <time>2014-11-16T09:23:59Z</time>
      </trkpt>
      <trkpt lat="42.06885" lon="0.67779">
        <ele>589.014</ele>
        <time>2014-11-16T09:23:58Z</time>
      </trkpt>
      <trkpt lat="42.06886" lon="0.67782">
        <ele>589.308</ele>
        <time>2014-11-16T09:23:52Z</time>
      </trkpt>
      <trkpt lat="42.06886" lon="0.67786">
        <ele>590.636</ele>
        <time>2014-11-16T09:23:51Z</time>
      </trkpt>
      <trkpt lat="42.06889" lon="0.6779">
        <ele>590.315</ele>
        <time>2014-11-16T09:23:48Z</time>
      </trkpt>
      <trkpt lat="42.06891" lon="0.67791">
        <ele>589.916</ele>
        <time>2014-11-16T09:23:47Z</time>
      </trkpt>
      <trkpt lat="42.06893" lon="0.67792">
        <ele>589.398</ele>
        <time>2014-11-16T09:23:46Z</time>
      </trkpt>
      <trkpt lat="42.06895" lon="0.67795">
        <ele>588.881</ele>
        <time>2014-11-16T09:23:44Z</time>
      </trkpt>
      <trkpt lat="42.06896" lon="0.67796">
        <ele>589.022</ele>
        <time>2014-11-16T09:23:43Z</time>
      </trkpt>
      <trkpt lat="42.06897" lon="0.67797">
        <ele>589.059</ele>
        <time>2014-11-16T09:23:41Z</time>
      </trkpt>
      <trkpt lat="42.06898" lon="0.67797">
        <ele>588.473</ele>
        <time>2014-11-16T09:23:39Z</time>
      </trkpt>
      <trkpt lat="42.06899" lon="0.67798">
        <ele>588.081</ele>
        <time>2014-11-16T09:23:38Z</time>
      </trkpt>
      <trkpt lat="42.06902" lon="0.678">
        <ele>587.461</ele>
        <time>2014-11-16T09:23:36Z</time>
      </trkpt>
      <trkpt lat="42.06903" lon="0.678">
        <ele>587.217</ele>
        <time>2014-11-16T09:23:35Z</time>
      </trkpt>
      <trkpt lat="42.06904" lon="0.67802">
        <ele>587.008</ele>
        <time>2014-11-16T09:23:33Z</time>
      </trkpt>
      <trkpt lat="42.06906" lon="0.67802">
        <ele>586.29</ele>
        <time>2014-11-16T09:23:32Z</time>
      </trkpt>
      <trkpt lat="42.06908" lon="0.67803">
        <ele>585.779</ele>
        <time>2014-11-16T09:23:30Z</time>
      </trkpt>
      <trkpt lat="42.06909" lon="0.67805">
        <ele>585.65</ele>
        <time>2014-11-16T09:23:26Z</time>
      </trkpt>
      <trkpt lat="42.0691" lon="0.67807">
        <ele>586.032</ele>
        <time>2014-11-16T09:23:24Z</time>
      </trkpt>
      <trkpt lat="42.0691" lon="0.67808">
        <ele>586.475</ele>
        <time>2014-11-16T09:23:23Z</time>
      </trkpt>
      <trkpt lat="42.06912" lon="0.6781">
        <ele>586.366</ele>
        <time>2014-11-16T09:23:21Z</time>
      </trkpt>
      <trkpt lat="42.06913" lon="0.67811">
        <ele>585.983</ele>
        <time>2014-11-16T09:23:20Z</time>
      </trkpt>
      <trkpt lat="42.06914" lon="0.67811">
        <ele>585.157</ele>
        <time>2014-11-16T09:23:18Z</time>
      </trkpt>
      <trkpt lat="42.06916" lon="0.67812">
        <ele>585.177</ele>
        <time>2014-11-16T09:23:16Z</time>
      </trkpt>
      <trkpt lat="42.06917" lon="0.67813">
        <ele>584.761</ele>
        <time>2014-11-16T09:23:11Z</time>
      </trkpt>
      <trkpt lat="42.06919" lon="0.67813">
        <ele>584.327</ele>
        <time>2014-11-16T09:23:08Z</time>
      </trkpt>
      <trkpt lat="42.06919" lon="0.67814">
        <ele>584.308</ele>
        <time>2014-11-16T09:23:04Z</time>
      </trkpt>
      <trkpt lat="42.0692" lon="0.67815">
        <ele>584.839</ele>
        <time>2014-11-16T09:23:03Z</time>
      </trkpt>
      <trkpt lat="42.0692" lon="0.67817">
        <ele>585.568</ele>
        <time>2014-11-16T09:23:02Z</time>
      </trkpt>
      <trkpt lat="42.06921" lon="0.67818">
        <ele>585.789</ele>
        <time>2014-11-16T09:23:00Z</time>
      </trkpt>
      <trkpt lat="42.06924" lon="0.6782">
        <ele>585.411</ele>
        <time>2014-11-16T09:22:58Z</time>
      </trkpt>
      <trkpt lat="42.06925" lon="0.67821">
        <ele>585.354</ele>
        <time>2014-11-16T09:22:57Z</time>
      </trkpt>
      <trkpt lat="42.06927" lon="0.67822">
        <ele>585.115</ele>
        <time>2014-11-16T09:22:56Z</time>
      </trkpt>
      <trkpt lat="42.06929" lon="0.67823">
        <ele>585.152</ele>
        <time>2014-11-16T09:22:55Z</time>
      </trkpt>
      <trkpt lat="42.0693" lon="0.67824">
        <ele>585.266</ele>
        <time>2014-11-16T09:22:54Z</time>
      </trkpt>
      <trkpt lat="42.06932" lon="0.67825">
        <ele>585.453</ele>
        <time>2014-11-16T09:22:53Z</time>
      </trkpt>
      <trkpt lat="42.06934" lon="0.67827">
        <ele>585.504</ele>
        <time>2014-11-16T09:22:52Z</time>
      </trkpt>
      <trkpt lat="42.06938" lon="0.67827">
        <ele>584.614</ele>
        <time>2014-11-16T09:22:50Z</time>
      </trkpt>
      <trkpt lat="42.0694" lon="0.67828">
        <ele>584.208</ele>
        <time>2014-11-16T09:22:49Z</time>
      </trkpt>
      <trkpt lat="42.06942" lon="0.67828">
        <ele>583.967</ele>
        <time>2014-11-16T09:22:48Z</time>
      </trkpt>
      <trkpt lat="42.06944" lon="0.67829">
        <ele>583.746</ele>
        <time>2014-11-16T09:22:47Z</time>
      </trkpt>
      <trkpt lat="42.06945" lon="0.67828">
        <ele>583.267</ele>
        <time>2014-11-16T09:22:46Z</time>
      </trkpt>
      <trkpt lat="42.06946" lon="0.67829">
        <ele>583.179</ele>
        <time>2014-11-16T09:22:45Z</time>
      </trkpt>
      <trkpt lat="42.06948" lon="0.6783">
        <ele>583.122</ele>
        <time>2014-11-16T09:22:44Z</time>
      </trkpt>
      <trkpt lat="42.06952" lon="0.67834">
        <ele>583.623</ele>
        <time>2014-11-16T09:22:42Z</time>
      </trkpt>
      <trkpt lat="42.06955" lon="0.67837">
        <ele>584.03</ele>
        <time>2014-11-16T09:22:41Z</time>
      </trkpt>
      <trkpt lat="42.06957" lon="0.67838">
        <ele>584.154</ele>
        <time>2014-11-16T09:22:40Z</time>
      </trkpt>
      <trkpt lat="42.06958" lon="0.67839">
        <ele>584.284</ele>
        <time>2014-11-16T09:22:39Z</time>
      </trkpt>
      <trkpt lat="42.06959" lon="0.67841">
        <ele>584.507</ele>
        <time>2014-11-16T09:22:38Z</time>
      </trkpt>
      <trkpt lat="42.06961" lon="0.67843">
        <ele>585.017</ele>
        <time>2014-11-16T09:22:37Z</time>
      </trkpt>
      <trkpt lat="42.06963" lon="0.67845">
        <ele>585.208</ele>
        <time>2014-11-16T09:22:36Z</time>
      </trkpt>
      <trkpt lat="42.06966" lon="0.67847">
        <ele>585.17</ele>
        <time>2014-11-16T09:22:34Z</time>
      </trkpt>
      <trkpt lat="42.06968" lon="0.67848">
        <ele>584.799</ele>
        <time>2014-11-16T09:22:33Z</time>
      </trkpt>
      <trkpt lat="42.0697" lon="0.67851">
        <ele>585.29</ele>
        <time>2014-11-16T09:22:31Z</time>
      </trkpt>
      <trkpt lat="42.06972" lon="0.67853">
        <ele>585.492</ele>
        <time>2014-11-16T09:22:30Z</time>
      </trkpt>
      <trkpt lat="42.06973" lon="0.67854">
        <ele>585.685</ele>
        <time>2014-11-16T09:22:29Z</time>
      </trkpt>
      <trkpt lat="42.06975" lon="0.67856">
        <ele>585.946</ele>
        <time>2014-11-16T09:22:28Z</time>
      </trkpt>
      <trkpt lat="42.06976" lon="0.67857">
        <ele>585.763</ele>
        <time>2014-11-16T09:22:27Z</time>
      </trkpt>
      <trkpt lat="42.0698" lon="0.67856">
        <ele>584.417</ele>
        <time>2014-11-16T09:22:25Z</time>
      </trkpt>
      <trkpt lat="42.06983" lon="0.67855">
        <ele>583.274</ele>
        <time>2014-11-16T09:22:23Z</time>
      </trkpt>
      <trkpt lat="42.06985" lon="0.67856">
        <ele>583.056</ele>
        <time>2014-11-16T09:22:22Z</time>
      </trkpt>
      <trkpt lat="42.06989" lon="0.67858">
        <ele>583.221</ele>
        <time>2014-11-16T09:22:20Z</time>
      </trkpt>
      <trkpt lat="42.06991" lon="0.67859">
        <ele>582.908</ele>
        <time>2014-11-16T09:22:19Z</time>
      </trkpt>
      <trkpt lat="42.06993" lon="0.67858">
        <ele>582.219</ele>
        <time>2014-11-16T09:22:18Z</time>
      </trkpt>
      <trkpt lat="42.06996" lon="0.67857">
        <ele>580.498</ele>
        <time>2014-11-16T09:22:16Z</time>
      </trkpt>
      <trkpt lat="42.07" lon="0.67855">
        <ele>578.639</ele>
        <time>2014-11-16T09:22:14Z</time>
      </trkpt>
      <trkpt lat="42.07002" lon="0.67855">
        <ele>578.221</ele>
        <time>2014-11-16T09:22:13Z</time>
      </trkpt>
      <trkpt lat="42.07004" lon="0.67854">
        <ele>577.664</ele>
        <time>2014-11-16T09:22:12Z</time>
      </trkpt>
      <trkpt lat="42.07006" lon="0.67854">
        <ele>577.485</ele>
        <time>2014-11-16T09:22:11Z</time>
      </trkpt>
      <trkpt lat="42.07008" lon="0.67855">
        <ele>577.222</ele>
        <time>2014-11-16T09:22:10Z</time>
      </trkpt>
      <trkpt lat="42.0701" lon="0.67854">
        <ele>576.556</ele>
        <time>2014-11-16T09:22:09Z</time>
      </trkpt>
      <trkpt lat="42.07015" lon="0.67854">
        <ele>575.739</ele>
        <time>2014-11-16T09:22:08Z</time>
      </trkpt>
      <trkpt lat="42.07017" lon="0.67854">
        <ele>575.101</ele>
        <time>2014-11-16T09:22:06Z</time>
      </trkpt>
      <trkpt lat="42.07019" lon="0.67854">
        <ele>575.121</ele>
        <time>2014-11-16T09:22:05Z</time>
      </trkpt>
      <trkpt lat="42.07025" lon="0.67855">
        <ele>575.008</ele>
        <time>2014-11-16T09:22:03Z</time>
      </trkpt>
      <trkpt lat="42.07027" lon="0.67856">
        <ele>575.235</ele>
        <time>2014-11-16T09:22:02Z</time>
      </trkpt>
      <trkpt lat="42.07031" lon="0.67859">
        <ele>576.214</ele>
        <time>2014-11-16T09:22:00Z</time>
      </trkpt>
      <trkpt lat="42.07035" lon="0.67863">
        <ele>577.645</ele>
        <time>2014-11-16T09:21:58Z</time>
      </trkpt>
      <trkpt lat="42.07037" lon="0.67864">
        <ele>578.267</ele>
        <time>2014-11-16T09:21:57Z</time>
      </trkpt>
      <trkpt lat="42.07042" lon="0.67865">
        <ele>577.86</ele>
        <time>2014-11-16T09:21:55Z</time>
      </trkpt>
      <trkpt lat="42.07047" lon="0.67866">
        <ele>577.541</ele>
        <time>2014-11-16T09:21:53Z</time>
      </trkpt>
      <trkpt lat="42.07049" lon="0.67867">
        <ele>577.918</ele>
        <time>2014-11-16T09:21:52Z</time>
      </trkpt>
      <trkpt lat="42.07051" lon="0.67869">
        <ele>578.852</ele>
        <time>2014-11-16T09:21:50Z</time>
      </trkpt>
      <trkpt lat="42.07052" lon="0.6787">
        <ele>579.037</ele>
        <time>2014-11-16T09:21:49Z</time>
      </trkpt>
      <trkpt lat="42.07052" lon="0.67871">
        <ele>579.949</ele>
        <time>2014-11-16T09:21:47Z</time>
      </trkpt>
      <trkpt lat="42.07053" lon="0.67872">
        <ele>580.513</ele>
        <time>2014-11-16T09:21:46Z</time>
      </trkpt>
      <trkpt lat="42.07052" lon="0.67874">
        <ele>581.908</ele>
        <time>2014-11-16T09:21:45Z</time>
      </trkpt>
      <trkpt lat="42.0705" lon="0.67875">
        <ele>582.535</ele>
        <time>2014-11-16T09:21:44Z</time>
      </trkpt>
      <trkpt lat="42.07052" lon="0.67877">
        <ele>583.814</ele>
        <time>2014-11-16T09:21:42Z</time>
      </trkpt>
      <trkpt lat="42.07055" lon="0.67878">
        <ele>583.845</ele>
        <time>2014-11-16T09:21:41Z</time>
      </trkpt>
      <trkpt lat="42.07057" lon="0.6788">
        <ele>584.367</ele>
        <time>2014-11-16T09:21:40Z</time>
      </trkpt>
      <trkpt lat="42.07059" lon="0.67882">
        <ele>585.26</ele>
        <time>2014-11-16T09:21:39Z</time>
      </trkpt>
      <trkpt lat="42.07062" lon="0.67884">
        <ele>585.781</ele>
        <time>2014-11-16T09:21:38Z</time>
      </trkpt>
      <trkpt lat="42.07064" lon="0.67885">
        <ele>586.048</ele>
        <time>2014-11-16T09:21:37Z</time>
      </trkpt>
      <trkpt lat="42.07066" lon="0.67887">
        <ele>586.712</ele>
        <time>2014-11-16T09:21:36Z</time>
      </trkpt>
      <trkpt lat="42.07069" lon="0.6789">
        <ele>587.553</ele>
        <time>2014-11-16T09:21:35Z</time>
      </trkpt>
      <trkpt lat="42.07073" lon="0.67894">
        <ele>589.104</ele>
        <time>2014-11-16T09:21:33Z</time>
      </trkpt>
      <trkpt lat="42.07083" lon="0.67914">
        <ele>599.514</ele>
        <time>2017-11-28T15:25:44Z</time>
      </trkpt>
      <trkpt lat="42.07084" lon="0.67914">
        <ele>599.308</ele>
        <time>2017-11-28T15:26:04Z</time>
      </trkpt>
      <trkpt lat="42.07084" lon="0.67914">
        <ele>599.237</ele>
        <time>2014-12-27T11:00:44Z</time>
      </trkpt>
      <trkpt lat="42.07073" lon="0.67914">
        <ele>601.296</ele>
        <time>2014-12-27T11:00:37Z</time>
      </trkpt>
      <trkpt lat="42.07062" lon="0.67916">
        <ele>604.147</ele>
        <time>2014-12-27T11:00:30Z</time>
      </trkpt>
      <trkpt lat="42.07052" lon="0.67918">
        <ele>607.429</ele>
        <time>2014-12-27T11:00:21Z</time>
      </trkpt>
      <trkpt lat="42.07043" lon="0.6792">
        <ele>610.682</ele>
        <time>2014-12-27T11:00:15Z</time>
      </trkpt>
      <trkpt lat="42.07034" lon="0.67923">
        <ele>614.253</ele>
        <time>2014-12-27T11:00:08Z</time>
      </trkpt>
      <trkpt lat="42.07025" lon="0.67921">
        <ele>615.33</ele>
        <time>2014-12-27T11:00:04Z</time>
      </trkpt>
      <trkpt lat="42.07016" lon="0.67923">
        <ele>619.134</ele>
        <time>2014-12-27T10:59:58Z</time>
      </trkpt>
      <trkpt lat="42.07007" lon="0.67915">
        <ele>617.496</ele>
        <time>2014-12-27T10:59:51Z</time>
      </trkpt>
      <trkpt lat="42.06997" lon="0.67913">
        <ele>618.631</ele>
        <time>2014-12-27T10:59:46Z</time>
      </trkpt>
      <trkpt lat="42.06986" lon="0.67915">
        <ele>621.324</ele>
        <time>2014-12-27T10:59:39Z</time>
      </trkpt>
      <trkpt lat="42.06976" lon="0.67918">
        <ele>624.508</ele>
        <time>2014-12-27T10:59:32Z</time>
      </trkpt>
      <trkpt lat="42.06967" lon="0.67922">
        <ele>627.971</ele>
        <time>2014-12-27T10:59:24Z</time>
      </trkpt>
      <trkpt lat="42.06957" lon="0.67924">
        <ele>631.12</ele>
        <time>2014-12-27T10:59:16Z</time>
      </trkpt>
      <trkpt lat="42.06949" lon="0.67921">
        <ele>630.551</ele>
        <time>2014-12-27T10:59:08Z</time>
      </trkpt>
      <trkpt lat="42.06939" lon="0.67916">
        <ele>630.043</ele>
        <time>2014-12-27T10:59:03Z</time>
      </trkpt>
      <trkpt lat="42.06929" lon="0.6791">
        <ele>629.966</ele>
        <time>2014-12-27T10:58:56Z</time>
      </trkpt>
      <trkpt lat="42.06919" lon="0.67906">
        <ele>630.547</ele>
        <time>2014-12-27T10:58:49Z</time>
      </trkpt>
      <trkpt lat="42.06908" lon="0.67902">
        <ele>631.154</ele>
        <time>2014-12-27T10:58:40Z</time>
      </trkpt>
      <trkpt lat="42.06899" lon="0.67897">
        <ele>631.378</ele>
        <time>2014-12-27T10:58:35Z</time>
      </trkpt>
      <trkpt lat="42.06888" lon="0.67891">
        <ele>631.484</ele>
        <time>2014-12-27T10:58:30Z</time>
      </trkpt>
      <trkpt lat="42.0688" lon="0.67882">
        <ele>630.907</ele>
        <time>2014-12-27T10:58:26Z</time>
      </trkpt>
      <trkpt lat="42.06872" lon="0.67872">
        <ele>630.717</ele>
        <time>2014-12-27T10:58:22Z</time>
      </trkpt>
      <trkpt lat="42.06865" lon="0.67862">
        <ele>631.008</ele>
        <time>2014-12-27T10:58:18Z</time>
      </trkpt>
      <trkpt lat="42.06858" lon="0.67851">
        <ele>630.83</ele>
        <time>2014-12-27T10:58:14Z</time>
      </trkpt>
      <trkpt lat="42.06851" lon="0.67842">
        <ele>630.889</ele>
        <time>2014-12-27T10:58:11Z</time>
      </trkpt>
      <trkpt lat="42.06846" lon="0.67831">
        <ele>629.98</ele>
        <time>2014-12-27T10:58:07Z</time>
      </trkpt>
      <trkpt lat="42.06842" lon="0.67818">
        <ele>628.332</ele>
        <time>2014-12-27T10:58:02Z</time>
      </trkpt>
      <trkpt lat="42.06835" lon="0.67807">
        <ele>630.385</ele>
        <time>2014-12-27T10:57:58Z</time>
      </trkpt>
      <trkpt lat="42.06826" lon="0.67796">
        <ele>631.356</ele>
        <time>2014-12-27T10:57:53Z</time>
      </trkpt>
      <trkpt lat="42.06823" lon="0.67782">
        <ele>629.513</ele>
        <time>2014-12-27T10:57:43Z</time>
      </trkpt>
      <trkpt lat="42.06805" lon="0.67778">
        <ele>636.237</ele>
        <time>2014-12-27T10:57:16Z</time>
      </trkpt>
      <trkpt lat="42.06794" lon="0.67784">
        <ele>638.612</ele>
        <time>2014-12-27T10:57:10Z</time>
      </trkpt>
      <trkpt lat="42.06786" lon="0.67794">
        <ele>641.532</ele>
        <time>2014-12-27T10:57:05Z</time>
      </trkpt>
      <trkpt lat="42.06775" lon="0.67801">
        <ele>644.405</ele>
        <time>2014-12-27T10:57:00Z</time>
      </trkpt>
      <trkpt lat="42.06762" lon="0.67806">
        <ele>646.708</ele>
        <time>2014-12-27T10:56:54Z</time>
      </trkpt>
      <trkpt lat="42.06752" lon="0.67809">
        <ele>648.573</ele>
        <time>2014-12-27T10:56:48Z</time>
      </trkpt>
      <trkpt lat="42.0674" lon="0.67813">
        <ele>651.442</ele>
        <time>2014-12-27T10:56:42Z</time>
      </trkpt>
      <trkpt lat="42.06728" lon="0.67814">
        <ele>653.713</ele>
        <time>2014-12-27T10:56:35Z</time>
      </trkpt>
      <trkpt lat="42.06716" lon="0.67815">
        <ele>655.975</ele>
        <time>2014-12-27T10:56:29Z</time>
      </trkpt>
      <trkpt lat="42.06704" lon="0.67818">
        <ele>658.718</ele>
        <time>2014-12-27T10:56:23Z</time>
      </trkpt>
      <trkpt lat="42.06693" lon="0.67817">
        <ele>660.969</ele>
        <time>2014-12-27T10:56:17Z</time>
      </trkpt>
      <trkpt lat="42.06681" lon="0.67818">
        <ele>663.426</ele>
        <time>2014-12-27T10:56:11Z</time>
      </trkpt>
      <trkpt lat="42.06668" lon="0.67818">
        <ele>666.09</ele>
        <time>2014-12-27T10:56:05Z</time>
      </trkpt>
      <trkpt lat="42.06657" lon="0.67821">
        <ele>667.291</ele>
        <time>2014-12-27T10:55:59Z</time>
      </trkpt>
      <trkpt lat="42.06647" lon="0.67828">
        <ele>669.181</ele>
        <time>2014-12-27T10:55:53Z</time>
      </trkpt>
      <trkpt lat="42.06638" lon="0.67833">
        <ele>670.819</ele>
        <time>2014-12-27T10:55:48Z</time>
      </trkpt>
      <trkpt lat="42.06628" lon="0.67841">
        <ele>672.808</ele>
        <time>2014-12-27T10:55:43Z</time>
      </trkpt>
      <trkpt lat="42.06619" lon="0.67848">
        <ele>674.891</ele>
        <time>2014-12-27T10:55:38Z</time>
      </trkpt>
      <trkpt lat="42.06609" lon="0.67854">
        <ele>676.95</ele>
        <time>2014-12-27T10:55:33Z</time>
      </trkpt>
      <trkpt lat="42.06599" lon="0.6786">
        <ele>679.031</ele>
        <time>2014-12-27T10:55:28Z</time>
      </trkpt>
      <trkpt lat="42.0659" lon="0.67863">
        <ele>680.523</ele>
        <time>2014-12-27T10:55:23Z</time>
      </trkpt>
      <trkpt lat="42.0658" lon="0.67867">
        <ele>682.646</ele>
        <time>2014-12-27T10:55:18Z</time>
      </trkpt>
      <trkpt lat="42.0657" lon="0.6786">
        <ele>682.037</ele>
        <time>2014-12-27T10:55:12Z</time>
      </trkpt>
      <trkpt lat="42.0656" lon="0.67859">
        <ele>683.684</ele>
        <time>2014-12-27T10:55:07Z</time>
      </trkpt>
      <trkpt lat="42.06548" lon="0.67858">
        <ele>684.648</ele>
        <time>2014-12-27T10:55:02Z</time>
      </trkpt>
      <trkpt lat="42.06537" lon="0.67856">
        <ele>685.115</ele>
        <time>2014-12-27T10:54:58Z</time>
      </trkpt>
      <trkpt lat="42.06526" lon="0.67859">
        <ele>687.165</ele>
        <time>2014-12-27T10:54:53Z</time>
      </trkpt>
      <trkpt lat="42.06516" lon="0.67864">
        <ele>688.911</ele>
        <time>2014-12-27T10:54:46Z</time>
      </trkpt>
      <trkpt lat="42.06508" lon="0.67871">
        <ele>691.808</ele>
        <time>2014-12-27T10:54:39Z</time>
      </trkpt>
      <trkpt lat="42.06498" lon="0.67878">
        <ele>694.673</ele>
        <time>2014-12-27T10:54:33Z</time>
      </trkpt>
      <trkpt lat="42.06487" lon="0.67881">
        <ele>696.042</ele>
        <time>2014-12-27T10:54:28Z</time>
      </trkpt>
      <trkpt lat="42.06476" lon="0.67885">
        <ele>697.533</ele>
        <time>2014-12-27T10:54:21Z</time>
      </trkpt>
      <trkpt lat="42.06466" lon="0.67883">
        <ele>697.815</ele>
        <time>2014-12-27T10:54:16Z</time>
      </trkpt>
      <trkpt lat="42.06458" lon="0.67874">
        <ele>697.048</ele>
        <time>2014-12-27T10:54:09Z</time>
      </trkpt>
      <trkpt lat="42.06447" lon="0.67868">
        <ele>697.719</ele>
        <time>2014-12-27T10:54:04Z</time>
      </trkpt>
      <trkpt lat="42.06439" lon="0.67859">
        <ele>698.866</ele>
        <time>2014-12-27T10:53:59Z</time>
      </trkpt>
      <trkpt lat="42.06435" lon="0.67848">
        <ele>699.79</ele>
        <time>2014-12-27T10:53:55Z</time>
      </trkpt>
      <trkpt lat="42.06438" lon="0.67834">
        <ele>698.542</ele>
        <time>2014-12-27T10:53:50Z</time>
      </trkpt>
      <trkpt lat="42.06438" lon="0.6782">
        <ele>698.922</ele>
        <time>2014-12-27T10:53:45Z</time>
      </trkpt>
      <trkpt lat="42.06436" lon="0.67805">
        <ele>699.914</ele>
        <time>2014-12-27T10:53:40Z</time>
      </trkpt>
      <trkpt lat="42.06434" lon="0.6779">
        <ele>699.908</ele>
        <time>2014-12-27T10:53:35Z</time>
      </trkpt>
      <trkpt lat="42.06429" lon="0.67778">
        <ele>701.746</ele>
        <time>2014-12-27T10:53:30Z</time>
      </trkpt>
      <trkpt lat="42.06422" lon="0.67767">
        <ele>702.665</ele>
        <time>2014-12-27T10:53:25Z</time>
      </trkpt>
      <trkpt lat="42.06413" lon="0.67758">
        <ele>703.946</ele>
        <time>2014-12-27T10:53:20Z</time>
      </trkpt>
      <trkpt lat="42.06404" lon="0.67752">
        <ele>704.668</ele>
        <time>2014-12-27T10:53:16Z</time>
      </trkpt>
      <trkpt lat="42.06395" lon="0.67745">
        <ele>704.931</ele>
        <time>2014-12-27T10:53:12Z</time>
      </trkpt>
      <trkpt lat="42.06384" lon="0.6774">
        <ele>706.062</ele>
        <time>2014-12-27T10:53:07Z</time>
      </trkpt>
      <trkpt lat="42.06376" lon="0.67731">
        <ele>705.799</ele>
        <time>2014-12-27T10:53:01Z</time>
      </trkpt>
      <trkpt lat="42.06366" lon="0.67724">
        <ele>705.793</ele>
        <time>2014-12-27T10:52:54Z</time>
      </trkpt>
      <trkpt lat="42.06356" lon="0.67721">
        <ele>705.851</ele>
        <time>2014-12-27T10:52:49Z</time>
      </trkpt>
      <trkpt lat="42.06347" lon="0.6772">
        <ele>706.201</ele>
        <time>2014-12-27T10:52:45Z</time>
      </trkpt>
      <trkpt lat="42.06335" lon="0.6772">
        <ele>707.011</ele>
        <time>2014-12-27T10:52:40Z</time>
      </trkpt>
      <trkpt lat="42.06325" lon="0.67718">
        <ele>707.108</ele>
        <time>2014-12-27T10:52:36Z</time>
      </trkpt>
      <trkpt lat="42.06313" lon="0.67717">
        <ele>707.527</ele>
        <time>2014-12-27T10:52:30Z</time>
      </trkpt>
      <trkpt lat="42.06304" lon="0.67718">
        <ele>708.816</ele>
        <time>2014-12-27T10:52:23Z</time>
      </trkpt>
      <trkpt lat="42.06295" lon="0.67723">
        <ele>710.997</ele>
        <time>2014-12-27T10:52:18Z</time>
      </trkpt>
      <trkpt lat="42.06286" lon="0.67733">
        <ele>712.449</ele>
        <time>2014-12-27T10:52:14Z</time>
      </trkpt>
      <trkpt lat="42.0628" lon="0.67743">
        <ele>713.962</ele>
        <time>2014-12-27T10:52:10Z</time>
      </trkpt>
      <trkpt lat="42.06273" lon="0.67753">
        <ele>716.273</ele>
        <time>2014-12-27T10:52:06Z</time>
      </trkpt>
      <trkpt lat="42.06264" lon="0.67762">
        <ele>718.95</ele>
        <time>2014-12-27T10:52:03Z</time>
      </trkpt>
      <trkpt lat="42.06253" lon="0.67766">
        <ele>719.814</ele>
        <time>2014-12-27T10:51:57Z</time>
      </trkpt>
      <trkpt lat="42.06243" lon="0.6777">
        <ele>722.054</ele>
        <time>2014-12-27T10:51:52Z</time>
      </trkpt>
      <trkpt lat="42.06236" lon="0.6778">
        <ele>725.056</ele>
        <time>2014-12-27T10:51:46Z</time>
      </trkpt>
      <trkpt lat="42.0623" lon="0.67789">
        <ele>728.011</ele>
        <time>2014-12-27T10:51:41Z</time>
      </trkpt>
      <trkpt lat="42.06223" lon="0.67799">
        <ele>730.708</ele>
        <time>2014-12-27T10:51:35Z</time>
      </trkpt>
      <trkpt lat="42.06219" lon="0.67809">
        <ele>733.587</ele>
        <time>2014-12-27T10:51:30Z</time>
      </trkpt>
      <trkpt lat="42.06213" lon="0.67818">
        <ele>736.886</ele>
        <time>2014-12-27T10:51:25Z</time>
      </trkpt>
      <trkpt lat="42.06206" lon="0.67811">
        <ele>736.697</ele>
        <time>2014-12-27T10:51:18Z</time>
      </trkpt>
      <trkpt lat="42.06201" lon="0.678">
        <ele>735.839</ele>
        <time>2014-12-27T10:51:11Z</time>
      </trkpt>
      <trkpt lat="42.06193" lon="0.67792">
        <ele>736.222</ele>
        <time>2014-12-27T10:51:04Z</time>
      </trkpt>
      <trkpt lat="42.06184" lon="0.67789">
        <ele>737.343</ele>
        <time>2014-12-27T10:50:57Z</time>
      </trkpt>
      <trkpt lat="42.06174" lon="0.67787">
        <ele>738.57</ele>
        <time>2014-12-27T10:50:50Z</time>
      </trkpt>
      <trkpt lat="42.06163" lon="0.67787">
        <ele>740.144</ele>
        <time>2014-12-27T10:50:43Z</time>
      </trkpt>
      <trkpt lat="42.06153" lon="0.67789">
        <ele>741.564</ele>
        <time>2014-12-27T10:50:35Z</time>
      </trkpt>
      <trkpt lat="42.06143" lon="0.67793">
        <ele>743.806</ele>
        <time>2014-12-27T10:50:28Z</time>
      </trkpt>
      <trkpt lat="42.06134" lon="0.67798">
        <ele>746.316</ele>
        <time>2014-12-27T10:50:21Z</time>
      </trkpt>
      <trkpt lat="42.06125" lon="0.67803">
        <ele>748.808</ele>
        <time>2014-12-27T10:50:09Z</time>
      </trkpt>
      <trkpt lat="42.06116" lon="0.67806">
        <ele>750.588</ele>
        <time>2014-12-27T10:50:00Z</time>
      </trkpt>
      <trkpt lat="42.06105" lon="0.67807">
        <ele>751.317</ele>
        <time>2014-12-27T10:49:50Z</time>
      </trkpt>
      <trkpt lat="42.06103" lon="0.67812">
        <ele>752.528</ele>
        <time>2014-12-27T10:49:39Z</time>
      </trkpt>
      <trkpt lat="42.0611" lon="0.67815">
        <ele>753.12</ele>
        <time>2014-12-27T10:48:32Z</time>
      </trkpt>
      <trkpt lat="42.0611" lon="0.67812">
        <ele>752.433</ele>
        <time>2014-12-27T10:47:27Z</time>
      </trkpt>
      <trkpt lat="42.0611" lon="0.67812">
        <ele>752.574</ele>
        <time>2014-12-27T10:45:31Z</time>
      </trkpt>
      <trkpt lat="42.06099" lon="0.67811">
        <ele>752.241</ele>
        <time>2014-12-27T10:27:52Z</time>
      </trkpt>
      <trkpt lat="42.06089" lon="0.67807">
        <ele>751.365</ele>
        <time>2014-12-27T10:27:39Z</time>
      </trkpt>
      <trkpt lat="42.06078" lon="0.67808">
        <ele>751.964</ele>
        <time>2014-12-27T10:27:30Z</time>
      </trkpt>
      <trkpt lat="42.06068" lon="0.67808">
        <ele>752.606</ele>
        <time>2014-12-27T10:27:22Z</time>
      </trkpt>
      <trkpt lat="42.06058" lon="0.67808">
        <ele>753.216</ele>
        <time>2014-12-27T10:27:14Z</time>
      </trkpt>
      <trkpt lat="42.06046" lon="0.67806">
        <ele>755.208</ele>
        <time>2014-12-27T10:27:05Z</time>
      </trkpt>
      <trkpt lat="42.06036" lon="0.67813">
        <ele>757.868</ele>
        <time>2014-12-27T10:26:56Z</time>
      </trkpt>
      <trkpt lat="42.06027" lon="0.67815">
        <ele>759.687</ele>
        <time>2014-12-27T10:26:49Z</time>
      </trkpt>
      <trkpt lat="42.06018" lon="0.67821">
        <ele>761.748</ele>
        <time>2014-12-27T10:26:41Z</time>
      </trkpt>
      <trkpt lat="42.06009" lon="0.67827">
        <ele>763.05</ele>
        <time>2014-12-27T10:26:33Z</time>
      </trkpt>
      <trkpt lat="42.06" lon="0.67833">
        <ele>763.163</ele>
        <time>2014-12-27T10:26:26Z</time>
      </trkpt>
      <trkpt lat="42.0599" lon="0.67838">
        <ele>766.934</ele>
        <time>2014-12-27T10:26:18Z</time>
      </trkpt>
      <trkpt lat="42.0598" lon="0.67843">
        <ele>770.061</ele>
        <time>2014-12-27T10:26:09Z</time>
      </trkpt>
      <trkpt lat="42.05973" lon="0.67846">
        <ele>772.055</ele>
        <time>2014-12-27T10:26:00Z</time>
      </trkpt>
      <trkpt lat="42.05969" lon="0.67856">
        <ele>773.022</ele>
        <time>2014-12-27T10:25:51Z</time>
      </trkpt>
      <trkpt lat="42.0596" lon="0.67858">
        <ele>776.662</ele>
        <time>2014-12-27T10:25:41Z</time>
      </trkpt>
      <trkpt lat="42.05951" lon="0.67867">
        <ele>780.108</ele>
        <time>2014-12-27T10:25:32Z</time>
      </trkpt>
      <trkpt lat="42.05944" lon="0.67877">
        <ele>782.208</ele>
        <time>2014-12-27T10:25:23Z</time>
      </trkpt>
      <trkpt lat="42.05939" lon="0.67888">
        <ele>783.414</ele>
        <time>2014-12-27T10:25:13Z</time>
      </trkpt>
      <trkpt lat="42.05934" lon="0.67901">
        <ele>785.633</ele>
        <time>2014-12-27T10:25:05Z</time>
      </trkpt>
      <trkpt lat="42.05928" lon="0.67913">
        <ele>787.624</ele>
        <time>2014-12-27T10:24:57Z</time>
      </trkpt>
      <trkpt lat="42.05919" lon="0.67922">
        <ele>790.996</ele>
        <time>2014-12-27T10:24:46Z</time>
      </trkpt>
      <trkpt lat="42.05911" lon="0.67931">
        <ele>793.479</ele>
        <time>2014-12-27T10:24:39Z</time>
      </trkpt>
      <trkpt lat="42.05903" lon="0.67938">
        <ele>795.77</ele>
        <time>2014-12-27T10:24:32Z</time>
      </trkpt>
      <trkpt lat="42.05894" lon="0.67945">
        <ele>798.257</ele>
        <time>2014-12-27T10:24:25Z</time>
      </trkpt>
      <trkpt lat="42.05886" lon="0.67954">
        <ele>800.931</ele>
        <time>2014-12-27T10:24:17Z</time>
      </trkpt>
      <trkpt lat="42.05877" lon="0.67964">
        <ele>803.589</ele>
        <time>2014-12-27T10:24:10Z</time>
      </trkpt>
      <trkpt lat="42.05868" lon="0.67971">
        <ele>805.506</ele>
        <time>2014-12-27T10:24:02Z</time>
      </trkpt>
      <trkpt lat="42.0586" lon="0.67974">
        <ele>807.526</ele>
        <time>2014-12-27T10:23:50Z</time>
      </trkpt>
      <trkpt lat="42.0585" lon="0.67972">
        <ele>810.808</ele>
        <time>2014-12-27T10:23:38Z</time>
      </trkpt>
      <trkpt lat="42.05839" lon="0.67974">
        <ele>814.11</ele>
        <time>2014-12-27T10:23:29Z</time>
      </trkpt>
      <trkpt lat="42.0583" lon="0.67978">
        <ele>817.129</ele>
        <time>2014-12-27T10:23:22Z</time>
      </trkpt>
      <trkpt lat="42.05821" lon="0.67984">
        <ele>820.04</ele>
        <time>2014-12-27T10:23:12Z</time>
      </trkpt>
      <trkpt lat="42.05813" lon="0.67985">
        <ele>823.022</ele>
        <time>2014-12-27T10:22:58Z</time>
      </trkpt>
      <trkpt lat="42.05805" lon="0.67992">
        <ele>824.625</ele>
        <time>2014-12-27T10:22:42Z</time>
      </trkpt>
      <trkpt lat="42.05796" lon="0.67996">
        <ele>827.076</ele>
        <time>2014-12-27T10:22:32Z</time>
      </trkpt>
      <trkpt lat="42.05789" lon="0.68001">
        <ele>828.753</ele>
        <time>2014-12-27T10:22:25Z</time>
      </trkpt>
      <trkpt lat="42.05782" lon="0.68006">
        <ele>831.857</ele>
        <time>2014-12-27T10:22:14Z</time>
      </trkpt>
      <trkpt lat="42.05772" lon="0.68002">
        <ele>834.011</ele>
        <time>2014-12-27T10:22:01Z</time>
      </trkpt>
      <trkpt lat="42.0576" lon="0.68001">
        <ele>837.221</ele>
        <time>2014-12-27T10:21:51Z</time>
      </trkpt>
      <trkpt lat="42.05751" lon="0.68006">
        <ele>841.003</ele>
        <time>2014-12-27T10:21:41Z</time>
      </trkpt>
      <trkpt lat="42.05748" lon="0.68018">
        <ele>844.108</ele>
        <time>2014-12-27T10:21:33Z</time>
      </trkpt>
      <trkpt lat="42.05739" lon="0.68025">
        <ele>847.213</ele>
        <time>2014-12-27T10:21:24Z</time>
      </trkpt>
      <trkpt lat="42.05735" lon="0.68035">
        <ele>849.852</ele>
        <time>2014-12-27T10:21:17Z</time>
      </trkpt>
      <trkpt lat="42.05728" lon="0.68044">
        <ele>852.693</ele>
        <time>2014-12-27T10:21:10Z</time>
      </trkpt>
      <trkpt lat="42.05725" lon="0.68054">
        <ele>855.235</ele>
        <time>2014-12-27T10:21:04Z</time>
      </trkpt>
      <trkpt lat="42.05715" lon="0.68057">
        <ele>858.128</ele>
        <time>2014-12-27T10:20:57Z</time>
      </trkpt>
      <trkpt lat="42.05708" lon="0.68062">
        <ele>861.099</ele>
        <time>2014-12-27T10:20:49Z</time>
      </trkpt>
      <trkpt lat="42.05702" lon="0.68071">
        <ele>864.816</ele>
        <time>2014-12-27T10:20:37Z</time>
      </trkpt>
      <trkpt lat="42.05694" lon="0.68079">
        <ele>869.06</ele>
        <time>2014-12-27T10:20:28Z</time>
      </trkpt>
      <trkpt lat="42.05685" lon="0.68084">
        <ele>871.839</ele>
        <time>2014-12-27T10:20:21Z</time>
      </trkpt>
      <trkpt lat="42.05678" lon="0.68093">
        <ele>875.001</ele>
        <time>2014-12-27T10:20:13Z</time>
      </trkpt>
      <trkpt lat="42.05672" lon="0.68104">
        <ele>878.521</ele>
        <time>2014-12-27T10:20:04Z</time>
      </trkpt>
      <trkpt lat="42.05665" lon="0.68116">
        <ele>881.908</ele>
        <time>2014-12-27T10:19:56Z</time>
      </trkpt>
      <trkpt lat="42.05659" lon="0.68129">
        <ele>884.485</ele>
        <time>2014-12-27T10:19:46Z</time>
      </trkpt>
      <trkpt lat="42.05661" lon="0.68142">
        <ele>886.934</ele>
        <time>2014-12-27T10:19:38Z</time>
      </trkpt>
      <trkpt lat="42.05661" lon="0.68156">
        <ele>890.835</ele>
        <time>2014-12-27T10:19:30Z</time>
      </trkpt>
      <trkpt lat="42.0566" lon="0.68169">
        <ele>894.817</ele>
        <time>2014-12-27T10:19:21Z</time>
      </trkpt>
      <trkpt lat="42.05661" lon="0.68183">
        <ele>898.61</ele>
        <time>2014-12-27T10:19:13Z</time>
      </trkpt>
      <trkpt lat="42.05659" lon="0.68197">
        <ele>902.581</ele>
        <time>2014-12-27T10:19:06Z</time>
      </trkpt>
      <trkpt lat="42.05659" lon="0.6821">
        <ele>906.278</ele>
        <time>2014-12-27T10:18:58Z</time>
      </trkpt>
      <trkpt lat="42.05662" lon="0.68223">
        <ele>910.622</ele>
        <time>2014-12-27T10:18:50Z</time>
      </trkpt>
      <trkpt lat="42.05661" lon="0.68236">
        <ele>914.679</ele>
        <time>2014-12-27T10:18:41Z</time>
      </trkpt>
      <trkpt lat="42.05666" lon="0.68249">
        <ele>919.505</ele>
        <time>2014-12-27T10:18:31Z</time>
      </trkpt>
      <trkpt lat="42.05666" lon="0.68261">
        <ele>922.625</ele>
        <time>2014-12-27T10:18:24Z</time>
      </trkpt>
      <trkpt lat="42.0567" lon="0.68275">
        <ele>926.508</ele>
        <time>2014-12-27T10:18:16Z</time>
      </trkpt>
      <trkpt lat="42.05675" lon="0.68286">
        <ele>930.199</ele>
        <time>2014-12-27T10:18:08Z</time>
      </trkpt>
      <trkpt lat="42.0568" lon="0.68299">
        <ele>934.438</ele>
        <time>2014-12-27T10:17:59Z</time>
      </trkpt>
      <trkpt lat="42.05684" lon="0.6831">
        <ele>938.219</ele>
        <time>2014-12-27T10:17:51Z</time>
      </trkpt>
      <trkpt lat="42.05688" lon="0.68322">
        <ele>942.271</ele>
        <time>2014-12-27T10:17:44Z</time>
      </trkpt>
      <trkpt lat="42.05694" lon="0.68336">
        <ele>947.214</ele>
        <time>2014-12-27T10:17:36Z</time>
      </trkpt>
      <trkpt lat="42.05698" lon="0.68349">
        <ele>948.735</ele>
        <time>2014-12-27T10:17:27Z</time>
      </trkpt>
      <trkpt lat="42.05707" lon="0.68359">
        <ele>950.582</ele>
        <time>2014-12-27T10:17:19Z</time>
      </trkpt>
      <trkpt lat="42.05714" lon="0.68368">
        <ele>952.156</ele>
        <time>2014-12-27T10:17:11Z</time>
      </trkpt>
      <trkpt lat="42.05723" lon="0.68378">
        <ele>953.797</ele>
        <time>2014-12-27T10:17:02Z</time>
      </trkpt>
      <trkpt lat="42.0573" lon="0.68388">
        <ele>954.223</ele>
        <time>2014-12-27T10:16:57Z</time>
      </trkpt>
      <trkpt lat="42.05734" lon="0.68398">
        <ele>955.925</ele>
        <time>2014-12-27T10:16:52Z</time>
      </trkpt>
      <trkpt lat="42.05741" lon="0.6841">
        <ele>958.308</ele>
        <time>2014-12-27T10:16:46Z</time>
      </trkpt>
      <trkpt lat="42.05747" lon="0.68419">
        <ele>960.551</ele>
        <time>2014-12-27T10:16:41Z</time>
      </trkpt>
      <trkpt lat="42.05748" lon="0.68431">
        <ele>962.98</ele>
        <time>2014-12-27T10:16:34Z</time>
      </trkpt>
      <trkpt lat="42.0575" lon="0.68443">
        <ele>965.791</ele>
        <time>2014-12-27T10:16:24Z</time>
      </trkpt>
      <trkpt lat="42.05752" lon="0.68456">
        <ele>967.593</ele>
        <time>2014-12-27T10:16:16Z</time>
      </trkpt>
      <trkpt lat="42.05756" lon="0.6847">
        <ele>969.396</ele>
        <time>2014-12-27T10:16:08Z</time>
      </trkpt>
      <trkpt lat="42.05762" lon="0.68481">
        <ele>970.657</ele>
        <time>2014-12-27T10:16:02Z</time>
      </trkpt>
      <trkpt lat="42.05769" lon="0.68488">
        <ele>971.754</ele>
        <time>2014-12-27T10:15:57Z</time>
      </trkpt>
      <trkpt lat="42.05776" lon="0.68501">
        <ele>973.948</ele>
        <time>2014-12-27T10:15:52Z</time>
      </trkpt>
      <trkpt lat="42.05784" lon="0.6851">
        <ele>976.167</ele>
        <time>2014-12-27T10:15:49Z</time>
      </trkpt>
      <trkpt lat="42.05791" lon="0.6852">
        <ele>979.281</ele>
        <time>2014-12-27T10:15:44Z</time>
      </trkpt>
      <trkpt lat="42.05794" lon="0.68535">
        <ele>983.019</ele>
        <time>2014-12-27T10:15:37Z</time>
      </trkpt>
      <trkpt lat="42.058" lon="0.68548">
        <ele>986.608</ele>
        <time>2014-12-27T10:15:29Z</time>
      </trkpt>
      <trkpt lat="42.05806" lon="0.68558">
        <ele>989.198</ele>
        <time>2014-12-27T10:15:20Z</time>
      </trkpt>
      <trkpt lat="42.05807" lon="0.68572">
        <ele>989.597</ele>
        <time>2014-12-27T10:15:12Z</time>
      </trkpt>
      <trkpt lat="42.05806" lon="0.68584">
        <ele>990.028</ele>
        <time>2014-12-27T10:15:03Z</time>
      </trkpt>
      <trkpt lat="42.0581" lon="0.68599">
        <ele>989.97</ele>
        <time>2014-12-27T10:14:50Z</time>
      </trkpt>
      <trkpt lat="42.05808" lon="0.68609">
        <ele>990.013</ele>
        <time>2014-12-27T10:14:37Z</time>
      </trkpt>
      <trkpt lat="42.058" lon="0.68617">
        <ele>990.474</ele>
        <time>2014-12-27T10:14:29Z</time>
      </trkpt>
      <trkpt lat="42.05792" lon="0.68626">
        <ele>990.781</ele>
        <time>2014-12-27T10:14:21Z</time>
      </trkpt>
      <trkpt lat="42.05785" lon="0.68635">
        <ele>990.955</ele>
        <time>2014-12-27T10:14:14Z</time>
      </trkpt>
      <trkpt lat="42.05775" lon="0.68639">
        <ele>991.115</ele>
        <time>2014-12-27T10:14:07Z</time>
      </trkpt>
      <trkpt lat="42.05766" lon="0.68644">
        <ele>991.265</ele>
        <time>2014-12-27T10:13:59Z</time>
      </trkpt>
      <trkpt lat="42.05757" lon="0.68649">
        <ele>991.411</ele>
        <time>2014-12-27T10:13:51Z</time>
      </trkpt>
      <trkpt lat="42.05748" lon="0.68653">
        <ele>991.408</ele>
        <time>2014-12-27T10:13:43Z</time>
      </trkpt>
      <trkpt lat="42.05738" lon="0.6866">
        <ele>991.033</ele>
        <time>2014-12-27T10:13:33Z</time>
      </trkpt>
      <trkpt lat="42.05729" lon="0.68667">
        <ele>991.042</ele>
        <time>2014-12-27T10:13:20Z</time>
      </trkpt>
      <trkpt lat="42.05725" lon="0.68677">
        <ele>991.043</ele>
        <time>2014-12-27T10:13:10Z</time>
      </trkpt>
      <trkpt lat="42.05725" lon="0.68689">
        <ele>990.925</ele>
        <time>2014-12-27T10:13:01Z</time>
      </trkpt>
      <trkpt lat="42.05724" lon="0.68703">
        <ele>991.038</ele>
        <time>2014-12-27T10:12:53Z</time>
      </trkpt>
      <trkpt lat="42.05722" lon="0.68716">
        <ele>991.029</ele>
        <time>2014-12-27T10:12:46Z</time>
      </trkpt>
      <trkpt lat="42.0572" lon="0.68729">
        <ele>991.076</ele>
        <time>2014-12-27T10:12:38Z</time>
      </trkpt>
      <trkpt lat="42.05718" lon="0.68741">
        <ele>991.05</ele>
        <time>2014-12-27T10:12:30Z</time>
      </trkpt>
      <trkpt lat="42.05716" lon="0.68754">
        <ele>991.421</ele>
        <time>2014-12-27T10:12:23Z</time>
      </trkpt>
      <trkpt lat="42.05711" lon="0.68766">
        <ele>992.341</ele>
        <time>2014-12-27T10:12:15Z</time>
      </trkpt>
      <trkpt lat="42.05707" lon="0.68779">
        <ele>993.005</ele>
        <time>2014-12-27T10:12:07Z</time>
      </trkpt>
      <trkpt lat="42.057" lon="0.6879">
        <ele>993.308</ele>
        <time>2014-12-27T10:11:59Z</time>
      </trkpt>
      <trkpt lat="42.05697" lon="0.68804">
        <ele>994.264</ele>
        <time>2014-12-27T10:11:49Z</time>
      </trkpt>
      <trkpt lat="42.05699" lon="0.68818">
        <ele>995.833</ele>
        <time>2014-12-27T10:11:40Z</time>
      </trkpt>
      <trkpt lat="42.05704" lon="0.68828">
        <ele>997.424</ele>
        <time>2014-12-27T10:11:34Z</time>
      </trkpt>
      <trkpt lat="42.05706" lon="0.68839">
        <ele>999.726</ele>
        <time>2014-12-27T10:11:26Z</time>
      </trkpt>
      <trkpt lat="42.05711" lon="0.68847">
        <ele>1001.959</ele>
        <time>2014-12-27T10:11:19Z</time>
      </trkpt>
      <trkpt lat="42.05714" lon="0.68856">
        <ele>1004.73</ele>
        <time>2014-12-27T10:11:11Z</time>
      </trkpt>
      <trkpt lat="42.05711" lon="0.68868">
        <ele>1007.587</ele>
        <time>2014-12-27T10:11:03Z</time>
      </trkpt>
      <trkpt lat="42.05712" lon="0.68878">
        <ele>1011.081</ele>
        <time>2014-12-27T10:10:55Z</time>
      </trkpt>
      <trkpt lat="42.05713" lon="0.68888">
        <ele>1014.679</ele>
        <time>2014-12-27T10:10:46Z</time>
      </trkpt>
      <trkpt lat="42.0571" lon="0.68901">
        <ele>1017.605</ele>
        <time>2014-12-27T10:10:39Z</time>
      </trkpt>
      <trkpt lat="42.05707" lon="0.68914">
        <ele>1020.925</ele>
        <time>2014-12-27T10:10:34Z</time>
      </trkpt>
      <trkpt lat="42.05707" lon="0.68931">
        <ele>1025.808</ele>
        <time>2014-12-27T10:10:27Z</time>
      </trkpt>
      <trkpt lat="42.05704" lon="0.68944">
        <ele>1029.189</ele>
        <time>2014-12-27T10:10:20Z</time>
      </trkpt>
      <trkpt lat="42.05699" lon="0.68954">
        <ele>1030.968</ele>
        <time>2014-12-27T10:10:14Z</time>
      </trkpt>
      <trkpt lat="42.05693" lon="0.68967">
        <ele>1033.729</ele>
        <time>2014-12-27T10:10:09Z</time>
      </trkpt>
      <trkpt lat="42.05685" lon="0.68977">
        <ele>1035.491</ele>
        <time>2014-12-27T10:10:04Z</time>
      </trkpt>
      <trkpt lat="42.05677" lon="0.68982">
        <ele>1035.554</ele>
        <time>2014-12-27T10:09:56Z</time>
      </trkpt>
      <trkpt lat="42.05671" lon="0.68985">
        <ele>1035.395</ele>
        <time>2014-12-27T10:09:32Z</time>
      </trkpt>
      <trkpt lat="42.05662" lon="0.68991">
        <ele>1035.832</ele>
        <time>2014-12-27T10:09:24Z</time>
      </trkpt>
      <trkpt lat="42.05658" lon="0.69005">
        <ele>1040.676</ele>
        <time>2014-12-27T10:09:14Z</time>
      </trkpt>
      <trkpt lat="42.05655" lon="0.69018">
        <ele>1044.238</ele>
        <time>2014-12-27T10:09:03Z</time>
      </trkpt>
      <trkpt lat="42.05651" lon="0.69028">
        <ele>1047.47</ele>
        <time>2014-12-27T10:08:53Z</time>
      </trkpt>
      <trkpt lat="42.05645" lon="0.69041">
        <ele>1050.417</ele>
        <time>2014-12-27T10:08:45Z</time>
      </trkpt>
      <trkpt lat="42.05645" lon="0.69053">
        <ele>1053.808</ele>
        <time>2014-12-27T10:08:36Z</time>
      </trkpt>
      <trkpt lat="42.05645" lon="0.69065">
        <ele>1056.875</ele>
        <time>2014-12-27T10:08:27Z</time>
      </trkpt>
      <trkpt lat="42.05643" lon="0.6908">
        <ele>1059.944</ele>
        <time>2014-12-27T10:08:18Z</time>
      </trkpt>
      <trkpt lat="42.05638" lon="0.69094">
        <ele>1062.665</ele>
        <time>2014-12-27T10:08:10Z</time>
      </trkpt>
      <trkpt lat="42.05635" lon="0.69106">
        <ele>1065.077</ele>
        <time>2014-12-27T10:08:02Z</time>
      </trkpt>
      <trkpt lat="42.05628" lon="0.69117">
        <ele>1066.76</ele>
        <time>2014-12-27T10:07:54Z</time>
      </trkpt>
      <trkpt lat="42.05625" lon="0.69128">
        <ele>1069.341</ele>
        <time>2014-12-27T10:07:47Z</time>
      </trkpt>
      <trkpt lat="42.05627" lon="0.69142">
        <ele>1073.958</ele>
        <time>2014-12-27T10:07:40Z</time>
      </trkpt>
      <trkpt lat="42.05627" lon="0.69153">
        <ele>1077.622</ele>
        <time>2014-12-27T10:07:27Z</time>
      </trkpt>
      <trkpt lat="42.05624" lon="0.69165">
        <ele>1081.267</ele>
        <time>2014-12-27T10:07:17Z</time>
      </trkpt>
      <trkpt lat="42.05622" lon="0.69176">
        <ele>1085.681</ele>
        <time>2014-12-27T10:07:10Z</time>
      </trkpt>
      <trkpt lat="42.05625" lon="0.69187">
        <ele>1091.519</ele>
        <time>2014-12-27T10:07:01Z</time>
      </trkpt>
      <trkpt lat="42.05631" lon="0.69199">
        <ele>1097.608</ele>
        <time>2014-12-27T10:06:51Z</time>
      </trkpt>
      <trkpt lat="42.05631" lon="0.69212">
        <ele>1102.688</ele>
        <time>2014-12-27T10:06:43Z</time>
      </trkpt>
      <trkpt lat="42.05635" lon="0.69224">
        <ele>1107.847</ele>
        <time>2014-12-27T10:06:36Z</time>
      </trkpt>
      <trkpt lat="42.05639" lon="0.69234">
        <ele>1112.638</ele>
        <time>2014-12-27T10:06:28Z</time>
      </trkpt>
      <trkpt lat="42.05642" lon="0.69247">
        <ele>1118.97</ele>
        <time>2014-12-27T10:06:19Z</time>
      </trkpt>
      <trkpt lat="42.05643" lon="0.69261">
        <ele>1125.093</ele>
        <time>2014-12-27T10:06:12Z</time>
      </trkpt>
      <trkpt lat="42.05647" lon="0.69274">
        <ele>1131.324</ele>
        <time>2014-12-27T10:06:04Z</time>
      </trkpt>
      <trkpt lat="42.0564" lon="0.69281">
        <ele>1132.651</ele>
        <time>2014-12-27T10:05:54Z</time>
      </trkpt>
      <trkpt lat="42.05639" lon="0.69291">
        <ele>1135.755</ele>
        <time>2014-12-27T10:05:43Z</time>
      </trkpt>
      <trkpt lat="42.05642" lon="0.69302">
        <ele>1140.798</ele>
        <time>2014-12-27T10:05:35Z</time>
      </trkpt>
      <trkpt lat="42.05648" lon="0.69315">
        <ele>1147.015</ele>
        <time>2014-12-27T10:05:24Z</time>
      </trkpt>
      <trkpt lat="42.05649" lon="0.69326">
        <ele>1151.526</ele>
        <time>2014-12-27T10:05:15Z</time>
      </trkpt>
      <trkpt lat="42.05652" lon="0.69337">
        <ele>1156.208</ele>
        <time>2014-12-27T10:05:08Z</time>
      </trkpt>
      <trkpt lat="42.05659" lon="0.69345">
        <ele>1160.841</ele>
        <time>2014-12-27T10:04:59Z</time>
      </trkpt>
      <trkpt lat="42.05663" lon="0.69353">
        <ele>1165.46</ele>
        <time>2014-12-27T10:04:51Z</time>
      </trkpt>
      <trkpt lat="42.0566" lon="0.6936">
        <ele>1167.531</ele>
        <time>2014-12-27T10:04:42Z</time>
      </trkpt>
      <trkpt lat="42.05654" lon="0.69372">
        <ele>1170.573</ele>
        <time>2014-12-27T10:04:32Z</time>
      </trkpt>
      <trkpt lat="42.0565" lon="0.69383">
        <ele>1173.766</ele>
        <time>2014-12-27T10:04:24Z</time>
      </trkpt>
      <trkpt lat="42.05645" lon="0.69395">
        <ele>1177.367</ele>
        <time>2014-12-27T10:04:15Z</time>
      </trkpt>
      <trkpt lat="42.05643" lon="0.69409">
        <ele>1182.744</ele>
        <time>2014-12-27T10:04:07Z</time>
      </trkpt>
      <trkpt lat="42.05645" lon="0.69417">
        <ele>1187.748</ele>
        <time>2014-12-27T10:03:50Z</time>
      </trkpt>
      <trkpt lat="42.05647" lon="0.69423">
        <ele>1192.023</ele>
        <time>2014-12-27T10:03:21Z</time>
      </trkpt>
      <trkpt lat="42.05643" lon="0.69435">
        <ele>1196.583</ele>
        <time>2014-12-27T10:03:11Z</time>
      </trkpt>
      <trkpt lat="42.05638" lon="0.69446">
        <ele>1199.411</ele>
        <time>2014-12-27T10:02:58Z</time>
      </trkpt>
      <trkpt lat="42.05639" lon="0.69455">
        <ele>1204.308</ele>
        <time>2014-12-27T10:02:35Z</time>
      </trkpt>
      <trkpt lat="42.05644" lon="0.6946">
        <ele>1210.634</ele>
        <time>2014-12-27T10:02:20Z</time>
      </trkpt>
      <trkpt lat="42.05647" lon="0.69468">
        <ele>1218.093</ele>
        <time>2014-12-27T10:02:07Z</time>
      </trkpt>
      <trkpt lat="42.05649" lon="0.69475">
        <ele>1223.954</ele>
        <time>2014-12-27T10:01:50Z</time>
      </trkpt>
      <trkpt lat="42.05649" lon="0.69479">
        <ele>1226.856</ele>
        <time>2014-12-27T10:00:34Z</time>
      </trkpt>
      <trkpt lat="42.05648" lon="0.69485">
        <ele>1230.159</ele>
        <time>2014-12-27T09:59:55Z</time>
      </trkpt>
      <trkpt lat="42.05645" lon="0.69493">
        <ele>1232.41</ele>
        <time>2014-12-27T09:59:33Z</time>
      </trkpt>
      <trkpt lat="42.0564" lon="0.695">
        <ele>1233.667</ele>
        <time>2014-12-27T09:58:39Z</time>
      </trkpt>
      <trkpt lat="42.05643" lon="0.69508">
        <ele>1240.911</ele>
        <time>2014-12-27T09:58:11Z</time>
      </trkpt>
      <trkpt lat="42.05646" lon="0.69512">
        <ele>1246.096</ele>
        <time>2014-12-27T09:57:55Z</time>
      </trkpt>
      <trkpt lat="42.05649" lon="0.69522">
        <ele>1255.631</ele>
        <time>2014-12-27T09:56:59Z</time>
      </trkpt>
      <trkpt lat="42.05658" lon="0.69517">
        <ele>1259.824</ele>
        <time>2014-12-27T09:56:31Z</time>
      </trkpt>
      <trkpt lat="42.05659" lon="0.69513">
        <ele>1258.308</ele>
        <time>2014-12-27T09:55:20Z</time>
      </trkpt>
      <trkpt lat="42.05667" lon="0.69508">
        <ele>1262.361</ele>
        <time>2014-12-27T09:54:50Z</time>
      </trkpt>
      <trkpt lat="42.0567" lon="0.69511">
        <ele>1271.48</ele>
        <time>2014-12-27T09:54:21Z</time>
      </trkpt>
      <trkpt lat="42.05665" lon="0.69527">
        <ele>1272.641</ele>
        <time>2014-12-27T09:53:41Z</time>
      </trkpt>
      <trkpt lat="42.0566" lon="0.69536">
        <ele>1276.663</ele>
        <time>2014-12-27T09:53:10Z</time>
      </trkpt>
      <trkpt lat="42.05655" lon="0.69545">
        <ele>1278.596</ele>
        <time>2014-12-27T09:52:48Z</time>
      </trkpt>
      <trkpt lat="42.05651" lon="0.69555">
        <ele>1283.187</ele>
        <time>2014-12-27T09:52:11Z</time>
      </trkpt>
      <trkpt lat="42.05658" lon="0.6955">
        <ele>1284.974</ele>
        <time>2014-12-27T09:51:42Z</time>
      </trkpt>
      <trkpt lat="42.05659" lon="0.69561">
        <ele>1296.438</ele>
        <time>2014-12-27T09:51:12Z</time>
      </trkpt>
      <trkpt lat="42.05664" lon="0.69554">
        <ele>1294.992</ele>
        <time>2014-12-27T09:50:22Z</time>
      </trkpt>
      <trkpt lat="42.05667" lon="0.69547">
        <ele>1292.373</ele>
        <time>2014-12-27T09:50:02Z</time>
      </trkpt>
      <trkpt lat="42.05672" lon="0.69541">
        <ele>1294.42</ele>
        <time>2014-12-27T09:49:17Z</time>
      </trkpt>
      <trkpt lat="42.05678" lon="0.6954">
        <ele>1304.508</ele>
        <time>2014-12-27T09:48:56Z</time>
      </trkpt>
      <trkpt lat="42.05687" lon="0.6953">
        <ele>1312.051</ele>
        <time>2014-12-27T09:48:20Z</time>
      </trkpt>
      <trkpt lat="42.05694" lon="0.69522">
        <ele>1324.51</ele>
        <time>2014-12-27T09:47:52Z</time>
      </trkpt>
      <trkpt lat="42.05695" lon="0.69513">
        <ele>1325.191</ele>
        <time>2014-12-27T09:46:59Z</time>
      </trkpt>
      <trkpt lat="42.05699" lon="0.69504">
        <ele>1327.993</ele>
        <time>2014-12-27T09:46:36Z</time>
      </trkpt>
      <trkpt lat="42.05707" lon="0.695">
        <ele>1334.246</ele>
        <time>2014-12-27T09:46:15Z</time>
      </trkpt>
      <trkpt lat="42.05715" lon="0.69496">
        <ele>1339.257</ele>
        <time>2014-12-27T09:45:59Z</time>
      </trkpt>
      <trkpt lat="42.0572" lon="0.69484">
        <ele>1342.224</ele>
        <time>2014-12-27T09:45:48Z</time>
      </trkpt>
      <trkpt lat="42.05724" lon="0.6947">
        <ele>1344.498</ele>
        <time>2014-12-27T09:45:40Z</time>
      </trkpt>
      <trkpt lat="42.0573" lon="0.69462">
        <ele>1343.442</ele>
        <time>2014-12-27T09:45:31Z</time>
      </trkpt>
      <trkpt lat="42.05737" lon="0.6947">
        <ele>1350.922</ele>
        <time>2014-12-27T09:44:50Z</time>
      </trkpt>
      <trkpt lat="42.05744" lon="0.69473">
        <ele>1354.614</ele>
        <time>2014-12-27T09:44:37Z</time>
      </trkpt>
      <trkpt lat="42.0575" lon="0.69463">
        <ele>1356.608</ele>
        <time>2014-12-27T09:44:27Z</time>
      </trkpt>
      <trkpt lat="42.05755" lon="0.69454">
        <ele>1360.296</ele>
        <time>2014-12-27T09:44:13Z</time>
      </trkpt>
      <trkpt lat="42.05758" lon="0.69446">
        <ele>1362.445</ele>
        <time>2014-12-27T09:43:27Z</time>
      </trkpt>
      <trkpt lat="42.05765" lon="0.69436">
        <ele>1368.016</ele>
        <time>2014-12-27T09:42:53Z</time>
      </trkpt>
      <trkpt lat="42.05767" lon="0.69432">
        <ele>1369.988</ele>
        <time>2014-12-27T09:42:11Z</time>
      </trkpt>
      <trkpt lat="42.05775" lon="0.6943">
        <ele>1377.531</ele>
        <time>2014-12-27T09:41:52Z</time>
      </trkpt>
      <trkpt lat="42.05786" lon="0.69434">
        <ele>1381.262</ele>
        <time>2014-12-27T09:41:41Z</time>
      </trkpt>
      <trkpt lat="42.05796" lon="0.69431">
        <ele>1383.689</ele>
        <time>2014-12-27T09:41:30Z</time>
      </trkpt>
      <trkpt lat="42.05803" lon="0.69426">
        <ele>1385.693</ele>
        <time>2014-12-27T09:41:21Z</time>
      </trkpt>
      <trkpt lat="42.05812" lon="0.69427">
        <ele>1387.757</ele>
        <time>2014-12-27T09:41:13Z</time>
      </trkpt>
      <trkpt lat="42.05822" lon="0.6943">
        <ele>1389.8</ele>
        <time>2014-12-27T09:41:05Z</time>
      </trkpt>
      <trkpt lat="42.05831" lon="0.69435">
        <ele>1391.82</ele>
        <time>2014-12-27T09:40:57Z</time>
      </trkpt>
      <trkpt lat="42.05837" lon="0.69435">
        <ele>1393.108</ele>
        <time>2014-12-27T09:40:43Z</time>
      </trkpt>
      <trkpt lat="42.05839" lon="0.69431">
        <ele>1393.647</ele>
        <time>2014-12-27T09:40:29Z</time>
      </trkpt>
      <trkpt lat="42.05847" lon="0.6943">
        <ele>1395.366</ele>
        <time>2014-12-27T09:40:19Z</time>
      </trkpt>
      <trkpt lat="42.05849" lon="0.69431">
        <ele>1395.797</ele>
        <time>2014-12-27T09:38:34Z</time>
      </trkpt>
      <trkpt lat="42.05851" lon="0.69436">
        <ele>1395.739</ele>
        <time>2014-12-27T09:37:50Z</time>
      </trkpt>
      <trkpt lat="42.05845" lon="0.69438">
        <ele>1394.422</ele>
        <time>2014-12-27T09:37:31Z</time>
      </trkpt>
      <trkpt lat="42.05849" lon="0.69438">
        <ele>1395.213</ele>
        <time>2014-12-27T09:37:12Z</time>
      </trkpt>
      <trkpt lat="42.05856" lon="0.69445">
        <ele>1396.04</ele>
        <time>2014-12-27T09:36:54Z</time>
      </trkpt>
      <trkpt lat="42.05864" lon="0.69451">
        <ele>1396.834</ele>
        <time>2014-12-27T09:36:46Z</time>
      </trkpt>
      <trkpt lat="42.05869" lon="0.69461">
        <ele>1396.696</ele>
        <time>2014-12-27T09:36:34Z</time>
      </trkpt>
      <trkpt lat="42.05875" lon="0.69471">
        <ele>1396.631</ele>
        <time>2014-12-27T09:36:28Z</time>
      </trkpt>
      <trkpt lat="42.05883" lon="0.69478">
        <ele>1397.024</ele>
        <time>2014-12-27T09:36:21Z</time>
      </trkpt>
      <trkpt lat="42.05891" lon="0.69485">
        <ele>1397.208</ele>
        <time>2014-12-27T09:36:16Z</time>
      </trkpt>
      <trkpt lat="42.05898" lon="0.69492">
        <ele>1397.111</ele>
        <time>2014-12-27T09:36:09Z</time>
      </trkpt>
      <trkpt lat="42.05907" lon="0.695">
        <ele>1397.34</ele>
        <time>2014-12-27T09:36:03Z</time>
      </trkpt>
      <trkpt lat="42.05914" lon="0.69507">
        <ele>1398.111</ele>
        <time>2014-12-27T09:35:57Z</time>
      </trkpt>
      <trkpt lat="42.0592" lon="0.69516">
        <ele>1398.793</ele>
        <time>2014-12-27T09:35:51Z</time>
      </trkpt>
      <trkpt lat="42.05915" lon="0.69525">
        <ele>1398.746</ele>
        <time>2014-12-27T09:35:44Z</time>
      </trkpt>
      <trkpt lat="42.05908" lon="0.69534">
        <ele>1398.337</ele>
        <time>2014-12-27T09:35:39Z</time>
      </trkpt>
      <trkpt lat="42.05901" lon="0.69542">
        <ele>1397.834</ele>
        <time>2014-12-27T09:35:32Z</time>
      </trkpt>
      <trkpt lat="42.05894" lon="0.6955">
        <ele>1397.428</ele>
        <time>2014-12-27T09:35:27Z</time>
      </trkpt>
      <trkpt lat="42.05887" lon="0.69559">
        <ele>1396.943</ele>
        <time>2014-12-27T09:35:21Z</time>
      </trkpt>
      <trkpt lat="42.05879" lon="0.69568">
        <ele>1396.564</ele>
        <time>2014-12-27T09:35:14Z</time>
      </trkpt>
      <trkpt lat="42.05871" lon="0.69576">
        <ele>1396.31</ele>
        <time>2014-12-27T09:35:08Z</time>
      </trkpt>
      <trkpt lat="42.05864" lon="0.69584">
        <ele>1396.308</ele>
        <time>2014-12-27T09:35:02Z</time>
      </trkpt>
      <trkpt lat="42.05857" lon="0.69593">
        <ele>1396.356</ele>
        <time>2014-12-27T09:34:56Z</time>
      </trkpt>
      <trkpt lat="42.0585" lon="0.69601">
        <ele>1396.445</ele>
        <time>2014-12-27T09:34:49Z</time>
      </trkpt>
      <trkpt lat="42.05843" lon="0.6961">
        <ele>1396.546</ele>
        <time>2014-12-27T09:34:43Z</time>
      </trkpt>
      <trkpt lat="42.05835" lon="0.69618">
        <ele>1396.748</ele>
        <time>2014-12-27T09:34:37Z</time>
      </trkpt>
      <trkpt lat="42.05829" lon="0.69627">
        <ele>1396.861</ele>
        <time>2014-12-27T09:34:31Z</time>
      </trkpt>
      <trkpt lat="42.05822" lon="0.69637">
        <ele>1397.082</ele>
        <time>2014-12-27T09:34:25Z</time>
      </trkpt>
      <trkpt lat="42.05816" lon="0.69646">
        <ele>1397.519</ele>
        <time>2014-12-27T09:34:19Z</time>
      </trkpt>
      <trkpt lat="42.05809" lon="0.69656">
        <ele>1398.263</ele>
        <time>2014-12-27T09:34:13Z</time>
      </trkpt>
      <trkpt lat="42.05804" lon="0.69666">
        <ele>1398.729</ele>
        <time>2014-12-27T09:34:07Z</time>
      </trkpt>
      <trkpt lat="42.05798" lon="0.69677">
        <ele>1398.8</ele>
        <time>2014-12-27T09:34:01Z</time>
      </trkpt>
      <trkpt lat="42.05793" lon="0.69687">
        <ele>1399.22</ele>
        <time>2014-12-27T09:33:55Z</time>
      </trkpt>
      <trkpt lat="42.05787" lon="0.69697">
        <ele>1399.908</ele>
        <time>2014-12-27T09:33:49Z</time>
      </trkpt>
      <trkpt lat="42.05782" lon="0.69708">
        <ele>1400.474</ele>
        <time>2014-12-27T09:33:42Z</time>
      </trkpt>
      <trkpt lat="42.05777" lon="0.6972">
        <ele>1400.853</ele>
        <time>2014-12-27T09:33:35Z</time>
      </trkpt>
      <trkpt lat="42.05773" lon="0.69731">
        <ele>1401.024</ele>
        <time>2014-12-27T09:33:29Z</time>
      </trkpt>
      <trkpt lat="42.05768" lon="0.69744">
        <ele>1401.556</ele>
        <time>2014-12-27T09:33:22Z</time>
      </trkpt>
      <trkpt lat="42.05764" lon="0.69756">
        <ele>1401.969</ele>
        <time>2014-12-27T09:33:16Z</time>
      </trkpt>
      <trkpt lat="42.0576" lon="0.69767">
        <ele>1402.39</ele>
        <time>2014-12-27T09:33:10Z</time>
      </trkpt>
      <trkpt lat="42.05756" lon="0.69778">
        <ele>1402.737</ele>
        <time>2014-12-27T09:33:04Z</time>
      </trkpt>
      <trkpt lat="42.05752" lon="0.69792">
        <ele>1402.811</ele>
        <time>2014-12-27T09:32:57Z</time>
      </trkpt>
      <trkpt lat="42.05748" lon="0.69804">
        <ele>1402.623</ele>
        <time>2014-12-27T09:32:51Z</time>
      </trkpt>
      <trkpt lat="42.05744" lon="0.69816">
        <ele>1402.983</ele>
        <time>2014-12-27T09:32:44Z</time>
      </trkpt>
      <trkpt lat="42.0574" lon="0.69827">
        <ele>1403.111</ele>
        <time>2014-12-27T09:32:38Z</time>
      </trkpt>
      <trkpt lat="42.05736" lon="0.6984">
        <ele>1403.208</ele>
        <time>2014-12-27T09:32:32Z</time>
      </trkpt>
      <trkpt lat="42.0573" lon="0.69852">
        <ele>1402.914</ele>
        <time>2014-12-27T09:32:24Z</time>
      </trkpt>
      <trkpt lat="42.05726" lon="0.69863">
        <ele>1402.673</ele>
        <time>2014-12-27T09:32:18Z</time>
      </trkpt>
      <trkpt lat="42.05721" lon="0.69875">
        <ele>1402.334</ele>
        <time>2014-12-27T09:32:11Z</time>
      </trkpt>
      <trkpt lat="42.05716" lon="0.69886">
        <ele>1402.026</ele>
        <time>2014-12-27T09:32:05Z</time>
      </trkpt>
      <trkpt lat="42.05711" lon="0.69897">
        <ele>1402.189</ele>
        <time>2014-12-27T09:31:58Z</time>
      </trkpt>
      <trkpt lat="42.05707" lon="0.69908">
        <ele>1402.69</ele>
        <time>2014-12-27T09:31:52Z</time>
      </trkpt>
      <trkpt lat="42.05703" lon="0.69919">
        <ele>1403.057</ele>
        <time>2014-12-27T09:31:47Z</time>
      </trkpt>
      <trkpt lat="42.05698" lon="0.69932">
        <ele>1402.961</ele>
        <time>2014-12-27T09:31:39Z</time>
      </trkpt>
      <trkpt lat="42.05694" lon="0.69943">
        <ele>1402.968</ele>
        <time>2014-12-27T09:31:33Z</time>
      </trkpt>
      <trkpt lat="42.05691" lon="0.69955">
        <ele>1403.342</ele>
        <time>2014-12-27T09:31:28Z</time>
      </trkpt>
      <trkpt lat="42.05687" lon="0.69967">
        <ele>1403.726</ele>
        <time>2014-12-27T09:31:22Z</time>
      </trkpt>
      <trkpt lat="42.05684" lon="0.69979">
        <ele>1404.508</ele>
        <time>2014-12-27T09:31:16Z</time>
      </trkpt>
      <trkpt lat="42.0568" lon="0.69992">
        <ele>1405.448</ele>
        <time>2014-12-27T09:31:12Z</time>
      </trkpt>
      <trkpt lat="42.05677" lon="0.70004">
        <ele>1406.117</ele>
        <time>2014-12-27T09:31:09Z</time>
      </trkpt>
      <trkpt lat="42.05673" lon="0.70016">
        <ele>1406.618</ele>
        <time>2014-12-27T09:31:06Z</time>
      </trkpt>
      <trkpt lat="42.05669" lon="0.70028">
        <ele>1407.03</ele>
        <time>2014-12-27T09:31:03Z</time>
      </trkpt>
      <trkpt lat="42.05666" lon="0.7004">
        <ele>1408.063</ele>
        <time>2014-12-27T09:31:00Z</time>
      </trkpt>
      <trkpt lat="42.05662" lon="0.70053">
        <ele>1409.324</ele>
        <time>2014-12-27T09:30:57Z</time>
      </trkpt>
      <trkpt lat="42.05659" lon="0.70065">
        <ele>1410.521</ele>
        <time>2014-12-27T09:30:53Z</time>
      </trkpt>
      <trkpt lat="42.05655" lon="0.70077">
        <ele>1411.875</ele>
        <time>2014-12-27T09:30:50Z</time>
      </trkpt>
      <trkpt lat="42.0565" lon="0.70089">
        <ele>1413.315</ele>
        <time>2014-12-27T09:30:47Z</time>
      </trkpt>
      <trkpt lat="42.05645" lon="0.701">
        <ele>1414.765</ele>
        <time>2014-12-27T09:30:44Z</time>
      </trkpt>
      <trkpt lat="42.05638" lon="0.70113">
        <ele>1416.311</ele>
        <time>2014-12-27T09:30:40Z</time>
      </trkpt>
      <trkpt lat="42.05632" lon="0.70127">
        <ele>1418.308</ele>
        <time>2014-12-27T09:30:36Z</time>
      </trkpt>
      <trkpt lat="42.05624" lon="0.70139">
        <ele>1420.123</ele>
        <time>2014-12-27T09:30:31Z</time>
      </trkpt>
      <trkpt lat="42.05617" lon="0.70148">
        <ele>1421.362</ele>
        <time>2014-12-27T09:30:25Z</time>
      </trkpt>
      <trkpt lat="42.05612" lon="0.70159">
        <ele>1422.453</ele>
        <time>2014-12-27T09:30:19Z</time>
      </trkpt>
      <trkpt lat="42.05605" lon="0.70171">
        <ele>1423.575</ele>
        <time>2014-12-27T09:30:16Z</time>
      </trkpt>
      <trkpt lat="42.05599" lon="0.70184">
        <ele>1424.728</ele>
        <time>2014-12-27T09:30:11Z</time>
      </trkpt>
      <trkpt lat="42.05594" lon="0.70195">
        <ele>1425.699</ele>
        <time>2014-12-27T09:30:08Z</time>
      </trkpt>
      <trkpt lat="42.05589" lon="0.70205">
        <ele>1426.686</ele>
        <time>2014-12-27T09:30:05Z</time>
      </trkpt>
      <trkpt lat="42.05585" lon="0.70216">
        <ele>1427.56</ele>
        <time>2014-12-27T09:30:02Z</time>
      </trkpt>
      <trkpt lat="42.05579" lon="0.7023">
        <ele>1428.655</ele>
        <time>2014-12-27T09:29:58Z</time>
      </trkpt>
      <trkpt lat="42.05573" lon="0.70244">
        <ele>1429.607</ele>
        <time>2014-12-27T09:29:54Z</time>
      </trkpt>
      <trkpt lat="42.05569" lon="0.70255">
        <ele>1430.417</ele>
        <time>2014-12-27T09:29:51Z</time>
      </trkpt>
      <trkpt lat="42.05563" lon="0.70268">
        <ele>1431.308</ele>
        <time>2014-12-27T09:29:47Z</time>
      </trkpt>
      <trkpt lat="42.05556" lon="0.70281">
        <ele>1432.287</ele>
        <time>2014-12-27T09:29:43Z</time>
      </trkpt>
      <trkpt lat="42.0555" lon="0.70294">
        <ele>1433.166</ele>
        <time>2014-12-27T09:29:39Z</time>
      </trkpt>
      <trkpt lat="42.05544" lon="0.70307">
        <ele>1434.137</ele>
        <time>2014-12-27T09:29:36Z</time>
      </trkpt>
      <trkpt lat="42.05538" lon="0.7032">
        <ele>1435.149</ele>
        <time>2014-12-27T09:29:31Z</time>
      </trkpt>
      <trkpt lat="42.05533" lon="0.70334">
        <ele>1436.062</ele>
        <time>2014-12-27T09:29:27Z</time>
      </trkpt>
      <trkpt lat="42.0553" lon="0.70349">
        <ele>1436.693</ele>
        <time>2014-12-27T09:29:21Z</time>
      </trkpt>
      <trkpt lat="42.05528" lon="0.70361">
        <ele>1437.02</ele>
        <time>2014-12-27T09:29:15Z</time>
      </trkpt>
      <trkpt lat="42.05526" lon="0.70374">
        <ele>1437.434</ele>
        <time>2014-12-27T09:29:09Z</time>
      </trkpt>
      <trkpt lat="42.05524" lon="0.70387">
        <ele>1437.898</ele>
        <time>2014-12-27T09:29:02Z</time>
      </trkpt>
      <trkpt lat="42.05522" lon="0.704">
        <ele>1438.115</ele>
        <time>2014-12-27T09:28:55Z</time>
      </trkpt>
      <trkpt lat="42.0552" lon="0.70413">
        <ele>1438.326</ele>
        <time>2014-12-27T09:28:49Z</time>
      </trkpt>
      <trkpt lat="42.05518" lon="0.70426">
        <ele>1438.608</ele>
        <time>2014-12-27T09:28:42Z</time>
      </trkpt>
      <trkpt lat="42.05515" lon="0.70439">
        <ele>1438.961</ele>
        <time>2014-12-27T09:28:36Z</time>
      </trkpt>
      <trkpt lat="42.05512" lon="0.7045">
        <ele>1439.01</ele>
        <time>2014-12-27T09:28:30Z</time>
      </trkpt>
      <trkpt lat="42.05509" lon="0.70462">
        <ele>1438.871</ele>
        <time>2014-12-27T09:28:24Z</time>
      </trkpt>
      <trkpt lat="42.05506" lon="0.70473">
        <ele>1438.733</ele>
        <time>2014-12-27T09:28:18Z</time>
      </trkpt>
      <trkpt lat="42.05502" lon="0.70486">
        <ele>1439.276</ele>
        <time>2014-12-27T09:28:11Z</time>
      </trkpt>
      <trkpt lat="42.05499" lon="0.70497">
        <ele>1439.777</ele>
        <time>2014-12-27T09:28:06Z</time>
      </trkpt>
      <trkpt lat="42.05493" lon="0.70509">
        <ele>1440.834</ele>
        <time>2014-12-27T09:28:01Z</time>
      </trkpt>
      <trkpt lat="42.05486" lon="0.70521">
        <ele>1442.138</ele>
        <time>2014-12-27T09:27:57Z</time>
      </trkpt>
      <trkpt lat="42.0548" lon="0.70535">
        <ele>1443.851</ele>
        <time>2014-12-27T09:27:53Z</time>
      </trkpt>
      <trkpt lat="42.05476" lon="0.7055">
        <ele>1445.401</ele>
        <time>2014-12-27T09:27:49Z</time>
      </trkpt>
      <trkpt lat="42.05473" lon="0.70565">
        <ele>1447.411</ele>
        <time>2014-12-27T09:27:45Z</time>
      </trkpt>
      <trkpt lat="42.05468" lon="0.70576">
        <ele>1449.008</ele>
        <time>2014-12-27T09:27:42Z</time>
      </trkpt>
      <trkpt lat="42.05463" lon="0.70587">
        <ele>1450.517</ele>
        <time>2014-12-27T09:27:39Z</time>
      </trkpt>
      <trkpt lat="42.05458" lon="0.70602">
        <ele>1452.316</ele>
        <time>2014-12-27T09:27:36Z</time>
      </trkpt>
      <trkpt lat="42.05453" lon="0.70613">
        <ele>1453.827</ele>
        <time>2014-12-27T09:27:32Z</time>
      </trkpt>
      <trkpt lat="42.05448" lon="0.70623">
        <ele>1455.249</ele>
        <time>2014-12-27T09:27:29Z</time>
      </trkpt>
      <trkpt lat="42.05441" lon="0.70636">
        <ele>1456.872</ele>
        <time>2014-12-27T09:27:25Z</time>
      </trkpt>
      <trkpt lat="42.05435" lon="0.70648">
        <ele>1458.433</ele>
        <time>2014-12-27T09:27:21Z</time>
      </trkpt>
      <trkpt lat="42.05428" lon="0.70661">
        <ele>1459.91</ele>
        <time>2014-12-27T09:27:17Z</time>
      </trkpt>
      <trkpt lat="42.05423" lon="0.70674">
        <ele>1461.534</ele>
        <time>2014-12-27T09:27:12Z</time>
      </trkpt>
      <trkpt lat="42.05419" lon="0.70686">
        <ele>1463.091</ele>
        <time>2014-12-27T09:27:04Z</time>
      </trkpt>
      <trkpt lat="42.05415" lon="0.70696">
        <ele>1464.281</ele>
        <time>2014-12-27T09:26:58Z</time>
      </trkpt>
      <trkpt lat="42.0541" lon="0.70709">
        <ele>1465.319</ele>
        <time>2014-12-27T09:26:54Z</time>
      </trkpt>
      <trkpt lat="42.05405" lon="0.70723">
        <ele>1466.508</ele>
        <time>2014-12-27T09:26:49Z</time>
      </trkpt>
      <trkpt lat="42.054" lon="0.70737">
        <ele>1467.711</ele>
        <time>2014-12-27T09:26:46Z</time>
      </trkpt>
      <trkpt lat="42.05394" lon="0.70751">
        <ele>1468.85</ele>
        <time>2014-12-27T09:26:41Z</time>
      </trkpt>
      <trkpt lat="42.05389" lon="0.70764">
        <ele>1470.081</ele>
        <time>2014-12-27T09:26:38Z</time>
      </trkpt>
      <trkpt lat="42.05385" lon="0.70777">
        <ele>1471.183</ele>
        <time>2014-12-27T09:26:33Z</time>
      </trkpt>
      <trkpt lat="42.05382" lon="0.70789">
        <ele>1472.186</ele>
        <time>2014-12-27T09:26:28Z</time>
      </trkpt>
      <trkpt lat="42.0538" lon="0.70804">
        <ele>1473.267</ele>
        <time>2014-12-27T09:26:24Z</time>
      </trkpt>
      <trkpt lat="42.05379" lon="0.7082">
        <ele>1474.184</ele>
        <time>2014-12-27T09:26:19Z</time>
      </trkpt>
      <trkpt lat="42.05377" lon="0.70836">
        <ele>1475.038</ele>
        <time>2014-12-27T09:26:16Z</time>
      </trkpt>
      <trkpt lat="42.05374" lon="0.70849">
        <ele>1476.231</ele>
        <time>2014-12-27T09:26:12Z</time>
      </trkpt>
      <trkpt lat="42.0537" lon="0.70862">
        <ele>1477.461</ele>
        <time>2014-12-27T09:26:08Z</time>
      </trkpt>
      <trkpt lat="42.05366" lon="0.70875">
        <ele>1478.607</ele>
        <time>2014-12-27T09:26:03Z</time>
      </trkpt>
      <trkpt lat="42.05363" lon="0.70888">
        <ele>1479.908</ele>
        <time>2014-12-27T09:25:59Z</time>
      </trkpt>
      <trkpt lat="42.05359" lon="0.70901">
        <ele>1481.045</ele>
        <time>2014-12-27T09:25:56Z</time>
      </trkpt>
      <trkpt lat="42.05354" lon="0.70913">
        <ele>1482.214</ele>
        <time>2014-12-27T09:25:51Z</time>
      </trkpt>
      <trkpt lat="42.05349" lon="0.70925">
        <ele>1483.575</ele>
        <time>2014-12-27T09:25:45Z</time>
      </trkpt>
      <trkpt lat="42.05344" lon="0.70936">
        <ele>1484.667</ele>
        <time>2014-12-27T09:25:39Z</time>
      </trkpt>
      <trkpt lat="42.0534" lon="0.70949">
        <ele>1485.82</ele>
        <time>2014-12-27T09:25:33Z</time>
      </trkpt>
      <trkpt lat="42.05336" lon="0.7096">
        <ele>1487.071</ele>
        <time>2014-12-27T09:25:27Z</time>
      </trkpt>
      <trkpt lat="42.05329" lon="0.70971">
        <ele>1488.228</ele>
        <time>2014-12-27T09:25:21Z</time>
      </trkpt>
      <trkpt lat="42.05322" lon="0.70979">
        <ele>1489.242</ele>
        <time>2014-12-27T09:25:15Z</time>
      </trkpt>
      <trkpt lat="42.05316" lon="0.70989">
        <ele>1490.128</ele>
        <time>2014-12-27T09:25:09Z</time>
      </trkpt>
      <trkpt lat="42.05312" lon="0.71001">
        <ele>1490.889</ele>
        <time>2014-12-27T09:25:02Z</time>
      </trkpt>
      <trkpt lat="42.05307" lon="0.71013">
        <ele>1491.417</ele>
        <time>2014-12-27T09:24:55Z</time>
      </trkpt>
      <trkpt lat="42.05299" lon="0.71019">
        <ele>1492.108</ele>
        <time>2014-12-27T09:24:48Z</time>
      </trkpt>
      <trkpt lat="42.0529" lon="0.71021">
        <ele>1492.784</ele>
        <time>2014-12-27T09:24:42Z</time>
      </trkpt>
      <trkpt lat="42.05282" lon="0.71025">
        <ele>1493.673</ele>
        <time>2014-12-27T09:24:35Z</time>
      </trkpt>
      <trkpt lat="42.0528" lon="0.71039">
        <ele>1493.984</ele>
        <time>2014-12-27T09:24:28Z</time>
      </trkpt>
      <trkpt lat="42.05277" lon="0.71052">
        <ele>1494.076</ele>
        <time>2014-12-27T09:24:21Z</time>
      </trkpt>
      <trkpt lat="42.05274" lon="0.71063">
        <ele>1494.049</ele>
        <time>2014-12-27T09:24:15Z</time>
      </trkpt>
      <trkpt lat="42.05271" lon="0.71076">
        <ele>1493.81</ele>
        <time>2014-12-27T09:24:08Z</time>
      </trkpt>
      <trkpt lat="42.05269" lon="0.71089">
        <ele>1493.527</ele>
        <time>2014-12-27T09:24:01Z</time>
      </trkpt>
      <trkpt lat="42.05267" lon="0.71102">
        <ele>1493.241</ele>
        <time>2014-12-27T09:23:55Z</time>
      </trkpt>
      <trkpt lat="42.05264" lon="0.71115">
        <ele>1492.819</ele>
        <time>2014-12-27T09:23:48Z</time>
      </trkpt>
      <trkpt lat="42.05261" lon="0.71129">
        <ele>1491.909</ele>
        <time>2014-12-27T09:23:40Z</time>
      </trkpt>
      <trkpt lat="42.05258" lon="0.71141">
        <ele>1491.219</ele>
        <time>2014-12-27T09:23:33Z</time>
      </trkpt>
      <trkpt lat="42.05253" lon="0.71152">
        <ele>1490.608</ele>
        <time>2014-12-27T09:23:26Z</time>
      </trkpt>
      <trkpt lat="42.05249" lon="0.71164">
        <ele>1490.083</ele>
        <time>2014-12-27T09:23:18Z</time>
      </trkpt>
      <trkpt lat="42.05249" lon="0.71177">
        <ele>1489.482</ele>
        <time>2014-12-27T09:23:11Z</time>
      </trkpt>
      <trkpt lat="42.05248" lon="0.71189">
        <ele>1488.993</ele>
        <time>2014-12-27T09:23:05Z</time>
      </trkpt>
      <trkpt lat="42.05246" lon="0.71202">
        <ele>1488.595</ele>
        <time>2014-12-27T09:22:58Z</time>
      </trkpt>
      <trkpt lat="42.05244" lon="0.71216">
        <ele>1488.358</ele>
        <time>2014-12-27T09:22:51Z</time>
      </trkpt>
      <trkpt lat="42.05242" lon="0.71229">
        <ele>1488.299</ele>
        <time>2014-12-27T09:22:44Z</time>
      </trkpt>
      <trkpt lat="42.05239" lon="0.7124">
        <ele>1488.136</ele>
        <time>2014-12-27T09:22:39Z</time>
      </trkpt>
      <trkpt lat="42.05237" lon="0.71254">
        <ele>1488.24</ele>
        <time>2014-12-27T09:22:31Z</time>
      </trkpt>
      <trkpt lat="42.05235" lon="0.71267">
        <ele>1488.856</ele>
        <time>2014-12-27T09:22:25Z</time>
      </trkpt>
      <trkpt lat="42.05234" lon="0.71281">
        <ele>1489.559</ele>
        <time>2014-12-27T09:22:19Z</time>
      </trkpt>
      <trkpt lat="42.05233" lon="0.71293">
        <ele>1490.114</ele>
        <time>2014-12-27T09:22:13Z</time>
      </trkpt>
      <trkpt lat="42.05233" lon="0.71307">
        <ele>1490.708</ele>
        <time>2014-12-27T09:22:07Z</time>
      </trkpt>
      <trkpt lat="42.05232" lon="0.71321">
        <ele>1491.217</ele>
        <time>2014-12-27T09:22:00Z</time>
      </trkpt>
      <trkpt lat="42.05231" lon="0.71334">
        <ele>1491.776</ele>
        <time>2014-12-27T09:21:56Z</time>
      </trkpt>
      <trkpt lat="42.0523" lon="0.71349">
        <ele>1492.777</ele>
        <time>2014-12-27T09:21:51Z</time>
      </trkpt>
      <trkpt lat="42.05229" lon="0.71364">
        <ele>1493.819</ele>
        <time>2014-12-27T09:21:47Z</time>
      </trkpt>
      <trkpt lat="42.0523" lon="0.7138">
        <ele>1495.042</ele>
        <time>2014-12-27T09:21:43Z</time>
      </trkpt>
      <trkpt lat="42.05233" lon="0.71394">
        <ele>1496.083</ele>
        <time>2014-12-27T09:21:38Z</time>
      </trkpt>
      <trkpt lat="42.05239" lon="0.71404">
        <ele>1496.83</ele>
        <time>2014-12-27T09:21:33Z</time>
      </trkpt>
      <trkpt lat="42.05247" lon="0.71412">
        <ele>1497.564</ele>
        <time>2014-12-27T09:21:28Z</time>
      </trkpt>
      <trkpt lat="42.05255" lon="0.71423">
        <ele>1498.792</ele>
        <time>2014-12-27T09:21:24Z</time>
      </trkpt>
      <trkpt lat="42.05262" lon="0.71432">
        <ele>1499.873</ele>
        <time>2014-12-27T09:21:21Z</time>
      </trkpt>
      <trkpt lat="42.05268" lon="0.71441">
        <ele>1501.02</ele>
        <time>2014-12-27T09:21:18Z</time>
      </trkpt>
      <trkpt lat="42.05275" lon="0.71453">
        <ele>1502.808</ele>
        <time>2014-12-27T09:21:15Z</time>
      </trkpt>
      <trkpt lat="42.05281" lon="0.71462">
        <ele>1504.061</ele>
        <time>2014-12-27T09:21:11Z</time>
      </trkpt>
      <trkpt lat="42.05288" lon="0.71471">
        <ele>1505.59</ele>
        <time>2014-12-27T09:21:08Z</time>
      </trkpt>
      <trkpt lat="42.05296" lon="0.71479">
        <ele>1506.681</ele>
        <time>2014-12-27T09:21:06Z</time>
      </trkpt>
      <trkpt lat="42.05304" lon="0.71486">
        <ele>1507.523</ele>
        <time>2014-12-27T09:21:02Z</time>
      </trkpt>
      <trkpt lat="42.05313" lon="0.71493">
        <ele>1508.876</ele>
        <time>2014-12-27T09:20:59Z</time>
      </trkpt>
      <trkpt lat="42.05322" lon="0.71501">
        <ele>1510.117</ele>
        <time>2014-12-27T09:20:56Z</time>
      </trkpt>
      <trkpt lat="42.0533" lon="0.71508">
        <ele>1511.654</ele>
        <time>2014-12-27T09:20:53Z</time>
      </trkpt>
      <trkpt lat="42.05337" lon="0.71515">
        <ele>1513.378</ele>
        <time>2014-12-27T09:20:50Z</time>
      </trkpt>
      <trkpt lat="42.05345" lon="0.71523">
        <ele>1514.971</ele>
        <time>2014-12-27T09:20:47Z</time>
      </trkpt>
      <trkpt lat="42.05353" lon="0.71529">
        <ele>1516.241</ele>
        <time>2014-12-27T09:20:44Z</time>
      </trkpt>
      <trkpt lat="42.05362" lon="0.71534">
        <ele>1516.815</ele>
        <time>2014-12-27T09:20:41Z</time>
      </trkpt>
      <trkpt lat="42.0537" lon="0.71541">
        <ele>1517.208</ele>
        <time>2014-12-27T09:20:38Z</time>
      </trkpt>
      <trkpt lat="42.05378" lon="0.71548">
        <ele>1517.719</ele>
        <time>2014-12-27T09:20:35Z</time>
      </trkpt>
      <trkpt lat="42.05385" lon="0.71557">
        <ele>1518.568</ele>
        <time>2014-12-27T09:20:32Z</time>
      </trkpt>
      <trkpt lat="42.05391" lon="0.71566">
        <ele>1519.289</ele>
        <time>2014-12-27T09:20:29Z</time>
      </trkpt>
      <trkpt lat="42.05398" lon="0.71576">
        <ele>1519.951</ele>
        <time>2014-12-27T09:20:26Z</time>
      </trkpt>
      <trkpt lat="42.05401" lon="0.71587">
        <ele>1521.244</ele>
        <time>2014-12-27T09:20:23Z</time>
      </trkpt>
      <trkpt lat="42.05403" lon="0.716">
        <ele>1522.525</ele>
        <time>2014-12-27T09:20:20Z</time>
      </trkpt>
      <trkpt lat="42.05406" lon="0.71613">
        <ele>1523.922</ele>
        <time>2014-12-27T09:20:17Z</time>
      </trkpt>
      <trkpt lat="42.05408" lon="0.71626">
        <ele>1525.436</ele>
        <time>2014-12-27T09:20:14Z</time>
      </trkpt>
      <trkpt lat="42.0541" lon="0.71639">
        <ele>1526.916</ele>
        <time>2014-12-27T09:20:11Z</time>
      </trkpt>
      <trkpt lat="42.05413" lon="0.71651">
        <ele>1528.376</ele>
        <time>2014-12-27T09:20:08Z</time>
      </trkpt>
      <trkpt lat="42.05414" lon="0.71663">
        <ele>1529.913</ele>
        <time>2014-12-27T09:20:05Z</time>
      </trkpt>
      <trkpt lat="42.05416" lon="0.71679">
        <ele>1531.908</ele>
        <time>2014-12-27T09:20:01Z</time>
      </trkpt>
      <trkpt lat="42.05416" lon="0.71693">
        <ele>1533.943</ele>
        <time>2014-12-27T09:19:57Z</time>
      </trkpt>
      <trkpt lat="42.05415" lon="0.71709">
        <ele>1535.722</ele>
        <time>2014-12-27T09:19:53Z</time>
      </trkpt>
      <trkpt lat="42.05414" lon="0.71724">
        <ele>1537.473</ele>
        <time>2014-12-27T09:19:49Z</time>
      </trkpt>
      <trkpt lat="42.05411" lon="0.7174">
        <ele>1538.395</ele>
        <time>2014-12-27T09:19:45Z</time>
      </trkpt>
      <trkpt lat="42.05408" lon="0.71753">
        <ele>1539.358</ele>
        <time>2014-12-27T09:19:41Z</time>
      </trkpt>
      <trkpt lat="42.05405" lon="0.71765">
        <ele>1540.299</ele>
        <time>2014-12-27T09:19:35Z</time>
      </trkpt>
      <trkpt lat="42.05402" lon="0.71778">
        <ele>1541.196</ele>
        <time>2014-12-27T09:19:29Z</time>
      </trkpt>
      <trkpt lat="42.05397" lon="0.71789">
        <ele>1541.39</ele>
        <time>2014-12-27T09:19:22Z</time>
      </trkpt>
      <trkpt lat="42.05392" lon="0.71799">
        <ele>1541.842</ele>
        <time>2014-12-27T09:19:16Z</time>
      </trkpt>
      <trkpt lat="42.05383" lon="0.71805">
        <ele>1543.122</ele>
        <time>2014-12-27T09:19:09Z</time>
      </trkpt>
      <trkpt lat="42.05374" lon="0.71809">
        <ele>1544.614</ele>
        <time>2014-12-27T09:19:02Z</time>
      </trkpt>
      <trkpt lat="42.05366" lon="0.71815">
        <ele>1546.108</ele>
        <time>2014-12-27T09:18:52Z</time>
      </trkpt>
      <trkpt lat="42.05365" lon="0.71812">
        <ele>1546.376</ele>
        <time>2014-12-27T09:18:32Z</time>
      </trkpt>
      <trkpt lat="42.05359" lon="0.71819">
        <ele>1547.325</ele>
        <time>2014-12-27T09:18:14Z</time>
      </trkpt>
      <trkpt lat="42.05362" lon="0.71824">
        <ele>1546.816</ele>
        <time>2014-12-27T09:17:45Z</time>
      </trkpt>
      <trkpt lat="42.05364" lon="0.71837">
        <ele>1546.068</ele>
        <time>2014-12-27T09:17:40Z</time>
      </trkpt>
      <trkpt lat="42.05356" lon="0.71847">
        <ele>1547.091</ele>
        <time>2014-12-27T09:17:36Z</time>
      </trkpt>
      <trkpt lat="42.05349" lon="0.71857">
        <ele>1548.382</ele>
        <time>2014-12-27T09:17:29Z</time>
      </trkpt>
      <trkpt lat="42.05342" lon="0.71864">
        <ele>1549.799</ele>
        <time>2014-12-27T09:17:22Z</time>
      </trkpt>
      <trkpt lat="42.05334" lon="0.7187">
        <ele>1551.683</ele>
        <time>2014-12-27T09:17:18Z</time>
      </trkpt>
      <trkpt lat="42.05323" lon="0.71878">
        <ele>1553.481</ele>
        <time>2014-12-27T09:17:14Z</time>
      </trkpt>
      <trkpt lat="42.05315" lon="0.71889">
        <ele>1554.961</ele>
        <time>2014-12-27T09:17:10Z</time>
      </trkpt>
      <trkpt lat="42.05307" lon="0.719">
        <ele>1555.917</ele>
        <time>2014-12-27T09:17:07Z</time>
      </trkpt>
      <trkpt lat="42.05297" lon="0.71909">
        <ele>1557.008</ele>
        <time>2014-12-27T09:17:02Z</time>
      </trkpt>
      <trkpt lat="42.0529" lon="0.71919">
        <ele>1557.72</ele>
        <time>2014-12-27T09:16:58Z</time>
      </trkpt>
      <trkpt lat="42.05285" lon="0.7193">
        <ele>1557.619</ele>
        <time>2014-12-27T09:16:52Z</time>
      </trkpt>
      <trkpt lat="42.05284" lon="0.71944">
        <ele>1556.85</ele>
        <time>2014-12-27T09:16:45Z</time>
      </trkpt>
      <trkpt lat="42.05281" lon="0.71956">
        <ele>1555.942</ele>
        <time>2014-12-27T09:16:38Z</time>
      </trkpt>
      <trkpt lat="42.05277" lon="0.71967">
        <ele>1555.755</ele>
        <time>2014-12-27T09:16:32Z</time>
      </trkpt>
      <trkpt lat="42.0527" lon="0.71976">
        <ele>1555.366</ele>
        <time>2014-12-27T09:16:26Z</time>
      </trkpt>
      <trkpt lat="42.05263" lon="0.71984">
        <ele>1554.873</ele>
        <time>2014-12-27T09:16:19Z</time>
      </trkpt>
      <trkpt lat="42.05258" lon="0.71996">
        <ele>1553.717</ele>
        <time>2014-12-27T09:16:12Z</time>
      </trkpt>
      <trkpt lat="42.05252" lon="0.72007">
        <ele>1552.946</ele>
        <time>2014-12-27T09:16:04Z</time>
      </trkpt>
      <trkpt lat="42.05248" lon="0.72019">
        <ele>1551.288</ele>
        <time>2014-12-27T09:15:57Z</time>
      </trkpt>
      <trkpt lat="42.05243" lon="0.72031">
        <ele>1548.316</ele>
        <time>2014-12-27T09:15:50Z</time>
      </trkpt>
      <trkpt lat="42.0524" lon="0.72043">
        <ele>1546.708</ele>
        <time>2014-12-27T09:15:43Z</time>
      </trkpt>
      <trkpt lat="42.05236" lon="0.72054">
        <ele>1546.036</ele>
        <time>2014-12-27T09:15:36Z</time>
      </trkpt>
      <trkpt lat="42.05232" lon="0.72065">
        <ele>1545.815</ele>
        <time>2014-12-27T09:15:29Z</time>
      </trkpt>
      <trkpt lat="42.05228" lon="0.72076">
        <ele>1546.096</ele>
        <time>2014-12-27T09:15:22Z</time>
      </trkpt>
      <trkpt lat="42.05226" lon="0.72089">
        <ele>1545.848</ele>
        <time>2014-12-27T09:15:15Z</time>
      </trkpt>
      <trkpt lat="42.05226" lon="0.72103">
        <ele>1544.841</ele>
        <time>2014-12-27T09:15:08Z</time>
      </trkpt>
      <trkpt lat="42.05226" lon="0.72116">
        <ele>1544.082</ele>
        <time>2014-12-27T09:15:01Z</time>
      </trkpt>
      <trkpt lat="42.05226" lon="0.72129">
        <ele>1543.659</ele>
        <time>2014-12-27T09:14:55Z</time>
      </trkpt>
      <trkpt lat="42.05228" lon="0.72142">
        <ele>1542.913</ele>
        <time>2014-12-27T09:14:50Z</time>
      </trkpt>
      <trkpt lat="42.05231" lon="0.72157">
        <ele>1542.646</ele>
        <time>2014-12-27T09:14:46Z</time>
      </trkpt>
      <trkpt lat="42.05234" lon="0.72169">
        <ele>1542.688</ele>
        <time>2014-12-27T09:14:44Z</time>
      </trkpt>
      <trkpt lat="42.05238" lon="0.72181">
        <ele>1543.216</ele>
        <time>2014-12-27T09:14:40Z</time>
      </trkpt>
      <trkpt lat="42.05243" lon="0.72192">
        <ele>1544.508</ele>
        <time>2014-12-27T09:14:37Z</time>
      </trkpt>
      <trkpt lat="42.05251" lon="0.72203">
        <ele>1547.646</ele>
        <time>2014-12-27T09:14:33Z</time>
      </trkpt>
      <trkpt lat="42.05262" lon="0.7221">
        <ele>1548.775</ele>
        <time>2014-12-27T09:14:29Z</time>
      </trkpt>
      <trkpt lat="42.0527" lon="0.7222">
        <ele>1550.686</ele>
        <time>2014-12-27T09:14:25Z</time>
      </trkpt>
      <trkpt lat="42.05277" lon="0.72229">
        <ele>1552.048</ele>
        <time>2014-12-27T09:14:22Z</time>
      </trkpt>
      <trkpt lat="42.05283" lon="0.72238">
        <ele>1552.871</ele>
        <time>2014-12-27T09:14:19Z</time>
      </trkpt>
      <trkpt lat="42.05288" lon="0.72249">
        <ele>1554.212</ele>
        <time>2014-12-27T09:14:16Z</time>
      </trkpt>
      <trkpt lat="42.05288" lon="0.72265">
        <ele>1556.489</ele>
        <time>2014-12-27T09:14:12Z</time>
      </trkpt>
      <trkpt lat="42.05286" lon="0.7228">
        <ele>1558.643</ele>
        <time>2014-12-27T09:14:08Z</time>
      </trkpt>
      <trkpt lat="42.05282" lon="0.72295">
        <ele>1560.412</ele>
        <time>2014-12-27T09:14:04Z</time>
      </trkpt>
      <trkpt lat="42.05275" lon="0.72307">
        <ele>1562.332</ele>
        <time>2014-12-27T09:14:00Z</time>
      </trkpt>
      <trkpt lat="42.05267" lon="0.72316">
        <ele>1563.205</ele>
        <time>2014-12-27T09:13:56Z</time>
      </trkpt>
      <trkpt lat="42.05259" lon="0.72327">
        <ele>1564.108</ele>
        <time>2014-12-27T09:13:50Z</time>
      </trkpt>
      <trkpt lat="42.05252" lon="0.72336">
        <ele>1564.823</ele>
        <time>2014-12-27T09:13:45Z</time>
      </trkpt>
      <trkpt lat="42.05244" lon="0.72343">
        <ele>1565.422</ele>
        <time>2014-12-27T09:13:37Z</time>
      </trkpt>
      <trkpt lat="42.05235" lon="0.72349">
        <ele>1565.853</ele>
        <time>2014-12-27T09:13:30Z</time>
      </trkpt>
      <trkpt lat="42.05227" lon="0.72355">
        <ele>1566.085</ele>
        <time>2014-12-27T09:13:23Z</time>
      </trkpt>
      <trkpt lat="42.05218" lon="0.72361">
        <ele>1566.028</ele>
        <time>2014-12-27T09:13:16Z</time>
      </trkpt>
      <trkpt lat="42.05209" lon="0.72367">
        <ele>1565.679</ele>
        <time>2014-12-27T09:13:08Z</time>
      </trkpt>
      <trkpt lat="42.052" lon="0.72371">
        <ele>1565.376</ele>
        <time>2014-12-27T09:13:00Z</time>
      </trkpt>
      <trkpt lat="42.05191" lon="0.72374">
        <ele>1564.95</ele>
        <time>2014-12-27T09:12:52Z</time>
      </trkpt>
      <trkpt lat="42.05183" lon="0.72379">
        <ele>1564.115</ele>
        <time>2014-12-27T09:12:43Z</time>
      </trkpt>
      <trkpt lat="42.0518" lon="0.7239">
        <ele>1563.365</ele>
        <time>2014-12-27T09:12:33Z</time>
      </trkpt>
      <trkpt lat="42.0518" lon="0.72404">
        <ele>1561.311</ele>
        <time>2014-12-27T09:12:23Z</time>
      </trkpt>
      <trkpt lat="42.0518" lon="0.72416">
        <ele>1559.508</ele>
        <time>2014-12-27T09:12:14Z</time>
      </trkpt>
      <trkpt lat="42.05179" lon="0.72429">
        <ele>1557.093</ele>
        <time>2014-12-27T09:12:04Z</time>
      </trkpt>
      <trkpt lat="42.05178" lon="0.72442">
        <ele>1554.472</ele>
        <time>2014-12-27T09:11:51Z</time>
      </trkpt>
      <trkpt lat="42.05177" lon="0.72455">
        <ele>1551.963</ele>
        <time>2014-12-27T09:11:35Z</time>
      </trkpt>
      <trkpt lat="42.05174" lon="0.72466">
        <ele>1549.885</ele>
        <time>2014-12-27T09:11:24Z</time>
      </trkpt>
      <trkpt lat="42.05173" lon="0.72479">
        <ele>1547.378</ele>
        <time>2014-12-27T09:11:03Z</time>
      </trkpt>
      <trkpt lat="42.05172" lon="0.72491">
        <ele>1544.799</ele>
        <time>2014-12-27T09:10:51Z</time>
      </trkpt>
      <trkpt lat="42.05172" lon="0.72505">
        <ele>1541.576</ele>
        <time>2014-12-27T09:10:38Z</time>
      </trkpt>
      <trkpt lat="42.05171" lon="0.72518">
        <ele>1538.21</ele>
        <time>2014-12-27T09:10:26Z</time>
      </trkpt>
      <trkpt lat="42.05171" lon="0.72529">
        <ele>1535.496</ele>
        <time>2014-12-27T09:10:15Z</time>
      </trkpt>
      <trkpt lat="42.0517" lon="0.72542">
        <ele>1533.131</ele>
        <time>2014-12-27T09:10:06Z</time>
      </trkpt>
      <trkpt lat="42.05169" lon="0.72555">
        <ele>1531.024</ele>
        <time>2014-12-27T09:09:56Z</time>
      </trkpt>
      <trkpt lat="42.05168" lon="0.72569">
        <ele>1528.408</ele>
        <time>2014-12-27T09:09:47Z</time>
      </trkpt>
      <trkpt lat="42.05165" lon="0.72582">
        <ele>1526.761</ele>
        <time>2014-12-27T09:09:37Z</time>
      </trkpt>
      <trkpt lat="42.05162" lon="0.72593">
        <ele>1527.48</ele>
        <time>2014-12-27T09:09:32Z</time>
      </trkpt>
      <trkpt lat="42.05157" lon="0.72605">
        <ele>1528.811</ele>
        <time>2014-12-27T09:09:28Z</time>
      </trkpt>
      <trkpt lat="42.05154" lon="0.72619">
        <ele>1530.783</ele>
        <time>2014-12-27T09:09:25Z</time>
      </trkpt>
      <trkpt lat="42.05149" lon="0.72634">
        <ele>1533.756</ele>
        <time>2014-12-27T09:09:19Z</time>
      </trkpt>
      <trkpt lat="42.05146" lon="0.72645">
        <ele>1536.157</ele>
        <time>2014-12-27T09:09:15Z</time>
      </trkpt>
      <trkpt lat="42.05142" lon="0.72659">
        <ele>1539.134</ele>
        <time>2014-12-27T09:09:10Z</time>
      </trkpt>
      <trkpt lat="42.0514" lon="0.72671">
        <ele>1541.388</ele>
        <time>2014-12-27T09:09:06Z</time>
      </trkpt>
      <trkpt lat="42.05139" lon="0.72685">
        <ele>1543.468</ele>
        <time>2014-12-27T09:09:02Z</time>
      </trkpt>
      <trkpt lat="42.05138" lon="0.72698">
        <ele>1545.742</ele>
        <time>2014-12-27T09:08:58Z</time>
      </trkpt>
      <trkpt lat="42.05137" lon="0.72712">
        <ele>1547.726</ele>
        <time>2014-12-27T09:08:54Z</time>
      </trkpt>
      <trkpt lat="42.05137" lon="0.72726">
        <ele>1549.608</ele>
        <time>2014-12-27T09:08:50Z</time>
      </trkpt>
      <trkpt lat="42.05137" lon="0.72741">
        <ele>1551.268</ele>
        <time>2014-12-27T09:08:46Z</time>
      </trkpt>
      <trkpt lat="42.05139" lon="0.72755">
        <ele>1552.067</ele>
        <time>2014-12-27T09:08:42Z</time>
      </trkpt>
      <trkpt lat="42.05147" lon="0.72765">
        <ele>1551.638</ele>
        <time>2014-12-27T09:08:39Z</time>
      </trkpt>
      <trkpt lat="42.05155" lon="0.72775">
        <ele>1552.33</ele>
        <time>2014-12-27T09:08:34Z</time>
      </trkpt>
      <trkpt lat="42.05161" lon="0.72787">
        <ele>1553.233</ele>
        <time>2014-12-27T09:08:30Z</time>
      </trkpt>
      <trkpt lat="42.05168" lon="0.72799">
        <ele>1555.124</ele>
        <time>2014-12-27T09:08:26Z</time>
      </trkpt>
      <trkpt lat="42.05173" lon="0.7281">
        <ele>1555.241</ele>
        <time>2014-12-27T09:08:22Z</time>
      </trkpt>
      <trkpt lat="42.05178" lon="0.72824">
        <ele>1555.565</ele>
        <time>2014-12-27T09:08:18Z</time>
      </trkpt>
      <trkpt lat="42.05184" lon="0.72837">
        <ele>1556.416</ele>
        <time>2014-12-27T09:08:14Z</time>
      </trkpt>
      <trkpt lat="42.0519" lon="0.72848">
        <ele>1557.876</ele>
        <time>2014-12-27T09:08:10Z</time>
      </trkpt>
      <trkpt lat="42.05191" lon="0.72864">
        <ele>1559.613</ele>
        <time>2014-12-27T09:08:06Z</time>
      </trkpt>
      <trkpt lat="42.05189" lon="0.72878">
        <ele>1562.008</ele>
        <time>2014-12-27T09:08:02Z</time>
      </trkpt>
      <trkpt lat="42.05185" lon="0.72891">
        <ele>1564.183</ele>
        <time>2014-12-27T09:07:58Z</time>
      </trkpt>
      <trkpt lat="42.05178" lon="0.729">
        <ele>1565.652</ele>
        <time>2014-12-27T09:07:54Z</time>
      </trkpt>
      <trkpt lat="42.05169" lon="0.72908">
        <ele>1567.153</ele>
        <time>2014-12-27T09:07:50Z</time>
      </trkpt>
      <trkpt lat="42.0516" lon="0.72916">
        <ele>1568.655</ele>
        <time>2014-12-27T09:07:45Z</time>
      </trkpt>
      <trkpt lat="42.05151" lon="0.72916">
        <ele>1569.698</ele>
        <time>2014-12-27T09:07:39Z</time>
      </trkpt>
      <trkpt lat="42.05142" lon="0.72918">
        <ele>1570.719</ele>
        <time>2014-12-27T09:07:32Z</time>
      </trkpt>
      <trkpt lat="42.05134" lon="0.72926">
        <ele>1570.426</ele>
        <time>2014-12-27T09:07:24Z</time>
      </trkpt>
      <trkpt lat="42.05129" lon="0.72937">
        <ele>1570.34</ele>
        <time>2014-12-27T09:07:16Z</time>
      </trkpt>
      <trkpt lat="42.05123" lon="0.72946">
        <ele>1570.492</ele>
        <time>2014-12-27T09:07:08Z</time>
      </trkpt>
      <trkpt lat="42.05118" lon="0.72958">
        <ele>1570.273</ele>
        <time>2014-12-27T09:07:01Z</time>
      </trkpt>
      <trkpt lat="42.05115" lon="0.72969">
        <ele>1570.22</ele>
        <time>2014-12-27T09:06:54Z</time>
      </trkpt>
      <trkpt lat="42.05113" lon="0.72983">
        <ele>1569.708</ele>
        <time>2014-12-27T09:06:47Z</time>
      </trkpt>
      <trkpt lat="42.05111" lon="0.72995">
        <ele>1569.211</ele>
        <time>2014-12-27T09:06:41Z</time>
      </trkpt>
      <trkpt lat="42.0511" lon="0.73009">
        <ele>1568.53</ele>
        <time>2014-12-27T09:06:32Z</time>
      </trkpt>
      <trkpt lat="42.05109" lon="0.73022">
        <ele>1567.751</ele>
        <time>2014-12-27T09:06:26Z</time>
      </trkpt>
      <trkpt lat="42.05108" lon="0.73035">
        <ele>1566.963</ele>
        <time>2014-12-27T09:06:18Z</time>
      </trkpt>
      <trkpt lat="42.05107" lon="0.73048">
        <ele>1566.126</ele>
        <time>2014-12-27T09:06:11Z</time>
      </trkpt>
      <trkpt lat="42.05105" lon="0.73062">
        <ele>1565.067</ele>
        <time>2014-12-27T09:06:02Z</time>
      </trkpt>
      <trkpt lat="42.05104" lon="0.73075">
        <ele>1563.744</ele>
        <time>2014-12-27T09:05:53Z</time>
      </trkpt>
      <trkpt lat="42.05104" lon="0.73087">
        <ele>1562.668</ele>
        <time>2014-12-27T09:05:45Z</time>
      </trkpt>
      <trkpt lat="42.05104" lon="0.731">
        <ele>1561.114</ele>
        <time>2014-12-27T09:05:36Z</time>
      </trkpt>
      <trkpt lat="42.05104" lon="0.73113">
        <ele>1559.754</ele>
        <time>2014-12-27T09:05:28Z</time>
      </trkpt>
      <trkpt lat="42.05105" lon="0.73126">
        <ele>1557.909</ele>
        <time>2014-12-27T09:05:19Z</time>
      </trkpt>
      <trkpt lat="42.05106" lon="0.73139">
        <ele>1556.208</ele>
        <time>2014-12-27T09:05:10Z</time>
      </trkpt>
      <trkpt lat="42.05107" lon="0.73151">
        <ele>1554.443</ele>
        <time>2014-12-27T09:05:01Z</time>
      </trkpt>
      <trkpt lat="42.0511" lon="0.73164">
        <ele>1552.592</ele>
        <time>2014-12-27T09:04:51Z</time>
      </trkpt>
      <trkpt lat="42.05113" lon="0.73175">
        <ele>1550.743</ele>
        <time>2014-12-27T09:04:42Z</time>
      </trkpt>
      <trkpt lat="42.05117" lon="0.73186">
        <ele>1549.025</ele>
        <time>2014-12-27T09:04:33Z</time>
      </trkpt>
      <trkpt lat="42.05121" lon="0.73198">
        <ele>1547.168</ele>
        <time>2014-12-27T09:04:24Z</time>
      </trkpt>
      <trkpt lat="42.05125" lon="0.73209">
        <ele>1545.259</ele>
        <time>2014-12-27T09:04:16Z</time>
      </trkpt>
      <trkpt lat="42.05129" lon="0.7322">
        <ele>1543.476</ele>
        <time>2014-12-27T09:04:08Z</time>
      </trkpt>
      <trkpt lat="42.05133" lon="0.7323">
        <ele>1541.84</ele>
        <time>2014-12-27T09:03:59Z</time>
      </trkpt>
      <trkpt lat="42.05136" lon="0.73242">
        <ele>1540.168</ele>
        <time>2014-12-27T09:03:50Z</time>
      </trkpt>
      <trkpt lat="42.0514" lon="0.73254">
        <ele>1538.242</ele>
        <time>2014-12-27T09:03:41Z</time>
      </trkpt>
      <trkpt lat="42.05144" lon="0.73266">
        <ele>1536.126</ele>
        <time>2014-12-27T09:03:33Z</time>
      </trkpt>
      <trkpt lat="42.05148" lon="0.73278">
        <ele>1534.008</ele>
        <time>2014-12-27T09:03:25Z</time>
      </trkpt>
      <trkpt lat="42.05153" lon="0.7329">
        <ele>1532.158</ele>
        <time>2014-12-27T09:03:17Z</time>
      </trkpt>
      <trkpt lat="42.05157" lon="0.73302">
        <ele>1530.337</ele>
        <time>2014-12-27T09:03:09Z</time>
      </trkpt>
      <trkpt lat="42.05162" lon="0.73312">
        <ele>1529.068</ele>
        <time>2014-12-27T09:03:02Z</time>
      </trkpt>
      <trkpt lat="42.05166" lon="0.73324">
        <ele>1528.07</ele>
        <time>2014-12-27T09:02:55Z</time>
      </trkpt>
      <trkpt lat="42.05172" lon="0.73334">
        <ele>1526.653</ele>
        <time>2014-12-27T09:02:48Z</time>
      </trkpt>
      <trkpt lat="42.05176" lon="0.73345">
        <ele>1525.294</ele>
        <time>2014-12-27T09:02:41Z</time>
      </trkpt>
      <trkpt lat="42.05182" lon="0.73356">
        <ele>1523.911</ele>
        <time>2014-12-27T09:02:35Z</time>
      </trkpt>
      <trkpt lat="42.05187" lon="0.73367">
        <ele>1522.875</ele>
        <time>2014-12-27T09:02:27Z</time>
      </trkpt>
      <trkpt lat="42.05191" lon="0.73379">
        <ele>1521.724</ele>
        <time>2014-12-27T09:02:21Z</time>
      </trkpt>
      <trkpt lat="42.05194" lon="0.73392">
        <ele>1520.804</ele>
        <time>2014-12-27T09:02:13Z</time>
      </trkpt>
      <trkpt lat="42.05197" lon="0.73405">
        <ele>1519.614</ele>
        <time>2014-12-27T09:02:07Z</time>
      </trkpt>
      <trkpt lat="42.05201" lon="0.73417">
        <ele>1518.308</ele>
        <time>2014-12-27T09:01:59Z</time>
      </trkpt>
      <trkpt lat="42.05204" lon="0.73428">
        <ele>1517.784</ele>
        <time>2014-12-27T09:01:53Z</time>
      </trkpt>
      <trkpt lat="42.05208" lon="0.7344">
        <ele>1517.193</ele>
        <time>2014-12-27T09:01:47Z</time>
      </trkpt>
      <trkpt lat="42.05212" lon="0.73453">
        <ele>1516.324</ele>
        <time>2014-12-27T09:01:41Z</time>
      </trkpt>
      <trkpt lat="42.05217" lon="0.73465">
        <ele>1515.556</ele>
        <time>2014-12-27T09:01:35Z</time>
      </trkpt>
      <trkpt lat="42.05225" lon="0.73476">
        <ele>1514.829</ele>
        <time>2014-12-27T09:01:27Z</time>
      </trkpt>
      <trkpt lat="42.05232" lon="0.73487">
        <ele>1514.52</ele>
        <time>2014-12-27T09:01:20Z</time>
      </trkpt>
      <trkpt lat="42.05238" lon="0.73498">
        <ele>1514.487</ele>
        <time>2014-12-27T09:01:13Z</time>
      </trkpt>
      <trkpt lat="42.05244" lon="0.73509">
        <ele>1514.291</ele>
        <time>2014-12-27T09:01:06Z</time>
      </trkpt>
      <trkpt lat="42.05248" lon="0.73522">
        <ele>1514.185</ele>
        <time>2014-12-27T09:01:00Z</time>
      </trkpt>
      <trkpt lat="42.05252" lon="0.73535">
        <ele>1514.289</ele>
        <time>2014-12-27T09:00:53Z</time>
      </trkpt>
      <trkpt lat="42.05255" lon="0.73548">
        <ele>1514.517</ele>
        <time>2014-12-27T09:00:47Z</time>
      </trkpt>
      <trkpt lat="42.05258" lon="0.7356">
        <ele>1514.608</ele>
        <time>2014-12-27T09:00:41Z</time>
      </trkpt>
      <trkpt lat="42.0526" lon="0.73573">
        <ele>1514.23</ele>
        <time>2014-12-27T09:00:35Z</time>
      </trkpt>
      <trkpt lat="42.05262" lon="0.73586">
        <ele>1513.929</ele>
        <time>2014-12-27T09:00:29Z</time>
      </trkpt>
      <trkpt lat="42.05263" lon="0.73598">
        <ele>1513.22</ele>
        <time>2014-12-27T09:00:23Z</time>
      </trkpt>
      <trkpt lat="42.05264" lon="0.73611">
        <ele>1512.562</ele>
        <time>2014-12-27T09:00:16Z</time>
      </trkpt>
      <trkpt lat="42.05264" lon="0.73624">
        <ele>1511.885</ele>
        <time>2014-12-27T09:00:10Z</time>
      </trkpt>
      <trkpt lat="42.05265" lon="0.73637">
        <ele>1511.276</ele>
        <time>2014-12-27T09:00:04Z</time>
      </trkpt>
      <trkpt lat="42.05265" lon="0.7365">
        <ele>1510.353</ele>
        <time>2014-12-27T08:59:58Z</time>
      </trkpt>
      <trkpt lat="42.05266" lon="0.73662">
        <ele>1509.557</ele>
        <time>2014-12-27T08:59:52Z</time>
      </trkpt>
      <trkpt lat="42.05266" lon="0.73675">
        <ele>1508.862</ele>
        <time>2014-12-27T08:59:46Z</time>
      </trkpt>
      <trkpt lat="42.05267" lon="0.73687">
        <ele>1508.283</ele>
        <time>2014-12-27T08:59:40Z</time>
      </trkpt>
      <trkpt lat="42.0527" lon="0.73702">
        <ele>1507.611</ele>
        <time>2014-12-27T08:59:33Z</time>
      </trkpt>
      <trkpt lat="42.05273" lon="0.73713">
        <ele>1507.208</ele>
        <time>2014-12-27T08:59:27Z</time>
      </trkpt>
      <trkpt lat="42.05278" lon="0.73725">
        <ele>1506.858</ele>
        <time>2014-12-27T08:59:21Z</time>
      </trkpt>
      <trkpt lat="42.05282" lon="0.73737">
        <ele>1505.967</ele>
        <time>2014-12-27T08:59:15Z</time>
      </trkpt>
      <trkpt lat="42.05285" lon="0.7375">
        <ele>1505.048</ele>
        <time>2014-12-27T08:59:09Z</time>
      </trkpt>
      <trkpt lat="42.05288" lon="0.73762">
        <ele>1504.62</ele>
        <time>2014-12-27T08:59:03Z</time>
      </trkpt>
      <trkpt lat="42.05291" lon="0.73774">
        <ele>1504.183</ele>
        <time>2014-12-27T08:58:57Z</time>
      </trkpt>
      <trkpt lat="42.05296" lon="0.73787">
        <ele>1503.654</ele>
        <time>2014-12-27T08:58:51Z</time>
      </trkpt>
      <trkpt lat="42.05299" lon="0.73798">
        <ele>1503.151</ele>
        <time>2014-12-27T08:58:45Z</time>
      </trkpt>
      <trkpt lat="42.05304" lon="0.73809">
        <ele>1503.045</ele>
        <time>2014-12-27T08:58:39Z</time>
      </trkpt>
      <trkpt lat="42.05309" lon="0.7382">
        <ele>1502.618</ele>
        <time>2014-12-27T08:58:33Z</time>
      </trkpt>
      <trkpt lat="42.05313" lon="0.73833">
        <ele>1502.198</ele>
        <time>2014-12-27T08:58:27Z</time>
      </trkpt>
      <trkpt lat="42.05314" lon="0.73847">
        <ele>1502.117</ele>
        <time>2014-12-27T08:58:23Z</time>
      </trkpt>
      <trkpt lat="42.05311" lon="0.73861">
        <ele>1502.408</ele>
        <time>2014-12-27T08:58:19Z</time>
      </trkpt>
      <trkpt lat="42.05309" lon="0.73874">
        <ele>1503.233</ele>
        <time>2014-12-27T08:58:15Z</time>
      </trkpt>
      <trkpt lat="42.05306" lon="0.73888">
        <ele>1504.022</ele>
        <time>2014-12-27T08:58:11Z</time>
      </trkpt>
      <trkpt lat="42.05303" lon="0.73902">
        <ele>1503.983</ele>
        <time>2014-12-27T08:58:07Z</time>
      </trkpt>
      <trkpt lat="42.053" lon="0.73915">
        <ele>1503.855</ele>
        <time>2014-12-27T08:58:03Z</time>
      </trkpt>
      <trkpt lat="42.05297" lon="0.73929">
        <ele>1504.338</ele>
        <time>2014-12-27T08:57:59Z</time>
      </trkpt>
      <trkpt lat="42.05294" lon="0.73943">
        <ele>1504.929</ele>
        <time>2014-12-27T08:57:55Z</time>
      </trkpt>
      <trkpt lat="42.05291" lon="0.73956">
        <ele>1505.416</ele>
        <time>2014-12-27T08:57:51Z</time>
      </trkpt>
      <trkpt lat="42.05288" lon="0.73969">
        <ele>1505.94</ele>
        <time>2014-12-27T08:57:47Z</time>
      </trkpt>
      <trkpt lat="42.05284" lon="0.73983">
        <ele>1506.454</ele>
        <time>2014-12-27T08:57:43Z</time>
      </trkpt>
      <trkpt lat="42.05281" lon="0.73998">
        <ele>1506.956</ele>
        <time>2014-12-27T08:57:39Z</time>
      </trkpt>
      <trkpt lat="42.05279" lon="0.74012">
        <ele>1507.411</ele>
        <time>2014-12-27T08:57:35Z</time>
      </trkpt>
      <trkpt lat="42.05278" lon="0.74025">
        <ele>1507.908</ele>
        <time>2014-12-27T08:57:30Z</time>
      </trkpt>
      <trkpt lat="42.05276" lon="0.74038">
        <ele>1507.477</ele>
        <time>2014-12-27T08:57:24Z</time>
      </trkpt>
      <trkpt lat="42.05274" lon="0.74051">
        <ele>1506.946</ele>
        <time>2014-12-27T08:57:18Z</time>
      </trkpt>
      <trkpt lat="42.05271" lon="0.74064">
        <ele>1506.487</ele>
        <time>2014-12-27T08:57:12Z</time>
      </trkpt>
      <trkpt lat="42.0527" lon="0.74078">
        <ele>1506.479</ele>
        <time>2014-12-27T08:57:06Z</time>
      </trkpt>
      <trkpt lat="42.0527" lon="0.74091">
        <ele>1506.182</ele>
        <time>2014-12-27T08:57:00Z</time>
      </trkpt>
      <trkpt lat="42.05272" lon="0.74106">
        <ele>1505.983</ele>
        <time>2014-12-27T08:56:54Z</time>
      </trkpt>
      <trkpt lat="42.05271" lon="0.74119">
        <ele>1505.43</ele>
        <time>2014-12-27T08:56:48Z</time>
      </trkpt>
      <trkpt lat="42.05271" lon="0.74132">
        <ele>1505.054</ele>
        <time>2014-12-27T08:56:42Z</time>
      </trkpt>
      <trkpt lat="42.0527" lon="0.74145">
        <ele>1504.435</ele>
        <time>2014-12-27T08:56:36Z</time>
      </trkpt>
      <trkpt lat="42.05268" lon="0.74157">
        <ele>1503.886</ele>
        <time>2014-12-27T08:56:30Z</time>
      </trkpt>
      <trkpt lat="42.05265" lon="0.74169">
        <ele>1503.114</ele>
        <time>2014-12-27T08:56:24Z</time>
      </trkpt>
      <trkpt lat="42.05264" lon="0.74182">
        <ele>1502.508</ele>
        <time>2014-12-27T08:56:18Z</time>
      </trkpt>
      <trkpt lat="42.05264" lon="0.74194">
        <ele>1502.025</ele>
        <time>2014-12-27T08:56:12Z</time>
      </trkpt>
      <trkpt lat="42.05263" lon="0.74207">
        <ele>1501.254</ele>
        <time>2014-12-27T08:56:06Z</time>
      </trkpt>
      <trkpt lat="42.05262" lon="0.7422">
        <ele>1500.495</ele>
        <time>2014-12-27T08:56:00Z</time>
      </trkpt>
      <trkpt lat="42.05262" lon="0.74233">
        <ele>1499.757</ele>
        <time>2014-12-27T08:55:54Z</time>
      </trkpt>
      <trkpt lat="42.05261" lon="0.74246">
        <ele>1499.07</ele>
        <time>2014-12-27T08:55:48Z</time>
      </trkpt>
      <trkpt lat="42.05261" lon="0.74259">
        <ele>1498.691</ele>
        <time>2014-12-27T08:55:42Z</time>
      </trkpt>
      <trkpt lat="42.05261" lon="0.74272">
        <ele>1498.558</ele>
        <time>2014-12-27T08:55:36Z</time>
      </trkpt>
      <trkpt lat="42.0526" lon="0.74286">
        <ele>1498.132</ele>
        <time>2014-12-27T08:55:30Z</time>
      </trkpt>
      <trkpt lat="42.05259" lon="0.74298">
        <ele>1497.618</ele>
        <time>2014-12-27T08:55:24Z</time>
      </trkpt>
      <trkpt lat="42.05258" lon="0.74311">
        <ele>1497.098</ele>
        <time>2014-12-27T08:55:18Z</time>
      </trkpt>
      <trkpt lat="42.05257" lon="0.74325">
        <ele>1496.417</ele>
        <time>2014-12-27T08:55:12Z</time>
      </trkpt>
      <trkpt lat="42.05255" lon="0.74338">
        <ele>1495.708</ele>
        <time>2014-12-27T08:55:06Z</time>
      </trkpt>
      <trkpt lat="42.05252" lon="0.74351">
        <ele>1494.713</ele>
        <time>2014-12-27T08:54:59Z</time>
      </trkpt>
      <trkpt lat="42.05243" lon="0.74352">
        <ele>1494.582</ele>
        <time>2014-12-27T08:54:53Z</time>
      </trkpt>
      <trkpt lat="42.05234" lon="0.74348">
        <ele>1494.433</ele>
        <time>2014-12-27T08:54:47Z</time>
      </trkpt>
      <trkpt lat="42.05224" lon="0.74345">
        <ele>1494.195</ele>
        <time>2014-12-27T08:54:41Z</time>
      </trkpt>
      <trkpt lat="42.05215" lon="0.74342">
        <ele>1493.758</ele>
        <time>2014-12-27T08:54:35Z</time>
      </trkpt>
      <trkpt lat="42.05205" lon="0.74338">
        <ele>1493.499</ele>
        <time>2014-12-27T08:54:29Z</time>
      </trkpt>
      <trkpt lat="42.05196" lon="0.74335">
        <ele>1493.126</ele>
        <time>2014-12-27T08:54:23Z</time>
      </trkpt>
      <trkpt lat="42.05185" lon="0.74333">
        <ele>1493.31</ele>
        <time>2014-12-27T08:54:17Z</time>
      </trkpt>
      <trkpt lat="42.05175" lon="0.74331">
        <ele>1493.662</ele>
        <time>2014-12-27T08:54:11Z</time>
      </trkpt>
      <trkpt lat="42.05166" lon="0.74328">
        <ele>1493.883</ele>
        <time>2014-12-27T08:54:05Z</time>
      </trkpt>
      <trkpt lat="42.05156" lon="0.74326">
        <ele>1493.711</ele>
        <time>2014-12-27T08:53:59Z</time>
      </trkpt>
      <trkpt lat="42.05146" lon="0.74322">
        <ele>1493.608</ele>
        <time>2014-12-27T08:53:52Z</time>
      </trkpt>
      <trkpt lat="42.05136" lon="0.7432">
        <ele>1493.548</ele>
        <time>2014-12-27T08:53:46Z</time>
      </trkpt>
      <trkpt lat="42.05127" lon="0.74317">
        <ele>1493.677</ele>
        <time>2014-12-27T08:53:40Z</time>
      </trkpt>
      <trkpt lat="42.05117" lon="0.74315">
        <ele>1493.648</ele>
        <time>2014-12-27T08:53:33Z</time>
      </trkpt>
      <trkpt lat="42.05108" lon="0.74313">
        <ele>1493.77</ele>
        <time>2014-12-27T08:53:27Z</time>
      </trkpt>
      <trkpt lat="42.05098" lon="0.74311">
        <ele>1493.963</ele>
        <time>2014-12-27T08:53:21Z</time>
      </trkpt>
      <trkpt lat="42.05088" lon="0.74309">
        <ele>1494.144</ele>
        <time>2014-12-27T08:53:14Z</time>
      </trkpt>
      <trkpt lat="42.05078" lon="0.74306">
        <ele>1494.331</ele>
        <time>2014-12-27T08:53:08Z</time>
      </trkpt>
      <trkpt lat="42.05069" lon="0.74303">
        <ele>1494.445</ele>
        <time>2014-12-27T08:53:01Z</time>
      </trkpt>
      <trkpt lat="42.05059" lon="0.743">
        <ele>1494.558</ele>
        <time>2014-12-27T08:52:55Z</time>
      </trkpt>
      <trkpt lat="42.0505" lon="0.74297">
        <ele>1494.652</ele>
        <time>2014-12-27T08:52:48Z</time>
      </trkpt>
      <trkpt lat="42.05042" lon="0.74292">
        <ele>1494.517</ele>
        <time>2014-12-27T08:52:43Z</time>
      </trkpt>
      <trkpt lat="42.05032" lon="0.74288">
        <ele>1494.508</ele>
        <time>2014-12-27T08:52:38Z</time>
      </trkpt>
      <trkpt lat="42.05022" lon="0.74283">
        <ele>1495.067</ele>
        <time>2014-12-27T08:52:35Z</time>
      </trkpt>
      <trkpt lat="42.05013" lon="0.74278">
        <ele>1495.756</ele>
        <time>2014-12-27T08:52:31Z</time>
      </trkpt>
      <trkpt lat="42.05003" lon="0.74271">
        <ele>1496.547</ele>
        <time>2014-12-27T08:52:27Z</time>
      </trkpt>
      <trkpt lat="42.04993" lon="0.74264">
        <ele>1497.769</ele>
        <time>2014-12-27T08:52:23Z</time>
      </trkpt>
      <trkpt lat="42.04983" lon="0.74256">
        <ele>1498.812</ele>
        <time>2014-12-27T08:52:19Z</time>
      </trkpt>
      <trkpt lat="42.04973" lon="0.74248">
        <ele>1499.613</ele>
        <time>2014-12-27T08:52:15Z</time>
      </trkpt>
      <trkpt lat="42.04964" lon="0.74243">
        <ele>1500.67</ele>
        <time>2014-12-27T08:52:10Z</time>
      </trkpt>
      <trkpt lat="42.04954" lon="0.74236">
        <ele>1501.774</ele>
        <time>2014-12-27T08:52:06Z</time>
      </trkpt>
      <trkpt lat="42.04945" lon="0.74231">
        <ele>1502.836</ele>
        <time>2014-12-27T08:52:02Z</time>
      </trkpt>
      <trkpt lat="42.04935" lon="0.74228">
        <ele>1504.917</ele>
        <time>2014-12-27T08:51:58Z</time>
      </trkpt>
      <trkpt lat="42.04925" lon="0.74226">
        <ele>1507.218</ele>
        <time>2014-12-27T08:51:54Z</time>
      </trkpt>
      <trkpt lat="42.04914" lon="0.74226">
        <ele>1510.108</ele>
        <time>2014-12-27T08:51:49Z</time>
      </trkpt>
      <trkpt lat="42.04903" lon="0.74227">
        <ele>1513.455</ele>
        <time>2014-12-27T08:51:44Z</time>
      </trkpt>
      <trkpt lat="42.04893" lon="0.7423">
        <ele>1516.374</ele>
        <time>2014-12-27T08:51:39Z</time>
      </trkpt>
      <trkpt lat="42.04883" lon="0.74231">
        <ele>1518.685</ele>
        <time>2014-12-27T08:51:34Z</time>
      </trkpt>
      <trkpt lat="42.04873" lon="0.74233">
        <ele>1520.737</ele>
        <time>2014-12-27T08:51:29Z</time>
      </trkpt>
      <trkpt lat="42.04864" lon="0.74233">
        <ele>1522.43</ele>
        <time>2014-12-27T08:51:25Z</time>
      </trkpt>
      <trkpt lat="42.04852" lon="0.74235">
        <ele>1525.071</ele>
        <time>2014-12-27T08:51:21Z</time>
      </trkpt>
      <trkpt lat="42.04841" lon="0.74238">
        <ele>1527.368</ele>
        <time>2014-12-27T08:51:17Z</time>
      </trkpt>
      <trkpt lat="42.0483" lon="0.74238">
        <ele>1529.172</ele>
        <time>2014-12-27T08:51:11Z</time>
      </trkpt>
      <trkpt lat="42.04821" lon="0.74243">
        <ele>1530.427</ele>
        <time>2014-12-27T08:51:04Z</time>
      </trkpt>
      <trkpt lat="42.04813" lon="0.74248">
        <ele>1531.468</ele>
        <time>2014-12-27T08:50:57Z</time>
      </trkpt>
      <trkpt lat="42.04811" lon="0.74259">
        <ele>1532.114</ele>
        <time>2014-12-27T08:50:50Z</time>
      </trkpt>
      <trkpt lat="42.04811" lon="0.74273">
        <ele>1533.008</ele>
        <time>2014-12-27T08:50:42Z</time>
      </trkpt>
      <trkpt lat="42.04811" lon="0.74286">
        <ele>1533.974</ele>
        <time>2014-12-27T08:50:35Z</time>
      </trkpt>
      <trkpt lat="42.04809" lon="0.74298">
        <ele>1534.833</ele>
        <time>2014-12-27T08:50:29Z</time>
      </trkpt>
      <trkpt lat="42.04805" lon="0.74313">
        <ele>1535.754</ele>
        <time>2014-12-27T08:50:22Z</time>
      </trkpt>
      <trkpt lat="42.04802" lon="0.74325">
        <ele>1536.366</ele>
        <time>2014-12-27T08:50:16Z</time>
      </trkpt>
      <trkpt lat="42.04799" lon="0.74339">
        <ele>1537.119</ele>
        <time>2014-12-27T08:50:09Z</time>
      </trkpt>
      <trkpt lat="42.04796" lon="0.74353">
        <ele>1538.41</ele>
        <time>2014-12-27T08:50:02Z</time>
      </trkpt>
      <trkpt lat="42.04793" lon="0.74365">
        <ele>1539.567</ele>
        <time>2014-12-27T08:49:55Z</time>
      </trkpt>
      <trkpt lat="42.0479" lon="0.74377">
        <ele>1540.431</ele>
        <time>2014-12-27T08:49:51Z</time>
      </trkpt>
      <trkpt lat="42.04787" lon="0.7439">
        <ele>1541.596</ele>
        <time>2014-12-27T08:49:45Z</time>
      </trkpt>
      <trkpt lat="42.04784" lon="0.74403">
        <ele>1542.731</ele>
        <time>2014-12-27T08:49:40Z</time>
      </trkpt>
      <trkpt lat="42.04781" lon="0.74416">
        <ele>1544.524</ele>
        <time>2014-12-27T08:49:33Z</time>
      </trkpt>
      <trkpt lat="42.04778" lon="0.74429">
        <ele>1546.208</ele>
        <time>2014-12-27T08:49:25Z</time>
      </trkpt>
      <trkpt lat="42.04774" lon="0.74441">
        <ele>1547.671</ele>
        <time>2014-12-27T08:49:18Z</time>
      </trkpt>
      <trkpt lat="42.04769" lon="0.74454">
        <ele>1548.46</ele>
        <time>2014-12-27T08:49:11Z</time>
      </trkpt>
      <trkpt lat="42.04764" lon="0.74467">
        <ele>1549.311</ele>
        <time>2014-12-27T08:49:04Z</time>
      </trkpt>
      <trkpt lat="42.0476" lon="0.74478">
        <ele>1550.123</ele>
        <time>2014-12-27T08:48:57Z</time>
      </trkpt>
      <trkpt lat="42.04754" lon="0.7449">
        <ele>1550.986</ele>
        <time>2014-12-27T08:48:49Z</time>
      </trkpt>
      <trkpt lat="42.04749" lon="0.74502">
        <ele>1552.157</ele>
        <time>2014-12-27T08:48:41Z</time>
      </trkpt>
      <trkpt lat="42.04743" lon="0.74513">
        <ele>1552.954</ele>
        <time>2014-12-27T08:48:33Z</time>
      </trkpt>
      <trkpt lat="42.04737" lon="0.74524">
        <ele>1554.078</ele>
        <time>2014-12-27T08:48:26Z</time>
      </trkpt>
      <trkpt lat="42.04732" lon="0.74535">
        <ele>1554.917</ele>
        <time>2014-12-27T08:48:18Z</time>
      </trkpt>
      <trkpt lat="42.04725" lon="0.74544">
        <ele>1555.887</ele>
        <time>2014-12-27T08:48:11Z</time>
      </trkpt>
      <trkpt lat="42.04718" lon="0.74555">
        <ele>1557.115</ele>
        <time>2014-12-27T08:48:03Z</time>
      </trkpt>
      <trkpt lat="42.04711" lon="0.74565">
        <ele>1557.308</ele>
        <time>2014-12-27T08:47:56Z</time>
      </trkpt>
      <trkpt lat="42.04705" lon="0.74574">
        <ele>1557.753</ele>
        <time>2014-12-27T08:47:49Z</time>
      </trkpt>
      <trkpt lat="42.04699" lon="0.74583">
        <ele>1558.562</ele>
        <time>2014-12-27T08:47:43Z</time>
      </trkpt>
      <trkpt lat="42.04693" lon="0.74593">
        <ele>1558.913</ele>
        <time>2014-12-27T08:47:37Z</time>
      </trkpt>
      <trkpt lat="42.04685" lon="0.74603">
        <ele>1559.635</ele>
        <time>2014-12-27T08:47:32Z</time>
      </trkpt>
      <trkpt lat="42.04678" lon="0.74612">
        <ele>1560.358</ele>
        <time>2014-12-27T08:47:28Z</time>
      </trkpt>
      <trkpt lat="42.04671" lon="0.74621">
        <ele>1560.839</ele>
        <time>2014-12-27T08:47:25Z</time>
      </trkpt>
      <trkpt lat="42.04665" lon="0.74631">
        <ele>1561.576</ele>
        <time>2014-12-27T08:47:20Z</time>
      </trkpt>
      <trkpt lat="42.04659" lon="0.74641">
        <ele>1562.19</ele>
        <time>2014-12-27T08:47:17Z</time>
      </trkpt>
      <trkpt lat="42.04653" lon="0.74652">
        <ele>1562.713</ele>
        <time>2014-12-27T08:47:13Z</time>
      </trkpt>
      <trkpt lat="42.04649" lon="0.74664">
        <ele>1563.143</ele>
        <time>2014-12-27T08:47:08Z</time>
      </trkpt>
      <trkpt lat="42.04646" lon="0.74676">
        <ele>1563.807</ele>
        <time>2014-12-27T08:47:04Z</time>
      </trkpt>
      <trkpt lat="42.04644" lon="0.74689">
        <ele>1564.408</ele>
        <time>2014-12-27T08:47:00Z</time>
      </trkpt>
      <trkpt lat="42.04642" lon="0.74702">
        <ele>1565.043</ele>
        <time>2014-12-27T08:46:56Z</time>
      </trkpt>
      <trkpt lat="42.04642" lon="0.74715">
        <ele>1565.112</ele>
        <time>2014-12-27T08:46:52Z</time>
      </trkpt>
      <trkpt lat="42.04643" lon="0.74727">
        <ele>1565.213</ele>
        <time>2014-12-27T08:46:48Z</time>
      </trkpt>
      <trkpt lat="42.04643" lon="0.7474">
        <ele>1565.685</ele>
        <time>2014-12-27T08:46:44Z</time>
      </trkpt>
      <trkpt lat="42.04643" lon="0.74753">
        <ele>1566.018</ele>
        <time>2014-12-27T08:46:40Z</time>
      </trkpt>
      <trkpt lat="42.04643" lon="0.74766">
        <ele>1566.429</ele>
        <time>2014-12-27T08:46:36Z</time>
      </trkpt>
      <trkpt lat="42.04644" lon="0.74781">
        <ele>1566.956</ele>
        <time>2014-12-27T08:46:31Z</time>
      </trkpt>
      <trkpt lat="42.04644" lon="0.74795">
        <ele>1567.83</ele>
        <time>2014-12-27T08:46:27Z</time>
      </trkpt>
      <trkpt lat="42.04645" lon="0.74808">
        <ele>1568.493</ele>
        <time>2014-12-27T08:46:23Z</time>
      </trkpt>
      <trkpt lat="42.04646" lon="0.74821">
        <ele>1569.065</ele>
        <time>2014-12-27T08:46:19Z</time>
      </trkpt>
      <trkpt lat="42.04648" lon="0.74835">
        <ele>1569.621</ele>
        <time>2014-12-27T08:46:15Z</time>
      </trkpt>
      <trkpt lat="42.04649" lon="0.74849">
        <ele>1569.608</ele>
        <time>2014-12-27T08:46:11Z</time>
      </trkpt>
      <trkpt lat="42.04651" lon="0.74861">
        <ele>1569.611</ele>
        <time>2014-12-27T08:46:07Z</time>
      </trkpt>
      <trkpt lat="42.04652" lon="0.74874">
        <ele>1570.24</ele>
        <time>2014-12-27T08:46:03Z</time>
      </trkpt>
      <trkpt lat="42.04653" lon="0.74887">
        <ele>1570.951</ele>
        <time>2014-12-27T08:45:59Z</time>
      </trkpt>
      <trkpt lat="42.04653" lon="0.74899">
        <ele>1571.263</ele>
        <time>2014-12-27T08:45:55Z</time>
      </trkpt>
      <trkpt lat="42.04653" lon="0.74912">
        <ele>1571.576</ele>
        <time>2014-12-27T08:45:51Z</time>
      </trkpt>
      <trkpt lat="42.04652" lon="0.74925">
        <ele>1571.837</ele>
        <time>2014-12-27T08:45:47Z</time>
      </trkpt>
      <trkpt lat="42.04651" lon="0.7494">
        <ele>1572.394</ele>
        <time>2014-12-27T08:45:42Z</time>
      </trkpt>
      <trkpt lat="42.04649" lon="0.74952">
        <ele>1572.728</ele>
        <time>2014-12-27T08:45:38Z</time>
      </trkpt>
      <trkpt lat="42.04645" lon="0.74967">
        <ele>1573.025</ele>
        <time>2014-12-27T08:45:33Z</time>
      </trkpt>
      <trkpt lat="42.0464" lon="0.74977">
        <ele>1573.526</ele>
        <time>2014-12-27T08:45:29Z</time>
      </trkpt>
      <trkpt lat="42.04632" lon="0.74987">
        <ele>1574.408</ele>
        <time>2014-12-27T08:45:24Z</time>
      </trkpt>
      <trkpt lat="42.04625" lon="0.74994">
        <ele>1575.608</ele>
        <time>2014-12-27T08:45:20Z</time>
      </trkpt>
      <trkpt lat="42.04616" lon="0.75003">
        <ele>1576.724</ele>
        <time>2014-12-27T08:45:15Z</time>
      </trkpt>
      <trkpt lat="42.04607" lon="0.7501">
        <ele>1577.883</ele>
        <time>2014-12-27T08:45:11Z</time>
      </trkpt>
      <trkpt lat="42.04598" lon="0.75017">
        <ele>1578.554</ele>
        <time>2014-12-27T08:45:07Z</time>
      </trkpt>
      <trkpt lat="42.04588" lon="0.75023">
        <ele>1579.126</ele>
        <time>2014-12-27T08:45:03Z</time>
      </trkpt>
      <trkpt lat="42.04577" lon="0.75029">
        <ele>1579.779</ele>
        <time>2014-12-27T08:44:59Z</time>
      </trkpt>
      <trkpt lat="42.04567" lon="0.75033">
        <ele>1580.26</ele>
        <time>2014-12-27T08:44:56Z</time>
      </trkpt>
      <trkpt lat="42.04556" lon="0.75038">
        <ele>1580.827</ele>
        <time>2014-12-27T08:44:51Z</time>
      </trkpt>
      <trkpt lat="42.04545" lon="0.75042">
        <ele>1581.261</ele>
        <time>2014-12-27T08:44:48Z</time>
      </trkpt>
      <trkpt lat="42.04534" lon="0.75045">
        <ele>1582.114</ele>
        <time>2014-12-27T08:44:44Z</time>
      </trkpt>
      <trkpt lat="42.04523" lon="0.75048">
        <ele>1583.054</ele>
        <time>2014-12-27T08:44:40Z</time>
      </trkpt>
      <trkpt lat="42.04512" lon="0.75052">
        <ele>1583.909</ele>
        <time>2014-12-27T08:44:35Z</time>
      </trkpt>
      <trkpt lat="42.045" lon="0.75058">
        <ele>1584.508</ele>
        <time>2014-12-27T08:44:31Z</time>
      </trkpt>
      <trkpt lat="42.0449" lon="0.75063">
        <ele>1585.153</ele>
        <time>2014-12-27T08:44:27Z</time>
      </trkpt>
      <trkpt lat="42.0448" lon="0.75069">
        <ele>1585.872</ele>
        <time>2014-12-27T08:44:23Z</time>
      </trkpt>
      <trkpt lat="42.0447" lon="0.75076">
        <ele>1586.593</ele>
        <time>2014-12-27T08:44:19Z</time>
      </trkpt>
      <trkpt lat="42.04462" lon="0.75086">
        <ele>1586.555</ele>
        <time>2014-12-27T08:44:15Z</time>
      </trkpt>
      <trkpt lat="42.04453" lon="0.75097">
        <ele>1586.628</ele>
        <time>2014-12-27T08:44:11Z</time>
      </trkpt>
      <trkpt lat="42.04446" lon="0.75107">
        <ele>1587.039</ele>
        <time>2014-12-27T08:44:07Z</time>
      </trkpt>
      <trkpt lat="42.04439" lon="0.7512">
        <ele>1586.366</ele>
        <time>2014-12-27T08:44:03Z</time>
      </trkpt>
      <trkpt lat="42.04433" lon="0.75132">
        <ele>1585.47</ele>
        <time>2014-12-27T08:43:59Z</time>
      </trkpt>
      <trkpt lat="42.04428" lon="0.75146">
        <ele>1585.699</ele>
        <time>2014-12-27T08:43:55Z</time>
      </trkpt>
      <trkpt lat="42.04425" lon="0.75161">
        <ele>1587.007</ele>
        <time>2014-12-27T08:43:51Z</time>
      </trkpt>
      <trkpt lat="42.04424" lon="0.75173">
        <ele>1588.027</ele>
        <time>2014-12-27T08:43:48Z</time>
      </trkpt>
      <trkpt lat="42.04423" lon="0.75188">
        <ele>1589.308</ele>
        <time>2014-12-27T08:43:44Z</time>
      </trkpt>
      <trkpt lat="42.04423" lon="0.75203">
        <ele>1590.531</ele>
        <time>2014-12-27T08:43:41Z</time>
      </trkpt>
      <trkpt lat="42.04424" lon="0.7522">
        <ele>1592.03</ele>
        <time>2014-12-27T08:43:36Z</time>
      </trkpt>
      <trkpt lat="42.04424" lon="0.75235">
        <ele>1593.521</ele>
        <time>2014-12-27T08:43:32Z</time>
      </trkpt>
      <trkpt lat="42.04424" lon="0.75251">
        <ele>1595.183</ele>
        <time>2014-12-27T08:43:28Z</time>
      </trkpt>
      <trkpt lat="42.04424" lon="0.75267">
        <ele>1595.936</ele>
        <time>2014-12-27T08:43:24Z</time>
      </trkpt>
      <trkpt lat="42.04424" lon="0.75282">
        <ele>1596.867</ele>
        <time>2014-12-27T08:43:21Z</time>
      </trkpt>
      <trkpt lat="42.04423" lon="0.75298">
        <ele>1598.174</ele>
        <time>2014-12-27T08:43:17Z</time>
      </trkpt>
      <trkpt lat="42.04423" lon="0.75314">
        <ele>1599.068</ele>
        <time>2014-12-27T08:43:12Z</time>
      </trkpt>
      <trkpt lat="42.04423" lon="0.75331">
        <ele>1599.842</ele>
        <time>2014-12-27T08:43:08Z</time>
      </trkpt>
      <trkpt lat="42.04422" lon="0.75345">
        <ele>1600.122</ele>
        <time>2014-12-27T08:43:04Z</time>
      </trkpt>
      <trkpt lat="42.0442" lon="0.75361">
        <ele>1600.514</ele>
        <time>2014-12-27T08:43:00Z</time>
      </trkpt>
      <trkpt lat="42.04418" lon="0.75375">
        <ele>1600.808</ele>
        <time>2014-12-27T08:42:56Z</time>
      </trkpt>
      <trkpt lat="42.04414" lon="0.75389">
        <ele>1601.326</ele>
        <time>2014-12-27T08:42:49Z</time>
      </trkpt>
      <trkpt lat="42.04412" lon="0.75398">
        <ele>1601.125</ele>
        <time>2014-12-27T08:42:01Z</time>
      </trkpt>
      <trkpt lat="42.04406" lon="0.75408">
        <ele>1601.546</ele>
        <time>2014-12-27T08:41:56Z</time>
      </trkpt>
      <trkpt lat="42.04398" lon="0.75418">
        <ele>1602.218</ele>
        <time>2014-12-27T08:41:52Z</time>
      </trkpt>
      <trkpt lat="42.0439" lon="0.75426">
        <ele>1602.111</ele>
        <time>2014-12-27T08:41:48Z</time>
      </trkpt>
      <trkpt lat="42.04381" lon="0.75433">
        <ele>1602.282</ele>
        <time>2014-12-27T08:41:44Z</time>
      </trkpt>
      <trkpt lat="42.04372" lon="0.7544">
        <ele>1602.349</ele>
        <time>2014-12-27T08:41:41Z</time>
      </trkpt>
      <trkpt lat="42.04363" lon="0.75446">
        <ele>1602.483</ele>
        <time>2014-12-27T08:41:36Z</time>
      </trkpt>
      <trkpt lat="42.04354" lon="0.75453">
        <ele>1602.689</ele>
        <time>2014-12-27T08:41:32Z</time>
      </trkpt>
      <trkpt lat="42.04346" lon="0.7546">
        <ele>1602.806</ele>
        <time>2014-12-27T08:41:28Z</time>
      </trkpt>
      <trkpt lat="42.04337" lon="0.75467">
        <ele>1603.226</ele>
        <time>2014-12-27T08:41:24Z</time>
      </trkpt>
      <trkpt lat="42.04328" lon="0.75472">
        <ele>1603.208</ele>
        <time>2014-12-27T08:41:20Z</time>
      </trkpt>
      <trkpt lat="42.04319" lon="0.75476">
        <ele>1603.06</ele>
        <time>2014-12-27T08:41:15Z</time>
      </trkpt>
      <trkpt lat="42.0431" lon="0.75481">
        <ele>1603.329</ele>
        <time>2014-12-27T08:41:09Z</time>
      </trkpt>
      <trkpt lat="42.04302" lon="0.75489">
        <ele>1602.53</ele>
        <time>2014-12-27T08:41:03Z</time>
      </trkpt>
      <trkpt lat="42.04296" lon="0.755">
        <ele>1601.682</ele>
        <time>2014-12-27T08:40:59Z</time>
      </trkpt>
      <trkpt lat="42.04291" lon="0.75512">
        <ele>1601.465</ele>
        <time>2014-12-27T08:40:55Z</time>
      </trkpt>
      <trkpt lat="42.04286" lon="0.75523">
        <ele>1602.446</ele>
        <time>2014-12-27T08:40:51Z</time>
      </trkpt>
      <trkpt lat="42.04282" lon="0.75535">
        <ele>1603.693</ele>
        <time>2014-12-27T08:40:47Z</time>
      </trkpt>
      <trkpt lat="42.04278" lon="0.75548">
        <ele>1604.747</ele>
        <time>2014-12-27T08:40:43Z</time>
      </trkpt>
      <trkpt lat="42.04274" lon="0.75562">
        <ele>1603.392</ele>
        <time>2014-12-27T08:40:39Z</time>
      </trkpt>
      <trkpt lat="42.04271" lon="0.75575">
        <ele>1603.173</ele>
        <time>2014-12-27T08:40:36Z</time>
      </trkpt>
      <trkpt lat="42.04268" lon="0.75589">
        <ele>1604.32</ele>
        <time>2014-12-27T08:40:31Z</time>
      </trkpt>
      <trkpt lat="42.04265" lon="0.75602">
        <ele>1606.308</ele>
        <time>2014-12-27T08:40:27Z</time>
      </trkpt>
      <trkpt lat="42.04263" lon="0.75616">
        <ele>1608.431</ele>
        <time>2014-12-27T08:40:23Z</time>
      </trkpt>
      <trkpt lat="42.04259" lon="0.7563">
        <ele>1609.71</ele>
        <time>2014-12-27T08:40:20Z</time>
      </trkpt>
      <trkpt lat="42.04256" lon="0.75645">
        <ele>1611.071</ele>
        <time>2014-12-27T08:40:15Z</time>
      </trkpt>
      <trkpt lat="42.04254" lon="0.7566">
        <ele>1611.633</ele>
        <time>2014-12-27T08:40:11Z</time>
      </trkpt>
      <trkpt lat="42.04253" lon="0.75674">
        <ele>1612.296</ele>
        <time>2014-12-27T08:40:07Z</time>
      </trkpt>
      <trkpt lat="42.0425" lon="0.75688">
        <ele>1613.067</ele>
        <time>2014-12-27T08:40:04Z</time>
      </trkpt>
      <trkpt lat="42.04247" lon="0.75702">
        <ele>1613.674</ele>
        <time>2014-12-27T08:40:00Z</time>
      </trkpt>
      <trkpt lat="42.04244" lon="0.75716">
        <ele>1614.418</ele>
        <time>2014-12-27T08:39:55Z</time>
      </trkpt>
      <trkpt lat="42.04242" lon="0.7573">
        <ele>1614.815</ele>
        <time>2014-12-27T08:39:51Z</time>
      </trkpt>
      <trkpt lat="42.0424" lon="0.75744">
        <ele>1614.965</ele>
        <time>2014-12-27T08:39:47Z</time>
      </trkpt>
      <trkpt lat="42.04238" lon="0.75757">
        <ele>1615.311</ele>
        <time>2014-12-27T08:39:44Z</time>
      </trkpt>
      <trkpt lat="42.04237" lon="0.75773">
        <ele>1616.108</ele>
        <time>2014-12-27T08:39:38Z</time>
      </trkpt>
      <trkpt lat="42.04237" lon="0.75785">
        <ele>1616.853</ele>
        <time>2014-12-27T08:39:34Z</time>
      </trkpt>
      <trkpt lat="42.04237" lon="0.758">
        <ele>1617.642</ele>
        <time>2014-12-27T08:39:30Z</time>
      </trkpt>
      <trkpt lat="42.04238" lon="0.75815">
        <ele>1618.553</ele>
        <time>2014-12-27T08:39:26Z</time>
      </trkpt>
      <trkpt lat="42.04238" lon="0.75829">
        <ele>1619.175</ele>
        <time>2014-12-27T08:39:23Z</time>
      </trkpt>
      <trkpt lat="42.04238" lon="0.75843">
        <ele>1619.748</ele>
        <time>2014-12-27T08:39:18Z</time>
      </trkpt>
      <trkpt lat="42.0424" lon="0.75857">
        <ele>1620.139</ele>
        <time>2014-12-27T08:39:14Z</time>
      </trkpt>
      <trkpt lat="42.04241" lon="0.7587">
        <ele>1620.986</ele>
        <time>2014-12-27T08:39:10Z</time>
      </trkpt>
      <trkpt lat="42.04243" lon="0.75884">
        <ele>1621.87</ele>
        <time>2014-12-27T08:39:06Z</time>
      </trkpt>
      <trkpt lat="42.04245" lon="0.75898">
        <ele>1622.353</ele>
        <time>2014-12-27T08:39:02Z</time>
      </trkpt>
      <trkpt lat="42.04246" lon="0.75913">
        <ele>1623.004</ele>
        <time>2014-12-27T08:38:59Z</time>
      </trkpt>
      <trkpt lat="42.04246" lon="0.75928">
        <ele>1623.814</ele>
        <time>2014-12-27T08:38:55Z</time>
      </trkpt>
      <trkpt lat="42.04246" lon="0.75943">
        <ele>1625.008</ele>
        <time>2014-12-27T08:38:51Z</time>
      </trkpt>
      <trkpt lat="42.04246" lon="0.75958">
        <ele>1625.627</ele>
        <time>2014-12-27T08:38:46Z</time>
      </trkpt>
      <trkpt lat="42.04246" lon="0.75972">
        <ele>1626.026</ele>
        <time>2014-12-27T08:38:42Z</time>
      </trkpt>
      <trkpt lat="42.04245" lon="0.75987">
        <ele>1626.467</ele>
        <time>2014-12-27T08:38:38Z</time>
      </trkpt>
      <trkpt lat="42.04242" lon="0.76001">
        <ele>1626.959</ele>
        <time>2014-12-27T08:38:34Z</time>
      </trkpt>
      <trkpt lat="42.04238" lon="0.76014">
        <ele>1627.262</ele>
        <time>2014-12-27T08:38:30Z</time>
      </trkpt>
      <trkpt lat="42.04232" lon="0.76025">
        <ele>1628.023</ele>
        <time>2014-12-27T08:38:26Z</time>
      </trkpt>
      <trkpt lat="42.04223" lon="0.76035">
        <ele>1628.89</ele>
        <time>2014-12-27T08:38:22Z</time>
      </trkpt>
      <trkpt lat="42.04213" lon="0.76038">
        <ele>1629.254</ele>
        <time>2014-12-27T08:38:18Z</time>
      </trkpt>
      <trkpt lat="42.04202" lon="0.7604">
        <ele>1629.874</ele>
        <time>2014-12-27T08:38:14Z</time>
      </trkpt>
      <trkpt lat="42.04192" lon="0.7604">
        <ele>1630.856</ele>
        <time>2014-12-27T08:38:10Z</time>
      </trkpt>
      <trkpt lat="42.04181" lon="0.76043">
        <ele>1631.721</ele>
        <time>2014-12-27T08:38:06Z</time>
      </trkpt>
      <trkpt lat="42.04173" lon="0.76049">
        <ele>1631.808</ele>
        <time>2014-12-27T08:38:02Z</time>
      </trkpt>
      <trkpt lat="42.04165" lon="0.76058">
        <ele>1631.879</ele>
        <time>2014-12-27T08:37:56Z</time>
      </trkpt>
      <trkpt lat="42.04156" lon="0.76065">
        <ele>1631.828</ele>
        <time>2014-12-27T08:37:49Z</time>
      </trkpt>
      <trkpt lat="42.04148" lon="0.76072">
        <ele>1631.679</ele>
        <time>2014-12-27T08:37:42Z</time>
      </trkpt>
      <trkpt lat="42.0414" lon="0.76081">
        <ele>1631.411</ele>
        <time>2014-12-27T08:37:34Z</time>
      </trkpt>
      <trkpt lat="42.04131" lon="0.76088">
        <ele>1630.154</ele>
        <time>2014-12-27T08:37:26Z</time>
      </trkpt>
      <trkpt lat="42.04123" lon="0.76096">
        <ele>1628.695</ele>
        <time>2014-12-27T08:37:18Z</time>
      </trkpt>
      <trkpt lat="42.04114" lon="0.76103">
        <ele>1627.382</ele>
        <time>2014-12-27T08:37:10Z</time>
      </trkpt>
      <trkpt lat="42.04105" lon="0.76108">
        <ele>1626.816</ele>
        <time>2014-12-27T08:37:02Z</time>
      </trkpt>
      <trkpt lat="42.04097" lon="0.76114">
        <ele>1625.843</ele>
        <time>2014-12-27T08:36:54Z</time>
      </trkpt>
      <trkpt lat="42.04091" lon="0.76125">
        <ele>1624.064</ele>
        <time>2014-12-27T08:36:46Z</time>
      </trkpt>
      <trkpt lat="42.04084" lon="0.76135">
        <ele>1622.61</ele>
        <time>2014-12-27T08:36:39Z</time>
      </trkpt>
      <trkpt lat="42.04079" lon="0.76145">
        <ele>1620.008</ele>
        <time>2014-12-27T08:36:31Z</time>
      </trkpt>
      <trkpt lat="42.04075" lon="0.76157">
        <ele>1618.136</ele>
        <time>2014-12-27T08:36:23Z</time>
      </trkpt>
      <trkpt lat="42.0407" lon="0.76167">
        <ele>1617.035</ele>
        <time>2014-12-27T08:36:16Z</time>
      </trkpt>
      <trkpt lat="42.04064" lon="0.76177">
        <ele>1616.926</ele>
        <time>2014-12-27T08:36:11Z</time>
      </trkpt>
      <trkpt lat="42.04058" lon="0.76187">
        <ele>1617.968</ele>
        <time>2014-12-27T08:36:05Z</time>
      </trkpt>
      <trkpt lat="42.04052" lon="0.76198">
        <ele>1618.711</ele>
        <time>2014-12-27T08:36:00Z</time>
      </trkpt>
      <trkpt lat="42.04045" lon="0.76205">
        <ele>1618.332</ele>
        <time>2014-12-27T08:35:56Z</time>
      </trkpt>
      <trkpt lat="42.04039" lon="0.76217">
        <ele>1618.449</ele>
        <time>2014-12-27T08:35:51Z</time>
      </trkpt>
      <trkpt lat="42.04036" lon="0.76229">
        <ele>1618.863</ele>
        <time>2014-12-27T08:35:46Z</time>
      </trkpt>
      <trkpt lat="42.04033" lon="0.76241">
        <ele>1619.279</ele>
        <time>2014-12-27T08:35:42Z</time>
      </trkpt>
      <trkpt lat="42.0403" lon="0.76254">
        <ele>1620.105</ele>
        <time>2014-12-27T08:35:38Z</time>
      </trkpt>
      <trkpt lat="42.04028" lon="0.76267">
        <ele>1621.825</ele>
        <time>2014-12-27T08:35:34Z</time>
      </trkpt>
      <trkpt lat="42.04027" lon="0.76281">
        <ele>1622.808</ele>
        <time>2014-12-27T08:35:30Z</time>
      </trkpt>
      <trkpt lat="42.04025" lon="0.76295">
        <ele>1622.929</ele>
        <time>2014-12-27T08:35:26Z</time>
      </trkpt>
      <trkpt lat="42.04023" lon="0.7631">
        <ele>1623.458</ele>
        <time>2014-12-27T08:35:21Z</time>
      </trkpt>
      <trkpt lat="42.0402" lon="0.76324">
        <ele>1624.189</ele>
        <time>2014-12-27T08:35:16Z</time>
      </trkpt>
      <trkpt lat="42.04017" lon="0.76336">
        <ele>1625.271</ele>
        <time>2014-12-27T08:35:12Z</time>
      </trkpt>
      <trkpt lat="42.04013" lon="0.7635">
        <ele>1629.024</ele>
        <time>2014-12-27T08:35:07Z</time>
      </trkpt>
      <trkpt lat="42.04011" lon="0.76362">
        <ele>1632.785</ele>
        <time>2014-12-27T08:35:00Z</time>
      </trkpt>
      <trkpt lat="42.04009" lon="0.76375">
        <ele>1635.042</ele>
        <time>2014-12-27T08:34:55Z</time>
      </trkpt>
      <trkpt lat="42.04009" lon="0.76388">
        <ele>1637.286</ele>
        <time>2014-12-27T08:34:50Z</time>
      </trkpt>
      <trkpt lat="42.04011" lon="0.76402">
        <ele>1638.544</ele>
        <time>2014-12-27T08:34:45Z</time>
      </trkpt>
      <trkpt lat="42.04015" lon="0.76416">
        <ele>1639.905</ele>
        <time>2014-12-27T08:34:40Z</time>
      </trkpt>
      <trkpt lat="42.04019" lon="0.76427">
        <ele>1641.015</ele>
        <time>2014-12-27T08:34:36Z</time>
      </trkpt>
      <trkpt lat="42.04024" lon="0.76439">
        <ele>1642.708</ele>
        <time>2014-12-27T08:34:32Z</time>
      </trkpt>
      <trkpt lat="42.04029" lon="0.76452">
        <ele>1645.076</ele>
        <time>2014-12-27T08:34:28Z</time>
      </trkpt>
      <trkpt lat="42.0403" lon="0.76466">
        <ele>1647.055</ele>
        <time>2014-12-27T08:34:23Z</time>
      </trkpt>
      <trkpt lat="42.04027" lon="0.76477">
        <ele>1648.516</ele>
        <time>2014-12-27T08:34:19Z</time>
      </trkpt>
      <trkpt lat="42.04024" lon="0.76489">
        <ele>1650.018</ele>
        <time>2014-12-27T08:34:15Z</time>
      </trkpt>
      <trkpt lat="42.04021" lon="0.76502">
        <ele>1652.041</ele>
        <time>2014-12-27T08:34:11Z</time>
      </trkpt>
      <trkpt lat="42.04019" lon="0.76514">
        <ele>1654.222</ele>
        <time>2014-12-27T08:34:07Z</time>
      </trkpt>
      <trkpt lat="42.04012" lon="0.76524">
        <ele>1655.979</ele>
        <time>2014-12-27T08:34:03Z</time>
      </trkpt>
      <trkpt lat="42.04007" lon="0.76535">
        <ele>1658.383</ele>
        <time>2014-12-27T08:33:59Z</time>
      </trkpt>
      <trkpt lat="42.04" lon="0.76546">
        <ele>1660.524</ele>
        <time>2014-12-27T08:33:55Z</time>
      </trkpt>
      <trkpt lat="42.03994" lon="0.76557">
        <ele>1661.504</ele>
        <time>2014-12-27T08:33:51Z</time>
      </trkpt>
      <trkpt lat="42.03987" lon="0.76567">
        <ele>1662.614</ele>
        <time>2014-12-27T08:33:47Z</time>
      </trkpt>
      <trkpt lat="42.03982" lon="0.76579">
        <ele>1665.608</ele>
        <time>2014-12-27T08:33:43Z</time>
      </trkpt>
      <trkpt lat="42.03982" lon="0.76593">
        <ele>1668.724</ele>
        <time>2014-12-27T08:33:39Z</time>
      </trkpt>
      <trkpt lat="42.0398" lon="0.76608">
        <ele>1670.673</ele>
        <time>2014-12-27T08:33:35Z</time>
      </trkpt>
      <trkpt lat="42.03981" lon="0.76624">
        <ele>1672.294</ele>
        <time>2014-12-27T08:33:31Z</time>
      </trkpt>
      <trkpt lat="42.03982" lon="0.76639">
        <ele>1673.746</ele>
        <time>2014-12-27T08:33:27Z</time>
      </trkpt>
      <trkpt lat="42.03989" lon="0.76651">
        <ele>1673.519</ele>
        <time>2009-09-27T13:12:19Z</time>
      </trkpt>
      <trkpt lat="42.03985" lon="0.76651">
        <ele>1673.54</ele>
        <time>2009-09-27T13:12:15Z</time>
      </trkpt>
      <trkpt lat="42.03981" lon="0.76651">
        <ele>1673.597</ele>
        <time>2009-09-27T13:11:58Z</time>
      </trkpt>
      <trkpt lat="42.03981" lon="0.76649">
        <ele>1673.671</ele>
        <time>2009-09-27T13:11:32Z</time>
      </trkpt>
      <trkpt lat="42.03983" lon="0.76649">
        <ele>1673.548</ele>
        <time>2009-09-27T13:11:18Z</time>
      </trkpt>
      <trkpt lat="42.03983" lon="0.76651">
        <ele>1673.561</ele>
        <time>2009-09-27T13:11:09Z</time>
      </trkpt>
      <trkpt lat="42.03983" lon="0.76651">
        <ele>1673.517</ele>
        <time>2009-09-27T13:11:02Z</time>
      </trkpt>
      <trkpt lat="42.03983" lon="0.76653">
        <ele>1673.508</ele>
        <time>2009-09-27T12:51:20Z</time>
      </trkpt>
      <trkpt lat="42.03983" lon="0.76655">
        <ele>1673.516</ele>
        <time>2009-09-27T12:48:21Z</time>
      </trkpt>
      <trkpt lat="42.03985" lon="0.76655">
        <ele>1673.585</ele>
        <time>2009-09-27T12:48:06Z</time>
      </trkpt>
      <trkpt lat="42.03985" lon="0.76662">
        <ele>1673.586</ele>
        <time>2009-09-27T12:47:44Z</time>
      </trkpt>
      <trkpt lat="42.03987" lon="0.76681">
        <ele>1672.128</ele>
        <time>2009-09-27T12:47:26Z</time>
      </trkpt>
      <trkpt lat="42.03989" lon="0.76696">
        <ele>1670.921</ele>
        <time>2009-09-27T12:47:02Z</time>
      </trkpt>
      <trkpt lat="42.03989" lon="0.76724">
        <ele>1668.692</ele>
        <time>2009-09-27T12:46:38Z</time>
      </trkpt>
      <trkpt lat="42.03991" lon="0.7676">
        <ele>1667.289</ele>
        <time>2009-09-27T12:46:14Z</time>
      </trkpt>
      <trkpt lat="42.03994" lon="0.76801">
        <ele>1665.213</ele>
        <time>2009-09-27T12:45:47Z</time>
      </trkpt>
      <trkpt lat="42.03998" lon="0.76836">
        <ele>1664.884</ele>
        <time>2009-09-27T12:45:23Z</time>
      </trkpt>
      <trkpt lat="42.04004" lon="0.76866">
        <ele>1662.207</ele>
        <time>2009-09-27T12:45:01Z</time>
      </trkpt>
      <trkpt lat="42.04009" lon="0.769">
        <ele>1658.617</ele>
        <time>2009-09-27T12:44:38Z</time>
      </trkpt>
      <trkpt lat="42.04011" lon="0.7693">
        <ele>1656.708</ele>
        <time>2009-09-27T12:44:16Z</time>
      </trkpt>
      <trkpt lat="42.04009" lon="0.76937">
        <ele>1656.85</ele>
        <time>2009-09-27T12:44:10Z</time>
      </trkpt>
      <trkpt lat="42.04007" lon="0.76952">
        <ele>1656.519</ele>
        <time>2009-09-27T12:43:50Z</time>
      </trkpt>
      <trkpt lat="42.04007" lon="0.76973">
        <ele>1654.78</ele>
        <time>2009-09-27T12:43:25Z</time>
      </trkpt>
      <trkpt lat="42.04004" lon="0.76997">
        <ele>1652.682</ele>
        <time>2009-09-27T12:43:08Z</time>
      </trkpt>
      <trkpt lat="42.04004" lon="0.77025">
        <ele>1651.215</ele>
        <time>2009-09-27T12:42:47Z</time>
      </trkpt>
      <trkpt lat="42.04011" lon="0.77063">
        <ele>1647.246</ele>
        <time>2009-09-27T12:42:23Z</time>
      </trkpt>
      <trkpt lat="42.04024" lon="0.77095">
        <ele>1644.663</ele>
        <time>2009-09-27T12:42:02Z</time>
      </trkpt>
      <trkpt lat="42.04039" lon="0.77132">
        <ele>1643.957</ele>
        <time>2009-09-27T12:41:37Z</time>
      </trkpt>
      <trkpt lat="42.04043" lon="0.77138">
        <ele>1644.845</ele>
        <time>2009-09-27T12:41:32Z</time>
      </trkpt>
      <trkpt lat="42.04043" lon="0.77147">
        <ele>1644.947</ele>
        <time>2009-09-27T12:41:27Z</time>
      </trkpt>
      <trkpt lat="42.04045" lon="0.77166">
        <ele>1646.311</ele>
        <time>2009-09-27T12:41:14Z</time>
      </trkpt>
      <trkpt lat="42.04047" lon="0.77185">
        <ele>1647.808</ele>
        <time>2009-09-27T12:40:57Z</time>
      </trkpt>
      <trkpt lat="42.04052" lon="0.77211">
        <ele>1652.476</ele>
        <time>2009-09-27T12:40:37Z</time>
      </trkpt>
      <trkpt lat="42.04058" lon="0.77241">
        <ele>1657.845</ele>
        <time>2009-09-27T12:40:16Z</time>
      </trkpt>
      <trkpt lat="42.04069" lon="0.77271">
        <ele>1657.046</ele>
        <time>2009-09-27T12:39:54Z</time>
      </trkpt>
      <trkpt lat="42.04071" lon="0.77278">
        <ele>1657.448</ele>
        <time>2009-09-27T12:39:50Z</time>
      </trkpt>
      <trkpt lat="42.04071" lon="0.77288">
        <ele>1656.421</ele>
        <time>2009-09-27T12:39:39Z</time>
      </trkpt>
      <trkpt lat="42.04077" lon="0.77321">
        <ele>1660.872</ele>
        <time>2009-09-27T12:39:18Z</time>
      </trkpt>
      <trkpt lat="42.04073" lon="0.77342">
        <ele>1659.739</ele>
        <time>2009-09-27T12:39:04Z</time>
      </trkpt>
      <trkpt lat="42.04073" lon="0.77346">
        <ele>1659.783</ele>
        <time>2009-09-27T12:39:01Z</time>
      </trkpt>
      <trkpt lat="42.04077" lon="0.77376">
        <ele>1661.129</ele>
        <time>2009-09-27T12:38:37Z</time>
      </trkpt>
      <trkpt lat="42.04081" lon="0.774">
        <ele>1661.4</ele>
        <time>2009-09-27T12:38:18Z</time>
      </trkpt>
      <trkpt lat="42.04088" lon="0.77424">
        <ele>1658.52</ele>
        <time>2009-09-27T12:37:58Z</time>
      </trkpt>
      <trkpt lat="42.0409" lon="0.77428">
        <ele>1657.708</ele>
        <time>2009-09-27T12:37:52Z</time>
      </trkpt>
      <trkpt lat="42.04092" lon="0.77447">
        <ele>1653.624</ele>
        <time>2009-09-27T12:37:36Z</time>
      </trkpt>
      <trkpt lat="42.04097" lon="0.7746">
        <ele>1650.423</ele>
        <time>2009-09-27T12:37:23Z</time>
      </trkpt>
      <trkpt lat="42.04101" lon="0.77477">
        <ele>1648.224</ele>
        <time>2009-09-27T12:37:03Z</time>
      </trkpt>
      <trkpt lat="42.04105" lon="0.77494">
        <ele>1647.846</ele>
        <time>2009-09-27T12:36:44Z</time>
      </trkpt>
      <trkpt lat="42.04105" lon="0.77507">
        <ele>1646.059</ele>
        <time>2009-09-27T12:36:26Z</time>
      </trkpt>
      <trkpt lat="42.04107" lon="0.7752">
        <ele>1646.72</ele>
        <time>2009-09-27T12:36:08Z</time>
      </trkpt>
      <trkpt lat="42.04112" lon="0.77535">
        <ele>1648.177</ele>
        <time>2009-09-27T12:35:48Z</time>
      </trkpt>
      <trkpt lat="42.0412" lon="0.7755">
        <ele>1644.491</ele>
        <time>2009-09-27T12:35:28Z</time>
      </trkpt>
      <trkpt lat="42.04127" lon="0.77561">
        <ele>1641.324</ele>
        <time>2009-09-27T12:35:11Z</time>
      </trkpt>
      <trkpt lat="42.04122" lon="0.77576">
        <ele>1640.104</ele>
        <time>2009-09-27T12:34:53Z</time>
      </trkpt>
      <trkpt lat="42.0412" lon="0.77595">
        <ele>1633.814</ele>
        <time>2009-09-27T12:34:34Z</time>
      </trkpt>
      <trkpt lat="42.04135" lon="0.77621">
        <ele>1630.908</ele>
        <time>2009-09-27T12:34:11Z</time>
      </trkpt>
      <trkpt lat="42.04139" lon="0.77662">
        <ele>1637.054</ele>
        <time>2009-09-27T12:33:45Z</time>
      </trkpt>
      <trkpt lat="42.04135" lon="0.77677">
        <ele>1635.433</ele>
        <time>2009-09-27T12:33:32Z</time>
      </trkpt>
      <trkpt lat="42.04133" lon="0.7769">
        <ele>1634.754</ele>
        <time>2009-09-27T12:33:22Z</time>
      </trkpt>
      <trkpt lat="42.04139" lon="0.77722">
        <ele>1642.976</ele>
        <time>2009-09-27T12:33:00Z</time>
      </trkpt>
      <trkpt lat="42.04131" lon="0.77737">
        <ele>1637.229</ele>
        <time>2009-09-27T12:32:46Z</time>
      </trkpt>
      <trkpt lat="42.04129" lon="0.77765">
        <ele>1638.66</ele>
        <time>2009-09-27T12:32:25Z</time>
      </trkpt>
      <trkpt lat="42.04125" lon="0.77806">
        <ele>1641.737</ele>
        <time>2009-09-27T12:32:00Z</time>
      </trkpt>
      <trkpt lat="42.04125" lon="0.77857">
        <ele>1653.191</ele>
        <time>2009-09-27T12:31:28Z</time>
      </trkpt>
      <trkpt lat="42.04116" lon="0.77885">
        <ele>1657.744</ele>
        <time>2009-09-27T12:31:09Z</time>
      </trkpt>
      <trkpt lat="42.04114" lon="0.77919">
        <ele>1661.405</ele>
        <time>2009-09-27T12:30:47Z</time>
      </trkpt>
      <trkpt lat="42.04114" lon="0.77949">
        <ele>1661.415</ele>
        <time>2009-09-27T12:30:29Z</time>
      </trkpt>
      <trkpt lat="42.04107" lon="0.77969">
        <ele>1658.508</ele>
        <time>2009-09-27T12:30:11Z</time>
      </trkpt>
      <trkpt lat="42.04103" lon="0.7799">
        <ele>1658.056</ele>
        <time>2009-09-27T12:29:52Z</time>
      </trkpt>
      <trkpt lat="42.04097" lon="0.78007">
        <ele>1657.335</ele>
        <time>2009-09-27T12:29:38Z</time>
      </trkpt>
      <trkpt lat="42.04094" lon="0.78037">
        <ele>1656.466</ele>
        <time>2009-09-27T12:29:15Z</time>
      </trkpt>
      <trkpt lat="42.04088" lon="0.78063">
        <ele>1659.228</ele>
        <time>2009-09-27T12:28:56Z</time>
      </trkpt>
      <trkpt lat="42.04088" lon="0.78069">
        <ele>1658.941</ele>
        <time>2009-09-27T12:28:50Z</time>
      </trkpt>
      <trkpt lat="42.04086" lon="0.78074">
        <ele>1658.972</ele>
        <time>2009-09-27T12:28:36Z</time>
      </trkpt>
      <trkpt lat="42.04081" lon="0.78099">
        <ele>1655.999</ele>
        <time>2009-09-27T12:28:17Z</time>
      </trkpt>
      <trkpt lat="42.04075" lon="0.78138">
        <ele>1656.523</ele>
        <time>2009-09-27T12:27:54Z</time>
      </trkpt>
      <trkpt lat="42.04071" lon="0.78172">
        <ele>1656.525</ele>
        <time>2009-09-27T12:27:33Z</time>
      </trkpt>
      <trkpt lat="42.04069" lon="0.78209">
        <ele>1652.826</ele>
        <time>2009-09-27T12:27:09Z</time>
      </trkpt>
      <trkpt lat="42.04077" lon="0.78241">
        <ele>1653.308</ele>
        <time>2009-09-27T12:26:47Z</time>
      </trkpt>
      <trkpt lat="42.0409" lon="0.78265">
        <ele>1655.008</ele>
        <time>2009-09-27T12:26:27Z</time>
      </trkpt>
      <trkpt lat="42.04101" lon="0.7831">
        <ele>1653.174</ele>
        <time>2009-09-27T12:25:58Z</time>
      </trkpt>
      <trkpt lat="42.04101" lon="0.78333">
        <ele>1653.073</ele>
        <time>2009-09-27T12:25:44Z</time>
      </trkpt>
      <trkpt lat="42.04099" lon="0.78372">
        <ele>1654.564</ele>
        <time>2009-09-27T12:25:21Z</time>
      </trkpt>
      <trkpt lat="42.04107" lon="0.78408">
        <ele>1658.336</ele>
        <time>2009-09-27T12:24:59Z</time>
      </trkpt>
      <trkpt lat="42.04107" lon="0.78413">
        <ele>1658.359</ele>
        <time>2009-09-27T12:24:57Z</time>
      </trkpt>
      <trkpt lat="42.04118" lon="0.78458">
        <ele>1656.36</ele>
        <time>2009-09-27T12:24:30Z</time>
      </trkpt>
      <trkpt lat="42.04116" lon="0.78496">
        <ele>1656.797</ele>
        <time>2009-09-27T12:24:07Z</time>
      </trkpt>
      <trkpt lat="42.04114" lon="0.78529">
        <ele>1658.031</ele>
        <time>2009-09-27T12:23:47Z</time>
      </trkpt>
      <trkpt lat="42.04112" lon="0.78535">
        <ele>1658.555</ele>
        <time>2009-09-27T12:23:42Z</time>
      </trkpt>
      <trkpt lat="42.04103" lon="0.78546">
        <ele>1654.407</ele>
        <time>2009-09-27T12:23:33Z</time>
      </trkpt>
      <trkpt lat="42.04099" lon="0.78569">
        <ele>1653.017</ele>
        <time>2009-09-27T12:23:18Z</time>
      </trkpt>
      <trkpt lat="42.04097" lon="0.78595">
        <ele>1653.308</ele>
        <time>2009-09-27T12:22:58Z</time>
      </trkpt>
      <trkpt lat="42.0409" lon="0.78617">
        <ele>1652.977</ele>
        <time>2009-09-27T12:22:41Z</time>
      </trkpt>
      <trkpt lat="42.04088" lon="0.78632">
        <ele>1652.016</ele>
        <time>2009-09-27T12:22:23Z</time>
      </trkpt>
      <trkpt lat="42.04086" lon="0.78657">
        <ele>1650.867</ele>
        <time>2009-09-27T12:22:03Z</time>
      </trkpt>
      <trkpt lat="42.04092" lon="0.78677">
        <ele>1650.869</ele>
        <time>2009-09-27T12:21:47Z</time>
      </trkpt>
      <trkpt lat="42.0409" lon="0.78679">
        <ele>1650.222</ele>
        <time>2009-09-27T12:21:45Z</time>
      </trkpt>
      <trkpt lat="42.04088" lon="0.78698">
        <ele>1648.463</ele>
        <time>2009-09-27T12:21:28Z</time>
      </trkpt>
      <trkpt lat="42.04088" lon="0.78718">
        <ele>1647.49</ele>
        <time>2009-09-27T12:21:10Z</time>
      </trkpt>
      <trkpt lat="42.04081" lon="0.7873">
        <ele>1644.684</ele>
        <time>2009-09-27T12:20:51Z</time>
      </trkpt>
      <trkpt lat="42.04086" lon="0.78758">
        <ele>1640.774</ele>
        <time>2009-09-27T12:20:28Z</time>
      </trkpt>
      <trkpt lat="42.04086" lon="0.78769">
        <ele>1638.856</ele>
        <time>2009-09-27T12:20:19Z</time>
      </trkpt>
      <trkpt lat="42.04084" lon="0.78784">
        <ele>1636.121</ele>
        <time>2009-09-27T12:20:01Z</time>
      </trkpt>
      <trkpt lat="42.04079" lon="0.78795">
        <ele>1632.108</ele>
        <time>2009-09-27T12:19:44Z</time>
      </trkpt>
      <trkpt lat="42.04075" lon="0.78814">
        <ele>1627.899</ele>
        <time>2009-09-27T12:19:24Z</time>
      </trkpt>
      <trkpt lat="42.04066" lon="0.78829">
        <ele>1624.058</ele>
        <time>2009-09-27T12:19:02Z</time>
      </trkpt>
      <trkpt lat="42.04058" lon="0.78842">
        <ele>1621.669</ele>
        <time>2009-09-27T12:18:43Z</time>
      </trkpt>
      <trkpt lat="42.04049" lon="0.78863">
        <ele>1614.091</ele>
        <time>2009-09-27T12:18:22Z</time>
      </trkpt>
      <trkpt lat="42.04045" lon="0.78874">
        <ele>1608.744</ele>
        <time>2009-09-27T12:18:07Z</time>
      </trkpt>
      <trkpt lat="42.04041" lon="0.78885">
        <ele>1604.015</ele>
        <time>2009-09-27T12:17:50Z</time>
      </trkpt>
      <trkpt lat="42.04039" lon="0.78893">
        <ele>1602.672</ele>
        <time>2009-09-27T12:17:35Z</time>
      </trkpt>
      <trkpt lat="42.04041" lon="0.78908">
        <ele>1606.316</ele>
        <time>2009-09-27T12:17:19Z</time>
      </trkpt>
      <trkpt lat="42.04032" lon="0.78921">
        <ele>1604.994</ele>
        <time>2009-09-27T12:16:58Z</time>
      </trkpt>
      <trkpt lat="42.04024" lon="0.78923">
        <ele>1599.457</ele>
        <time>2009-09-27T12:16:39Z</time>
      </trkpt>
      <trkpt lat="42.0403" lon="0.78932">
        <ele>1602.622</ele>
        <time>2009-09-27T12:16:25Z</time>
      </trkpt>
      <trkpt lat="42.04019" lon="0.78926">
        <ele>1594.208</ele>
        <time>2009-09-27T12:16:11Z</time>
      </trkpt>
      <trkpt lat="42.04007" lon="0.78919">
        <ele>1581.731</ele>
        <time>2009-09-27T12:15:54Z</time>
      </trkpt>
      <trkpt lat="42.04002" lon="0.78919">
        <ele>1576.83</ele>
        <time>2009-09-27T12:15:41Z</time>
      </trkpt>
      <trkpt lat="42.04004" lon="0.78939">
        <ele>1576.431</ele>
        <time>2009-09-27T12:15:18Z</time>
      </trkpt>
      <trkpt lat="42.04009" lon="0.7896">
        <ele>1574.463</ele>
        <time>2009-09-27T12:14:56Z</time>
      </trkpt>
      <trkpt lat="42.04011" lon="0.78977">
        <ele>1571.436</ele>
        <time>2009-09-27T12:14:39Z</time>
      </trkpt>
      <trkpt lat="42.04017" lon="0.78994">
        <ele>1574.437</ele>
        <time>2009-09-27T12:14:21Z</time>
      </trkpt>
      <trkpt lat="42.04019" lon="0.79001">
        <ele>1575.074</ele>
        <time>2009-09-27T12:14:07Z</time>
      </trkpt>
      <trkpt lat="42.04024" lon="0.79014">
        <ele>1576.918</ele>
        <time>2009-09-27T12:13:51Z</time>
      </trkpt>
      <trkpt lat="42.04028" lon="0.79027">
        <ele>1578.417</ele>
        <time>2009-09-27T12:13:36Z</time>
      </trkpt>
      <trkpt lat="42.04032" lon="0.79044">
        <ele>1573.887</ele>
        <time>2009-09-27T12:13:18Z</time>
      </trkpt>
      <trkpt lat="42.04036" lon="0.79057">
        <ele>1570.815</ele>
        <time>2009-09-27T12:13:01Z</time>
      </trkpt>
      <trkpt lat="42.04043" lon="0.79069">
        <ele>1568.008</ele>
        <time>2009-09-27T12:12:46Z</time>
      </trkpt>
      <trkpt lat="42.04047" lon="0.79078">
        <ele>1567.063</ele>
        <time>2009-09-27T12:12:33Z</time>
      </trkpt>
      <trkpt lat="42.04049" lon="0.79093">
        <ele>1563.622</ele>
        <time>2009-09-27T12:12:15Z</time>
      </trkpt>
      <trkpt lat="42.04053" lon="0.79112">
        <ele>1561.053</ele>
        <time>2009-09-27T12:11:57Z</time>
      </trkpt>
      <trkpt lat="42.04052" lon="0.79114">
        <ele>1558.815</ele>
        <time>2009-09-27T12:11:42Z</time>
      </trkpt>
      <trkpt lat="42.04052" lon="0.79117">
        <ele>1558.338</ele>
        <time>2009-09-27T12:11:22Z</time>
      </trkpt>
      <trkpt lat="42.04049" lon="0.79127">
        <ele>1553.349</ele>
        <time>2009-09-27T12:11:03Z</time>
      </trkpt>
      <trkpt lat="42.04049" lon="0.79127">
        <ele>1553.326</ele>
        <time>2009-09-27T12:10:06Z</time>
      </trkpt>
      <trkpt lat="42.04049" lon="0.79129">
        <ele>1552.77</ele>
        <time>2009-09-27T12:09:45Z</time>
      </trkpt>
      <trkpt lat="42.04053" lon="0.79129">
        <ele>1556.524</ele>
        <time>2009-09-27T12:09:34Z</time>
      </trkpt>
      <trkpt lat="42.0406" lon="0.79138">
        <ele>1556.404</ele>
        <time>2009-09-27T12:09:10Z</time>
      </trkpt>
      <trkpt lat="42.04062" lon="0.79145">
        <ele>1554.914</ele>
        <time>2009-09-27T12:08:54Z</time>
      </trkpt>
      <trkpt lat="42.04071" lon="0.79151">
        <ele>1553.808</ele>
        <time>2009-09-27T12:08:44Z</time>
      </trkpt>
      <trkpt lat="42.04081" lon="0.79159">
        <ele>1552.434</ele>
        <time>2009-09-27T12:08:28Z</time>
      </trkpt>
      <trkpt lat="42.0409" lon="0.79168">
        <ele>1550.273</ele>
        <time>2009-09-27T12:08:13Z</time>
      </trkpt>
      <trkpt lat="42.0409" lon="0.79172">
        <ele>1549.424</ele>
        <time>2009-09-27T12:07:58Z</time>
      </trkpt>
      <trkpt lat="42.04092" lon="0.79179">
        <ele>1547.946</ele>
        <time>2009-09-27T12:07:44Z</time>
      </trkpt>
      <trkpt lat="42.04094" lon="0.79183">
        <ele>1546.879</ele>
        <time>2009-09-27T12:07:29Z</time>
      </trkpt>
      <trkpt lat="42.04097" lon="0.79192">
        <ele>1544.76</ele>
        <time>2009-09-27T12:07:14Z</time>
      </trkpt>
      <trkpt lat="42.04101" lon="0.79207">
        <ele>1541.617</ele>
        <time>2009-09-27T12:06:58Z</time>
      </trkpt>
      <trkpt lat="42.04107" lon="0.7922">
        <ele>1538.371</ele>
        <time>2009-09-27T12:06:42Z</time>
      </trkpt>
      <trkpt lat="42.0411" lon="0.79237">
        <ele>1536.384</ele>
        <time>2009-09-27T12:06:28Z</time>
      </trkpt>
      <trkpt lat="42.04107" lon="0.79243">
        <ele>1536.307</ele>
        <time>2009-09-27T12:06:24Z</time>
      </trkpt>
      <trkpt lat="42.04107" lon="0.79243">
        <ele>1536.317</ele>
        <time>2009-09-27T12:06:23Z</time>
      </trkpt>
      <trkpt lat="42.04107" lon="0.79269">
        <ele>1535.008</ele>
        <time>2009-09-27T12:06:04Z</time>
      </trkpt>
      <trkpt lat="42.04107" lon="0.79303">
        <ele>1532.47</ele>
        <time>2009-09-27T12:05:39Z</time>
      </trkpt>
      <trkpt lat="42.0411" lon="0.79331">
        <ele>1531.649</ele>
        <time>2009-09-27T12:05:20Z</time>
      </trkpt>
      <trkpt lat="42.04112" lon="0.79348">
        <ele>1529.24</ele>
        <time>2009-09-27T12:05:07Z</time>
      </trkpt>
      <trkpt lat="42.04116" lon="0.79366">
        <ele>1525.372</ele>
        <time>2009-09-27T12:04:53Z</time>
      </trkpt>
      <trkpt lat="42.04114" lon="0.79372">
        <ele>1523.745</ele>
        <time>2009-09-27T12:04:48Z</time>
      </trkpt>
      <trkpt lat="42.04116" lon="0.79381">
        <ele>1522.216</ele>
        <time>2009-09-27T12:04:42Z</time>
      </trkpt>
      <trkpt lat="42.04122" lon="0.79402">
        <ele>1517.073</ele>
        <time>2009-09-27T12:04:26Z</time>
      </trkpt>
      <trkpt lat="42.04125" lon="0.79426">
        <ele>1508.477</ele>
        <time>2009-09-27T12:04:08Z</time>
      </trkpt>
      <trkpt lat="42.04127" lon="0.79426">
        <ele>1511.755</ele>
        <time>2009-09-27T12:04:01Z</time>
      </trkpt>
      <trkpt lat="42.04127" lon="0.79432">
        <ele>1508.707</ele>
        <time>2009-09-27T12:03:45Z</time>
      </trkpt>
      <trkpt lat="42.04129" lon="0.79441">
        <ele>1508.817</ele>
        <time>2009-09-27T12:03:39Z</time>
      </trkpt>
      <trkpt lat="42.04131" lon="0.79462">
        <ele>1504.408</ele>
        <time>2009-09-27T12:03:21Z</time>
      </trkpt>
      <trkpt lat="42.04137" lon="0.79481">
        <ele>1515.917</ele>
        <time>2009-09-27T12:03:06Z</time>
      </trkpt>
      <trkpt lat="42.04148" lon="0.79498">
        <ele>1521.096</ele>
        <time>2009-09-27T12:02:51Z</time>
      </trkpt>
      <trkpt lat="42.0415" lon="0.79507">
        <ele>1521.777</ele>
        <time>2009-09-27T12:02:45Z</time>
      </trkpt>
      <trkpt lat="42.04152" lon="0.79511">
        <ele>1522.529</ele>
        <time>2009-09-27T12:02:40Z</time>
      </trkpt>
      <trkpt lat="42.04161" lon="0.79518">
        <ele>1526.112</ele>
        <time>2009-09-27T12:02:31Z</time>
      </trkpt>
      <trkpt lat="42.04163" lon="0.79522">
        <ele>1527.183</ele>
        <time>2009-09-27T12:02:27Z</time>
      </trkpt>
      <trkpt lat="42.04165" lon="0.79529">
        <ele>1528.43</ele>
        <time>2009-09-27T12:02:22Z</time>
      </trkpt>
      <trkpt lat="42.04174" lon="0.79554">
        <ele>1528.234</ele>
        <time>2009-09-27T12:02:05Z</time>
      </trkpt>
      <trkpt lat="42.04178" lon="0.79574">
        <ele>1525.615</ele>
        <time>2009-09-27T12:01:50Z</time>
      </trkpt>
      <trkpt lat="42.0418" lon="0.79593">
        <ele>1523.965</ele>
        <time>2009-09-27T12:01:35Z</time>
      </trkpt>
      <trkpt lat="42.04187" lon="0.79612">
        <ele>1525.411</ele>
        <time>2009-09-27T12:01:18Z</time>
      </trkpt>
      <trkpt lat="42.04193" lon="0.79634">
        <ele>1532.208</ele>
        <time>2009-09-27T12:01:01Z</time>
      </trkpt>
      <trkpt lat="42.04212" lon="0.79687">
        <ele>1532.393</ele>
        <time>2017-11-28T22:06:24Z</time>
      </trkpt>
      <trkpt lat="42.04212" lon="0.79688">
        <ele>1532.282</ele>
        <time>2017-11-28T22:06:44Z</time>
      </trkpt>
      <trkpt lat="42.04219" lon="0.79696">
        <ele>1533.983</ele>
        <time>2017-11-28T22:07:04Z</time>
      </trkpt>
      <trkpt lat="42.0422" lon="0.79702">
        <ele>1532.885</ele>
        <time>2017-11-28T22:07:24Z</time>
      </trkpt>
      <trkpt lat="42.0422" lon="0.79707">
        <ele>1531.248</ele>
        <time>2017-11-28T22:07:44Z</time>
      </trkpt>
      <trkpt lat="42.04227" lon="0.79722">
        <ele>1529.649</ele>
        <time>2017-11-28T22:08:04Z</time>
      </trkpt>
      <trkpt lat="42.04229" lon="0.79733">
        <ele>1525.046</ele>
        <time>2017-11-28T22:08:24Z</time>
      </trkpt>
      <trkpt lat="42.04239" lon="0.79753">
        <ele>1523.46</ele>
        <time>2017-11-28T22:08:44Z</time>
      </trkpt>
      <trkpt lat="42.04253" lon="0.79781">
        <ele>1526.111</ele>
        <time>2017-11-28T22:09:04Z</time>
      </trkpt>
      <trkpt lat="42.04255" lon="0.7982">
        <ele>1529.321</ele>
        <time>2017-11-28T22:09:24Z</time>
      </trkpt>
      <trkpt lat="42.04268" lon="0.7984">
        <ele>1538.303</ele>
        <time>2017-11-28T22:09:44Z</time>
      </trkpt>
      <trkpt lat="42.04272" lon="0.79857">
        <ele>1542.408</ele>
        <time>2017-11-28T22:10:04Z</time>
      </trkpt>
      <trkpt lat="42.04275" lon="0.79882">
        <ele>1544.873</ele>
        <time>2011-03-05T13:46:51Z</time>
      </trkpt>
      <trkpt lat="42.04275" lon="0.79885">
        <ele>1545.092</ele>
        <time>2011-03-05T13:47:06Z</time>
      </trkpt>
      <trkpt lat="42.04275" lon="0.79885">
        <ele>1545.173</ele>
        <time>2011-03-05T13:47:45Z</time>
      </trkpt>
      <trkpt lat="42.04277" lon="0.79886">
        <ele>1545.635</ele>
        <time>2011-03-05T13:48:25Z</time>
      </trkpt>
      <trkpt lat="42.04274" lon="0.79907">
        <ele>1545.818</ele>
        <time>2011-03-05T13:48:41Z</time>
      </trkpt>
      <trkpt lat="42.04275" lon="0.79905">
        <ele>1545.739</ele>
        <time>2011-03-05T13:49:36Z</time>
      </trkpt>
      <trkpt lat="42.04274" lon="0.79906">
        <ele>1545.756</ele>
        <time>2011-03-05T13:50:07Z</time>
      </trkpt>
      <trkpt lat="42.04274" lon="0.79906">
        <ele>1545.71</ele>
        <time>2011-03-05T13:50:09Z</time>
      </trkpt>
      <trkpt lat="42.04274" lon="0.79906">
        <ele>1545.756</ele>
        <time>2011-03-05T13:50:11Z</time>
      </trkpt>
      <trkpt lat="42.04274" lon="0.79906">
        <ele>1545.759</ele>
        <time>2011-03-05T13:50:13Z</time>
      </trkpt>
      <trkpt lat="42.04273" lon="0.7992">
        <ele>1546.414</ele>
        <time>2011-03-05T13:50:37Z</time>
      </trkpt>
      <trkpt lat="42.04273" lon="0.79924">
        <ele>1547.008</ele>
        <time>2011-03-05T13:50:40Z</time>
      </trkpt>
      <trkpt lat="42.04273" lon="0.79926">
        <ele>1547.447</ele>
        <time>2011-03-05T13:50:42Z</time>
      </trkpt>
      <trkpt lat="42.04271" lon="0.79932">
        <ele>1547.826</ele>
        <time>2011-03-05T13:50:46Z</time>
      </trkpt>
      <trkpt lat="42.04263" lon="0.79943">
        <ele>1549.277</ele>
        <time>2011-03-05T13:50:58Z</time>
      </trkpt>
      <trkpt lat="42.04251" lon="0.79966">
        <ele>1552.189</ele>
        <time>2011-03-05T13:51:17Z</time>
      </trkpt>
      <trkpt lat="42.04257" lon="0.79985">
        <ele>1552.532</ele>
        <time>2011-03-05T13:51:33Z</time>
      </trkpt>
      <trkpt lat="42.04256" lon="0.80016">
        <ele>1552.883</ele>
        <time>2011-03-05T13:51:52Z</time>
      </trkpt>
      <trkpt lat="42.04246" lon="0.80039">
        <ele>1553.68</ele>
        <time>2011-03-05T13:52:12Z</time>
      </trkpt>
      <trkpt lat="42.04243" lon="0.80048">
        <ele>1553.934</ele>
        <time>2011-03-05T13:52:26Z</time>
      </trkpt>
      <trkpt lat="42.04238" lon="0.80072">
        <ele>1554.383</ele>
        <time>2011-03-05T13:52:44Z</time>
      </trkpt>
      <trkpt lat="42.04235" lon="0.80091">
        <ele>1554.825</ele>
        <time>2011-03-05T13:53:01Z</time>
      </trkpt>
      <trkpt lat="42.04231" lon="0.80108">
        <ele>1555.617</ele>
        <time>2011-03-05T13:53:16Z</time>
      </trkpt>
      <trkpt lat="42.04227" lon="0.80126">
        <ele>1556.408</ele>
        <time>2011-03-05T13:53:33Z</time>
      </trkpt>
      <trkpt lat="42.04227" lon="0.80127">
        <ele>1556.42</ele>
        <time>2011-03-05T13:53:35Z</time>
      </trkpt>
      <trkpt lat="42.04227" lon="0.80129">
        <ele>1556.539</ele>
        <time>2011-03-05T13:53:37Z</time>
      </trkpt>
      <trkpt lat="42.04231" lon="0.80136">
        <ele>1556.61</ele>
        <time>2011-03-05T13:53:43Z</time>
      </trkpt>
      <trkpt lat="42.04237" lon="0.80163">
        <ele>1556.952</ele>
        <time>2011-03-05T13:54:03Z</time>
      </trkpt>
      <trkpt lat="42.04238" lon="0.80176">
        <ele>1556.995</ele>
        <time>2011-03-05T13:54:12Z</time>
      </trkpt>
      <trkpt lat="42.04235" lon="0.80202">
        <ele>1556.846</ele>
        <time>2011-03-05T13:54:30Z</time>
      </trkpt>
      <trkpt lat="42.04236" lon="0.80231">
        <ele>1556.113</ele>
        <time>2011-03-05T13:54:50Z</time>
      </trkpt>
      <trkpt lat="42.04242" lon="0.80234">
        <ele>1555.797</ele>
        <time>2011-03-05T13:54:55Z</time>
      </trkpt>
      <trkpt lat="42.04245" lon="0.80261">
        <ele>1555.541</ele>
        <time>2011-03-05T13:55:13Z</time>
      </trkpt>
      <trkpt lat="42.04243" lon="0.80275">
        <ele>1555.781</ele>
        <time>2011-03-05T13:55:23Z</time>
      </trkpt>
      <trkpt lat="42.04245" lon="0.80305">
        <ele>1556.509</ele>
        <time>2011-03-05T13:55:43Z</time>
      </trkpt>
      <trkpt lat="42.04247" lon="0.80332">
        <ele>1556.408</ele>
        <time>2011-03-05T13:56:01Z</time>
      </trkpt>
      <trkpt lat="42.04253" lon="0.80371">
        <ele>1557.026</ele>
        <time>2011-03-05T13:56:27Z</time>
      </trkpt>
      <trkpt lat="42.04249" lon="0.80396">
        <ele>1558.255</ele>
        <time>2011-03-05T13:56:45Z</time>
      </trkpt>
      <trkpt lat="42.04248" lon="0.80418">
        <ele>1558.366</ele>
        <time>2011-03-05T13:57:01Z</time>
      </trkpt>
      <trkpt lat="42.04248" lon="0.80439">
        <ele>1558.268</ele>
        <time>2011-03-05T13:57:17Z</time>
      </trkpt>
      <trkpt lat="42.04246" lon="0.80468">
        <ele>1558.641</ele>
        <time>2011-03-05T13:57:37Z</time>
      </trkpt>
      <trkpt lat="42.0424" lon="0.80493">
        <ele>1558.242</ele>
        <time>2011-03-05T13:57:56Z</time>
      </trkpt>
      <trkpt lat="42.0424" lon="0.80494">
        <ele>1558.269</ele>
        <time>2011-03-05T13:57:57Z</time>
      </trkpt>
      <trkpt lat="42.04238" lon="0.80496">
        <ele>1558.483</ele>
        <time>2011-03-05T13:57:59Z</time>
      </trkpt>
      <trkpt lat="42.04233" lon="0.80516">
        <ele>1556.946</ele>
        <time>2011-03-05T13:58:17Z</time>
      </trkpt>
      <trkpt lat="42.04232" lon="0.80518">
        <ele>1556.788</ele>
        <time>2011-03-05T13:58:30Z</time>
      </trkpt>
      <trkpt lat="42.04227" lon="0.80517">
        <ele>1557.716</ele>
        <time>2011-03-05T13:58:43Z</time>
      </trkpt>
      <trkpt lat="42.04225" lon="0.80518">
        <ele>1558.008</ele>
        <time>2011-03-05T13:58:46Z</time>
      </trkpt>
      <trkpt lat="42.04218" lon="0.80523">
        <ele>1558.746</ele>
        <time>2011-03-05T13:58:53Z</time>
      </trkpt>
      <trkpt lat="42.04209" lon="0.80533">
        <ele>1558.735</ele>
        <time>2011-03-05T13:59:07Z</time>
      </trkpt>
      <trkpt lat="42.04206" lon="0.80543">
        <ele>1557.116</ele>
        <time>2011-03-05T13:59:21Z</time>
      </trkpt>
      <trkpt lat="42.04204" lon="0.80556">
        <ele>1554.748</ele>
        <time>2011-03-05T13:59:37Z</time>
      </trkpt>
      <trkpt lat="42.04198" lon="0.80569">
        <ele>1555.531</ele>
        <time>2011-03-05T13:59:55Z</time>
      </trkpt>
      <trkpt lat="42.04194" lon="0.80584">
        <ele>1556.022</ele>
        <time>2011-03-05T14:00:11Z</time>
      </trkpt>
      <trkpt lat="42.04194" lon="0.80588">
        <ele>1556.349</ele>
        <time>2011-03-05T14:00:15Z</time>
      </trkpt>
      <trkpt lat="42.04193" lon="0.8061">
        <ele>1557.523</ele>
        <time>2011-03-05T14:00:35Z</time>
      </trkpt>
      <trkpt lat="42.04194" lon="0.80622">
        <ele>1558.787</ele>
        <time>2011-03-05T14:00:49Z</time>
      </trkpt>
      <trkpt lat="42.04195" lon="0.80635">
        <ele>1560.242</ele>
        <time>2011-03-05T14:01:04Z</time>
      </trkpt>
      <trkpt lat="42.04196" lon="0.80638">
        <ele>1560.426</ele>
        <time>2011-03-05T14:01:06Z</time>
      </trkpt>
      <trkpt lat="42.04198" lon="0.80653">
        <ele>1562.208</ele>
        <time>2011-03-05T14:01:24Z</time>
      </trkpt>
      <trkpt lat="42.04199" lon="0.80663">
        <ele>1563.58</ele>
        <time>2011-03-05T14:01:38Z</time>
      </trkpt>
      <trkpt lat="42.04199" lon="0.80665">
        <ele>1564.139</ele>
        <time>2011-03-05T14:02:02Z</time>
      </trkpt>
      <trkpt lat="42.04203" lon="0.80677">
        <ele>1564.82</ele>
        <time>2011-03-05T14:02:56Z</time>
      </trkpt>
      <trkpt lat="42.0421" lon="0.80692">
        <ele>1565.482</ele>
        <time>2011-03-05T14:03:13Z</time>
      </trkpt>
      <trkpt lat="42.04217" lon="0.8071">
        <ele>1565.865</ele>
        <time>2011-03-05T14:03:29Z</time>
      </trkpt>
      <trkpt lat="42.04218" lon="0.80721">
        <ele>1567.266</ele>
        <time>2011-03-05T14:03:42Z</time>
      </trkpt>
      <trkpt lat="42.04227" lon="0.80746">
        <ele>1567.843</ele>
        <time>2011-03-05T14:04:02Z</time>
      </trkpt>
      <trkpt lat="42.04231" lon="0.80763">
        <ele>1569.177</ele>
        <time>2011-03-05T14:04:18Z</time>
      </trkpt>
      <trkpt lat="42.04236" lon="0.80778">
        <ele>1569.588</ele>
        <time>2011-03-05T14:04:34Z</time>
      </trkpt>
      <trkpt lat="42.04239" lon="0.80784">
        <ele>1569.524</ele>
        <time>2011-03-05T14:04:54Z</time>
      </trkpt>
      <trkpt lat="42.04243" lon="0.80792">
        <ele>1569.326</ele>
        <time>2011-03-05T14:05:34Z</time>
      </trkpt>
      <trkpt lat="42.04245" lon="0.808">
        <ele>1569.708</ele>
        <time>2011-03-05T14:05:41Z</time>
      </trkpt>
      <trkpt lat="42.04252" lon="0.80824">
        <ele>1570.91</ele>
        <time>2011-03-05T14:06:01Z</time>
      </trkpt>
      <trkpt lat="42.0426" lon="0.80848">
        <ele>1571.179</ele>
        <time>2011-03-05T14:06:20Z</time>
      </trkpt>
      <trkpt lat="42.04265" lon="0.80866">
        <ele>1571.96</ele>
        <time>2011-03-05T14:06:39Z</time>
      </trkpt>
      <trkpt lat="42.04265" lon="0.80867">
        <ele>1571.952</ele>
        <time>2011-03-05T14:06:40Z</time>
      </trkpt>
      <trkpt lat="42.04269" lon="0.80872">
        <ele>1571.165</ele>
        <time>2011-03-05T14:06:45Z</time>
      </trkpt>
      <trkpt lat="42.04278" lon="0.80883">
        <ele>1570.156</ele>
        <time>2011-03-05T14:07:05Z</time>
      </trkpt>
      <trkpt lat="42.04283" lon="0.80892">
        <ele>1570.273</ele>
        <time>2011-03-05T14:07:13Z</time>
      </trkpt>
      <trkpt lat="42.04289" lon="0.80912">
        <ele>1570.267</ele>
        <time>2011-03-05T14:07:30Z</time>
      </trkpt>
      <trkpt lat="42.0429" lon="0.80917">
        <ele>1570.323</ele>
        <time>2011-03-05T14:07:40Z</time>
      </trkpt>
      <trkpt lat="42.0429" lon="0.80932">
        <ele>1571.183</ele>
        <time>2011-03-05T14:07:57Z</time>
      </trkpt>
      <trkpt lat="42.04288" lon="0.80954">
        <ele>1572.111</ele>
        <time>2011-03-05T14:08:16Z</time>
      </trkpt>
      <trkpt lat="42.04281" lon="0.80974">
        <ele>1573.008</ele>
        <time>2011-03-05T14:08:33Z</time>
      </trkpt>
      <trkpt lat="42.04276" lon="0.80991">
        <ele>1572.814</ele>
        <time>2011-03-05T14:08:52Z</time>
      </trkpt>
      <trkpt lat="42.04276" lon="0.80991">
        <ele>1572.713</ele>
        <time>2011-03-05T14:08:53Z</time>
      </trkpt>
      <trkpt lat="42.04277" lon="0.81">
        <ele>1571.344</ele>
        <time>2011-03-05T14:09:03Z</time>
      </trkpt>
      <trkpt lat="42.04271" lon="0.8101">
        <ele>1571.216</ele>
        <time>2011-03-05T14:09:18Z</time>
      </trkpt>
      <trkpt lat="42.04269" lon="0.81011">
        <ele>1571.739</ele>
        <time>2011-03-05T14:09:23Z</time>
      </trkpt>
      <trkpt lat="42.04265" lon="0.81024">
        <ele>1571.02</ele>
        <time>2011-03-05T14:09:40Z</time>
      </trkpt>
      <trkpt lat="42.04261" lon="0.8103">
        <ele>1570.957</ele>
        <time>2011-03-05T14:09:56Z</time>
      </trkpt>
      <trkpt lat="42.04258" lon="0.81034">
        <ele>1571.031</ele>
        <time>2011-03-05T14:10:09Z</time>
      </trkpt>
      <trkpt lat="42.04257" lon="0.81039">
        <ele>1570.047</ele>
        <time>2011-03-05T14:10:26Z</time>
      </trkpt>
      <trkpt lat="42.04256" lon="0.81043">
        <ele>1569.329</ele>
        <time>2011-03-05T14:10:40Z</time>
      </trkpt>
      <trkpt lat="42.04253" lon="0.81049">
        <ele>1568.721</ele>
        <time>2011-03-05T14:10:57Z</time>
      </trkpt>
      <trkpt lat="42.04248" lon="0.8106">
        <ele>1567.808</ele>
        <time>2011-03-05T14:11:12Z</time>
      </trkpt>
      <trkpt lat="42.04248" lon="0.81061">
        <ele>1567.846</ele>
        <time>2011-03-05T14:11:13Z</time>
      </trkpt>
      <trkpt lat="42.0424" lon="0.81079">
        <ele>1567.325</ele>
        <time>2011-03-05T14:11:32Z</time>
      </trkpt>
      <trkpt lat="42.04238" lon="0.81093">
        <ele>1566.416</ele>
        <time>2011-03-05T14:11:49Z</time>
      </trkpt>
      <trkpt lat="42.04235" lon="0.811">
        <ele>1566.898</ele>
        <time>2011-03-05T14:11:57Z</time>
      </trkpt>
      <trkpt lat="42.04238" lon="0.8112">
        <ele>1565.061</ele>
        <time>2011-03-05T14:12:14Z</time>
      </trkpt>
      <trkpt lat="42.04239" lon="0.8114">
        <ele>1564.852</ele>
        <time>2011-03-05T14:12:31Z</time>
      </trkpt>
      <trkpt lat="42.04243" lon="0.81161">
        <ele>1566.219</ele>
        <time>2011-03-05T14:12:49Z</time>
      </trkpt>
      <trkpt lat="42.04246" lon="0.81166">
        <ele>1566.293</ele>
        <time>2011-03-05T14:12:54Z</time>
      </trkpt>
      <trkpt lat="42.04258" lon="0.81189">
        <ele>1565.778</ele>
        <time>2011-03-05T14:13:15Z</time>
      </trkpt>
      <trkpt lat="42.04268" lon="0.81206">
        <ele>1565.633</ele>
        <time>2011-03-05T14:13:31Z</time>
      </trkpt>
      <trkpt lat="42.04279" lon="0.81227">
        <ele>1565.926</ele>
        <time>2011-03-05T14:13:50Z</time>
      </trkpt>
      <trkpt lat="42.04291" lon="0.81251">
        <ele>1565.208</ele>
        <time>2011-03-05T14:14:10Z</time>
      </trkpt>
      <trkpt lat="42.04285" lon="0.81274">
        <ele>1566.049</ele>
        <time>2011-03-05T14:14:29Z</time>
      </trkpt>
      <trkpt lat="42.0428" lon="0.8128">
        <ele>1566.248</ele>
        <time>2011-03-05T14:14:36Z</time>
      </trkpt>
      <trkpt lat="42.0427" lon="0.81295">
        <ele>1565.939</ele>
        <time>2011-03-05T14:14:54Z</time>
      </trkpt>
      <trkpt lat="42.0427" lon="0.81295">
        <ele>1565.941</ele>
        <time>2011-03-05T14:14:55Z</time>
      </trkpt>
      <trkpt lat="42.04259" lon="0.8131">
        <ele>1565.574</ele>
        <time>2011-03-05T14:15:13Z</time>
      </trkpt>
      <trkpt lat="42.04259" lon="0.81311">
        <ele>1565.425</ele>
        <time>2011-03-05T14:15:14Z</time>
      </trkpt>
      <trkpt lat="42.04249" lon="0.81333">
        <ele>1562.312</ele>
        <time>2011-03-05T14:15:34Z</time>
      </trkpt>
      <trkpt lat="42.04248" lon="0.8134">
        <ele>1561.746</ele>
        <time>2011-03-05T14:15:40Z</time>
      </trkpt>
      <trkpt lat="42.04245" lon="0.81351">
        <ele>1560.841</ele>
        <time>2011-03-05T14:15:53Z</time>
      </trkpt>
      <trkpt lat="42.04246" lon="0.81369">
        <ele>1558.181</ele>
        <time>2011-03-05T14:16:10Z</time>
      </trkpt>
      <trkpt lat="42.04246" lon="0.81383">
        <ele>1556.509</ele>
        <time>2011-03-05T14:16:24Z</time>
      </trkpt>
      <trkpt lat="42.04249" lon="0.814">
        <ele>1555.008</ele>
        <time>2011-03-05T14:16:39Z</time>
      </trkpt>
      <trkpt lat="42.04249" lon="0.81402">
        <ele>1554.856</ele>
        <time>2011-03-05T14:16:41Z</time>
      </trkpt>
      <trkpt lat="42.0425" lon="0.81411">
        <ele>1554.375</ele>
        <time>2011-03-05T14:16:48Z</time>
      </trkpt>
      <trkpt lat="42.04255" lon="0.81427">
        <ele>1553.496</ele>
        <time>2011-03-05T14:17:02Z</time>
      </trkpt>
      <trkpt lat="42.04259" lon="0.81438">
        <ele>1553.358</ele>
        <time>2011-03-05T14:17:11Z</time>
      </trkpt>
      <trkpt lat="42.04264" lon="0.81462">
        <ele>1554.181</ele>
        <time>2011-03-05T14:17:31Z</time>
      </trkpt>
      <trkpt lat="42.04268" lon="0.81484">
        <ele>1555.152</ele>
        <time>2011-03-05T14:17:48Z</time>
      </trkpt>
      <trkpt lat="42.04273" lon="0.8151">
        <ele>1556.349</ele>
        <time>2011-03-05T14:18:07Z</time>
      </trkpt>
      <trkpt lat="42.04276" lon="0.81521">
        <ele>1556.883</ele>
        <time>2011-03-05T14:18:19Z</time>
      </trkpt>
      <trkpt lat="42.0428" lon="0.81539">
        <ele>1557.571</ele>
        <time>2011-03-05T14:18:35Z</time>
      </trkpt>
      <trkpt lat="42.04283" lon="0.81562">
        <ele>1558.341</ele>
        <time>2011-03-05T14:18:53Z</time>
      </trkpt>
      <trkpt lat="42.04281" lon="0.81583">
        <ele>1559.515</ele>
        <time>2011-03-05T14:19:11Z</time>
      </trkpt>
      <trkpt lat="42.04278" lon="0.81604">
        <ele>1560.708</ele>
        <time>2011-03-05T14:19:28Z</time>
      </trkpt>
      <trkpt lat="42.04275" lon="0.81629">
        <ele>1561.569</ele>
        <time>2011-03-05T14:19:47Z</time>
      </trkpt>
      <trkpt lat="42.04272" lon="0.81655">
        <ele>1561.628</ele>
        <time>2011-03-05T14:20:06Z</time>
      </trkpt>
      <trkpt lat="42.0427" lon="0.81681">
        <ele>1561.799</ele>
        <time>2011-03-05T14:20:25Z</time>
      </trkpt>
      <trkpt lat="42.04272" lon="0.81704">
        <ele>1561.261</ele>
        <time>2011-03-05T14:20:43Z</time>
      </trkpt>
      <trkpt lat="42.04272" lon="0.81729">
        <ele>1561.484</ele>
        <time>2011-03-05T14:21:02Z</time>
      </trkpt>
      <trkpt lat="42.04273" lon="0.81742">
        <ele>1561.625</ele>
        <time>2011-03-05T14:21:17Z</time>
      </trkpt>
      <trkpt lat="42.04273" lon="0.81768">
        <ele>1561.972</ele>
        <time>2011-03-05T14:21:36Z</time>
      </trkpt>
      <trkpt lat="42.0427" lon="0.81792">
        <ele>1562.516</ele>
        <time>2011-03-05T14:21:55Z</time>
      </trkpt>
      <trkpt lat="42.04266" lon="0.81816">
        <ele>1563.244</ele>
        <time>2011-03-05T14:22:15Z</time>
      </trkpt>
      <trkpt lat="42.04261" lon="0.81838">
        <ele>1563.905</ele>
        <time>2011-03-05T14:22:34Z</time>
      </trkpt>
      <trkpt lat="42.0425" lon="0.81864">
        <ele>1564.615</ele>
        <time>2011-03-05T14:22:56Z</time>
      </trkpt>
      <trkpt lat="42.0424" lon="0.81875">
        <ele>1565.308</ele>
        <time>2011-03-05T14:23:11Z</time>
      </trkpt>
      <trkpt lat="42.04238" lon="0.81877">
        <ele>1565.436</ele>
        <time>2011-03-05T14:23:15Z</time>
      </trkpt>
      <trkpt lat="42.0423" lon="0.81897">
        <ele>1564.495</ele>
        <time>2011-03-05T14:23:33Z</time>
      </trkpt>
      <trkpt lat="42.04223" lon="0.8192">
        <ele>1562.226</ele>
        <time>2011-03-05T14:23:52Z</time>
      </trkpt>
      <trkpt lat="42.04212" lon="0.81934">
        <ele>1561.118</ele>
        <time>2011-03-05T14:24:10Z</time>
      </trkpt>
      <trkpt lat="42.042" lon="0.81954">
        <ele>1560.221</ele>
        <time>2011-03-05T14:24:29Z</time>
      </trkpt>
      <trkpt lat="42.042" lon="0.81955">
        <ele>1560.242</ele>
        <time>2011-03-05T14:24:30Z</time>
      </trkpt>
      <trkpt lat="42.04199" lon="0.81979">
        <ele>1559.069</ele>
        <time>2011-03-05T14:24:48Z</time>
      </trkpt>
      <trkpt lat="42.04198" lon="0.82007">
        <ele>1558.793</ele>
        <time>2011-03-05T14:25:07Z</time>
      </trkpt>
      <trkpt lat="42.0419" lon="0.82032">
        <ele>1558.959</ele>
        <time>2011-03-05T14:25:26Z</time>
      </trkpt>
      <trkpt lat="42.04182" lon="0.82062">
        <ele>1558.503</ele>
        <time>2011-03-05T14:25:47Z</time>
      </trkpt>
      <trkpt lat="42.04175" lon="0.82089">
        <ele>1557.223</ele>
        <time>2011-03-05T14:26:06Z</time>
      </trkpt>
      <trkpt lat="42.04171" lon="0.82107">
        <ele>1555.608</ele>
        <time>2011-03-05T14:26:21Z</time>
      </trkpt>
      <trkpt lat="42.04164" lon="0.82123">
        <ele>1556.397</ele>
        <time>2011-03-05T14:26:36Z</time>
      </trkpt>
      <trkpt lat="42.04162" lon="0.82125">
        <ele>1556.656</ele>
        <time>2011-03-05T14:26:38Z</time>
      </trkpt>
      <trkpt lat="42.04161" lon="0.82148">
        <ele>1556.357</ele>
        <time>2011-03-05T14:26:55Z</time>
      </trkpt>
      <trkpt lat="42.04161" lon="0.82176">
        <ele>1555.719</ele>
        <time>2011-03-05T14:27:14Z</time>
      </trkpt>
      <trkpt lat="42.04162" lon="0.82205">
        <ele>1555.782</ele>
        <time>2011-03-05T14:27:34Z</time>
      </trkpt>
      <trkpt lat="42.04169" lon="0.82238">
        <ele>1554.923</ele>
        <time>2011-03-05T14:27:57Z</time>
      </trkpt>
      <trkpt lat="42.04168" lon="0.82258">
        <ele>1556.23</ele>
        <time>2011-03-05T14:28:13Z</time>
      </trkpt>
      <trkpt lat="42.04172" lon="0.82284">
        <ele>1556.854</ele>
        <time>2011-03-05T14:28:32Z</time>
      </trkpt>
      <trkpt lat="42.04177" lon="0.82316">
        <ele>1556.536</ele>
        <time>2011-03-05T14:28:55Z</time>
      </trkpt>
      <trkpt lat="42.04174" lon="0.82337">
        <ele>1558.217</ele>
        <time>2011-03-05T14:29:12Z</time>
      </trkpt>
      <trkpt lat="42.04169" lon="0.8236">
        <ele>1559.318</ele>
        <time>2011-03-05T14:29:29Z</time>
      </trkpt>
      <trkpt lat="42.04165" lon="0.8238">
        <ele>1559.708</ele>
        <time>2011-03-05T14:29:45Z</time>
      </trkpt>
      <trkpt lat="42.04162" lon="0.82402">
        <ele>1559.135</ele>
        <time>2011-03-05T14:30:02Z</time>
      </trkpt>
      <trkpt lat="42.04157" lon="0.82431">
        <ele>1557.764</ele>
        <time>2011-03-05T14:30:22Z</time>
      </trkpt>
      <trkpt lat="42.04153" lon="0.8245">
        <ele>1556.835</ele>
        <time>2011-03-05T14:30:40Z</time>
      </trkpt>
      <trkpt lat="42.04156" lon="0.82448">
        <ele>1556.517</ele>
        <time>2011-03-05T14:30:59Z</time>
      </trkpt>
      <trkpt lat="42.04167" lon="0.82439">
        <ele>1555.49</ele>
        <time>2011-03-05T14:31:17Z</time>
      </trkpt>
      <trkpt lat="42.04171" lon="0.82449">
        <ele>1553.771</ele>
        <time>2011-03-05T14:31:35Z</time>
      </trkpt>
      <trkpt lat="42.04171" lon="0.82449">
        <ele>1553.798</ele>
        <time>2011-03-05T14:32:37Z</time>
      </trkpt>
      <trkpt lat="42.0417" lon="0.8245">
        <ele>1553.922</ele>
        <time>2011-03-05T14:33:15Z</time>
      </trkpt>
      <trkpt lat="42.04166" lon="0.82452">
        <ele>1554.362</ele>
        <time>2011-03-05T14:33:31Z</time>
      </trkpt>
      <trkpt lat="42.04165" lon="0.82456">
        <ele>1554.083</ele>
        <time>2011-03-05T14:34:04Z</time>
      </trkpt>
      <trkpt lat="42.04159" lon="0.82488">
        <ele>1551.211</ele>
        <time>2011-03-05T14:34:25Z</time>
      </trkpt>
      <trkpt lat="42.04155" lon="0.82513">
        <ele>1548.408</ele>
        <time>2011-03-05T14:34:44Z</time>
      </trkpt>
      <trkpt lat="42.04152" lon="0.82531">
        <ele>1546.278</ele>
        <time>2011-03-05T14:35:02Z</time>
      </trkpt>
      <trkpt lat="42.04147" lon="0.82548">
        <ele>1544.147</ele>
        <time>2011-03-05T14:35:19Z</time>
      </trkpt>
      <trkpt lat="42.04139" lon="0.82568">
        <ele>1541.768</ele>
        <time>2011-03-05T14:35:37Z</time>
      </trkpt>
      <trkpt lat="42.04133" lon="0.82577">
        <ele>1540.53</ele>
        <time>2011-03-05T14:35:46Z</time>
      </trkpt>
      <trkpt lat="42.04124" lon="0.82595">
        <ele>1538.073</ele>
        <time>2011-03-05T14:36:02Z</time>
      </trkpt>
      <trkpt lat="42.04117" lon="0.82607">
        <ele>1536.364</ele>
        <time>2011-03-05T14:36:12Z</time>
      </trkpt>
      <trkpt lat="42.04113" lon="0.82615">
        <ele>1535.251</ele>
        <time>2011-03-05T14:36:19Z</time>
      </trkpt>
      <trkpt lat="42.04108" lon="0.82632">
        <ele>1532.255</ele>
        <time>2011-03-05T14:36:33Z</time>
      </trkpt>
      <trkpt lat="42.04109" lon="0.82651">
        <ele>1528.816</ele>
        <time>2011-03-05T14:36:48Z</time>
      </trkpt>
      <trkpt lat="42.04111" lon="0.82672">
        <ele>1525.576</ele>
        <time>2011-03-05T14:37:02Z</time>
      </trkpt>
      <trkpt lat="42.0411" lon="0.82699">
        <ele>1522.513</ele>
        <time>2011-03-05T14:37:20Z</time>
      </trkpt>
      <trkpt lat="42.04109" lon="0.82712">
        <ele>1521.108</ele>
        <time>2011-03-05T14:37:28Z</time>
      </trkpt>
      <trkpt lat="42.04105" lon="0.82739">
        <ele>1518.733</ele>
        <time>2011-03-05T14:37:46Z</time>
      </trkpt>
      <trkpt lat="42.04105" lon="0.82745">
        <ele>1518.222</ele>
        <time>2011-03-05T14:37:51Z</time>
      </trkpt>
      <trkpt lat="42.04105" lon="0.82761">
        <ele>1516.623</ele>
        <time>2011-03-05T14:38:03Z</time>
      </trkpt>
      <trkpt lat="42.04105" lon="0.82792">
        <ele>1514.015</ele>
        <time>2011-03-05T14:38:22Z</time>
      </trkpt>
      <trkpt lat="42.04104" lon="0.82824">
        <ele>1512.278</ele>
        <time>2011-03-05T14:38:43Z</time>
      </trkpt>
      <trkpt lat="42.04102" lon="0.82862">
        <ele>1509.639</ele>
        <time>2011-03-05T14:39:05Z</time>
      </trkpt>
      <trkpt lat="42.04104" lon="0.82891">
        <ele>1508.586</ele>
        <time>2011-03-05T14:39:24Z</time>
      </trkpt>
      <trkpt lat="42.04105" lon="0.82927">
        <ele>1508.35</ele>
        <time>2011-03-05T14:39:46Z</time>
      </trkpt>
      <trkpt lat="42.04103" lon="0.82961">
        <ele>1508.814</ele>
        <time>2011-03-05T14:40:08Z</time>
      </trkpt>
      <trkpt lat="42.04102" lon="0.82993">
        <ele>1509.654</ele>
        <time>2011-03-05T14:40:29Z</time>
      </trkpt>
      <trkpt lat="42.04103" lon="0.83024">
        <ele>1511.309</ele>
        <time>2011-03-05T14:40:51Z</time>
      </trkpt>
      <trkpt lat="42.04103" lon="0.83029">
        <ele>1511.308</ele>
        <time>2011-03-05T14:40:55Z</time>
      </trkpt>
      <trkpt lat="42.04105" lon="0.83061">
        <ele>1512.853</ele>
        <time>2011-03-05T14:41:19Z</time>
      </trkpt>
      <trkpt lat="42.04106" lon="0.83074">
        <ele>1514.362</ele>
        <time>2011-03-05T14:41:29Z</time>
      </trkpt>
      <trkpt lat="42.04107" lon="0.83088">
        <ele>1515.483</ele>
        <time>2011-03-05T14:41:40Z</time>
      </trkpt>
      <trkpt lat="42.04104" lon="0.83113">
        <ele>1516.115</ele>
        <time>2011-03-05T14:41:59Z</time>
      </trkpt>
      <trkpt lat="42.04093" lon="0.83135">
        <ele>1517.238</ele>
        <time>2011-03-05T14:42:18Z</time>
      </trkpt>
      <trkpt lat="42.0408" lon="0.83163">
        <ele>1515.349</ele>
        <time>2011-03-05T14:42:39Z</time>
      </trkpt>
      <trkpt lat="42.04075" lon="0.83172">
        <ele>1512.246</ele>
        <time>2011-03-05T14:42:56Z</time>
      </trkpt>
      <trkpt lat="42.04071" lon="0.83185">
        <ele>1510.43</ele>
        <time>2011-03-05T14:44:03Z</time>
      </trkpt>
      <trkpt lat="42.04065" lon="0.83205">
        <ele>1509.222</ele>
        <time>2011-03-05T14:44:20Z</time>
      </trkpt>
      <trkpt lat="42.0406" lon="0.83219">
        <ele>1508.962</ele>
        <time>2011-03-05T14:44:33Z</time>
      </trkpt>
      <trkpt lat="42.04057" lon="0.83227">
        <ele>1507.908</ele>
        <time>2011-03-05T14:44:41Z</time>
      </trkpt>
      <trkpt lat="42.04049" lon="0.83237">
        <ele>1505.508</ele>
        <time>2011-03-05T14:44:52Z</time>
      </trkpt>
      <trkpt lat="42.04049" lon="0.83238">
        <ele>1505.254</ele>
        <time>2011-03-05T14:44:53Z</time>
      </trkpt>
      <trkpt lat="42.0404" lon="0.83255">
        <ele>1500.793</ele>
        <time>2011-03-05T14:45:12Z</time>
      </trkpt>
      <trkpt lat="42.04036" lon="0.83265">
        <ele>1498.314</ele>
        <time>2011-03-05T14:45:24Z</time>
      </trkpt>
      <trkpt lat="42.04036" lon="0.83278">
        <ele>1495.456</ele>
        <time>2011-03-05T14:45:40Z</time>
      </trkpt>
      <trkpt lat="42.04036" lon="0.83285">
        <ele>1493.389</ele>
        <time>2011-03-05T14:45:49Z</time>
      </trkpt>
      <trkpt lat="42.04034" lon="0.83295">
        <ele>1490.34</ele>
        <time>2011-03-05T14:46:03Z</time>
      </trkpt>
      <trkpt lat="42.04027" lon="0.83302">
        <ele>1487.797</ele>
        <time>2011-03-05T14:46:18Z</time>
      </trkpt>
      <trkpt lat="42.04027" lon="0.83309">
        <ele>1485.521</ele>
        <time>2011-03-05T14:46:26Z</time>
      </trkpt>
      <trkpt lat="42.04028" lon="0.83323">
        <ele>1482.132</ele>
        <time>2011-03-05T14:46:41Z</time>
      </trkpt>
      <trkpt lat="42.04029" lon="0.83324">
        <ele>1481.892</ele>
        <time>2011-03-05T14:46:42Z</time>
      </trkpt>
      <trkpt lat="42.04031" lon="0.83335">
        <ele>1479.111</ele>
        <time>2011-03-05T14:46:53Z</time>
      </trkpt>
      <trkpt lat="42.04034" lon="0.83346">
        <ele>1476.508</ele>
        <time>2011-03-05T14:47:07Z</time>
      </trkpt>
      <trkpt lat="42.04034" lon="0.83347">
        <ele>1476.395</ele>
        <time>2011-03-05T14:47:08Z</time>
      </trkpt>
      <trkpt lat="42.04032" lon="0.83352">
        <ele>1474.874</ele>
        <time>2011-03-05T14:47:14Z</time>
      </trkpt>
      <trkpt lat="42.04034" lon="0.83367">
        <ele>1470.885</ele>
        <time>2011-03-05T14:47:30Z</time>
      </trkpt>
      <trkpt lat="42.04035" lon="0.83376">
        <ele>1468.217</ele>
        <time>2011-03-05T14:47:44Z</time>
      </trkpt>
      <trkpt lat="42.04037" lon="0.83387">
        <ele>1465.08</ele>
        <time>2011-03-05T14:47:57Z</time>
      </trkpt>
      <trkpt lat="42.04037" lon="0.83389">
        <ele>1464.251</ele>
        <time>2011-03-05T14:48:00Z</time>
      </trkpt>
      <trkpt lat="42.04038" lon="0.83398">
        <ele>1461.698</ele>
        <time>2011-03-05T14:48:12Z</time>
      </trkpt>
      <trkpt lat="42.04036" lon="0.83402">
        <ele>1460.192</ele>
        <time>2011-03-05T14:48:19Z</time>
      </trkpt>
      <trkpt lat="42.04034" lon="0.83412">
        <ele>1456.578</ele>
        <time>2011-03-05T14:48:34Z</time>
      </trkpt>
      <trkpt lat="42.04033" lon="0.83421">
        <ele>1453.333</ele>
        <time>2011-03-05T14:48:49Z</time>
      </trkpt>
      <trkpt lat="42.04033" lon="0.83425">
        <ele>1452.026</ele>
        <time>2011-03-05T14:48:54Z</time>
      </trkpt>
      <trkpt lat="42.04034" lon="0.83433">
        <ele>1449.308</ele>
        <time>2011-03-05T14:49:09Z</time>
      </trkpt>
      <trkpt lat="42.04034" lon="0.83437">
        <ele>1448.079</ele>
        <time>2011-03-05T14:49:27Z</time>
      </trkpt>
      <trkpt lat="42.04033" lon="0.83438">
        <ele>1447.768</ele>
        <time>2011-03-05T14:50:11Z</time>
      </trkpt>
      <trkpt lat="42.04036" lon="0.83446">
        <ele>1445.239</ele>
        <time>2011-03-05T14:50:25Z</time>
      </trkpt>
      <trkpt lat="42.04036" lon="0.83446">
        <ele>1445.191</ele>
        <time>2011-03-05T14:50:26Z</time>
      </trkpt>
      <trkpt lat="42.04033" lon="0.83455">
        <ele>1441.094</ele>
        <time>2011-03-05T14:50:42Z</time>
      </trkpt>
      <trkpt lat="42.0403" lon="0.83462">
        <ele>1437.785</ele>
        <time>2011-03-05T14:50:57Z</time>
      </trkpt>
      <trkpt lat="42.04031" lon="0.83469">
        <ele>1434.482</ele>
        <time>2011-03-05T14:51:09Z</time>
      </trkpt>
      <trkpt lat="42.04034" lon="0.83474">
        <ele>1432.526</ele>
        <time>2011-03-05T14:51:19Z</time>
      </trkpt>
      <trkpt lat="42.04032" lon="0.83481">
        <ele>1429.262</ele>
        <time>2011-03-05T14:51:35Z</time>
      </trkpt>
      <trkpt lat="42.0403" lon="0.83486">
        <ele>1426.883</ele>
        <time>2011-03-05T14:51:49Z</time>
      </trkpt>
      <trkpt lat="42.04031" lon="0.8349">
        <ele>1424.911</ele>
        <time>2011-03-05T14:52:00Z</time>
      </trkpt>
      <trkpt lat="42.0403" lon="0.83493">
        <ele>1423.808</ele>
        <time>2011-03-05T14:52:05Z</time>
      </trkpt>
      <trkpt lat="42.04031" lon="0.83496">
        <ele>1422.598</ele>
        <time>2011-03-05T14:52:16Z</time>
      </trkpt>
      <trkpt lat="42.04031" lon="0.83498">
        <ele>1421.447</ele>
        <time>2011-03-05T14:52:39Z</time>
      </trkpt>
      <trkpt lat="42.04031" lon="0.83501">
        <ele>1419.918</ele>
        <time>2011-03-05T14:52:53Z</time>
      </trkpt>
      <trkpt lat="42.04024" lon="0.83504">
        <ele>1416.77</ele>
        <time>2011-03-05T14:53:07Z</time>
      </trkpt>
      <trkpt lat="42.04022" lon="0.83508">
        <ele>1413.243</ele>
        <time>2011-03-05T14:53:19Z</time>
      </trkpt>
      <trkpt lat="42.04024" lon="0.83515">
        <ele>1412.134</ele>
        <time>2011-03-05T14:53:31Z</time>
      </trkpt>
      <trkpt lat="42.04024" lon="0.83523">
        <ele>1408.541</ele>
        <time>2011-03-05T14:53:46Z</time>
      </trkpt>
      <trkpt lat="42.04023" lon="0.83529">
        <ele>1405.515</ele>
        <time>2011-03-05T14:53:59Z</time>
      </trkpt>
      <trkpt lat="42.04028" lon="0.83535">
        <ele>1405.841</ele>
        <time>2011-03-05T14:54:12Z</time>
      </trkpt>
      <trkpt lat="42.04026" lon="0.83538">
        <ele>1403.481</ele>
        <time>2011-03-05T14:54:24Z</time>
      </trkpt>
      <trkpt lat="42.04021" lon="0.83544">
        <ele>1398.509</ele>
        <time>2011-03-05T14:54:41Z</time>
      </trkpt>
      <trkpt lat="42.04019" lon="0.83544">
        <ele>1397.608</ele>
        <time>2011-03-05T14:54:47Z</time>
      </trkpt>
      <trkpt lat="42.04017" lon="0.83548">
        <ele>1395.376</ele>
        <time>2011-03-05T14:55:01Z</time>
      </trkpt>
      <trkpt lat="42.04019" lon="0.83553">
        <ele>1393.785</ele>
        <time>2011-03-05T14:55:12Z</time>
      </trkpt>
      <trkpt lat="42.04017" lon="0.83558">
        <ele>1390.736</ele>
        <time>2011-03-05T14:55:26Z</time>
      </trkpt>
      <trkpt lat="42.04014" lon="0.83562">
        <ele>1388.058</ele>
        <time>2011-03-05T14:55:43Z</time>
      </trkpt>
      <trkpt lat="42.04013" lon="0.83568">
        <ele>1384.631</ele>
        <time>2011-03-05T14:55:54Z</time>
      </trkpt>
      <trkpt lat="42.04013" lon="0.83575">
        <ele>1382.022</ele>
        <time>2011-03-05T14:56:09Z</time>
      </trkpt>
      <trkpt lat="42.04011" lon="0.83577">
        <ele>1380.179</ele>
        <time>2011-03-05T14:56:24Z</time>
      </trkpt>
      <trkpt lat="42.04012" lon="0.83583">
        <ele>1378.093</ele>
        <time>2011-03-05T14:56:38Z</time>
      </trkpt>
      <trkpt lat="42.04012" lon="0.83587">
        <ele>1376.158</ele>
        <time>2011-03-05T14:56:50Z</time>
      </trkpt>
      <trkpt lat="42.04011" lon="0.83592">
        <ele>1373.952</ele>
        <time>2011-03-05T14:57:02Z</time>
      </trkpt>
      <trkpt lat="42.04009" lon="0.83598">
        <ele>1371.017</ele>
        <time>2011-03-05T14:57:17Z</time>
      </trkpt>
      <trkpt lat="42.04012" lon="0.83603">
        <ele>1369.608</ele>
        <time>2011-03-05T14:57:27Z</time>
      </trkpt>
      <trkpt lat="42.04013" lon="0.83608">
        <ele>1367.517</ele>
        <time>2011-03-05T14:57:43Z</time>
      </trkpt>
      <trkpt lat="42.04013" lon="0.83609">
        <ele>1367.146</ele>
        <time>2011-03-05T14:57:45Z</time>
      </trkpt>
      <trkpt lat="42.04013" lon="0.83615">
        <ele>1364.117</ele>
        <time>2011-03-05T14:58:01Z</time>
      </trkpt>
      <trkpt lat="42.04011" lon="0.83619">
        <ele>1362.099</ele>
        <time>2011-03-05T14:58:14Z</time>
      </trkpt>
      <trkpt lat="42.04006" lon="0.83624">
        <ele>1359.282</ele>
        <time>2011-03-05T14:58:33Z</time>
      </trkpt>
      <trkpt lat="42.04005" lon="0.83628">
        <ele>1357.163</ele>
        <time>2011-03-05T14:58:44Z</time>
      </trkpt>
      <trkpt lat="42.04003" lon="0.83635">
        <ele>1354.04</ele>
        <time>2011-03-05T14:59:00Z</time>
      </trkpt>
      <trkpt lat="42.04004" lon="0.83637">
        <ele>1352.564</ele>
        <time>2011-03-05T14:59:17Z</time>
      </trkpt>
      <trkpt lat="42.04002" lon="0.83641">
        <ele>1351.163</ele>
        <time>2011-03-05T14:59:32Z</time>
      </trkpt>
      <trkpt lat="42.03999" lon="0.83643">
        <ele>1349.844</ele>
        <time>2011-03-05T14:59:47Z</time>
      </trkpt>
      <trkpt lat="42.03993" lon="0.83644">
        <ele>1347.318</ele>
        <time>2011-03-05T14:59:59Z</time>
      </trkpt>
      <trkpt lat="42.03988" lon="0.83658">
        <ele>1342.608</ele>
        <time>2011-03-05T15:00:15Z</time>
      </trkpt>
      <trkpt lat="42.03989" lon="0.83656">
        <ele>1343.198</ele>
        <time>2011-03-05T15:00:30Z</time>
      </trkpt>
      <trkpt lat="42.0399" lon="0.83655">
        <ele>1343.597</ele>
        <time>2011-03-05T15:00:53Z</time>
      </trkpt>
      <trkpt lat="42.0399" lon="0.83653">
        <ele>1343.988</ele>
        <time>2011-03-05T15:01:55Z</time>
      </trkpt>
      <trkpt lat="42.03989" lon="0.83653">
        <ele>1343.72</ele>
        <time>2011-03-05T15:03:24Z</time>
      </trkpt>
      <trkpt lat="42.03989" lon="0.83653">
        <ele>1343.823</ele>
        <time>2011-03-05T15:04:31Z</time>
      </trkpt>
      <trkpt lat="42.03989" lon="0.83652">
        <ele>1344.054</ele>
        <time>2011-03-05T15:05:34Z</time>
      </trkpt>
      <trkpt lat="42.0399" lon="0.83654">
        <ele>1343.751</ele>
        <time>2011-03-05T15:06:43Z</time>
      </trkpt>
      <trkpt lat="42.03993" lon="0.83656">
        <ele>1343.655</ele>
        <time>2011-03-05T15:08:37Z</time>
      </trkpt>
      <trkpt lat="42.0399" lon="0.83654">
        <ele>1343.922</ele>
        <time>2011-03-05T15:10:03Z</time>
      </trkpt>
      <trkpt lat="42.03989" lon="0.83653">
        <ele>1343.962</ele>
        <time>2011-03-05T15:10:33Z</time>
      </trkpt>
      <trkpt lat="42.03989" lon="0.83653">
        <ele>1343.908</ele>
        <time>2011-03-05T15:10:40Z</time>
      </trkpt>
      <trkpt lat="42.03988" lon="0.83654">
        <ele>1343.408</ele>
        <time>2011-03-05T15:11:14Z</time>
      </trkpt>
      <trkpt lat="42.0399" lon="0.83654">
        <ele>1343.854</ele>
        <time>2011-03-05T15:13:24Z</time>
      </trkpt>
      <trkpt lat="42.0399" lon="0.83654">
        <ele>1343.973</ele>
        <time>2011-03-05T15:13:42Z</time>
      </trkpt>
      <trkpt lat="42.0399" lon="0.83654">
        <ele>1343.934</ele>
        <time>2011-03-05T15:14:07Z</time>
      </trkpt>
      <trkpt lat="42.0399" lon="0.83654">
        <ele>1343.796</ele>
        <time>2011-03-05T15:15:34Z</time>
      </trkpt>
      <trkpt lat="42.0399" lon="0.83653">
        <ele>1344.099</ele>
        <time>2011-03-05T15:18:30Z</time>
      </trkpt>
      <trkpt lat="42.03989" lon="0.83654">
        <ele>1343.74</ele>
        <time>2011-03-05T15:21:12Z</time>
      </trkpt>
      <trkpt lat="42.03989" lon="0.83653">
        <ele>1343.847</ele>
        <time>2011-03-05T15:25:29Z</time>
      </trkpt>
      <trkpt lat="42.0399" lon="0.83653">
        <ele>1344.031</ele>
        <time>2011-03-05T15:27:05Z</time>
      </trkpt>
      <trkpt lat="42.03991" lon="0.83656">
        <ele>1343.521</ele>
        <time>2011-03-05T15:28:55Z</time>
      </trkpt>
      <trkpt lat="42.03989" lon="0.83656">
        <ele>1343.141</ele>
        <time>2011-03-05T15:35:00Z</time>
      </trkpt>
      <trkpt lat="42.03988" lon="0.83657">
        <ele>1342.805</ele>
        <time>2011-03-05T15:36:48Z</time>
      </trkpt>
      <trkpt lat="42.03988" lon="0.83655">
        <ele>1343.208</ele>
        <time>2011-03-05T16:00:53Z</time>
      </trkpt>
      <trkpt lat="42.03988" lon="0.83654">
        <ele>1343.484</ele>
        <time>2011-03-05T16:01:53Z</time>
      </trkpt>
      <trkpt lat="42.03987" lon="0.83657">
        <ele>1342.873</ele>
        <time>2011-03-05T16:02:34Z</time>
      </trkpt>
      <trkpt lat="42.03981" lon="0.83657">
        <ele>1342.094</ele>
        <time>2011-03-05T16:03:24Z</time>
      </trkpt>
      <trkpt lat="42.03985" lon="0.83655">
        <ele>1342.746</ele>
        <time>2011-03-05T16:04:49Z</time>
      </trkpt>
      <trkpt lat="42.03987" lon="0.83654">
        <ele>1343.269</ele>
        <time>2011-03-05T16:06:01Z</time>
      </trkpt>
      <trkpt lat="42.03982" lon="0.83656">
        <ele>1342.23</ele>
        <time>2011-03-05T16:06:29Z</time>
      </trkpt>
      <trkpt lat="42.03982" lon="0.83656">
        <ele>1342.167</ele>
        <time>2011-03-05T16:06:30Z</time>
      </trkpt>
      <trkpt lat="42.03978" lon="0.8366">
        <ele>1341.621</ele>
        <time>2011-03-05T16:06:46Z</time>
      </trkpt>
      <trkpt lat="42.0398" lon="0.83659">
        <ele>1341.736</ele>
        <time>2011-03-05T16:06:49Z</time>
      </trkpt>
      <trkpt lat="42.03978" lon="0.8366">
        <ele>1341.617</ele>
        <time>2011-03-05T16:07:01Z</time>
      </trkpt>
      <trkpt lat="42.03974" lon="0.83661">
        <ele>1341.418</ele>
        <time>2011-03-05T16:07:07Z</time>
      </trkpt>
      <trkpt lat="42.03966" lon="0.83659">
        <ele>1338.208</ele>
        <time>2011-03-05T16:07:19Z</time>
      </trkpt>
      <trkpt lat="42.03963" lon="0.83658">
        <ele>1336.975</ele>
        <time>2011-03-05T16:07:33Z</time>
      </trkpt>
      <trkpt lat="42.03961" lon="0.83658">
        <ele>1335.874</ele>
        <time>2011-03-05T16:08:01Z</time>
      </trkpt>
      <trkpt lat="42.03962" lon="0.83661">
        <ele>1336.845</ele>
        <time>2011-03-05T16:08:26Z</time>
      </trkpt>
      <trkpt lat="42.0396" lon="0.83662">
        <ele>1336.127</ele>
        <time>2011-03-05T16:08:53Z</time>
      </trkpt>
      <trkpt lat="42.03927" lon="0.83747">
        <ele>1355.47</ele>
        <time>2012-03-18T12:23:27Z</time>
      </trkpt>
      <trkpt lat="42.03924" lon="0.83742">
        <ele>1357.141</ele>
        <time>2012-03-18T12:20:26Z</time>
      </trkpt>
      <trkpt lat="42.03923" lon="0.8374">
        <ele>1357.468</ele>
        <time>2012-03-18T12:20:08Z</time>
      </trkpt>
      <trkpt lat="42.03923" lon="0.83733">
        <ele>1357.412</ele>
        <time>2012-03-18T12:19:57Z</time>
      </trkpt>
      <trkpt lat="42.03914" lon="0.83743">
        <ele>1359.034</ele>
        <time>2012-03-18T12:19:15Z</time>
      </trkpt>
      <trkpt lat="42.03912" lon="0.83744">
        <ele>1357.755</ele>
        <time>2012-03-18T12:19:12Z</time>
      </trkpt>
      <trkpt lat="42.03908" lon="0.83757">
        <ele>1359.31</ele>
        <time>2012-03-18T12:19:00Z</time>
      </trkpt>
      <trkpt lat="42.03906" lon="0.83761">
        <ele>1360.008</ele>
        <time>2012-03-18T12:18:57Z</time>
      </trkpt>
      <trkpt lat="42.03903" lon="0.83762">
        <ele>1359.255</ele>
        <time>2012-03-18T12:18:52Z</time>
      </trkpt>
      <trkpt lat="42.03899" lon="0.83765">
        <ele>1359.714</ele>
        <time>2012-03-18T12:18:49Z</time>
      </trkpt>
      <trkpt lat="42.03898" lon="0.83767">
        <ele>1360.295</ele>
        <time>2012-03-18T12:18:48Z</time>
      </trkpt>
      <trkpt lat="42.03885" lon="0.83785">
        <ele>1367.297</ele>
        <time>2012-03-18T12:18:37Z</time>
      </trkpt>
      <trkpt lat="42.03884" lon="0.83789">
        <ele>1368.98</ele>
        <time>2012-03-18T12:18:35Z</time>
      </trkpt>
      <trkpt lat="42.03876" lon="0.83792">
        <ele>1367.161</ele>
        <time>2012-03-18T12:18:28Z</time>
      </trkpt>
      <trkpt lat="42.03872" lon="0.83802">
        <ele>1371.498</ele>
        <time>2012-03-18T12:18:22Z</time>
      </trkpt>
      <trkpt lat="42.03872" lon="0.83805">
        <ele>1373.052</ele>
        <time>2012-03-18T12:18:20Z</time>
      </trkpt>
      <trkpt lat="42.03873" lon="0.83807">
        <ele>1373.412</ele>
        <time>2012-03-18T12:18:19Z</time>
      </trkpt>
      <trkpt lat="42.03875" lon="0.83811">
        <ele>1373.932</ele>
        <time>2012-03-18T12:18:17Z</time>
      </trkpt>
      <trkpt lat="42.03874" lon="0.83823">
        <ele>1373.105</ele>
        <time>2012-03-18T12:18:02Z</time>
      </trkpt>
      <trkpt lat="42.03874" lon="0.83825">
        <ele>1373.108</ele>
        <time>2012-03-18T12:17:59Z</time>
      </trkpt>
      <trkpt lat="42.03873" lon="0.83846">
        <ele>1371.873</ele>
        <time>2012-03-18T12:17:44Z</time>
      </trkpt>
      <trkpt lat="42.03874" lon="0.83838">
        <ele>1372.592</ele>
        <time>2012-03-18T12:17:33Z</time>
      </trkpt>
      <trkpt lat="42.03878" lon="0.83857">
        <ele>1371.693</ele>
        <time>2012-03-18T12:15:32Z</time>
      </trkpt>
      <trkpt lat="42.03879" lon="0.83859">
        <ele>1371.435</ele>
        <time>2012-03-18T12:15:24Z</time>
      </trkpt>
      <trkpt lat="42.03878" lon="0.83865">
        <ele>1370.688</ele>
        <time>2012-03-18T12:15:10Z</time>
      </trkpt>
      <trkpt lat="42.03879" lon="0.8387">
        <ele>1369.859</ele>
        <time>2012-03-18T12:15:06Z</time>
      </trkpt>
      <trkpt lat="42.03877" lon="0.83882">
        <ele>1368.176</ele>
        <time>2012-03-18T12:14:55Z</time>
      </trkpt>
      <trkpt lat="42.03874" lon="0.83897">
        <ele>1365.36</ele>
        <time>2012-03-18T12:14:40Z</time>
      </trkpt>
      <trkpt lat="42.03874" lon="0.83906">
        <ele>1363.376</ele>
        <time>2012-03-18T12:14:31Z</time>
      </trkpt>
      <trkpt lat="42.03879" lon="0.83912">
        <ele>1362.19</ele>
        <time>2012-03-18T12:14:19Z</time>
      </trkpt>
      <trkpt lat="42.03882" lon="0.83914">
        <ele>1361.719</ele>
        <time>2012-03-18T12:14:06Z</time>
      </trkpt>
      <trkpt lat="42.03881" lon="0.8392">
        <ele>1360.008</ele>
        <time>2012-03-18T12:13:53Z</time>
      </trkpt>
      <trkpt lat="42.03881" lon="0.83922">
        <ele>1359.739</ele>
        <time>2012-03-18T12:13:52Z</time>
      </trkpt>
      <trkpt lat="42.03882" lon="0.83927">
        <ele>1358.418</ele>
        <time>2012-03-18T12:13:46Z</time>
      </trkpt>
      <trkpt lat="42.03883" lon="0.83935">
        <ele>1356.359</ele>
        <time>2012-03-18T12:13:35Z</time>
      </trkpt>
      <trkpt lat="42.03878" lon="0.8395">
        <ele>1352.611</ele>
        <time>2012-03-18T12:13:20Z</time>
      </trkpt>
      <trkpt lat="42.03877" lon="0.83959">
        <ele>1350.714</ele>
        <time>2012-03-18T12:13:06Z</time>
      </trkpt>
      <trkpt lat="42.03877" lon="0.83971">
        <ele>1348.315</ele>
        <time>2012-03-18T12:12:51Z</time>
      </trkpt>
      <trkpt lat="42.03875" lon="0.8399">
        <ele>1346.142</ele>
        <time>2012-03-18T12:11:06Z</time>
      </trkpt>
      <trkpt lat="42.03875" lon="0.83989">
        <ele>1346.276</ele>
        <time>2012-03-18T12:11:01Z</time>
      </trkpt>
      <trkpt lat="42.03875" lon="0.83997">
        <ele>1345.477</ele>
        <time>2012-03-18T12:10:39Z</time>
      </trkpt>
      <trkpt lat="42.03872" lon="0.84016">
        <ele>1347.161</ele>
        <time>2012-03-18T12:10:26Z</time>
      </trkpt>
      <trkpt lat="42.03872" lon="0.84019">
        <ele>1347.627</ele>
        <time>2012-03-18T12:10:23Z</time>
      </trkpt>
      <trkpt lat="42.03869" lon="0.84027">
        <ele>1349.108</ele>
        <time>2012-03-18T12:10:09Z</time>
      </trkpt>
      <trkpt lat="42.03867" lon="0.84035">
        <ele>1351.779</ele>
        <time>2012-03-18T12:09:58Z</time>
      </trkpt>
      <trkpt lat="42.03864" lon="0.84055">
        <ele>1358.058</ele>
        <time>2012-03-18T12:09:43Z</time>
      </trkpt>
      <trkpt lat="42.03864" lon="0.84074">
        <ele>1360.869</ele>
        <time>2012-03-18T12:09:35Z</time>
      </trkpt>
      <trkpt lat="42.03866" lon="0.8408">
        <ele>1361.231</ele>
        <time>2012-03-18T12:09:32Z</time>
      </trkpt>
      <trkpt lat="42.03867" lon="0.84091">
        <ele>1362.634</ele>
        <time>2012-03-18T12:09:26Z</time>
      </trkpt>
      <trkpt lat="42.03865" lon="0.84096">
        <ele>1364.255</ele>
        <time>2012-03-18T12:09:22Z</time>
      </trkpt>
      <trkpt lat="42.03864" lon="0.84109">
        <ele>1366.742</ele>
        <time>2012-03-18T12:09:10Z</time>
      </trkpt>
      <trkpt lat="42.03864" lon="0.84113">
        <ele>1367.286</ele>
        <time>2012-03-18T12:09:07Z</time>
      </trkpt>
      <trkpt lat="42.03864" lon="0.84115">
        <ele>1367.657</ele>
        <time>2012-03-18T12:09:05Z</time>
      </trkpt>
      <trkpt lat="42.03857" lon="0.8412">
        <ele>1368.2</ele>
        <time>2012-03-18T12:08:57Z</time>
      </trkpt>
      <trkpt lat="42.03857" lon="0.8413">
        <ele>1370.12</ele>
        <time>2012-03-18T12:08:47Z</time>
      </trkpt>
      <trkpt lat="42.03853" lon="0.84146">
        <ele>1372.008</ele>
        <time>2012-03-18T12:08:34Z</time>
      </trkpt>
      <trkpt lat="42.0385" lon="0.84155">
        <ele>1372.867</ele>
        <time>2012-03-18T12:08:28Z</time>
      </trkpt>
      <trkpt lat="42.03849" lon="0.84157">
        <ele>1373.016</ele>
        <time>2012-03-18T12:08:27Z</time>
      </trkpt>
      <trkpt lat="42.03848" lon="0.8417">
        <ele>1374.587</ele>
        <time>2012-03-18T12:08:19Z</time>
      </trkpt>
      <trkpt lat="42.03849" lon="0.84192">
        <ele>1377.799</ele>
        <time>2012-03-18T12:08:08Z</time>
      </trkpt>
      <trkpt lat="42.0385" lon="0.84201">
        <ele>1379.382</ele>
        <time>2012-03-18T12:08:01Z</time>
      </trkpt>
      <trkpt lat="42.03845" lon="0.84222">
        <ele>1383.193</ele>
        <time>2012-03-18T12:07:48Z</time>
      </trkpt>
      <trkpt lat="42.03843" lon="0.84226">
        <ele>1384.46</ele>
        <time>2012-03-18T12:07:44Z</time>
      </trkpt>
      <trkpt lat="42.03843" lon="0.84228">
        <ele>1385.344</ele>
        <time>2012-03-18T12:07:42Z</time>
      </trkpt>
      <trkpt lat="42.03843" lon="0.8423">
        <ele>1385.815</ele>
        <time>2012-03-18T12:07:41Z</time>
      </trkpt>
      <trkpt lat="42.03842" lon="0.84232">
        <ele>1386.765</ele>
        <time>2012-03-18T12:07:40Z</time>
      </trkpt>
      <trkpt lat="42.03839" lon="0.84238">
        <ele>1389.811</ele>
        <time>2012-03-18T12:07:34Z</time>
      </trkpt>
      <trkpt lat="42.03839" lon="0.84239">
        <ele>1390.008</ele>
        <time>2012-03-18T12:07:33Z</time>
      </trkpt>
      <trkpt lat="42.03838" lon="0.84245">
        <ele>1393.053</ele>
        <time>2012-03-18T12:07:26Z</time>
      </trkpt>
      <trkpt lat="42.03838" lon="0.84252">
        <ele>1395.542</ele>
        <time>2012-03-18T12:07:21Z</time>
      </trkpt>
      <trkpt lat="42.03835" lon="0.84254">
        <ele>1397.253</ele>
        <time>2012-03-18T12:07:19Z</time>
      </trkpt>
      <trkpt lat="42.03832" lon="0.84264">
        <ele>1399.345</ele>
        <time>2012-03-18T12:07:14Z</time>
      </trkpt>
      <trkpt lat="42.03829" lon="0.84268">
        <ele>1400.018</ele>
        <time>2012-03-18T12:07:11Z</time>
      </trkpt>
      <trkpt lat="42.03824" lon="0.84278">
        <ele>1403.059</ele>
        <time>2012-03-18T12:07:04Z</time>
      </trkpt>
      <trkpt lat="42.03823" lon="0.84281">
        <ele>1403.496</ele>
        <time>2012-03-18T12:07:02Z</time>
      </trkpt>
      <trkpt lat="42.03819" lon="0.84293">
        <ele>1404.81</ele>
        <time>2012-03-18T12:06:55Z</time>
      </trkpt>
      <trkpt lat="42.03815" lon="0.84296">
        <ele>1405.998</ele>
        <time>2012-03-18T12:06:51Z</time>
      </trkpt>
      <trkpt lat="42.03815" lon="0.84297">
        <ele>1406.115</ele>
        <time>2012-03-18T12:06:50Z</time>
      </trkpt>
      <trkpt lat="42.03817" lon="0.84317">
        <ele>1405.826</ele>
        <time>2012-03-18T12:06:36Z</time>
      </trkpt>
      <trkpt lat="42.03817" lon="0.84329">
        <ele>1405.008</ele>
        <time>2012-03-18T12:06:29Z</time>
      </trkpt>
      <trkpt lat="42.03816" lon="0.84349">
        <ele>1405.761</ele>
        <time>2012-03-18T12:06:18Z</time>
      </trkpt>
      <trkpt lat="42.03816" lon="0.84366">
        <ele>1405.71</ele>
        <time>2012-03-18T12:06:05Z</time>
      </trkpt>
      <trkpt lat="42.03822" lon="0.84394">
        <ele>1401.131</ele>
        <time>2012-03-18T12:05:49Z</time>
      </trkpt>
      <trkpt lat="42.03822" lon="0.84404">
        <ele>1400.323</ele>
        <time>2012-03-18T12:05:43Z</time>
      </trkpt>
      <trkpt lat="42.03823" lon="0.84416">
        <ele>1399.086</ele>
        <time>2012-03-18T12:05:35Z</time>
      </trkpt>
      <trkpt lat="42.03821" lon="0.84423">
        <ele>1400.267</ele>
        <time>2012-03-18T12:05:31Z</time>
      </trkpt>
      <trkpt lat="42.03819" lon="0.84442">
        <ele>1402.974</ele>
        <time>2012-03-18T12:05:18Z</time>
      </trkpt>
      <trkpt lat="42.03814" lon="0.84451">
        <ele>1405.438</ele>
        <time>2012-03-18T12:05:10Z</time>
      </trkpt>
      <trkpt lat="42.03813" lon="0.84455">
        <ele>1406.138</ele>
        <time>2012-03-18T12:05:07Z</time>
      </trkpt>
      <trkpt lat="42.03812" lon="0.8446">
        <ele>1406.87</ele>
        <time>2012-03-18T12:05:04Z</time>
      </trkpt>
      <trkpt lat="42.03807" lon="0.8447">
        <ele>1410.017</ele>
        <time>2012-03-18T12:04:57Z</time>
      </trkpt>
      <trkpt lat="42.03806" lon="0.84476">
        <ele>1410.208</ele>
        <time>2012-03-18T12:04:53Z</time>
      </trkpt>
      <trkpt lat="42.03804" lon="0.84482">
        <ele>1409.765</ele>
        <time>2012-03-18T12:04:49Z</time>
      </trkpt>
      <trkpt lat="42.03803" lon="0.84486">
        <ele>1409.274</ele>
        <time>2012-03-18T12:04:46Z</time>
      </trkpt>
      <trkpt lat="42.03803" lon="0.84489">
        <ele>1409.025</ele>
        <time>2012-03-18T12:04:44Z</time>
      </trkpt>
      <trkpt lat="42.038" lon="0.8451">
        <ele>1406.987</ele>
        <time>2012-03-18T12:04:31Z</time>
      </trkpt>
      <trkpt lat="42.03801" lon="0.84523">
        <ele>1405.49</ele>
        <time>2012-03-18T12:04:23Z</time>
      </trkpt>
      <trkpt lat="42.038" lon="0.84526">
        <ele>1405.181</ele>
        <time>2012-03-18T12:04:21Z</time>
      </trkpt>
      <trkpt lat="42.03801" lon="0.84539">
        <ele>1403.178</ele>
        <time>2012-03-18T12:04:12Z</time>
      </trkpt>
      <trkpt lat="42.03801" lon="0.84557">
        <ele>1400.292</ele>
        <time>2012-03-18T12:03:57Z</time>
      </trkpt>
      <trkpt lat="42.03802" lon="0.84572">
        <ele>1397.175</ele>
        <time>2012-03-18T12:03:40Z</time>
      </trkpt>
      <trkpt lat="42.03799" lon="0.84586">
        <ele>1393.628</ele>
        <time>2012-03-18T12:03:24Z</time>
      </trkpt>
      <trkpt lat="42.03797" lon="0.84591">
        <ele>1391.92</ele>
        <time>2012-03-18T12:03:15Z</time>
      </trkpt>
      <trkpt lat="42.03794" lon="0.84598">
        <ele>1389.508</ele>
        <time>2012-03-18T12:03:01Z</time>
      </trkpt>
      <trkpt lat="42.03792" lon="0.84603">
        <ele>1388.069</ele>
        <time>2012-03-18T12:02:52Z</time>
      </trkpt>
      <trkpt lat="42.03789" lon="0.84614">
        <ele>1384.628</ele>
        <time>2012-03-18T12:02:43Z</time>
      </trkpt>
      <trkpt lat="42.03791" lon="0.84626">
        <ele>1380.819</ele>
        <time>2012-03-18T12:02:29Z</time>
      </trkpt>
      <trkpt lat="42.03789" lon="0.84636">
        <ele>1378.021</ele>
        <time>2012-03-18T12:02:08Z</time>
      </trkpt>
      <trkpt lat="42.03788" lon="0.84643">
        <ele>1376.674</ele>
        <time>2012-03-18T12:01:59Z</time>
      </trkpt>
      <trkpt lat="42.03782" lon="0.84655">
        <ele>1375.635</ele>
        <time>2012-03-18T12:01:49Z</time>
      </trkpt>
      <trkpt lat="42.03777" lon="0.8467">
        <ele>1374.322</ele>
        <time>2012-03-18T12:01:41Z</time>
      </trkpt>
      <trkpt lat="42.03771" lon="0.84692">
        <ele>1371.156</ele>
        <time>2012-03-18T12:01:29Z</time>
      </trkpt>
      <trkpt lat="42.03761" lon="0.84712">
        <ele>1372.745</ele>
        <time>2012-03-18T12:01:16Z</time>
      </trkpt>
      <trkpt lat="42.0376" lon="0.84713">
        <ele>1373.047</ele>
        <time>2012-03-18T12:01:15Z</time>
      </trkpt>
      <trkpt lat="42.03758" lon="0.8473">
        <ele>1374.311</ele>
        <time>2012-03-18T12:01:01Z</time>
      </trkpt>
      <trkpt lat="42.03756" lon="0.84732">
        <ele>1374.808</ele>
        <time>2012-03-18T12:00:59Z</time>
      </trkpt>
      <trkpt lat="42.0375" lon="0.8474">
        <ele>1376.946</ele>
        <time>2012-03-18T12:00:49Z</time>
      </trkpt>
      <trkpt lat="42.03744" lon="0.8474">
        <ele>1376.815</ele>
        <time>2012-03-18T12:00:43Z</time>
      </trkpt>
      <trkpt lat="42.03743" lon="0.84741">
        <ele>1376.826</ele>
        <time>2012-03-18T12:00:41Z</time>
      </trkpt>
      <trkpt lat="42.03741" lon="0.84744">
        <ele>1377.348</ele>
        <time>2012-03-18T12:00:39Z</time>
      </trkpt>
      <trkpt lat="42.03737" lon="0.84749">
        <ele>1378.661</ele>
        <time>2012-03-18T12:00:35Z</time>
      </trkpt>
      <trkpt lat="42.03728" lon="0.84766">
        <ele>1379.732</ele>
        <time>2012-03-18T12:00:23Z</time>
      </trkpt>
      <trkpt lat="42.03724" lon="0.84781">
        <ele>1380.329</ele>
        <time>2012-03-18T12:00:14Z</time>
      </trkpt>
      <trkpt lat="42.03722" lon="0.84785">
        <ele>1380.393</ele>
        <time>2012-03-18T12:00:11Z</time>
      </trkpt>
      <trkpt lat="42.03719" lon="0.84801">
        <ele>1378.657</ele>
        <time>2012-03-18T12:00:02Z</time>
      </trkpt>
      <trkpt lat="42.03716" lon="0.8481">
        <ele>1377.5</ele>
        <time>2012-03-18T11:59:56Z</time>
      </trkpt>
      <trkpt lat="42.03704" lon="0.84829">
        <ele>1376.82</ele>
        <time>2012-03-18T11:59:43Z</time>
      </trkpt>
      <trkpt lat="42.03692" lon="0.84851">
        <ele>1377.008</ele>
        <time>2012-03-18T11:59:28Z</time>
      </trkpt>
      <trkpt lat="42.0368" lon="0.84874">
        <ele>1376.647</ele>
        <time>2012-03-18T11:59:14Z</time>
      </trkpt>
      <trkpt lat="42.03669" lon="0.84894">
        <ele>1377.586</ele>
        <time>2012-03-18T11:59:01Z</time>
      </trkpt>
      <trkpt lat="42.03659" lon="0.84922">
        <ele>1378.087</ele>
        <time>2012-03-18T11:58:45Z</time>
      </trkpt>
      <trkpt lat="42.03652" lon="0.84941">
        <ele>1379.549</ele>
        <time>2012-03-18T11:58:35Z</time>
      </trkpt>
      <trkpt lat="42.03646" lon="0.8497">
        <ele>1381.322</ele>
        <time>2012-03-18T11:58:20Z</time>
      </trkpt>
      <trkpt lat="42.03645" lon="0.84979">
        <ele>1381.993</ele>
        <time>2012-03-18T11:58:15Z</time>
      </trkpt>
      <trkpt lat="42.03645" lon="0.84985">
        <ele>1382.18</ele>
        <time>2012-03-18T11:58:12Z</time>
      </trkpt>
      <trkpt lat="42.03646" lon="0.84997">
        <ele>1382.344</ele>
        <time>2012-03-18T11:58:06Z</time>
      </trkpt>
      <trkpt lat="42.03644" lon="0.85011">
        <ele>1383.192</ele>
        <time>2012-03-18T11:57:59Z</time>
      </trkpt>
      <trkpt lat="42.03642" lon="0.85036">
        <ele>1384.673</ele>
        <time>2012-03-18T11:57:45Z</time>
      </trkpt>
      <trkpt lat="42.03644" lon="0.85061">
        <ele>1383.82</ele>
        <time>2012-03-18T11:57:30Z</time>
      </trkpt>
      <trkpt lat="42.03643" lon="0.85073">
        <ele>1382.508</ele>
        <time>2012-03-18T11:57:23Z</time>
      </trkpt>
      <trkpt lat="42.03643" lon="0.85078">
        <ele>1382.031</ele>
        <time>2012-03-18T11:57:20Z</time>
      </trkpt>
      <trkpt lat="42.03643" lon="0.85103">
        <ele>1378.34</ele>
        <time>2012-03-18T11:57:05Z</time>
      </trkpt>
      <trkpt lat="42.03644" lon="0.8511">
        <ele>1377.061</ele>
        <time>2012-03-18T11:56:59Z</time>
      </trkpt>
      <trkpt lat="42.03646" lon="0.85111">
        <ele>1376.653</ele>
        <time>2012-03-18T11:56:45Z</time>
      </trkpt>
      <trkpt lat="42.03648" lon="0.8512">
        <ele>1374.826</ele>
        <time>2012-03-18T11:56:30Z</time>
      </trkpt>
      <trkpt lat="42.03648" lon="0.85121">
        <ele>1374.617</ele>
        <time>2012-03-18T11:56:28Z</time>
      </trkpt>
      <trkpt lat="42.03646" lon="0.85131">
        <ele>1373.344</ele>
        <time>2012-03-18T11:56:14Z</time>
      </trkpt>
      <trkpt lat="42.03646" lon="0.85143">
        <ele>1371.438</ele>
        <time>2012-03-18T11:56:00Z</time>
      </trkpt>
      <trkpt lat="42.03651" lon="0.8516">
        <ele>1368.249</ele>
        <time>2012-03-18T11:55:39Z</time>
      </trkpt>
      <trkpt lat="42.03656" lon="0.85161">
        <ele>1367.302</ele>
        <time>2012-03-18T11:55:14Z</time>
      </trkpt>
      <trkpt lat="42.03665" lon="0.85165">
        <ele>1364.922</ele>
        <time>2012-03-18T11:54:45Z</time>
      </trkpt>
      <trkpt lat="42.03668" lon="0.85174">
        <ele>1363.908</ele>
        <time>2012-03-18T11:54:31Z</time>
      </trkpt>
      <trkpt lat="42.03669" lon="0.85176">
        <ele>1363.756</ele>
        <time>2012-03-18T11:54:04Z</time>
      </trkpt>
      <trkpt lat="42.03672" lon="0.85184">
        <ele>1362.575</ele>
        <time>2012-03-18T11:53:41Z</time>
      </trkpt>
      <trkpt lat="42.03673" lon="0.85183">
        <ele>1362.016</ele>
        <time>2012-03-18T11:53:27Z</time>
      </trkpt>
      <trkpt lat="42.03669" lon="0.85186">
        <ele>1363.598</ele>
        <time>2012-03-18T11:53:14Z</time>
      </trkpt>
      <trkpt lat="42.03662" lon="0.85191">
        <ele>1366.841</ele>
        <time>2012-03-18T11:52:57Z</time>
      </trkpt>
      <trkpt lat="42.03654" lon="0.85199">
        <ele>1372.182</ele>
        <time>2012-03-18T11:52:41Z</time>
      </trkpt>
      <trkpt lat="42.03651" lon="0.85199">
        <ele>1373.499</ele>
        <time>2012-03-18T11:52:32Z</time>
      </trkpt>
      <trkpt lat="42.03651" lon="0.85198">
        <ele>1373.313</ele>
        <time>2012-03-18T11:52:29Z</time>
      </trkpt>
      <trkpt lat="42.03651" lon="0.85195">
        <ele>1373.118</ele>
        <time>2012-03-18T11:52:14Z</time>
      </trkpt>
      <trkpt lat="42.03651" lon="0.85195">
        <ele>1373.198</ele>
        <time>2012-03-18T11:52:13Z</time>
      </trkpt>
      <trkpt lat="42.03649" lon="0.85192">
        <ele>1373.217</ele>
        <time>2012-03-18T11:51:59Z</time>
      </trkpt>
      <trkpt lat="42.03648" lon="0.85183">
        <ele>1371.408</ele>
        <time>2012-03-18T11:51:47Z</time>
      </trkpt>
      <trkpt lat="42.03645" lon="0.85195">
        <ele>1375.763</ele>
        <time>2012-03-18T11:51:35Z</time>
      </trkpt>
      <trkpt lat="42.03647" lon="0.85205">
        <ele>1375.542</ele>
        <time>2012-03-18T11:51:28Z</time>
      </trkpt>
      <trkpt lat="42.03648" lon="0.85211">
        <ele>1375.523</ele>
        <time>2012-03-18T11:51:22Z</time>
      </trkpt>
      <trkpt lat="42.03648" lon="0.85214">
        <ele>1375.975</ele>
        <time>2012-03-18T11:51:19Z</time>
      </trkpt>
      <trkpt lat="42.03642" lon="0.85236">
        <ele>1376.628</ele>
        <time>2012-03-18T11:51:03Z</time>
      </trkpt>
      <trkpt lat="42.03643" lon="0.85237">
        <ele>1376.419</ele>
        <time>2012-03-18T11:51:02Z</time>
      </trkpt>
      <trkpt lat="42.03636" lon="0.85281">
        <ele>1375.166</ele>
        <time>2012-03-18T11:50:46Z</time>
      </trkpt>
      <trkpt lat="42.03631" lon="0.85291">
        <ele>1375.33</ele>
        <time>2012-03-18T11:50:41Z</time>
      </trkpt>
      <trkpt lat="42.03627" lon="0.85313">
        <ele>1375.869</ele>
        <time>2012-03-18T11:50:29Z</time>
      </trkpt>
      <trkpt lat="42.03627" lon="0.85339">
        <ele>1376.704</ele>
        <time>2012-03-18T11:50:16Z</time>
      </trkpt>
      <trkpt lat="42.0363" lon="0.85367">
        <ele>1377.724</ele>
        <time>2012-03-18T11:50:04Z</time>
      </trkpt>
      <trkpt lat="42.03633" lon="0.85398">
        <ele>1379.908</ele>
        <time>2012-03-18T11:49:52Z</time>
      </trkpt>
      <trkpt lat="42.03634" lon="0.85399">
        <ele>1380.268</ele>
        <time>2012-03-18T11:49:51Z</time>
      </trkpt>
      <trkpt lat="42.03635" lon="0.85425">
        <ele>1381.517</ele>
        <time>2012-03-18T11:49:38Z</time>
      </trkpt>
      <trkpt lat="42.03637" lon="0.85438">
        <ele>1382.338</ele>
        <time>2012-03-18T11:49:27Z</time>
      </trkpt>
      <trkpt lat="42.03636" lon="0.85458">
        <ele>1380.85</ele>
        <time>2012-03-18T11:49:13Z</time>
      </trkpt>
      <trkpt lat="42.03636" lon="0.85459">
        <ele>1380.843</ele>
        <time>2012-03-18T11:49:12Z</time>
      </trkpt>
      <trkpt lat="42.03641" lon="0.85473">
        <ele>1380.024</ele>
        <time>2012-03-18T11:49:00Z</time>
      </trkpt>
      <trkpt lat="42.03641" lon="0.85476">
        <ele>1379.321</ele>
        <time>2012-03-18T11:48:57Z</time>
      </trkpt>
      <trkpt lat="42.03644" lon="0.85498">
        <ele>1374.885</ele>
        <time>2012-03-18T11:48:43Z</time>
      </trkpt>
      <trkpt lat="42.03644" lon="0.85499">
        <ele>1374.829</ele>
        <time>2012-03-18T11:48:42Z</time>
      </trkpt>
      <trkpt lat="42.03641" lon="0.85515">
        <ele>1373.1</ele>
        <time>2012-03-18T11:48:22Z</time>
      </trkpt>
      <trkpt lat="42.0364" lon="0.85523">
        <ele>1372.12</ele>
        <time>2012-03-18T11:48:13Z</time>
      </trkpt>
      <trkpt lat="42.03639" lon="0.85539">
        <ele>1367.708</ele>
        <time>2012-03-18T11:47:59Z</time>
      </trkpt>
      <trkpt lat="42.03638" lon="0.85549">
        <ele>1363.574</ele>
        <time>2012-03-18T11:47:46Z</time>
      </trkpt>
      <trkpt lat="42.03638" lon="0.8555">
        <ele>1363.113</ele>
        <time>2012-03-18T11:47:45Z</time>
      </trkpt>
      <trkpt lat="42.03643" lon="0.85563">
        <ele>1356.394</ele>
        <time>2012-03-18T11:47:26Z</time>
      </trkpt>
      <trkpt lat="42.03648" lon="0.85569">
        <ele>1352.456</ele>
        <time>2012-03-18T11:47:10Z</time>
      </trkpt>
      <trkpt lat="42.03649" lon="0.8557">
        <ele>1351.429</ele>
        <time>2012-03-18T11:47:06Z</time>
      </trkpt>
      <trkpt lat="42.03653" lon="0.85577">
        <ele>1348.36</ele>
        <time>2012-03-18T11:46:57Z</time>
      </trkpt>
      <trkpt lat="42.03656" lon="0.85582">
        <ele>1346.647</ele>
        <time>2012-03-18T11:46:44Z</time>
      </trkpt>
      <trkpt lat="42.0366" lon="0.85588">
        <ele>1345.461</ele>
        <time>2012-03-18T11:46:33Z</time>
      </trkpt>
      <trkpt lat="42.03662" lon="0.85598">
        <ele>1342.339</ele>
        <time>2012-03-18T11:46:21Z</time>
      </trkpt>
      <trkpt lat="42.03664" lon="0.85612">
        <ele>1339.401</ele>
        <time>2012-03-18T11:46:09Z</time>
      </trkpt>
      <trkpt lat="42.03664" lon="0.85616">
        <ele>1338.221</ele>
        <time>2012-03-18T11:46:05Z</time>
      </trkpt>
      <trkpt lat="42.03665" lon="0.85616">
        <ele>1338.208</ele>
        <time>2012-03-18T11:46:04Z</time>
      </trkpt>
      <trkpt lat="42.03664" lon="0.85616">
        <ele>1338.125</ele>
        <time>2012-03-18T11:45:39Z</time>
      </trkpt>
      <trkpt lat="42.03664" lon="0.85616">
        <ele>1338.284</ele>
        <time>2012-03-18T11:45:38Z</time>
      </trkpt>
      <trkpt lat="42.03664" lon="0.85616">
        <ele>1338.185</ele>
        <time>2012-03-18T11:45:36Z</time>
      </trkpt>
      <trkpt lat="42.03667" lon="0.85621">
        <ele>1337.977</ele>
        <time>2012-03-18T11:45:23Z</time>
      </trkpt>
      <trkpt lat="42.03669" lon="0.85625">
        <ele>1335.79</ele>
        <time>2012-03-18T11:45:15Z</time>
      </trkpt>
      <trkpt lat="42.03668" lon="0.85631">
        <ele>1333.691</ele>
        <time>2012-03-18T11:45:07Z</time>
      </trkpt>
      <trkpt lat="42.03669" lon="0.85641">
        <ele>1330.568</ele>
        <time>2012-03-18T11:44:34Z</time>
      </trkpt>
      <trkpt lat="42.0367" lon="0.85643">
        <ele>1329.792</ele>
        <time>2012-03-18T11:44:25Z</time>
      </trkpt>
      <trkpt lat="42.03669" lon="0.85648">
        <ele>1329.582</ele>
        <time>2012-03-18T11:44:09Z</time>
      </trkpt>
      <trkpt lat="42.03668" lon="0.85652">
        <ele>1329.843</ele>
        <time>2012-03-18T11:43:55Z</time>
      </trkpt>
      <trkpt lat="42.03668" lon="0.85652">
        <ele>1329.817</ele>
        <time>2012-03-18T11:43:14Z</time>
      </trkpt>
      <trkpt lat="42.03668" lon="0.85652">
        <ele>1330.108</ele>
        <time>2012-03-18T11:41:50Z</time>
      </trkpt>
      <trkpt lat="42.03668" lon="0.85651">
        <ele>1330.04</ele>
        <time>2012-03-18T11:38:34Z</time>
      </trkpt>
      <trkpt lat="42.03668" lon="0.85651">
        <ele>1330.049</ele>
        <time>2012-03-18T11:36:05Z</time>
      </trkpt>
      <trkpt lat="42.03668" lon="0.85651">
        <ele>1329.97</ele>
        <time>2012-03-18T11:34:33Z</time>
      </trkpt>
      <trkpt lat="42.03668" lon="0.85651">
        <ele>1330.032</ele>
        <time>2012-03-18T11:33:15Z</time>
      </trkpt>
      <trkpt lat="42.03669" lon="0.85651">
        <ele>1329.435</ele>
        <time>2012-03-18T11:32:29Z</time>
      </trkpt>
      <trkpt lat="42.03667" lon="0.85649">
        <ele>1330.736</ele>
        <time>2012-03-18T11:32:09Z</time>
      </trkpt>
      <trkpt lat="42.03663" lon="0.85646">
        <ele>1329.733</ele>
        <time>2012-03-18T11:31:15Z</time>
      </trkpt>
      <trkpt lat="42.03669" lon="0.85642">
        <ele>1330.687</ele>
        <time>2012-03-18T11:30:53Z</time>
      </trkpt>
      <trkpt lat="42.03668" lon="0.85642">
        <ele>1331.018</ele>
        <time>2012-03-18T11:30:52Z</time>
      </trkpt>
      <trkpt lat="42.03661" lon="0.85623">
        <ele>1334.098</ele>
        <time>2012-03-18T11:30:23Z</time>
      </trkpt>
      <trkpt lat="42.03659" lon="0.85622">
        <ele>1333.517</ele>
        <time>2012-03-18T11:30:11Z</time>
      </trkpt>
      <trkpt lat="42.03659" lon="0.85621">
        <ele>1333.608</ele>
        <time>2012-03-18T11:29:45Z</time>
      </trkpt>
      <trkpt lat="42.03653" lon="0.85621">
        <ele>1330.823</ele>
        <time>2012-03-18T11:29:27Z</time>
      </trkpt>
      <trkpt lat="42.03646" lon="0.85625">
        <ele>1325.512</ele>
        <time>2012-03-18T11:29:07Z</time>
      </trkpt>
      <trkpt lat="42.03648" lon="0.85631">
        <ele>1324.543</ele>
        <time>2012-03-18T11:28:36Z</time>
      </trkpt>
      <trkpt lat="42.03641" lon="0.85634">
        <ele>1319.875</ele>
        <time>2012-03-18T11:28:26Z</time>
      </trkpt>
      <trkpt lat="42.0364" lon="0.85641">
        <ele>1318.948</ele>
        <time>2012-03-18T11:28:09Z</time>
      </trkpt>
      <trkpt lat="42.03641" lon="0.8565">
        <ele>1322.899</ele>
        <time>2012-03-18T11:27:47Z</time>
      </trkpt>
      <trkpt lat="42.03639" lon="0.85647">
        <ele>1320.776</ele>
        <time>2012-03-18T11:27:10Z</time>
      </trkpt>
      <trkpt lat="42.03635" lon="0.85644">
        <ele>1316.22</ele>
        <time>2012-03-18T11:27:03Z</time>
      </trkpt>
      <trkpt lat="42.03634" lon="0.85649">
        <ele>1318.245</ele>
        <time>2012-03-18T11:26:53Z</time>
      </trkpt>
      <trkpt lat="42.03625" lon="0.85637">
        <ele>1306.347</ele>
        <time>2012-03-18T11:26:33Z</time>
      </trkpt>
      <trkpt lat="42.0362" lon="0.85632">
        <ele>1302.511</ele>
        <time>2012-03-18T11:26:21Z</time>
      </trkpt>
      <trkpt lat="42.03617" lon="0.85629">
        <ele>1299.708</ele>
        <time>2012-03-18T11:26:03Z</time>
      </trkpt>
      <trkpt lat="42.03616" lon="0.85626">
        <ele>1298.576</ele>
        <time>2012-03-18T11:25:38Z</time>
      </trkpt>
      <trkpt lat="42.0361" lon="0.85624">
        <ele>1292.585</ele>
        <time>2012-03-18T11:25:12Z</time>
      </trkpt>
      <trkpt lat="42.03605" lon="0.85617">
        <ele>1287.876</ele>
        <time>2012-03-18T11:24:52Z</time>
      </trkpt>
      <trkpt lat="42.036" lon="0.85616">
        <ele>1284.168</ele>
        <time>2012-03-18T11:24:39Z</time>
      </trkpt>
      <trkpt lat="42.03597" lon="0.85607">
        <ele>1280.741</ele>
        <time>2012-03-18T11:24:28Z</time>
      </trkpt>
      <trkpt lat="42.03596" lon="0.85606">
        <ele>1280.532</ele>
        <time>2012-03-18T11:24:27Z</time>
      </trkpt>
      <trkpt lat="42.03593" lon="0.85601">
        <ele>1279.149</ele>
        <time>2012-03-18T11:23:58Z</time>
      </trkpt>
      <trkpt lat="42.03589" lon="0.85599">
        <ele>1276.033</ele>
        <time>2012-03-18T11:23:36Z</time>
      </trkpt>
      <trkpt lat="42.03584" lon="0.85601">
        <ele>1272.084</ele>
        <time>2012-03-18T11:23:24Z</time>
      </trkpt>
      <trkpt lat="42.0358" lon="0.85603">
        <ele>1268.507</ele>
        <time>2012-03-18T11:23:07Z</time>
      </trkpt>
      <trkpt lat="42.03569" lon="0.85601">
        <ele>1259.517</ele>
        <time>2012-03-18T11:22:44Z</time>
      </trkpt>
      <trkpt lat="42.03568" lon="0.85602">
        <ele>1259.008</ele>
        <time>2012-03-18T11:22:43Z</time>
      </trkpt>
      <trkpt lat="42.03568" lon="0.85607">
        <ele>1258.58</ele>
        <time>2012-03-18T11:22:04Z</time>
      </trkpt>
      <trkpt lat="42.0357" lon="0.856">
        <ele>1260.699</ele>
        <time>2012-03-18T11:20:58Z</time>
      </trkpt>
      <trkpt lat="42.03564" lon="0.85593">
        <ele>1255.79</ele>
        <time>2012-03-18T11:20:42Z</time>
      </trkpt>
      <trkpt lat="42.0356" lon="0.85585">
        <ele>1252.482</ele>
        <time>2012-03-18T11:19:55Z</time>
      </trkpt>
      <trkpt lat="42.03566" lon="0.85596">
        <ele>1257.495</ele>
        <time>2012-03-18T11:19:29Z</time>
      </trkpt>
      <trkpt lat="42.0356" lon="0.856">
        <ele>1253.016</ele>
        <time>2012-03-18T11:19:05Z</time>
      </trkpt>
      <trkpt lat="42.03555" lon="0.856">
        <ele>1248.573</ele>
        <time>2012-03-18T11:18:54Z</time>
      </trkpt>
      <trkpt lat="42.03553" lon="0.85599">
        <ele>1247.227</ele>
        <time>2012-03-18T11:18:43Z</time>
      </trkpt>
      <trkpt lat="42.03551" lon="0.85597">
        <ele>1245.575</ele>
        <time>2012-03-18T11:18:23Z</time>
      </trkpt>
      <trkpt lat="42.0355" lon="0.85598">
        <ele>1244.628</ele>
        <time>2012-03-18T11:18:06Z</time>
      </trkpt>
      <trkpt lat="42.03541" lon="0.85597">
        <ele>1237.72</ele>
        <time>2012-03-18T11:17:27Z</time>
      </trkpt>
      <trkpt lat="42.03538" lon="0.85593">
        <ele>1235.708</ele>
        <time>2012-03-18T11:17:07Z</time>
      </trkpt>
      <trkpt lat="42.0353" lon="0.85593">
        <ele>1229.599</ele>
        <time>2012-03-18T11:16:45Z</time>
      </trkpt>
      <trkpt lat="42.03523" lon="0.85589">
        <ele>1224.358</ele>
        <time>2012-03-18T11:16:26Z</time>
      </trkpt>
      <trkpt lat="42.0352" lon="0.85586">
        <ele>1222.369</ele>
        <time>2012-03-18T11:16:19Z</time>
      </trkpt>
      <trkpt lat="42.03514" lon="0.85589">
        <ele>1217.831</ele>
        <time>2012-03-18T11:15:50Z</time>
      </trkpt>
      <trkpt lat="42.03508" lon="0.85586">
        <ele>1213.974</ele>
        <time>2012-03-18T11:15:36Z</time>
      </trkpt>
      <trkpt lat="42.03509" lon="0.85585">
        <ele>1214.445</ele>
        <time>2012-03-18T11:15:35Z</time>
      </trkpt>
      <trkpt lat="42.03502" lon="0.85586">
        <ele>1209.632</ele>
        <time>2012-03-18T11:15:12Z</time>
      </trkpt>
      <trkpt lat="42.03501" lon="0.85586">
        <ele>1208.826</ele>
        <time>2012-03-18T11:15:10Z</time>
      </trkpt>
      <trkpt lat="42.03498" lon="0.85588">
        <ele>1206.393</ele>
        <time>2012-03-18T11:14:57Z</time>
      </trkpt>
      <trkpt lat="42.03489" lon="0.8559">
        <ele>1200.265</ele>
        <time>2012-03-18T11:14:35Z</time>
      </trkpt>
      <trkpt lat="42.03488" lon="0.85589">
        <ele>1199.121</ele>
        <time>2012-03-18T11:14:15Z</time>
      </trkpt>
      <trkpt lat="42.03488" lon="0.85588">
        <ele>1199.208</ele>
        <time>2012-03-18T11:14:01Z</time>
      </trkpt>
      <trkpt lat="42.0348" lon="0.85583">
        <ele>1194.191</ele>
        <time>2012-03-18T11:13:32Z</time>
      </trkpt>
      <trkpt lat="42.03475" lon="0.85588">
        <ele>1190.99</ele>
        <time>2012-03-18T11:13:18Z</time>
      </trkpt>
      <trkpt lat="42.03471" lon="0.85592">
        <ele>1187.781</ele>
        <time>2012-03-18T11:13:07Z</time>
      </trkpt>
      <trkpt lat="42.03469" lon="0.85594">
        <ele>1186.053</ele>
        <time>2012-03-18T11:12:40Z</time>
      </trkpt>
      <trkpt lat="42.03466" lon="0.85595">
        <ele>1183.846</ele>
        <time>2012-03-18T11:12:25Z</time>
      </trkpt>
      <trkpt lat="42.03462" lon="0.85599">
        <ele>1180.387</ele>
        <time>2012-03-18T11:12:07Z</time>
      </trkpt>
      <trkpt lat="42.03456" lon="0.85603">
        <ele>1176.124</ele>
        <time>2012-03-18T11:11:55Z</time>
      </trkpt>
      <trkpt lat="42.03452" lon="0.85604">
        <ele>1173.278</ele>
        <time>2012-03-18T11:11:10Z</time>
      </trkpt>
      <trkpt lat="42.03452" lon="0.85599">
        <ele>1173.438</ele>
        <time>2012-03-18T11:10:46Z</time>
      </trkpt>
      <trkpt lat="42.03441" lon="0.85603">
        <ele>1165.87</ele>
        <time>2012-03-18T11:10:28Z</time>
      </trkpt>
      <trkpt lat="42.0343" lon="0.85599">
        <ele>1158.917</ele>
        <time>2012-03-18T11:10:11Z</time>
      </trkpt>
      <trkpt lat="42.03429" lon="0.85599">
        <ele>1158.508</ele>
        <time>2012-03-18T11:09:43Z</time>
      </trkpt>
      <trkpt lat="42.03423" lon="0.85603">
        <ele>1153.995</ele>
        <time>2012-03-18T11:09:25Z</time>
      </trkpt>
      <trkpt lat="42.03419" lon="0.85607">
        <ele>1151.784</ele>
        <time>2012-03-18T11:09:11Z</time>
      </trkpt>
      <trkpt lat="42.03419" lon="0.85605">
        <ele>1151.655</ele>
        <time>2012-03-18T11:09:08Z</time>
      </trkpt>
      <trkpt lat="42.03414" lon="0.85603">
        <ele>1147.947</ele>
        <time>2012-03-18T11:08:57Z</time>
      </trkpt>
      <trkpt lat="42.03409" lon="0.85595">
        <ele>1144.71</ele>
        <time>2012-03-18T11:08:45Z</time>
      </trkpt>
      <trkpt lat="42.03409" lon="0.85591">
        <ele>1144.991</ele>
        <time>2012-03-18T11:08:09Z</time>
      </trkpt>
      <trkpt lat="42.03404" lon="0.85583">
        <ele>1142.098</ele>
        <time>2012-03-18T11:07:48Z</time>
      </trkpt>
      <trkpt lat="42.03403" lon="0.85582">
        <ele>1141.262</ele>
        <time>2012-03-18T11:07:45Z</time>
      </trkpt>
      <trkpt lat="42.03395" lon="0.8558">
        <ele>1135.972</ele>
        <time>2012-03-18T11:07:33Z</time>
      </trkpt>
      <trkpt lat="42.0339" lon="0.85579">
        <ele>1132.613</ele>
        <time>2012-03-18T11:06:57Z</time>
      </trkpt>
      <trkpt lat="42.03386" lon="0.85571">
        <ele>1130.114</ele>
        <time>2012-03-18T11:06:44Z</time>
      </trkpt>
      <trkpt lat="42.03377" lon="0.85569">
        <ele>1124.308</ele>
        <time>2012-03-18T11:06:30Z</time>
      </trkpt>
      <trkpt lat="42.0337" lon="0.85567">
        <ele>1119.499</ele>
        <time>2012-03-18T11:06:17Z</time>
      </trkpt>
      <trkpt lat="42.0337" lon="0.85567">
        <ele>1119.698</ele>
        <time>2012-03-18T11:05:44Z</time>
      </trkpt>
      <trkpt lat="42.03369" lon="0.85566">
        <ele>1119.019</ele>
        <time>2012-03-18T11:05:43Z</time>
      </trkpt>
      <trkpt lat="42.03363" lon="0.85564">
        <ele>1114.931</ele>
        <time>2012-03-18T11:05:34Z</time>
      </trkpt>
      <trkpt lat="42.03363" lon="0.85562">
        <ele>1115.084</ele>
        <time>2012-03-18T11:05:30Z</time>
      </trkpt>
      <trkpt lat="42.03357" lon="0.85572">
        <ele>1111.795</ele>
        <time>2012-03-18T11:05:17Z</time>
      </trkpt>
      <trkpt lat="42.0335" lon="0.85574">
        <ele>1107.142</ele>
        <time>2012-03-18T11:05:01Z</time>
      </trkpt>
      <trkpt lat="42.03342" lon="0.85579">
        <ele>1102.026</ele>
        <time>2012-03-18T11:04:50Z</time>
      </trkpt>
      <trkpt lat="42.03334" lon="0.85579">
        <ele>1097.143</ele>
        <time>2012-03-18T11:04:38Z</time>
      </trkpt>
      <trkpt lat="42.03335" lon="0.85579">
        <ele>1097.864</ele>
        <time>2012-03-18T11:04:02Z</time>
      </trkpt>
      <trkpt lat="42.03331" lon="0.85579">
        <ele>1095.21</ele>
        <time>2012-03-18T11:03:51Z</time>
      </trkpt>
      <trkpt lat="42.03324" lon="0.8558">
        <ele>1091.008</ele>
        <time>2012-03-18T11:03:38Z</time>
      </trkpt>
      <trkpt lat="42.03318" lon="0.85574">
        <ele>1086.796</ele>
        <time>2012-03-18T11:03:22Z</time>
      </trkpt>
      <trkpt lat="42.03318" lon="0.85572">
        <ele>1086.475</ele>
        <time>2012-03-18T11:02:45Z</time>
      </trkpt>
      <trkpt lat="42.03317" lon="0.85573">
        <ele>1086.036</ele>
        <time>2012-03-18T11:02:43Z</time>
      </trkpt>
      <trkpt lat="42.03307" lon="0.85576">
        <ele>1079.998</ele>
        <time>2012-03-18T11:02:29Z</time>
      </trkpt>
      <trkpt lat="42.03303" lon="0.85575">
        <ele>1077.031</ele>
        <time>2012-03-18T11:02:18Z</time>
      </trkpt>
      <trkpt lat="42.03296" lon="0.85579">
        <ele>1072.542</ele>
        <time>2012-03-18T11:01:56Z</time>
      </trkpt>
      <trkpt lat="42.03294" lon="0.85579">
        <ele>1071.429</ele>
        <time>2012-03-18T11:01:52Z</time>
      </trkpt>
      <trkpt lat="42.03288" lon="0.85582">
        <ele>1067.843</ele>
        <time>2012-03-18T11:01:39Z</time>
      </trkpt>
      <trkpt lat="42.03281" lon="0.85591">
        <ele>1063.414</ele>
        <time>2012-03-18T11:01:20Z</time>
      </trkpt>
      <trkpt lat="42.03281" lon="0.85591">
        <ele>1063.254</ele>
        <time>2012-03-18T11:01:08Z</time>
      </trkpt>
      <trkpt lat="42.03275" lon="0.85601">
        <ele>1059.509</ele>
        <time>2012-03-18T11:00:54Z</time>
      </trkpt>
      <trkpt lat="42.03274" lon="0.85604">
        <ele>1058.608</ele>
        <time>2012-03-18T11:00:51Z</time>
      </trkpt>
      <trkpt lat="42.03275" lon="0.85611">
        <ele>1059.023</ele>
        <time>2012-03-18T11:00:46Z</time>
      </trkpt>
      <trkpt lat="42.03275" lon="0.85614">
        <ele>1059.052</ele>
        <time>2012-03-18T11:00:37Z</time>
      </trkpt>
      <trkpt lat="42.03271" lon="0.85613">
        <ele>1056.973</ele>
        <time>2012-03-18T11:00:12Z</time>
      </trkpt>
      <trkpt lat="42.03265" lon="0.85616">
        <ele>1053.095</ele>
        <time>2012-03-18T11:00:00Z</time>
      </trkpt>
      <trkpt lat="42.03262" lon="0.85618">
        <ele>1050.668</ele>
        <time>2012-03-18T10:59:49Z</time>
      </trkpt>
      <trkpt lat="42.03255" lon="0.85621">
        <ele>1046.229</ele>
        <time>2012-03-18T10:59:35Z</time>
      </trkpt>
      <trkpt lat="42.03249" lon="0.85614">
        <ele>1043.366</ele>
        <time>2012-03-18T10:59:21Z</time>
      </trkpt>
      <trkpt lat="42.03248" lon="0.85614">
        <ele>1042.56</ele>
        <time>2012-03-18T10:59:12Z</time>
      </trkpt>
      <trkpt lat="42.03242" lon="0.85617">
        <ele>1039.158</ele>
        <time>2012-03-18T10:58:50Z</time>
      </trkpt>
      <trkpt lat="42.03238" lon="0.85613">
        <ele>1036.852</ele>
        <time>2012-03-18T10:58:42Z</time>
      </trkpt>
      <trkpt lat="42.0323" lon="0.8561">
        <ele>1032.817</ele>
        <time>2012-03-18T10:58:27Z</time>
      </trkpt>
      <trkpt lat="42.03226" lon="0.85605">
        <ele>1030.308</ele>
        <time>2012-03-18T10:58:19Z</time>
      </trkpt>
      <trkpt lat="42.03219" lon="0.85608">
        <ele>1026.667</ele>
        <time>2012-03-18T10:58:07Z</time>
      </trkpt>
      <trkpt lat="42.03215" lon="0.85608">
        <ele>1024.316</ele>
        <time>2012-03-18T10:57:56Z</time>
      </trkpt>
      <trkpt lat="42.03206" lon="0.85609">
        <ele>1019.297</ele>
        <time>2012-03-18T10:57:47Z</time>
      </trkpt>
      <trkpt lat="42.032" lon="0.8561">
        <ele>1016.279</ele>
        <time>2012-03-18T10:57:36Z</time>
      </trkpt>
      <trkpt lat="42.032" lon="0.8561">
        <ele>1016.232</ele>
        <time>2012-03-18T10:56:34Z</time>
      </trkpt>
      <trkpt lat="42.03201" lon="0.85611">
        <ele>1016.533</ele>
        <time>2012-03-18T10:56:03Z</time>
      </trkpt>
      <trkpt lat="42.03196" lon="0.85614">
        <ele>1013.78</ele>
        <time>2012-03-18T10:55:54Z</time>
      </trkpt>
      <trkpt lat="42.03189" lon="0.85611">
        <ele>1010.494</ele>
        <time>2012-03-18T10:55:44Z</time>
      </trkpt>
      <trkpt lat="42.03181" lon="0.85613">
        <ele>1006.752</ele>
        <time>2012-03-18T10:55:33Z</time>
      </trkpt>
      <trkpt lat="42.03178" lon="0.85615">
        <ele>1005.253</ele>
        <time>2012-03-18T10:55:29Z</time>
      </trkpt>
      <trkpt lat="42.03175" lon="0.85615">
        <ele>1004.008</ele>
        <time>2012-03-18T10:55:26Z</time>
      </trkpt>
      <trkpt lat="42.03167" lon="0.85617">
        <ele>1000.308</ele>
        <time>2012-03-18T10:54:51Z</time>
      </trkpt>
      <trkpt lat="42.03168" lon="0.85617">
        <ele>1000.857</ele>
        <time>2012-03-18T10:54:45Z</time>
      </trkpt>
      <trkpt lat="42.03166" lon="0.85613">
        <ele>999.996</ele>
        <time>2012-03-18T10:54:30Z</time>
      </trkpt>
      <trkpt lat="42.03159" lon="0.85604">
        <ele>997.117</ele>
        <time>2012-03-18T10:54:17Z</time>
      </trkpt>
      <trkpt lat="42.03152" lon="0.85591">
        <ele>994.869</ele>
        <time>2012-03-18T10:54:05Z</time>
      </trkpt>
      <trkpt lat="42.03148" lon="0.85626">
        <ele>992.382</ele>
        <time>2016-04-15T22:41:12Z</time>
      </trkpt>
      <trkpt lat="42.03141" lon="0.85676">
        <ele>989.363</ele>
        <time>2016-04-15T22:41:25Z</time>
      </trkpt>
      <trkpt lat="42.03134" lon="0.85726">
        <ele>986.41</ele>
        <time>2016-04-15T22:41:38Z</time>
      </trkpt>
      <trkpt lat="42.03125" lon="0.85766">
        <ele>982.154</ele>
        <time>2016-04-15T22:41:49Z</time>
      </trkpt>
      <trkpt lat="42.03136" lon="0.85816">
        <ele>980.247</ele>
        <time>2016-04-15T22:42:02Z</time>
      </trkpt>
      <trkpt lat="42.03144" lon="0.85858">
        <ele>976.929</ele>
        <time>2016-04-15T22:42:13Z</time>
      </trkpt>
      <trkpt lat="42.03159" lon="0.85906">
        <ele>974.321</ele>
        <time>2016-04-15T22:42:26Z</time>
      </trkpt>
      <trkpt lat="42.03173" lon="0.85949">
        <ele>971.208</ele>
        <time>2016-04-15T22:42:38Z</time>
      </trkpt>
      <trkpt lat="42.03189" lon="0.8599">
        <ele>970.056</ele>
        <time>2016-04-15T22:42:50Z</time>
      </trkpt>
      <trkpt lat="42.03188" lon="0.85993">
        <ele>969.155</ele>
        <time>2016-04-15T22:42:51Z</time>
      </trkpt>
      <trkpt lat="42.03185" lon="0.85994">
        <ele>968.166</ele>
        <time>2016-04-15T22:42:52Z</time>
      </trkpt>
      <trkpt lat="42.03183" lon="0.85993">
        <ele>967.318</ele>
        <time>2016-04-15T22:42:53Z</time>
      </trkpt>
      <trkpt lat="42.03181" lon="0.85992">
        <ele>966.881</ele>
        <time>2016-04-15T22:42:54Z</time>
      </trkpt>
      <trkpt lat="42.0318" lon="0.85989">
        <ele>966.562</ele>
        <time>2016-04-15T22:42:55Z</time>
      </trkpt>
      <trkpt lat="42.03179" lon="0.85986">
        <ele>966.669</ele>
        <time>2016-04-15T22:42:56Z</time>
      </trkpt>
      <trkpt lat="42.03178" lon="0.85983">
        <ele>966.763</ele>
        <time>2016-04-15T22:42:57Z</time>
      </trkpt>
      <trkpt lat="42.03154" lon="0.85952">
        <ele>964.557</ele>
        <time>2016-04-15T22:43:09Z</time>
      </trkpt>
      <trkpt lat="42.03128" lon="0.85932">
        <ele>961.6</ele>
        <time>2016-04-15T22:43:21Z</time>
      </trkpt>
      <trkpt lat="42.03129" lon="0.85931">
        <ele>961.82</ele>
        <time>2016-04-15T22:43:39Z</time>
      </trkpt>
      <trkpt lat="42.03115" lon="0.85922">
        <ele>959.908</ele>
        <time>2016-04-15T22:43:54Z</time>
      </trkpt>
      <trkpt lat="42.03092" lon="0.85889">
        <ele>958.087</ele>
        <time>2016-04-15T22:44:06Z</time>
      </trkpt>
      <trkpt lat="42.03069" lon="0.85852">
        <ele>954.596</ele>
        <time>2016-04-15T22:44:18Z</time>
      </trkpt>
      <trkpt lat="42.03051" lon="0.85801">
        <ele>953.397</ele>
        <time>2016-04-15T22:44:32Z</time>
      </trkpt>
      <trkpt lat="42.03032" lon="0.85754">
        <ele>950.189</ele>
        <time>2016-04-15T22:44:46Z</time>
      </trkpt>
      <trkpt lat="42.0303" lon="0.85755">
        <ele>949.272</ele>
        <time>2016-04-15T22:44:48Z</time>
      </trkpt>
      <trkpt lat="42.03025" lon="0.85766">
        <ele>945.563</ele>
        <time>2016-04-15T22:44:54Z</time>
      </trkpt>
      <trkpt lat="42.03021" lon="0.85767">
        <ele>944.27</ele>
        <time>2016-04-15T22:44:56Z</time>
      </trkpt>
      <trkpt lat="42.03018" lon="0.85768">
        <ele>942.944</ele>
        <time>2016-04-15T22:44:58Z</time>
      </trkpt>
      <trkpt lat="42.03012" lon="0.85773">
        <ele>940.016</ele>
        <time>2016-04-15T22:45:02Z</time>
      </trkpt>
      <trkpt lat="42.03001" lon="0.85774">
        <ele>936.076</ele>
        <time>2016-04-15T22:45:08Z</time>
      </trkpt>
      <trkpt lat="42.02991" lon="0.85771">
        <ele>933.313</ele>
        <time>2016-04-15T22:45:14Z</time>
      </trkpt>
      <trkpt lat="42.02981" lon="0.85772">
        <ele>930.308</ele>
        <time>2016-04-15T22:45:19Z</time>
      </trkpt>
      <trkpt lat="42.02974" lon="0.85777">
        <ele>927.663</ele>
        <time>2016-04-15T22:45:23Z</time>
      </trkpt>
      <trkpt lat="42.02962" lon="0.85776">
        <ele>924.952</ele>
        <time>2016-04-15T22:45:29Z</time>
      </trkpt>
      <trkpt lat="42.02957" lon="0.85778">
        <ele>923.853</ele>
        <time>2016-04-15T22:45:31Z</time>
      </trkpt>
      <trkpt lat="42.02953" lon="0.85778">
        <ele>922.915</ele>
        <time>2016-04-15T22:45:33Z</time>
      </trkpt>
      <trkpt lat="42.0295" lon="0.8578">
        <ele>922.088</ele>
        <time>2016-04-15T22:45:35Z</time>
      </trkpt>
      <trkpt lat="42.02942" lon="0.85788">
        <ele>920.349</ele>
        <time>2016-04-15T22:45:40Z</time>
      </trkpt>
      <trkpt lat="42.02921" lon="0.8581">
        <ele>916.316</ele>
        <time>2016-04-15T22:45:52Z</time>
      </trkpt>
      <trkpt lat="42.029" lon="0.85835">
        <ele>913.43</ele>
        <time>2016-04-15T22:46:05Z</time>
      </trkpt>
      <trkpt lat="42.02898" lon="0.85839">
        <ele>913.183</ele>
        <time>2016-04-15T22:46:07Z</time>
      </trkpt>
      <trkpt lat="42.02884" lon="0.85862">
        <ele>911.825</ele>
        <time>2016-04-15T22:46:21Z</time>
      </trkpt>
      <trkpt lat="42.02884" lon="0.85881">
        <ele>911.717</ele>
        <time>2016-04-15T22:46:28Z</time>
      </trkpt>
      <trkpt lat="42.02871" lon="0.8591">
        <ele>910.408</ele>
        <time>2016-04-15T22:46:41Z</time>
      </trkpt>
      <trkpt lat="42.02859" lon="0.85928">
        <ele>909.22</ele>
        <time>2016-04-15T22:46:51Z</time>
      </trkpt>
      <trkpt lat="42.02858" lon="0.85933">
        <ele>908.879</ele>
        <time>2016-04-15T22:46:53Z</time>
      </trkpt>
      <trkpt lat="42.02859" lon="0.85955">
        <ele>907.79</ele>
        <time>2016-04-15T22:47:00Z</time>
      </trkpt>
      <trkpt lat="42.02862" lon="0.85992">
        <ele>906.362</ele>
        <time>2016-04-15T22:47:12Z</time>
      </trkpt>
      <trkpt lat="42.02884" lon="0.86022">
        <ele>903.645</ele>
        <time>2016-04-15T22:47:25Z</time>
      </trkpt>
      <trkpt lat="42.02885" lon="0.86035">
        <ele>902.576</ele>
        <time>2016-04-15T22:47:29Z</time>
      </trkpt>
      <trkpt lat="42.0288" lon="0.86064">
        <ele>899.413</ele>
        <time>2016-04-15T22:47:38Z</time>
      </trkpt>
      <trkpt lat="42.02883" lon="0.86081">
        <ele>896.867</ele>
        <time>2016-04-15T22:47:43Z</time>
      </trkpt>
      <trkpt lat="42.02882" lon="0.86091">
        <ele>895.275</ele>
        <time>2016-04-15T22:47:46Z</time>
      </trkpt>
      <trkpt lat="42.02885" lon="0.86104">
        <ele>892.628</ele>
        <time>2016-04-15T22:47:50Z</time>
      </trkpt>
      <trkpt lat="42.02891" lon="0.86119">
        <ele>889.22</ele>
        <time>2016-04-15T22:47:55Z</time>
      </trkpt>
      <trkpt lat="42.02891" lon="0.8613">
        <ele>886.808</ele>
        <time>2016-04-15T22:47:59Z</time>
      </trkpt>
      <trkpt lat="42.02892" lon="0.86132">
        <ele>886.399</ele>
        <time>2016-04-15T22:48:00Z</time>
      </trkpt>
      <trkpt lat="42.02891" lon="0.86147">
        <ele>883.318</ele>
        <time>2016-04-15T22:48:05Z</time>
      </trkpt>
      <trkpt lat="42.02892" lon="0.86153">
        <ele>882.299</ele>
        <time>2016-04-15T22:48:07Z</time>
      </trkpt>
      <trkpt lat="42.02893" lon="0.86156">
        <ele>881.741</ele>
        <time>2016-04-15T22:48:08Z</time>
      </trkpt>
      <trkpt lat="42.02889" lon="0.8617">
        <ele>879.414</ele>
        <time>2016-04-15T22:48:14Z</time>
      </trkpt>
      <trkpt lat="42.02878" lon="0.86198">
        <ele>875.365</ele>
        <time>2016-04-15T22:48:24Z</time>
      </trkpt>
      <trkpt lat="42.0287" lon="0.86221">
        <ele>872.172</ele>
        <time>2016-04-15T22:48:32Z</time>
      </trkpt>
      <trkpt lat="42.02864" lon="0.86255">
        <ele>868.186</ele>
        <time>2016-04-15T22:48:43Z</time>
      </trkpt>
      <trkpt lat="42.02855" lon="0.86263">
        <ele>865.554</ele>
        <time>2016-04-15T22:48:48Z</time>
      </trkpt>
      <trkpt lat="42.02849" lon="0.86277">
        <ele>863.156</ele>
        <time>2016-04-15T22:48:53Z</time>
      </trkpt>
      <trkpt lat="42.02845" lon="0.86281">
        <ele>861.611</ele>
        <time>2016-04-15T22:48:56Z</time>
      </trkpt>
      <trkpt lat="42.0284" lon="0.86285">
        <ele>860.108</ele>
        <time>2016-04-15T22:48:59Z</time>
      </trkpt>
      <trkpt lat="42.02834" lon="0.8629">
        <ele>858.357</ele>
        <time>2016-04-15T22:49:02Z</time>
      </trkpt>
      <trkpt lat="42.02804" lon="0.863">
        <ele>854.636</ele>
        <time>2016-04-15T22:49:14Z</time>
      </trkpt>
      <trkpt lat="42.02801" lon="0.86301">
        <ele>854.327</ele>
        <time>2016-04-15T22:49:15Z</time>
      </trkpt>
      <trkpt lat="42.02789" lon="0.86319">
        <ele>852.269</ele>
        <time>2016-04-15T22:49:22Z</time>
      </trkpt>
      <trkpt lat="42.0278" lon="0.8633">
        <ele>851.212</ele>
        <time>2016-04-15T22:49:27Z</time>
      </trkpt>
      <trkpt lat="42.02766" lon="0.86347">
        <ele>850.343</ele>
        <time>2016-04-15T22:49:36Z</time>
      </trkpt>
      <trkpt lat="42.02759" lon="0.8638">
        <ele>846.54</ele>
        <time>2016-04-15T22:49:48Z</time>
      </trkpt>
      <trkpt lat="42.02763" lon="0.8639">
        <ele>845.244</ele>
        <time>2016-04-15T22:49:52Z</time>
      </trkpt>
      <trkpt lat="42.02762" lon="0.86405">
        <ele>843.019</ele>
        <time>2016-04-15T22:49:59Z</time>
      </trkpt>
      <trkpt lat="42.02758" lon="0.86416">
        <ele>841.009</ele>
        <time>2016-04-15T22:50:04Z</time>
      </trkpt>
      <trkpt lat="42.02755" lon="0.8642">
        <ele>840.219</ele>
        <time>2016-04-15T22:50:06Z</time>
      </trkpt>
      <trkpt lat="42.02752" lon="0.86424">
        <ele>839.408</ele>
        <time>2016-04-15T22:50:09Z</time>
      </trkpt>
      <trkpt lat="42.02748" lon="0.86433">
        <ele>838.113</ele>
        <time>2016-04-15T22:50:14Z</time>
      </trkpt>
      <trkpt lat="42.02749" lon="0.8644">
        <ele>837.442</ele>
        <time>2016-04-15T22:50:17Z</time>
      </trkpt>
      <trkpt lat="42.02745" lon="0.86456">
        <ele>836.553</ele>
        <time>2016-04-15T22:50:24Z</time>
      </trkpt>
      <trkpt lat="42.02743" lon="0.86461">
        <ele>836.335</ele>
        <time>2016-04-15T22:50:26Z</time>
      </trkpt>
      <trkpt lat="42.02743" lon="0.86473">
        <ele>836.348</ele>
        <time>2016-04-15T22:50:30Z</time>
      </trkpt>
      <trkpt lat="42.02743" lon="0.86484">
        <ele>835.969</ele>
        <time>2016-04-15T22:50:33Z</time>
      </trkpt>
      <trkpt lat="42.02747" lon="0.86499">
        <ele>835.936</ele>
        <time>2016-04-15T22:50:38Z</time>
      </trkpt>
      <trkpt lat="42.02751" lon="0.86515">
        <ele>835.31</ele>
        <time>2016-04-15T22:50:43Z</time>
      </trkpt>
      <trkpt lat="42.02752" lon="0.86556">
        <ele>831.639</ele>
        <time>2016-04-15T22:50:55Z</time>
      </trkpt>
      <trkpt lat="42.02753" lon="0.86566">
        <ele>829.601</ele>
        <time>2016-04-15T22:50:59Z</time>
      </trkpt>
      <trkpt lat="42.02755" lon="0.86577">
        <ele>827.221</ele>
        <time>2016-04-15T22:51:03Z</time>
      </trkpt>
      <trkpt lat="42.0276" lon="0.86589">
        <ele>823.208</ele>
        <time>2016-04-15T22:51:08Z</time>
      </trkpt>
      <trkpt lat="42.02767" lon="0.86595">
        <ele>820.145</ele>
        <time>2016-04-15T22:51:12Z</time>
      </trkpt>
      <trkpt lat="42.0277" lon="0.866">
        <ele>818.254</ele>
        <time>2016-04-15T22:51:15Z</time>
      </trkpt>
      <trkpt lat="42.02771" lon="0.86607">
        <ele>816.165</ele>
        <time>2016-04-15T22:51:21Z</time>
      </trkpt>
      <trkpt lat="42.0277" lon="0.86611">
        <ele>815.297</ele>
        <time>2016-04-15T22:51:24Z</time>
      </trkpt>
      <trkpt lat="42.0277" lon="0.86615">
        <ele>814.01</ele>
        <time>2016-04-15T22:51:26Z</time>
      </trkpt>
      <trkpt lat="42.02772" lon="0.86619">
        <ele>812.411</ele>
        <time>2016-04-15T22:51:28Z</time>
      </trkpt>
      <trkpt lat="42.02776" lon="0.86627">
        <ele>810.048</ele>
        <time>2016-04-15T22:51:31Z</time>
      </trkpt>
      <trkpt lat="42.02777" lon="0.86633">
        <ele>808.492</ele>
        <time>2016-04-15T22:51:33Z</time>
      </trkpt>
      <trkpt lat="42.0278" lon="0.86645">
        <ele>804.859</ele>
        <time>2016-04-15T22:51:38Z</time>
      </trkpt>
      <trkpt lat="42.02785" lon="0.86648">
        <ele>802.903</ele>
        <time>2016-04-15T22:51:40Z</time>
      </trkpt>
      <trkpt lat="42.0279" lon="0.8665">
        <ele>801.423</ele>
        <time>2016-04-15T22:51:42Z</time>
      </trkpt>
      <trkpt lat="42.02792" lon="0.86651">
        <ele>800.708</ele>
        <time>2016-04-15T22:51:43Z</time>
      </trkpt>
      <trkpt lat="42.02799" lon="0.86663">
        <ele>797.877</ele>
        <time>2016-04-15T22:51:48Z</time>
      </trkpt>
      <trkpt lat="42.02802" lon="0.86666">
        <ele>797.466</ele>
        <time>2016-04-15T22:51:49Z</time>
      </trkpt>
      <trkpt lat="42.02804" lon="0.86673">
        <ele>796.517</ele>
        <time>2016-04-15T22:51:52Z</time>
      </trkpt>
      <trkpt lat="42.02797" lon="0.86679">
        <ele>795.829</ele>
        <time>2016-04-15T22:51:56Z</time>
      </trkpt>
      <trkpt lat="42.02792" lon="0.8668">
        <ele>795.692</ele>
        <time>2016-04-15T22:51:58Z</time>
      </trkpt>
      <trkpt lat="42.02779" lon="0.86686">
        <ele>793.483</ele>
        <time>2016-04-15T22:52:05Z</time>
      </trkpt>
      <trkpt lat="42.02777" lon="0.86686">
        <ele>793.33</ele>
        <time>2016-04-15T22:52:06Z</time>
      </trkpt>
      <trkpt lat="42.02747" lon="0.86683">
        <ele>788.774</ele>
        <time>2016-04-15T22:52:19Z</time>
      </trkpt>
      <trkpt lat="42.02718" lon="0.86676">
        <ele>787.544</ele>
        <time>2016-04-15T22:52:31Z</time>
      </trkpt>
      <trkpt lat="42.02697" lon="0.8667">
        <ele>788.705</ele>
        <time>2016-04-15T22:52:41Z</time>
      </trkpt>
      <trkpt lat="42.02672" lon="0.86671">
        <ele>786.615</ele>
        <time>2016-04-15T22:52:52Z</time>
      </trkpt>
      <trkpt lat="42.02661" lon="0.86669">
        <ele>786.208</ele>
        <time>2016-04-15T22:52:57Z</time>
      </trkpt>
      <trkpt lat="42.0264" lon="0.86665">
        <ele>783.926</ele>
        <time>2016-04-15T22:53:07Z</time>
      </trkpt>
      <trkpt lat="42.0262" lon="0.86647">
        <ele>784.935</ele>
        <time>2016-04-15T22:53:18Z</time>
      </trkpt>
      <trkpt lat="42.02589" lon="0.86644">
        <ele>781.866</ele>
        <time>2016-04-15T22:53:32Z</time>
      </trkpt>
      <trkpt lat="42.02585" lon="0.86642">
        <ele>781.978</ele>
        <time>2016-04-15T22:53:34Z</time>
      </trkpt>
      <trkpt lat="42.02566" lon="0.86633">
        <ele>780.921</ele>
        <time>2016-04-15T22:53:43Z</time>
      </trkpt>
      <trkpt lat="42.02559" lon="0.8663">
        <ele>779.892</ele>
        <time>2016-04-15T22:53:46Z</time>
      </trkpt>
      <trkpt lat="42.02543" lon="0.86622">
        <ele>778.829</ele>
        <time>2016-04-15T22:53:54Z</time>
      </trkpt>
      <trkpt lat="42.02536" lon="0.86624">
        <ele>777.633</ele>
        <time>2016-04-15T22:53:57Z</time>
      </trkpt>
      <trkpt lat="42.0253" lon="0.86641">
        <ele>775.722</ele>
        <time>2016-04-15T22:54:04Z</time>
      </trkpt>
      <trkpt lat="42.02533" lon="0.86652">
        <ele>773.162</ele>
        <time>2016-04-15T22:54:08Z</time>
      </trkpt>
      <trkpt lat="42.02536" lon="0.86662">
        <ele>770.808</ele>
        <time>2016-04-15T22:54:12Z</time>
      </trkpt>
      <trkpt lat="42.02537" lon="0.86665">
        <ele>770.108</ele>
        <time>2016-04-15T22:54:13Z</time>
      </trkpt>
      <trkpt lat="42.02541" lon="0.86671">
        <ele>768.254</ele>
        <time>2016-04-15T22:54:16Z</time>
      </trkpt>
      <trkpt lat="42.02547" lon="0.86678">
        <ele>765.563</ele>
        <time>2016-04-15T22:54:20Z</time>
      </trkpt>
      <trkpt lat="42.02552" lon="0.86688">
        <ele>761.744</ele>
        <time>2016-04-15T22:54:24Z</time>
      </trkpt>
      <trkpt lat="42.02557" lon="0.86698">
        <ele>757.916</ele>
        <time>2016-04-15T22:54:29Z</time>
      </trkpt>
      <trkpt lat="42.02564" lon="0.86707">
        <ele>755.379</ele>
        <time>2016-04-15T22:54:34Z</time>
      </trkpt>
      <trkpt lat="42.02565" lon="0.86709">
        <ele>754.74</ele>
        <time>2016-04-15T22:54:35Z</time>
      </trkpt>
      <trkpt lat="42.02569" lon="0.86715">
        <ele>752.787</ele>
        <time>2016-04-15T22:54:38Z</time>
      </trkpt>
      <trkpt lat="42.02573" lon="0.86725">
        <ele>749.871</ele>
        <time>2016-04-15T22:54:42Z</time>
      </trkpt>
      <trkpt lat="42.02577" lon="0.86729">
        <ele>748.464</ele>
        <time>2016-04-15T22:54:44Z</time>
      </trkpt>
      <trkpt lat="42.02579" lon="0.86735">
        <ele>746.606</ele>
        <time>2016-04-15T22:54:46Z</time>
      </trkpt>
      <trkpt lat="42.02584" lon="0.86742">
        <ele>744.716</ele>
        <time>2016-04-15T22:54:49Z</time>
      </trkpt>
      <trkpt lat="42.02587" lon="0.8675">
        <ele>742.308</ele>
        <time>2016-04-15T22:54:52Z</time>
      </trkpt>
      <trkpt lat="42.02593" lon="0.8676">
        <ele>739.658</ele>
        <time>2016-04-15T22:54:58Z</time>
      </trkpt>
      <trkpt lat="42.02593" lon="0.86766">
        <ele>737.687</ele>
        <time>2016-04-15T22:55:01Z</time>
      </trkpt>
      <trkpt lat="42.02594" lon="0.86768">
        <ele>737.128</ele>
        <time>2016-04-15T22:55:02Z</time>
      </trkpt>
      <trkpt lat="42.026" lon="0.86773">
        <ele>735.93</ele>
        <time>2016-04-15T22:55:09Z</time>
      </trkpt>
      <trkpt lat="42.02607" lon="0.86784">
        <ele>732.253</ele>
        <time>2016-04-15T22:55:16Z</time>
      </trkpt>
      <trkpt lat="42.02608" lon="0.86786">
        <ele>731.494</ele>
        <time>2016-04-15T22:55:17Z</time>
      </trkpt>
      <trkpt lat="42.02617" lon="0.86805">
        <ele>724.661</ele>
        <time>2016-04-15T22:55:28Z</time>
      </trkpt>
      <trkpt lat="42.02622" lon="0.86816">
        <ele>720.995</ele>
        <time>2016-04-15T22:55:35Z</time>
      </trkpt>
      <trkpt lat="42.02628" lon="0.86825">
        <ele>718.589</ele>
        <time>2016-04-15T22:55:41Z</time>
      </trkpt>
      <trkpt lat="42.0263" lon="0.86829">
        <ele>717.406</ele>
        <time>2016-04-15T22:55:43Z</time>
      </trkpt>
      <trkpt lat="42.02637" lon="0.86839">
        <ele>716.126</ele>
        <time>2016-04-15T22:55:49Z</time>
      </trkpt>
      <trkpt lat="42.02641" lon="0.86842">
        <ele>716.008</ele>
        <time>2016-04-15T22:55:52Z</time>
      </trkpt>
      <trkpt lat="42.02647" lon="0.86849">
        <ele>714.01</ele>
        <time>2016-04-15T22:55:57Z</time>
      </trkpt>
      <trkpt lat="42.0265" lon="0.8685">
        <ele>713.519</ele>
        <time>2016-04-15T22:55:59Z</time>
      </trkpt>
      <trkpt lat="42.02653" lon="0.86851">
        <ele>713.49</ele>
        <time>2016-04-15T22:56:01Z</time>
      </trkpt>
      <trkpt lat="42.02657" lon="0.86855">
        <ele>712.442</ele>
        <time>2016-04-15T22:56:04Z</time>
      </trkpt>
      <trkpt lat="42.0266" lon="0.86863">
        <ele>710.035</ele>
        <time>2016-04-15T22:56:09Z</time>
      </trkpt>
      <trkpt lat="42.02662" lon="0.86866">
        <ele>709.576</ele>
        <time>2016-04-15T22:56:11Z</time>
      </trkpt>
      <trkpt lat="42.02663" lon="0.86866">
        <ele>709.313</ele>
        <time>2016-04-15T22:56:12Z</time>
      </trkpt>
      <trkpt lat="42.02662" lon="0.8687">
        <ele>708.197</ele>
        <time>2016-04-15T22:56:15Z</time>
      </trkpt>
      <trkpt lat="42.02663" lon="0.8688">
        <ele>705.835</ele>
        <time>2016-04-15T22:56:20Z</time>
      </trkpt>
      <trkpt lat="42.02665" lon="0.86884">
        <ele>704.986</ele>
        <time>2016-04-15T22:56:22Z</time>
      </trkpt>
      <trkpt lat="42.02667" lon="0.86897">
        <ele>703.114</ele>
        <time>2016-04-15T22:56:29Z</time>
      </trkpt>
      <trkpt lat="42.02667" lon="0.86902">
        <ele>702.508</ele>
        <time>2016-04-15T22:56:32Z</time>
      </trkpt>
      <trkpt lat="42.0267" lon="0.86908">
        <ele>703.285</ele>
        <time>2016-04-15T22:56:36Z</time>
      </trkpt>
      <trkpt lat="42.02671" lon="0.86916">
        <ele>703.074</ele>
        <time>2016-04-15T22:56:39Z</time>
      </trkpt>
      <trkpt lat="42.02672" lon="0.8694">
        <ele>702.645</ele>
        <time>2016-04-15T22:56:51Z</time>
      </trkpt>
      <trkpt lat="42.02673" lon="0.86947">
        <ele>702.797</ele>
        <time>2016-04-15T22:56:58Z</time>
      </trkpt>
      <trkpt lat="42.02673" lon="0.86953">
        <ele>702.35</ele>
        <time>2016-04-15T22:57:03Z</time>
      </trkpt>
      <trkpt lat="42.02677" lon="0.86967">
        <ele>702.511</ele>
        <time>2016-04-15T22:57:11Z</time>
      </trkpt>
      <trkpt lat="42.02684" lon="0.86998">
        <ele>700.618</ele>
        <time>2016-04-15T22:57:21Z</time>
      </trkpt>
      <trkpt lat="42.02689" lon="0.87034">
        <ele>700.962</ele>
        <time>2016-04-15T22:57:33Z</time>
      </trkpt>
      <trkpt lat="42.0269" lon="0.87039">
        <ele>701.597</ele>
        <time>2016-04-15T22:57:35Z</time>
      </trkpt>
      <trkpt lat="42.02691" lon="0.87044">
        <ele>701.723</ele>
        <time>2016-04-15T22:57:37Z</time>
      </trkpt>
      <trkpt lat="42.02689" lon="0.87057">
        <ele>701.225</ele>
        <time>2016-04-15T22:57:42Z</time>
      </trkpt>
      <trkpt lat="42.02684" lon="0.87073">
        <ele>700.608</ele>
        <time>2016-04-15T22:57:50Z</time>
      </trkpt>
      <trkpt lat="42.02679" lon="0.87104">
        <ele>702.321</ele>
        <time>2016-04-15T22:58:04Z</time>
      </trkpt>
      <trkpt lat="42.02681" lon="0.87128">
        <ele>703.58</ele>
        <time>2016-04-15T22:58:17Z</time>
      </trkpt>
      <trkpt lat="42.02682" lon="0.87153">
        <ele>701.581</ele>
        <time>2016-04-15T22:58:29Z</time>
      </trkpt>
      <trkpt lat="42.02695" lon="0.87168">
        <ele>701.753</ele>
        <time>2016-04-15T22:58:38Z</time>
      </trkpt>
      <trkpt lat="42.02708" lon="0.87177">
        <ele>699.766</ele>
        <time>2016-04-15T22:58:44Z</time>
      </trkpt>
      <trkpt lat="42.02726" lon="0.87189">
        <ele>696.837</ele>
        <time>2016-04-15T22:58:53Z</time>
      </trkpt>
      <trkpt lat="42.02737" lon="0.87193">
        <ele>694.214</ele>
        <time>2016-04-15T22:59:02Z</time>
      </trkpt>
      <trkpt lat="42.02738" lon="0.87194">
        <ele>693.848</ele>
        <time>2016-04-15T22:59:04Z</time>
      </trkpt>
      <trkpt lat="42.02743" lon="0.87202">
        <ele>690.674</ele>
        <time>2016-04-15T22:59:15Z</time>
      </trkpt>
      <trkpt lat="42.02745" lon="0.87205">
        <ele>689.256</ele>
        <time>2016-04-15T22:59:23Z</time>
      </trkpt>
      <trkpt lat="42.02746" lon="0.8721">
        <ele>687.121</ele>
        <time>2016-04-15T22:59:27Z</time>
      </trkpt>
      <trkpt lat="42.02748" lon="0.87213">
        <ele>685.808</ele>
        <time>2016-04-15T22:59:29Z</time>
      </trkpt>
      <trkpt lat="42.02749" lon="0.87217">
        <ele>684.219</ele>
        <time>2016-04-15T22:59:31Z</time>
      </trkpt>
      <trkpt lat="42.02751" lon="0.8722">
        <ele>682.758</ele>
        <time>2016-04-15T22:59:33Z</time>
      </trkpt>
      <trkpt lat="42.02752" lon="0.87223">
        <ele>681.489</ele>
        <time>2016-04-15T22:59:35Z</time>
      </trkpt>
      <trkpt lat="42.02754" lon="0.87225">
        <ele>680.261</ele>
        <time>2016-04-15T22:59:37Z</time>
      </trkpt>
      <trkpt lat="42.02757" lon="0.87227">
        <ele>679.174</ele>
        <time>2016-04-15T22:59:40Z</time>
      </trkpt>
      <trkpt lat="42.02758" lon="0.87228">
        <ele>678.325</ele>
        <time>2016-04-15T22:59:41Z</time>
      </trkpt>
      <trkpt lat="42.02763" lon="0.87238">
        <ele>674.272</ele>
        <time>2016-04-15T22:59:46Z</time>
      </trkpt>
      <trkpt lat="42.02768" lon="0.87247">
        <ele>671.436</ele>
        <time>2016-04-15T22:59:52Z</time>
      </trkpt>
      <trkpt lat="42.0277" lon="0.8725">
        <ele>670.592</ele>
        <time>2016-04-15T22:59:55Z</time>
      </trkpt>
      <trkpt lat="42.02771" lon="0.87253">
        <ele>669.073</ele>
        <time>2016-04-15T22:59:58Z</time>
      </trkpt>
      <trkpt lat="42.02776" lon="0.87263">
        <ele>664.82</ele>
        <time>2016-04-15T23:00:04Z</time>
      </trkpt>
      <trkpt lat="42.0278" lon="0.8727">
        <ele>660.508</ele>
        <time>2016-04-15T23:00:09Z</time>
      </trkpt>
      <trkpt lat="42.02784" lon="0.87279">
        <ele>656.751</ele>
        <time>2016-04-15T23:00:15Z</time>
      </trkpt>
      <trkpt lat="42.02785" lon="0.87282">
        <ele>655.46</ele>
        <time>2016-04-15T23:00:17Z</time>
      </trkpt>
      <trkpt lat="42.02791" lon="0.87288">
        <ele>653.421</ele>
        <time>2016-04-15T23:00:22Z</time>
      </trkpt>
      <trkpt lat="42.02792" lon="0.87293">
        <ele>651.713</ele>
        <time>2016-04-15T23:00:26Z</time>
      </trkpt>
      <trkpt lat="42.02793" lon="0.87296">
        <ele>650.586</ele>
        <time>2016-04-15T23:00:29Z</time>
      </trkpt>
      <trkpt lat="42.02794" lon="0.87299">
        <ele>649.847</ele>
        <time>2016-04-15T23:00:31Z</time>
      </trkpt>
      <trkpt lat="42.02798" lon="0.87303">
        <ele>648.694</ele>
        <time>2016-04-15T23:00:35Z</time>
      </trkpt>
      <trkpt lat="42.028" lon="0.87305">
        <ele>648.258</ele>
        <time>2016-04-15T23:00:37Z</time>
      </trkpt>
      <trkpt lat="42.02803" lon="0.87316">
        <ele>643.896</ele>
        <time>2016-04-15T23:00:44Z</time>
      </trkpt>
      <trkpt lat="42.02805" lon="0.87319">
        <ele>642.631</ele>
        <time>2016-04-15T23:00:46Z</time>
      </trkpt>
      <trkpt lat="42.02808" lon="0.87324">
        <ele>640.024</ele>
        <time>2016-04-15T23:00:50Z</time>
      </trkpt>
      <trkpt lat="42.02809" lon="0.87328">
        <ele>638.308</ele>
        <time>2016-04-15T23:00:53Z</time>
      </trkpt>
      <trkpt lat="42.02811" lon="0.87332">
        <ele>636.461</ele>
        <time>2016-04-15T23:00:56Z</time>
      </trkpt>
      <trkpt lat="42.02813" lon="0.87335">
        <ele>635.48</ele>
        <time>2016-04-15T23:00:58Z</time>
      </trkpt>
      <trkpt lat="42.02817" lon="0.87342">
        <ele>632.211</ele>
        <time>2016-04-15T23:01:04Z</time>
      </trkpt>
      <trkpt lat="42.02819" lon="0.87347">
        <ele>630.463</ele>
        <time>2016-04-15T23:01:07Z</time>
      </trkpt>
      <trkpt lat="42.02823" lon="0.87352">
        <ele>628.566</ele>
        <time>2016-04-15T23:01:12Z</time>
      </trkpt>
      <trkpt lat="42.02823" lon="0.87354">
        <ele>627.797</ele>
        <time>2016-04-15T23:01:15Z</time>
      </trkpt>
      <trkpt lat="42.02824" lon="0.87358">
        <ele>626.314</ele>
        <time>2016-04-15T23:01:18Z</time>
      </trkpt>
      <trkpt lat="42.02831" lon="0.87363">
        <ele>624.878</ele>
        <time>2016-04-15T23:01:25Z</time>
      </trkpt>
      <trkpt lat="42.02831" lon="0.87363">
        <ele>624.978</ele>
        <time>2016-04-15T23:01:29Z</time>
      </trkpt>
      <trkpt lat="42.02836" lon="0.87373">
        <ele>620.433</ele>
        <time>2016-04-15T23:01:36Z</time>
      </trkpt>
      <trkpt lat="42.02844" lon="0.87381">
        <ele>617.026</ele>
        <time>2016-04-15T23:01:42Z</time>
      </trkpt>
      <trkpt lat="42.02847" lon="0.8739">
        <ele>614.008</ele>
        <time>2016-04-15T23:01:47Z</time>
      </trkpt>
      <trkpt lat="42.02848" lon="0.87393">
        <ele>612.979</ele>
        <time>2016-04-15T23:01:50Z</time>
      </trkpt>
      <trkpt lat="42.02849" lon="0.87394">
        <ele>612.238</ele>
        <time>2016-04-15T23:01:51Z</time>
      </trkpt>
      <trkpt lat="42.0285" lon="0.87399">
        <ele>610.299</ele>
        <time>2016-04-15T23:01:54Z</time>
      </trkpt>
      <trkpt lat="42.02853" lon="0.87405">
        <ele>608.231</ele>
        <time>2016-04-15T23:01:58Z</time>
      </trkpt>
      <trkpt lat="42.02857" lon="0.87411">
        <ele>605.994</ele>
        <time>2016-04-15T23:02:03Z</time>
      </trkpt>
      <trkpt lat="42.02862" lon="0.8742">
        <ele>602.525</ele>
        <time>2016-04-15T23:02:11Z</time>
      </trkpt>
      <trkpt lat="42.02863" lon="0.87427">
        <ele>599.632</ele>
        <time>2016-04-15T23:02:15Z</time>
      </trkpt>
      <trkpt lat="42.02865" lon="0.87431">
        <ele>598.096</ele>
        <time>2016-04-15T23:02:18Z</time>
      </trkpt>
      <trkpt lat="42.02869" lon="0.87435">
        <ele>596.517</ele>
        <time>2016-04-15T23:02:22Z</time>
      </trkpt>
      <trkpt lat="42.02871" lon="0.87437">
        <ele>595.987</ele>
        <time>2016-04-15T23:02:24Z</time>
      </trkpt>
      <trkpt lat="42.02871" lon="0.87445">
        <ele>593.115</ele>
        <time>2016-04-15T23:02:30Z</time>
      </trkpt>
      <trkpt lat="42.02871" lon="0.87447">
        <ele>592.508</ele>
        <time>2016-04-15T23:02:31Z</time>
      </trkpt>
      <trkpt lat="42.02873" lon="0.87454">
        <ele>589.723</ele>
        <time>2016-04-15T23:02:36Z</time>
      </trkpt>
      <trkpt lat="42.02878" lon="0.87466">
        <ele>586.242</ele>
        <time>2016-04-15T23:02:43Z</time>
      </trkpt>
      <trkpt lat="42.02881" lon="0.87473">
        <ele>584.423</ele>
        <time>2016-04-15T23:02:47Z</time>
      </trkpt>
      <trkpt lat="42.02887" lon="0.87483">
        <ele>582.785</ele>
        <time>2016-04-15T23:02:54Z</time>
      </trkpt>
      <trkpt lat="42.02889" lon="0.87487">
        <ele>581.648</ele>
        <time>2016-04-15T23:02:56Z</time>
      </trkpt>
      <trkpt lat="42.02891" lon="0.87497">
        <ele>578.289</ele>
        <time>2016-04-15T23:03:02Z</time>
      </trkpt>
      <trkpt lat="42.02893" lon="0.87501">
        <ele>576.976</ele>
        <time>2016-04-15T23:03:05Z</time>
      </trkpt>
      <trkpt lat="42.02894" lon="0.87509">
        <ele>574.57</ele>
        <time>2016-04-15T23:03:11Z</time>
      </trkpt>
      <trkpt lat="42.02896" lon="0.87515">
        <ele>572.829</ele>
        <time>2016-04-15T23:03:15Z</time>
      </trkpt>
      <trkpt lat="42.02899" lon="0.87529">
        <ele>568.9</ele>
        <time>2016-04-15T23:03:23Z</time>
      </trkpt>
      <trkpt lat="42.029" lon="0.87533">
        <ele>567.82</ele>
        <time>2016-04-15T23:03:26Z</time>
      </trkpt>
      <trkpt lat="42.02903" lon="0.87541">
        <ele>565.508</ele>
        <time>2016-04-15T23:03:31Z</time>
      </trkpt>
      <trkpt lat="42.0291" lon="0.87553">
        <ele>563.284</ele>
        <time>2016-04-15T23:03:38Z</time>
      </trkpt>
      <trkpt lat="42.02914" lon="0.87565">
        <ele>560.273</ele>
        <time>2016-04-15T23:03:44Z</time>
      </trkpt>
      <trkpt lat="42.02919" lon="0.87579">
        <ele>556.364</ele>
        <time>2016-04-15T23:03:50Z</time>
      </trkpt>
      <trkpt lat="42.02922" lon="0.87591">
        <ele>552.856</ele>
        <time>2016-04-15T23:03:55Z</time>
      </trkpt>
      <trkpt lat="42.02925" lon="0.87606">
        <ele>548.689</ele>
        <time>2016-04-15T23:04:01Z</time>
      </trkpt>
      <trkpt lat="42.02926" lon="0.87609">
        <ele>547.92</ele>
        <time>2016-04-15T23:04:02Z</time>
      </trkpt>
      <trkpt lat="42.02927" lon="0.87612">
        <ele>547.047</ele>
        <time>2016-04-15T23:04:04Z</time>
      </trkpt>
      <trkpt lat="42.02929" lon="0.87626">
        <ele>543.821</ele>
        <time>2016-04-15T23:04:10Z</time>
      </trkpt>
      <trkpt lat="42.02929" lon="0.87634">
        <ele>542.044</ele>
        <time>2016-04-15T23:04:13Z</time>
      </trkpt>
      <trkpt lat="42.02931" lon="0.8765">
        <ele>539.105</ele>
        <time>2016-04-15T23:04:20Z</time>
      </trkpt>
      <trkpt lat="42.02932" lon="0.87661">
        <ele>537.315</ele>
        <time>2016-04-15T23:04:25Z</time>
      </trkpt>
      <trkpt lat="42.02931" lon="0.8767">
        <ele>535.708</ele>
        <time>2016-04-15T23:04:29Z</time>
      </trkpt>
      <trkpt lat="42.02931" lon="0.8769">
        <ele>533.346</ele>
        <time>2016-04-15T23:04:38Z</time>
      </trkpt>
      <trkpt lat="42.02931" lon="0.87697">
        <ele>532.215</ele>
        <time>2016-04-15T23:04:41Z</time>
      </trkpt>
      <trkpt lat="42.02929" lon="0.87717">
        <ele>529.096</ele>
        <time>2016-04-15T23:04:49Z</time>
      </trkpt>
      <trkpt lat="42.0293" lon="0.87732">
        <ele>525.548</ele>
        <time>2016-04-15T23:04:58Z</time>
      </trkpt>
      <trkpt lat="42.02929" lon="0.87742">
        <ele>522.831</ele>
        <time>2016-04-15T23:05:05Z</time>
      </trkpt>
      <trkpt lat="42.02928" lon="0.87746">
        <ele>521.622</ele>
        <time>2016-04-15T23:05:07Z</time>
      </trkpt>
      <trkpt lat="42.02925" lon="0.8775">
        <ele>520.319</ele>
        <time>2016-04-15T23:05:10Z</time>
      </trkpt>
      <trkpt lat="42.02916" lon="0.87773">
        <ele>516.433</ele>
        <time>2016-04-15T23:05:20Z</time>
      </trkpt>
      <trkpt lat="42.0292" lon="0.87791">
        <ele>513.266</ele>
        <time>2016-04-15T23:05:27Z</time>
      </trkpt>
      <trkpt lat="42.02923" lon="0.87802">
        <ele>510.429</ele>
        <time>2016-04-15T23:05:33Z</time>
      </trkpt>
      <trkpt lat="42.02926" lon="0.87809">
        <ele>508.721</ele>
        <time>2016-04-15T23:05:37Z</time>
      </trkpt>
      <trkpt lat="42.02927" lon="0.87813">
        <ele>507.508</ele>
        <time>2016-04-15T23:05:40Z</time>
      </trkpt>
      <trkpt lat="42.02929" lon="0.87819">
        <ele>506.318</ele>
        <time>2016-04-15T23:05:43Z</time>
      </trkpt>
      <trkpt lat="42.02931" lon="0.87824">
        <ele>504.767</ele>
        <time>2016-04-15T23:05:47Z</time>
      </trkpt>
      <trkpt lat="42.02932" lon="0.87828">
        <ele>503.838</ele>
        <time>2016-04-15T23:05:49Z</time>
      </trkpt>
      <trkpt lat="42.02937" lon="0.87838">
        <ele>500.82</ele>
        <time>2016-04-15T23:05:55Z</time>
      </trkpt>
      <trkpt lat="42.02938" lon="0.8784">
        <ele>500.253</ele>
        <time>2016-04-15T23:05:56Z</time>
      </trkpt>
      <trkpt lat="42.02939" lon="0.87844">
        <ele>499.284</ele>
        <time>2016-04-15T23:05:58Z</time>
      </trkpt>
      <trkpt lat="42.0294" lon="0.87849">
        <ele>498.241</ele>
        <time>2016-04-15T23:06:00Z</time>
      </trkpt>
      <trkpt lat="42.02943" lon="0.87865">
        <ele>494.985</ele>
        <time>2016-04-15T23:06:08Z</time>
      </trkpt>
      <trkpt lat="42.02949" lon="0.87869">
        <ele>493.257</ele>
        <time>2016-04-15T23:06:12Z</time>
      </trkpt>
      <trkpt lat="42.02949" lon="0.87875">
        <ele>492.3</ele>
        <time>2016-04-15T23:06:16Z</time>
      </trkpt>
      <trkpt lat="42.02948" lon="0.87879">
        <ele>491.72</ele>
        <time>2016-04-15T23:06:18Z</time>
      </trkpt>
      <trkpt lat="42.02951" lon="0.87902">
        <ele>486.708</ele>
        <time>2016-04-15T23:06:29Z</time>
      </trkpt>
      <trkpt lat="42.02953" lon="0.87925">
        <ele>482.637</ele>
        <time>2016-04-15T23:06:37Z</time>
      </trkpt>
      <trkpt lat="42.02952" lon="0.87939">
        <ele>481.886</ele>
        <time>2016-04-15T23:06:49Z</time>
      </trkpt>
      <trkpt lat="42.0295" lon="0.87941">
        <ele>482.267</ele>
        <time>2016-04-15T23:06:52Z</time>
      </trkpt>
      <trkpt lat="42.02943" lon="0.87939">
        <ele>482.439</ele>
        <time>2016-04-15T23:06:58Z</time>
      </trkpt>
      <trkpt lat="42.02933" lon="0.87928">
        <ele>478.522</ele>
        <time>2016-04-15T23:07:05Z</time>
      </trkpt>
      <trkpt lat="42.02932" lon="0.87921">
        <ele>478.563</ele>
        <time>2016-04-15T23:07:08Z</time>
      </trkpt>
      <trkpt lat="42.02927" lon="0.87908">
        <ele>478.95</ele>
        <time>2016-04-15T23:07:14Z</time>
      </trkpt>
      <trkpt lat="42.02922" lon="0.87904">
        <ele>477.444</ele>
        <time>2016-04-15T23:07:19Z</time>
      </trkpt>
      <trkpt lat="42.02912" lon="0.87901">
        <ele>474.267</ele>
        <time>2016-04-15T23:07:26Z</time>
      </trkpt>
      <trkpt lat="42.02906" lon="0.87899">
        <ele>472.281</ele>
        <time>2016-04-15T23:07:29Z</time>
      </trkpt>
      <trkpt lat="42.02895" lon="0.87897">
        <ele>468.419</ele>
        <time>2016-04-15T23:07:37Z</time>
      </trkpt>
      <trkpt lat="42.02894" lon="0.87897">
        <ele>467.908</ele>
        <time>2016-04-15T23:07:38Z</time>
      </trkpt>
      <trkpt lat="42.02901" lon="0.87911">
        <ele>465.978</ele>
        <time>2016-04-15T23:07:48Z</time>
      </trkpt>
      <trkpt lat="42.029" lon="0.87921">
        <ele>462.867</ele>
        <time>2016-04-15T23:07:54Z</time>
      </trkpt>
      <trkpt lat="42.029" lon="0.87925">
        <ele>461.518</ele>
        <time>2016-04-15T23:07:56Z</time>
      </trkpt>
      <trkpt lat="42.02904" lon="0.87944">
        <ele>459.33</ele>
        <time>2016-04-15T23:08:04Z</time>
      </trkpt>
      <trkpt lat="42.02911" lon="0.87951">
        <ele>462.793</ele>
        <time>2016-04-15T23:08:14Z</time>
      </trkpt>
      <trkpt lat="42.02913" lon="0.87959">
        <ele>462.514</ele>
        <time>2016-04-15T23:08:19Z</time>
      </trkpt>
      <trkpt lat="42.02912" lon="0.87969">
        <ele>460.011</ele>
        <time>2016-04-15T23:08:24Z</time>
      </trkpt>
      <trkpt lat="42.02911" lon="0.87973">
        <ele>458.835</ele>
        <time>2016-04-15T23:08:26Z</time>
      </trkpt>
      <trkpt lat="42.02912" lon="0.87983">
        <ele>459.598</ele>
        <time>2016-04-15T23:08:32Z</time>
      </trkpt>
      <trkpt lat="42.02911" lon="0.87991">
        <ele>458.415</ele>
        <time>2016-04-15T23:08:38Z</time>
      </trkpt>
      <trkpt lat="42.02914" lon="0.88008">
        <ele>456.426</ele>
        <time>2016-04-15T23:08:50Z</time>
      </trkpt>
      <trkpt lat="42.02916" lon="0.88013">
        <ele>456.008</ele>
        <time>2016-04-15T23:08:56Z</time>
      </trkpt>
      <trkpt lat="42.02922" lon="0.88029">
        <ele>450.571</ele>
        <time>2016-04-15T23:09:08Z</time>
      </trkpt>
      <trkpt lat="42.0292" lon="0.8803">
        <ele>450.36</ele>
        <time>2016-04-15T23:09:10Z</time>
      </trkpt>
      <trkpt lat="42.0292" lon="0.88041">
        <ele>447.251</ele>
        <time>2016-04-15T23:09:16Z</time>
      </trkpt>
      <trkpt lat="42.02922" lon="0.88051">
        <ele>444.313</ele>
        <time>2016-04-15T23:09:22Z</time>
      </trkpt>
      <trkpt lat="42.02923" lon="0.88057">
        <ele>442.916</ele>
        <time>2016-04-15T23:09:25Z</time>
      </trkpt>
      <trkpt lat="42.02931" lon="0.88061">
        <ele>441.847</ele>
        <time>2016-04-15T23:09:29Z</time>
      </trkpt>
      <trkpt lat="42.02953" lon="0.88062">
        <ele>440.314</ele>
        <time>2016-04-15T23:09:38Z</time>
      </trkpt>
      <trkpt lat="42.02965" lon="0.88053">
        <ele>439.748</ele>
        <time>2016-04-15T23:09:44Z</time>
      </trkpt>
      <trkpt lat="42.02969" lon="0.88025">
        <ele>441.972</ele>
        <time>2016-04-15T23:09:55Z</time>
      </trkpt>
      <trkpt lat="42.02969" lon="0.88023">
        <ele>442.513</ele>
        <time>2016-04-15T23:09:56Z</time>
      </trkpt>
      <trkpt lat="42.02974" lon="0.88019">
        <ele>442.914</ele>
        <time>2016-04-15T23:10:00Z</time>
      </trkpt>
      <trkpt lat="42.02976" lon="0.88018">
        <ele>442.608</ele>
        <time>2016-04-15T23:10:02Z</time>
      </trkpt>
      <trkpt lat="42.0298" lon="0.88017">
        <ele>441.739</ele>
        <time>2016-04-15T23:10:05Z</time>
      </trkpt>
      <trkpt lat="42.02993" lon="0.88017">
        <ele>436.948</ele>
        <time>2016-04-15T23:10:12Z</time>
      </trkpt>
      <trkpt lat="42.03018" lon="0.87998">
        <ele>436.169</ele>
        <time>2016-04-15T23:10:24Z</time>
      </trkpt>
      <trkpt lat="42.03019" lon="0.87996">
        <ele>436.971</ele>
        <time>2016-04-15T23:10:25Z</time>
      </trkpt>
      <trkpt lat="42.03034" lon="0.88004">
        <ele>433.324</ele>
        <time>2016-04-15T23:10:37Z</time>
      </trkpt>
      <trkpt lat="42.03046" lon="0.88008">
        <ele>436.795</ele>
        <time>2016-04-15T23:10:47Z</time>
      </trkpt>
      <trkpt lat="42.03053" lon="0.88008">
        <ele>440.092</ele>
        <time>2016-04-15T23:10:52Z</time>
      </trkpt>
      <trkpt lat="42.0307" lon="0.88009">
        <ele>449.116</ele>
        <time>2016-04-15T23:11:07Z</time>
      </trkpt>
      <trkpt lat="42.03076" lon="0.88011">
        <ele>451.894</ele>
        <time>2016-04-15T23:11:13Z</time>
      </trkpt>
      <trkpt lat="42.03082" lon="0.88014">
        <ele>453.357</ele>
        <time>2016-04-15T23:11:18Z</time>
      </trkpt>
      <trkpt lat="42.03086" lon="0.88033">
        <ele>440.722</ele>
        <time>2016-04-15T23:11:32Z</time>
      </trkpt>
      <trkpt lat="42.03087" lon="0.88036">
        <ele>438.208</ele>
        <time>2016-04-15T23:11:34Z</time>
      </trkpt>
      <trkpt lat="42.03091" lon="0.88045">
        <ele>432.661</ele>
        <time>2016-04-15T23:11:41Z</time>
      </trkpt>
      <trkpt lat="42.03114" lon="0.88065">
        <ele>431.76</ele>
        <time>2016-04-15T23:11:58Z</time>
      </trkpt>
      <trkpt lat="42.03135" lon="0.88084">
        <ele>419.271</ele>
        <time>2016-04-15T23:12:09Z</time>
      </trkpt>
      <trkpt lat="42.03137" lon="0.88085">
        <ele>421.283</ele>
        <time>2016-04-15T23:12:10Z</time>
      </trkpt>
      <trkpt lat="42.03147" lon="0.88087">
        <ele>425.476</ele>
        <time>2016-04-15T23:12:14Z</time>
      </trkpt>
      <trkpt lat="42.03157" lon="0.88088">
        <ele>431.287</ele>
        <time>2016-04-15T23:12:19Z</time>
      </trkpt>
      <trkpt lat="42.03154" lon="0.88094">
        <ele>424.424</ele>
        <time>2016-04-15T23:12:23Z</time>
      </trkpt>
      <trkpt lat="42.03152" lon="0.88097">
        <ele>420.598</ele>
        <time>2016-04-15T23:12:25Z</time>
      </trkpt>
      <trkpt lat="42.03155" lon="0.88098">
        <ele>422.135</ele>
        <time>2016-04-15T23:12:27Z</time>
      </trkpt>
      <trkpt lat="42.03162" lon="0.88097">
        <ele>428.886</ele>
        <time>2016-04-15T23:12:31Z</time>
      </trkpt>
      <trkpt lat="42.03164" lon="0.88107">
        <ele>423.914</ele>
        <time>2016-04-15T23:12:36Z</time>
      </trkpt>
      <trkpt lat="42.03164" lon="0.88113">
        <ele>420.808</ele>
        <time>2016-04-15T23:12:38Z</time>
      </trkpt>
      <trkpt lat="42.03169" lon="0.88113">
        <ele>422.835</ele>
        <time>2016-04-15T23:12:42Z</time>
      </trkpt>
      <trkpt lat="42.03183" lon="0.88097">
        <ele>425.974</ele>
        <time>2016-04-15T23:12:50Z</time>
      </trkpt>
      <trkpt lat="42.03191" lon="0.88093">
        <ele>424.215</ele>
        <time>2016-04-15T23:12:53Z</time>
      </trkpt>
      <trkpt lat="42.03204" lon="0.88091">
        <ele>420.697</ele>
        <time>2016-04-15T23:12:58Z</time>
      </trkpt>
      <trkpt lat="42.0321" lon="0.88086">
        <ele>420.81</ele>
        <time>2016-04-15T23:13:01Z</time>
      </trkpt>
      <trkpt lat="42.0322" lon="0.88079">
        <ele>420.881</ele>
        <time>2016-04-15T23:13:06Z</time>
      </trkpt>
      <trkpt lat="42.03243" lon="0.88106">
        <ele>418.378</ele>
        <time>2016-04-15T23:13:19Z</time>
      </trkpt>
      <trkpt lat="42.03249" lon="0.8813">
        <ele>413.382</ele>
        <time>2016-04-15T23:13:27Z</time>
      </trkpt>
      <trkpt lat="42.03248" lon="0.88141">
        <ele>409.515</ele>
        <time>2016-04-15T23:13:32Z</time>
      </trkpt>
      <trkpt lat="42.03246" lon="0.88147">
        <ele>407.265</ele>
        <time>2016-04-15T23:13:35Z</time>
      </trkpt>
      <trkpt lat="42.03255" lon="0.88148">
        <ele>407.311</ele>
        <time>2016-04-15T23:13:41Z</time>
      </trkpt>
      <trkpt lat="42.03261" lon="0.88146">
        <ele>406.908</ele>
        <time>2016-04-15T23:13:44Z</time>
      </trkpt>
      <trkpt lat="42.03264" lon="0.8815">
        <ele>405.093</ele>
        <time>2016-04-15T23:13:48Z</time>
      </trkpt>
      <trkpt lat="42.03263" lon="0.88155">
        <ele>403.762</ele>
        <time>2016-04-15T23:13:50Z</time>
      </trkpt>
      <trkpt lat="42.03262" lon="0.88165">
        <ele>400.773</ele>
        <time>2016-04-15T23:13:54Z</time>
      </trkpt>
      <trkpt lat="42.03272" lon="0.88166">
        <ele>397.845</ele>
        <time>2016-04-15T23:14:01Z</time>
      </trkpt>
      <trkpt lat="42.03278" lon="0.88166">
        <ele>396.468</ele>
        <time>2016-04-15T23:14:04Z</time>
      </trkpt>
      <trkpt lat="42.03282" lon="0.88167">
        <ele>394.449</ele>
        <time>2016-04-15T23:14:07Z</time>
      </trkpt>
      <trkpt lat="42.03282" lon="0.88169">
        <ele>394.016</ele>
        <time>2016-04-15T23:14:08Z</time>
      </trkpt>
      <trkpt lat="42.03281" lon="0.8817">
        <ele>393.86</ele>
        <time>2016-04-15T23:14:09Z</time>
      </trkpt>
      <trkpt lat="42.03279" lon="0.88172">
        <ele>393.597</ele>
        <time>2016-04-15T23:14:10Z</time>
      </trkpt>
      <trkpt lat="42.03278" lon="0.88175">
        <ele>392.923</ele>
        <time>2016-04-15T23:14:11Z</time>
      </trkpt>
      <trkpt lat="42.03277" lon="0.88178">
        <ele>392.225</ele>
        <time>2016-04-15T23:14:12Z</time>
      </trkpt>
      <trkpt lat="42.03276" lon="0.88181">
        <ele>391.508</ele>
        <time>2016-04-15T23:14:13Z</time>
      </trkpt>
      <trkpt lat="42.03275" lon="0.88184">
        <ele>390.681</ele>
        <time>2016-04-15T23:14:14Z</time>
      </trkpt>
      <trkpt lat="42.03275" lon="0.88187">
        <ele>389.81</ele>
        <time>2016-04-15T23:14:15Z</time>
      </trkpt>
      <trkpt lat="42.03275" lon="0.88194">
        <ele>387.441</ele>
        <time>2012-03-18T09:35:15Z</time>
      </trkpt>
      <trkpt lat="42.03291" lon="0.88181">
        <ele>386.583</ele>
        <time>2012-03-18T09:35:01Z</time>
      </trkpt>
      <trkpt lat="42.03291" lon="0.88188">
        <ele>384.116</ele>
        <time>2012-03-18T09:34:54Z</time>
      </trkpt>
      <trkpt lat="42.03289" lon="0.88188">
        <ele>384.727</ele>
        <time>2012-03-18T09:34:50Z</time>
      </trkpt>
      <trkpt lat="42.03288" lon="0.8819">
        <ele>384.274</ele>
        <time>2012-03-18T09:34:46Z</time>
      </trkpt>
      <trkpt lat="42.03293" lon="0.88187">
        <ele>383.878</ele>
        <time>2012-03-18T09:34:42Z</time>
      </trkpt>
      <trkpt lat="42.03297" lon="0.88185">
        <ele>383.215</ele>
        <time>2012-03-18T09:34:37Z</time>
      </trkpt>
      <trkpt lat="42.03299" lon="0.88185">
        <ele>382.465</ele>
        <time>2012-03-18T09:34:35Z</time>
      </trkpt>
      <trkpt lat="42.03319" lon="0.88179">
        <ele>378.811</ele>
        <time>2012-03-18T09:34:24Z</time>
      </trkpt>
      <trkpt lat="42.03324" lon="0.88175">
        <ele>378.608</ele>
        <time>2012-03-18T09:34:19Z</time>
      </trkpt>
      <trkpt lat="42.03329" lon="0.88175">
        <ele>377.433</ele>
        <time>2012-03-18T09:34:15Z</time>
      </trkpt>
      <trkpt lat="42.0334" lon="0.88168">
        <ele>377.652</ele>
        <time>2012-03-18T09:34:07Z</time>
      </trkpt>
      <trkpt lat="42.03342" lon="0.88167">
        <ele>377.963</ele>
        <time>2012-03-18T09:34:04Z</time>
      </trkpt>
      <trkpt lat="42.03357" lon="0.88165">
        <ele>378.875</ele>
        <time>2012-03-18T09:33:48Z</time>
      </trkpt>
      <trkpt lat="42.03376" lon="0.88167">
        <ele>377.258</ele>
        <time>2012-03-18T09:33:33Z</time>
      </trkpt>
      <trkpt lat="42.03381" lon="0.88168">
        <ele>376.639</ele>
        <time>2012-03-18T09:33:28Z</time>
      </trkpt>
      <trkpt lat="42.03383" lon="0.8817">
        <ele>375.996</ele>
        <time>2012-03-18T09:33:27Z</time>
      </trkpt>
      <trkpt lat="42.03391" lon="0.88175">
        <ele>373.48</ele>
        <time>2012-03-18T09:33:17Z</time>
      </trkpt>
      <trkpt lat="42.03403" lon="0.88174">
        <ele>373.023</ele>
        <time>2012-03-18T09:33:02Z</time>
      </trkpt>
      <trkpt lat="42.03408" lon="0.88177">
        <ele>371.883</ele>
        <time>2012-03-18T09:32:57Z</time>
      </trkpt>
      <trkpt lat="42.03409" lon="0.88176">
        <ele>371.811</ele>
        <time>2012-03-18T09:32:56Z</time>
      </trkpt>
      <trkpt lat="42.03423" lon="0.88184">
        <ele>368.608</ele>
        <time>2012-03-18T09:32:44Z</time>
      </trkpt>
      <trkpt lat="42.03434" lon="0.88193">
        <ele>366.144</ele>
        <time>2012-03-18T09:32:34Z</time>
      </trkpt>
      <trkpt lat="42.03441" lon="0.88199">
        <ele>364.393</ele>
        <time>2012-03-18T09:32:26Z</time>
      </trkpt>
      <trkpt lat="42.03453" lon="0.88207">
        <ele>360.914</ele>
        <time>2012-03-18T09:32:14Z</time>
      </trkpt>
      <trkpt lat="42.0348" lon="0.88212">
        <ele>360.386</ele>
        <time>2012-03-18T09:32:01Z</time>
      </trkpt>
      <trkpt lat="42.03487" lon="0.88216">
        <ele>359.479</ele>
        <time>2012-03-18T09:31:57Z</time>
      </trkpt>
      <trkpt lat="42.03506" lon="0.88229">
        <ele>357.02</ele>
        <time>2012-03-18T09:31:47Z</time>
      </trkpt>
      <trkpt lat="42.0353" lon="0.88239">
        <ele>356.237</ele>
        <time>2012-03-18T09:31:35Z</time>
      </trkpt>
      <trkpt lat="42.03558" lon="0.88251">
        <ele>354.961</ele>
        <time>2012-03-18T09:31:23Z</time>
      </trkpt>
      <trkpt lat="42.03583" lon="0.88258">
        <ele>354.935</ele>
        <time>2012-03-18T09:31:12Z</time>
      </trkpt>
      <trkpt lat="42.03609" lon="0.88259">
        <ele>357.186</ele>
        <time>2012-03-18T09:30:59Z</time>
      </trkpt>
      <trkpt lat="42.03631" lon="0.88264">
        <ele>357.914</ele>
        <time>2012-03-18T09:30:49Z</time>
      </trkpt>
      <trkpt lat="42.03652" lon="0.88275">
        <ele>356.608</ele>
        <time>2012-03-18T09:30:38Z</time>
      </trkpt>
      <trkpt lat="42.03678" lon="0.88278">
        <ele>359.535</ele>
        <time>2012-03-18T09:30:27Z</time>
      </trkpt>
      <trkpt lat="42.03701" lon="0.88281">
        <ele>361.634</ele>
        <time>2012-03-18T09:30:17Z</time>
      </trkpt>
      <trkpt lat="42.03728" lon="0.88279">
        <ele>364.885</ele>
        <time>2012-03-18T09:30:04Z</time>
      </trkpt>
      <trkpt lat="42.03754" lon="0.88286">
        <ele>362.647</ele>
        <time>2012-03-18T09:29:52Z</time>
      </trkpt>
      <trkpt lat="42.03781" lon="0.88297">
        <ele>360.81</ele>
        <time>2012-03-18T09:29:41Z</time>
      </trkpt>
      <trkpt lat="42.03802" lon="0.88318">
        <ele>355.991</ele>
        <time>2012-03-18T09:29:26Z</time>
      </trkpt>
      <trkpt lat="42.03813" lon="0.88316">
        <ele>362.458</ele>
        <time>2012-03-18T09:29:17Z</time>
      </trkpt>
      <trkpt lat="42.03822" lon="0.8832">
        <ele>364.542</ele>
        <time>2012-03-18T09:29:09Z</time>
      </trkpt>
      <trkpt lat="42.03839" lon="0.88351">
        <ele>354.082</ele>
        <time>2012-03-18T09:28:58Z</time>
      </trkpt>
      <trkpt lat="42.03841" lon="0.88353">
        <ele>354.143</ele>
        <time>2012-03-18T09:28:57Z</time>
      </trkpt>
      <trkpt lat="42.03869" lon="0.88361">
        <ele>363.317</ele>
        <time>2012-03-18T09:28:46Z</time>
      </trkpt>
      <trkpt lat="42.03889" lon="0.88387">
        <ele>355.908</ele>
        <time>2012-03-18T09:28:35Z</time>
      </trkpt>
      <trkpt lat="42.03919" lon="0.88405">
        <ele>358.94</ele>
        <time>2012-03-18T09:28:05Z</time>
      </trkpt>
      <trkpt lat="42.03926" lon="0.88413">
        <ele>356.539</ele>
        <time>2012-03-18T09:27:47Z</time>
      </trkpt>
      <trkpt lat="42.03932" lon="0.88429">
        <ele>350.44</ele>
        <time>2012-03-18T09:27:39Z</time>
      </trkpt>
      <trkpt lat="42.03925" lon="0.88455">
        <ele>344.052</ele>
        <time>2012-03-18T09:27:28Z</time>
      </trkpt>
      <trkpt lat="42.03912" lon="0.88461">
        <ele>348.735</ele>
        <time>2012-03-18T09:27:19Z</time>
      </trkpt>
      <trkpt lat="42.03901" lon="0.88465">
        <ele>357.036</ele>
        <time>2012-03-18T09:27:17Z</time>
      </trkpt>
      <trkpt lat="42.03891" lon="0.88452">
        <ele>350.253</ele>
        <time>2012-03-18T09:27:03Z</time>
      </trkpt>
      <trkpt lat="42.03875" lon="0.88443">
        <ele>350.167</ele>
        <time>2012-03-18T09:26:51Z</time>
      </trkpt>
      <trkpt lat="42.03851" lon="0.88439">
        <ele>359.153</ele>
        <time>2012-03-18T09:26:36Z</time>
      </trkpt>
      <trkpt lat="42.03835" lon="0.88433">
        <ele>360.504</ele>
        <time>2012-03-18T09:26:24Z</time>
      </trkpt>
      <trkpt lat="42.03829" lon="0.88432">
        <ele>359.814</ele>
        <time>2012-03-18T09:26:20Z</time>
      </trkpt>
      <trkpt lat="42.0381" lon="0.88424">
        <ele>351.708</ele>
        <time>2012-03-18T09:26:08Z</time>
      </trkpt>
      <trkpt lat="42.03806" lon="0.88422">
        <ele>351.077</ele>
        <time>2012-03-18T09:26:05Z</time>
      </trkpt>
      <trkpt lat="42.03783" lon="0.88418">
        <ele>347.516</ele>
        <time>2012-03-18T09:25:52Z</time>
      </trkpt>
      <trkpt lat="42.03779" lon="0.88417">
        <ele>347.117</ele>
        <time>2012-03-18T09:25:50Z</time>
      </trkpt>
      <trkpt lat="42.03761" lon="0.88413">
        <ele>346.739</ele>
        <time>2012-03-18T09:25:41Z</time>
      </trkpt>
      <trkpt lat="42.03757" lon="0.88412">
        <ele>346.752</ele>
        <time>2012-03-18T09:25:39Z</time>
      </trkpt>
      <trkpt lat="42.03742" lon="0.88411">
        <ele>347.393</ele>
        <time>2012-03-18T09:25:23Z</time>
      </trkpt>
      <trkpt lat="42.03725" lon="0.88405">
        <ele>347.26</ele>
        <time>2012-03-18T09:25:11Z</time>
      </trkpt>
      <trkpt lat="42.03704" lon="0.88399">
        <ele>346.234</ele>
        <time>2012-03-18T09:24:58Z</time>
      </trkpt>
      <trkpt lat="42.03699" lon="0.88396">
        <ele>345.735</ele>
        <time>2012-03-18T09:24:54Z</time>
      </trkpt>
      <trkpt lat="42.03676" lon="0.8839">
        <ele>345.786</ele>
        <time>2012-03-18T09:24:28Z</time>
      </trkpt>
      <trkpt lat="42.03678" lon="0.88403">
        <ele>346.514</ele>
        <time>2012-03-18T09:24:10Z</time>
      </trkpt>
      <trkpt lat="42.03662" lon="0.88408">
        <ele>346.708</ele>
        <time>2012-03-18T09:23:57Z</time>
      </trkpt>
      <trkpt lat="42.03656" lon="0.88408">
        <ele>346.795</ele>
        <time>2012-03-18T09:23:53Z</time>
      </trkpt>
      <trkpt lat="42.03654" lon="0.88403">
        <ele>346.564</ele>
        <time>2012-03-18T09:23:49Z</time>
      </trkpt>
      <trkpt lat="42.0365" lon="0.88403">
        <ele>346.555</ele>
        <time>2012-03-18T09:23:46Z</time>
      </trkpt>
      <trkpt lat="42.03644" lon="0.88403">
        <ele>346.567</ele>
        <time>2012-03-18T09:23:42Z</time>
      </trkpt>
      <trkpt lat="42.03618" lon="0.88402">
        <ele>346.91</ele>
        <time>2012-03-18T09:23:29Z</time>
      </trkpt>
      <trkpt lat="42.036" lon="0.88397">
        <ele>347.051</ele>
        <time>2012-03-18T09:23:17Z</time>
      </trkpt>
      <trkpt lat="42.0359" lon="0.88395">
        <ele>347.048</ele>
        <time>2012-03-18T09:23:11Z</time>
      </trkpt>
      <trkpt lat="42.03584" lon="0.88393">
        <ele>347.022</ele>
        <time>2012-03-18T09:23:07Z</time>
      </trkpt>
      <trkpt lat="42.03555" lon="0.88388">
        <ele>347.025</ele>
        <time>2012-03-18T09:22:13Z</time>
      </trkpt>
      <trkpt lat="42.03555" lon="0.88388">
        <ele>347.026</ele>
        <time>2012-03-18T09:22:11Z</time>
      </trkpt>
      <trkpt lat="42.03555" lon="0.88388">
        <ele>347.008</ele>
        <time>2012-03-18T09:22:01Z</time>
      </trkpt>
      <trkpt lat="42.03555" lon="0.88388">
        <ele>347.008</ele>
        <time>2012-03-18T09:22:00Z</time>
      </trkpt>
      <trkpt lat="42.0353" lon="0.8838">
        <ele>347.024</ele>
        <time>2015-01-10T08:05:00Z</time>
      </trkpt>
      <trkpt lat="42.03527" lon="0.88371">
        <ele>347.043</ele>
        <time>2015-01-10T08:07:14Z</time>
      </trkpt>
      <trkpt lat="42.0353" lon="0.88375">
        <ele>347.044</ele>
        <time>2015-01-10T08:10:45Z</time>
      </trkpt>
      <trkpt lat="42.03526" lon="0.8837">
        <ele>347.016</ele>
        <time>2015-01-10T08:12:14Z</time>
      </trkpt>
      <trkpt lat="42.0353" lon="0.8838">
        <ele>347.059</ele>
        <time>2015-01-10T08:05:00Z</time>
      </trkpt>
      <trkpt lat="42.03527" lon="0.88371">
        <ele>347.03</ele>
        <time>2015-01-10T08:07:14Z</time>
      </trkpt>
      <trkpt lat="42.0353" lon="0.88375">
        <ele>347.037</ele>
        <time>2015-01-10T08:10:45Z</time>
      </trkpt>
      <trkpt lat="42.03526" lon="0.8837">
        <ele>347.071</ele>
        <time>2015-01-10T08:12:14Z</time>
      </trkpt>
      <trkpt lat="42.03519" lon="0.88376">
        <ele>347.213</ele>
        <time>2015-01-10T08:12:40Z</time>
      </trkpt>
      <trkpt lat="42.03512" lon="0.88377">
        <ele>347.343</ele>
        <time>2015-01-10T08:12:58Z</time>
      </trkpt>
      <trkpt lat="42.03504" lon="0.88382">
        <ele>347.607</ele>
        <time>2015-01-10T08:13:11Z</time>
      </trkpt>
      <trkpt lat="42.03494" lon="0.88379">
        <ele>347.808</ele>
        <time>2015-01-10T08:13:20Z</time>
      </trkpt>
      <trkpt lat="42.03483" lon="0.8838">
        <ele>348.153</ele>
        <time>2015-01-10T08:13:30Z</time>
      </trkpt>
      <trkpt lat="42.03474" lon="0.88386">
        <ele>348.752</ele>
        <time>2015-01-10T08:13:39Z</time>
      </trkpt>
      <trkpt lat="42.03465" lon="0.88384">
        <ele>349.533</ele>
        <time>2015-01-10T08:13:47Z</time>
      </trkpt>
      <trkpt lat="42.03457" lon="0.88381">
        <ele>350.275</ele>
        <time>2015-01-10T08:13:55Z</time>
      </trkpt>
      <trkpt lat="42.03447" lon="0.88379">
        <ele>350.948</ele>
        <time>2015-01-10T08:14:03Z</time>
      </trkpt>
      <trkpt lat="42.03445" lon="0.88387">
        <ele>352.789</ele>
        <time>2015-01-10T08:14:15Z</time>
      </trkpt>
      <trkpt lat="42.0345" lon="0.88396">
        <ele>355.246</ele>
        <time>2015-01-10T08:14:28Z</time>
      </trkpt>
      <trkpt lat="42.03458" lon="0.88403">
        <ele>356.85</ele>
        <time>2015-01-10T08:14:39Z</time>
      </trkpt>
      <trkpt lat="42.03466" lon="0.88407">
        <ele>357.796</ele>
        <time>2015-01-10T08:14:51Z</time>
      </trkpt>
      <trkpt lat="42.03474" lon="0.88412">
        <ele>358.631</ele>
        <time>2015-01-10T08:15:02Z</time>
      </trkpt>
      <trkpt lat="42.03482" lon="0.88419">
        <ele>358.824</ele>
        <time>2015-01-10T08:15:14Z</time>
      </trkpt>
      <trkpt lat="42.03489" lon="0.88426">
        <ele>359.708</ele>
        <time>2015-01-10T08:15:28Z</time>
      </trkpt>
      <trkpt lat="42.03486" lon="0.88435">
        <ele>364.051</ele>
        <time>2015-01-10T08:15:42Z</time>
      </trkpt>
      <trkpt lat="42.03479" lon="0.88444">
        <ele>368.18</ele>
        <time>2015-01-10T08:15:55Z</time>
      </trkpt>
      <trkpt lat="42.03471" lon="0.88449">
        <ele>370.551</ele>
        <time>2015-01-10T08:16:07Z</time>
      </trkpt>
      <trkpt lat="42.03465" lon="0.88458">
        <ele>373.553</ele>
        <time>2015-01-10T08:16:19Z</time>
      </trkpt>
      <trkpt lat="42.03458" lon="0.88466">
        <ele>375.816</ele>
        <time>2015-01-10T08:16:31Z</time>
      </trkpt>
      <trkpt lat="42.03451" lon="0.88474">
        <ele>377.617</ele>
        <time>2015-01-10T08:16:43Z</time>
      </trkpt>
      <trkpt lat="42.03444" lon="0.88482">
        <ele>379.484</ele>
        <time>2015-01-10T08:16:55Z</time>
      </trkpt>
      <trkpt lat="42.03436" lon="0.88479">
        <ele>381.938</ele>
        <time>2015-01-10T08:17:07Z</time>
      </trkpt>
      <trkpt lat="42.03431" lon="0.8847">
        <ele>381.579</ele>
        <time>2015-01-10T08:17:20Z</time>
      </trkpt>
      <trkpt lat="42.03423" lon="0.88463">
        <ele>383.005</ele>
        <time>2015-01-10T08:17:32Z</time>
      </trkpt>
      <trkpt lat="42.03414" lon="0.88458">
        <ele>385.025</ele>
        <time>2015-01-10T08:17:44Z</time>
      </trkpt>
      <trkpt lat="42.03409" lon="0.88461">
        <ele>386.508</ele>
        <time>2015-01-10T08:17:56Z</time>
      </trkpt>
      <trkpt lat="42.03402" lon="0.8846">
        <ele>387.639</ele>
        <time>2015-01-10T08:18:09Z</time>
      </trkpt>
      <trkpt lat="42.03393" lon="0.88462">
        <ele>390.028</ele>
        <time>2015-01-10T08:18:20Z</time>
      </trkpt>
      <trkpt lat="42.03386" lon="0.88471">
        <ele>393.529</ele>
        <time>2015-01-10T08:18:32Z</time>
      </trkpt>
      <trkpt lat="42.03379" lon="0.88481">
        <ele>395.881</ele>
        <time>2015-01-10T08:18:44Z</time>
      </trkpt>
      <trkpt lat="42.03382" lon="0.88489">
        <ele>398.134</ele>
        <time>2015-01-10T08:18:56Z</time>
      </trkpt>
      <trkpt lat="42.0339" lon="0.88495">
        <ele>399.575</ele>
        <time>2015-01-10T08:19:07Z</time>
      </trkpt>
      <trkpt lat="42.03396" lon="0.88503">
        <ele>399.642</ele>
        <time>2015-01-10T08:19:18Z</time>
      </trkpt>
      <trkpt lat="42.03391" lon="0.88509">
        <ele>402.966</ele>
        <time>2015-01-10T08:19:29Z</time>
      </trkpt>
      <trkpt lat="42.03387" lon="0.88516">
        <ele>405.644</ele>
        <time>2015-01-10T08:19:41Z</time>
      </trkpt>
      <trkpt lat="42.03383" lon="0.88521">
        <ele>407.005</ele>
        <time>2015-01-10T08:19:53Z</time>
      </trkpt>
      <trkpt lat="42.03389" lon="0.88531">
        <ele>409.815</ele>
        <time>2015-01-10T08:20:04Z</time>
      </trkpt>
      <trkpt lat="42.03385" lon="0.88536">
        <ele>411.708</ele>
        <time>2015-01-10T08:20:15Z</time>
      </trkpt>
      <trkpt lat="42.03378" lon="0.88544">
        <ele>414.196</ele>
        <time>2015-01-10T08:20:26Z</time>
      </trkpt>
      <trkpt lat="42.03369" lon="0.8855">
        <ele>416.275</ele>
        <time>2015-01-10T08:20:36Z</time>
      </trkpt>
      <trkpt lat="42.03361" lon="0.88556">
        <ele>418.246</ele>
        <time>2015-01-10T08:20:46Z</time>
      </trkpt>
      <trkpt lat="42.03353" lon="0.8856">
        <ele>419.878</ele>
        <time>2015-01-10T08:20:55Z</time>
      </trkpt>
      <trkpt lat="42.03344" lon="0.88564">
        <ele>421.411</ele>
        <time>2015-01-10T08:21:04Z</time>
      </trkpt>
      <trkpt lat="42.0335" lon="0.8857">
        <ele>423.412</ele>
        <time>2015-01-10T08:21:14Z</time>
      </trkpt>
      <trkpt lat="42.03359" lon="0.88575">
        <ele>424.449</ele>
        <time>2015-01-10T08:21:24Z</time>
      </trkpt>
      <trkpt lat="42.03367" lon="0.8858">
        <ele>425.493</ele>
        <time>2015-01-10T08:21:34Z</time>
      </trkpt>
      <trkpt lat="42.03374" lon="0.88585">
        <ele>426.553</ele>
        <time>2015-01-10T08:21:43Z</time>
      </trkpt>
      <trkpt lat="42.03367" lon="0.88592">
        <ele>429.304</ele>
        <time>2015-01-10T08:21:54Z</time>
      </trkpt>
      <trkpt lat="42.03359" lon="0.88598">
        <ele>432.014</ele>
        <time>2015-01-10T08:22:05Z</time>
      </trkpt>
      <trkpt lat="42.0335" lon="0.88601">
        <ele>433.408</ele>
        <time>2015-01-10T08:22:15Z</time>
      </trkpt>
      <trkpt lat="42.03341" lon="0.88603">
        <ele>434.927</ele>
        <time>2015-01-10T08:22:25Z</time>
      </trkpt>
      <trkpt lat="42.03333" lon="0.88606">
        <ele>436.446</ele>
        <time>2015-01-10T08:22:35Z</time>
      </trkpt>
      <trkpt lat="42.03323" lon="0.88607">
        <ele>438.137</ele>
        <time>2015-01-10T08:22:45Z</time>
      </trkpt>
      <trkpt lat="42.03314" lon="0.88606">
        <ele>438.989</ele>
        <time>2015-01-10T08:22:54Z</time>
      </trkpt>
      <trkpt lat="42.03304" lon="0.88605">
        <ele>439.922</ele>
        <time>2015-01-10T08:23:03Z</time>
      </trkpt>
      <trkpt lat="42.03298" lon="0.88612">
        <ele>443.623</ele>
        <time>2015-01-10T08:23:13Z</time>
      </trkpt>
      <trkpt lat="42.03305" lon="0.8862">
        <ele>445.11</ele>
        <time>2015-01-10T08:23:23Z</time>
      </trkpt>
      <trkpt lat="42.03313" lon="0.88628">
        <ele>446.314</ele>
        <time>2015-01-10T08:23:32Z</time>
      </trkpt>
      <trkpt lat="42.0332" lon="0.88635">
        <ele>447.584</ele>
        <time>2015-01-10T08:23:41Z</time>
      </trkpt>
      <trkpt lat="42.03328" lon="0.88643">
        <ele>449.007</ele>
        <time>2015-01-10T08:23:51Z</time>
      </trkpt>
      <trkpt lat="42.03334" lon="0.8865">
        <ele>450.917</ele>
        <time>2015-01-10T08:24:01Z</time>
      </trkpt>
      <trkpt lat="42.03325" lon="0.88652">
        <ele>452.808</ele>
        <time>2015-01-10T08:24:12Z</time>
      </trkpt>
      <trkpt lat="42.03316" lon="0.88656">
        <ele>455.24</ele>
        <time>2015-01-10T08:24:22Z</time>
      </trkpt>
      <trkpt lat="42.03307" lon="0.88656">
        <ele>456.299</ele>
        <time>2015-01-10T08:24:32Z</time>
      </trkpt>
      <trkpt lat="42.03299" lon="0.88656">
        <ele>457.32</ele>
        <time>2015-01-10T08:24:41Z</time>
      </trkpt>
      <trkpt lat="42.0329" lon="0.88655">
        <ele>458.592</ele>
        <time>2015-01-10T08:24:50Z</time>
      </trkpt>
      <trkpt lat="42.0328" lon="0.88656">
        <ele>460.385</ele>
        <time>2015-01-10T08:25:00Z</time>
      </trkpt>
      <trkpt lat="42.03271" lon="0.88658">
        <ele>461.436</ele>
        <time>2015-01-10T08:25:11Z</time>
      </trkpt>
      <trkpt lat="42.03262" lon="0.88659">
        <ele>461.693</ele>
        <time>2015-01-10T08:25:21Z</time>
      </trkpt>
      <trkpt lat="42.03257" lon="0.88668">
        <ele>464.227</ele>
        <time>2015-01-10T08:25:32Z</time>
      </trkpt>
      <trkpt lat="42.03261" lon="0.88673">
        <ele>465.294</ele>
        <time>2015-01-10T08:25:45Z</time>
      </trkpt>
      <trkpt lat="42.03268" lon="0.8868">
        <ele>467.057</ele>
        <time>2015-01-10T08:25:55Z</time>
      </trkpt>
      <trkpt lat="42.03274" lon="0.88689">
        <ele>469.522</ele>
        <time>2015-01-10T08:26:03Z</time>
      </trkpt>
      <trkpt lat="42.03282" lon="0.88697">
        <ele>471.408</ele>
        <time>2015-01-10T08:26:13Z</time>
      </trkpt>
      <trkpt lat="42.03287" lon="0.88705">
        <ele>473.721</ele>
        <time>2015-01-10T08:26:24Z</time>
      </trkpt>
      <trkpt lat="42.03295" lon="0.88712">
        <ele>475.61</ele>
        <time>2015-01-10T08:26:36Z</time>
      </trkpt>
      <trkpt lat="42.03302" lon="0.8872">
        <ele>477.451</ele>
        <time>2015-01-10T08:26:47Z</time>
      </trkpt>
      <trkpt lat="42.0331" lon="0.88727">
        <ele>479.523</ele>
        <time>2015-01-10T08:26:57Z</time>
      </trkpt>
      <trkpt lat="42.03302" lon="0.88733">
        <ele>482.236</ele>
        <time>2015-01-10T08:27:08Z</time>
      </trkpt>
      <trkpt lat="42.03292" lon="0.88737">
        <ele>484.457</ele>
        <time>2015-01-10T08:27:19Z</time>
      </trkpt>
      <trkpt lat="42.03284" lon="0.88741">
        <ele>486.424</ele>
        <time>2015-01-10T08:27:29Z</time>
      </trkpt>
      <trkpt lat="42.03276" lon="0.88746">
        <ele>488.748</ele>
        <time>2015-01-10T08:27:39Z</time>
      </trkpt>
      <trkpt lat="42.03284" lon="0.88754">
        <ele>491.086</ele>
        <time>2015-01-10T08:27:50Z</time>
      </trkpt>
      <trkpt lat="42.03292" lon="0.8876">
        <ele>492.86</ele>
        <time>2015-01-10T08:28:02Z</time>
      </trkpt>
      <trkpt lat="42.033" lon="0.88767">
        <ele>494.926</ele>
        <time>2015-01-10T08:28:13Z</time>
      </trkpt>
      <trkpt lat="42.03308" lon="0.88774">
        <ele>497.408</ele>
        <time>2015-01-10T08:28:25Z</time>
      </trkpt>
      <trkpt lat="42.03302" lon="0.88779">
        <ele>499.67</ele>
        <time>2015-01-10T08:28:38Z</time>
      </trkpt>
      <trkpt lat="42.03293" lon="0.88782">
        <ele>501.269</ele>
        <time>2015-01-10T08:28:51Z</time>
      </trkpt>
      <trkpt lat="42.03284" lon="0.88787">
        <ele>503.28</ele>
        <time>2015-01-10T08:29:02Z</time>
      </trkpt>
      <trkpt lat="42.03276" lon="0.88793">
        <ele>505.412</ele>
        <time>2015-01-10T08:29:13Z</time>
      </trkpt>
      <trkpt lat="42.03267" lon="0.88796">
        <ele>505.555</ele>
        <time>2015-01-10T08:29:22Z</time>
      </trkpt>
      <trkpt lat="42.03259" lon="0.88802">
        <ele>506.626</ele>
        <time>2015-01-10T08:29:32Z</time>
      </trkpt>
      <trkpt lat="42.03264" lon="0.88809">
        <ele>509.823</ele>
        <time>2015-01-10T08:29:44Z</time>
      </trkpt>
      <trkpt lat="42.03271" lon="0.88816">
        <ele>513.357</ele>
        <time>2015-01-10T08:29:55Z</time>
      </trkpt>
      <trkpt lat="42.0328" lon="0.88817">
        <ele>514.435</ele>
        <time>2015-01-10T08:30:05Z</time>
      </trkpt>
      <trkpt lat="42.0329" lon="0.8882">
        <ele>515.786</ele>
        <time>2015-01-10T08:30:14Z</time>
      </trkpt>
      <trkpt lat="42.03298" lon="0.88825">
        <ele>517.914</ele>
        <time>2015-01-10T08:30:24Z</time>
      </trkpt>
      <trkpt lat="42.03306" lon="0.88832">
        <ele>520.308</ele>
        <time>2015-01-10T08:30:36Z</time>
      </trkpt>
      <trkpt lat="42.03305" lon="0.88841">
        <ele>524.155</ele>
        <time>2015-01-10T08:30:50Z</time>
      </trkpt>
      <trkpt lat="42.03297" lon="0.88847">
        <ele>526.774</ele>
        <time>2015-01-10T08:31:02Z</time>
      </trkpt>
      <trkpt lat="42.03288" lon="0.88853">
        <ele>529.055</ele>
        <time>2015-01-10T08:31:14Z</time>
      </trkpt>
      <trkpt lat="42.03279" lon="0.88857">
        <ele>530.437</ele>
        <time>2015-01-10T08:31:24Z</time>
      </trkpt>
      <trkpt lat="42.03272" lon="0.88862">
        <ele>531.75</ele>
        <time>2015-01-10T08:31:34Z</time>
      </trkpt>
      <trkpt lat="42.03264" lon="0.88869">
        <ele>533.591</ele>
        <time>2015-01-10T08:31:44Z</time>
      </trkpt>
      <trkpt lat="42.03255" lon="0.88875">
        <ele>534.838</ele>
        <time>2015-01-10T08:31:54Z</time>
      </trkpt>
      <trkpt lat="42.03251" lon="0.88882">
        <ele>537.492</ele>
        <time>2015-01-10T08:32:20Z</time>
      </trkpt>
      <trkpt lat="42.03245" lon="0.88892">
        <ele>540.565</ele>
        <time>2015-01-10T08:32:32Z</time>
      </trkpt>
      <trkpt lat="42.03238" lon="0.88899">
        <ele>542.668</ele>
        <time>2015-01-10T08:32:44Z</time>
      </trkpt>
      <trkpt lat="42.03234" lon="0.88908">
        <ele>545.914</ele>
        <time>2015-01-10T08:32:57Z</time>
      </trkpt>
      <trkpt lat="42.03227" lon="0.88917">
        <ele>548.808</ele>
        <time>2015-01-10T08:33:10Z</time>
      </trkpt>
      <trkpt lat="42.0322" lon="0.88925">
        <ele>551.488</ele>
        <time>2015-01-10T08:33:22Z</time>
      </trkpt>
      <trkpt lat="42.03215" lon="0.88935">
        <ele>554.347</ele>
        <time>2015-01-10T08:33:34Z</time>
      </trkpt>
      <trkpt lat="42.0321" lon="0.88946">
        <ele>557.368</ele>
        <time>2015-01-10T08:33:45Z</time>
      </trkpt>
      <trkpt lat="42.03204" lon="0.88954">
        <ele>558.55</ele>
        <time>2015-01-10T08:33:56Z</time>
      </trkpt>
      <trkpt lat="42.03201" lon="0.88964">
        <ele>561.613</ele>
        <time>2015-01-10T08:34:07Z</time>
      </trkpt>
      <trkpt lat="42.03197" lon="0.88976">
        <ele>564.124</ele>
        <time>2015-01-10T08:34:18Z</time>
      </trkpt>
      <trkpt lat="42.03194" lon="0.88987">
        <ele>566.681</ele>
        <time>2015-01-10T08:34:29Z</time>
      </trkpt>
      <trkpt lat="42.0319" lon="0.88999">
        <ele>568.385</ele>
        <time>2015-01-10T08:34:41Z</time>
      </trkpt>
      <trkpt lat="42.03186" lon="0.89011">
        <ele>570.773</ele>
        <time>2015-01-10T08:34:51Z</time>
      </trkpt>
      <trkpt lat="42.03182" lon="0.8902">
        <ele>571.685</ele>
        <time>2015-01-10T08:35:01Z</time>
      </trkpt>
      <trkpt lat="42.03178" lon="0.89031">
        <ele>573.713</ele>
        <time>2015-01-10T08:35:11Z</time>
      </trkpt>
      <trkpt lat="42.03173" lon="0.89041">
        <ele>574.308</ele>
        <time>2015-01-10T08:35:21Z</time>
      </trkpt>
      <trkpt lat="42.03173" lon="0.89043">
        <ele>574.979</ele>
        <time>2015-01-10T08:36:41Z</time>
      </trkpt>
      <trkpt lat="42.03168" lon="0.89053">
        <ele>575.978</ele>
        <time>2015-01-10T08:36:52Z</time>
      </trkpt>
      <trkpt lat="42.03163" lon="0.89063">
        <ele>575.849</ele>
        <time>2015-01-10T08:37:00Z</time>
      </trkpt>
      <trkpt lat="42.03158" lon="0.89074">
        <ele>576.561</ele>
        <time>2015-01-10T08:37:07Z</time>
      </trkpt>
      <trkpt lat="42.03156" lon="0.89085">
        <ele>578.654</ele>
        <time>2015-01-10T08:37:15Z</time>
      </trkpt>
      <trkpt lat="42.03154" lon="0.89097">
        <ele>580.735</ele>
        <time>2015-01-10T08:37:23Z</time>
      </trkpt>
      <trkpt lat="42.03149" lon="0.89108">
        <ele>581.112</ele>
        <time>2015-01-10T08:37:31Z</time>
      </trkpt>
      <trkpt lat="42.03144" lon="0.89117">
        <ele>582.336</ele>
        <time>2015-01-10T08:37:41Z</time>
      </trkpt>
      <trkpt lat="42.03136" lon="0.89122">
        <ele>581.322</ele>
        <time>2015-01-10T08:37:52Z</time>
      </trkpt>
      <trkpt lat="42.03128" lon="0.8913">
        <ele>583.262</ele>
        <time>2015-01-10T08:38:03Z</time>
      </trkpt>
      <trkpt lat="42.03121" lon="0.89139">
        <ele>585.008</ele>
        <time>2015-01-10T08:38:13Z</time>
      </trkpt>
      <trkpt lat="42.03116" lon="0.89149">
        <ele>587.308</ele>
        <time>2015-01-10T08:38:23Z</time>
      </trkpt>
      <trkpt lat="42.0311" lon="0.8916">
        <ele>589.574</ele>
        <time>2015-01-10T08:38:32Z</time>
      </trkpt>
      <trkpt lat="42.03104" lon="0.89171">
        <ele>591.513</ele>
        <time>2015-01-10T08:38:41Z</time>
      </trkpt>
      <trkpt lat="42.03097" lon="0.8918">
        <ele>593.054</ele>
        <time>2015-01-10T08:38:50Z</time>
      </trkpt>
      <trkpt lat="42.03088" lon="0.89187">
        <ele>593.626</ele>
        <time>2015-01-10T08:38:59Z</time>
      </trkpt>
      <trkpt lat="42.0308" lon="0.89191">
        <ele>593.979</ele>
        <time>2015-01-10T08:39:08Z</time>
      </trkpt>
      <trkpt lat="42.03071" lon="0.89198">
        <ele>595.42</ele>
        <time>2015-01-10T08:39:18Z</time>
      </trkpt>
      <trkpt lat="42.03064" lon="0.89205">
        <ele>596.787</ele>
        <time>2015-01-10T08:39:28Z</time>
      </trkpt>
      <trkpt lat="42.03057" lon="0.89213">
        <ele>598.611</ele>
        <time>2015-01-10T08:39:38Z</time>
      </trkpt>
      <trkpt lat="42.03051" lon="0.89223">
        <ele>602.139</ele>
        <time>2015-01-10T08:39:48Z</time>
      </trkpt>
      <trkpt lat="42.03044" lon="0.89232">
        <ele>605.701</ele>
        <time>2015-01-10T08:40:01Z</time>
      </trkpt>
      <trkpt lat="42.03036" lon="0.89238">
        <ele>607.621</ele>
        <time>2015-01-10T08:40:13Z</time>
      </trkpt>
      <trkpt lat="42.03036" lon="0.89246">
        <ele>610.908</ele>
        <time>2015-01-10T08:40:25Z</time>
      </trkpt>
      <trkpt lat="42.03037" lon="0.89251">
        <ele>613.485</ele>
        <time>2015-01-10T08:40:37Z</time>
      </trkpt>
      <trkpt lat="42.0304" lon="0.89261">
        <ele>617.954</ele>
        <time>2015-01-10T08:40:52Z</time>
      </trkpt>
      <trkpt lat="42.03041" lon="0.89272">
        <ele>622.895</ele>
        <time>2015-01-10T08:41:09Z</time>
      </trkpt>
      <trkpt lat="42.03046" lon="0.89282">
        <ele>626.937</ele>
        <time>2015-01-10T08:41:24Z</time>
      </trkpt>
      <trkpt lat="42.03053" lon="0.89286">
        <ele>629.92</ele>
        <time>2015-01-10T08:41:39Z</time>
      </trkpt>
      <trkpt lat="42.03059" lon="0.89291">
        <ele>633.051</ele>
        <time>2015-01-10T08:41:52Z</time>
      </trkpt>
      <trkpt lat="42.03061" lon="0.89301">
        <ele>635.538</ele>
        <time>2015-01-10T08:42:05Z</time>
      </trkpt>
      <trkpt lat="42.03069" lon="0.89309">
        <ele>639.742</ele>
        <time>2015-01-10T08:42:22Z</time>
      </trkpt>
      <trkpt lat="42.03077" lon="0.89316">
        <ele>643.278</ele>
        <time>2015-01-10T08:42:37Z</time>
      </trkpt>
      <trkpt lat="42.03082" lon="0.89323">
        <ele>645.733</ele>
        <time>2015-01-10T08:42:50Z</time>
      </trkpt>
      <trkpt lat="42.03086" lon="0.89333">
        <ele>648.126</ele>
        <time>2015-01-10T08:43:03Z</time>
      </trkpt>
      <trkpt lat="42.03094" lon="0.89341">
        <ele>651.408</ele>
        <time>2015-01-10T08:43:18Z</time>
      </trkpt>
      <trkpt lat="42.03102" lon="0.89339">
        <ele>654.269</ele>
        <time>2015-01-10T08:44:17Z</time>
      </trkpt>
      <trkpt lat="42.03102" lon="0.89346">
        <ele>654.548</ele>
        <time>2015-01-10T08:46:42Z</time>
      </trkpt>
      <trkpt lat="42.03102" lon="0.89359">
        <ele>655.739</ele>
        <time>2015-01-10T08:46:52Z</time>
      </trkpt>
      <trkpt lat="42.03104" lon="0.89372">
        <ele>657.551</ele>
        <time>2015-01-10T08:47:01Z</time>
      </trkpt>
      <trkpt lat="42.03104" lon="0.89383">
        <ele>659.084</ele>
        <time>2015-01-10T08:47:10Z</time>
      </trkpt>
      <trkpt lat="42.03104" lon="0.89396">
        <ele>660.965</ele>
        <time>2015-01-10T08:47:40Z</time>
      </trkpt>
      <trkpt lat="42.03103" lon="0.89408">
        <ele>662.352</ele>
        <time>2015-01-10T08:47:49Z</time>
      </trkpt>
      <trkpt lat="42.03104" lon="0.89419">
        <ele>664.426</ele>
        <time>2015-01-10T08:49:16Z</time>
      </trkpt>
      <trkpt lat="42.031" lon="0.89428">
        <ele>665.048</ele>
        <time>2015-01-10T08:49:27Z</time>
      </trkpt>
      <trkpt lat="42.03097" lon="0.89436">
        <ele>665.661</ele>
        <time>2015-01-10T08:49:48Z</time>
      </trkpt>
      <trkpt lat="42.03092" lon="0.89438">
        <ele>665.017</ele>
        <time>2015-01-10T08:50:52Z</time>
      </trkpt>
      <trkpt lat="42.03083" lon="0.89443">
        <ele>663.508</ele>
        <time>2015-01-10T08:50:59Z</time>
      </trkpt>
      <trkpt lat="42.03075" lon="0.89449">
        <ele>663.666</ele>
        <time>2015-01-10T08:51:07Z</time>
      </trkpt>
      <trkpt lat="42.03071" lon="0.89461">
        <ele>666.295</ele>
        <time>2015-01-10T08:51:19Z</time>
      </trkpt>
      <trkpt lat="42.03063" lon="0.89467">
        <ele>666.326</ele>
        <time>2015-01-10T08:51:27Z</time>
      </trkpt>
      <trkpt lat="42.03057" lon="0.89477">
        <ele>667.698</ele>
        <time>2015-01-10T08:51:37Z</time>
      </trkpt>
      <trkpt lat="42.0305" lon="0.89486">
        <ele>669.121</ele>
        <time>2015-01-10T08:51:45Z</time>
      </trkpt>
      <trkpt lat="42.03043" lon="0.89494">
        <ele>670.662</ele>
        <time>2015-01-10T08:51:53Z</time>
      </trkpt>
      <trkpt lat="42.03035" lon="0.89503">
        <ele>671.839</ele>
        <time>2015-01-10T08:52:01Z</time>
      </trkpt>
      <trkpt lat="42.03028" lon="0.8951">
        <ele>673.033</ele>
        <time>2015-01-10T08:52:10Z</time>
      </trkpt>
      <trkpt lat="42.03021" lon="0.89519">
        <ele>674.615</ele>
        <time>2015-01-10T08:52:19Z</time>
      </trkpt>
      <trkpt lat="42.03017" lon="0.8953">
        <ele>676.965</ele>
        <time>2015-01-10T08:52:29Z</time>
      </trkpt>
      <trkpt lat="42.03012" lon="0.89542">
        <ele>679.311</ele>
        <time>2015-01-10T08:52:45Z</time>
      </trkpt>
      <trkpt lat="42.03008" lon="0.89553">
        <ele>681.608</ele>
        <time>2015-01-10T08:53:02Z</time>
      </trkpt>
      <trkpt lat="42.03006" lon="0.89565">
        <ele>684.283</ele>
        <time>2015-01-10T08:53:12Z</time>
      </trkpt>
      <trkpt lat="42.03009" lon="0.89574">
        <ele>687.112</ele>
        <time>2015-01-10T08:53:25Z</time>
      </trkpt>
      <trkpt lat="42.03017" lon="0.89581">
        <ele>689.933</ele>
        <time>2015-01-10T08:53:39Z</time>
      </trkpt>
      <trkpt lat="42.03022" lon="0.89587">
        <ele>692.145</ele>
        <time>2015-01-10T08:53:52Z</time>
      </trkpt>
      <trkpt lat="42.03019" lon="0.89596">
        <ele>694.128</ele>
        <time>2015-01-10T08:54:01Z</time>
      </trkpt>
      <trkpt lat="42.03022" lon="0.89607">
        <ele>697.429</ele>
        <time>2015-01-10T08:54:13Z</time>
      </trkpt>
      <trkpt lat="42.03025" lon="0.89619">
        <ele>700.966</ele>
        <time>2015-01-10T08:54:27Z</time>
      </trkpt>
      <trkpt lat="42.03027" lon="0.89631">
        <ele>704.53</ele>
        <time>2015-01-10T08:54:40Z</time>
      </trkpt>
      <trkpt lat="42.03027" lon="0.89642">
        <ele>707.978</ele>
        <time>2015-01-10T08:54:53Z</time>
      </trkpt>
      <trkpt lat="42.03029" lon="0.89653">
        <ele>711.333</ele>
        <time>2015-01-10T08:55:06Z</time>
      </trkpt>
      <trkpt lat="42.03021" lon="0.89661">
        <ele>712.226</ele>
        <time>2015-01-10T08:55:19Z</time>
      </trkpt>
      <trkpt lat="42.03017" lon="0.89673">
        <ele>714.608</ele>
        <time>2015-01-10T08:55:56Z</time>
      </trkpt>
      <trkpt lat="42.03015" lon="0.89682">
        <ele>716.789</ele>
        <time>2015-01-10T08:57:03Z</time>
      </trkpt>
      <trkpt lat="42.03014" lon="0.89688">
        <ele>718.358</ele>
        <time>2015-01-10T08:57:34Z</time>
      </trkpt>
      <trkpt lat="42.03014" lon="0.89699">
        <ele>721.349</ele>
        <time>2015-01-10T08:57:58Z</time>
      </trkpt>
      <trkpt lat="42.0301" lon="0.89707">
        <ele>722.381</ele>
        <time>2015-01-10T08:58:30Z</time>
      </trkpt>
      <trkpt lat="42.03009" lon="0.89705">
        <ele>721.854</ele>
        <time>2015-01-10T09:00:04Z</time>
      </trkpt>
      <trkpt lat="42.02994" lon="0.89713">
        <ele>720.765</ele>
        <time>2015-01-10T14:26:55Z</time>
      </trkpt>
      <trkpt lat="42.02984" lon="0.89716">
        <ele>720.312</ele>
        <time>2015-01-10T14:26:48Z</time>
      </trkpt>
      <trkpt lat="42.02974" lon="0.89723">
        <ele>720.446</ele>
        <time>2015-01-10T14:26:41Z</time>
      </trkpt>
      <trkpt lat="42.02966" lon="0.89732">
        <ele>722.772</ele>
        <time>2015-01-10T14:26:35Z</time>
      </trkpt>
      <trkpt lat="42.02958" lon="0.89741">
        <ele>724.713</ele>
        <time>2015-01-10T14:26:31Z</time>
      </trkpt>
      <trkpt lat="42.02949" lon="0.89749">
        <ele>727.014</ele>
        <time>2015-01-10T14:26:26Z</time>
      </trkpt>
      <trkpt lat="42.02938" lon="0.89753">
        <ele>728.008</ele>
        <time>2015-01-10T14:26:22Z</time>
      </trkpt>
      <trkpt lat="42.02926" lon="0.89759">
        <ele>729.679</ele>
        <time>2015-01-10T14:26:17Z</time>
      </trkpt>
      <trkpt lat="42.02916" lon="0.89764">
        <ele>730.868</ele>
        <time>2015-01-10T14:26:11Z</time>
      </trkpt>
      <trkpt lat="42.02909" lon="0.89772">
        <ele>731.029</ele>
        <time>2015-01-10T14:26:02Z</time>
      </trkpt>
      <trkpt lat="42.029" lon="0.89779">
        <ele>730.091</ele>
        <time>2015-01-10T14:25:54Z</time>
      </trkpt>
      <trkpt lat="42.02889" lon="0.89783">
        <ele>727.614</ele>
        <time>2015-01-10T14:25:46Z</time>
      </trkpt>
      <trkpt lat="42.02883" lon="0.89793">
        <ele>731.485</ele>
        <time>2015-01-10T14:25:38Z</time>
      </trkpt>
      <trkpt lat="42.02872" lon="0.89791">
        <ele>732.442</ele>
        <time>2015-01-10T14:25:30Z</time>
      </trkpt>
      <trkpt lat="42.02865" lon="0.89794">
        <ele>734.426</ele>
        <time>2015-01-10T14:25:23Z</time>
      </trkpt>
      <trkpt lat="42.02855" lon="0.89791">
        <ele>735.785</ele>
        <time>2015-01-10T14:25:16Z</time>
      </trkpt>
      <trkpt lat="42.02846" lon="0.89784">
        <ele>737.189</ele>
        <time>2015-01-10T14:25:09Z</time>
      </trkpt>
      <trkpt lat="42.02836" lon="0.89777">
        <ele>738.217</ele>
        <time>2015-01-10T14:25:02Z</time>
      </trkpt>
      <trkpt lat="42.02827" lon="0.89769">
        <ele>739.108</ele>
        <time>2015-01-10T14:24:55Z</time>
      </trkpt>
      <trkpt lat="42.02818" lon="0.89763">
        <ele>741.13</ele>
        <time>2015-01-10T14:24:48Z</time>
      </trkpt>
      <trkpt lat="42.02809" lon="0.89758">
        <ele>743.349</ele>
        <time>2015-01-10T14:24:41Z</time>
      </trkpt>
      <trkpt lat="42.02799" lon="0.89761">
        <ele>747.73</ele>
        <time>2015-01-10T14:24:34Z</time>
      </trkpt>
      <trkpt lat="42.02789" lon="0.89764">
        <ele>751.842</ele>
        <time>2015-01-10T14:24:28Z</time>
      </trkpt>
      <trkpt lat="42.02782" lon="0.8977">
        <ele>755.625</ele>
        <time>2015-01-10T14:24:22Z</time>
      </trkpt>
      <trkpt lat="42.02774" lon="0.89777">
        <ele>759.216</ele>
        <time>2015-01-10T14:24:16Z</time>
      </trkpt>
      <trkpt lat="42.02764" lon="0.89784">
        <ele>763.993</ele>
        <time>2015-01-10T14:24:09Z</time>
      </trkpt>
      <trkpt lat="42.02755" lon="0.89785">
        <ele>767.267</ele>
        <time>2015-01-10T14:24:01Z</time>
      </trkpt>
      <trkpt lat="42.02745" lon="0.89786">
        <ele>770.771</ele>
        <time>2015-01-10T14:23:55Z</time>
      </trkpt>
      <trkpt lat="42.02738" lon="0.89792">
        <ele>775.141</ele>
        <time>2015-01-10T14:23:48Z</time>
      </trkpt>
      <trkpt lat="42.0273" lon="0.89795">
        <ele>779.115</ele>
        <time>2015-01-10T14:23:39Z</time>
      </trkpt>
      <trkpt lat="42.0272" lon="0.89796">
        <ele>783.108</ele>
        <time>2015-01-10T14:23:30Z</time>
      </trkpt>
      <trkpt lat="42.02709" lon="0.898">
        <ele>788.759</ele>
        <time>2015-01-10T14:23:22Z</time>
      </trkpt>
      <trkpt lat="42.027" lon="0.89804">
        <ele>793.468</ele>
        <time>2015-01-10T14:23:12Z</time>
      </trkpt>
      <trkpt lat="42.02694" lon="0.89809">
        <ele>797.239</ele>
        <time>2015-01-10T14:23:04Z</time>
      </trkpt>
      <trkpt lat="42.02686" lon="0.89815">
        <ele>801.711</ele>
        <time>2015-01-10T14:22:57Z</time>
      </trkpt>
      <trkpt lat="42.02676" lon="0.89813">
        <ele>805.394</ele>
        <time>2015-01-10T14:22:49Z</time>
      </trkpt>
      <trkpt lat="42.02665" lon="0.89816">
        <ele>810.075</ele>
        <time>2015-01-10T14:22:41Z</time>
      </trkpt>
      <trkpt lat="42.02655" lon="0.89816">
        <ele>813.672</ele>
        <time>2015-01-10T14:22:32Z</time>
      </trkpt>
      <trkpt lat="42.02648" lon="0.89813">
        <ele>815.186</ele>
        <time>2015-01-10T14:21:29Z</time>
      </trkpt>
      <trkpt lat="42.02639" lon="0.89813">
        <ele>818.157</ele>
        <time>2015-01-10T14:21:22Z</time>
      </trkpt>
      <trkpt lat="42.02629" lon="0.89817">
        <ele>821.9</ele>
        <time>2015-01-10T14:21:14Z</time>
      </trkpt>
      <trkpt lat="42.0262" lon="0.89819">
        <ele>825.02</ele>
        <time>2015-01-10T14:21:07Z</time>
      </trkpt>
      <trkpt lat="42.0261" lon="0.89822">
        <ele>828.208</ele>
        <time>2015-01-10T14:20:57Z</time>
      </trkpt>
      <trkpt lat="42.02602" lon="0.89822">
        <ele>828.037</ele>
        <time>2015-01-10T14:20:28Z</time>
      </trkpt>
      <trkpt lat="42.02599" lon="0.89822">
        <ele>828.236</ele>
        <time>2015-01-10T14:19:28Z</time>
      </trkpt>
      <trkpt lat="42.02595" lon="0.89827">
        <ele>829.137</ele>
        <time>2015-01-10T14:18:16Z</time>
      </trkpt>
      <trkpt lat="42.02589" lon="0.89838">
        <ele>831.589</ele>
        <time>2015-01-10T14:18:09Z</time>
      </trkpt>
      <trkpt lat="42.02586" lon="0.89851">
        <ele>834.722</ele>
        <time>2015-01-10T14:18:02Z</time>
      </trkpt>
      <trkpt lat="42.02582" lon="0.89863">
        <ele>837.253</ele>
        <time>2015-01-10T14:17:54Z</time>
      </trkpt>
      <trkpt lat="42.02579" lon="0.89872">
        <ele>839.32</ele>
        <time>2015-01-10T14:17:45Z</time>
      </trkpt>
      <trkpt lat="42.02572" lon="0.89884">
        <ele>840.374</ele>
        <time>2015-01-10T14:17:41Z</time>
      </trkpt>
      <trkpt lat="42.02567" lon="0.89894">
        <ele>842.024</ele>
        <time>2015-01-10T14:17:38Z</time>
      </trkpt>
      <trkpt lat="42.02561" lon="0.89905">
        <ele>843.104</ele>
        <time>2015-01-10T14:17:35Z</time>
      </trkpt>
      <trkpt lat="42.02552" lon="0.89916">
        <ele>843.514</ele>
        <time>2015-01-10T14:17:31Z</time>
      </trkpt>
      <trkpt lat="42.02544" lon="0.89927">
        <ele>845.708</ele>
        <time>2015-01-10T14:17:27Z</time>
      </trkpt>
      <trkpt lat="42.02538" lon="0.89938">
        <ele>847.974</ele>
        <time>2015-01-10T14:17:24Z</time>
      </trkpt>
      <trkpt lat="42.02532" lon="0.89949">
        <ele>850.253</ele>
        <time>2015-01-10T14:17:20Z</time>
      </trkpt>
      <trkpt lat="42.02525" lon="0.89959">
        <ele>851.574</ele>
        <time>2015-01-10T14:17:16Z</time>
      </trkpt>
      <trkpt lat="42.02517" lon="0.89969">
        <ele>853.236</ele>
        <time>2015-01-10T14:17:12Z</time>
      </trkpt>
      <trkpt lat="42.02511" lon="0.8998">
        <ele>855.579</ele>
        <time>2015-01-10T14:17:08Z</time>
      </trkpt>
      <trkpt lat="42.02503" lon="0.89992">
        <ele>857.79</ele>
        <time>2015-01-10T14:17:04Z</time>
      </trkpt>
      <trkpt lat="42.02497" lon="0.90004">
        <ele>860.847</ele>
        <time>2015-01-10T14:17:00Z</time>
      </trkpt>
      <trkpt lat="42.02489" lon="0.90015">
        <ele>863.751</ele>
        <time>2015-01-10T14:16:56Z</time>
      </trkpt>
      <trkpt lat="42.02481" lon="0.90026">
        <ele>866.091</ele>
        <time>2015-01-10T14:16:52Z</time>
      </trkpt>
      <trkpt lat="42.02474" lon="0.90035">
        <ele>867.381</ele>
        <time>2015-01-10T14:16:48Z</time>
      </trkpt>
      <trkpt lat="42.02467" lon="0.90044">
        <ele>869.719</ele>
        <time>2015-01-10T14:16:44Z</time>
      </trkpt>
      <trkpt lat="42.02461" lon="0.90055">
        <ele>872.708</ele>
        <time>2015-01-10T14:16:40Z</time>
      </trkpt>
      <trkpt lat="42.02453" lon="0.90065">
        <ele>874.661</ele>
        <time>2015-01-10T14:16:35Z</time>
      </trkpt>
      <trkpt lat="42.0245" lon="0.90078">
        <ele>877.73</ele>
        <time>2015-01-10T14:16:27Z</time>
      </trkpt>
      <trkpt lat="42.02446" lon="0.9009">
        <ele>880.261</ele>
        <time>2015-01-10T14:16:17Z</time>
      </trkpt>
      <trkpt lat="42.02442" lon="0.90103">
        <ele>882.033</ele>
        <time>2015-01-10T14:16:08Z</time>
      </trkpt>
      <trkpt lat="42.02449" lon="0.90111">
        <ele>886.226</ele>
        <time>2015-01-10T14:16:03Z</time>
      </trkpt>
      <trkpt lat="42.02448" lon="0.90126">
        <ele>889.947</ele>
        <time>2015-01-10T14:15:56Z</time>
      </trkpt>
      <trkpt lat="42.02445" lon="0.9014">
        <ele>892.514</ele>
        <time>2015-01-10T14:15:51Z</time>
      </trkpt>
      <trkpt lat="42.02443" lon="0.90153">
        <ele>895.158</ele>
        <time>2015-01-10T14:15:41Z</time>
      </trkpt>
      <trkpt lat="42.02441" lon="0.90165">
        <ele>897.572</ele>
        <time>2015-01-10T14:15:32Z</time>
      </trkpt>
      <trkpt lat="42.02435" lon="0.90175">
        <ele>898.613</ele>
        <time>2015-01-10T14:15:24Z</time>
      </trkpt>
      <trkpt lat="42.02429" lon="0.90184">
        <ele>900.014</ele>
        <time>2015-01-10T14:15:16Z</time>
      </trkpt>
      <trkpt lat="42.02423" lon="0.90194">
        <ele>902.208</ele>
        <time>2015-01-10T14:15:06Z</time>
      </trkpt>
      <trkpt lat="42.02427" lon="0.90201">
        <ele>905.239</ele>
        <time>2015-01-10T14:14:57Z</time>
      </trkpt>
      <trkpt lat="42.02432" lon="0.90204">
        <ele>907.178</ele>
        <time>2015-01-10T14:14:50Z</time>
      </trkpt>
      <trkpt lat="42.02432" lon="0.9022">
        <ele>911.919</ele>
        <time>2015-01-10T14:14:43Z</time>
      </trkpt>
      <trkpt lat="42.02431" lon="0.90234">
        <ele>915.741</ele>
        <time>2015-01-10T14:14:36Z</time>
      </trkpt>
      <trkpt lat="42.02433" lon="0.90245">
        <ele>918.964</ele>
        <time>2015-01-10T14:14:29Z</time>
      </trkpt>
      <trkpt lat="42.02438" lon="0.90253">
        <ele>922.015</ele>
        <time>2015-01-10T14:14:24Z</time>
      </trkpt>
      <trkpt lat="42.02431" lon="0.90262">
        <ele>923.122</ele>
        <time>2015-01-10T14:14:20Z</time>
      </trkpt>
      <trkpt lat="42.02427" lon="0.90274">
        <ele>925.776</ele>
        <time>2015-01-10T14:14:16Z</time>
      </trkpt>
      <trkpt lat="42.02422" lon="0.90287">
        <ele>928.067</ele>
        <time>2015-01-10T14:14:12Z</time>
      </trkpt>
      <trkpt lat="42.02418" lon="0.90301">
        <ele>931.081</ele>
        <time>2015-01-10T14:14:07Z</time>
      </trkpt>
      <trkpt lat="42.0241" lon="0.9031">
        <ele>932.519</ele>
        <time>2015-01-10T14:14:03Z</time>
      </trkpt>
      <trkpt lat="42.02402" lon="0.90323">
        <ele>934.808</ele>
        <time>2015-01-10T14:13:58Z</time>
      </trkpt>
      <trkpt lat="42.02397" lon="0.90336">
        <ele>937.568</ele>
        <time>2015-01-10T14:13:54Z</time>
      </trkpt>
      <trkpt lat="42.0239" lon="0.90347">
        <ele>939.197</ele>
        <time>2015-01-10T14:13:50Z</time>
      </trkpt>
      <trkpt lat="42.02384" lon="0.90359">
        <ele>940.648</ele>
        <time>2015-01-10T14:13:46Z</time>
      </trkpt>
      <trkpt lat="42.02383" lon="0.90375">
        <ele>944.39</ele>
        <time>2015-01-10T14:13:39Z</time>
      </trkpt>
      <trkpt lat="42.02384" lon="0.90388">
        <ele>948.093</ele>
        <time>2015-01-10T14:13:30Z</time>
      </trkpt>
      <trkpt lat="42.02382" lon="0.90401">
        <ele>950.444</ele>
        <time>2015-01-10T14:13:22Z</time>
      </trkpt>
      <trkpt lat="42.0238" lon="0.90413">
        <ele>953.021</ele>
        <time>2015-01-10T14:13:13Z</time>
      </trkpt>
      <trkpt lat="42.02379" lon="0.90427">
        <ele>955.725</ele>
        <time>2015-01-10T14:13:00Z</time>
      </trkpt>
      <trkpt lat="42.02373" lon="0.90437">
        <ele>957.169</ele>
        <time>2015-01-10T14:12:49Z</time>
      </trkpt>
      <trkpt lat="42.02366" lon="0.90448">
        <ele>958.704</ele>
        <time>2015-01-10T14:12:41Z</time>
      </trkpt>
      <trkpt lat="42.02363" lon="0.90461">
        <ele>961.324</ele>
        <time>2015-01-10T14:12:37Z</time>
      </trkpt>
      <trkpt lat="42.02358" lon="0.90474">
        <ele>963.708</ele>
        <time>2015-01-10T14:12:33Z</time>
      </trkpt>
      <trkpt lat="42.02353" lon="0.90486">
        <ele>965.148</ele>
        <time>2015-01-10T14:12:30Z</time>
      </trkpt>
      <trkpt lat="42.02347" lon="0.90501">
        <ele>967.037</ele>
        <time>2015-01-10T14:12:26Z</time>
      </trkpt>
      <trkpt lat="42.02343" lon="0.90512">
        <ele>968.818</ele>
        <time>2015-01-10T14:12:23Z</time>
      </trkpt>
      <trkpt lat="42.02339" lon="0.90524">
        <ele>970.55</ele>
        <time>2015-01-10T14:12:20Z</time>
      </trkpt>
      <trkpt lat="42.02335" lon="0.90535">
        <ele>972.633</ele>
        <time>2015-01-10T14:12:17Z</time>
      </trkpt>
      <trkpt lat="42.0233" lon="0.90549">
        <ele>975.414</ele>
        <time>2015-01-10T14:12:13Z</time>
      </trkpt>
      <trkpt lat="42.02325" lon="0.90564">
        <ele>978.461</ele>
        <time>2015-01-10T14:12:09Z</time>
      </trkpt>
      <trkpt lat="42.0232" lon="0.90577">
        <ele>981.385</ele>
        <time>2015-01-10T14:12:05Z</time>
      </trkpt>
      <trkpt lat="42.02317" lon="0.90594">
        <ele>985.123</ele>
        <time>2015-01-10T14:12:01Z</time>
      </trkpt>
      <trkpt lat="42.02313" lon="0.90607">
        <ele>987.983</ele>
        <time>2015-01-10T14:11:57Z</time>
      </trkpt>
      <trkpt lat="42.02309" lon="0.9062">
        <ele>990.511</ele>
        <time>2015-01-10T14:11:53Z</time>
      </trkpt>
      <trkpt lat="42.02306" lon="0.90631">
        <ele>993.508</ele>
        <time>2015-01-10T14:11:49Z</time>
      </trkpt>
      <trkpt lat="42.02299" lon="0.90639">
        <ele>996.044</ele>
        <time>2015-01-10T14:11:45Z</time>
      </trkpt>
      <trkpt lat="42.02287" lon="0.90643">
        <ele>997.193</ele>
        <time>2015-01-10T14:11:40Z</time>
      </trkpt>
      <trkpt lat="42.02274" lon="0.90645">
        <ele>998.024</ele>
        <time>2015-01-10T14:11:35Z</time>
      </trkpt>
      <trkpt lat="42.0227" lon="0.90656">
        <ele>1001.076</ele>
        <time>2015-01-10T14:11:30Z</time>
      </trkpt>
      <trkpt lat="42.02265" lon="0.9067">
        <ele>1004.019</ele>
        <time>2015-01-10T14:11:25Z</time>
      </trkpt>
      <trkpt lat="42.02261" lon="0.9068">
        <ele>1005.92</ele>
        <time>2015-01-10T14:11:21Z</time>
      </trkpt>
      <trkpt lat="42.02255" lon="0.90691">
        <ele>1007.687</ele>
        <time>2015-01-10T14:11:17Z</time>
      </trkpt>
      <trkpt lat="42.02249" lon="0.90703">
        <ele>1009.851</ele>
        <time>2015-01-10T14:11:11Z</time>
      </trkpt>
      <trkpt lat="42.02244" lon="0.90713">
        <ele>1012.331</ele>
        <time>2015-01-10T14:11:06Z</time>
      </trkpt>
      <trkpt lat="42.02235" lon="0.90717">
        <ele>1013.661</ele>
        <time>2015-01-10T14:11:02Z</time>
      </trkpt>
      <trkpt lat="42.02224" lon="0.90721">
        <ele>1014.807</ele>
        <time>2015-01-10T14:10:52Z</time>
      </trkpt>
      <trkpt lat="42.02215" lon="0.90727">
        <ele>1016.908</ele>
        <time>2015-01-10T14:10:45Z</time>
      </trkpt>
      <trkpt lat="42.02205" lon="0.90734">
        <ele>1019.275</ele>
        <time>2015-01-10T14:10:38Z</time>
      </trkpt>
      <trkpt lat="42.02194" lon="0.90741">
        <ele>1021.574</ele>
        <time>2015-01-10T14:10:30Z</time>
      </trkpt>
      <trkpt lat="42.02184" lon="0.9074">
        <ele>1024.195</ele>
        <time>2015-01-10T14:10:21Z</time>
      </trkpt>
      <trkpt lat="42.02176" lon="0.90738">
        <ele>1026.257</ele>
        <time>2015-01-10T14:10:14Z</time>
      </trkpt>
      <trkpt lat="42.02171" lon="0.90747">
        <ele>1028.67</ele>
        <time>2015-01-10T14:10:04Z</time>
      </trkpt>
      <trkpt lat="42.02166" lon="0.90735">
        <ele>1028.741</ele>
        <time>2015-01-10T14:09:55Z</time>
      </trkpt>
      <trkpt lat="42.0216" lon="0.90726">
        <ele>1030.118</ele>
        <time>2015-01-10T14:09:48Z</time>
      </trkpt>
      <trkpt lat="42.02153" lon="0.9073">
        <ele>1032.972</ele>
        <time>2015-01-10T14:09:40Z</time>
      </trkpt>
      <trkpt lat="42.02149" lon="0.90739">
        <ele>1034.913</ele>
        <time>2015-01-10T14:09:30Z</time>
      </trkpt>
      <trkpt lat="42.02143" lon="0.90734">
        <ele>1036.943</ele>
        <time>2015-01-10T14:09:21Z</time>
      </trkpt>
      <trkpt lat="42.02135" lon="0.9073">
        <ele>1039.807</ele>
        <time>2015-01-10T14:09:13Z</time>
      </trkpt>
      <trkpt lat="42.02131" lon="0.90741">
        <ele>1041.608</ele>
        <time>2015-01-10T14:09:05Z</time>
      </trkpt>
      <trkpt lat="42.02124" lon="0.90752">
        <ele>1044.863</ele>
        <time>2015-01-10T14:08:57Z</time>
      </trkpt>
      <trkpt lat="42.02116" lon="0.90762">
        <ele>1048.132</ele>
        <time>2015-01-10T14:08:48Z</time>
      </trkpt>
      <trkpt lat="42.02107" lon="0.9077">
        <ele>1051.433</ele>
        <time>2015-01-10T14:08:40Z</time>
      </trkpt>
      <trkpt lat="42.02099" lon="0.9078">
        <ele>1054.595</ele>
        <time>2015-01-10T14:08:29Z</time>
      </trkpt>
      <trkpt lat="42.02094" lon="0.90791">
        <ele>1057.058</ele>
        <time>2015-01-10T14:08:20Z</time>
      </trkpt>
      <trkpt lat="42.02087" lon="0.908">
        <ele>1060.339</ele>
        <time>2015-01-10T14:08:10Z</time>
      </trkpt>
      <trkpt lat="42.02078" lon="0.90795">
        <ele>1062.166</ele>
        <time>2015-01-10T14:08:01Z</time>
      </trkpt>
      <trkpt lat="42.02071" lon="0.908">
        <ele>1064.03</ele>
        <time>2015-01-10T14:07:51Z</time>
      </trkpt>
      <trkpt lat="42.02074" lon="0.90811">
        <ele>1064.327</ele>
        <time>2015-01-10T14:07:43Z</time>
      </trkpt>
      <trkpt lat="42.02073" lon="0.90806">
        <ele>1064.368</ele>
        <time>2015-01-10T14:07:30Z</time>
      </trkpt>
      <trkpt lat="42.02066" lon="0.90804">
        <ele>1065.514</ele>
        <time>2015-01-10T14:07:17Z</time>
      </trkpt>
      <trkpt lat="42.02063" lon="0.90807">
        <ele>1066.608</ele>
        <time>2015-01-10T14:07:05Z</time>
      </trkpt>
      <trkpt lat="42.02055" lon="0.90816">
        <ele>1069.184</ele>
        <time>2015-01-10T14:06:56Z</time>
      </trkpt>
      <trkpt lat="42.02048" lon="0.90824">
        <ele>1070.773</ele>
        <time>2015-01-10T14:06:48Z</time>
      </trkpt>
      <trkpt lat="42.02041" lon="0.90835">
        <ele>1072.734</ele>
        <time>2015-01-10T14:06:35Z</time>
      </trkpt>
      <trkpt lat="42.02038" lon="0.90849">
        <ele>1074.786</ele>
        <time>2015-01-10T14:06:27Z</time>
      </trkpt>
      <trkpt lat="42.02039" lon="0.90863">
        <ele>1076.229</ele>
        <time>2015-01-10T14:06:19Z</time>
      </trkpt>
      <trkpt lat="42.02043" lon="0.90874">
        <ele>1077.51</ele>
        <time>2015-01-10T14:06:12Z</time>
      </trkpt>
      <trkpt lat="42.02048" lon="0.90886">
        <ele>1079.367</ele>
        <time>2015-01-10T14:06:05Z</time>
      </trkpt>
      <trkpt lat="42.0205" lon="0.90899">
        <ele>1081.421</ele>
        <time>2015-01-10T14:05:57Z</time>
      </trkpt>
      <trkpt lat="42.0205" lon="0.90911">
        <ele>1083.456</ele>
        <time>2015-01-10T14:05:45Z</time>
      </trkpt>
      <trkpt lat="42.02048" lon="0.90923">
        <ele>1085.359</ele>
        <time>2015-01-10T14:05:38Z</time>
      </trkpt>
      <trkpt lat="42.02046" lon="0.90937">
        <ele>1087.114</ele>
        <time>2015-01-10T14:05:31Z</time>
      </trkpt>
      <trkpt lat="42.02043" lon="0.9095">
        <ele>1089.208</ele>
        <time>2015-01-10T14:05:24Z</time>
      </trkpt>
      <trkpt lat="42.02041" lon="0.90962">
        <ele>1091.577</ele>
        <time>2015-01-10T14:05:17Z</time>
      </trkpt>
      <trkpt lat="42.02041" lon="0.90975">
        <ele>1093.846</ele>
        <time>2015-01-10T14:05:10Z</time>
      </trkpt>
      <trkpt lat="42.02044" lon="0.90986">
        <ele>1096.037</ele>
        <time>2015-01-10T14:05:02Z</time>
      </trkpt>
      <trkpt lat="42.02036" lon="0.90988">
        <ele>1097.479</ele>
        <time>2015-01-10T14:04:53Z</time>
      </trkpt>
      <trkpt lat="42.02028" lon="0.90996">
        <ele>1100.142</ele>
        <time>2015-01-10T14:04:46Z</time>
      </trkpt>
      <trkpt lat="42.02028" lon="0.91006">
        <ele>1102.773</ele>
        <time>2015-01-10T14:04:38Z</time>
      </trkpt>
      <trkpt lat="42.02021" lon="0.91014">
        <ele>1103.69</ele>
        <time>2015-01-10T14:04:30Z</time>
      </trkpt>
      <trkpt lat="42.02013" lon="0.91025">
        <ele>1104.664</ele>
        <time>2015-01-10T14:04:23Z</time>
      </trkpt>
      <trkpt lat="42.02009" lon="0.91038">
        <ele>1106.318</ele>
        <time>2015-01-10T14:04:16Z</time>
      </trkpt>
      <trkpt lat="42.02006" lon="0.91051">
        <ele>1107.598</ele>
        <time>2015-01-10T14:04:09Z</time>
      </trkpt>
      <trkpt lat="42.02004" lon="0.91063">
        <ele>1108.517</ele>
        <time>2015-01-10T14:04:03Z</time>
      </trkpt>
      <trkpt lat="42.02002" lon="0.91075">
        <ele>1109.508</ele>
        <time>2015-01-10T14:03:57Z</time>
      </trkpt>
      <trkpt lat="42.02001" lon="0.91089">
        <ele>1110.653</ele>
        <time>2015-01-10T14:03:51Z</time>
      </trkpt>
      <trkpt lat="42.02004" lon="0.91103">
        <ele>1111.352</ele>
        <time>2015-01-10T14:03:44Z</time>
      </trkpt>
      <trkpt lat="42.02007" lon="0.91115">
        <ele>1112.763</ele>
        <time>2015-01-10T14:03:37Z</time>
      </trkpt>
      <trkpt lat="42.0201" lon="0.91128">
        <ele>1113.955</ele>
        <time>2015-01-10T14:03:30Z</time>
      </trkpt>
      <trkpt lat="42.02012" lon="0.9114">
        <ele>1114.928</ele>
        <time>2015-01-10T14:03:24Z</time>
      </trkpt>
      <trkpt lat="42.02014" lon="0.91152">
        <ele>1115.529</ele>
        <time>2015-01-10T14:03:18Z</time>
      </trkpt>
      <trkpt lat="42.02017" lon="0.91165">
        <ele>1116.226</ele>
        <time>2015-01-10T14:03:12Z</time>
      </trkpt>
      <trkpt lat="42.0202" lon="0.91177">
        <ele>1117.44</ele>
        <time>2015-01-10T14:03:06Z</time>
      </trkpt>
      <trkpt lat="42.02023" lon="0.91189">
        <ele>1118.952</ele>
        <time>2015-01-10T14:03:00Z</time>
      </trkpt>
      <trkpt lat="42.02027" lon="0.91202">
        <ele>1120.353</ele>
        <time>2015-01-10T14:02:54Z</time>
      </trkpt>
      <trkpt lat="42.0203" lon="0.91214">
        <ele>1121.408</ele>
        <time>2015-01-10T14:02:47Z</time>
      </trkpt>
      <trkpt lat="42.02033" lon="0.91226">
        <ele>1122.608</ele>
        <time>2015-01-10T14:02:41Z</time>
      </trkpt>
      <trkpt lat="42.02036" lon="0.91238">
        <ele>1123.247</ele>
        <time>2015-01-10T14:02:35Z</time>
      </trkpt>
      <trkpt lat="42.02039" lon="0.9125">
        <ele>1123.886</ele>
        <time>2015-01-10T14:02:29Z</time>
      </trkpt>
      <trkpt lat="42.02044" lon="0.91263">
        <ele>1124.637</ele>
        <time>2015-01-10T14:02:22Z</time>
      </trkpt>
      <trkpt lat="42.02049" lon="0.91275">
        <ele>1125.489</ele>
        <time>2015-01-10T14:02:15Z</time>
      </trkpt>
      <trkpt lat="42.02054" lon="0.91287">
        <ele>1126.822</ele>
        <time>2015-01-10T14:02:08Z</time>
      </trkpt>
      <trkpt lat="42.02059" lon="0.91299">
        <ele>1128.133</ele>
        <time>2015-01-10T14:02:01Z</time>
      </trkpt>
      <trkpt lat="42.02063" lon="0.91311">
        <ele>1129.52</ele>
        <time>2015-01-10T14:01:54Z</time>
      </trkpt>
      <trkpt lat="42.02065" lon="0.91324">
        <ele>1130.814</ele>
        <time>2015-01-10T14:01:47Z</time>
      </trkpt>
      <trkpt lat="42.02065" lon="0.91337">
        <ele>1131.692</ele>
        <time>2015-01-10T14:01:40Z</time>
      </trkpt>
      <trkpt lat="42.02063" lon="0.91351">
        <ele>1132.573</ele>
        <time>2015-01-10T14:01:33Z</time>
      </trkpt>
      <trkpt lat="42.02061" lon="0.91364">
        <ele>1133.32</ele>
        <time>2015-01-10T14:01:26Z</time>
      </trkpt>
      <trkpt lat="42.0206" lon="0.91376">
        <ele>1134.708</ele>
        <time>2015-01-10T14:01:19Z</time>
      </trkpt>
      <trkpt lat="42.02059" lon="0.91389">
        <ele>1136.331</ele>
        <time>2015-01-10T14:01:10Z</time>
      </trkpt>
      <trkpt lat="42.02058" lon="0.91396">
        <ele>1138.52</ele>
        <time>2014-12-07T11:53:04Z</time>
      </trkpt>
      <trkpt lat="42.02067" lon="0.91387">
        <ele>1139.161</ele>
        <time>2014-12-07T11:52:57Z</time>
      </trkpt>
      <trkpt lat="42.02075" lon="0.91375">
        <ele>1140.393</ele>
        <time>2014-12-07T11:52:53Z</time>
      </trkpt>
      <trkpt lat="42.02082" lon="0.91366">
        <ele>1141.346</ele>
        <time>2014-12-07T11:52:50Z</time>
      </trkpt>
      <trkpt lat="42.02087" lon="0.91356">
        <ele>1142.567</ele>
        <time>2014-12-07T11:52:47Z</time>
      </trkpt>
      <trkpt lat="42.02094" lon="0.91342">
        <ele>1144.944</ele>
        <time>2014-12-07T11:52:43Z</time>
      </trkpt>
      <trkpt lat="42.02098" lon="0.9133">
        <ele>1145.778</ele>
        <time>2014-12-07T11:52:40Z</time>
      </trkpt>
      <trkpt lat="42.02099" lon="0.91314">
        <ele>1145.772</ele>
        <time>2014-12-07T11:52:36Z</time>
      </trkpt>
      <trkpt lat="42.02099" lon="0.91297">
        <ele>1145.113</ele>
        <time>2014-12-07T11:52:31Z</time>
      </trkpt>
      <trkpt lat="42.021" lon="0.91284">
        <ele>1144.914</ele>
        <time>2014-12-07T11:52:25Z</time>
      </trkpt>
      <trkpt lat="42.02098" lon="0.91268">
        <ele>1143.808</ele>
        <time>2014-12-07T11:52:18Z</time>
      </trkpt>
      <trkpt lat="42.02094" lon="0.91255">
        <ele>1143.169</ele>
        <time>2014-12-07T11:52:10Z</time>
      </trkpt>
      <trkpt lat="42.02103" lon="0.91266">
        <ele>1144.328</ele>
        <time>2014-12-07T11:47:50Z</time>
      </trkpt>
      <trkpt lat="42.02109" lon="0.91276">
        <ele>1146.469</ele>
        <time>2014-12-07T11:47:43Z</time>
      </trkpt>
      <trkpt lat="42.02113" lon="0.91288">
        <ele>1148.141</ele>
        <time>2014-12-07T11:47:36Z</time>
      </trkpt>
      <trkpt lat="42.02118" lon="0.91301">
        <ele>1150.044</ele>
        <time>2014-12-07T11:47:29Z</time>
      </trkpt>
      <trkpt lat="42.02123" lon="0.91311">
        <ele>1152.135</ele>
        <time>2014-12-07T11:47:23Z</time>
      </trkpt>
      <trkpt lat="42.02126" lon="0.91323">
        <ele>1154.642</ele>
        <time>2014-12-07T11:47:17Z</time>
      </trkpt>
      <trkpt lat="42.02133" lon="0.91331">
        <ele>1157.776</ele>
        <time>2014-12-07T11:47:11Z</time>
      </trkpt>
      <trkpt lat="42.02136" lon="0.9134">
        <ele>1160.895</ele>
        <time>2014-12-07T11:47:05Z</time>
      </trkpt>
      <trkpt lat="42.0213" lon="0.9135">
        <ele>1160.949</ele>
        <time>2014-12-07T11:46:58Z</time>
      </trkpt>
      <trkpt lat="42.02127" lon="0.91362">
        <ele>1161.823</ele>
        <time>2014-12-07T11:46:52Z</time>
      </trkpt>
      <trkpt lat="42.02127" lon="0.91375">
        <ele>1164.408</ele>
        <time>2014-12-07T11:46:45Z</time>
      </trkpt>
      <trkpt lat="42.02131" lon="0.91386">
        <ele>1168.841</ele>
        <time>2014-12-07T11:46:38Z</time>
      </trkpt>
      <trkpt lat="42.02132" lon="0.91397">
        <ele>1171.69</ele>
        <time>2014-12-07T11:46:30Z</time>
      </trkpt>
      <trkpt lat="42.02135" lon="0.91409">
        <ele>1176.991</ele>
        <time>2014-12-07T11:46:20Z</time>
      </trkpt>
      <trkpt lat="42.0214" lon="0.91419">
        <ele>1181.983</ele>
        <time>2014-12-07T11:46:07Z</time>
      </trkpt>
      <trkpt lat="42.02145" lon="0.91433">
        <ele>1187.256</ele>
        <time>2014-12-07T11:45:57Z</time>
      </trkpt>
      <trkpt lat="42.02151" lon="0.91445">
        <ele>1192.617</ele>
        <time>2014-12-07T11:45:46Z</time>
      </trkpt>
      <trkpt lat="42.02153" lon="0.9146">
        <ele>1197.814</ele>
        <time>2014-12-07T11:45:36Z</time>
      </trkpt>
      <trkpt lat="42.0216" lon="0.91471">
        <ele>1203.148</ele>
        <time>2014-12-07T11:45:25Z</time>
      </trkpt>
      <trkpt lat="42.02166" lon="0.91481">
        <ele>1208.816</ele>
        <time>2014-12-07T11:45:15Z</time>
      </trkpt>
      <trkpt lat="42.02172" lon="0.9149">
        <ele>1213.376</ele>
        <time>2014-12-07T11:45:06Z</time>
      </trkpt>
      <trkpt lat="42.02175" lon="0.91502">
        <ele>1218.713</ele>
        <time>2014-12-07T11:44:56Z</time>
      </trkpt>
      <trkpt lat="42.02184" lon="0.91505">
        <ele>1223.208</ele>
        <time>2014-12-07T11:44:46Z</time>
      </trkpt>
      <trkpt lat="42.02193" lon="0.91507">
        <ele>1227.273</ele>
        <time>2014-12-07T11:44:38Z</time>
      </trkpt>
      <trkpt lat="42.02192" lon="0.9152">
        <ele>1231.252</ele>
        <time>2014-12-07T11:44:30Z</time>
      </trkpt>
      <trkpt lat="42.02194" lon="0.91533">
        <ele>1236.473</ele>
        <time>2014-12-07T11:44:21Z</time>
      </trkpt>
      <trkpt lat="42.02203" lon="0.91535">
        <ele>1240.655</ele>
        <time>2014-12-07T11:44:13Z</time>
      </trkpt>
      <trkpt lat="42.02214" lon="0.91538">
        <ele>1245.868</ele>
        <time>2014-12-07T11:44:03Z</time>
      </trkpt>
      <trkpt lat="42.02224" lon="0.91543">
        <ele>1251.319</ele>
        <time>2014-12-07T11:43:53Z</time>
      </trkpt>
      <trkpt lat="42.02231" lon="0.91549">
        <ele>1255.066</ele>
        <time>2014-12-07T11:43:44Z</time>
      </trkpt>
      <trkpt lat="42.02239" lon="0.91556">
        <ele>1259.88</ele>
        <time>2014-12-07T11:43:34Z</time>
      </trkpt>
      <trkpt lat="42.02249" lon="0.91559">
        <ele>1263.744</ele>
        <time>2014-12-07T11:43:27Z</time>
      </trkpt>
      <trkpt lat="42.02259" lon="0.91563">
        <ele>1268.905</ele>
        <time>2014-12-07T11:43:20Z</time>
      </trkpt>
      <trkpt lat="42.0227" lon="0.9156">
        <ele>1270.815</ele>
        <time>2014-12-07T11:43:15Z</time>
      </trkpt>
      <trkpt lat="42.0228" lon="0.91561">
        <ele>1274.708</ele>
        <time>2014-12-07T11:43:08Z</time>
      </trkpt>
      <trkpt lat="42.0229" lon="0.91558">
        <ele>1277.676</ele>
        <time>2014-12-07T11:42:58Z</time>
      </trkpt>
      <trkpt lat="42.02299" lon="0.91554">
        <ele>1280.655</ele>
        <time>2014-12-07T11:42:48Z</time>
      </trkpt>
      <trkpt lat="42.02309" lon="0.9155">
        <ele>1283.546</ele>
        <time>2014-12-07T11:42:40Z</time>
      </trkpt>
      <trkpt lat="42.02321" lon="0.9155">
        <ele>1288.578</ele>
        <time>2014-12-07T11:42:32Z</time>
      </trkpt>
      <trkpt lat="42.02332" lon="0.91547">
        <ele>1291.191</ele>
        <time>2014-12-07T11:42:24Z</time>
      </trkpt>
      <trkpt lat="42.02345" lon="0.9154">
        <ele>1296.062</ele>
        <time>2014-12-07T11:42:17Z</time>
      </trkpt>
      <trkpt lat="42.02355" lon="0.91534">
        <ele>1297.479</ele>
        <time>2014-12-07T11:42:09Z</time>
      </trkpt>
      <trkpt lat="42.02367" lon="0.9153">
        <ele>1298.963</ele>
        <time>2014-12-07T11:42:01Z</time>
      </trkpt>
      <trkpt lat="42.02379" lon="0.91527">
        <ele>1299.174</ele>
        <time>2014-12-07T11:41:54Z</time>
      </trkpt>
      <trkpt lat="42.02395" lon="0.9152">
        <ele>1301.256</ele>
        <time>2014-12-07T11:41:42Z</time>
      </trkpt>
      <trkpt lat="42.02411" lon="0.91514">
        <ele>1305.021</ele>
        <time>2014-12-07T11:41:29Z</time>
      </trkpt>
      <trkpt lat="42.02426" lon="0.91504">
        <ele>1307.708</ele>
        <time>2014-12-07T11:41:14Z</time>
      </trkpt>
      <trkpt lat="42.02437" lon="0.91494">
        <ele>1309.149</ele>
        <time>2014-12-07T11:41:03Z</time>
      </trkpt>
      <trkpt lat="42.02447" lon="0.91489">
        <ele>1312.518</ele>
        <time>2014-12-07T11:40:57Z</time>
      </trkpt>
      <trkpt lat="42.02458" lon="0.91484">
        <ele>1316.579</ele>
        <time>2014-12-07T11:40:49Z</time>
      </trkpt>
      <trkpt lat="42.02465" lon="0.91476">
        <ele>1318.631</ele>
        <time>2014-12-07T11:40:40Z</time>
      </trkpt>
      <trkpt lat="42.02474" lon="0.91469">
        <ele>1323.644</ele>
        <time>2014-12-07T11:40:30Z</time>
      </trkpt>
      <trkpt lat="42.02478" lon="0.91481">
        <ele>1328.865</ele>
        <time>2014-12-07T11:40:19Z</time>
      </trkpt>
      <trkpt lat="42.02486" lon="0.91489">
        <ele>1336.222</ele>
        <time>2014-12-07T11:40:07Z</time>
      </trkpt>
      <trkpt lat="42.02497" lon="0.91484">
        <ele>1344.866</ele>
        <time>2014-12-07T11:39:44Z</time>
      </trkpt>
      <trkpt lat="42.02493" lon="0.91495">
        <ele>1342.481</ele>
        <time>2014-12-07T11:39:35Z</time>
      </trkpt>
      <trkpt lat="42.02489" lon="0.91508">
        <ele>1342.561</ele>
        <time>2014-12-07T11:39:26Z</time>
      </trkpt>
      <trkpt lat="42.02485" lon="0.91519">
        <ele>1343.517</ele>
        <time>2014-12-07T11:39:16Z</time>
      </trkpt>
      <trkpt lat="42.0248" lon="0.9153">
        <ele>1344.608</ele>
        <time>2014-12-07T11:39:08Z</time>
      </trkpt>
      <trkpt lat="42.02479" lon="0.91546">
        <ele>1353.17</ele>
        <time>2014-12-07T11:38:59Z</time>
      </trkpt>
      <trkpt lat="42.0249" lon="0.91548">
        <ele>1357.729</ele>
        <time>2014-12-07T11:38:42Z</time>
      </trkpt>
      <trkpt lat="42.02494" lon="0.91556">
        <ele>1362.91</ele>
        <time>2014-12-07T11:38:31Z</time>
      </trkpt>
      <trkpt lat="42.02507" lon="0.9155">
        <ele>1367.882</ele>
        <time>2014-12-07T11:38:16Z</time>
      </trkpt>
      <trkpt lat="42.02508" lon="0.91562">
        <ele>1374.085</ele>
        <time>2014-12-07T11:38:07Z</time>
      </trkpt>
      <trkpt lat="42.02518" lon="0.91565">
        <ele>1381.866</ele>
        <time>2014-12-07T11:37:50Z</time>
      </trkpt>
      <trkpt lat="42.0253" lon="0.91559">
        <ele>1387.863</ele>
        <time>2014-12-07T11:37:34Z</time>
      </trkpt>
      <trkpt lat="42.0253" lon="0.91568">
        <ele>1390.987</ele>
        <time>2014-12-07T11:37:24Z</time>
      </trkpt>
      <trkpt lat="42.02539" lon="0.91558">
        <ele>1396.485</ele>
        <time>2014-12-07T11:37:10Z</time>
      </trkpt>
      <trkpt lat="42.02541" lon="0.91543">
        <ele>1397.189</ele>
        <time>2014-12-07T11:37:00Z</time>
      </trkpt>
      <trkpt lat="42.02544" lon="0.91531">
        <ele>1399.017</ele>
        <time>2014-12-07T11:36:52Z</time>
      </trkpt>
      <trkpt lat="42.0255" lon="0.91537">
        <ele>1406.008</ele>
        <time>2014-12-07T11:36:44Z</time>
      </trkpt>
      <trkpt lat="42.02552" lon="0.91549">
        <ele>1407.94</ele>
        <time>2014-12-07T11:36:36Z</time>
      </trkpt>
      <trkpt lat="42.02554" lon="0.91561">
        <ele>1411.029</ele>
        <time>2014-12-07T11:36:27Z</time>
      </trkpt>
      <trkpt lat="42.02551" lon="0.91573">
        <ele>1409.87</ele>
        <time>2014-12-07T11:33:45Z</time>
      </trkpt>
      <trkpt lat="42.02549" lon="0.91587">
        <ele>1410.442</ele>
        <time>2014-12-07T11:33:36Z</time>
      </trkpt>
      <trkpt lat="42.02555" lon="0.91625">
        <ele>1413.595</ele>
        <time>2015-01-10T11:36:22Z</time>
      </trkpt>
      <trkpt lat="42.02545" lon="0.91631">
        <ele>1415.356</ele>
        <time>2015-01-10T11:36:31Z</time>
      </trkpt>
      <trkpt lat="42.02536" lon="0.91636">
        <ele>1418.273</ele>
        <time>2015-01-10T11:36:41Z</time>
      </trkpt>
      <trkpt lat="42.02527" lon="0.9164">
        <ele>1421.257</ele>
        <time>2015-01-10T11:36:50Z</time>
      </trkpt>
      <trkpt lat="42.02516" lon="0.91644">
        <ele>1424.034</ele>
        <time>2015-01-10T11:37:00Z</time>
      </trkpt>
      <trkpt lat="42.02507" lon="0.91642">
        <ele>1427.055</ele>
        <time>2015-01-10T11:37:20Z</time>
      </trkpt>
      <trkpt lat="42.02497" lon="0.91638">
        <ele>1429.51</ele>
        <time>2015-01-10T11:37:39Z</time>
      </trkpt>
      <trkpt lat="42.02487" lon="0.91638">
        <ele>1431.508</ele>
        <time>2015-01-10T11:37:51Z</time>
      </trkpt>
      <trkpt lat="42.02481" lon="0.91655">
        <ele>1433.935</ele>
        <time>2017-11-29T07:14:24Z</time>
      </trkpt>
      <trkpt lat="42.02481" lon="0.91674">
        <ele>1432.654</ele>
        <time>2017-11-29T07:14:44Z</time>
      </trkpt>
      <trkpt lat="42.02476" lon="0.91692">
        <ele>1431.525</ele>
        <time>2017-11-29T07:15:04Z</time>
      </trkpt>
      <trkpt lat="42.02462" lon="0.91702">
        <ele>1432.977</ele>
        <time>2017-11-29T07:15:24Z</time>
      </trkpt>
      <trkpt lat="42.02461" lon="0.91704">
        <ele>1432.78</ele>
        <time>2017-11-29T07:15:44Z</time>
      </trkpt>
      <trkpt lat="42.02445" lon="0.91719">
        <ele>1434.441</ele>
        <time>2017-11-29T07:16:04Z</time>
      </trkpt>
      <trkpt lat="42.02431" lon="0.91738">
        <ele>1434.978</ele>
        <time>2017-11-29T07:16:24Z</time>
      </trkpt>
      <trkpt lat="42.0243" lon="0.91738">
        <ele>1434.972</ele>
        <time>2017-11-29T07:16:44Z</time>
      </trkpt>
      <trkpt lat="42.02418" lon="0.91752">
        <ele>1436.457</ele>
        <time>2017-11-29T07:17:04Z</time>
      </trkpt>
      <trkpt lat="42.02415" lon="0.91752">
        <ele>1436.8</ele>
        <time>2017-11-29T07:17:24Z</time>
      </trkpt>
      <trkpt lat="42.02407" lon="0.91764">
        <ele>1436.72</ele>
        <time>2017-11-29T07:17:44Z</time>
      </trkpt>
      <trkpt lat="42.02397" lon="0.91768">
        <ele>1439.008</ele>
        <time>2017-11-29T07:18:04Z</time>
      </trkpt>
      <trkpt lat="42.02384" lon="0.91767">
        <ele>1441.437</ele>
        <time>2015-01-10T11:41:09Z</time>
      </trkpt>
      <trkpt lat="42.02376" lon="0.91775">
        <ele>1445.256</ele>
        <time>2015-01-10T11:41:21Z</time>
      </trkpt>
      <trkpt lat="42.02371" lon="0.91777">
        <ele>1447.047</ele>
        <time>2015-01-10T11:42:16Z</time>
      </trkpt>
      <trkpt lat="42.02361" lon="0.91776">
        <ele>1448.869</ele>
        <time>2015-01-10T11:42:52Z</time>
      </trkpt>
      <trkpt lat="42.0235" lon="0.91779">
        <ele>1452.882</ele>
        <time>2015-01-10T11:43:08Z</time>
      </trkpt>
      <trkpt lat="42.02339" lon="0.91781">
        <ele>1456.093</ele>
        <time>2015-01-10T11:43:20Z</time>
      </trkpt>
      <trkpt lat="42.02329" lon="0.9178">
        <ele>1458.37</ele>
        <time>2015-01-10T11:43:32Z</time>
      </trkpt>
      <trkpt lat="42.02318" lon="0.91784">
        <ele>1461.344</ele>
        <time>2015-01-10T11:44:07Z</time>
      </trkpt>
      <trkpt lat="42.02308" lon="0.91788">
        <ele>1464.642</ele>
        <time>2015-01-10T11:44:23Z</time>
      </trkpt>
      <trkpt lat="42.02302" lon="0.91796">
        <ele>1463.622</ele>
        <time>2015-01-10T11:44:39Z</time>
      </trkpt>
      <trkpt lat="42.02294" lon="0.91803">
        <ele>1462.314</ele>
        <time>2015-01-10T11:44:55Z</time>
      </trkpt>
      <trkpt lat="42.02287" lon="0.91812">
        <ele>1465.808</ele>
        <time>2015-01-10T11:45:11Z</time>
      </trkpt>
      <trkpt lat="42.02281" lon="0.91822">
        <ele>1471.876</ele>
        <time>2015-01-10T11:45:26Z</time>
      </trkpt>
      <trkpt lat="42.02272" lon="0.91834">
        <ele>1481.595</ele>
        <time>2015-01-10T11:45:40Z</time>
      </trkpt>
      <trkpt lat="42.02267" lon="0.91846">
        <ele>1484.766</ele>
        <time>2015-01-10T11:45:55Z</time>
      </trkpt>
      <trkpt lat="42.02261" lon="0.91857">
        <ele>1489.988</ele>
        <time>2015-01-10T11:46:08Z</time>
      </trkpt>
      <trkpt lat="42.02256" lon="0.91869">
        <ele>1494.211</ele>
        <time>2015-01-10T11:46:22Z</time>
      </trkpt>
      <trkpt lat="42.02251" lon="0.9188">
        <ele>1497.542</ele>
        <time>2015-01-10T11:46:36Z</time>
      </trkpt>
      <trkpt lat="42.02245" lon="0.91891">
        <ele>1498.589</ele>
        <time>2015-01-10T11:46:51Z</time>
      </trkpt>
      <trkpt lat="42.02247" lon="0.91905">
        <ele>1501.053</ele>
        <time>2015-01-10T11:47:07Z</time>
      </trkpt>
      <trkpt lat="42.02243" lon="0.91918">
        <ele>1502.926</ele>
        <time>2015-01-10T11:47:20Z</time>
      </trkpt>
      <trkpt lat="42.02239" lon="0.91927">
        <ele>1502.947</ele>
        <time>2015-01-10T11:47:37Z</time>
      </trkpt>
      <trkpt lat="42.02237" lon="0.91926">
        <ele>1502.611</ele>
        <time>2015-01-10T11:50:01Z</time>
      </trkpt>
      <trkpt lat="42.02238" lon="0.91927">
        <ele>1502.808</ele>
        <time>2015-01-10T11:54:41Z</time>
      </trkpt>
      <trkpt lat="42.02239" lon="0.9194">
        <ele>1503.214</ele>
        <time>2015-01-10T11:55:09Z</time>
      </trkpt>
      <trkpt lat="42.02242" lon="0.91942">
        <ele>1504.133</ele>
        <time>2015-01-10T11:55:46Z</time>
      </trkpt>
      <trkpt lat="42.02241" lon="0.91953">
        <ele>1506.554</ele>
        <time>2015-01-10T11:56:10Z</time>
      </trkpt>
      <trkpt lat="42.02237" lon="0.91966">
        <ele>1510.266</ele>
        <time>2015-01-10T11:56:50Z</time>
      </trkpt>
      <trkpt lat="42.02227" lon="0.91972">
        <ele>1512.839</ele>
        <time>2015-01-10T11:57:06Z</time>
      </trkpt>
      <trkpt lat="42.02226" lon="0.91986">
        <ele>1516.91</ele>
        <time>2015-01-10T11:57:18Z</time>
      </trkpt>
      <trkpt lat="42.0222" lon="0.91998">
        <ele>1520.967</ele>
        <time>2015-01-10T11:57:30Z</time>
      </trkpt>
      <trkpt lat="42.02221" lon="0.9201">
        <ele>1524.141</ele>
        <time>2015-01-10T11:57:41Z</time>
      </trkpt>
      <trkpt lat="42.02218" lon="0.92024">
        <ele>1526.791</ele>
        <time>2015-01-10T11:57:52Z</time>
      </trkpt>
      <trkpt lat="42.02214" lon="0.92036">
        <ele>1528.881</ele>
        <time>2015-01-10T11:58:03Z</time>
      </trkpt>
      <trkpt lat="42.0221" lon="0.92048">
        <ele>1530.119</ele>
        <time>2015-01-10T11:58:14Z</time>
      </trkpt>
      <trkpt lat="42.02208" lon="0.92062">
        <ele>1531.708</ele>
        <time>2015-01-10T11:58:27Z</time>
      </trkpt>
      <trkpt lat="42.02212" lon="0.92076">
        <ele>1534.131</ele>
        <time>2015-01-10T11:58:37Z</time>
      </trkpt>
      <trkpt lat="42.02215" lon="0.92089">
        <ele>1537.02</ele>
        <time>2015-01-10T11:58:47Z</time>
      </trkpt>
      <trkpt lat="42.02214" lon="0.92102">
        <ele>1539.871</ele>
        <time>2015-01-10T11:58:57Z</time>
      </trkpt>
      <trkpt lat="42.02214" lon="0.92114">
        <ele>1542.493</ele>
        <time>2015-01-10T11:59:07Z</time>
      </trkpt>
      <trkpt lat="42.02216" lon="0.92126">
        <ele>1544.916</ele>
        <time>2015-01-10T11:59:17Z</time>
      </trkpt>
      <trkpt lat="42.02216" lon="0.92136">
        <ele>1546.867</ele>
        <time>2015-01-10T11:59:31Z</time>
      </trkpt>
      <trkpt lat="42.02216" lon="0.9215">
        <ele>1548.334</ele>
        <time>2015-01-10T11:59:43Z</time>
      </trkpt>
      <trkpt lat="42.02218" lon="0.92164">
        <ele>1550.688</ele>
        <time>2015-01-10T11:59:54Z</time>
      </trkpt>
      <trkpt lat="42.02214" lon="0.92171">
        <ele>1549.648</ele>
        <time>2015-01-10T12:00:26Z</time>
      </trkpt>
      <trkpt lat="42.02211" lon="0.92184">
        <ele>1550.061</ele>
        <time>2015-01-10T12:00:40Z</time>
      </trkpt>
      <trkpt lat="42.02208" lon="0.92198">
        <ele>1550.617</ele>
        <time>2015-01-10T12:00:51Z</time>
      </trkpt>
      <trkpt lat="42.02206" lon="0.9221">
        <ele>1552.108</ele>
        <time>2015-01-10T12:01:01Z</time>
      </trkpt>
      <trkpt lat="42.02206" lon="0.92224">
        <ele>1554.996</ele>
        <time>2015-01-10T12:01:10Z</time>
      </trkpt>
      <trkpt lat="42.02206" lon="0.92236">
        <ele>1555.425</ele>
        <time>2015-01-10T12:01:22Z</time>
      </trkpt>
      <trkpt lat="42.02206" lon="0.92246">
        <ele>1555.916</ele>
        <time>2015-01-10T12:01:41Z</time>
      </trkpt>
      <trkpt lat="42.02204" lon="0.92258">
        <ele>1556.388</ele>
        <time>2015-01-10T12:01:54Z</time>
      </trkpt>
      <trkpt lat="42.02204" lon="0.92272">
        <ele>1558.151</ele>
        <time>2015-01-10T12:02:04Z</time>
      </trkpt>
      <trkpt lat="42.02206" lon="0.92287">
        <ele>1559.912</ele>
        <time>2015-01-10T12:02:09Z</time>
      </trkpt>
      <trkpt lat="42.02205" lon="0.923">
        <ele>1560.419</ele>
        <time>2015-01-10T12:02:14Z</time>
      </trkpt>
      <trkpt lat="42.02204" lon="0.92314">
        <ele>1561.183</ele>
        <time>2015-01-10T12:02:19Z</time>
      </trkpt>
      <trkpt lat="42.02204" lon="0.92327">
        <ele>1562.055</ele>
        <time>2015-01-10T12:02:24Z</time>
      </trkpt>
      <trkpt lat="42.02204" lon="0.92339">
        <ele>1564.207</ele>
        <time>2015-01-10T12:02:29Z</time>
      </trkpt>
      <trkpt lat="42.02201" lon="0.92353">
        <ele>1566.417</ele>
        <time>2015-01-10T12:02:35Z</time>
      </trkpt>
      <trkpt lat="42.02202" lon="0.92368">
        <ele>1569.008</ele>
        <time>2015-01-10T12:02:41Z</time>
      </trkpt>
      <trkpt lat="42.02203" lon="0.9238">
        <ele>1570.277</ele>
        <time>2015-01-10T12:02:46Z</time>
      </trkpt>
      <trkpt lat="42.02203" lon="0.92389">
        <ele>1571.016</ele>
        <time>2015-01-10T12:03:07Z</time>
      </trkpt>
      <trkpt lat="42.02205" lon="0.92404">
        <ele>1571.857</ele>
        <time>2015-01-10T12:03:16Z</time>
      </trkpt>
      <trkpt lat="42.02201" lon="0.92415">
        <ele>1569.879</ele>
        <time>2015-01-10T12:03:24Z</time>
      </trkpt>
      <trkpt lat="42.02199" lon="0.92428">
        <ele>1575.152</ele>
        <time>2015-01-10T12:03:33Z</time>
      </trkpt>
      <trkpt lat="42.02196" lon="0.9244">
        <ele>1582.953</ele>
        <time>2015-01-10T12:03:42Z</time>
      </trkpt>
      <trkpt lat="42.02194" lon="0.92454">
        <ele>1586.95</ele>
        <time>2015-01-10T12:03:51Z</time>
      </trkpt>
      <trkpt lat="42.02191" lon="0.92465">
        <ele>1581.384</ele>
        <time>2015-01-10T12:04:00Z</time>
      </trkpt>
      <trkpt lat="42.02192" lon="0.92478">
        <ele>1585.228</ele>
        <time>2015-01-10T12:04:08Z</time>
      </trkpt>
      <trkpt lat="42.02193" lon="0.92492">
        <ele>1586.589</ele>
        <time>2015-01-10T12:04:16Z</time>
      </trkpt>
      <trkpt lat="42.02194" lon="0.92504">
        <ele>1589.517</ele>
        <time>2015-01-10T12:04:24Z</time>
      </trkpt>
      <trkpt lat="42.02196" lon="0.92516">
        <ele>1591.708</ele>
        <time>2015-01-10T12:04:32Z</time>
      </trkpt>
      <trkpt lat="42.022" lon="0.92528">
        <ele>1592.324</ele>
        <time>2015-01-10T12:04:39Z</time>
      </trkpt>
      <trkpt lat="42.02201" lon="0.92541">
        <ele>1590.083</ele>
        <time>2015-01-10T12:04:47Z</time>
      </trkpt>
      <trkpt lat="42.02199" lon="0.92554">
        <ele>1587.324</ele>
        <time>2015-01-10T12:04:55Z</time>
      </trkpt>
      <trkpt lat="42.02198" lon="0.92568">
        <ele>1590.256</ele>
        <time>2015-01-10T12:05:03Z</time>
      </trkpt>
      <trkpt lat="42.02202" lon="0.9258">
        <ele>1593.769</ele>
        <time>2015-01-10T12:05:11Z</time>
      </trkpt>
      <trkpt lat="42.02201" lon="0.92591">
        <ele>1594.61</ele>
        <time>2015-01-10T12:05:21Z</time>
      </trkpt>
      <trkpt lat="42.022" lon="0.92604">
        <ele>1594.757</ele>
        <time>2015-01-10T12:05:32Z</time>
      </trkpt>
      <trkpt lat="42.02201" lon="0.92617">
        <ele>1593.551</ele>
        <time>2015-01-10T12:05:40Z</time>
      </trkpt>
      <trkpt lat="42.02198" lon="0.9263">
        <ele>1590.118</ele>
        <time>2015-01-10T12:05:48Z</time>
      </trkpt>
      <trkpt lat="42.02198" lon="0.92644">
        <ele>1588.598</ele>
        <time>2015-01-10T12:05:56Z</time>
      </trkpt>
      <trkpt lat="42.02199" lon="0.92657">
        <ele>1590.417</ele>
        <time>2015-01-10T12:06:04Z</time>
      </trkpt>
      <trkpt lat="42.02198" lon="0.92672">
        <ele>1591.808</ele>
        <time>2015-01-10T12:06:12Z</time>
      </trkpt>
      <trkpt lat="42.02198" lon="0.92685">
        <ele>1592.593</ele>
        <time>2015-01-10T12:06:20Z</time>
      </trkpt>
      <trkpt lat="42.02198" lon="0.92698">
        <ele>1592.742</ele>
        <time>2015-01-10T12:06:27Z</time>
      </trkpt>
      <trkpt lat="42.022" lon="0.9271">
        <ele>1591.463</ele>
        <time>2015-01-10T12:06:34Z</time>
      </trkpt>
      <trkpt lat="42.02201" lon="0.92723">
        <ele>1590.165</ele>
        <time>2015-01-10T12:06:42Z</time>
      </trkpt>
      <trkpt lat="42.02203" lon="0.92736">
        <ele>1592.588</ele>
        <time>2015-01-10T12:06:49Z</time>
      </trkpt>
      <trkpt lat="42.02201" lon="0.92748">
        <ele>1594.769</ele>
        <time>2015-01-10T12:06:56Z</time>
      </trkpt>
      <trkpt lat="42.02201" lon="0.92761">
        <ele>1593.946</ele>
        <time>2015-01-10T12:07:03Z</time>
      </trkpt>
      <trkpt lat="42.022" lon="0.92775">
        <ele>1592.33</ele>
        <time>2015-01-10T12:07:11Z</time>
      </trkpt>
      <trkpt lat="42.02199" lon="0.92788">
        <ele>1591.383</ele>
        <time>2015-01-10T12:07:18Z</time>
      </trkpt>
      <trkpt lat="42.02198" lon="0.92801">
        <ele>1590.425</ele>
        <time>2015-01-10T12:07:25Z</time>
      </trkpt>
      <trkpt lat="42.02198" lon="0.92813">
        <ele>1590.117</ele>
        <time>2015-01-10T12:07:32Z</time>
      </trkpt>
      <trkpt lat="42.02194" lon="0.92826">
        <ele>1589.808</ele>
        <time>2015-01-10T12:07:40Z</time>
      </trkpt>
      <trkpt lat="42.02195" lon="0.9284">
        <ele>1590.06</ele>
        <time>2015-01-10T12:07:48Z</time>
      </trkpt>
      <trkpt lat="42.02196" lon="0.92852">
        <ele>1590.069</ele>
        <time>2015-01-10T12:07:56Z</time>
      </trkpt>
      <trkpt lat="42.02196" lon="0.92866">
        <ele>1590.28</ele>
        <time>2015-01-10T12:08:05Z</time>
      </trkpt>
      <trkpt lat="42.02196" lon="0.92879">
        <ele>1590.622</ele>
        <time>2015-01-10T12:08:13Z</time>
      </trkpt>
      <trkpt lat="42.02198" lon="0.92891">
        <ele>1591.025</ele>
        <time>2015-01-10T12:08:20Z</time>
      </trkpt>
      <trkpt lat="42.022" lon="0.92905">
        <ele>1591.226</ele>
        <time>2015-01-10T12:08:28Z</time>
      </trkpt>
      <trkpt lat="42.02201" lon="0.92917">
        <ele>1591.543</ele>
        <time>2015-01-10T12:08:35Z</time>
      </trkpt>
      <trkpt lat="42.02202" lon="0.92929">
        <ele>1592.677</ele>
        <time>2015-01-10T12:08:43Z</time>
      </trkpt>
      <trkpt lat="42.02202" lon="0.92943">
        <ele>1593.721</ele>
        <time>2015-01-10T12:08:52Z</time>
      </trkpt>
      <trkpt lat="42.02201" lon="0.92956">
        <ele>1594.241</ele>
        <time>2015-01-10T12:09:00Z</time>
      </trkpt>
      <trkpt lat="42.02201" lon="0.92968">
        <ele>1594.805</ele>
        <time>2015-01-10T12:09:09Z</time>
      </trkpt>
      <trkpt lat="42.02199" lon="0.92982">
        <ele>1595.408</ele>
        <time>2015-01-10T12:09:19Z</time>
      </trkpt>
      <trkpt lat="42.022" lon="0.92995">
        <ele>1596.694</ele>
        <time>2015-01-10T12:09:29Z</time>
      </trkpt>
      <trkpt lat="42.02199" lon="0.93008">
        <ele>1597.933</ele>
        <time>2015-01-10T12:09:38Z</time>
      </trkpt>
      <trkpt lat="42.02199" lon="0.93021">
        <ele>1599.734</ele>
        <time>2015-01-10T12:09:47Z</time>
      </trkpt>
      <trkpt lat="42.022" lon="0.93034">
        <ele>1599.496</ele>
        <time>2015-01-10T12:09:56Z</time>
      </trkpt>
      <trkpt lat="42.02201" lon="0.93047">
        <ele>1597.299</ele>
        <time>2015-01-10T12:10:04Z</time>
      </trkpt>
      <trkpt lat="42.02205" lon="0.93058">
        <ele>1598.76</ele>
        <time>2015-01-10T12:10:13Z</time>
      </trkpt>
      <trkpt lat="42.02205" lon="0.93071">
        <ele>1600.617</ele>
        <time>2015-01-10T12:10:24Z</time>
      </trkpt>
      <trkpt lat="42.02204" lon="0.93085">
        <ele>1602.451</ele>
        <time>2015-01-10T12:10:35Z</time>
      </trkpt>
      <trkpt lat="42.02204" lon="0.93099">
        <ele>1602.914</ele>
        <time>2015-01-10T12:10:44Z</time>
      </trkpt>
      <trkpt lat="42.02205" lon="0.9311">
        <ele>1604.354</ele>
        <time>2015-01-10T12:10:56Z</time>
      </trkpt>
      <trkpt lat="42.02205" lon="0.93122">
        <ele>1605.609</ele>
        <time>2015-01-10T12:11:15Z</time>
      </trkpt>
      <trkpt lat="42.02204" lon="0.93136">
        <ele>1606.908</ele>
        <time>2015-01-10T12:11:29Z</time>
      </trkpt>
      <trkpt lat="42.02204" lon="0.9315">
        <ele>1609.733</ele>
        <time>2015-01-10T12:11:39Z</time>
      </trkpt>
      <trkpt lat="42.02205" lon="0.93163">
        <ele>1613.232</ele>
        <time>2015-01-10T12:11:49Z</time>
      </trkpt>
      <trkpt lat="42.02205" lon="0.93176">
        <ele>1616.633</ele>
        <time>2015-01-10T12:11:59Z</time>
      </trkpt>
      <trkpt lat="42.02206" lon="0.93188">
        <ele>1620.155</ele>
        <time>2015-01-10T12:12:09Z</time>
      </trkpt>
      <trkpt lat="42.02207" lon="0.93201">
        <ele>1623.098</ele>
        <time>2015-01-10T12:12:18Z</time>
      </trkpt>
      <trkpt lat="42.02207" lon="0.93214">
        <ele>1625.249</ele>
        <time>2015-01-10T12:12:28Z</time>
      </trkpt>
      <trkpt lat="42.02207" lon="0.93226">
        <ele>1626.586</ele>
        <time>2015-01-10T12:12:36Z</time>
      </trkpt>
      <trkpt lat="42.02208" lon="0.93239">
        <ele>1626.61</ele>
        <time>2015-01-10T12:12:45Z</time>
      </trkpt>
      <trkpt lat="42.02209" lon="0.93252">
        <ele>1626.855</ele>
        <time>2015-01-10T12:12:53Z</time>
      </trkpt>
      <trkpt lat="42.02209" lon="0.93265">
        <ele>1627.307</ele>
        <time>2015-01-10T12:13:03Z</time>
      </trkpt>
      <trkpt lat="42.02209" lon="0.93278">
        <ele>1627.717</ele>
        <time>2015-01-10T12:13:14Z</time>
      </trkpt>
      <trkpt lat="42.02211" lon="0.93288">
        <ele>1628.508</ele>
        <time>2015-01-10T12:14:00Z</time>
      </trkpt>
      <trkpt lat="42.02215" lon="0.933">
        <ele>1631.397</ele>
        <time>2015-01-10T12:14:10Z</time>
      </trkpt>
      <trkpt lat="42.02216" lon="0.93312">
        <ele>1633.116</ele>
        <time>2015-01-10T12:14:20Z</time>
      </trkpt>
      <trkpt lat="42.02215" lon="0.93326">
        <ele>1633.827</ele>
        <time>2015-01-10T12:14:29Z</time>
      </trkpt>
      <trkpt lat="42.02214" lon="0.9334">
        <ele>1634.269</ele>
        <time>2015-01-10T12:14:37Z</time>
      </trkpt>
      <trkpt lat="42.02214" lon="0.93353">
        <ele>1635.332</ele>
        <time>2015-01-10T12:14:45Z</time>
      </trkpt>
      <trkpt lat="42.02214" lon="0.93367">
        <ele>1636.493</ele>
        <time>2015-01-10T12:14:53Z</time>
      </trkpt>
      <trkpt lat="42.02214" lon="0.9338">
        <ele>1637.12</ele>
        <time>2015-01-10T12:15:01Z</time>
      </trkpt>
      <trkpt lat="42.02214" lon="0.93394">
        <ele>1638.054</ele>
        <time>2015-01-10T12:15:09Z</time>
      </trkpt>
      <trkpt lat="42.02214" lon="0.93408">
        <ele>1639.946</ele>
        <time>2015-01-10T12:15:17Z</time>
      </trkpt>
      <trkpt lat="42.02213" lon="0.9342">
        <ele>1641.088</ele>
        <time>2015-01-10T12:15:25Z</time>
      </trkpt>
      <trkpt lat="42.02212" lon="0.93433">
        <ele>1643.216</ele>
        <time>2015-01-10T12:15:32Z</time>
      </trkpt>
      <trkpt lat="42.02212" lon="0.93446">
        <ele>1645.808</ele>
        <time>2015-01-10T12:15:40Z</time>
      </trkpt>
      <trkpt lat="42.02212" lon="0.9346">
        <ele>1646.936</ele>
        <time>2015-01-10T12:15:48Z</time>
      </trkpt>
      <trkpt lat="42.02211" lon="0.93471">
        <ele>1647.795</ele>
        <time>2015-01-10T12:15:55Z</time>
      </trkpt>
      <trkpt lat="42.02211" lon="0.93484">
        <ele>1647.986</ele>
        <time>2015-01-10T12:16:02Z</time>
      </trkpt>
      <trkpt lat="42.02211" lon="0.93497">
        <ele>1648.048</ele>
        <time>2015-01-10T12:16:10Z</time>
      </trkpt>
      <trkpt lat="42.02212" lon="0.93511">
        <ele>1649.511</ele>
        <time>2015-01-10T12:16:19Z</time>
      </trkpt>
      <trkpt lat="42.02212" lon="0.93525">
        <ele>1651.052</ele>
        <time>2015-01-10T12:16:26Z</time>
      </trkpt>
      <trkpt lat="42.02212" lon="0.93538">
        <ele>1650.679</ele>
        <time>2015-01-10T12:16:33Z</time>
      </trkpt>
      <trkpt lat="42.02212" lon="0.9355">
        <ele>1649.933</ele>
        <time>2015-01-10T12:16:41Z</time>
      </trkpt>
      <trkpt lat="42.02212" lon="0.93564">
        <ele>1650.027</ele>
        <time>2015-01-10T12:16:49Z</time>
      </trkpt>
      <trkpt lat="42.02212" lon="0.93578">
        <ele>1650.468</ele>
        <time>2015-01-10T12:16:57Z</time>
      </trkpt>
      <trkpt lat="42.02212" lon="0.9359">
        <ele>1651.214</ele>
        <time>2015-01-10T12:17:05Z</time>
      </trkpt>
      <trkpt lat="42.02212" lon="0.93604">
        <ele>1652.708</ele>
        <time>2015-01-10T12:17:14Z</time>
      </trkpt>
      <trkpt lat="42.02211" lon="0.93616">
        <ele>1653.114</ele>
        <time>2015-01-10T12:17:22Z</time>
      </trkpt>
      <trkpt lat="42.0221" lon="0.93629">
        <ele>1652.873</ele>
        <time>2015-01-10T12:17:30Z</time>
      </trkpt>
      <trkpt lat="42.02211" lon="0.93643">
        <ele>1652.914</ele>
        <time>2015-01-10T12:17:38Z</time>
      </trkpt>
      <trkpt lat="42.02211" lon="0.93655">
        <ele>1652.466</ele>
        <time>2015-01-10T12:17:46Z</time>
      </trkpt>
      <trkpt lat="42.02211" lon="0.93669">
        <ele>1651.899</ele>
        <time>2015-01-10T12:17:54Z</time>
      </trkpt>
      <trkpt lat="42.02211" lon="0.93683">
        <ele>1652.38</ele>
        <time>2015-01-10T12:18:02Z</time>
      </trkpt>
      <trkpt lat="42.02211" lon="0.93697">
        <ele>1653.177</ele>
        <time>2015-01-10T12:18:11Z</time>
      </trkpt>
      <trkpt lat="42.02209" lon="0.9371">
        <ele>1653.881</ele>
        <time>2015-01-10T12:18:21Z</time>
      </trkpt>
      <trkpt lat="42.02208" lon="0.93723">
        <ele>1653.982</ele>
        <time>2015-01-10T12:18:30Z</time>
      </trkpt>
      <trkpt lat="42.02208" lon="0.93736">
        <ele>1657.143</ele>
        <time>2015-01-10T12:18:38Z</time>
      </trkpt>
      <trkpt lat="42.02206" lon="0.9375">
        <ele>1658.717</ele>
        <time>2015-01-10T12:18:47Z</time>
      </trkpt>
      <trkpt lat="42.02205" lon="0.93763">
        <ele>1660.708</ele>
        <time>2015-01-10T12:18:57Z</time>
      </trkpt>
      <trkpt lat="42.02204" lon="0.93778">
        <ele>1663.96</ele>
        <time>2015-01-10T12:19:06Z</time>
      </trkpt>
      <trkpt lat="42.02202" lon="0.93791">
        <ele>1664.619</ele>
        <time>2015-01-10T12:19:15Z</time>
      </trkpt>
      <trkpt lat="42.02199" lon="0.93803">
        <ele>1665.24</ele>
        <time>2015-01-10T12:19:23Z</time>
      </trkpt>
      <trkpt lat="42.02199" lon="0.93816">
        <ele>1664.692</ele>
        <time>2015-01-10T12:19:32Z</time>
      </trkpt>
      <trkpt lat="42.02198" lon="0.93828">
        <ele>1663.815</ele>
        <time>2015-01-10T12:19:40Z</time>
      </trkpt>
      <trkpt lat="42.02197" lon="0.93842">
        <ele>1662.326</ele>
        <time>2015-01-10T12:19:49Z</time>
      </trkpt>
      <trkpt lat="42.02196" lon="0.93841">
        <ele>1662.073</ele>
        <time>2015-01-10T12:25:48Z</time>
      </trkpt>
      <trkpt lat="42.02195" lon="0.93839">
        <ele>1661.637</ele>
        <time>2015-01-10T12:31:49Z</time>
      </trkpt>
      <trkpt lat="42.02198" lon="0.93841">
        <ele>1662.565</ele>
        <time>2015-01-10T12:35:03Z</time>
      </trkpt>
      <trkpt lat="42.02195" lon="0.93843">
        <ele>1661.368</ele>
        <time>2015-01-10T12:35:50Z</time>
      </trkpt>
      <trkpt lat="42.02195" lon="0.93852">
        <ele>1660.414</ele>
        <time>2015-01-10T12:36:24Z</time>
      </trkpt>
      <trkpt lat="42.022" lon="0.93859">
        <ele>1661.908</ele>
        <time>2015-01-10T12:37:03Z</time>
      </trkpt>
      <trkpt lat="42.02198" lon="0.93867">
        <ele>1659.798</ele>
        <time>2015-01-10T12:37:42Z</time>
      </trkpt>
      <trkpt lat="42.02201" lon="0.93874">
        <ele>1660.347</ele>
        <time>2015-01-10T12:38:58Z</time>
      </trkpt>
      <trkpt lat="42.02201" lon="0.93886">
        <ele>1658.158</ele>
        <time>2015-01-10T12:39:08Z</time>
      </trkpt>
      <trkpt lat="42.022" lon="0.93898">
        <ele>1660.75</ele>
        <time>2015-01-10T12:39:17Z</time>
      </trkpt>
      <trkpt lat="42.02198" lon="0.93912">
        <ele>1665.593</ele>
        <time>2015-01-10T12:39:26Z</time>
      </trkpt>
      <trkpt lat="42.022" lon="0.93925">
        <ele>1666.924</ele>
        <time>2015-01-10T12:39:35Z</time>
      </trkpt>
      <trkpt lat="42.02204" lon="0.93937">
        <ele>1666.651</ele>
        <time>2015-01-10T12:39:43Z</time>
      </trkpt>
      <trkpt lat="42.02214" lon="0.93943">
        <ele>1667.295</ele>
        <time>2015-01-10T12:39:51Z</time>
      </trkpt>
      <trkpt lat="42.02221" lon="0.93949">
        <ele>1667.189</ele>
        <time>2015-01-10T12:40:02Z</time>
      </trkpt>
      <trkpt lat="42.02228" lon="0.93956">
        <ele>1665.906</ele>
        <time>2015-01-10T12:40:10Z</time>
      </trkpt>
      <trkpt lat="42.02233" lon="0.93967">
        <ele>1664.326</ele>
        <time>2015-01-10T12:40:17Z</time>
      </trkpt>
      <trkpt lat="42.02238" lon="0.93979">
        <ele>1661.908</ele>
        <time>2015-01-10T12:40:26Z</time>
      </trkpt>
      <trkpt lat="42.02242" lon="0.93992">
        <ele>1659.85</ele>
        <time>2015-01-10T12:40:35Z</time>
      </trkpt>
      <trkpt lat="42.02247" lon="0.94003">
        <ele>1658.759</ele>
        <time>2015-01-10T12:40:43Z</time>
      </trkpt>
      <trkpt lat="42.02251" lon="0.94013">
        <ele>1657.91</ele>
        <time>2015-01-10T12:40:51Z</time>
      </trkpt>
      <trkpt lat="42.02255" lon="0.94026">
        <ele>1655.552</ele>
        <time>2015-01-10T12:41:00Z</time>
      </trkpt>
      <trkpt lat="42.02256" lon="0.94039">
        <ele>1653.285</ele>
        <time>2015-01-10T12:41:08Z</time>
      </trkpt>
      <trkpt lat="42.02256" lon="0.94053">
        <ele>1650.896</ele>
        <time>2015-01-10T12:41:16Z</time>
      </trkpt>
      <trkpt lat="42.02256" lon="0.94065">
        <ele>1647.913</ele>
        <time>2015-01-10T12:41:23Z</time>
      </trkpt>
      <trkpt lat="42.02256" lon="0.94077">
        <ele>1644.547</ele>
        <time>2015-01-10T12:41:30Z</time>
      </trkpt>
      <trkpt lat="42.02257" lon="0.9409">
        <ele>1641.617</ele>
        <time>2015-01-10T12:41:37Z</time>
      </trkpt>
      <trkpt lat="42.02261" lon="0.94102">
        <ele>1640.387</ele>
        <time>2015-01-10T12:41:44Z</time>
      </trkpt>
      <trkpt lat="42.02265" lon="0.94114">
        <ele>1639.615</ele>
        <time>2015-01-10T12:41:51Z</time>
      </trkpt>
      <trkpt lat="42.02269" lon="0.94126">
        <ele>1639.608</ele>
        <time>2015-01-10T12:41:58Z</time>
      </trkpt>
      <trkpt lat="42.02274" lon="0.94137">
        <ele>1640.563</ele>
        <time>2015-01-10T12:42:05Z</time>
      </trkpt>
      <trkpt lat="42.02279" lon="0.94149">
        <ele>1641.642</ele>
        <time>2015-01-10T12:42:13Z</time>
      </trkpt>
      <trkpt lat="42.02282" lon="0.94161">
        <ele>1641.123</ele>
        <time>2015-01-10T12:42:21Z</time>
      </trkpt>
      <trkpt lat="42.02283" lon="0.94174">
        <ele>1641.015</ele>
        <time>2015-01-10T12:42:29Z</time>
      </trkpt>
      <trkpt lat="42.02284" lon="0.94187">
        <ele>1641.278</ele>
        <time>2015-01-10T12:42:37Z</time>
      </trkpt>
      <trkpt lat="42.02286" lon="0.942">
        <ele>1641.029</ele>
        <time>2015-01-10T12:42:44Z</time>
      </trkpt>
      <trkpt lat="42.02288" lon="0.94212">
        <ele>1640.536</ele>
        <time>2015-01-10T12:42:51Z</time>
      </trkpt>
      <trkpt lat="42.02289" lon="0.94226">
        <ele>1640.49</ele>
        <time>2015-01-10T12:42:59Z</time>
      </trkpt>
      <trkpt lat="42.02289" lon="0.9424">
        <ele>1640.759</ele>
        <time>2015-01-10T12:43:07Z</time>
      </trkpt>
      <trkpt lat="42.0229" lon="0.94254">
        <ele>1641.103</ele>
        <time>2015-01-10T12:43:15Z</time>
      </trkpt>
      <trkpt lat="42.02292" lon="0.94268">
        <ele>1641.423</ele>
        <time>2015-01-10T12:43:23Z</time>
      </trkpt>
      <trkpt lat="42.02294" lon="0.94281">
        <ele>1641.408</ele>
        <time>2015-01-10T12:43:31Z</time>
      </trkpt>
      <trkpt lat="42.02296" lon="0.94295">
        <ele>1641.427</ele>
        <time>2015-01-10T12:43:39Z</time>
      </trkpt>
      <trkpt lat="42.02297" lon="0.94308">
        <ele>1641.646</ele>
        <time>2015-01-10T12:43:46Z</time>
      </trkpt>
      <trkpt lat="42.02297" lon="0.94321">
        <ele>1641.727</ele>
        <time>2015-01-10T12:43:53Z</time>
      </trkpt>
      <trkpt lat="42.02298" lon="0.94334">
        <ele>1641.669</ele>
        <time>2015-01-10T12:44:00Z</time>
      </trkpt>
      <trkpt lat="42.02299" lon="0.94346">
        <ele>1641.772</ele>
        <time>2015-01-10T12:44:07Z</time>
      </trkpt>
      <trkpt lat="42.023" lon="0.94361">
        <ele>1641.753</ele>
        <time>2015-01-10T12:44:15Z</time>
      </trkpt>
      <trkpt lat="42.023" lon="0.94374">
        <ele>1642.03</ele>
        <time>2015-01-10T12:44:22Z</time>
      </trkpt>
      <trkpt lat="42.02299" lon="0.94387">
        <ele>1642.914</ele>
        <time>2015-01-10T12:44:29Z</time>
      </trkpt>
      <trkpt lat="42.02299" lon="0.944">
        <ele>1643.364</ele>
        <time>2015-01-10T12:44:36Z</time>
      </trkpt>
      <trkpt lat="42.02299" lon="0.94412">
        <ele>1643.606</ele>
        <time>2015-01-10T12:44:43Z</time>
      </trkpt>
      <trkpt lat="42.023" lon="0.94425">
        <ele>1643.716</ele>
        <time>2015-01-10T12:44:50Z</time>
      </trkpt>
      <trkpt lat="42.023" lon="0.94438">
        <ele>1644.208</ele>
        <time>2015-01-10T12:44:57Z</time>
      </trkpt>
      <trkpt lat="42.02299" lon="0.94452">
        <ele>1644.858</ele>
        <time>2015-01-10T12:45:05Z</time>
      </trkpt>
      <trkpt lat="42.02299" lon="0.94465">
        <ele>1645.247</ele>
        <time>2015-01-10T12:45:12Z</time>
      </trkpt>
      <trkpt lat="42.02299" lon="0.94478">
        <ele>1645.658</ele>
        <time>2015-01-10T12:45:19Z</time>
      </trkpt>
      <trkpt lat="42.02297" lon="0.94491">
        <ele>1646.35</ele>
        <time>2015-01-10T12:45:27Z</time>
      </trkpt>
      <trkpt lat="42.02295" lon="0.94503">
        <ele>1646.933</ele>
        <time>2015-01-10T12:45:34Z</time>
      </trkpt>
      <trkpt lat="42.02294" lon="0.94517">
        <ele>1647.234</ele>
        <time>2015-01-10T12:45:42Z</time>
      </trkpt>
      <trkpt lat="42.02294" lon="0.9453">
        <ele>1647.431</ele>
        <time>2015-01-10T12:45:50Z</time>
      </trkpt>
      <trkpt lat="42.02295" lon="0.94544">
        <ele>1648.145</ele>
        <time>2015-01-10T12:45:58Z</time>
      </trkpt>
      <trkpt lat="42.02297" lon="0.94557">
        <ele>1648.619</ele>
        <time>2015-01-10T12:46:06Z</time>
      </trkpt>
      <trkpt lat="42.02301" lon="0.94569">
        <ele>1648.709</ele>
        <time>2015-01-10T12:46:13Z</time>
      </trkpt>
      <trkpt lat="42.02305" lon="0.94582">
        <ele>1649.719</ele>
        <time>2015-01-10T12:46:21Z</time>
      </trkpt>
      <trkpt lat="42.02309" lon="0.94594">
        <ele>1648.908</ele>
        <time>2015-01-10T12:46:29Z</time>
      </trkpt>
      <trkpt lat="42.02312" lon="0.94605">
        <ele>1648.223</ele>
        <time>2015-01-10T12:46:36Z</time>
      </trkpt>
      <trkpt lat="42.02316" lon="0.94617">
        <ele>1648.262</ele>
        <time>2015-01-10T12:46:43Z</time>
      </trkpt>
      <trkpt lat="42.02322" lon="0.94628">
        <ele>1648.733</ele>
        <time>2015-01-10T12:46:51Z</time>
      </trkpt>
      <trkpt lat="42.02326" lon="0.94641">
        <ele>1649.655</ele>
        <time>2015-01-10T12:46:59Z</time>
      </trkpt>
      <trkpt lat="42.02329" lon="0.94652">
        <ele>1650.758</ele>
        <time>2015-01-10T12:47:08Z</time>
      </trkpt>
      <trkpt lat="42.02331" lon="0.94665">
        <ele>1651.749</ele>
        <time>2015-01-10T12:47:17Z</time>
      </trkpt>
      <trkpt lat="42.02335" lon="0.94678">
        <ele>1652.376</ele>
        <time>2015-01-10T12:47:26Z</time>
      </trkpt>
      <trkpt lat="42.02337" lon="0.9469">
        <ele>1652.52</ele>
        <time>2015-01-10T12:47:34Z</time>
      </trkpt>
      <trkpt lat="42.02341" lon="0.94703">
        <ele>1652.444</ele>
        <time>2015-01-10T12:47:42Z</time>
      </trkpt>
      <trkpt lat="42.02345" lon="0.94716">
        <ele>1652.405</ele>
        <time>2015-01-10T12:47:50Z</time>
      </trkpt>
      <trkpt lat="42.02348" lon="0.94729">
        <ele>1652.415</ele>
        <time>2015-01-10T12:47:58Z</time>
      </trkpt>
      <trkpt lat="42.02351" lon="0.94742">
        <ele>1652.508</ele>
        <time>2015-01-10T12:48:06Z</time>
      </trkpt>
      <trkpt lat="42.02352" lon="0.94755">
        <ele>1653.136</ele>
        <time>2015-01-10T12:48:14Z</time>
      </trkpt>
      <trkpt lat="42.02351" lon="0.94769">
        <ele>1653.725</ele>
        <time>2015-01-10T12:48:22Z</time>
      </trkpt>
      <trkpt lat="42.02349" lon="0.94782">
        <ele>1654.216</ele>
        <time>2015-01-10T12:48:30Z</time>
      </trkpt>
      <trkpt lat="42.02347" lon="0.94794">
        <ele>1654.938</ele>
        <time>2015-01-10T12:48:38Z</time>
      </trkpt>
      <trkpt lat="42.02347" lon="0.94806">
        <ele>1655.911</ele>
        <time>2015-01-10T12:48:45Z</time>
      </trkpt>
      <trkpt lat="42.02348" lon="0.9482">
        <ele>1656.662</ele>
        <time>2015-01-10T12:48:53Z</time>
      </trkpt>
      <trkpt lat="42.02349" lon="0.94832">
        <ele>1657.499</ele>
        <time>2015-01-10T12:49:01Z</time>
      </trkpt>
      <trkpt lat="42.02351" lon="0.94845">
        <ele>1658.013</ele>
        <time>2015-01-10T12:49:09Z</time>
      </trkpt>
      <trkpt lat="42.02353" lon="0.94857">
        <ele>1658.866</ele>
        <time>2015-01-10T12:49:17Z</time>
      </trkpt>
      <trkpt lat="42.02356" lon="0.94869">
        <ele>1660.229</ele>
        <time>2015-01-10T12:49:25Z</time>
      </trkpt>
      <trkpt lat="42.02357" lon="0.94881">
        <ele>1661.421</ele>
        <time>2015-01-10T12:49:32Z</time>
      </trkpt>
      <trkpt lat="42.02356" lon="0.94894">
        <ele>1661.508</ele>
        <time>2015-01-10T12:49:40Z</time>
      </trkpt>
      <trkpt lat="42.02355" lon="0.94907">
        <ele>1661.498</ele>
        <time>2015-01-10T12:49:47Z</time>
      </trkpt>
      <trkpt lat="42.02354" lon="0.94919">
        <ele>1661.577</ele>
        <time>2015-01-10T12:49:54Z</time>
      </trkpt>
      <trkpt lat="42.02353" lon="0.94932">
        <ele>1661.768</ele>
        <time>2015-01-10T12:50:02Z</time>
      </trkpt>
      <trkpt lat="42.02352" lon="0.94945">
        <ele>1661.83</ele>
        <time>2015-01-10T12:50:09Z</time>
      </trkpt>
      <trkpt lat="42.0235" lon="0.94958">
        <ele>1661.163</ele>
        <time>2015-01-10T12:50:17Z</time>
      </trkpt>
      <trkpt lat="42.02345" lon="0.94968">
        <ele>1660.554</ele>
        <time>2015-01-10T12:50:24Z</time>
      </trkpt>
      <trkpt lat="42.02338" lon="0.94978">
        <ele>1659.531</ele>
        <time>2015-01-10T12:50:31Z</time>
      </trkpt>
      <trkpt lat="42.02333" lon="0.9499">
        <ele>1657.865</ele>
        <time>2015-01-10T12:50:38Z</time>
      </trkpt>
      <trkpt lat="42.02328" lon="0.95003">
        <ele>1655.117</ele>
        <time>2015-01-10T12:50:44Z</time>
      </trkpt>
      <trkpt lat="42.02324" lon="0.95014">
        <ele>1652.987</ele>
        <time>2015-01-10T12:50:48Z</time>
      </trkpt>
      <trkpt lat="42.02318" lon="0.95026">
        <ele>1650.915</ele>
        <time>2015-01-10T12:50:53Z</time>
      </trkpt>
      <trkpt lat="42.02314" lon="0.95037">
        <ele>1648.508</ele>
        <time>2015-01-10T12:51:00Z</time>
      </trkpt>
      <trkpt lat="42.02323" lon="0.95046">
        <ele>1647.843</ele>
        <time>2015-01-10T12:51:06Z</time>
      </trkpt>
      <trkpt lat="42.02324" lon="0.95059">
        <ele>1645.222</ele>
        <time>2015-01-10T12:51:11Z</time>
      </trkpt>
      <trkpt lat="42.02326" lon="0.95072">
        <ele>1642.713</ele>
        <time>2015-01-10T12:51:16Z</time>
      </trkpt>
      <trkpt lat="42.0232" lon="0.95082">
        <ele>1639.845</ele>
        <time>2015-01-10T12:51:21Z</time>
      </trkpt>
      <trkpt lat="42.02314" lon="0.95093">
        <ele>1636.528</ele>
        <time>2015-01-10T12:51:25Z</time>
      </trkpt>
      <trkpt lat="42.02317" lon="0.95105">
        <ele>1633.729</ele>
        <time>2015-01-10T12:51:30Z</time>
      </trkpt>
      <trkpt lat="42.02315" lon="0.95116">
        <ele>1630.856</ele>
        <time>2015-01-10T12:51:37Z</time>
      </trkpt>
      <trkpt lat="42.02309" lon="0.95124">
        <ele>1628.34</ele>
        <time>2015-01-10T12:51:46Z</time>
      </trkpt>
      <trkpt lat="42.02303" lon="0.95132">
        <ele>1625.568</ele>
        <time>2015-01-10T12:51:52Z</time>
      </trkpt>
      <trkpt lat="42.02294" lon="0.95136">
        <ele>1622.942</ele>
        <time>2015-01-10T12:51:58Z</time>
      </trkpt>
      <trkpt lat="42.02286" lon="0.95146">
        <ele>1619.926</ele>
        <time>2015-01-10T12:52:03Z</time>
      </trkpt>
      <trkpt lat="42.02276" lon="0.95152">
        <ele>1617.908</ele>
        <time>2015-01-10T12:52:07Z</time>
      </trkpt>
      <trkpt lat="42.02267" lon="0.95159">
        <ele>1615.918</ele>
        <time>2015-01-10T12:52:11Z</time>
      </trkpt>
      <trkpt lat="42.0226" lon="0.95168">
        <ele>1614.657</ele>
        <time>2015-01-10T12:52:15Z</time>
      </trkpt>
      <trkpt lat="42.02253" lon="0.95174">
        <ele>1613.688</ele>
        <time>2015-01-10T12:52:19Z</time>
      </trkpt>
      <trkpt lat="42.02235" lon="0.95197">
        <ele>1610.51</ele>
        <time>2013-07-13T07:53:47Z</time>
      </trkpt>
      <trkpt lat="42.02236" lon="0.95199">
        <ele>1610.733</ele>
        <time>2013-07-13T07:53:49Z</time>
      </trkpt>
      <trkpt lat="42.02238" lon="0.95201">
        <ele>1610.834</ele>
        <time>2013-07-13T07:53:51Z</time>
      </trkpt>
      <trkpt lat="42.02237" lon="0.95208">
        <ele>1610.941</ele>
        <time>2013-07-13T07:54:04Z</time>
      </trkpt>
      <trkpt lat="42.02236" lon="0.95209">
        <ele>1611.015</ele>
        <time>2013-07-13T07:54:31Z</time>
      </trkpt>
      <trkpt lat="42.02236" lon="0.95209">
        <ele>1611.028</ele>
        <time>2013-07-13T07:55:39Z</time>
      </trkpt>
      <trkpt lat="42.02226" lon="0.95224">
        <ele>1613.389</ele>
        <time>2013-07-13T07:55:53Z</time>
      </trkpt>
      <trkpt lat="42.02224" lon="0.95228">
        <ele>1613.417</ele>
        <time>2013-07-13T07:55:58Z</time>
      </trkpt>
      <trkpt lat="42.02222" lon="0.95233">
        <ele>1613.608</ele>
        <time>2013-07-13T07:56:02Z</time>
      </trkpt>
      <trkpt lat="42.02205" lon="0.95243">
        <ele>1617.034</ele>
        <time>2013-07-13T07:56:17Z</time>
      </trkpt>
      <trkpt lat="42.02192" lon="0.95248">
        <ele>1621.123</ele>
        <time>2013-07-13T07:56:31Z</time>
      </trkpt>
      <trkpt lat="42.02181" lon="0.95254">
        <ele>1623.714</ele>
        <time>2013-07-13T07:56:44Z</time>
      </trkpt>
      <trkpt lat="42.02173" lon="0.95261">
        <ele>1625.426</ele>
        <time>2013-07-13T07:56:54Z</time>
      </trkpt>
      <trkpt lat="42.02162" lon="0.95279">
        <ele>1628.069</ele>
        <time>2013-07-13T07:57:09Z</time>
      </trkpt>
      <trkpt lat="42.02155" lon="0.95293">
        <ele>1629.68</ele>
        <time>2013-07-13T07:57:20Z</time>
      </trkpt>
      <trkpt lat="42.02147" lon="0.95303">
        <ele>1631.527</ele>
        <time>2013-07-13T07:57:32Z</time>
      </trkpt>
      <trkpt lat="42.02144" lon="0.95306">
        <ele>1632.441</ele>
        <time>2013-07-13T07:57:43Z</time>
      </trkpt>
      <trkpt lat="42.02141" lon="0.9531">
        <ele>1633.565</ele>
        <time>2013-07-13T07:57:48Z</time>
      </trkpt>
      <trkpt lat="42.02133" lon="0.95331">
        <ele>1634.568</ele>
        <time>2013-07-13T07:58:03Z</time>
      </trkpt>
      <trkpt lat="42.0213" lon="0.95353">
        <ele>1634.614</ele>
        <time>2013-07-13T07:58:19Z</time>
      </trkpt>
      <trkpt lat="42.02128" lon="0.95374">
        <ele>1635.808</ele>
        <time>2013-07-13T07:58:31Z</time>
      </trkpt>
      <trkpt lat="42.02129" lon="0.95382">
        <ele>1636.758</ele>
        <time>2013-07-13T07:58:36Z</time>
      </trkpt>
      <trkpt lat="42.0213" lon="0.95405">
        <ele>1640.327</ele>
        <time>2013-07-13T07:58:51Z</time>
      </trkpt>
      <trkpt lat="42.02127" lon="0.95411">
        <ele>1641.958</ele>
        <time>2013-07-13T07:58:57Z</time>
      </trkpt>
      <trkpt lat="42.02122" lon="0.95435">
        <ele>1646.14</ele>
        <time>2013-07-13T07:59:14Z</time>
      </trkpt>
      <trkpt lat="42.02119" lon="0.95442">
        <ele>1647.423</ele>
        <time>2013-07-13T07:59:21Z</time>
      </trkpt>
      <trkpt lat="42.0212" lon="0.95467">
        <ele>1648.384</ele>
        <time>2013-07-13T07:59:38Z</time>
      </trkpt>
      <trkpt lat="42.02119" lon="0.95473">
        <ele>1648.751</ele>
        <time>2013-07-13T07:59:42Z</time>
      </trkpt>
      <trkpt lat="42.02118" lon="0.95489">
        <ele>1650.735</ele>
        <time>2013-07-13T07:59:54Z</time>
      </trkpt>
      <trkpt lat="42.02115" lon="0.95509">
        <ele>1652.729</ele>
        <time>2013-07-13T08:00:09Z</time>
      </trkpt>
      <trkpt lat="42.02115" lon="0.95522">
        <ele>1652.8</ele>
        <time>2013-07-13T08:00:17Z</time>
      </trkpt>
      <trkpt lat="42.02112" lon="0.95529">
        <ele>1653.62</ele>
        <time>2013-07-13T08:00:22Z</time>
      </trkpt>
      <trkpt lat="42.02113" lon="0.95555">
        <ele>1651.508</ele>
        <time>2013-07-13T08:00:36Z</time>
      </trkpt>
      <trkpt lat="42.02109" lon="0.95572">
        <ele>1650.984</ele>
        <time>2013-07-13T08:00:45Z</time>
      </trkpt>
      <trkpt lat="42.02107" lon="0.95584">
        <ele>1649.763</ele>
        <time>2013-07-13T08:01:01Z</time>
      </trkpt>
      <trkpt lat="42.02103" lon="0.95597">
        <ele>1648.164</ele>
        <time>2013-07-13T08:01:14Z</time>
      </trkpt>
      <trkpt lat="42.02101" lon="0.956">
        <ele>1647.266</ele>
        <time>2013-07-13T08:01:28Z</time>
      </trkpt>
      <trkpt lat="42.02098" lon="0.9561">
        <ele>1646.129</ele>
        <time>2013-07-13T08:01:46Z</time>
      </trkpt>
      <trkpt lat="42.02099" lon="0.95614">
        <ele>1646.47</ele>
        <time>2013-07-13T08:02:18Z</time>
      </trkpt>
      <trkpt lat="42.02099" lon="0.95613">
        <ele>1646.577</ele>
        <time>2013-07-13T08:03:05Z</time>
      </trkpt>
      <trkpt lat="42.02106" lon="0.95647">
        <ele>1649.831</ele>
        <time>2013-07-13T08:03:18Z</time>
      </trkpt>
      <trkpt lat="42.02099" lon="0.95689">
        <ele>1648.537</ele>
        <time>2013-07-13T08:03:31Z</time>
      </trkpt>
      <trkpt lat="42.021" lon="0.95723">
        <ele>1649.549</ele>
        <time>2013-07-13T08:03:44Z</time>
      </trkpt>
      <trkpt lat="42.02101" lon="0.95743">
        <ele>1653.413</ele>
        <time>2013-07-13T08:03:57Z</time>
      </trkpt>
      <trkpt lat="42.02101" lon="0.95772">
        <ele>1656.708</ele>
        <time>2013-07-13T08:04:13Z</time>
      </trkpt>
      <trkpt lat="42.02098" lon="0.95784">
        <ele>1657.815</ele>
        <time>2013-07-13T08:04:20Z</time>
      </trkpt>
      <trkpt lat="42.02099" lon="0.95792">
        <ele>1659.514</ele>
        <time>2013-07-13T08:04:26Z</time>
      </trkpt>
      <trkpt lat="42.02101" lon="0.95815">
        <ele>1663.055</ele>
        <time>2013-07-13T08:04:42Z</time>
      </trkpt>
      <trkpt lat="42.02099" lon="0.9584">
        <ele>1665.277</ele>
        <time>2013-07-13T08:04:58Z</time>
      </trkpt>
      <trkpt lat="42.02099" lon="0.95842">
        <ele>1665.31</ele>
        <time>2013-07-13T08:04:59Z</time>
      </trkpt>
      <trkpt lat="42.02099" lon="0.9585">
        <ele>1665.491</ele>
        <time>2013-07-13T08:05:04Z</time>
      </trkpt>
      <trkpt lat="42.02102" lon="0.95878">
        <ele>1666.018</ele>
        <time>2013-07-13T08:05:21Z</time>
      </trkpt>
      <trkpt lat="42.02102" lon="0.95885">
        <ele>1666.352</ele>
        <time>2013-07-13T08:05:44Z</time>
      </trkpt>
      <trkpt lat="42.02101" lon="0.95894">
        <ele>1665.558</ele>
        <time>2013-07-13T08:06:39Z</time>
      </trkpt>
      <trkpt lat="42.02101" lon="0.95886">
        <ele>1665.752</ele>
        <time>2013-07-13T08:07:30Z</time>
      </trkpt>
      <trkpt lat="42.02101" lon="0.95886">
        <ele>1665.717</ele>
        <time>2013-07-13T08:07:31Z</time>
      </trkpt>
      <trkpt lat="42.02102" lon="0.95887">
        <ele>1666.008</ele>
        <time>2013-07-13T08:07:52Z</time>
      </trkpt>
      <trkpt lat="42.02104" lon="0.95894">
        <ele>1666.817</ele>
        <time>2013-07-13T08:07:57Z</time>
      </trkpt>
      <trkpt lat="42.02105" lon="0.95923">
        <ele>1666.626</ele>
        <time>2013-07-13T08:08:13Z</time>
      </trkpt>
      <trkpt lat="42.02105" lon="0.9594">
        <ele>1665.697</ele>
        <time>2013-07-13T08:08:24Z</time>
      </trkpt>
      <trkpt lat="42.02107" lon="0.95953">
        <ele>1664.989</ele>
        <time>2013-07-13T08:08:29Z</time>
      </trkpt>
      <trkpt lat="42.02105" lon="0.95968">
        <ele>1662.652</ele>
        <time>2013-07-13T08:08:34Z</time>
      </trkpt>
      <trkpt lat="42.02096" lon="0.95981">
        <ele>1659.323</ele>
        <time>2013-07-13T08:08:40Z</time>
      </trkpt>
      <trkpt lat="42.02093" lon="0.96005">
        <ele>1657.99</ele>
        <time>2013-07-13T08:08:47Z</time>
      </trkpt>
      <trkpt lat="42.02083" lon="0.96037">
        <ele>1655.424</ele>
        <time>2013-07-13T08:08:57Z</time>
      </trkpt>
      <trkpt lat="42.02083" lon="0.96039">
        <ele>1654.815</ele>
        <time>2013-07-13T08:08:58Z</time>
      </trkpt>
      <trkpt lat="42.02082" lon="0.96056">
        <ele>1651.865</ele>
        <time>2013-07-13T08:09:03Z</time>
      </trkpt>
      <trkpt lat="42.0208" lon="0.96069">
        <ele>1648.611</ele>
        <time>2013-07-13T08:09:08Z</time>
      </trkpt>
      <trkpt lat="42.0208" lon="0.96073">
        <ele>1647.808</ele>
        <time>2013-07-13T08:09:09Z</time>
      </trkpt>
      <trkpt lat="42.0208" lon="0.96086">
        <ele>1645.083</ele>
        <time>2013-07-13T08:09:14Z</time>
      </trkpt>
      <trkpt lat="42.02083" lon="0.961">
        <ele>1642.322</ele>
        <time>2013-07-13T08:09:20Z</time>
      </trkpt>
      <trkpt lat="42.02085" lon="0.96109">
        <ele>1640.493</ele>
        <time>2013-07-13T08:09:23Z</time>
      </trkpt>
      <trkpt lat="42.02087" lon="0.96117">
        <ele>1638.385</ele>
        <time>2013-07-13T08:09:26Z</time>
      </trkpt>
      <trkpt lat="42.02089" lon="0.96133">
        <ele>1634.468</ele>
        <time>2013-07-13T08:09:31Z</time>
      </trkpt>
      <trkpt lat="42.0209" lon="0.96136">
        <ele>1633.859</ele>
        <time>2013-07-13T08:09:32Z</time>
      </trkpt>
      <trkpt lat="42.02089" lon="0.96143">
        <ele>1632.066</ele>
        <time>2013-07-13T08:09:35Z</time>
      </trkpt>
      <trkpt lat="42.02088" lon="0.96153">
        <ele>1629.82</ele>
        <time>2013-07-13T08:09:38Z</time>
      </trkpt>
      <trkpt lat="42.02087" lon="0.96165">
        <ele>1627.384</ele>
        <time>2013-07-13T08:09:44Z</time>
      </trkpt>
      <trkpt lat="42.02086" lon="0.9617">
        <ele>1626.107</ele>
        <time>2013-07-13T08:09:46Z</time>
      </trkpt>
      <trkpt lat="42.02085" lon="0.96178">
        <ele>1624.417</ele>
        <time>2013-07-13T08:09:49Z</time>
      </trkpt>
      <trkpt lat="42.02083" lon="0.9619">
        <ele>1621.608</ele>
        <time>2013-07-13T08:09:53Z</time>
      </trkpt>
      <trkpt lat="42.02083" lon="0.96205">
        <ele>1618.73</ele>
        <time>2013-07-13T08:09:58Z</time>
      </trkpt>
      <trkpt lat="42.02085" lon="0.96211">
        <ele>1617.449</ele>
        <time>2013-07-13T08:10:01Z</time>
      </trkpt>
      <trkpt lat="42.02086" lon="0.96222">
        <ele>1615.09</ele>
        <time>2013-07-13T08:10:05Z</time>
      </trkpt>
      <trkpt lat="42.02086" lon="0.96237">
        <ele>1611.782</ele>
        <time>2013-07-13T08:10:10Z</time>
      </trkpt>
      <trkpt lat="42.02083" lon="0.96255">
        <ele>1607.835</ele>
        <time>2013-07-13T08:10:16Z</time>
      </trkpt>
      <trkpt lat="42.02084" lon="0.9626">
        <ele>1606.926</ele>
        <time>2013-07-13T08:10:18Z</time>
      </trkpt>
      <trkpt lat="42.02086" lon="0.96268">
        <ele>1605.193</ele>
        <time>2013-07-13T08:10:21Z</time>
      </trkpt>
      <trkpt lat="42.02086" lon="0.96283">
        <ele>1602.137</ele>
        <time>2013-07-13T08:10:27Z</time>
      </trkpt>
      <trkpt lat="42.02086" lon="0.96285">
        <ele>1601.761</ele>
        <time>2013-07-13T08:10:28Z</time>
      </trkpt>
      <trkpt lat="42.02085" lon="0.96292">
        <ele>1600.421</ele>
        <time>2013-07-13T08:10:31Z</time>
      </trkpt>
      <trkpt lat="42.02084" lon="0.963">
        <ele>1599.013</ele>
        <time>2013-07-13T08:10:34Z</time>
      </trkpt>
      <trkpt lat="42.02079" lon="0.96319">
        <ele>1595.608</ele>
        <time>2013-07-13T08:10:41Z</time>
      </trkpt>
      <trkpt lat="42.02067" lon="0.96364">
        <ele>1594.228</ele>
        <time>2017-11-29T09:26:24Z</time>
      </trkpt>
      <trkpt lat="42.02064" lon="0.9638">
        <ele>1596.187</ele>
        <time>2017-11-29T09:26:44Z</time>
      </trkpt>
      <trkpt lat="42.02064" lon="0.96381">
        <ele>1596.248</ele>
        <time>2017-11-29T09:27:04Z</time>
      </trkpt>
      <trkpt lat="42.02056" lon="0.96401">
        <ele>1600.32</ele>
        <time>2017-11-29T09:27:24Z</time>
      </trkpt>
      <trkpt lat="42.02054" lon="0.96404">
        <ele>1600.963</ele>
        <time>2017-11-29T09:27:44Z</time>
      </trkpt>
      <trkpt lat="42.02043" lon="0.96434">
        <ele>1608.084</ele>
        <time>2017-11-29T09:28:04Z</time>
      </trkpt>
      <trkpt lat="42.02039" lon="0.96466">
        <ele>1614.131</ele>
        <time>2017-11-29T09:28:24Z</time>
      </trkpt>
      <trkpt lat="42.02033" lon="0.965">
        <ele>1620.755</ele>
        <time>2017-11-29T09:28:44Z</time>
      </trkpt>
      <trkpt lat="42.0203" lon="0.96501">
        <ele>1621.635</ele>
        <time>2017-11-29T09:29:04Z</time>
      </trkpt>
      <trkpt lat="42.02028" lon="0.96532">
        <ele>1626.686</ele>
        <time>2017-11-29T09:29:24Z</time>
      </trkpt>
      <trkpt lat="42.02024" lon="0.96565">
        <ele>1632.014</ele>
        <time>2017-11-29T09:29:44Z</time>
      </trkpt>
      <trkpt lat="42.02023" lon="0.96566">
        <ele>1632.308</ele>
        <time>2017-11-29T09:30:04Z</time>
      </trkpt>
      <trkpt lat="42.02018" lon="0.9659">
        <ele>1636.235</ele>
        <time>2017-11-29T09:30:24Z</time>
      </trkpt>
      <trkpt lat="42.02018" lon="0.96592">
        <ele>1636.394</ele>
        <time>2017-11-29T09:30:44Z</time>
      </trkpt>
      <trkpt lat="42.02016" lon="0.96613">
        <ele>1639.085</ele>
        <time>2017-11-29T09:31:04Z</time>
      </trkpt>
      <trkpt lat="42.02016" lon="0.9666">
        <ele>1643.977</ele>
        <time>2017-11-29T09:31:24Z</time>
      </trkpt>
      <trkpt lat="42.02014" lon="0.96684">
        <ele>1644.87</ele>
        <time>2017-11-29T09:31:44Z</time>
      </trkpt>
      <trkpt lat="42.02013" lon="0.96711">
        <ele>1645.521</ele>
        <time>2009-02-28T10:54:07Z</time>
      </trkpt>
      <trkpt lat="42.0201" lon="0.96727">
        <ele>1645.998</ele>
        <time>2009-02-28T10:53:55Z</time>
      </trkpt>
      <trkpt lat="42.0201" lon="0.96729">
        <ele>1646.042</ele>
        <time>2009-02-28T10:53:53Z</time>
      </trkpt>
      <trkpt lat="42.02009" lon="0.96733">
        <ele>1646.225</ele>
        <time>2009-02-28T10:53:48Z</time>
      </trkpt>
      <trkpt lat="42.02008" lon="0.96745">
        <ele>1646.726</ele>
        <time>2009-02-28T10:53:36Z</time>
      </trkpt>
      <trkpt lat="42.02006" lon="0.96748">
        <ele>1646.908</ele>
        <time>2009-02-28T10:53:20Z</time>
      </trkpt>
      <trkpt lat="42.02007" lon="0.96751">
        <ele>1647.008</ele>
        <time>2009-02-28T10:53:08Z</time>
      </trkpt>
      <trkpt lat="42.02007" lon="0.96764">
        <ele>1646.984</ele>
        <time>2009-02-28T10:52:57Z</time>
      </trkpt>
      <trkpt lat="42.02005" lon="0.96773">
        <ele>1646.823</ele>
        <time>2009-02-28T10:52:51Z</time>
      </trkpt>
      <trkpt lat="42.02005" lon="0.96788">
        <ele>1646.714</ele>
        <time>2009-02-28T10:52:41Z</time>
      </trkpt>
      <trkpt lat="42.02003" lon="0.96798">
        <ele>1646.716</ele>
        <time>2009-02-28T10:52:34Z</time>
      </trkpt>
      <trkpt lat="42.01998" lon="0.96807">
        <ele>1646.079</ele>
        <time>2009-02-28T10:52:27Z</time>
      </trkpt>
      <trkpt lat="42.01998" lon="0.96808">
        <ele>1645.85</ele>
        <time>2009-02-28T10:52:26Z</time>
      </trkpt>
      <trkpt lat="42.01993" lon="0.96824">
        <ele>1643.767</ele>
        <time>2009-02-28T10:52:13Z</time>
      </trkpt>
      <trkpt lat="42.01992" lon="0.96842">
        <ele>1642.651</ele>
        <time>2009-02-28T10:52:00Z</time>
      </trkpt>
      <trkpt lat="42.01994" lon="0.96862">
        <ele>1641.619</ele>
        <time>2009-02-28T10:51:47Z</time>
      </trkpt>
      <trkpt lat="42.01995" lon="0.96867">
        <ele>1641.409</ele>
        <time>2009-02-28T10:51:44Z</time>
      </trkpt>
      <trkpt lat="42.01999" lon="0.96884">
        <ele>1641.019</ele>
        <time>2009-02-28T10:51:31Z</time>
      </trkpt>
      <trkpt lat="42.02001" lon="0.96897">
        <ele>1639.808</ele>
        <time>2009-02-28T10:51:21Z</time>
      </trkpt>
      <trkpt lat="42.02001" lon="0.96898">
        <ele>1639.643</ele>
        <time>2009-02-28T10:51:20Z</time>
      </trkpt>
      <trkpt lat="42.02007" lon="0.96918">
        <ele>1636.662</ele>
        <time>2009-02-28T10:51:07Z</time>
      </trkpt>
      <trkpt lat="42.02008" lon="0.9693">
        <ele>1634.243</ele>
        <time>2009-02-28T10:50:57Z</time>
      </trkpt>
      <trkpt lat="42.02009" lon="0.96931">
        <ele>1634.045</ele>
        <time>2009-02-28T10:50:56Z</time>
      </trkpt>
      <trkpt lat="42.02013" lon="0.96952">
        <ele>1630.658</ele>
        <time>2009-02-28T10:50:41Z</time>
      </trkpt>
      <trkpt lat="42.02013" lon="0.96954">
        <ele>1630.129</ele>
        <time>2009-02-28T10:50:39Z</time>
      </trkpt>
      <trkpt lat="42.02017" lon="0.96971">
        <ele>1628.186</ele>
        <time>2009-02-28T10:50:25Z</time>
      </trkpt>
      <trkpt lat="42.02019" lon="0.96977">
        <ele>1627.63</ele>
        <time>2009-02-28T10:50:21Z</time>
      </trkpt>
      <trkpt lat="42.02022" lon="0.96993">
        <ele>1626.515</ele>
        <time>2009-02-28T10:50:09Z</time>
      </trkpt>
      <trkpt lat="42.02023" lon="0.96993">
        <ele>1626.565</ele>
        <time>2009-02-28T10:50:08Z</time>
      </trkpt>
      <trkpt lat="42.02023" lon="0.96994">
        <ele>1626.511</ele>
        <time>2009-02-28T10:50:05Z</time>
      </trkpt>
      <trkpt lat="42.02026" lon="0.97003">
        <ele>1626.708</ele>
        <time>2009-02-28T10:49:56Z</time>
      </trkpt>
      <trkpt lat="42.0203" lon="0.97024">
        <ele>1624.413</ele>
        <time>2009-02-28T10:49:42Z</time>
      </trkpt>
      <trkpt lat="42.02031" lon="0.97027">
        <ele>1623.982</ele>
        <time>2009-02-28T10:49:39Z</time>
      </trkpt>
      <trkpt lat="42.02031" lon="0.97029">
        <ele>1623.663</ele>
        <time>2009-02-28T10:49:37Z</time>
      </trkpt>
      <trkpt lat="42.02033" lon="0.97041">
        <ele>1622.485</ele>
        <time>2009-02-28T10:49:30Z</time>
      </trkpt>
      <trkpt lat="42.02034" lon="0.97048">
        <ele>1621.718</ele>
        <time>2009-02-28T10:49:26Z</time>
      </trkpt>
      <trkpt lat="42.02037" lon="0.97068">
        <ele>1620.069</ele>
        <time>2009-02-28T10:49:14Z</time>
      </trkpt>
      <trkpt lat="42.02039" lon="0.97081">
        <ele>1619.026</ele>
        <time>2009-02-28T10:49:05Z</time>
      </trkpt>
      <trkpt lat="42.02041" lon="0.97087">
        <ele>1618.84</ele>
        <time>2009-02-28T10:48:49Z</time>
      </trkpt>
      <trkpt lat="42.02044" lon="0.97104">
        <ele>1618.225</ele>
        <time>2009-02-28T10:48:37Z</time>
      </trkpt>
      <trkpt lat="42.02045" lon="0.97124">
        <ele>1618.126</ele>
        <time>2009-02-28T10:48:24Z</time>
      </trkpt>
      <trkpt lat="42.02049" lon="0.97144">
        <ele>1619.108</ele>
        <time>2009-02-28T10:48:11Z</time>
      </trkpt>
      <trkpt lat="42.02051" lon="0.97151">
        <ele>1619.908</ele>
        <time>2009-02-28T10:48:00Z</time>
      </trkpt>
      <trkpt lat="42.02053" lon="0.97168">
        <ele>1621.274</ele>
        <time>2009-02-28T10:47:50Z</time>
      </trkpt>
      <trkpt lat="42.02056" lon="0.97176">
        <ele>1622.913</ele>
        <time>2009-02-28T10:47:44Z</time>
      </trkpt>
      <trkpt lat="42.02057" lon="0.97179">
        <ele>1623.264</ele>
        <time>2009-02-28T10:47:42Z</time>
      </trkpt>
      <trkpt lat="42.02063" lon="0.97199">
        <ele>1624.646</ele>
        <time>2009-02-28T10:47:30Z</time>
      </trkpt>
      <trkpt lat="42.02066" lon="0.97206">
        <ele>1624.999</ele>
        <time>2009-02-28T10:47:24Z</time>
      </trkpt>
      <trkpt lat="42.02066" lon="0.97207">
        <ele>1625.02</ele>
        <time>2009-02-28T10:47:23Z</time>
      </trkpt>
      <trkpt lat="42.02069" lon="0.9722">
        <ele>1625.827</ele>
        <time>2009-02-28T10:47:15Z</time>
      </trkpt>
      <trkpt lat="42.02064" lon="0.97227">
        <ele>1626.871</ele>
        <time>2009-02-28T10:47:08Z</time>
      </trkpt>
      <trkpt lat="42.02064" lon="0.97242">
        <ele>1628.057</ele>
        <time>2009-02-28T10:46:59Z</time>
      </trkpt>
      <trkpt lat="42.02062" lon="0.97249">
        <ele>1628.7</ele>
        <time>2009-02-28T10:46:54Z</time>
      </trkpt>
      <trkpt lat="42.02063" lon="0.97252">
        <ele>1628.82</ele>
        <time>2009-02-28T10:46:52Z</time>
      </trkpt>
      <trkpt lat="42.02066" lon="0.97266">
        <ele>1629.208</ele>
        <time>2009-02-28T10:46:44Z</time>
      </trkpt>
      <trkpt lat="42.02066" lon="0.97269">
        <ele>1629.347</ele>
        <time>2009-02-28T10:46:42Z</time>
      </trkpt>
      <trkpt lat="42.02066" lon="0.97279">
        <ele>1629.766</ele>
        <time>2009-02-28T10:46:36Z</time>
      </trkpt>
      <trkpt lat="42.02066" lon="0.97289">
        <ele>1630.547</ele>
        <time>2009-02-28T10:46:30Z</time>
      </trkpt>
      <trkpt lat="42.02066" lon="0.97295">
        <ele>1631.019</ele>
        <time>2009-02-28T10:46:27Z</time>
      </trkpt>
      <trkpt lat="42.02065" lon="0.97308">
        <ele>1631.972</ele>
        <time>2009-02-28T10:46:19Z</time>
      </trkpt>
      <trkpt lat="42.02066" lon="0.97318">
        <ele>1631.473</ele>
        <time>2009-02-28T10:46:12Z</time>
      </trkpt>
      <trkpt lat="42.02061" lon="0.97326">
        <ele>1631.75</ele>
        <time>2009-02-28T10:46:04Z</time>
      </trkpt>
      <trkpt lat="42.02061" lon="0.97328">
        <ele>1631.694</ele>
        <time>2009-02-28T10:46:02Z</time>
      </trkpt>
      <trkpt lat="42.02065" lon="0.97347">
        <ele>1628.542</ele>
        <time>2009-02-28T10:45:47Z</time>
      </trkpt>
      <trkpt lat="42.0207" lon="0.97368">
        <ele>1625.922</ele>
        <time>2009-02-28T10:45:32Z</time>
      </trkpt>
      <trkpt lat="42.0207" lon="0.9737">
        <ele>1625.814</ele>
        <time>2009-02-28T10:45:31Z</time>
      </trkpt>
      <trkpt lat="42.02071" lon="0.97373">
        <ele>1625.708</ele>
        <time>2009-02-28T10:45:28Z</time>
      </trkpt>
      <trkpt lat="42.02075" lon="0.97376">
        <ele>1626.186</ele>
        <time>2009-02-28T10:45:24Z</time>
      </trkpt>
      <trkpt lat="42.02075" lon="0.97393">
        <ele>1624.865</ele>
        <time>2009-02-28T10:45:13Z</time>
      </trkpt>
      <trkpt lat="42.02074" lon="0.97404">
        <ele>1623.886</ele>
        <time>2009-02-28T10:45:06Z</time>
      </trkpt>
      <trkpt lat="42.02073" lon="0.97409">
        <ele>1623.288</ele>
        <time>2009-02-28T10:45:03Z</time>
      </trkpt>
      <trkpt lat="42.02076" lon="0.97425">
        <ele>1622.871</ele>
        <time>2009-02-28T10:44:48Z</time>
      </trkpt>
      <trkpt lat="42.02077" lon="0.97429">
        <ele>1622.932</ele>
        <time>2009-02-28T10:44:43Z</time>
      </trkpt>
      <trkpt lat="42.02082" lon="0.97443">
        <ele>1625.279</ele>
        <time>2009-02-28T10:44:31Z</time>
      </trkpt>
      <trkpt lat="42.02084" lon="0.97456">
        <ele>1624.233</ele>
        <time>2009-02-28T10:44:22Z</time>
      </trkpt>
      <trkpt lat="42.02088" lon="0.97465">
        <ele>1622.477</ele>
        <time>2009-02-28T10:44:13Z</time>
      </trkpt>
      <trkpt lat="42.02088" lon="0.97469">
        <ele>1622.161</ele>
        <time>2009-02-28T10:44:10Z</time>
      </trkpt>
      <trkpt lat="42.02088" lon="0.97471">
        <ele>1621.827</ele>
        <time>2009-02-28T10:44:08Z</time>
      </trkpt>
      <trkpt lat="42.02088" lon="0.97475">
        <ele>1621.008</ele>
        <time>2009-02-28T10:44:05Z</time>
      </trkpt>
      <trkpt lat="42.02093" lon="0.97487">
        <ele>1618.749</ele>
        <time>2009-02-28T10:43:56Z</time>
      </trkpt>
      <trkpt lat="42.02095" lon="0.97499">
        <ele>1616.858</ele>
        <time>2009-02-28T10:43:48Z</time>
      </trkpt>
      <trkpt lat="42.02095" lon="0.97503">
        <ele>1616.579</ele>
        <time>2009-02-28T10:43:45Z</time>
      </trkpt>
      <trkpt lat="42.02096" lon="0.97505">
        <ele>1616.541</ele>
        <time>2009-02-28T10:43:43Z</time>
      </trkpt>
      <trkpt lat="42.02097" lon="0.97507">
        <ele>1616.684</ele>
        <time>2009-02-28T10:43:42Z</time>
      </trkpt>
      <trkpt lat="42.02097" lon="0.97507">
        <ele>1616.625</ele>
        <time>2009-02-28T10:43:41Z</time>
      </trkpt>
      <trkpt lat="42.021" lon="0.9751">
        <ele>1616.852</ele>
        <time>2009-02-28T10:43:37Z</time>
      </trkpt>
      <trkpt lat="42.02103" lon="0.97512">
        <ele>1617.336</ele>
        <time>2009-02-28T10:43:33Z</time>
      </trkpt>
      <trkpt lat="42.02105" lon="0.97517">
        <ele>1617.312</ele>
        <time>2009-02-28T10:43:29Z</time>
      </trkpt>
      <trkpt lat="42.02096" lon="0.97541">
        <ele>1615.832</ele>
        <time>2009-02-28T10:43:13Z</time>
      </trkpt>
      <trkpt lat="42.02095" lon="0.97548">
        <ele>1616.105</ele>
        <time>2009-02-28T10:43:09Z</time>
      </trkpt>
      <trkpt lat="42.02093" lon="0.97556">
        <ele>1616.408</ele>
        <time>2009-02-28T10:43:04Z</time>
      </trkpt>
      <trkpt lat="42.02091" lon="0.97562">
        <ele>1616.633</ele>
        <time>2009-02-28T10:43:00Z</time>
      </trkpt>
      <trkpt lat="42.0209" lon="0.97564">
        <ele>1616.712</ele>
        <time>2009-02-28T10:42:58Z</time>
      </trkpt>
      <trkpt lat="42.02087" lon="0.97574">
        <ele>1617.663</ele>
        <time>2009-02-28T10:42:52Z</time>
      </trkpt>
      <trkpt lat="42.02086" lon="0.97576">
        <ele>1617.815</ele>
        <time>2009-02-28T10:42:51Z</time>
      </trkpt>
      <trkpt lat="42.02084" lon="0.97579">
        <ele>1618.528</ele>
        <time>2009-02-28T10:42:48Z</time>
      </trkpt>
      <trkpt lat="42.02081" lon="0.97593">
        <ele>1617.089</ele>
        <time>2009-02-28T10:42:37Z</time>
      </trkpt>
      <trkpt lat="42.02082" lon="0.97606">
        <ele>1616.956</ele>
        <time>2009-02-28T10:42:28Z</time>
      </trkpt>
      <trkpt lat="42.02081" lon="0.97612">
        <ele>1615.72</ele>
        <time>2009-02-28T10:42:24Z</time>
      </trkpt>
      <trkpt lat="42.02081" lon="0.97617">
        <ele>1614.947</ele>
        <time>2009-02-28T10:42:20Z</time>
      </trkpt>
      <trkpt lat="42.02082" lon="0.97634">
        <ele>1612.029</ele>
        <time>2009-02-28T10:42:04Z</time>
      </trkpt>
      <trkpt lat="42.0208" lon="0.9765">
        <ele>1609.121</ele>
        <time>2009-02-28T10:41:52Z</time>
      </trkpt>
      <trkpt lat="42.0208" lon="0.97652">
        <ele>1608.508</ele>
        <time>2009-02-28T10:41:49Z</time>
      </trkpt>
      <trkpt lat="42.02079" lon="0.97654">
        <ele>1608.046</ele>
        <time>2009-02-28T10:41:47Z</time>
      </trkpt>
      <trkpt lat="42.02079" lon="0.97661">
        <ele>1607.215</ele>
        <time>2009-02-28T10:41:42Z</time>
      </trkpt>
      <trkpt lat="42.0208" lon="0.97667">
        <ele>1607.246</ele>
        <time>2009-02-28T10:41:38Z</time>
      </trkpt>
      <trkpt lat="42.0208" lon="0.97674">
        <ele>1606.998</ele>
        <time>2009-02-28T10:41:34Z</time>
      </trkpt>
      <trkpt lat="42.02081" lon="0.97699">
        <ele>1605.591</ele>
        <time>2009-02-28T10:41:17Z</time>
      </trkpt>
      <trkpt lat="42.0208" lon="0.977">
        <ele>1605.442</ele>
        <time>2009-02-28T10:41:16Z</time>
      </trkpt>
      <trkpt lat="42.0208" lon="0.97704">
        <ele>1604.959</ele>
        <time>2009-02-28T10:41:13Z</time>
      </trkpt>
      <trkpt lat="42.0208" lon="0.97722">
        <ele>1603.463</ele>
        <time>2009-02-28T10:41:02Z</time>
      </trkpt>
      <trkpt lat="42.0208" lon="0.97723">
        <ele>1603.354</ele>
        <time>2009-02-28T10:41:01Z</time>
      </trkpt>
      <trkpt lat="42.0208" lon="0.97728">
        <ele>1603.356</ele>
        <time>2009-02-28T10:40:57Z</time>
      </trkpt>
      <trkpt lat="42.02079" lon="0.97734">
        <ele>1603.011</ele>
        <time>2009-02-28T10:40:53Z</time>
      </trkpt>
      <trkpt lat="42.0208" lon="0.97736">
        <ele>1602.908</ele>
        <time>2009-02-28T10:40:52Z</time>
      </trkpt>
      <trkpt lat="42.02078" lon="0.97753">
        <ele>1601.987</ele>
        <time>2009-02-28T10:40:39Z</time>
      </trkpt>
      <trkpt lat="42.02077" lon="0.97763">
        <ele>1601.786</ele>
        <time>2009-02-28T10:40:32Z</time>
      </trkpt>
      <trkpt lat="42.0208" lon="0.97777">
        <ele>1602.417</ele>
        <time>2009-02-28T10:40:23Z</time>
      </trkpt>
      <trkpt lat="42.02081" lon="0.97785">
        <ele>1601.769</ele>
        <time>2009-02-28T10:40:18Z</time>
      </trkpt>
      <trkpt lat="42.02083" lon="0.9779">
        <ele>1601.152</ele>
        <time>2009-02-28T10:40:14Z</time>
      </trkpt>
      <trkpt lat="42.02086" lon="0.97808">
        <ele>1598.353</ele>
        <time>2009-02-28T10:40:02Z</time>
      </trkpt>
      <trkpt lat="42.02087" lon="0.97809">
        <ele>1598.16</ele>
        <time>2009-02-28T10:40:01Z</time>
      </trkpt>
      <trkpt lat="42.02086" lon="0.97821">
        <ele>1596.224</ele>
        <time>2009-02-28T10:39:42Z</time>
      </trkpt>
      <trkpt lat="42.02094" lon="0.97837">
        <ele>1594.823</ele>
        <time>2009-02-28T10:39:30Z</time>
      </trkpt>
      <trkpt lat="42.02098" lon="0.97843">
        <ele>1595.183</ele>
        <time>2009-02-28T10:39:26Z</time>
      </trkpt>
      <trkpt lat="42.02098" lon="0.97845">
        <ele>1595.011</ele>
        <time>2009-02-28T10:39:25Z</time>
      </trkpt>
      <trkpt lat="42.02098" lon="0.97864">
        <ele>1594.308</ele>
        <time>2009-02-28T10:39:12Z</time>
      </trkpt>
      <trkpt lat="42.02097" lon="0.97875">
        <ele>1592.754</ele>
        <time>2009-02-28T10:39:06Z</time>
      </trkpt>
      <trkpt lat="42.021" lon="0.97882">
        <ele>1594.053</ele>
        <time>2009-02-28T10:39:01Z</time>
      </trkpt>
      <trkpt lat="42.021" lon="0.9789">
        <ele>1593.154</ele>
        <time>2009-02-28T10:38:56Z</time>
      </trkpt>
      <trkpt lat="42.02102" lon="0.97894">
        <ele>1594.986</ele>
        <time>2009-02-28T10:38:50Z</time>
      </trkpt>
      <trkpt lat="42.02102" lon="0.97901">
        <ele>1594.729</ele>
        <time>2009-02-28T10:38:45Z</time>
      </trkpt>
      <trkpt lat="42.02105" lon="0.9791">
        <ele>1598.11</ele>
        <time>2009-02-28T10:38:38Z</time>
      </trkpt>
      <trkpt lat="42.02106" lon="0.97926">
        <ele>1599.377</ele>
        <time>2009-02-28T10:38:27Z</time>
      </trkpt>
      <trkpt lat="42.02107" lon="0.9794">
        <ele>1601.381</ele>
        <time>2009-02-28T10:38:13Z</time>
      </trkpt>
      <trkpt lat="42.02108" lon="0.97954">
        <ele>1602.146</ele>
        <time>2009-02-28T10:38:05Z</time>
      </trkpt>
      <trkpt lat="42.02108" lon="0.97959">
        <ele>1602.488</ele>
        <time>2009-02-28T10:37:58Z</time>
      </trkpt>
      <trkpt lat="42.02108" lon="0.97974">
        <ele>1600.616</ele>
        <time>2009-02-28T10:37:47Z</time>
      </trkpt>
      <trkpt lat="42.02109" lon="0.97983">
        <ele>1602.308</ele>
        <time>2009-02-28T10:37:36Z</time>
      </trkpt>
      <trkpt lat="42.0211" lon="0.97985">
        <ele>1604.026</ele>
        <time>2009-02-28T10:37:34Z</time>
      </trkpt>
      <trkpt lat="42.02117" lon="0.98004">
        <ele>1604.085</ele>
        <time>2009-02-28T10:37:21Z</time>
      </trkpt>
      <trkpt lat="42.02119" lon="0.98014">
        <ele>1603.346</ele>
        <time>2009-02-28T10:37:15Z</time>
      </trkpt>
      <trkpt lat="42.02125" lon="0.98035">
        <ele>1601.218</ele>
        <time>2009-02-28T10:36:59Z</time>
      </trkpt>
      <trkpt lat="42.02125" lon="0.98036">
        <ele>1600.751</ele>
        <time>2009-02-28T10:36:58Z</time>
      </trkpt>
      <trkpt lat="42.02131" lon="0.98053">
        <ele>1599.952</ele>
        <time>2009-02-28T10:36:47Z</time>
      </trkpt>
      <trkpt lat="42.02136" lon="0.98062">
        <ele>1600.729</ele>
        <time>2009-02-28T10:36:38Z</time>
      </trkpt>
      <trkpt lat="42.02138" lon="0.98065">
        <ele>1600.923</ele>
        <time>2009-02-28T10:36:35Z</time>
      </trkpt>
      <trkpt lat="42.02139" lon="0.98068">
        <ele>1601.256</ele>
        <time>2009-02-28T10:36:32Z</time>
      </trkpt>
      <trkpt lat="42.0214" lon="0.98081">
        <ele>1598.459</ele>
        <time>2009-02-28T10:36:08Z</time>
      </trkpt>
      <trkpt lat="42.02142" lon="0.98084">
        <ele>1597.514</ele>
        <time>2009-02-28T10:36:02Z</time>
      </trkpt>
      <trkpt lat="42.02143" lon="0.98087">
        <ele>1595.708</ele>
        <time>2009-02-28T10:35:58Z</time>
      </trkpt>
      <trkpt lat="42.02148" lon="0.98092">
        <ele>1593.647</ele>
        <time>2009-02-28T10:35:45Z</time>
      </trkpt>
      <trkpt lat="42.02155" lon="0.98105">
        <ele>1591.246</ele>
        <time>2009-02-28T10:35:31Z</time>
      </trkpt>
      <trkpt lat="42.02156" lon="0.98109">
        <ele>1590.387</ele>
        <time>2009-02-28T10:35:26Z</time>
      </trkpt>
      <trkpt lat="42.02156" lon="0.98114">
        <ele>1589.359</ele>
        <time>2009-02-28T10:35:22Z</time>
      </trkpt>
      <trkpt lat="42.02157" lon="0.98115">
        <ele>1589.242</ele>
        <time>2009-02-28T10:35:21Z</time>
      </trkpt>
      <trkpt lat="42.02165" lon="0.98125">
        <ele>1590.833</ele>
        <time>2009-02-28T10:35:10Z</time>
      </trkpt>
      <trkpt lat="42.0217" lon="0.98138">
        <ele>1588.64</ele>
        <time>2009-02-28T10:34:56Z</time>
      </trkpt>
      <trkpt lat="42.02172" lon="0.98149">
        <ele>1587.894</ele>
        <time>2009-02-28T10:34:47Z</time>
      </trkpt>
      <trkpt lat="42.02172" lon="0.98158">
        <ele>1587.367</ele>
        <time>2009-02-28T10:34:38Z</time>
      </trkpt>
      <trkpt lat="42.02166" lon="0.98165">
        <ele>1587.981</ele>
        <time>2009-02-28T10:34:32Z</time>
      </trkpt>
      <trkpt lat="42.02162" lon="0.98168">
        <ele>1587.219</ele>
        <time>2009-02-28T10:34:28Z</time>
      </trkpt>
      <trkpt lat="42.02156" lon="0.98167">
        <ele>1586.008</ele>
        <time>2009-02-28T10:34:21Z</time>
      </trkpt>
      <trkpt lat="42.02153" lon="0.98165">
        <ele>1585.138</ele>
        <time>2009-02-28T10:34:16Z</time>
      </trkpt>
      <trkpt lat="42.02148" lon="0.9817">
        <ele>1585.387</ele>
        <time>2009-02-28T10:34:05Z</time>
      </trkpt>
      <trkpt lat="42.02145" lon="0.98175">
        <ele>1586.498</ele>
        <time>2009-02-28T10:33:58Z</time>
      </trkpt>
      <trkpt lat="42.02132" lon="0.98189">
        <ele>1589.32</ele>
        <time>2009-02-28T10:33:44Z</time>
      </trkpt>
      <trkpt lat="42.02127" lon="0.98194">
        <ele>1591.093</ele>
        <time>2009-02-28T10:33:39Z</time>
      </trkpt>
      <trkpt lat="42.02119" lon="0.98199">
        <ele>1590.514</ele>
        <time>2009-02-28T10:33:28Z</time>
      </trkpt>
      <trkpt lat="42.02111" lon="0.98211">
        <ele>1592.091</ele>
        <time>2009-02-28T10:33:16Z</time>
      </trkpt>
      <trkpt lat="42.0211" lon="0.98212">
        <ele>1590.795</ele>
        <time>2009-02-28T10:33:12Z</time>
      </trkpt>
      <trkpt lat="42.02109" lon="0.9822">
        <ele>1588.333</ele>
        <time>2009-02-28T10:32:58Z</time>
      </trkpt>
      <trkpt lat="42.02109" lon="0.98237">
        <ele>1586.723</ele>
        <time>2009-02-28T10:32:43Z</time>
      </trkpt>
      <trkpt lat="42.0211" lon="0.98239">
        <ele>1587.415</ele>
        <time>2009-02-28T10:32:42Z</time>
      </trkpt>
      <trkpt lat="42.02112" lon="0.9826">
        <ele>1583.708</ele>
        <time>2009-02-28T10:32:27Z</time>
      </trkpt>
      <trkpt lat="42.02116" lon="0.98277">
        <ele>1577.365</ele>
        <time>2009-02-28T10:32:15Z</time>
      </trkpt>
      <trkpt lat="42.02116" lon="0.98281">
        <ele>1574.444</ele>
        <time>2009-02-28T10:31:51Z</time>
      </trkpt>
      <trkpt lat="42.02122" lon="0.98288">
        <ele>1571.735</ele>
        <time>2009-02-28T10:31:39Z</time>
      </trkpt>
      <trkpt lat="42.0213" lon="0.98295">
        <ele>1571.727</ele>
        <time>2009-02-28T10:31:09Z</time>
      </trkpt>
      <trkpt lat="42.0213" lon="0.98295">
        <ele>1571.78</ele>
        <time>2009-02-28T10:31:06Z</time>
      </trkpt>
      <trkpt lat="42.0213" lon="0.98299">
        <ele>1570.111</ele>
        <time>2009-02-28T10:30:48Z</time>
      </trkpt>
      <trkpt lat="42.0213" lon="0.983">
        <ele>1570.018</ele>
        <time>2009-02-28T10:30:47Z</time>
      </trkpt>
      <trkpt lat="42.02134" lon="0.98308">
        <ele>1569.682</ele>
        <time>2009-02-28T10:30:35Z</time>
      </trkpt>
      <trkpt lat="42.02134" lon="0.98309">
        <ele>1569.735</ele>
        <time>2009-02-28T10:30:34Z</time>
      </trkpt>
      <trkpt lat="42.02138" lon="0.98317">
        <ele>1569.786</ele>
        <time>2009-02-28T10:30:25Z</time>
      </trkpt>
      <trkpt lat="42.0214" lon="0.98318">
        <ele>1569.614</ele>
        <time>2009-02-28T10:30:23Z</time>
      </trkpt>
      <trkpt lat="42.02145" lon="0.98323">
        <ele>1567.008</ele>
        <time>2009-02-28T10:30:16Z</time>
      </trkpt>
      <trkpt lat="42.02153" lon="0.98335">
        <ele>1562.415</ele>
        <time>2009-02-28T10:30:00Z</time>
      </trkpt>
      <trkpt lat="42.02154" lon="0.98336">
        <ele>1561.674</ele>
        <time>2009-02-28T10:29:28Z</time>
      </trkpt>
      <trkpt lat="42.02154" lon="0.98342">
        <ele>1558.965</ele>
        <time>2009-02-28T10:29:13Z</time>
      </trkpt>
      <trkpt lat="42.02158" lon="0.98348">
        <ele>1557.367</ele>
        <time>2009-02-28T10:28:59Z</time>
      </trkpt>
      <trkpt lat="42.0216" lon="0.98355">
        <ele>1555.92</ele>
        <time>2009-02-28T10:28:49Z</time>
      </trkpt>
      <trkpt lat="42.0216" lon="0.98362">
        <ele>1553.461</ele>
        <time>2009-02-28T10:28:38Z</time>
      </trkpt>
      <trkpt lat="42.02159" lon="0.98367">
        <ele>1550.338</ele>
        <time>2009-02-28T10:28:24Z</time>
      </trkpt>
      <trkpt lat="42.02163" lon="0.98378">
        <ele>1548.632</ele>
        <time>2009-02-28T10:27:50Z</time>
      </trkpt>
      <trkpt lat="42.02169" lon="0.98385">
        <ele>1549.237</ele>
        <time>2009-02-28T10:27:36Z</time>
      </trkpt>
      <trkpt lat="42.02173" lon="0.98396">
        <ele>1544.849</ele>
        <time>2009-02-28T10:27:23Z</time>
      </trkpt>
      <trkpt lat="42.02173" lon="0.98398">
        <ele>1544.013</ele>
        <time>2009-02-28T10:27:21Z</time>
      </trkpt>
      <trkpt lat="42.02179" lon="0.98407">
        <ele>1541.408</ele>
        <time>2009-02-28T10:27:10Z</time>
      </trkpt>
      <trkpt lat="42.02181" lon="0.98408">
        <ele>1541.325</ele>
        <time>2009-02-28T10:27:08Z</time>
      </trkpt>
      <trkpt lat="42.02188" lon="0.98415">
        <ele>1540.814</ele>
        <time>2009-02-28T10:26:42Z</time>
      </trkpt>
      <trkpt lat="42.02188" lon="0.98417">
        <ele>1540.625</ele>
        <time>2009-02-28T10:26:21Z</time>
      </trkpt>
      <trkpt lat="42.02188" lon="0.98423">
        <ele>1540.197</ele>
        <time>2009-02-28T10:26:13Z</time>
      </trkpt>
      <trkpt lat="42.02184" lon="0.98429">
        <ele>1538.63</ele>
        <time>2009-02-28T10:25:14Z</time>
      </trkpt>
      <trkpt lat="42.02185" lon="0.98436">
        <ele>1538.011</ele>
        <time>2009-02-28T10:24:58Z</time>
      </trkpt>
      <trkpt lat="42.02183" lon="0.98453">
        <ele>1536.518</ele>
        <time>2009-02-28T10:24:41Z</time>
      </trkpt>
      <trkpt lat="42.02178" lon="0.9847">
        <ele>1535.022</ele>
        <time>2009-02-28T10:24:23Z</time>
      </trkpt>
      <trkpt lat="42.02171" lon="0.98467">
        <ele>1533.618</ele>
        <time>2009-02-28T10:24:00Z</time>
      </trkpt>
      <trkpt lat="42.02171" lon="0.98466">
        <ele>1533.698</ele>
        <time>2009-02-28T10:23:58Z</time>
      </trkpt>
      <trkpt lat="42.02168" lon="0.98464">
        <ele>1532.917</ele>
        <time>2009-02-28T10:23:47Z</time>
      </trkpt>
      <trkpt lat="42.02168" lon="0.98464">
        <ele>1532.908</ele>
        <time>2009-02-28T10:23:46Z</time>
      </trkpt>
      <trkpt lat="42.02165" lon="0.98463">
        <ele>1531.333</ele>
        <time>2009-02-28T10:23:25Z</time>
      </trkpt>
      <trkpt lat="42.02162" lon="0.98464">
        <ele>1528.932</ele>
        <time>2009-02-28T10:22:48Z</time>
      </trkpt>
      <trkpt lat="42.02158" lon="0.98463">
        <ele>1526.013</ele>
        <time>2009-02-28T10:22:33Z</time>
      </trkpt>
      <trkpt lat="42.02152" lon="0.98461">
        <ele>1521.345</ele>
        <time>2009-02-28T10:22:18Z</time>
      </trkpt>
      <trkpt lat="42.02151" lon="0.98461">
        <ele>1520.858</ele>
        <time>2009-02-28T10:22:07Z</time>
      </trkpt>
      <trkpt lat="42.02149" lon="0.98451">
        <ele>1518.579</ele>
        <time>2009-02-28T10:21:50Z</time>
      </trkpt>
      <trkpt lat="42.02145" lon="0.98439">
        <ele>1515.056</ele>
        <time>2009-02-28T10:21:12Z</time>
      </trkpt>
      <trkpt lat="42.02141" lon="0.98437">
        <ele>1512.75</ele>
        <time>2009-02-28T10:20:57Z</time>
      </trkpt>
      <trkpt lat="42.02142" lon="0.98446">
        <ele>1512.939</ele>
        <time>2009-02-28T10:20:43Z</time>
      </trkpt>
      <trkpt lat="42.02143" lon="0.98448">
        <ele>1513.401</ele>
        <time>2009-02-28T10:20:18Z</time>
      </trkpt>
      <trkpt lat="42.02136" lon="0.98449">
        <ele>1508.621</ele>
        <time>2009-02-28T10:19:54Z</time>
      </trkpt>
      <trkpt lat="42.02129" lon="0.98446">
        <ele>1503.908</ele>
        <time>2009-02-28T10:19:44Z</time>
      </trkpt>
      <trkpt lat="42.02123" lon="0.98453">
        <ele>1500.595</ele>
        <time>2009-02-28T10:19:30Z</time>
      </trkpt>
      <trkpt lat="42.0212" lon="0.98452">
        <ele>1498.284</ele>
        <time>2009-02-28T10:19:15Z</time>
      </trkpt>
      <trkpt lat="42.02115" lon="0.98451">
        <ele>1494.825</ele>
        <time>2009-02-28T10:18:48Z</time>
      </trkpt>
      <trkpt lat="42.02107" lon="0.98448">
        <ele>1489.727</ele>
        <time>2009-02-28T10:18:27Z</time>
      </trkpt>
      <trkpt lat="42.02101" lon="0.98446">
        <ele>1485.22</ele>
        <time>2009-02-28T10:18:10Z</time>
      </trkpt>
      <trkpt lat="42.02093" lon="0.98442">
        <ele>1479.811</ele>
        <time>2009-02-28T10:17:56Z</time>
      </trkpt>
      <trkpt lat="42.0209" lon="0.98442">
        <ele>1478.228</ele>
        <time>2009-02-28T10:17:42Z</time>
      </trkpt>
      <trkpt lat="42.02087" lon="0.9845">
        <ele>1475.982</ele>
        <time>2009-02-28T10:17:28Z</time>
      </trkpt>
      <trkpt lat="42.02084" lon="0.98463">
        <ele>1473.269</ele>
        <time>2009-02-28T10:17:14Z</time>
      </trkpt>
      <trkpt lat="42.02084" lon="0.98466">
        <ele>1473.204</ele>
        <time>2009-02-28T10:16:40Z</time>
      </trkpt>
      <trkpt lat="42.02078" lon="0.98463">
        <ele>1469.524</ele>
        <time>2009-02-28T10:16:28Z</time>
      </trkpt>
      <trkpt lat="42.02073" lon="0.98453">
        <ele>1466.808</ele>
        <time>2009-02-28T10:16:11Z</time>
      </trkpt>
      <trkpt lat="42.02072" lon="0.98453">
        <ele>1465.788</ele>
        <time>2009-02-28T10:15:41Z</time>
      </trkpt>
      <trkpt lat="42.02067" lon="0.98456">
        <ele>1462.597</ele>
        <time>2009-02-28T10:15:19Z</time>
      </trkpt>
      <trkpt lat="42.02063" lon="0.98451">
        <ele>1460.358</ele>
        <time>2009-02-28T10:15:05Z</time>
      </trkpt>
      <trkpt lat="42.02057" lon="0.98449">
        <ele>1456.83</ele>
        <time>2009-02-28T10:14:46Z</time>
      </trkpt>
      <trkpt lat="42.02053" lon="0.98446">
        <ele>1454.683</ele>
        <time>2009-02-28T10:14:22Z</time>
      </trkpt>
      <trkpt lat="42.02048" lon="0.98444">
        <ele>1452.154</ele>
        <time>2009-02-28T10:14:11Z</time>
      </trkpt>
      <trkpt lat="42.02041" lon="0.98446">
        <ele>1448.131</ele>
        <time>2009-02-28T10:13:53Z</time>
      </trkpt>
      <trkpt lat="42.0204" lon="0.98452">
        <ele>1446.245</ele>
        <time>2009-02-28T10:13:39Z</time>
      </trkpt>
      <trkpt lat="42.02034" lon="0.9845">
        <ele>1443.046</ele>
        <time>2009-02-28T10:13:26Z</time>
      </trkpt>
      <trkpt lat="42.02031" lon="0.98452">
        <ele>1440.688</ele>
        <time>2009-02-28T10:12:53Z</time>
      </trkpt>
      <trkpt lat="42.02033" lon="0.98463">
        <ele>1438.916</ele>
        <time>2009-02-28T10:12:33Z</time>
      </trkpt>
      <trkpt lat="42.02033" lon="0.98469">
        <ele>1436.808</ele>
        <time>2009-02-28T10:12:22Z</time>
      </trkpt>
      <trkpt lat="42.02032" lon="0.98477">
        <ele>1435.166</ele>
        <time>2009-02-28T10:12:02Z</time>
      </trkpt>
      <trkpt lat="42.02025" lon="0.98471">
        <ele>1431.275</ele>
        <time>2009-02-28T10:11:42Z</time>
      </trkpt>
      <trkpt lat="42.02024" lon="0.98473">
        <ele>1430.396</ele>
        <time>2009-02-28T10:11:27Z</time>
      </trkpt>
      <trkpt lat="42.02014" lon="0.98477">
        <ele>1425.558</ele>
        <time>2009-02-28T10:11:12Z</time>
      </trkpt>
      <trkpt lat="42.02015" lon="0.98475">
        <ele>1426.141</ele>
        <time>2009-02-28T10:11:01Z</time>
      </trkpt>
      <trkpt lat="42.02014" lon="0.9848">
        <ele>1424.962</ele>
        <time>2009-02-28T10:10:50Z</time>
      </trkpt>
      <trkpt lat="42.02015" lon="0.98486">
        <ele>1424.769</ele>
        <time>2009-02-28T10:10:31Z</time>
      </trkpt>
      <trkpt lat="42.02015" lon="0.98496">
        <ele>1423.193</ele>
        <time>2009-02-28T10:10:15Z</time>
      </trkpt>
      <trkpt lat="42.02007" lon="0.98502">
        <ele>1417.464</ele>
        <time>2009-02-28T10:09:56Z</time>
      </trkpt>
      <trkpt lat="42.01998" lon="0.98507">
        <ele>1410.706</ele>
        <time>2009-02-28T10:09:43Z</time>
      </trkpt>
      <trkpt lat="42.01995" lon="0.98509">
        <ele>1408.316</ele>
        <time>2009-02-28T10:09:28Z</time>
      </trkpt>
      <trkpt lat="42.01995" lon="0.9851">
        <ele>1408.508</ele>
        <time>2009-02-28T10:07:22Z</time>
      </trkpt>
      <trkpt lat="42.01993" lon="0.9852">
        <ele>1406.728</ele>
        <time>2009-02-28T10:07:03Z</time>
      </trkpt>
      <trkpt lat="42.01994" lon="0.98528">
        <ele>1407.557</ele>
        <time>2009-02-28T10:06:51Z</time>
      </trkpt>
      <trkpt lat="42.0199" lon="0.98542">
        <ele>1403.048</ele>
        <time>2009-02-28T10:06:33Z</time>
      </trkpt>
      <trkpt lat="42.01985" lon="0.98549">
        <ele>1398.02</ele>
        <time>2009-02-28T10:06:18Z</time>
      </trkpt>
      <trkpt lat="42.01978" lon="0.98565">
        <ele>1392.353</ele>
        <time>2009-02-28T10:06:03Z</time>
      </trkpt>
      <trkpt lat="42.01977" lon="0.98568">
        <ele>1392.024</ele>
        <time>2009-02-28T10:06:01Z</time>
      </trkpt>
      <trkpt lat="42.01976" lon="0.98579">
        <ele>1392.311</ele>
        <time>2009-02-28T10:05:52Z</time>
      </trkpt>
      <trkpt lat="42.01977" lon="0.98598">
        <ele>1393.445</ele>
        <time>2009-02-28T10:05:39Z</time>
      </trkpt>
      <trkpt lat="42.01978" lon="0.98607">
        <ele>1394.012</ele>
        <time>2009-02-28T10:05:34Z</time>
      </trkpt>
      <trkpt lat="42.01983" lon="0.98616">
        <ele>1396.032</ele>
        <time>2009-02-28T10:05:26Z</time>
      </trkpt>
      <trkpt lat="42.01985" lon="0.98624">
        <ele>1395.805</ele>
        <time>2009-02-28T10:05:20Z</time>
      </trkpt>
      <trkpt lat="42.01991" lon="0.98643">
        <ele>1395.908</ele>
        <time>2009-02-28T10:05:05Z</time>
      </trkpt>
      <trkpt lat="42.01998" lon="0.98662">
        <ele>1395.633</ele>
        <time>2009-02-28T10:04:52Z</time>
      </trkpt>
      <trkpt lat="42.01998" lon="0.98664">
        <ele>1395.532</ele>
        <time>2009-02-28T10:04:50Z</time>
      </trkpt>
      <trkpt lat="42.02001" lon="0.98683">
        <ele>1393.633</ele>
        <time>2009-02-28T10:04:37Z</time>
      </trkpt>
      <trkpt lat="42.02002" lon="0.98687">
        <ele>1393.825</ele>
        <time>2009-02-28T10:04:34Z</time>
      </trkpt>
      <trkpt lat="42.02004" lon="0.98694">
        <ele>1393.768</ele>
        <time>2009-02-28T10:04:28Z</time>
      </trkpt>
      <trkpt lat="42.02008" lon="0.98704">
        <ele>1394.139</ele>
        <time>2009-02-28T10:04:18Z</time>
      </trkpt>
      <trkpt lat="42.02013" lon="0.98724">
        <ele>1392.526</ele>
        <time>2009-02-28T10:04:04Z</time>
      </trkpt>
      <trkpt lat="42.02017" lon="0.98734">
        <ele>1390.86</ele>
        <time>2009-02-28T10:03:57Z</time>
      </trkpt>
      <trkpt lat="42.02024" lon="0.98746">
        <ele>1391.649</ele>
        <time>2009-02-28T10:03:45Z</time>
      </trkpt>
      <trkpt lat="42.02029" lon="0.98753">
        <ele>1392.702</ele>
        <time>2009-02-28T10:03:39Z</time>
      </trkpt>
      <trkpt lat="42.02036" lon="0.98768">
        <ele>1392.022</ele>
        <time>2009-02-28T10:03:25Z</time>
      </trkpt>
      <trkpt lat="42.02037" lon="0.98776">
        <ele>1390.508</ele>
        <time>2009-02-28T10:03:19Z</time>
      </trkpt>
      <trkpt lat="42.02037" lon="0.98781">
        <ele>1388.236</ele>
        <time>2009-02-28T10:03:11Z</time>
      </trkpt>
      <trkpt lat="42.0204" lon="0.98795">
        <ele>1383.715</ele>
        <time>2009-02-28T10:02:58Z</time>
      </trkpt>
      <trkpt lat="42.02046" lon="0.98804">
        <ele>1384.086</ele>
        <time>2009-02-28T10:02:51Z</time>
      </trkpt>
      <trkpt lat="42.02049" lon="0.98809">
        <ele>1384.798</ele>
        <time>2009-02-28T10:02:47Z</time>
      </trkpt>
      <trkpt lat="42.02052" lon="0.98815">
        <ele>1384.671</ele>
        <time>2009-02-28T10:02:41Z</time>
      </trkpt>
      <trkpt lat="42.0206" lon="0.98831">
        <ele>1384.722</ele>
        <time>2009-02-28T10:02:28Z</time>
      </trkpt>
      <trkpt lat="42.02069" lon="0.98848">
        <ele>1381.469</ele>
        <time>2009-02-28T10:02:12Z</time>
      </trkpt>
      <trkpt lat="42.02072" lon="0.9886">
        <ele>1378.233</ele>
        <time>2009-02-28T10:02:03Z</time>
      </trkpt>
      <trkpt lat="42.02075" lon="0.98866">
        <ele>1378.632</ele>
        <time>2009-02-28T10:01:58Z</time>
      </trkpt>
      <trkpt lat="42.0208" lon="0.98873">
        <ele>1381.292</ele>
        <time>2009-02-28T10:01:53Z</time>
      </trkpt>
      <trkpt lat="42.02084" lon="0.98877">
        <ele>1383.311</ele>
        <time>2009-02-28T10:01:48Z</time>
      </trkpt>
      <trkpt lat="42.02086" lon="0.98883">
        <ele>1382.308</ele>
        <time>2009-02-28T10:01:44Z</time>
      </trkpt>
      <trkpt lat="42.02086" lon="0.9889">
        <ele>1380.445</ele>
        <time>2009-02-28T10:01:30Z</time>
      </trkpt>
      <trkpt lat="42.02092" lon="0.98892">
        <ele>1380.754</ele>
        <time>2009-02-28T10:01:16Z</time>
      </trkpt>
      <trkpt lat="42.02095" lon="0.989">
        <ele>1378.085</ele>
        <time>2009-02-28T10:01:09Z</time>
      </trkpt>
      <trkpt lat="42.02098" lon="0.98907">
        <ele>1376.037</ele>
        <time>2009-02-28T10:00:57Z</time>
      </trkpt>
      <trkpt lat="42.02107" lon="0.98917">
        <ele>1376.98</ele>
        <time>2009-02-28T10:00:44Z</time>
      </trkpt>
      <trkpt lat="42.02112" lon="0.98927">
        <ele>1376.681</ele>
        <time>2009-02-28T10:00:30Z</time>
      </trkpt>
      <trkpt lat="42.02115" lon="0.98932">
        <ele>1375.588</ele>
        <time>2009-02-28T10:00:26Z</time>
      </trkpt>
      <trkpt lat="42.02117" lon="0.9894">
        <ele>1373.272</ele>
        <time>2009-02-28T10:00:18Z</time>
      </trkpt>
      <trkpt lat="42.02121" lon="0.98953">
        <ele>1371.118</ele>
        <time>2009-02-28T10:00:02Z</time>
      </trkpt>
      <trkpt lat="42.02121" lon="0.98973">
        <ele>1367.898</ele>
        <time>2009-02-28T09:59:47Z</time>
      </trkpt>
      <trkpt lat="42.02117" lon="0.98983">
        <ele>1365.217</ele>
        <time>2009-02-28T09:59:37Z</time>
      </trkpt>
      <trkpt lat="42.02118" lon="0.98988">
        <ele>1364.308</ele>
        <time>2009-02-28T09:59:33Z</time>
      </trkpt>
      <trkpt lat="42.02125" lon="0.99002">
        <ele>1362.033</ele>
        <time>2009-02-28T09:59:19Z</time>
      </trkpt>
      <trkpt lat="42.02131" lon="0.9901">
        <ele>1361.082</ele>
        <time>2009-02-28T09:59:08Z</time>
      </trkpt>
      <trkpt lat="42.0213" lon="0.99025">
        <ele>1357.343</ele>
        <time>2009-02-28T09:58:52Z</time>
      </trkpt>
      <trkpt lat="42.02129" lon="0.99029">
        <ele>1356.475</ele>
        <time>2009-02-28T09:58:49Z</time>
      </trkpt>
      <trkpt lat="42.02122" lon="0.99045">
        <ele>1354.948</ele>
        <time>2009-02-28T09:58:33Z</time>
      </trkpt>
      <trkpt lat="42.0212" lon="0.99047">
        <ele>1354.949</ele>
        <time>2009-02-28T09:58:30Z</time>
      </trkpt>
      <trkpt lat="42.02118" lon="0.99049">
        <ele>1355.036</ele>
        <time>2009-02-28T09:58:28Z</time>
      </trkpt>
      <trkpt lat="42.02111" lon="0.99058">
        <ele>1355.46</ele>
        <time>2009-02-28T09:58:15Z</time>
      </trkpt>
      <trkpt lat="42.02109" lon="0.9907">
        <ele>1350.143</ele>
        <time>2009-02-28T09:58:05Z</time>
      </trkpt>
      <trkpt lat="42.02111" lon="0.99081">
        <ele>1350.264</ele>
        <time>2009-02-28T09:57:54Z</time>
      </trkpt>
      <trkpt lat="42.02112" lon="0.99084">
        <ele>1349.61</ele>
        <time>2009-02-28T09:57:51Z</time>
      </trkpt>
      <trkpt lat="42.02118" lon="0.99103">
        <ele>1343.408</ele>
        <time>2009-02-28T09:57:36Z</time>
      </trkpt>
      <trkpt lat="42.02117" lon="0.99109">
        <ele>1341.796</ele>
        <time>2009-02-28T09:57:32Z</time>
      </trkpt>
      <trkpt lat="42.02121" lon="0.99125">
        <ele>1340.385</ele>
        <time>2009-02-28T09:57:22Z</time>
      </trkpt>
      <trkpt lat="42.02121" lon="0.99125">
        <ele>1340.416</ele>
        <time>2009-02-28T09:55:56Z</time>
      </trkpt>
      <trkpt lat="42.02123" lon="0.99133">
        <ele>1340.278</ele>
        <time>2009-02-28T09:54:52Z</time>
      </trkpt>
      <trkpt lat="42.02124" lon="0.99141">
        <ele>1339.921</ele>
        <time>2009-02-28T09:54:34Z</time>
      </trkpt>
      <trkpt lat="42.02121" lon="0.99149">
        <ele>1338.262</ele>
        <time>2009-02-28T09:54:29Z</time>
      </trkpt>
      <trkpt lat="42.0212" lon="0.99149">
        <ele>1337.749</ele>
        <time>2009-02-28T09:54:04Z</time>
      </trkpt>
      <trkpt lat="42.02122" lon="0.9915">
        <ele>1338.843</ele>
        <time>2009-02-28T09:53:50Z</time>
      </trkpt>
      <trkpt lat="42.02127" lon="0.99149">
        <ele>1341.354</ele>
        <time>2009-02-28T09:53:41Z</time>
      </trkpt>
      <trkpt lat="42.02134" lon="0.99166">
        <ele>1345.456</ele>
        <time>2009-02-28T09:53:28Z</time>
      </trkpt>
      <trkpt lat="42.02138" lon="0.99182">
        <ele>1350.811</ele>
        <time>2009-02-28T09:53:18Z</time>
      </trkpt>
      <trkpt lat="42.02143" lon="0.99202">
        <ele>1351.508</ele>
        <time>2009-02-28T09:53:02Z</time>
      </trkpt>
      <trkpt lat="42.02145" lon="0.99212">
        <ele>1350.977</ele>
        <time>2009-02-28T09:52:55Z</time>
      </trkpt>
      <trkpt lat="42.02148" lon="0.99232">
        <ele>1350.986</ele>
        <time>2009-02-28T09:52:42Z</time>
      </trkpt>
      <trkpt lat="42.02151" lon="0.9924">
        <ele>1351.067</ele>
        <time>2009-02-28T09:52:35Z</time>
      </trkpt>
      <trkpt lat="42.02156" lon="0.99258">
        <ele>1353.369</ele>
        <time>2009-02-28T09:52:23Z</time>
      </trkpt>
      <trkpt lat="42.02161" lon="0.99263">
        <ele>1354.252</ele>
        <time>2009-02-28T09:52:19Z</time>
      </trkpt>
      <trkpt lat="42.02161" lon="0.99265">
        <ele>1354.793</ele>
        <time>2009-02-28T09:52:18Z</time>
      </trkpt>
      <trkpt lat="42.02163" lon="0.99287">
        <ele>1358.39</ele>
        <time>2009-02-28T09:52:03Z</time>
      </trkpt>
      <trkpt lat="42.02162" lon="0.99289">
        <ele>1358.574</ele>
        <time>2009-02-28T09:52:02Z</time>
      </trkpt>
      <trkpt lat="42.02158" lon="0.99305">
        <ele>1360.952</ele>
        <time>2009-02-28T09:51:50Z</time>
      </trkpt>
      <trkpt lat="42.02158" lon="0.99317">
        <ele>1362.153</ele>
        <time>2009-02-28T09:51:41Z</time>
      </trkpt>
      <trkpt lat="42.02156" lon="0.99319">
        <ele>1362.608</ele>
        <time>2009-02-28T09:51:39Z</time>
      </trkpt>
      <trkpt lat="42.02154" lon="0.99319">
        <ele>1363.008</ele>
        <time>2009-02-28T09:51:37Z</time>
      </trkpt>
      <trkpt lat="42.02148" lon="0.99313">
        <ele>1363.327</ele>
        <time>2009-02-28T09:51:32Z</time>
      </trkpt>
      <trkpt lat="42.0214" lon="0.99312">
        <ele>1364.246</ele>
        <time>2009-02-28T09:51:23Z</time>
      </trkpt>
      <trkpt lat="42.02136" lon="0.99316">
        <ele>1365.097</ele>
        <time>2009-02-28T09:51:13Z</time>
      </trkpt>
      <trkpt lat="42.02128" lon="0.99328">
        <ele>1368.089</ele>
        <time>2009-02-28T09:50:59Z</time>
      </trkpt>
      <trkpt lat="42.02126" lon="0.99334">
        <ele>1369.532</ele>
        <time>2009-02-28T09:50:55Z</time>
      </trkpt>
      <trkpt lat="42.02123" lon="0.99336">
        <ele>1369.873</ele>
        <time>2009-02-28T09:50:52Z</time>
      </trkpt>
      <trkpt lat="42.02121" lon="0.99339">
        <ele>1370.29</ele>
        <time>2009-02-28T09:50:48Z</time>
      </trkpt>
      <trkpt lat="42.02117" lon="0.99342">
        <ele>1371.044</ele>
        <time>2009-02-28T09:50:44Z</time>
      </trkpt>
      <trkpt lat="42.02117" lon="0.99346">
        <ele>1371.523</ele>
        <time>2009-02-28T09:50:42Z</time>
      </trkpt>
      <trkpt lat="42.02115" lon="0.99352">
        <ele>1372.683</ele>
        <time>2009-02-28T09:50:38Z</time>
      </trkpt>
      <trkpt lat="42.02102" lon="0.99369">
        <ele>1367.011</ele>
        <time>2009-02-28T09:50:23Z</time>
      </trkpt>
      <trkpt lat="42.02099" lon="0.9938">
        <ele>1363.508</ele>
        <time>2009-02-28T09:50:13Z</time>
      </trkpt>
      <trkpt lat="42.02099" lon="0.99388">
        <ele>1362.744</ele>
        <time>2009-02-28T09:50:07Z</time>
      </trkpt>
      <trkpt lat="42.02101" lon="0.99393">
        <ele>1364.713</ele>
        <time>2009-02-28T09:50:03Z</time>
      </trkpt>
      <trkpt lat="42.02107" lon="0.99408">
        <ele>1368.744</ele>
        <time>2009-02-28T09:49:49Z</time>
      </trkpt>
      <trkpt lat="42.02116" lon="0.99417">
        <ele>1370.346</ele>
        <time>2009-02-28T09:49:36Z</time>
      </trkpt>
      <trkpt lat="42.0212" lon="0.99413">
        <ele>1370.079</ele>
        <time>2009-02-28T09:49:29Z</time>
      </trkpt>
      <trkpt lat="42.02121" lon="0.99412">
        <ele>1369.84</ele>
        <time>2009-02-28T09:49:21Z</time>
      </trkpt>
      <trkpt lat="42.0212" lon="0.99433">
        <ele>1370.977</ele>
        <time>2009-02-28T09:49:07Z</time>
      </trkpt>
      <trkpt lat="42.02117" lon="0.99443">
        <ele>1371.961</ele>
        <time>2009-02-28T09:49:00Z</time>
      </trkpt>
      <trkpt lat="42.02116" lon="0.99454">
        <ele>1373.948</ele>
        <time>2009-02-28T09:48:52Z</time>
      </trkpt>
      <trkpt lat="42.02112" lon="0.99465">
        <ele>1376.561</ele>
        <time>2009-02-28T09:48:44Z</time>
      </trkpt>
      <trkpt lat="42.02107" lon="0.99469">
        <ele>1376.917</ele>
        <time>2009-02-28T09:48:38Z</time>
      </trkpt>
      <trkpt lat="42.02105" lon="0.99474">
        <ele>1377.308</ele>
        <time>2009-02-28T09:48:34Z</time>
      </trkpt>
      <trkpt lat="42.02103" lon="0.99478">
        <ele>1377.446</ele>
        <time>2009-02-28T09:48:30Z</time>
      </trkpt>
      <trkpt lat="42.02103" lon="0.99481">
        <ele>1377.855</ele>
        <time>2009-02-28T09:48:27Z</time>
      </trkpt>
      <trkpt lat="42.02102" lon="0.99488">
        <ele>1378.436</ele>
        <time>2009-02-28T09:48:21Z</time>
      </trkpt>
      <trkpt lat="42.02093" lon="0.99504">
        <ele>1379.668</ele>
        <time>2009-02-28T09:48:09Z</time>
      </trkpt>
      <trkpt lat="42.02094" lon="0.9951">
        <ele>1380.071</ele>
        <time>2009-02-28T09:48:05Z</time>
      </trkpt>
      <trkpt lat="42.02099" lon="0.99517">
        <ele>1380.492</ele>
        <time>2009-02-28T09:47:58Z</time>
      </trkpt>
      <trkpt lat="42.021" lon="0.99527">
        <ele>1381.099</ele>
        <time>2009-02-28T09:47:52Z</time>
      </trkpt>
      <trkpt lat="42.02095" lon="0.99534">
        <ele>1382.193</ele>
        <time>2009-02-28T09:47:44Z</time>
      </trkpt>
      <trkpt lat="42.02089" lon="0.99552">
        <ele>1386.817</ele>
        <time>2009-02-28T09:47:30Z</time>
      </trkpt>
      <trkpt lat="42.02088" lon="0.9956">
        <ele>1387.987</ele>
        <time>2009-02-28T09:47:24Z</time>
      </trkpt>
      <trkpt lat="42.02087" lon="0.99566">
        <ele>1388.215</ele>
        <time>2009-02-28T09:47:20Z</time>
      </trkpt>
      <trkpt lat="42.02089" lon="0.99577">
        <ele>1387.808</ele>
        <time>2009-02-28T09:47:12Z</time>
      </trkpt>
      <trkpt lat="42.0209" lon="0.99583">
        <ele>1387.783</ele>
        <time>2009-02-28T09:47:08Z</time>
      </trkpt>
      <trkpt lat="42.02089" lon="0.99601">
        <ele>1388.692</ele>
        <time>2009-02-28T09:46:56Z</time>
      </trkpt>
      <trkpt lat="42.02094" lon="0.99613">
        <ele>1388.093</ele>
        <time>2009-02-28T09:46:45Z</time>
      </trkpt>
      <trkpt lat="42.02094" lon="0.99619">
        <ele>1387.515</ele>
        <time>2009-02-28T09:46:39Z</time>
      </trkpt>
      <trkpt lat="42.02095" lon="0.99635">
        <ele>1386.418</ele>
        <time>2009-02-28T09:46:28Z</time>
      </trkpt>
      <trkpt lat="42.02094" lon="0.99638">
        <ele>1386.379</ele>
        <time>2009-02-28T09:46:26Z</time>
      </trkpt>
      <trkpt lat="42.02093" lon="0.99641">
        <ele>1386.226</ele>
        <time>2009-02-28T09:46:23Z</time>
      </trkpt>
      <trkpt lat="42.02091" lon="0.99647">
        <ele>1386.02</ele>
        <time>2009-02-28T09:46:19Z</time>
      </trkpt>
      <trkpt lat="42.02092" lon="0.99662">
        <ele>1385.256</ele>
        <time>2009-02-28T09:46:05Z</time>
      </trkpt>
      <trkpt lat="42.02092" lon="0.99667">
        <ele>1384.959</ele>
        <time>2009-02-28T09:46:01Z</time>
      </trkpt>
      <trkpt lat="42.02092" lon="0.99687">
        <ele>1383.314</ele>
        <time>2009-02-28T09:45:47Z</time>
      </trkpt>
      <trkpt lat="42.02094" lon="0.99693">
        <ele>1382.908</ele>
        <time>2009-02-28T09:45:42Z</time>
      </trkpt>
      <trkpt lat="42.02095" lon="0.99696">
        <ele>1382.957</ele>
        <time>2009-02-28T09:45:39Z</time>
      </trkpt>
      <trkpt lat="42.02091" lon="0.99715">
        <ele>1385.246</ele>
        <time>2009-02-28T09:45:26Z</time>
      </trkpt>
      <trkpt lat="42.02089" lon="0.99722">
        <ele>1386.317</ele>
        <time>2009-02-28T09:45:21Z</time>
      </trkpt>
      <trkpt lat="42.02088" lon="0.99727">
        <ele>1386.239</ele>
        <time>2009-02-28T09:45:17Z</time>
      </trkpt>
      <trkpt lat="42.02086" lon="0.9973">
        <ele>1386.322</ele>
        <time>2009-02-28T09:45:14Z</time>
      </trkpt>
      <trkpt lat="42.02085" lon="0.99737">
        <ele>1385.823</ele>
        <time>2009-02-28T09:45:06Z</time>
      </trkpt>
      <trkpt lat="42.02085" lon="0.9974">
        <ele>1385.73</ele>
        <time>2009-02-28T09:45:04Z</time>
      </trkpt>
      <trkpt lat="42.02086" lon="0.99746">
        <ele>1385.284</ele>
        <time>2009-02-28T09:44:49Z</time>
      </trkpt>
      <trkpt lat="42.02089" lon="0.99747">
        <ele>1385.169</ele>
        <time>2009-02-28T09:44:38Z</time>
      </trkpt>
      <trkpt lat="42.02092" lon="0.99751">
        <ele>1385.004</ele>
        <time>2009-02-28T09:44:34Z</time>
      </trkpt>
      <trkpt lat="42.02094" lon="0.9976">
        <ele>1385.524</ele>
        <time>2009-02-28T09:44:26Z</time>
      </trkpt>
      <trkpt lat="42.02096" lon="0.99762">
        <ele>1385.608</ele>
        <time>2009-02-28T09:44:24Z</time>
      </trkpt>
      <trkpt lat="42.02101" lon="0.99785">
        <ele>1386.968</ele>
        <time>2009-02-28T09:44:08Z</time>
      </trkpt>
      <trkpt lat="42.02106" lon="0.99799">
        <ele>1388.497</ele>
        <time>2009-02-28T09:43:57Z</time>
      </trkpt>
      <trkpt lat="42.0211" lon="0.99805">
        <ele>1389.658</ele>
        <time>2009-02-28T09:43:51Z</time>
      </trkpt>
      <trkpt lat="42.02111" lon="0.9981">
        <ele>1390.43</ele>
        <time>2009-02-28T09:43:48Z</time>
      </trkpt>
      <trkpt lat="42.02112" lon="0.99817">
        <ele>1391.063</ele>
        <time>2009-02-28T09:43:44Z</time>
      </trkpt>
      <trkpt lat="42.02114" lon="0.99819">
        <ele>1390.864</ele>
        <time>2009-02-28T09:43:42Z</time>
      </trkpt>
      <trkpt lat="42.02115" lon="0.99822">
        <ele>1390.881</ele>
        <time>2009-02-28T09:43:39Z</time>
      </trkpt>
      <trkpt lat="42.02115" lon="0.99831">
        <ele>1392.085</ele>
        <time>2009-02-28T09:43:31Z</time>
      </trkpt>
      <trkpt lat="42.0212" lon="0.99843">
        <ele>1392.263</ele>
        <time>2009-02-28T09:43:21Z</time>
      </trkpt>
      <trkpt lat="42.0212" lon="0.99847">
        <ele>1392.544</ele>
        <time>2009-02-28T09:43:18Z</time>
      </trkpt>
      <trkpt lat="42.02121" lon="0.99859">
        <ele>1393.718</ele>
        <time>2009-02-28T09:43:09Z</time>
      </trkpt>
      <trkpt lat="42.02123" lon="0.99863">
        <ele>1394.108</ele>
        <time>2009-02-28T09:43:06Z</time>
      </trkpt>
      <trkpt lat="42.02123" lon="0.99871">
        <ele>1395.588</ele>
        <time>2009-02-28T09:42:57Z</time>
      </trkpt>
      <trkpt lat="42.02119" lon="0.99884">
        <ele>1398.237</ele>
        <time>2009-02-28T09:42:45Z</time>
      </trkpt>
      <trkpt lat="42.02119" lon="0.99887">
        <ele>1398.938</ele>
        <time>2009-02-28T09:42:29Z</time>
      </trkpt>
      <trkpt lat="42.02123" lon="0.99891">
        <ele>1399.43</ele>
        <time>2009-02-28T09:42:18Z</time>
      </trkpt>
      <trkpt lat="42.0212" lon="0.99901">
        <ele>1402.253</ele>
        <time>2009-02-28T09:42:04Z</time>
      </trkpt>
      <trkpt lat="42.0212" lon="0.99904">
        <ele>1403.064</ele>
        <time>2009-02-28T09:42:02Z</time>
      </trkpt>
      <trkpt lat="42.0212" lon="0.99906">
        <ele>1403.591</ele>
        <time>2009-02-28T09:42:01Z</time>
      </trkpt>
      <trkpt lat="42.02114" lon="0.9992">
        <ele>1407.725</ele>
        <time>2009-02-28T09:41:49Z</time>
      </trkpt>
      <trkpt lat="42.02114" lon="0.99928">
        <ele>1408.476</ele>
        <time>2009-02-28T09:41:43Z</time>
      </trkpt>
      <trkpt lat="42.02119" lon="0.99938">
        <ele>1408.69</ele>
        <time>2009-02-28T09:41:34Z</time>
      </trkpt>
      <trkpt lat="42.02122" lon="0.99942">
        <ele>1408.619</ele>
        <time>2009-02-28T09:41:30Z</time>
      </trkpt>
      <trkpt lat="42.02131" lon="0.99958">
        <ele>1408.908</ele>
        <time>2009-02-28T09:41:15Z</time>
      </trkpt>
      <trkpt lat="42.02132" lon="0.99962">
        <ele>1409.359</ele>
        <time>2009-02-28T09:41:12Z</time>
      </trkpt>
      <trkpt lat="42.02131" lon="0.99971">
        <ele>1410.128</ele>
        <time>2009-02-28T09:41:05Z</time>
      </trkpt>
      <trkpt lat="42.02134" lon="0.99974">
        <ele>1410.639</ele>
        <time>2009-02-28T09:40:53Z</time>
      </trkpt>
      <trkpt lat="42.02135" lon="0.99985">
        <ele>1412.231</ele>
        <time>2009-02-28T09:40:41Z</time>
      </trkpt>
      <trkpt lat="42.02139" lon="0.99987">
        <ele>1413.684</ele>
        <time>2009-02-28T09:40:37Z</time>
      </trkpt>
      <trkpt lat="42.02143" lon="1.00005">
        <ele>1416.325</ele>
        <time>2009-02-28T09:40:24Z</time>
      </trkpt>
      <trkpt lat="42.02141" lon="1.00006">
        <ele>1416.752</ele>
        <time>2009-02-28T09:40:22Z</time>
      </trkpt>
      <trkpt lat="42.02141" lon="1.00009">
        <ele>1417.146</ele>
        <time>2009-02-28T09:40:19Z</time>
      </trkpt>
      <trkpt lat="42.02146" lon="1.00018">
        <ele>1418.096</ele>
        <time>2009-02-28T09:40:11Z</time>
      </trkpt>
      <trkpt lat="42.02149" lon="1.00019">
        <ele>1417.831</ele>
        <time>2009-02-28T09:40:08Z</time>
      </trkpt>
      <trkpt lat="42.02153" lon="1.00025">
        <ele>1418.524</ele>
        <time>2009-02-28T09:40:01Z</time>
      </trkpt>
      <trkpt lat="42.02155" lon="1.00031">
        <ele>1418.508</ele>
        <time>2009-02-28T09:39:56Z</time>
      </trkpt>
      <trkpt lat="42.02165" lon="1.00042">
        <ele>1419.631</ele>
        <time>2009-02-28T09:39:41Z</time>
      </trkpt>
      <trkpt lat="42.02166" lon="1.00046">
        <ele>1420.42</ele>
        <time>2009-02-28T09:39:38Z</time>
      </trkpt>
      <trkpt lat="42.02172" lon="1.00054">
        <ele>1421.231</ele>
        <time>2009-02-28T09:39:25Z</time>
      </trkpt>
      <trkpt lat="42.02176" lon="1.00058">
        <ele>1420.853</ele>
        <time>2009-02-28T09:39:17Z</time>
      </trkpt>
      <trkpt lat="42.02181" lon="1.00066">
        <ele>1420.156</ele>
        <time>2009-02-28T09:39:11Z</time>
      </trkpt>
      <trkpt lat="42.02192" lon="1.00085">
        <ele>1421.627</ele>
        <time>2009-02-28T09:38:56Z</time>
      </trkpt>
      <trkpt lat="42.02196" lon="1.00094">
        <ele>1421.714</ele>
        <time>2009-02-28T09:38:49Z</time>
      </trkpt>
      <trkpt lat="42.02197" lon="1.00097">
        <ele>1421.428</ele>
        <time>2009-02-28T09:38:46Z</time>
      </trkpt>
      <trkpt lat="42.02199" lon="1.00106">
        <ele>1421.317</ele>
        <time>2009-02-28T09:38:40Z</time>
      </trkpt>
      <trkpt lat="42.02202" lon="1.00111">
        <ele>1420.987</ele>
        <time>2009-02-28T09:38:36Z</time>
      </trkpt>
      <trkpt lat="42.02203" lon="1.00122">
        <ele>1421.015</ele>
        <time>2009-02-28T09:38:30Z</time>
      </trkpt>
      <trkpt lat="42.02207" lon="1.00139">
        <ele>1421.208</ele>
        <time>2009-02-28T09:38:18Z</time>
      </trkpt>
      <trkpt lat="42.02206" lon="1.00149">
        <ele>1422.983</ele>
        <time>2009-02-28T09:38:09Z</time>
      </trkpt>
      <trkpt lat="42.02207" lon="1.0016">
        <ele>1424.742</ele>
        <time>2009-02-28T09:37:56Z</time>
      </trkpt>
      <trkpt lat="42.02199" lon="1.00162">
        <ele>1426.833</ele>
        <time>2009-02-28T09:37:48Z</time>
      </trkpt>
      <trkpt lat="42.02189" lon="1.00163">
        <ele>1428.815</ele>
        <time>2009-02-28T09:37:37Z</time>
      </trkpt>
      <trkpt lat="42.02185" lon="1.00162">
        <ele>1428.578</ele>
        <time>2009-02-28T09:37:33Z</time>
      </trkpt>
      <trkpt lat="42.02176" lon="1.00161">
        <ele>1428.769</ele>
        <time>2009-02-28T09:37:25Z</time>
      </trkpt>
      <trkpt lat="42.02166" lon="1.00162">
        <ele>1430.286</ele>
        <time>2009-02-28T09:37:14Z</time>
      </trkpt>
      <trkpt lat="42.02162" lon="1.00169">
        <ele>1432.17</ele>
        <time>2009-02-28T09:37:08Z</time>
      </trkpt>
      <trkpt lat="42.02157" lon="1.0017">
        <ele>1429.989</ele>
        <time>2009-02-28T09:37:02Z</time>
      </trkpt>
      <trkpt lat="42.02157" lon="1.00176">
        <ele>1431.006</ele>
        <time>2009-02-28T09:36:52Z</time>
      </trkpt>
      <trkpt lat="42.02155" lon="1.00187">
        <ele>1432.726</ele>
        <time>2009-02-28T09:36:44Z</time>
      </trkpt>
      <trkpt lat="42.02159" lon="1.00202">
        <ele>1434.808</ele>
        <time>2009-02-28T09:36:34Z</time>
      </trkpt>
      <trkpt lat="42.02164" lon="1.00207">
        <ele>1436.19</ele>
        <time>2009-02-28T09:36:20Z</time>
      </trkpt>
      <trkpt lat="42.02172" lon="1.00201">
        <ele>1435.819</ele>
        <time>2009-02-28T09:36:07Z</time>
      </trkpt>
      <trkpt lat="42.02174" lon="1.00202">
        <ele>1435.51</ele>
        <time>2009-02-28T09:35:45Z</time>
      </trkpt>
      <trkpt lat="42.02183" lon="1.00208">
        <ele>1433.542</ele>
        <time>2009-02-28T09:35:27Z</time>
      </trkpt>
      <trkpt lat="42.02179" lon="1.00211">
        <ele>1434.415</ele>
        <time>2009-02-28T09:34:58Z</time>
      </trkpt>
      <trkpt lat="42.02177" lon="1.00212">
        <ele>1434.776</ele>
        <time>2009-02-28T09:34:42Z</time>
      </trkpt>
      <trkpt lat="42.02172" lon="1.00225">
        <ele>1435.533</ele>
        <time>2009-02-28T09:34:28Z</time>
      </trkpt>
      <trkpt lat="42.02167" lon="1.00232">
        <ele>1435.527</ele>
        <time>2009-02-28T09:34:16Z</time>
      </trkpt>
      <trkpt lat="42.02172" lon="1.00255">
        <ele>1432.063</ele>
        <time>2009-02-28T09:34:00Z</time>
      </trkpt>
      <trkpt lat="42.02178" lon="1.00277">
        <ele>1429.944</ele>
        <time>2009-02-28T09:33:45Z</time>
      </trkpt>
      <trkpt lat="42.02178" lon="1.00279">
        <ele>1429.818</ele>
        <time>2009-02-28T09:33:19Z</time>
      </trkpt>
      <trkpt lat="42.02178" lon="1.00288">
        <ele>1429.308</ele>
        <time>2009-02-28T09:33:04Z</time>
      </trkpt>
      <trkpt lat="42.02182" lon="1.00303">
        <ele>1428.878</ele>
        <time>2009-02-28T09:32:52Z</time>
      </trkpt>
      <trkpt lat="42.02176" lon="1.00324">
        <ele>1429.127</ele>
        <time>2009-02-28T09:32:38Z</time>
      </trkpt>
      <trkpt lat="42.02174" lon="1.00324">
        <ele>1429.158</ele>
        <time>2009-02-28T09:32:36Z</time>
      </trkpt>
      <trkpt lat="42.02167" lon="1.00346">
        <ele>1430.42</ele>
        <time>2009-02-28T09:32:21Z</time>
      </trkpt>
      <trkpt lat="42.02166" lon="1.00347">
        <ele>1430.193</ele>
        <time>2009-02-28T09:32:17Z</time>
      </trkpt>
      <trkpt lat="42.02165" lon="1.00347">
        <ele>1429.844</ele>
        <time>2009-02-28T09:32:16Z</time>
      </trkpt>
      <trkpt lat="42.02166" lon="1.00353">
        <ele>1430.581</ele>
        <time>2009-02-28T09:32:09Z</time>
      </trkpt>
      <trkpt lat="42.02167" lon="1.00357">
        <ele>1430.845</ele>
        <time>2009-02-28T09:32:06Z</time>
      </trkpt>
      <trkpt lat="42.02165" lon="1.00362">
        <ele>1430.491</ele>
        <time>2009-02-28T09:32:01Z</time>
      </trkpt>
      <trkpt lat="42.02162" lon="1.00377">
        <ele>1429.581</ele>
        <time>2009-02-28T09:31:49Z</time>
      </trkpt>
      <trkpt lat="42.02161" lon="1.00396">
        <ele>1429.319</ele>
        <time>2009-02-28T09:31:35Z</time>
      </trkpt>
      <trkpt lat="42.02162" lon="1.00402">
        <ele>1429.008</ele>
        <time>2009-02-28T09:31:31Z</time>
      </trkpt>
      <trkpt lat="42.02165" lon="1.00406">
        <ele>1429.521</ele>
        <time>2009-02-28T09:31:27Z</time>
      </trkpt>
      <trkpt lat="42.02167" lon="1.00409">
        <ele>1429.82</ele>
        <time>2009-02-28T09:31:24Z</time>
      </trkpt>
      <trkpt lat="42.02167" lon="1.00412">
        <ele>1429.521</ele>
        <time>2009-02-28T09:31:22Z</time>
      </trkpt>
      <trkpt lat="42.02166" lon="1.00419">
        <ele>1428.393</ele>
        <time>2009-02-28T09:31:18Z</time>
      </trkpt>
      <trkpt lat="42.02169" lon="1.00426">
        <ele>1427.156</ele>
        <time>2009-02-28T09:31:11Z</time>
      </trkpt>
      <trkpt lat="42.02174" lon="1.00429">
        <ele>1426.787</ele>
        <time>2009-02-28T09:31:06Z</time>
      </trkpt>
      <trkpt lat="42.02177" lon="1.00438">
        <ele>1425.554</ele>
        <time>2009-02-28T09:30:59Z</time>
      </trkpt>
      <trkpt lat="42.02178" lon="1.00439">
        <ele>1425.488</ele>
        <time>2009-02-28T09:30:58Z</time>
      </trkpt>
      <trkpt lat="42.02182" lon="1.00446">
        <ele>1425.097</ele>
        <time>2009-02-28T09:30:51Z</time>
      </trkpt>
      <trkpt lat="42.02186" lon="1.00456">
        <ele>1424.823</ele>
        <time>2009-02-28T09:30:39Z</time>
      </trkpt>
      <trkpt lat="42.02188" lon="1.00463">
        <ele>1424.625</ele>
        <time>2009-02-28T09:30:34Z</time>
      </trkpt>
      <trkpt lat="42.02191" lon="1.00476">
        <ele>1424.308</ele>
        <time>2009-02-28T09:30:24Z</time>
      </trkpt>
      <trkpt lat="42.02194" lon="1.0048">
        <ele>1424.681</ele>
        <time>2009-02-28T09:30:20Z</time>
      </trkpt>
      <trkpt lat="42.02198" lon="1.00483">
        <ele>1424.29</ele>
        <time>2009-02-28T09:30:14Z</time>
      </trkpt>
      <trkpt lat="42.02208" lon="1.00493">
        <ele>1423.471</ele>
        <time>2009-02-28T09:30:02Z</time>
      </trkpt>
      <trkpt lat="42.02215" lon="1.00503">
        <ele>1423.383</ele>
        <time>2009-02-28T09:29:50Z</time>
      </trkpt>
      <trkpt lat="42.02219" lon="1.0052">
        <ele>1423.496</ele>
        <time>2009-02-28T09:29:35Z</time>
      </trkpt>
      <trkpt lat="42.02224" lon="1.00532">
        <ele>1423.427</ele>
        <time>2009-02-28T09:29:22Z</time>
      </trkpt>
      <trkpt lat="42.02226" lon="1.00547">
        <ele>1421.944</ele>
        <time>2009-02-28T09:29:05Z</time>
      </trkpt>
      <trkpt lat="42.02227" lon="1.00553">
        <ele>1421.478</ele>
        <time>2009-02-28T09:29:01Z</time>
      </trkpt>
      <trkpt lat="42.02228" lon="1.00559">
        <ele>1420.898</ele>
        <time>2009-02-28T09:28:56Z</time>
      </trkpt>
      <trkpt lat="42.02237" lon="1.00571">
        <ele>1420.215</ele>
        <time>2009-02-28T09:28:42Z</time>
      </trkpt>
      <trkpt lat="42.02238" lon="1.00573">
        <ele>1420.226</ele>
        <time>2009-02-28T09:28:40Z</time>
      </trkpt>
      <trkpt lat="42.02238" lon="1.00578">
        <ele>1419.908</ele>
        <time>2009-02-28T09:28:35Z</time>
      </trkpt>
      <trkpt lat="42.02241" lon="1.00586">
        <ele>1419.661</ele>
        <time>2009-02-28T09:28:28Z</time>
      </trkpt>
      <trkpt lat="42.02242" lon="1.00591">
        <ele>1419.47</ele>
        <time>2009-02-28T09:28:24Z</time>
      </trkpt>
      <trkpt lat="42.02244" lon="1.00597">
        <ele>1419.461</ele>
        <time>2009-02-28T09:28:19Z</time>
      </trkpt>
      <trkpt lat="42.02249" lon="1.00611">
        <ele>1419.573</ele>
        <time>2009-02-28T09:28:07Z</time>
      </trkpt>
      <trkpt lat="42.0225" lon="1.00615">
        <ele>1419.486</ele>
        <time>2009-02-28T09:28:03Z</time>
      </trkpt>
      <trkpt lat="42.02253" lon="1.00622">
        <ele>1418.347</ele>
        <time>2009-02-28T09:27:56Z</time>
      </trkpt>
      <trkpt lat="42.02261" lon="1.00638">
        <ele>1416.824</ele>
        <time>2009-02-28T09:27:40Z</time>
      </trkpt>
      <trkpt lat="42.02262" lon="1.0065">
        <ele>1415.538</ele>
        <time>2009-02-28T09:27:25Z</time>
      </trkpt>
      <trkpt lat="42.02266" lon="1.00667">
        <ele>1414.349</ele>
        <time>2009-02-28T09:27:10Z</time>
      </trkpt>
      <trkpt lat="42.02262" lon="1.00681">
        <ele>1412.802</ele>
        <time>2009-02-28T09:26:59Z</time>
      </trkpt>
      <trkpt lat="42.02266" lon="1.00702">
        <ele>1413.022</ele>
        <time>2009-02-28T09:26:45Z</time>
      </trkpt>
      <trkpt lat="42.02266" lon="1.00707">
        <ele>1413.108</ele>
        <time>2009-02-28T09:26:42Z</time>
      </trkpt>
      <trkpt lat="42.02269" lon="1.00722">
        <ele>1413.736</ele>
        <time>2009-02-28T09:26:33Z</time>
      </trkpt>
      <trkpt lat="42.02267" lon="1.0072">
        <ele>1413.575</ele>
        <time>2017-10-07T09:33:07Z</time>
      </trkpt>
      <trkpt lat="42.0227" lon="1.00732">
        <ele>1414.496</ele>
        <time>2017-10-07T09:32:58Z</time>
      </trkpt>
      <trkpt lat="42.02272" lon="1.00745">
        <ele>1415.168</ele>
        <time>2017-10-07T09:32:49Z</time>
      </trkpt>
      <trkpt lat="42.02271" lon="1.00758">
        <ele>1415.721</ele>
        <time>2017-10-07T09:32:28Z</time>
      </trkpt>
      <trkpt lat="42.02279" lon="1.00764">
        <ele>1416.532</ele>
        <time>2017-10-07T09:32:19Z</time>
      </trkpt>
      <trkpt lat="42.02281" lon="1.00775">
        <ele>1416.919</ele>
        <time>2017-10-07T09:32:10Z</time>
      </trkpt>
      <trkpt lat="42.02279" lon="1.00787">
        <ele>1417.313</ele>
        <time>2017-10-07T09:31:59Z</time>
      </trkpt>
      <trkpt lat="42.02281" lon="1.00798">
        <ele>1417.767</ele>
        <time>2017-10-07T09:31:50Z</time>
      </trkpt>
      <trkpt lat="42.02286" lon="1.00805">
        <ele>1417.781</ele>
        <time>2017-10-07T09:31:35Z</time>
      </trkpt>
      <trkpt lat="42.02279" lon="1.00803">
        <ele>1417.919</ele>
        <time>2017-10-07T09:31:22Z</time>
      </trkpt>
      <trkpt lat="42.02271" lon="1.00807">
        <ele>1418.108</ele>
        <time>2017-10-07T09:31:13Z</time>
      </trkpt>
      <trkpt lat="42.02266" lon="1.00817">
        <ele>1418.628</ele>
        <time>2017-10-07T09:31:04Z</time>
      </trkpt>
      <trkpt lat="42.02257" lon="1.00822">
        <ele>1419.047</ele>
        <time>2017-10-07T09:30:54Z</time>
      </trkpt>
      <trkpt lat="42.02251" lon="1.0083">
        <ele>1419.788</ele>
        <time>2017-10-07T09:30:40Z</time>
      </trkpt>
      <trkpt lat="42.02247" lon="1.00841">
        <ele>1420.38</ele>
        <time>2017-10-07T09:30:31Z</time>
      </trkpt>
      <trkpt lat="42.02246" lon="1.00854">
        <ele>1420.853</ele>
        <time>2017-10-07T09:30:22Z</time>
      </trkpt>
      <trkpt lat="42.02241" lon="1.00864">
        <ele>1421.564</ele>
        <time>2017-10-07T09:30:13Z</time>
      </trkpt>
      <trkpt lat="42.02241" lon="1.00876">
        <ele>1422.091</ele>
        <time>2017-10-07T09:30:02Z</time>
      </trkpt>
      <trkpt lat="42.02237" lon="1.00887">
        <ele>1422.935</ele>
        <time>2017-10-07T09:29:50Z</time>
      </trkpt>
      <trkpt lat="42.02228" lon="1.00893">
        <ele>1423.839</ele>
        <time>2017-10-07T09:29:40Z</time>
      </trkpt>
      <trkpt lat="42.02217" lon="1.00899">
        <ele>1424.401</ele>
        <time>2017-10-07T09:27:06Z</time>
      </trkpt>
      <trkpt lat="42.02209" lon="1.00902">
        <ele>1424.721</ele>
        <time>2017-10-07T09:26:56Z</time>
      </trkpt>
      <trkpt lat="42.022" lon="1.00907">
        <ele>1425.208</ele>
        <time>2017-10-07T09:26:44Z</time>
      </trkpt>
      <trkpt lat="42.02191" lon="1.0091">
        <ele>1425.625</ele>
        <time>2017-10-07T09:26:34Z</time>
      </trkpt>
      <trkpt lat="42.02181" lon="1.00911">
        <ele>1426.014</ele>
        <time>2017-10-07T09:26:25Z</time>
      </trkpt>
      <trkpt lat="42.02174" lon="1.00918">
        <ele>1426.855</ele>
        <time>2017-10-07T09:26:14Z</time>
      </trkpt>
      <trkpt lat="42.02169" lon="1.00928">
        <ele>1427.897</ele>
        <time>2017-10-07T09:26:02Z</time>
      </trkpt>
      <trkpt lat="42.02167" lon="1.00938">
        <ele>1428.65</ele>
        <time>2017-10-07T09:25:51Z</time>
      </trkpt>
      <trkpt lat="42.02161" lon="1.00946">
        <ele>1429.641</ele>
        <time>2017-10-07T09:25:40Z</time>
      </trkpt>
      <trkpt lat="42.02155" lon="1.00954">
        <ele>1430.948</ele>
        <time>2017-10-07T09:25:29Z</time>
      </trkpt>
      <trkpt lat="42.02148" lon="1.00961">
        <ele>1432.252</ele>
        <time>2017-10-07T09:25:19Z</time>
      </trkpt>
      <trkpt lat="42.02141" lon="1.00971">
        <ele>1433.757</ele>
        <time>2017-10-07T09:25:09Z</time>
      </trkpt>
      <trkpt lat="42.02135" lon="1.00981">
        <ele>1434.6</ele>
        <time>2017-10-07T09:25:00Z</time>
      </trkpt>
      <trkpt lat="42.02127" lon="1.00985">
        <ele>1434.82</ele>
        <time>2017-10-07T09:24:51Z</time>
      </trkpt>
      <trkpt lat="42.02118" lon="1.0099">
        <ele>1434.608</ele>
        <time>2017-10-07T09:24:41Z</time>
      </trkpt>
      <trkpt lat="42.02118" lon="1.00994">
        <ele>1434.577</ele>
        <time>2017-10-07T09:22:37Z</time>
      </trkpt>
      <trkpt lat="42.02122" lon="1.01005">
        <ele>1434.166</ele>
        <time>2017-10-07T09:22:14Z</time>
      </trkpt>
      <trkpt lat="42.02123" lon="1.01006">
        <ele>1434.137</ele>
        <time>2017-10-07T09:21:48Z</time>
      </trkpt>
      <trkpt lat="42.02126" lon="1.01017">
        <ele>1433.259</ele>
        <time>2017-10-07T09:21:28Z</time>
      </trkpt>
      <trkpt lat="42.0213" lon="1.01029">
        <ele>1433.122</ele>
        <time>2017-10-07T09:21:18Z</time>
      </trkpt>
      <trkpt lat="42.02133" lon="1.01041">
        <ele>1432.873</ele>
        <time>2017-10-07T09:21:05Z</time>
      </trkpt>
      <trkpt lat="42.02136" lon="1.01052">
        <ele>1433.01</ele>
        <time>2017-10-07T09:20:56Z</time>
      </trkpt>
      <trkpt lat="42.02143" lon="1.01063">
        <ele>1432.564</ele>
        <time>2017-10-07T09:20:46Z</time>
      </trkpt>
      <trkpt lat="42.02148" lon="1.01073">
        <ele>1430.865</ele>
        <time>2017-10-07T09:20:36Z</time>
      </trkpt>
      <trkpt lat="42.02147" lon="1.01086">
        <ele>1428.768</ele>
        <time>2017-10-07T09:20:24Z</time>
      </trkpt>
      <trkpt lat="42.02152" lon="1.01096">
        <ele>1426.614</ele>
        <time>2017-10-07T09:20:13Z</time>
      </trkpt>
      <trkpt lat="42.02157" lon="1.01105">
        <ele>1425.708</ele>
        <time>2017-10-07T09:20:03Z</time>
      </trkpt>
      <trkpt lat="42.0216" lon="1.01116">
        <ele>1424.588</ele>
        <time>2017-10-07T09:19:53Z</time>
      </trkpt>
      <trkpt lat="42.02162" lon="1.01125">
        <ele>1424.027</ele>
        <time>2017-10-07T09:18:56Z</time>
      </trkpt>
      <trkpt lat="42.02164" lon="1.01137">
        <ele>1422.888</ele>
        <time>2017-10-07T09:18:45Z</time>
      </trkpt>
      <trkpt lat="42.02164" lon="1.01149">
        <ele>1420.13</ele>
        <time>2017-10-07T09:18:32Z</time>
      </trkpt>
      <trkpt lat="42.02167" lon="1.01161">
        <ele>1418.563</ele>
        <time>2017-10-07T09:18:21Z</time>
      </trkpt>
      <trkpt lat="42.02171" lon="1.01173">
        <ele>1415.324</ele>
        <time>2017-10-07T09:18:09Z</time>
      </trkpt>
      <trkpt lat="42.02174" lon="1.01184">
        <ele>1412.521</ele>
        <time>2017-10-07T09:17:59Z</time>
      </trkpt>
      <trkpt lat="42.02176" lon="1.01198">
        <ele>1409.115</ele>
        <time>2017-10-07T09:17:48Z</time>
      </trkpt>
      <trkpt lat="42.02182" lon="1.01204">
        <ele>1408.641</ele>
        <time>2017-10-07T09:16:40Z</time>
      </trkpt>
      <trkpt lat="42.02188" lon="1.01213">
        <ele>1408.181</ele>
        <time>2017-10-07T09:16:29Z</time>
      </trkpt>
      <trkpt lat="42.02191" lon="1.01224">
        <ele>1406.909</ele>
        <time>2017-10-07T09:16:18Z</time>
      </trkpt>
      <trkpt lat="42.02198" lon="1.01232">
        <ele>1405.108</ele>
        <time>2017-10-07T09:16:07Z</time>
      </trkpt>
      <trkpt lat="42.02204" lon="1.01241">
        <ele>1402.266</ele>
        <time>2017-10-07T09:15:52Z</time>
      </trkpt>
      <trkpt lat="42.02209" lon="1.01251">
        <ele>1399.765</ele>
        <time>2017-10-07T09:15:40Z</time>
      </trkpt>
      <trkpt lat="42.02214" lon="1.0126">
        <ele>1397.736</ele>
        <time>2017-10-07T09:15:29Z</time>
      </trkpt>
      <trkpt lat="42.02218" lon="1.0127">
        <ele>1396.478</ele>
        <time>2017-10-07T09:15:17Z</time>
      </trkpt>
      <trkpt lat="42.0222" lon="1.0128">
        <ele>1395.461</ele>
        <time>2017-10-07T09:15:05Z</time>
      </trkpt>
      <trkpt lat="42.02228" lon="1.01286">
        <ele>1394.022</ele>
        <time>2017-10-07T09:14:39Z</time>
      </trkpt>
      <trkpt lat="42.02234" lon="1.01294">
        <ele>1391.439</ele>
        <time>2017-10-07T09:14:26Z</time>
      </trkpt>
      <trkpt lat="42.02231" lon="1.01304">
        <ele>1389.693</ele>
        <time>2017-10-07T09:14:15Z</time>
      </trkpt>
      <trkpt lat="42.02237" lon="1.01313">
        <ele>1386.445</ele>
        <time>2017-10-07T09:14:04Z</time>
      </trkpt>
      <trkpt lat="42.02244" lon="1.01322">
        <ele>1384.947</ele>
        <time>2017-10-07T09:13:53Z</time>
      </trkpt>
      <trkpt lat="42.02254" lon="1.01326">
        <ele>1385.011</ele>
        <time>2017-10-07T09:13:41Z</time>
      </trkpt>
      <trkpt lat="42.02261" lon="1.01335">
        <ele>1382.608</ele>
        <time>2017-10-07T09:13:30Z</time>
      </trkpt>
      <trkpt lat="42.02264" lon="1.01347">
        <ele>1380.626</ele>
        <time>2017-10-07T09:13:20Z</time>
      </trkpt>
      <trkpt lat="42.0227" lon="1.01357">
        <ele>1379.085</ele>
        <time>2017-10-07T09:13:10Z</time>
      </trkpt>
      <trkpt lat="42.02276" lon="1.01366">
        <ele>1377.626</ele>
        <time>2017-10-07T09:13:01Z</time>
      </trkpt>
      <trkpt lat="42.0228" lon="1.01376">
        <ele>1376.578</ele>
        <time>2017-10-07T09:12:53Z</time>
      </trkpt>
      <trkpt lat="42.02286" lon="1.01388">
        <ele>1374.911</ele>
        <time>2017-10-07T09:12:40Z</time>
      </trkpt>
      <trkpt lat="42.0229" lon="1.01399">
        <ele>1373.752</ele>
        <time>2017-10-07T09:12:31Z</time>
      </trkpt>
      <trkpt lat="42.02292" lon="1.01412">
        <ele>1373.299</ele>
        <time>2017-10-07T09:12:23Z</time>
      </trkpt>
      <trkpt lat="42.02289" lon="1.01424">
        <ele>1373.443</ele>
        <time>2017-10-07T09:12:12Z</time>
      </trkpt>
      <trkpt lat="42.02289" lon="1.01437">
        <ele>1374.857</ele>
        <time>2017-10-07T09:12:01Z</time>
      </trkpt>
      <trkpt lat="42.02286" lon="1.01448">
        <ele>1375.8</ele>
        <time>2017-10-07T09:11:49Z</time>
      </trkpt>
      <trkpt lat="42.02283" lon="1.01459">
        <ele>1377.62</ele>
        <time>2017-10-07T09:11:38Z</time>
      </trkpt>
      <trkpt lat="42.02282" lon="1.01472">
        <ele>1380.308</ele>
        <time>2017-10-07T09:11:28Z</time>
      </trkpt>
      <trkpt lat="42.02283" lon="1.01486">
        <ele>1380.727</ele>
        <time>2017-10-07T09:11:16Z</time>
      </trkpt>
      <trkpt lat="42.02281" lon="1.01498">
        <ele>1380.656</ele>
        <time>2017-10-07T09:11:05Z</time>
      </trkpt>
      <trkpt lat="42.02282" lon="1.01512">
        <ele>1382.427</ele>
        <time>2017-10-07T09:10:03Z</time>
      </trkpt>
      <trkpt lat="42.02285" lon="1.01525">
        <ele>1384.479</ele>
        <time>2017-10-07T09:09:52Z</time>
      </trkpt>
      <trkpt lat="42.02285" lon="1.01538">
        <ele>1385.152</ele>
        <time>2017-10-07T09:09:39Z</time>
      </trkpt>
      <trkpt lat="42.0229" lon="1.01549">
        <ele>1386.153</ele>
        <time>2017-10-07T09:09:28Z</time>
      </trkpt>
      <trkpt lat="42.02295" lon="1.01561">
        <ele>1386.12</ele>
        <time>2017-10-07T09:09:18Z</time>
      </trkpt>
      <trkpt lat="42.023" lon="1.01572">
        <ele>1385.474</ele>
        <time>2017-10-07T09:09:09Z</time>
      </trkpt>
      <trkpt lat="42.02304" lon="1.01584">
        <ele>1384.737</ele>
        <time>2017-10-07T09:08:59Z</time>
      </trkpt>
      <trkpt lat="42.0231" lon="1.01596">
        <ele>1383.349</ele>
        <time>2017-10-07T09:08:48Z</time>
      </trkpt>
      <trkpt lat="42.02317" lon="1.01608">
        <ele>1382.213</ele>
        <time>2017-10-07T09:08:27Z</time>
      </trkpt>
      <trkpt lat="42.02323" lon="1.01617">
        <ele>1381.208</ele>
        <time>2017-10-07T09:08:17Z</time>
      </trkpt>
      <trkpt lat="42.02329" lon="1.01627">
        <ele>1379.735</ele>
        <time>2017-10-07T09:08:07Z</time>
      </trkpt>
      <trkpt lat="42.02334" lon="1.01637">
        <ele>1378.334</ele>
        <time>2017-10-07T09:07:56Z</time>
      </trkpt>
      <trkpt lat="42.0234" lon="1.01647">
        <ele>1376.525</ele>
        <time>2017-10-07T09:07:45Z</time>
      </trkpt>
      <trkpt lat="42.02347" lon="1.01657">
        <ele>1374.817</ele>
        <time>2017-10-07T09:07:32Z</time>
      </trkpt>
      <trkpt lat="42.02355" lon="1.01666">
        <ele>1373.74</ele>
        <time>2017-10-07T09:07:21Z</time>
      </trkpt>
      <trkpt lat="42.0236" lon="1.01676">
        <ele>1371.971</ele>
        <time>2017-10-07T09:07:01Z</time>
      </trkpt>
      <trkpt lat="42.02367" lon="1.01685">
        <ele>1370.328</ele>
        <time>2017-10-07T09:06:49Z</time>
      </trkpt>
      <trkpt lat="42.02371" lon="1.01694">
        <ele>1368.442</ele>
        <time>2017-10-07T09:06:37Z</time>
      </trkpt>
      <trkpt lat="42.02378" lon="1.01702">
        <ele>1366.442</ele>
        <time>2017-10-07T09:06:18Z</time>
      </trkpt>
      <trkpt lat="42.02385" lon="1.01711">
        <ele>1364.022</ele>
        <time>2017-10-07T09:06:03Z</time>
      </trkpt>
      <trkpt lat="42.02392" lon="1.0172">
        <ele>1362.014</ele>
        <time>2017-10-07T09:05:32Z</time>
      </trkpt>
      <trkpt lat="42.02395" lon="1.01728">
        <ele>1359.708</ele>
        <time>2017-10-07T09:05:14Z</time>
      </trkpt>
      <trkpt lat="42.02401" lon="1.01738">
        <ele>1357.566</ele>
        <time>2017-10-07T09:05:02Z</time>
      </trkpt>
      <trkpt lat="42.02408" lon="1.01744">
        <ele>1356.695</ele>
        <time>2017-10-07T09:04:50Z</time>
      </trkpt>
      <trkpt lat="42.02412" lon="1.01748">
        <ele>1356.026</ele>
        <time>2017-10-07T09:03:12Z</time>
      </trkpt>
      <trkpt lat="42.02402" lon="1.01747">
        <ele>1354.988</ele>
        <time>2017-10-07T09:02:34Z</time>
      </trkpt>
      <trkpt lat="42.02394" lon="1.01749">
        <ele>1353.311</ele>
        <time>2017-10-07T09:02:17Z</time>
      </trkpt>
      <trkpt lat="42.02397" lon="1.01759">
        <ele>1349.952</ele>
        <time>2017-10-07T09:01:55Z</time>
      </trkpt>
      <trkpt lat="42.02398" lon="1.01764">
        <ele>1348.199</ele>
        <time>2017-10-07T09:01:29Z</time>
      </trkpt>
      <trkpt lat="42.02404" lon="1.01772">
        <ele>1345.933</ele>
        <time>2017-10-07T09:01:09Z</time>
      </trkpt>
      <trkpt lat="42.02411" lon="1.0178">
        <ele>1343.494</ele>
        <time>2017-10-07T09:00:56Z</time>
      </trkpt>
      <trkpt lat="42.02419" lon="1.01788">
        <ele>1341.057</ele>
        <time>2017-10-07T09:00:42Z</time>
      </trkpt>
      <trkpt lat="42.02426" lon="1.01795">
        <ele>1339.222</ele>
        <time>2017-10-07T09:00:28Z</time>
      </trkpt>
      <trkpt lat="42.02432" lon="1.01803">
        <ele>1336.808</ele>
        <time>2017-10-07T09:00:13Z</time>
      </trkpt>
      <trkpt lat="42.02431" lon="1.01811">
        <ele>1333.371</ele>
        <time>2017-10-07T08:59:56Z</time>
      </trkpt>
      <trkpt lat="42.02428" lon="1.01814">
        <ele>1331.26</ele>
        <time>2017-10-07T08:59:20Z</time>
      </trkpt>
      <trkpt lat="42.02431" lon="1.01823">
        <ele>1328.181</ele>
        <time>2017-10-07T08:59:00Z</time>
      </trkpt>
      <trkpt lat="42.02432" lon="1.01833">
        <ele>1323.773</ele>
        <time>2017-10-07T08:58:39Z</time>
      </trkpt>
      <trkpt lat="42.02435" lon="1.01843">
        <ele>1319.926</ele>
        <time>2017-10-07T08:58:22Z</time>
      </trkpt>
      <trkpt lat="42.02437" lon="1.01853">
        <ele>1315.837</ele>
        <time>2017-10-07T08:58:07Z</time>
      </trkpt>
      <trkpt lat="42.02441" lon="1.01864">
        <ele>1313.094</ele>
        <time>2017-10-07T08:57:56Z</time>
      </trkpt>
      <trkpt lat="42.02449" lon="1.01871">
        <ele>1311.538</ele>
        <time>2017-10-07T08:57:21Z</time>
      </trkpt>
      <trkpt lat="42.02456" lon="1.0188">
        <ele>1308.534</ele>
        <time>2017-10-07T08:57:08Z</time>
      </trkpt>
      <trkpt lat="42.02463" lon="1.0189">
        <ele>1305.255</ele>
        <time>2017-10-07T08:56:54Z</time>
      </trkpt>
      <trkpt lat="42.0247" lon="1.01898">
        <ele>1303.61</ele>
        <time>2017-10-07T08:56:38Z</time>
      </trkpt>
      <trkpt lat="42.02476" lon="1.01907">
        <ele>1301.008</ele>
        <time>2017-10-07T08:56:14Z</time>
      </trkpt>
      <trkpt lat="42.02483" lon="1.01914">
        <ele>1299.895</ele>
        <time>2017-10-07T08:56:02Z</time>
      </trkpt>
      <trkpt lat="42.02481" lon="1.01922">
        <ele>1296.114</ele>
        <time>2017-10-07T08:55:45Z</time>
      </trkpt>
      <trkpt lat="42.02481" lon="1.01929">
        <ele>1292.635</ele>
        <time>2017-10-07T08:55:25Z</time>
      </trkpt>
      <trkpt lat="42.02484" lon="1.01938">
        <ele>1289.637</ele>
        <time>2017-10-07T08:55:11Z</time>
      </trkpt>
      <trkpt lat="42.0248" lon="1.01941">
        <ele>1286.99</ele>
        <time>2017-10-07T08:54:08Z</time>
      </trkpt>
      <trkpt lat="42.02477" lon="1.0195">
        <ele>1281.911</ele>
        <time>2017-10-07T08:51:46Z</time>
      </trkpt>
      <trkpt lat="42.02474" lon="1.01957">
        <ele>1277.898</ele>
        <time>2017-10-07T08:51:24Z</time>
      </trkpt>
      <trkpt lat="42.02467" lon="1.0196">
        <ele>1274.522</ele>
        <time>2017-10-07T08:51:07Z</time>
      </trkpt>
      <trkpt lat="42.02466" lon="1.01968">
        <ele>1271.387</ele>
        <time>2017-10-07T08:50:48Z</time>
      </trkpt>
      <trkpt lat="42.02459" lon="1.01972">
        <ele>1268.042</ele>
        <time>2017-10-07T08:50:33Z</time>
      </trkpt>
      <trkpt lat="42.02451" lon="1.01969">
        <ele>1266.826</ele>
        <time>2017-10-07T08:50:18Z</time>
      </trkpt>
      <trkpt lat="42.02444" lon="1.01974">
        <ele>1263.308</ele>
        <time>2017-10-07T08:49:41Z</time>
      </trkpt>
      <trkpt lat="42.02447" lon="1.01978">
        <ele>1261.66</ele>
        <time>2017-10-07T08:49:20Z</time>
      </trkpt>
      <trkpt lat="42.02444" lon="1.01986">
        <ele>1257.289</ele>
        <time>2017-10-07T08:48:58Z</time>
      </trkpt>
      <trkpt lat="42.02437" lon="1.01992">
        <ele>1252.29</ele>
        <time>2017-10-07T08:48:26Z</time>
      </trkpt>
      <trkpt lat="42.0243" lon="1.01995">
        <ele>1248.042</ele>
        <time>2017-10-07T08:47:45Z</time>
      </trkpt>
      <trkpt lat="42.02424" lon="1.01988">
        <ele>1249.375</ele>
        <time>2017-10-07T08:47:28Z</time>
      </trkpt>
      <trkpt lat="42.02419" lon="1.01978">
        <ele>1252.156</ele>
        <time>2017-10-07T08:47:14Z</time>
      </trkpt>
      <trkpt lat="42.02411" lon="1.01971">
        <ele>1252.523</ele>
        <time>2017-10-07T08:46:50Z</time>
      </trkpt>
      <trkpt lat="42.02401" lon="1.01969">
        <ele>1250.197</ele>
        <time>2017-10-07T08:39:56Z</time>
      </trkpt>
      <trkpt lat="42.02393" lon="1.01972">
        <ele>1245.617</ele>
        <time>2017-10-07T08:39:38Z</time>
      </trkpt>
      <trkpt lat="42.02391" lon="1.01979">
        <ele>1242.187</ele>
        <time>2017-10-07T08:39:16Z</time>
      </trkpt>
      <trkpt lat="42.02384" lon="1.01985">
        <ele>1237.415</ele>
        <time>2017-10-07T08:38:42Z</time>
      </trkpt>
      <trkpt lat="42.02381" lon="1.01991">
        <ele>1234.108</ele>
        <time>2017-10-07T08:38:20Z</time>
      </trkpt>
      <trkpt lat="42.02375" lon="1.01997">
        <ele>1230.223</ele>
        <time>2017-10-07T08:38:00Z</time>
      </trkpt>
      <trkpt lat="42.02369" lon="1.02001">
        <ele>1227.372</ele>
        <time>2017-10-07T08:37:36Z</time>
      </trkpt>
      <trkpt lat="42.02374" lon="1.02011">
        <ele>1224.763</ele>
        <time>2017-10-07T08:37:19Z</time>
      </trkpt>
      <trkpt lat="42.02368" lon="1.02021">
        <ele>1220.415</ele>
        <time>2017-10-07T08:36:58Z</time>
      </trkpt>
      <trkpt lat="42.0236" lon="1.02025">
        <ele>1217.748</ele>
        <time>2017-10-07T08:36:41Z</time>
      </trkpt>
      <trkpt lat="42.02357" lon="1.02039">
        <ele>1212.479</ele>
        <time>2017-10-07T08:36:21Z</time>
      </trkpt>
      <trkpt lat="42.02353" lon="1.02062">
        <ele>1204.426</ele>
        <time>2017-10-07T08:35:36Z</time>
      </trkpt>
      <trkpt lat="42.02351" lon="1.02077">
        <ele>1199.81</ele>
        <time>2017-10-07T08:35:19Z</time>
      </trkpt>
      <trkpt lat="42.02359" lon="1.02084">
        <ele>1198.544</ele>
        <time>2017-10-07T08:35:06Z</time>
      </trkpt>
      <trkpt lat="42.0236" lon="1.02098">
        <ele>1195.105</ele>
        <time>2017-10-07T08:34:51Z</time>
      </trkpt>
      <trkpt lat="42.02359" lon="1.0211">
        <ele>1192.115</ele>
        <time>2017-10-07T08:34:31Z</time>
      </trkpt>
      <trkpt lat="42.02359" lon="1.02125">
        <ele>1189.008</ele>
        <time>2017-10-07T08:34:15Z</time>
      </trkpt>
      <trkpt lat="42.02362" lon="1.02136">
        <ele>1187.366</ele>
        <time>2017-10-07T08:34:02Z</time>
      </trkpt>
      <trkpt lat="42.02336" lon="1.02163">
        <ele>1176.065</ele>
        <time>2017-10-07T08:32:22Z</time>
      </trkpt>
      <trkpt lat="42.023" lon="1.02152">
        <ele>1148.426</ele>
        <time>2017-10-07T08:27:56Z</time>
      </trkpt>
      <trkpt lat="42.02295" lon="1.02149">
        <ele>1144.278</ele>
        <time>2017-10-07T08:26:54Z</time>
      </trkpt>
      <trkpt lat="42.02285" lon="1.02142">
        <ele>1136.761</ele>
        <time>2017-10-07T08:26:35Z</time>
      </trkpt>
      <trkpt lat="42.02281" lon="1.02154">
        <ele>1131.972</ele>
        <time>2017-10-07T08:26:05Z</time>
      </trkpt>
      <trkpt lat="42.02266" lon="1.02173">
        <ele>1118.439</ele>
        <time>2017-10-07T08:25:14Z</time>
      </trkpt>
      <trkpt lat="42.02261" lon="1.0218">
        <ele>1114.123</ele>
        <time>2017-10-07T08:24:00Z</time>
      </trkpt>
      <trkpt lat="42.02256" lon="1.02201">
        <ele>1111.315</ele>
        <time>2017-10-07T08:23:25Z</time>
      </trkpt>
      <trkpt lat="42.02129" lon="1.02144">
        <ele>1038.565</ele>
        <time>2017-10-07T08:11:47Z</time>
      </trkpt>
      <trkpt lat="42.02122" lon="1.02148">
        <ele>1035.811</ele>
        <time>2017-10-07T08:11:27Z</time>
      </trkpt>
      <trkpt lat="42.02091" lon="1.02124">
        <ele>1021.208</ele>
        <time>2017-10-07T08:10:16Z</time>
      </trkpt>
      <trkpt lat="42.02011" lon="1.02114">
        <ele>991.953</ele>
        <time>2017-10-07T08:07:46Z</time>
      </trkpt>
      <trkpt lat="42.01972" lon="1.02095">
        <ele>978.682</ele>
        <time>2017-10-07T08:06:41Z</time>
      </trkpt>
      <trkpt lat="42.01948" lon="1.02087">
        <ele>971.933</ele>
        <time>2017-10-07T08:06:04Z</time>
      </trkpt>
      <trkpt lat="42.01937" lon="1.02073">
        <ele>969.685</ele>
        <time>2017-10-07T08:05:53Z</time>
      </trkpt>
      <trkpt lat="42.01864" lon="1.02087">
        <ele>951.468</ele>
        <time>2017-10-07T08:03:03Z</time>
      </trkpt>
      <trkpt lat="42.01852" lon="1.02084">
        <ele>949.319</ele>
        <time>2017-10-07T08:02:49Z</time>
      </trkpt>
      <trkpt lat="42.01834" lon="1.02081">
        <ele>946.196</ele>
        <time>2017-10-07T08:02:02Z</time>
      </trkpt>
      <trkpt lat="42.01821" lon="1.0208">
        <ele>943.46</ele>
        <time>2017-10-07T08:01:47Z</time>
      </trkpt>
      <trkpt lat="42.01808" lon="1.0208">
        <ele>940.864</ele>
        <time>2017-10-07T08:01:33Z</time>
      </trkpt>
      <trkpt lat="42.01797" lon="1.02084">
        <ele>938.106</ele>
        <time>2017-10-07T08:01:21Z</time>
      </trkpt>
      <trkpt lat="42.01785" lon="1.02092">
        <ele>935.316</ele>
        <time>2017-10-07T08:01:10Z</time>
      </trkpt>
      <trkpt lat="42.01765" lon="1.02105">
        <ele>930.508</ele>
        <time>2017-10-07T08:00:44Z</time>
      </trkpt>
      <trkpt lat="42.01751" lon="1.02114">
        <ele>927.198</ele>
        <time>2017-10-07T08:00:27Z</time>
      </trkpt>
      <trkpt lat="42.01741" lon="1.02116">
        <ele>925.097</ele>
        <time>2017-10-07T08:00:16Z</time>
      </trkpt>
      <trkpt lat="42.01735" lon="1.02104">
        <ele>924.538</ele>
        <time>2017-10-07T07:59:55Z</time>
      </trkpt>
      <trkpt lat="42.01726" lon="1.02113">
        <ele>921.89</ele>
        <time>2017-10-07T07:59:36Z</time>
      </trkpt>
      <trkpt lat="42.01717" lon="1.02109">
        <ele>920.543</ele>
        <time>2017-10-07T07:59:24Z</time>
      </trkpt>
      <trkpt lat="42.01707" lon="1.02107">
        <ele>919.494</ele>
        <time>2017-10-07T07:59:13Z</time>
      </trkpt>
      <trkpt lat="42.01696" lon="1.02107">
        <ele>917.841</ele>
        <time>2017-10-07T07:59:02Z</time>
      </trkpt>
      <trkpt lat="42.01687" lon="1.02113">
        <ele>915.885</ele>
        <time>2017-10-07T07:58:51Z</time>
      </trkpt>
      <trkpt lat="42.01678" lon="1.02118">
        <ele>914.438</ele>
        <time>2017-10-07T07:58:42Z</time>
      </trkpt>
      <trkpt lat="42.01668" lon="1.02122">
        <ele>912.87</ele>
        <time>2017-10-07T07:58:33Z</time>
      </trkpt>
      <trkpt lat="42.0165" lon="1.02131">
        <ele>910.017</ele>
        <time>2017-10-07T07:58:11Z</time>
      </trkpt>
      <trkpt lat="42.01633" lon="1.02138">
        <ele>907.408</ele>
        <time>2017-10-07T07:57:49Z</time>
      </trkpt>
      <trkpt lat="42.0162" lon="1.02138">
        <ele>906.075</ele>
        <time>2017-10-07T07:57:27Z</time>
      </trkpt>
      <trkpt lat="42.01607" lon="1.02139">
        <ele>904.614</ele>
        <time>2017-10-07T07:57:15Z</time>
      </trkpt>
      <trkpt lat="42.01596" lon="1.02138">
        <ele>903.455</ele>
        <time>2017-10-07T07:57:04Z</time>
      </trkpt>
      <trkpt lat="42.01586" lon="1.02137">
        <ele>902.247</ele>
        <time>2017-10-07T07:56:52Z</time>
      </trkpt>
      <trkpt lat="42.01575" lon="1.02133">
        <ele>901.43</ele>
        <time>2017-10-07T07:56:42Z</time>
      </trkpt>
      <trkpt lat="42.01566" lon="1.02124">
        <ele>900.471</ele>
        <time>2017-10-07T07:56:27Z</time>
      </trkpt>
      <trkpt lat="42.01559" lon="1.02113">
        <ele>899.548</ele>
        <time>2017-10-07T07:56:17Z</time>
      </trkpt>
      <trkpt lat="42.01551" lon="1.02103">
        <ele>898.482</ele>
        <time>2017-10-07T07:56:06Z</time>
      </trkpt>
      <trkpt lat="42.01545" lon="1.02091">
        <ele>897.563</ele>
        <time>2017-10-07T07:55:58Z</time>
      </trkpt>
      <trkpt lat="42.01539" lon="1.02079">
        <ele>896.744</ele>
        <time>2017-10-07T07:55:40Z</time>
      </trkpt>
      <trkpt lat="42.01538" lon="1.0207">
        <ele>896.718</ele>
        <time>2017-10-07T07:55:13Z</time>
      </trkpt>
      <trkpt lat="42.01536" lon="1.02057">
        <ele>896.508</ele>
        <time>2017-10-07T07:55:05Z</time>
      </trkpt>
      <trkpt lat="42.01535" lon="1.02045">
        <ele>897.948</ele>
        <time>2017-10-07T07:54:57Z</time>
      </trkpt>
      <trkpt lat="42.0153" lon="1.02038">
        <ele>897.597</ele>
        <time>2017-10-07T07:54:48Z</time>
      </trkpt>
      <trkpt lat="42.01522" lon="1.02033">
        <ele>896.468</ele>
        <time>2017-10-07T07:54:40Z</time>
      </trkpt>
      <trkpt lat="42.01515" lon="1.02024">
        <ele>896.42</ele>
        <time>2017-10-07T07:54:33Z</time>
      </trkpt>
      <trkpt lat="42.01507" lon="1.02016">
        <ele>895.793</ele>
        <time>2017-10-07T07:54:25Z</time>
      </trkpt>
      <trkpt lat="42.015" lon="1.02008">
        <ele>895.084</ele>
        <time>2017-10-07T07:54:17Z</time>
      </trkpt>
      <trkpt lat="42.01493" lon="1.01999">
        <ele>894.341</ele>
        <time>2017-10-07T07:54:09Z</time>
      </trkpt>
      <trkpt lat="42.01488" lon="1.01987">
        <ele>894.575</ele>
        <time>2017-10-07T07:54:01Z</time>
      </trkpt>
      <trkpt lat="42.0148" lon="1.01976">
        <ele>893.832</ele>
        <time>2017-10-07T07:53:51Z</time>
      </trkpt>
      <trkpt lat="42.01472" lon="1.01961">
        <ele>892.392</ele>
        <time>2017-10-07T07:53:33Z</time>
      </trkpt>
      <trkpt lat="42.01464" lon="1.01955">
        <ele>891.111</ele>
        <time>2017-10-07T07:53:04Z</time>
      </trkpt>
      <trkpt lat="42.01456" lon="1.01947">
        <ele>890.008</ele>
        <time>2017-10-07T07:52:55Z</time>
      </trkpt>
      <trkpt lat="42.0145" lon="1.01937">
        <ele>888.555</ele>
        <time>2017-10-07T07:52:45Z</time>
      </trkpt>
      <trkpt lat="42.01443" lon="1.01925">
        <ele>886.234</ele>
        <time>2017-10-07T07:52:29Z</time>
      </trkpt>
      <trkpt lat="42.0144" lon="1.01912">
        <ele>885.185</ele>
        <time>2017-10-07T07:52:17Z</time>
      </trkpt>
      <trkpt lat="42.01433" lon="1.01902">
        <ele>884.347</ele>
        <time>2017-10-07T07:52:06Z</time>
      </trkpt>
      <trkpt lat="42.01427" lon="1.01895">
        <ele>884.06</ele>
        <time>2017-10-07T07:51:57Z</time>
      </trkpt>
      <trkpt lat="42.01419" lon="1.01888">
        <ele>884.231</ele>
        <time>2017-10-07T07:51:51Z</time>
      </trkpt>
      <trkpt lat="42.0141" lon="1.01882">
        <ele>885.358</ele>
        <time>2017-10-07T07:51:43Z</time>
      </trkpt>
      <trkpt lat="42.014" lon="1.01876">
        <ele>886.852</ele>
        <time>2017-10-07T07:51:34Z</time>
      </trkpt>
      <trkpt lat="42.0139" lon="1.0187">
        <ele>888.326</ele>
        <time>2017-10-07T07:51:21Z</time>
      </trkpt>
      <trkpt lat="42.01382" lon="1.01867">
        <ele>888.447</ele>
        <time>2017-10-07T07:51:00Z</time>
      </trkpt>
      <trkpt lat="42.01374" lon="1.0186">
        <ele>888.511</ele>
        <time>2017-10-07T07:50:48Z</time>
      </trkpt>
      <trkpt lat="42.01374" lon="1.01868">
        <ele>887.608</ele>
        <time>2017-10-07T07:50:29Z</time>
      </trkpt>
      <trkpt lat="42.01367" lon="1.01877">
        <ele>886.134</ele>
        <time>2017-10-07T07:50:20Z</time>
      </trkpt>
      <trkpt lat="42.01362" lon="1.01889">
        <ele>885.063</ele>
        <time>2017-10-07T07:50:11Z</time>
      </trkpt>
      <trkpt lat="42.01358" lon="1.01901">
        <ele>884.184</ele>
        <time>2017-10-07T07:50:03Z</time>
      </trkpt>
      <trkpt lat="42.01353" lon="1.01912">
        <ele>883.196</ele>
        <time>2017-10-07T07:49:55Z</time>
      </trkpt>
      <trkpt lat="42.01345" lon="1.0192">
        <ele>882.179</ele>
        <time>2017-10-07T07:49:46Z</time>
      </trkpt>
      <trkpt lat="42.01337" lon="1.01926">
        <ele>881.39</ele>
        <time>2017-10-07T07:49:37Z</time>
      </trkpt>
      <trkpt lat="42.01327" lon="1.0193">
        <ele>881.477</ele>
        <time>2017-10-07T07:49:28Z</time>
      </trkpt>
      <trkpt lat="42.01316" lon="1.0193">
        <ele>882.351</ele>
        <time>2017-10-07T07:49:19Z</time>
      </trkpt>
      <trkpt lat="42.01307" lon="1.0193">
        <ele>882.984</ele>
        <time>2017-10-07T07:49:11Z</time>
      </trkpt>
      <trkpt lat="42.01305" lon="1.0194">
        <ele>882.607</ele>
        <time>2017-10-07T07:49:01Z</time>
      </trkpt>
      <trkpt lat="42.01301" lon="1.01952">
        <ele>883.117</ele>
        <time>2017-10-07T07:48:55Z</time>
      </trkpt>
      <trkpt lat="42.01295" lon="1.01963">
        <ele>884.508</ele>
        <time>2017-10-07T07:48:49Z</time>
      </trkpt>
      <trkpt lat="42.01285" lon="1.01967">
        <ele>886.64</ele>
        <time>2017-10-07T07:48:40Z</time>
      </trkpt>
      <trkpt lat="42.01275" lon="1.01972">
        <ele>888.379</ele>
        <time>2017-10-07T07:48:34Z</time>
      </trkpt>
      <trkpt lat="42.01265" lon="1.01973">
        <ele>888.85</ele>
        <time>2017-10-07T07:48:25Z</time>
      </trkpt>
      <trkpt lat="42.01255" lon="1.01975">
        <ele>889.022</ele>
        <time>2017-10-07T07:48:17Z</time>
      </trkpt>
      <trkpt lat="42.01245" lon="1.01975">
        <ele>890.365</ele>
        <time>2017-10-07T07:48:11Z</time>
      </trkpt>
      <trkpt lat="42.01236" lon="1.01973">
        <ele>891.976</ele>
        <time>2017-10-07T07:48:03Z</time>
      </trkpt>
      <trkpt lat="42.01225" lon="1.01972">
        <ele>893.663</ele>
        <time>2017-10-07T07:47:56Z</time>
      </trkpt>
      <trkpt lat="42.01214" lon="1.01971">
        <ele>895.317</ele>
        <time>2017-10-07T07:47:48Z</time>
      </trkpt>
      <trkpt lat="42.01201" lon="1.01978">
        <ele>896.373</ele>
        <time>2017-10-07T07:47:39Z</time>
      </trkpt>
      <trkpt lat="42.01191" lon="1.01986">
        <ele>897.585</ele>
        <time>2017-10-07T07:47:28Z</time>
      </trkpt>
      <trkpt lat="42.01184" lon="1.01996">
        <ele>898.413</ele>
        <time>2017-10-07T07:47:20Z</time>
      </trkpt>
      <trkpt lat="42.01176" lon="1.02007">
        <ele>899.308</ele>
        <time>2017-10-07T07:47:12Z</time>
      </trkpt>
      <trkpt lat="42.01166" lon="1.02017">
        <ele>900.639</ele>
        <time>2017-10-07T07:47:03Z</time>
      </trkpt>
      <trkpt lat="42.01156" lon="1.02026">
        <ele>901.968</ele>
        <time>2017-10-07T07:46:54Z</time>
      </trkpt>
      <trkpt lat="42.01146" lon="1.02037">
        <ele>902.549</ele>
        <time>2017-10-07T07:46:44Z</time>
      </trkpt>
      <trkpt lat="42.01135" lon="1.02045">
        <ele>903.921</ele>
        <time>2017-10-07T07:46:35Z</time>
      </trkpt>
      <trkpt lat="42.01113" lon="1.02057">
        <ele>905.284</ele>
        <time>2017-10-07T07:46:14Z</time>
      </trkpt>
      <trkpt lat="42.011" lon="1.02063">
        <ele>905.735</ele>
        <time>2017-10-07T07:46:00Z</time>
      </trkpt>
      <trkpt lat="42.01091" lon="1.02062">
        <ele>907.082</ele>
        <time>2017-10-07T07:45:54Z</time>
      </trkpt>
      <trkpt lat="42.0108" lon="1.0206">
        <ele>908.536</ele>
        <time>2017-10-07T07:45:45Z</time>
      </trkpt>
      <trkpt lat="42.01069" lon="1.02059">
        <ele>909.381</ele>
        <time>2017-10-07T07:45:37Z</time>
      </trkpt>
      <trkpt lat="42.01059" lon="1.02057">
        <ele>910.461</ele>
        <time>2017-10-07T07:45:30Z</time>
      </trkpt>
      <trkpt lat="42.0105" lon="1.02052">
        <ele>911.617</ele>
        <time>2017-10-07T07:45:20Z</time>
      </trkpt>
      <trkpt lat="42.01042" lon="1.02046">
        <ele>912.808</ele>
        <time>2017-10-07T07:45:13Z</time>
      </trkpt>
      <trkpt lat="42.01033" lon="1.02036">
        <ele>914.91</ele>
        <time>2017-10-07T07:45:04Z</time>
      </trkpt>
      <trkpt lat="42.01023" lon="1.0203">
        <ele>916.099</ele>
        <time>2017-10-07T07:44:56Z</time>
      </trkpt>
      <trkpt lat="42.01015" lon="1.02025">
        <ele>916.16</ele>
        <time>2017-10-07T07:44:47Z</time>
      </trkpt>
      <trkpt lat="42.01006" lon="1.02018">
        <ele>916.712</ele>
        <time>2017-10-07T07:44:05Z</time>
      </trkpt>
      <trkpt lat="42.00997" lon="1.02012">
        <ele>917.325</ele>
        <time>2017-10-07T07:43:57Z</time>
      </trkpt>
      <trkpt lat="42.00988" lon="1.02005">
        <ele>918.216</ele>
        <time>2017-10-07T07:43:49Z</time>
      </trkpt>
      <trkpt lat="42.0098" lon="1.02001">
        <ele>918.333</ele>
        <time>2017-10-07T07:43:40Z</time>
      </trkpt>
      <trkpt lat="42.00971" lon="1.01998">
        <ele>918.237</ele>
        <time>2017-10-07T07:43:33Z</time>
      </trkpt>
      <trkpt lat="42.00962" lon="1.01994">
        <ele>918.449</ele>
        <time>2017-10-07T07:43:26Z</time>
      </trkpt>
      <trkpt lat="42.00953" lon="1.0199">
        <ele>918.502</ele>
        <time>2017-10-07T07:43:18Z</time>
      </trkpt>
      <trkpt lat="42.00942" lon="1.01989">
        <ele>918.022</ele>
        <time>2017-10-07T07:43:09Z</time>
      </trkpt>
      <trkpt lat="42.00931" lon="1.0199">
        <ele>916.708</ele>
        <time>2017-10-07T07:42:59Z</time>
      </trkpt>
      <trkpt lat="42.00922" lon="1.01988">
        <ele>915.956</ele>
        <time>2017-10-07T07:42:49Z</time>
      </trkpt>
      <trkpt lat="42.00913" lon="1.01986">
        <ele>915.225</ele>
        <time>2017-10-07T07:42:39Z</time>
      </trkpt>
      <trkpt lat="42.00904" lon="1.0199">
        <ele>914.266</ele>
        <time>2017-10-07T07:42:18Z</time>
      </trkpt>
      <trkpt lat="42.00895" lon="1.01994">
        <ele>913.098</ele>
        <time>2017-10-07T07:42:00Z</time>
      </trkpt>
      <trkpt lat="42.00885" lon="1.01995">
        <ele>912.141</ele>
        <time>2017-10-07T07:41:50Z</time>
      </trkpt>
      <trkpt lat="42.00873" lon="1.01994">
        <ele>910.922</ele>
        <time>2017-10-07T07:41:40Z</time>
      </trkpt>
      <trkpt lat="42.00863" lon="1.01993">
        <ele>910.039</ele>
        <time>2017-10-07T07:41:29Z</time>
      </trkpt>
      <trkpt lat="42.00865" lon="1.02001">
        <ele>909.383</ele>
        <time>2017-10-07T07:40:54Z</time>
      </trkpt>
      <trkpt lat="42.00869" lon="1.02014">
        <ele>909.233</ele>
        <time>2017-10-07T07:40:46Z</time>
      </trkpt>
      <trkpt lat="42.00874" lon="1.02024">
        <ele>909.123</ele>
        <time>2017-10-07T07:40:37Z</time>
      </trkpt>
      <trkpt lat="42.00877" lon="1.02037">
        <ele>908.815</ele>
        <time>2017-10-07T07:40:29Z</time>
      </trkpt>
      <trkpt lat="42.00879" lon="1.02051">
        <ele>908.208</ele>
        <time>2017-10-07T07:40:21Z</time>
      </trkpt>
      <trkpt lat="42.0088" lon="1.02055">
        <ele>908.085</ele>
        <time>2017-10-07T07:37:48Z</time>
      </trkpt>
      <trkpt lat="42.0088" lon="1.02067">
        <ele>907.724</ele>
        <time>2017-10-07T07:37:40Z</time>
      </trkpt>
      <trkpt lat="42.00877" lon="1.0208">
        <ele>907.525</ele>
        <time>2017-10-07T07:37:31Z</time>
      </trkpt>
      <trkpt lat="42.00872" lon="1.02089">
        <ele>907.537</ele>
        <time>2017-10-07T07:37:26Z</time>
      </trkpt>
      <trkpt lat="42.00865" lon="1.021">
        <ele>907.82</ele>
        <time>2017-10-07T07:37:18Z</time>
      </trkpt>
      <trkpt lat="42.00858" lon="1.02111">
        <ele>907.951</ele>
        <time>2017-10-07T07:37:09Z</time>
      </trkpt>
      <trkpt lat="42.00852" lon="1.02122">
        <ele>908.168</ele>
        <time>2017-10-07T07:37:00Z</time>
      </trkpt>
      <trkpt lat="42.00849" lon="1.02134">
        <ele>908.452</ele>
        <time>2017-10-07T07:36:53Z</time>
      </trkpt>
      <trkpt lat="42.00844" lon="1.02145">
        <ele>908.462</ele>
        <time>2017-10-07T07:36:46Z</time>
      </trkpt>
      <trkpt lat="42.00841" lon="1.02156">
        <ele>908.383</ele>
        <time>2017-10-07T07:36:38Z</time>
      </trkpt>
      <trkpt lat="42.00837" lon="1.02168">
        <ele>908.111</ele>
        <time>2017-10-07T07:36:30Z</time>
      </trkpt>
      <trkpt lat="42.00833" lon="1.0218">
        <ele>907.508</ele>
        <time>2017-10-07T07:36:22Z</time>
      </trkpt>
      <trkpt lat="42.0083" lon="1.02192">
        <ele>906.538</ele>
        <time>2017-10-07T07:36:14Z</time>
      </trkpt>
      <trkpt lat="42.00828" lon="1.02205">
        <ele>905.927</ele>
        <time>2017-10-07T07:36:06Z</time>
      </trkpt>
      <trkpt lat="42.00823" lon="1.02215">
        <ele>905.218</ele>
        <time>2017-10-07T07:35:58Z</time>
      </trkpt>
      <trkpt lat="42.00816" lon="1.02221">
        <ele>904.79</ele>
        <time>2017-10-07T07:35:50Z</time>
      </trkpt>
      <trkpt lat="42.00807" lon="1.02225">
        <ele>903.943</ele>
        <time>2017-10-07T07:35:41Z</time>
      </trkpt>
      <trkpt lat="42.00799" lon="1.02229">
        <ele>903.144</ele>
        <time>2017-10-07T07:35:33Z</time>
      </trkpt>
      <trkpt lat="42.00791" lon="1.02236">
        <ele>902.261</ele>
        <time>2017-10-07T07:35:24Z</time>
      </trkpt>
      <trkpt lat="42.00791" lon="1.02242">
        <ele>901.935</ele>
        <time>2017-10-07T07:34:38Z</time>
      </trkpt>
      <trkpt lat="42.00798" lon="1.02251">
        <ele>901.641</ele>
        <time>2017-10-07T07:34:29Z</time>
      </trkpt>
      <trkpt lat="42.008" lon="1.02264">
        <ele>900.081</ele>
        <time>2017-10-07T07:34:20Z</time>
      </trkpt>
      <trkpt lat="42.00805" lon="1.02274">
        <ele>898.509</ele>
        <time>2017-10-07T07:34:12Z</time>
      </trkpt>
      <trkpt lat="42.00812" lon="1.02283">
        <ele>898.108</ele>
        <time>2017-10-07T07:34:04Z</time>
      </trkpt>
      <trkpt lat="42.00821" lon="1.02291">
        <ele>897.756</ele>
        <time>2017-10-07T07:33:56Z</time>
      </trkpt>
      <trkpt lat="42.00828" lon="1.02299">
        <ele>896.865</ele>
        <time>2017-10-07T07:33:48Z</time>
      </trkpt>
      <trkpt lat="42.00834" lon="1.0231">
        <ele>895.426</ele>
        <time>2017-10-07T07:33:40Z</time>
      </trkpt>
      <trkpt lat="42.0084" lon="1.02321">
        <ele>894.618</ele>
        <time>2017-10-07T07:33:32Z</time>
      </trkpt>
      <trkpt lat="42.00845" lon="1.02331">
        <ele>893.971</ele>
        <time>2017-10-07T07:33:24Z</time>
      </trkpt>
      <trkpt lat="42.00846" lon="1.02344">
        <ele>893.142</ele>
        <time>2017-10-07T07:33:16Z</time>
      </trkpt>
      <trkpt lat="42.00846" lon="1.02358">
        <ele>892.089</ele>
        <time>2017-10-07T07:33:07Z</time>
      </trkpt>
      <trkpt lat="42.00843" lon="1.02372">
        <ele>890.763</ele>
        <time>2017-10-07T07:32:58Z</time>
      </trkpt>
      <trkpt lat="42.0084" lon="1.02385">
        <ele>889.255</ele>
        <time>2017-10-07T07:32:50Z</time>
      </trkpt>
      <trkpt lat="42.00835" lon="1.02398">
        <ele>887.907</ele>
        <time>2017-10-07T07:32:41Z</time>
      </trkpt>
      <trkpt lat="42.00829" lon="1.02411">
        <ele>886.717</ele>
        <time>2017-10-07T07:32:32Z</time>
      </trkpt>
      <trkpt lat="42.00824" lon="1.02422">
        <ele>885.408</ele>
        <time>2017-10-07T07:32:23Z</time>
      </trkpt>
      <trkpt lat="42.0082" lon="1.02435">
        <ele>884.437</ele>
        <time>2017-10-07T07:32:13Z</time>
      </trkpt>
      <trkpt lat="42.00816" lon="1.02446">
        <ele>883.486</ele>
        <time>2017-10-07T07:32:04Z</time>
      </trkpt>
      <trkpt lat="42.00812" lon="1.02457">
        <ele>882.667</ele>
        <time>2017-10-07T07:31:55Z</time>
      </trkpt>
      <trkpt lat="42.00808" lon="1.02469">
        <ele>881.679</ele>
        <time>2017-10-07T07:31:42Z</time>
      </trkpt>
      <trkpt lat="42.00804" lon="1.02482">
        <ele>880.372</ele>
        <time>2017-10-07T07:31:33Z</time>
      </trkpt>
      <trkpt lat="42.00799" lon="1.02492">
        <ele>879.243</ele>
        <time>2017-10-07T07:31:25Z</time>
      </trkpt>
      <trkpt lat="42.00793" lon="1.02501">
        <ele>878.13</ele>
        <time>2017-10-07T07:31:17Z</time>
      </trkpt>
      <trkpt lat="42.00788" lon="1.02512">
        <ele>877.364</ele>
        <time>2017-10-07T07:31:08Z</time>
      </trkpt>
      <trkpt lat="42.00782" lon="1.02523">
        <ele>876.532</ele>
        <time>2017-10-07T07:30:59Z</time>
      </trkpt>
      <trkpt lat="42.00778" lon="1.02534">
        <ele>875.892</ele>
        <time>2017-10-07T07:30:49Z</time>
      </trkpt>
      <trkpt lat="42.00774" lon="1.02548">
        <ele>874.411</ele>
        <time>2017-10-07T07:30:24Z</time>
      </trkpt>
      <trkpt lat="42.00771" lon="1.02561">
        <ele>873.408</ele>
        <time>2017-10-07T07:30:13Z</time>
      </trkpt>
      <trkpt lat="42.0077" lon="1.02574">
        <ele>872.945</ele>
        <time>2017-10-07T07:30:02Z</time>
      </trkpt>
      <trkpt lat="42.00771" lon="1.02588">
        <ele>872.214</ele>
        <time>2017-10-07T07:29:45Z</time>
      </trkpt>
      <trkpt lat="42.00773" lon="1.02602">
        <ele>870.815</ele>
        <time>2017-10-07T07:29:34Z</time>
      </trkpt>
      <trkpt lat="42.00775" lon="1.02614">
        <ele>869.847</ele>
        <time>2017-10-07T07:29:24Z</time>
      </trkpt>
      <trkpt lat="42.00779" lon="1.02626">
        <ele>868.65</ele>
        <time>2017-10-07T07:29:15Z</time>
      </trkpt>
      <trkpt lat="42.00785" lon="1.02638">
        <ele>868.431</ele>
        <time>2017-10-07T07:29:06Z</time>
      </trkpt>
      <trkpt lat="42.00788" lon="1.0265">
        <ele>867.288</ele>
        <time>2017-10-07T07:28:57Z</time>
      </trkpt>
      <trkpt lat="42.00791" lon="1.02662">
        <ele>865.762</ele>
        <time>2017-10-07T07:28:48Z</time>
      </trkpt>
      <trkpt lat="42.00797" lon="1.02671">
        <ele>865.454</ele>
        <time>2017-10-07T07:28:39Z</time>
      </trkpt>
      <trkpt lat="42.00805" lon="1.0268">
        <ele>865.456</ele>
        <time>2017-10-07T07:28:28Z</time>
      </trkpt>
      <trkpt lat="42.00813" lon="1.02689">
        <ele>863.911</ele>
        <time>2017-10-07T07:28:14Z</time>
      </trkpt>
      <trkpt lat="42.00807" lon="1.02702">
        <ele>859.808</ele>
        <time>2017-10-07T07:27:56Z</time>
      </trkpt>
      <trkpt lat="42.00811" lon="1.02715">
        <ele>856.047</ele>
        <time>2017-10-07T07:27:37Z</time>
      </trkpt>
      <trkpt lat="42.00801" lon="1.02746">
        <ele>843.456</ele>
        <time>2017-10-07T07:26:50Z</time>
      </trkpt>
      <trkpt lat="42.00804" lon="1.02757">
        <ele>840.497</ele>
        <time>2017-10-07T07:26:35Z</time>
      </trkpt>
      <trkpt lat="42.00809" lon="1.02767">
        <ele>838.329</ele>
        <time>2017-10-07T07:26:19Z</time>
      </trkpt>
      <trkpt lat="42.00809" lon="1.02782">
        <ele>833.442</ele>
        <time>2017-10-07T07:26:03Z</time>
      </trkpt>
      <trkpt lat="42.00818" lon="1.02789">
        <ele>832.673</ele>
        <time>2017-10-07T07:25:52Z</time>
      </trkpt>
      <trkpt lat="42.00819" lon="1.0282">
        <ele>821.19</ele>
        <time>2017-10-07T07:25:04Z</time>
      </trkpt>
      <trkpt lat="42.00825" lon="1.02837">
        <ele>815.824</ele>
        <time>2017-10-07T07:24:41Z</time>
      </trkpt>
      <trkpt lat="42.00831" lon="1.02848">
        <ele>813.496</ele>
        <time>2017-10-07T07:24:29Z</time>
      </trkpt>
      <trkpt lat="42.00841" lon="1.02854">
        <ele>812.531</ele>
        <time>2017-10-07T07:24:19Z</time>
      </trkpt>
      <trkpt lat="42.00851" lon="1.02863">
        <ele>810.024</ele>
        <time>2017-10-07T07:24:04Z</time>
      </trkpt>
      <trkpt lat="42.00855" lon="1.0288">
        <ele>804.408</ele>
        <time>2017-10-07T07:23:40Z</time>
      </trkpt>
      <trkpt lat="42.00829" lon="1.0289">
        <ele>799.021</ele>
        <time>2017-10-07T07:23:08Z</time>
      </trkpt>
      <trkpt lat="42.00814" lon="1.02891">
        <ele>795.91</ele>
        <time>2017-10-07T07:22:52Z</time>
      </trkpt>
      <trkpt lat="42.00802" lon="1.0289">
        <ele>793.841</ele>
        <time>2017-10-07T07:22:36Z</time>
      </trkpt>
      <trkpt lat="42.00808" lon="1.029">
        <ele>791.053</ele>
        <time>2017-10-07T07:22:20Z</time>
      </trkpt>
      <trkpt lat="42.00814" lon="1.02908">
        <ele>789.226</ele>
        <time>2017-10-07T07:22:06Z</time>
      </trkpt>
      <trkpt lat="42.00804" lon="1.02916">
        <ele>784.017</ele>
        <time>2017-10-07T07:21:44Z</time>
      </trkpt>
      <trkpt lat="42.00793" lon="1.02907">
        <ele>784.714</ele>
        <time>2017-10-07T07:21:25Z</time>
      </trkpt>
      <trkpt lat="42.00799" lon="1.02915">
        <ele>782.758</ele>
        <time>2017-10-07T07:20:56Z</time>
      </trkpt>
      <trkpt lat="42.00803" lon="1.02924">
        <ele>779.985</ele>
        <time>2017-10-07T07:20:21Z</time>
      </trkpt>
      <trkpt lat="42.00808" lon="1.02938">
        <ele>774.789</ele>
        <time>2017-10-07T07:19:56Z</time>
      </trkpt>
      <trkpt lat="42.00809" lon="1.02951">
        <ele>768.817</ele>
        <time>2017-10-07T07:19:34Z</time>
      </trkpt>
      <trkpt lat="42.00783" lon="1.02967">
        <ele>760.508</ele>
        <time>2017-10-07T07:18:59Z</time>
      </trkpt>
      <trkpt lat="42.00777" lon="1.02982">
        <ele>757.88</ele>
        <time>2017-10-07T07:18:46Z</time>
      </trkpt>
      <trkpt lat="42.00789" lon="1.03001">
        <ele>751.549</ele>
        <time>2017-10-07T07:18:15Z</time>
      </trkpt>
      <trkpt lat="42.00799" lon="1.03001">
        <ele>748.62</ele>
        <time>2017-10-07T07:18:00Z</time>
      </trkpt>
      <trkpt lat="42.0081" lon="1.03006">
        <ele>745.932</ele>
        <time>2017-10-07T07:17:46Z</time>
      </trkpt>
      <trkpt lat="42.00817" lon="1.03015">
        <ele>744.295</ele>
        <time>2017-10-07T07:17:33Z</time>
      </trkpt>
      <trkpt lat="42.00827" lon="1.03024">
        <ele>742.216</ele>
        <time>2017-10-07T07:17:20Z</time>
      </trkpt>
      <trkpt lat="42.00834" lon="1.03038">
        <ele>737.263</ele>
        <time>2017-10-07T07:17:03Z</time>
      </trkpt>
      <trkpt lat="42.00839" lon="1.03049">
        <ele>735.187</ele>
        <time>2017-10-07T07:16:50Z</time>
      </trkpt>
      <trkpt lat="42.00842" lon="1.03062">
        <ele>730.763</ele>
        <time>2017-10-07T07:16:34Z</time>
      </trkpt>
      <trkpt lat="42.00841" lon="1.03077">
        <ele>724.344</ele>
        <time>2017-10-07T07:16:13Z</time>
      </trkpt>
      <trkpt lat="42.00839" lon="1.03094">
        <ele>716.918</ele>
        <time>2017-10-07T07:15:50Z</time>
      </trkpt>
      <trkpt lat="42.00846" lon="1.03106">
        <ele>714.208</ele>
        <time>2017-10-07T07:15:01Z</time>
      </trkpt>
      <trkpt lat="42.0085" lon="1.03118">
        <ele>710.118</ele>
        <time>2017-10-07T07:14:39Z</time>
      </trkpt>
      <trkpt lat="42.00856" lon="1.03126">
        <ele>707.837</ele>
        <time>2017-10-07T07:14:25Z</time>
      </trkpt>
      <trkpt lat="42.00858" lon="1.03137">
        <ele>702.918</ele>
        <time>2017-10-07T07:14:01Z</time>
      </trkpt>
      <trkpt lat="42.00844" lon="1.03139">
        <ele>698.08</ele>
        <time>2017-10-07T07:13:26Z</time>
      </trkpt>
      <trkpt lat="42.00834" lon="1.03139">
        <ele>695.113</ele>
        <time>2017-10-07T07:13:11Z</time>
      </trkpt>
      <trkpt lat="42.00824" lon="1.03146">
        <ele>690.674</ele>
        <time>2017-10-07T07:12:56Z</time>
      </trkpt>
      <trkpt lat="42.0083" lon="1.03154">
        <ele>688.871</ele>
        <time>2017-10-07T07:12:46Z</time>
      </trkpt>
      <trkpt lat="42.00839" lon="1.03157">
        <ele>689.145</ele>
        <time>2017-10-07T07:12:38Z</time>
      </trkpt>
      <trkpt lat="42.00848" lon="1.03162">
        <ele>688.522</ele>
        <time>2017-10-07T07:12:29Z</time>
      </trkpt>
      <trkpt lat="42.00855" lon="1.0317">
        <ele>688.362</ele>
        <time>2017-10-07T07:12:20Z</time>
      </trkpt>
      <trkpt lat="42.00853" lon="1.03181">
        <ele>689.808</ele>
        <time>2017-10-07T07:12:11Z</time>
      </trkpt>
      <trkpt lat="42.00843" lon="1.03178">
        <ele>688.708</ele>
        <time>2017-10-07T07:12:03Z</time>
      </trkpt>
      <trkpt lat="42.00832" lon="1.03176">
        <ele>687.224</ele>
        <time>2017-10-07T07:11:55Z</time>
      </trkpt>
      <trkpt lat="42.00823" lon="1.03174">
        <ele>686.283</ele>
        <time>2017-10-07T07:11:48Z</time>
      </trkpt>
      <trkpt lat="42.00814" lon="1.03171">
        <ele>684.984</ele>
        <time>2017-10-07T07:11:41Z</time>
      </trkpt>
      <trkpt lat="42.00804" lon="1.0317">
        <ele>683.986</ele>
        <time>2017-10-07T07:11:34Z</time>
      </trkpt>
      <trkpt lat="42.00793" lon="1.03168">
        <ele>682.599</ele>
        <time>2017-10-07T07:11:26Z</time>
      </trkpt>
      <trkpt lat="42.00783" lon="1.03168">
        <ele>681.84</ele>
        <time>2017-10-07T07:11:19Z</time>
      </trkpt>
      <trkpt lat="42.00774" lon="1.0317">
        <ele>681.637</ele>
        <time>2017-10-07T07:11:12Z</time>
      </trkpt>
      <trkpt lat="42.00764" lon="1.03172">
        <ele>681.851</ele>
        <time>2017-10-07T07:11:03Z</time>
      </trkpt>
      <trkpt lat="42.00753" lon="1.03174">
        <ele>681.946</ele>
        <time>2017-10-07T07:10:54Z</time>
      </trkpt>
      <trkpt lat="42.00743" lon="1.03175">
        <ele>681.688</ele>
        <time>2017-10-07T07:10:45Z</time>
      </trkpt>
      <trkpt lat="42.00732" lon="1.03176">
        <ele>681.216</ele>
        <time>2017-10-07T07:10:36Z</time>
      </trkpt>
      <trkpt lat="42.00723" lon="1.03177">
        <ele>680.808</ele>
        <time>2017-10-07T07:10:28Z</time>
      </trkpt>
      <trkpt lat="42.00714" lon="1.0318">
        <ele>680.196</ele>
        <time>2017-10-07T07:10:20Z</time>
      </trkpt>
      <trkpt lat="42.00706" lon="1.03184">
        <ele>679.395</ele>
        <time>2017-10-07T07:10:12Z</time>
      </trkpt>
      <trkpt lat="42.00697" lon="1.03186">
        <ele>678.346</ele>
        <time>2017-10-07T07:10:04Z</time>
      </trkpt>
      <trkpt lat="42.00691" lon="1.03187">
        <ele>677.918</ele>
        <time>2017-10-07T07:09:18Z</time>
      </trkpt>
      <trkpt lat="42.00682" lon="1.03189">
        <ele>677.821</ele>
        <time>2017-10-07T07:09:09Z</time>
      </trkpt>
      <trkpt lat="42.00672" lon="1.03185">
        <ele>677.212</ele>
        <time>2017-10-07T07:09:01Z</time>
      </trkpt>
      <trkpt lat="42.00662" lon="1.0318">
        <ele>677.399</ele>
        <time>2017-10-07T07:08:53Z</time>
      </trkpt>
      <trkpt lat="42.00653" lon="1.03183">
        <ele>680.023</ele>
        <time>2017-10-07T07:08:46Z</time>
      </trkpt>
      <trkpt lat="42.00645" lon="1.03176">
        <ele>679.843</ele>
        <time>2017-10-07T07:08:37Z</time>
      </trkpt>
      <trkpt lat="42.00638" lon="1.03164">
        <ele>676.864</ele>
        <time>2017-10-07T07:08:27Z</time>
      </trkpt>
      <trkpt lat="42.0063" lon="1.03155">
        <ele>675.41</ele>
        <time>2017-10-07T07:08:16Z</time>
      </trkpt>
      <trkpt lat="42.0062" lon="1.0315">
        <ele>673.908</ele>
        <time>2017-10-07T07:08:06Z</time>
      </trkpt>
      <trkpt lat="42.00607" lon="1.03146">
        <ele>671.866</ele>
        <time>2017-10-07T07:07:55Z</time>
      </trkpt>
      <trkpt lat="42.00597" lon="1.03136">
        <ele>667.835</ele>
        <time>2017-10-07T07:07:44Z</time>
      </trkpt>
      <trkpt lat="42.00586" lon="1.0313">
        <ele>665.336</ele>
        <time>2017-10-07T07:07:25Z</time>
      </trkpt>
      <trkpt lat="42.00577" lon="1.03123">
        <ele>662.248</ele>
        <time>2017-10-07T07:07:06Z</time>
      </trkpt>
      <trkpt lat="42.00558" lon="1.03098">
        <ele>656.321</ele>
        <time>2017-10-07T07:05:52Z</time>
      </trkpt>
      <trkpt lat="42.00541" lon="1.03087">
        <ele>653.952</ele>
        <time>2017-10-07T07:05:33Z</time>
      </trkpt>
      <trkpt lat="42.00533" lon="1.03079">
        <ele>653.159</ele>
        <time>2017-10-07T07:05:23Z</time>
      </trkpt>
      <trkpt lat="42.00522" lon="1.03072">
        <ele>651.743</ele>
        <time>2017-10-07T07:05:14Z</time>
      </trkpt>
      <trkpt lat="42.00515" lon="1.03062">
        <ele>650.865</ele>
        <time>2017-10-07T07:05:06Z</time>
      </trkpt>
      <trkpt lat="42.00505" lon="1.03053">
        <ele>648.668</ele>
        <time>2017-10-07T07:04:55Z</time>
      </trkpt>
      <trkpt lat="42.00492" lon="1.03046">
        <ele>646.914</ele>
        <time>2017-10-07T07:04:39Z</time>
      </trkpt>
      <trkpt lat="42.00481" lon="1.03044">
        <ele>644.308</ele>
        <time>2017-10-07T07:04:26Z</time>
      </trkpt>
      <trkpt lat="42.00469" lon="1.03042">
        <ele>642.118</ele>
        <time>2017-10-07T07:04:12Z</time>
      </trkpt>
      <trkpt lat="42.00456" lon="1.03039">
        <ele>640.877</ele>
        <time>2017-10-07T07:03:57Z</time>
      </trkpt>
      <trkpt lat="42.00447" lon="1.03024">
        <ele>639.048</ele>
        <time>2017-10-07T07:03:46Z</time>
      </trkpt>
      <trkpt lat="42.00436" lon="1.03012">
        <ele>638.08</ele>
        <time>2017-10-07T07:03:34Z</time>
      </trkpt>
      <trkpt lat="42.00418" lon="1.0301">
        <ele>636.063</ele>
        <time>2017-10-07T07:03:16Z</time>
      </trkpt>
      <trkpt lat="42.00404" lon="1.03014">
        <ele>636.544</ele>
        <time>2017-10-07T07:03:07Z</time>
      </trkpt>
      <trkpt lat="42.00391" lon="1.0301">
        <ele>635.081</ele>
        <time>2017-10-07T07:02:56Z</time>
      </trkpt>
      <trkpt lat="42.00378" lon="1.03013">
        <ele>633.895</ele>
        <time>2017-10-07T07:02:45Z</time>
      </trkpt>
      <trkpt lat="42.00367" lon="1.03015">
        <ele>632.283</ele>
        <time>2017-10-07T07:02:33Z</time>
      </trkpt>
      <trkpt lat="42.00358" lon="1.03023">
        <ele>632.025</ele>
        <time>2017-10-07T07:02:24Z</time>
      </trkpt>
      <trkpt lat="42.0035" lon="1.03035">
        <ele>632.717</ele>
        <time>2017-10-07T07:02:16Z</time>
      </trkpt>
      <trkpt lat="42.0034" lon="1.03041">
        <ele>630.908</ele>
        <time>2017-10-07T07:02:05Z</time>
      </trkpt>
      <trkpt lat="42.00331" lon="1.03044">
        <ele>629.13</ele>
        <time>2017-10-07T07:01:57Z</time>
      </trkpt>
      <trkpt lat="42.00321" lon="1.03054">
        <ele>629.979</ele>
        <time>2017-10-07T07:01:49Z</time>
      </trkpt>
      <trkpt lat="42.00305" lon="1.0306">
        <ele>629.72</ele>
        <time>2017-10-07T07:01:39Z</time>
      </trkpt>
      <trkpt lat="42.00292" lon="1.03056">
        <ele>629.182</ele>
        <time>2017-10-07T07:01:29Z</time>
      </trkpt>
      <trkpt lat="42.0028" lon="1.03052">
        <ele>629.525</ele>
        <time>2017-10-07T07:01:19Z</time>
      </trkpt>
      <trkpt lat="42.00268" lon="1.03047">
        <ele>628.496</ele>
        <time>2017-10-07T07:01:09Z</time>
      </trkpt>
      <trkpt lat="42.00259" lon="1.0304">
        <ele>626.853</ele>
        <time>2017-10-07T07:00:58Z</time>
      </trkpt>
      <trkpt lat="42.00248" lon="1.03036">
        <ele>626.817</ele>
        <time>2017-10-07T07:00:49Z</time>
      </trkpt>
      <trkpt lat="42.00239" lon="1.03034">
        <ele>626.018</ele>
        <time>2017-10-07T07:00:41Z</time>
      </trkpt>
      <trkpt lat="42.00228" lon="1.03029">
        <ele>625.198</ele>
        <time>2017-10-07T07:00:33Z</time>
      </trkpt>
      <trkpt lat="42.00216" lon="1.03028">
        <ele>625.617</ele>
        <time>2017-10-07T07:00:25Z</time>
      </trkpt>
      <trkpt lat="42.00206" lon="1.03029">
        <ele>626.508</ele>
        <time>2017-10-07T07:00:16Z</time>
      </trkpt>
      <trkpt lat="42.00195" lon="1.03026">
        <ele>626.493</ele>
        <time>2017-10-07T07:00:08Z</time>
      </trkpt>
      <trkpt lat="42.00185" lon="1.03023">
        <ele>626.252</ele>
        <time>2017-10-07T07:00:00Z</time>
      </trkpt>
      <trkpt lat="42.00174" lon="1.03015">
        <ele>624.693</ele>
        <time>2017-10-07T06:59:52Z</time>
      </trkpt>
      <trkpt lat="42.00165" lon="1.03016">
        <ele>625.375</ele>
        <time>2017-10-07T06:59:44Z</time>
      </trkpt>
      <trkpt lat="42.00154" lon="1.03014">
        <ele>625.158</ele>
        <time>2017-10-07T06:59:37Z</time>
      </trkpt>
      <trkpt lat="42.00144" lon="1.03009">
        <ele>624.229</ele>
        <time>2017-10-07T06:59:29Z</time>
      </trkpt>
      <trkpt lat="42.00133" lon="1.03005">
        <ele>624.086</ele>
        <time>2017-10-07T06:59:21Z</time>
      </trkpt>
      <trkpt lat="42.00123" lon="1.03003">
        <ele>624.51</ele>
        <time>2017-10-07T06:59:14Z</time>
      </trkpt>
      <trkpt lat="42.00113" lon="1.03">
        <ele>624.965</ele>
        <time>2017-10-07T06:59:06Z</time>
      </trkpt>
      <trkpt lat="42.00103" lon="1.02997">
        <ele>624.568</ele>
        <time>2017-10-07T06:58:59Z</time>
      </trkpt>
      <trkpt lat="42.00093" lon="1.02994">
        <ele>624.514</ele>
        <time>2017-10-07T06:58:51Z</time>
      </trkpt>
      <trkpt lat="42.00082" lon="1.02992">
        <ele>625.108</ele>
        <time>2017-10-07T06:58:44Z</time>
      </trkpt>
      <trkpt lat="42.00072" lon="1.02985">
        <ele>624.918</ele>
        <time>2017-10-07T06:58:36Z</time>
      </trkpt>
      <trkpt lat="42.00061" lon="1.02979">
        <ele>624.547</ele>
        <time>2017-10-07T06:58:28Z</time>
      </trkpt>
      <trkpt lat="42.00052" lon="1.02971">
        <ele>623.428</ele>
        <time>2017-10-07T06:58:20Z</time>
      </trkpt>
      <trkpt lat="42.00044" lon="1.02961">
        <ele>621.66</ele>
        <time>2017-10-07T06:58:11Z</time>
      </trkpt>
      <trkpt lat="42.00036" lon="1.02953">
        <ele>620.123</ele>
        <time>2017-10-07T06:58:02Z</time>
      </trkpt>
      <trkpt lat="42.00026" lon="1.02947">
        <ele>619.414</ele>
        <time>2017-10-07T06:57:52Z</time>
      </trkpt>
      <trkpt lat="42.00015" lon="1.02944">
        <ele>618.961</ele>
        <time>2017-10-07T06:57:44Z</time>
      </trkpt>
      <trkpt lat="42.00004" lon="1.02945">
        <ele>619.985</ele>
        <time>2017-10-07T06:57:35Z</time>
      </trkpt>
      <trkpt lat="41.99995" lon="1.02938">
        <ele>621.432</ele>
        <time>2017-10-07T06:57:26Z</time>
      </trkpt>
      <trkpt lat="41.99986" lon="1.02931">
        <ele>619.292</ele>
        <time>2017-10-07T06:57:17Z</time>
      </trkpt>
      <trkpt lat="41.99976" lon="1.02923">
        <ele>617.011</ele>
        <time>2017-10-07T06:57:09Z</time>
      </trkpt>
      <trkpt lat="41.99967" lon="1.02915">
        <ele>615.508</ele>
        <time>2017-10-07T06:57:01Z</time>
      </trkpt>
      <trkpt lat="41.99958" lon="1.02908">
        <ele>615.515</ele>
        <time>2017-10-07T06:56:53Z</time>
      </trkpt>
      <trkpt lat="41.99948" lon="1.029">
        <ele>615.044</ele>
        <time>2017-10-07T06:56:45Z</time>
      </trkpt>
      <trkpt lat="41.9994" lon="1.02892">
        <ele>614.855</ele>
        <time>2017-10-07T06:56:37Z</time>
      </trkpt>
      <trkpt lat="41.99932" lon="1.02887">
        <ele>616.067</ele>
        <time>2017-10-07T06:56:29Z</time>
      </trkpt>
      <trkpt lat="41.99934" lon="1.02888">
        <ele>615.54</ele>
        <time>2017-10-07T06:55:47Z</time>
      </trkpt>
      <trkpt lat="41.99928" lon="1.02884">
        <ele>616.551</ele>
        <time>2017-10-07T06:54:52Z</time>
      </trkpt>
      <trkpt lat="41.9992" lon="1.0288">
        <ele>617.998</ele>
        <time>2017-10-07T06:54:31Z</time>
      </trkpt>
      <trkpt lat="41.99909" lon="1.02875">
        <ele>618.322</ele>
        <time>2017-10-07T06:54:22Z</time>
      </trkpt>
      <trkpt lat="41.99899" lon="1.02863">
        <ele>616.931</ele>
        <time>2017-10-07T06:54:11Z</time>
      </trkpt>
      <trkpt lat="41.9989" lon="1.0286">
        <ele>616.861</ele>
        <time>2017-10-07T06:54:02Z</time>
      </trkpt>
      <trkpt lat="41.99877" lon="1.02859">
        <ele>617.107</ele>
        <time>2017-10-07T06:53:53Z</time>
      </trkpt>
      <trkpt lat="41.99866" lon="1.02858">
        <ele>617.308</ele>
        <time>2017-10-07T06:53:45Z</time>
      </trkpt>
      <trkpt lat="41.99856" lon="1.02858">
        <ele>617.225</ele>
        <time>2017-10-07T06:53:37Z</time>
      </trkpt>
      <trkpt lat="41.99846" lon="1.02861">
        <ele>616.854</ele>
        <time>2017-10-07T06:53:29Z</time>
      </trkpt>
      <trkpt lat="41.99836" lon="1.02862">
        <ele>616.455</ele>
        <time>2017-10-07T06:53:21Z</time>
      </trkpt>
      <trkpt lat="41.99825" lon="1.02865">
        <ele>616.647</ele>
        <time>2017-10-07T06:53:13Z</time>
      </trkpt>
      <trkpt lat="41.99815" lon="1.02866">
        <ele>616.59</ele>
        <time>2017-10-07T06:53:06Z</time>
      </trkpt>
      <trkpt lat="41.99804" lon="1.02865">
        <ele>616.061</ele>
        <time>2017-10-07T06:52:58Z</time>
      </trkpt>
      <trkpt lat="41.99791" lon="1.02867">
        <ele>615.718</ele>
        <time>2017-10-07T06:52:48Z</time>
      </trkpt>
      <trkpt lat="41.99779" lon="1.0287">
        <ele>615.322</ele>
        <time>2017-10-07T06:52:39Z</time>
      </trkpt>
      <trkpt lat="41.99767" lon="1.0287">
        <ele>614.214</ele>
        <time>2017-10-07T06:52:30Z</time>
      </trkpt>
      <trkpt lat="41.99755" lon="1.02866">
        <ele>612.454</ele>
        <time>2017-10-07T06:52:21Z</time>
      </trkpt>
      <trkpt lat="41.99744" lon="1.02865">
        <ele>611.509</ele>
        <time>2017-10-07T06:52:13Z</time>
      </trkpt>
      <trkpt lat="41.99733" lon="1.02865">
        <ele>611.108</ele>
        <time>2017-10-07T06:52:03Z</time>
      </trkpt>
      <trkpt lat="41.99723" lon="1.02865">
        <ele>610.963</ele>
        <time>2017-10-07T06:51:53Z</time>
      </trkpt>
      <trkpt lat="41.99713" lon="1.02867">
        <ele>610.932</ele>
        <time>2017-10-07T06:51:44Z</time>
      </trkpt>
      <trkpt lat="41.99703" lon="1.0287">
        <ele>611.153</ele>
        <time>2017-10-07T06:51:36Z</time>
      </trkpt>
      <trkpt lat="41.99694" lon="1.02872">
        <ele>611.025</ele>
        <time>2017-10-07T06:51:28Z</time>
      </trkpt>
      <trkpt lat="41.99685" lon="1.02874">
        <ele>611.378</ele>
        <time>2017-10-07T06:51:19Z</time>
      </trkpt>
      <trkpt lat="41.99674" lon="1.02874">
        <ele>611.479</ele>
        <time>2017-10-07T06:49:52Z</time>
      </trkpt>
      <trkpt lat="41.9966" lon="1.02877">
        <ele>611.696</ele>
        <time>2017-10-07T06:48:06Z</time>
      </trkpt>
      <trkpt lat="41.99651" lon="1.0288">
        <ele>611.46</ele>
        <time>2017-10-07T06:47:57Z</time>
      </trkpt>
      <trkpt lat="41.99641" lon="1.02883">
        <ele>610.781</ele>
        <time>2017-10-07T06:47:48Z</time>
      </trkpt>
      <trkpt lat="41.99633" lon="1.02876">
        <ele>610.661</ele>
        <time>2017-10-07T06:47:38Z</time>
      </trkpt>
      <trkpt lat="41.99631" lon="1.02861">
        <ele>609.317</ele>
        <time>2017-10-07T06:47:29Z</time>
      </trkpt>
      <trkpt lat="41.99622" lon="1.02854">
        <ele>609.008</ele>
        <time>2017-10-07T06:47:20Z</time>
      </trkpt>
      <trkpt lat="41.99612" lon="1.02848">
        <ele>609.56</ele>
        <time>2017-10-07T06:47:11Z</time>
      </trkpt>
      <trkpt lat="41.99602" lon="1.02845">
        <ele>610.849</ele>
        <time>2017-10-07T06:47:02Z</time>
      </trkpt>
      <trkpt lat="41.99594" lon="1.02843">
        <ele>611.47</ele>
        <time>2017-10-07T06:46:18Z</time>
      </trkpt>
      <trkpt lat="41.99585" lon="1.0284">
        <ele>611.872</ele>
        <time>2017-10-07T06:46:10Z</time>
      </trkpt>
      <trkpt lat="41.99574" lon="1.02837">
        <ele>611.815</ele>
        <time>2017-10-07T06:46:02Z</time>
      </trkpt>
      <trkpt lat="41.99564" lon="1.02829">
        <ele>610.276</ele>
        <time>2017-10-07T06:45:53Z</time>
      </trkpt>
      <trkpt lat="41.99553" lon="1.02825">
        <ele>609.763</ele>
        <time>2017-10-07T06:45:44Z</time>
      </trkpt>
      <trkpt lat="41.99543" lon="1.02826">
        <ele>611.757</ele>
        <time>2017-10-07T06:45:34Z</time>
      </trkpt>
      <trkpt lat="41.99536" lon="1.0282">
        <ele>611.378</ele>
        <time>2017-10-07T06:45:18Z</time>
      </trkpt>
      <trkpt lat="41.99552" lon="1.02801">
        <ele>602.733</ele>
        <time>2017-10-07T06:44:42Z</time>
      </trkpt>
      <trkpt lat="41.99561" lon="1.02792">
        <ele>600.126</ele>
        <time>2017-10-07T06:43:55Z</time>
      </trkpt>
      <trkpt lat="41.99572" lon="1.02794">
        <ele>600.708</ele>
        <time>2017-10-07T06:43:39Z</time>
      </trkpt>
      <trkpt lat="41.99615" lon="1.02761">
        <ele>591.739</ele>
        <time>2017-10-07T06:42:44Z</time>
      </trkpt>
      <trkpt lat="41.99619" lon="1.02748">
        <ele>589.328</ele>
        <time>2017-10-07T06:42:33Z</time>
      </trkpt>
      <trkpt lat="41.99612" lon="1.02738">
        <ele>588.699</ele>
        <time>2017-10-07T06:42:25Z</time>
      </trkpt>
      <trkpt lat="41.99609" lon="1.02724">
        <ele>587.351</ele>
        <time>2017-10-07T06:42:17Z</time>
      </trkpt>
      <trkpt lat="41.99605" lon="1.02713">
        <ele>587.044</ele>
        <time>2017-10-07T06:42:10Z</time>
      </trkpt>
      <trkpt lat="41.99601" lon="1.02699">
        <ele>586.425</ele>
        <time>2017-10-07T06:42:02Z</time>
      </trkpt>
      <trkpt lat="41.99602" lon="1.02683">
        <ele>586.912</ele>
        <time>2017-10-07T06:41:54Z</time>
      </trkpt>
      <trkpt lat="41.99602" lon="1.02668">
        <ele>587.686</ele>
        <time>2017-10-07T06:41:46Z</time>
      </trkpt>
      <trkpt lat="41.99596" lon="1.02657">
        <ele>588.716</ele>
        <time>2017-10-07T06:41:38Z</time>
      </trkpt>
      <trkpt lat="41.99593" lon="1.02644">
        <ele>590.176</ele>
        <time>2017-10-07T06:41:28Z</time>
      </trkpt>
      <trkpt lat="41.9959" lon="1.02628">
        <ele>591.713</ele>
        <time>2017-10-07T06:41:20Z</time>
      </trkpt>
      <trkpt lat="41.99582" lon="1.02617">
        <ele>592.208</ele>
        <time>2017-10-07T06:41:12Z</time>
      </trkpt>
      <trkpt lat="41.99569" lon="1.02611">
        <ele>591.543</ele>
        <time>2017-10-07T06:41:02Z</time>
      </trkpt>
      <trkpt lat="41.9956" lon="1.02604">
        <ele>591.122</ele>
        <time>2017-10-07T06:40:54Z</time>
      </trkpt>
      <trkpt lat="41.99551" lon="1.02595">
        <ele>591.423</ele>
        <time>2017-10-07T06:40:46Z</time>
      </trkpt>
      <trkpt lat="41.99544" lon="1.02585">
        <ele>592.045</ele>
        <time>2017-10-07T06:40:38Z</time>
      </trkpt>
      <trkpt lat="41.99538" lon="1.02575">
        <ele>592.478</ele>
        <time>2017-10-07T06:40:30Z</time>
      </trkpt>
      <trkpt lat="41.99534" lon="1.02563">
        <ele>593.089</ele>
        <time>2017-10-07T06:40:22Z</time>
      </trkpt>
      <trkpt lat="41.99531" lon="1.02551">
        <ele>593.776</ele>
        <time>2017-10-07T06:40:14Z</time>
      </trkpt>
      <trkpt lat="41.99533" lon="1.02537">
        <ele>594.99</ele>
        <time>2017-10-07T06:40:05Z</time>
      </trkpt>
      <trkpt lat="41.99537" lon="1.02521">
        <ele>596.524</ele>
        <time>2017-10-07T06:39:56Z</time>
      </trkpt>
      <trkpt lat="41.99536" lon="1.02506">
        <ele>597.704</ele>
        <time>2017-10-07T06:39:47Z</time>
      </trkpt>
      <trkpt lat="41.9953" lon="1.0249">
        <ele>598.714</ele>
        <time>2017-10-07T06:39:39Z</time>
      </trkpt>
      <trkpt lat="41.99526" lon="1.02477">
        <ele>600.108</ele>
        <time>2017-10-07T06:39:30Z</time>
      </trkpt>
      <trkpt lat="41.99522" lon="1.02466">
        <ele>601.154</ele>
        <time>2017-10-07T06:39:22Z</time>
      </trkpt>
      <trkpt lat="41.99513" lon="1.02454">
        <ele>602.063</ele>
        <time>2017-10-07T06:39:11Z</time>
      </trkpt>
      <trkpt lat="41.99506" lon="1.02443">
        <ele>603.414</ele>
        <time>2017-10-07T06:39:01Z</time>
      </trkpt>
      <trkpt lat="41.99501" lon="1.02431">
        <ele>604.516</ele>
        <time>2017-10-07T06:38:52Z</time>
      </trkpt>
      <trkpt lat="41.99497" lon="1.02421">
        <ele>605.029</ele>
        <time>2017-10-07T06:38:43Z</time>
      </trkpt>
      <trkpt lat="41.99492" lon="1.02409">
        <ele>605.74</ele>
        <time>2017-10-07T06:38:34Z</time>
      </trkpt>
      <trkpt lat="41.99485" lon="1.02401">
        <ele>605.657</ele>
        <time>2017-10-07T06:38:26Z</time>
      </trkpt>
      <trkpt lat="41.99479" lon="1.02391">
        <ele>606.091</ele>
        <time>2017-10-07T06:38:17Z</time>
      </trkpt>
      <trkpt lat="41.9947" lon="1.0238">
        <ele>606.617</ele>
        <time>2017-10-07T06:38:07Z</time>
      </trkpt>
      <trkpt lat="41.99461" lon="1.0237">
        <ele>607.087</ele>
        <time>2017-10-07T06:37:57Z</time>
      </trkpt>
      <trkpt lat="41.99455" lon="1.02361">
        <ele>607.815</ele>
        <time>2017-10-07T06:37:41Z</time>
      </trkpt>
      <trkpt lat="41.9945" lon="1.02361">
        <ele>607.008</ele>
        <time>2017-10-07T06:34:57Z</time>
      </trkpt>
    </trkseg>
  </trk>
</gpx>